Ticket #4642: Crash 1 ABB.txt

File Crash 1 ABB.txt, 1017.2 KB (added by scheer, 3 years ago)
Line 
1-15042/? D/GeckoBrowserApp: BrowserApp.onTabChanged: 15: MENU_UPDATED
211-14 09:14:54.332 278-278/? D/SurfaceFlinger: FPS : 56.39
311-14 09:14:54.332 278-278/? W/SurfaceFlinger: Fail to Open /sys/devices/platform/gpusysfs/fps
411-14 09:14:54.352 278-278/? D/SurfaceFlinger: FPS : 56.39
511-14 09:14:54.352 278-278/? W/SurfaceFlinger: Fail to Open /sys/devices/platform/gpusysfs/fps
611-14 09:14:54.362 278-278/? D/SurfaceFlinger: FPS : 56.39
711-14 09:14:54.362 278-278/? W/SurfaceFlinger: Fail to Open /sys/devices/platform/gpusysfs/fps
811-14 09:14:54.372 24308-24308/? E/SMD: smd Interface open failed errno is 2 -1
911-14 09:14:54.382 278-278/? D/SurfaceFlinger: FPS : 56.39
1011-14 09:14:54.382 278-278/? W/SurfaceFlinger: Fail to Open /sys/devices/platform/gpusysfs/fps
1111-14 09:14:54.382 295-848/? D/EnterpriseController: mIsMarkChainAdded is 0 mIsBlockChainAdded is 0 netId is 0
1211-14 09:14:54.382 295-848/? D/Netd: getNetworkForDns: using netid 502 for uid 10200
1311-14 09:14:54.402 278-278/? D/SurfaceFlinger: FPS : 56.37
1411-14 09:14:54.402 278-278/? W/SurfaceFlinger: Fail to Open /sys/devices/platform/gpusysfs/fps
1511-14 09:14:54.432 278-278/? D/SurfaceFlinger: FPS : 56.37
1611-14 09:14:54.432 278-278/? W/SurfaceFlinger: Fail to Open /sys/devices/platform/gpusysfs/fps
1711-14 09:14:54.442 278-278/? D/SurfaceFlinger: FPS : 56.37
1811-14 09:14:54.452 278-278/? W/SurfaceFlinger: Fail to Open /sys/devices/platform/gpusysfs/fps
1911-14 09:14:54.452 295-848/? D/EnterpriseController: mIsMarkChainAdded is 0 mIsBlockChainAdded is 0 netId is 0
2011-14 09:14:54.452 295-848/? D/Netd: getNetworkForDns: using netid 502 for uid 10200
2111-14 09:14:54.462 278-278/? D/SurfaceFlinger: FPS : 56.37
2211-14 09:14:54.462 278-278/? W/SurfaceFlinger: Fail to Open /sys/devices/platform/gpusysfs/fps
2311-14 09:14:54.482 278-278/? D/SurfaceFlinger: FPS : 56.37
2411-14 09:14:54.482 278-278/? W/SurfaceFlinger: Fail to Open /sys/devices/platform/gpusysfs/fps
2511-14 09:14:54.533 295-848/? D/EnterpriseController: mIsMarkChainAdded is 0 mIsBlockChainAdded is 0 netId is 0
2611-14 09:14:54.533 295-848/? D/Netd: getNetworkForDns: using netid 502 for uid 10200
2711-14 09:14:54.603 295-848/? D/EnterpriseController: mIsMarkChainAdded is 0 mIsBlockChainAdded is 0 netId is 0
2811-14 09:14:54.603 295-848/? D/Netd: getNetworkForDns: using netid 502 for uid 10200
2911-14 09:14:54.613 278-278/? D/SurfaceFlinger: FPS : 56.37
3011-14 09:14:54.613 278-278/? W/SurfaceFlinger: Fail to Open /sys/devices/platform/gpusysfs/fps
3111-14 09:14:54.633 278-278/? D/SurfaceFlinger: FPS : 56.37
3211-14 09:14:54.633 278-278/? W/SurfaceFlinger: Fail to Open /sys/devices/platform/gpusysfs/fps
3311-14 09:14:54.663 278-278/? D/SurfaceFlinger: FPS : 26.33
3411-14 09:14:54.663 278-278/? W/SurfaceFlinger: Fail to Open /sys/devices/platform/gpusysfs/fps
3511-14 09:14:54.693 278-278/? D/SurfaceFlinger: FPS : 26.33
3611-14 09:14:54.693 278-278/? W/SurfaceFlinger: Fail to Open /sys/devices/platform/gpusysfs/fps
3711-14 09:14:54.713 868-1528/? D/BatteryService: !@BatteryListener : batteryPropertiesChanged!
3811-14 09:14:54.713 868-1528/? D/BatteryService: level:67, scale:100, status:2, health:2, present:true, voltage: 3855, temperature: 324, technology: Li-ion, AC powered:false, USB powered:true, Wireless powered:false, icon:17303687, invalid charger:0
3911-14 09:14:54.713 868-1528/? D/BatteryService: online:4, current avg:460, charge type:1, power sharing:false, high voltage charger:false, capacity:280000, current_now:460
4011-14 09:14:54.713 868-868/? D/BatteryService: Sending ACTION_BATTERY_CHANGED.
4111-14 09:14:54.713 1263-1263/? D/KeyguardUpdateMonitor: received broadcast android.intent.action.BATTERY_CHANGED
4211-14 09:14:54.713 1263-1263/? D/KeyguardUpdateMonitor: handleBatteryUpdate
4311-14 09:14:54.713 868-868/? I/MotionRecognitionService: Plugged
4411-14 09:14:54.713 868-868/? I/MotionRecognitionService: setPowerConnected  = true
4511-14 09:14:54.713 278-278/? D/SurfaceFlinger: FPS : 26.33
4611-14 09:14:54.713 278-278/? W/SurfaceFlinger: Fail to Open /sys/devices/platform/gpusysfs/fps
4711-14 09:14:54.713 1263-1263/? D/STATUSBAR-PhoneStatusBar:  mBrightnessEnablebySettings = true mBrightnessEnablebyBattery = true mBrightnessEnablebyDisableFlag = true mPmsBrightnessEnablebySettings = true
4811-14 09:14:54.723 295-848/? D/EnterpriseController: mIsMarkChainAdded is 0 mIsBlockChainAdded is 0 netId is 0
4911-14 09:14:54.723 295-848/? D/Netd: getNetworkForDns: using netid 502 for uid 10200
5011-14 09:14:54.733 1263-1263/? D/BatteryMeterView: ACTION_BATTERY_CHANGED : level:67 status:2 health:2
5111-14 09:14:54.733 1263-1263/? D/BatteryMeterView: ACTION_BATTERY_CHANGED : level:67 status:2 health:2
5211-14 09:14:54.733 1263-1263/? D/BatteryMeterView: ACTION_BATTERY_CHANGED : level:67 status:2 health:2
5311-14 09:14:54.743 278-278/? D/SurfaceFlinger: FPS : 26.33
5411-14 09:14:54.743 278-278/? W/SurfaceFlinger: Fail to Open /sys/devices/platform/gpusysfs/fps
5511-14 09:14:54.783 278-278/? D/SurfaceFlinger: FPS : 26.33
5611-14 09:14:54.783 278-278/? W/SurfaceFlinger: Fail to Open /sys/devices/platform/gpusysfs/fps
5711-14 09:14:54.793 278-278/? D/SurfaceFlinger: FPS : 26.33
5811-14 09:14:54.793 278-278/? W/SurfaceFlinger: Fail to Open /sys/devices/platform/gpusysfs/fps
5911-14 09:14:54.833 278-278/? D/SurfaceFlinger: FPS : 26.33
6011-14 09:14:54.833 278-278/? W/SurfaceFlinger: Fail to Open /sys/devices/platform/gpusysfs/fps
6111-14 09:14:54.863 278-278/? D/SurfaceFlinger: FPS : 26.33
6211-14 09:14:54.863 278-278/? W/SurfaceFlinger: Fail to Open /sys/devices/platform/gpusysfs/fps
6311-14 09:14:54.883 278-278/? D/SurfaceFlinger: FPS : 26.33
6411-14 09:14:54.883 278-278/? W/SurfaceFlinger: Fail to Open /sys/devices/platform/gpusysfs/fps
6511-14 09:14:54.893 278-278/? D/SurfaceFlinger: FPS : 26.33
6611-14 09:14:54.893 278-278/? W/SurfaceFlinger: Fail to Open /sys/devices/platform/gpusysfs/fps
6711-14 09:14:54.893 304-22404/? E/OMX-VDEC-1080P: Rxd i/p EOS, Notify Driver that EOS has been reached
6811-14 09:14:54.903 304-22404/? E/OMX-VDEC-1080P: Output EOS has been reached
6911-14 09:14:54.903 304-22404/? E/OMX-VDEC-1080P: Rxd OMX_COMPONENT_GENERATE_EOS_DONE
7011-14 09:14:54.923 295-848/? D/EnterpriseController: mIsMarkChainAdded is 0 mIsBlockChainAdded is 0 netId is 0
7111-14 09:14:54.923 295-848/? D/Netd: getNetworkForDns: using netid 502 for uid 10200
7211-14 09:14:54.923 295-848/? D/EnterpriseController: mIsMarkChainAdded is 0 mIsBlockChainAdded is 0 netId is 0
7311-14 09:14:54.923 295-848/? D/Netd: getNetworkForDns: using netid 502 for uid 10200
7411-14 09:14:54.933 278-278/? D/SurfaceFlinger: FPS : 37.66
7511-14 09:14:54.933 278-278/? W/SurfaceFlinger: Fail to Open /sys/devices/platform/gpusysfs/fps
7611-14 09:14:55.253 295-848/? D/EnterpriseController: mIsMarkChainAdded is 0 mIsBlockChainAdded is 0 netId is 0
7711-14 09:14:55.253 295-848/? D/Netd: getNetworkForDns: using netid 502 for uid 10200
7811-14 09:14:55.283 295-848/? D/EnterpriseController: mIsMarkChainAdded is 0 mIsBlockChainAdded is 0 netId is 0
7911-14 09:14:55.283 295-848/? D/Netd: getNetworkForDns: using netid 502 for uid 10200
8011-14 09:14:55.283 295-848/? D/EnterpriseController: mIsMarkChainAdded is 0 mIsBlockChainAdded is 0 netId is 0
8111-14 09:14:55.283 295-848/? D/Netd: getNetworkForDns: using netid 502 for uid 10200
8211-14 09:14:55.343 15042-15524/? D/GeckoTabs: handleMessage: Link:Favicon
8311-14 09:14:55.353 15042-15524/? D/GeckoTabs: handleMessage: DOMTitleChanged
8411-14 09:14:55.353 15042-15042/? D/GeckoToolbar: onTabChanged: TITLE
8511-14 09:14:55.353 15042-15042/? D/GeckoBrowserApp: BrowserApp.onTabChanged: 15: TITLE
8611-14 09:14:55.373 24308-24308/? E/SMD: smd Interface open failed errno is 2 -1
8711-14 09:14:55.383 278-278/? D/SurfaceFlinger: FPS : 2.23
8811-14 09:14:55.383 278-278/? W/SurfaceFlinger: Fail to Open /sys/devices/platform/gpusysfs/fps
8911-14 09:14:55.383 15042-15524/? D/GeckoTabs: handleMessage: Link:Feed
9011-14 09:14:55.383 15042-15042/? D/GeckoToolbar: onTabChanged: LINK_FEED
9111-14 09:14:55.383 15042-15042/? D/GeckoBrowserApp: BrowserApp.onTabChanged: 15: LINK_FEED
9211-14 09:14:55.383 15042-15524/? D/GeckoTabs: handleMessage: Link:Feed
9311-14 09:14:55.383 15042-15042/? D/GeckoToolbar: onTabChanged: LINK_FEED
9411-14 09:14:55.383 15042-15042/? D/GeckoBrowserApp: BrowserApp.onTabChanged: 15: LINK_FEED
9511-14 09:14:55.413 278-278/? D/SurfaceFlinger: FPS : 2.23
9611-14 09:14:55.413 278-278/? W/SurfaceFlinger: Fail to Open /sys/devices/platform/gpusysfs/fps
9711-14 09:14:55.443 278-278/? D/SurfaceFlinger: FPS : 2.23
9811-14 09:14:55.443 278-278/? W/SurfaceFlinger: Fail to Open /sys/devices/platform/gpusysfs/fps
9911-14 09:14:55.463 278-278/? D/SurfaceFlinger: FPS : 2.23
10011-14 09:14:55.463 278-278/? W/SurfaceFlinger: Fail to Open /sys/devices/platform/gpusysfs/fps
10111-14 09:14:55.483 278-278/? D/SurfaceFlinger: FPS : 2.23
10211-14 09:14:55.483 278-278/? W/SurfaceFlinger: Fail to Open /sys/devices/platform/gpusysfs/fps
10311-14 09:14:55.513 278-278/? D/SurfaceFlinger: FPS : 2.23
10411-14 09:14:55.513 278-278/? W/SurfaceFlinger: Fail to Open /sys/devices/platform/gpusysfs/fps
10511-14 09:14:55.564 278-278/? D/SurfaceFlinger: FPS : 2.23
10611-14 09:14:55.564 278-278/? W/SurfaceFlinger: Fail to Open /sys/devices/platform/gpusysfs/fps
10711-14 09:14:55.584 278-278/? D/SurfaceFlinger: FPS : 2.23
10811-14 09:14:55.584 278-278/? W/SurfaceFlinger: Fail to Open /sys/devices/platform/gpusysfs/fps
10911-14 09:14:55.584 304-763/? E/OMX-VDEC-1080P: send_command: Recieved a Command from Client
11011-14 09:14:55.584 304-22404/? E/OMX-VDEC-1080P: send_command_proxy(): cmd = 1, Current State 3, Expected State -1
11111-14 09:14:55.584 304-22404/? E/OMX-VDEC-1080P: send_command_proxy(): OMX_CommandFlush issued with param1: -1
11211-14 09:14:55.584 304-763/? E/OMX-VDEC-1080P: send_command: Command Processed
11311-14 09:14:55.584 15042-22403/? I/ACodec: [OMX.qcom.video.decoder.avc] Now Flushing
11411-14 09:14:55.584 304-22404/? E/OMX-VDEC-1080P: Driver flush i/p Port complete
11511-14 09:14:55.584 304-22404/? E/OMX-VDEC-1080P: Initiate Input Flush
11611-14 09:14:55.584 304-22404/? E/OMX-VDEC-1080P: OMX flush i/p Port complete PenBuf(0)
11711-14 09:14:55.584 304-22404/? E/OMX-VDEC-1080P: Driver flush o/p Port complete
11811-14 09:14:55.594 304-22404/? E/OMX-VDEC-1080P: Initiate Output Flush
11911-14 09:14:55.594 304-22404/? E/OMX-VDEC-1080P: Buffer queue size 2 pending buf cnt 2
12011-14 09:14:55.594 304-22404/? E/OMX-VDEC-1080P: ID(c) P1(b1d5b9e0) P2(40000000)
12111-14 09:14:55.594 304-22404/? E/OMX-VDEC-1080P: Buffer queue size 1 pending buf cnt 1
12211-14 09:14:55.594 304-22404/? E/OMX-VDEC-1080P: ID(c) P1(b1d5ba30) P2(40000000)
12311-14 09:14:55.594 304-22404/? E/OMX-VDEC-1080P: OMX flush o/p Port complete PenBuf(0)
12411-14 09:14:55.594 15042-22403/? I/ACodec: [OMX.qcom.video.decoder.avc] Now Executing
12511-14 09:14:55.614 278-278/? D/SurfaceFlinger: FPS : 2.23
12611-14 09:14:55.614 278-278/? W/SurfaceFlinger: Fail to Open /sys/devices/platform/gpusysfs/fps
12711-14 09:14:55.614 304-22404/? E/OMX-VDEC-1080P: Sync frame received
12811-14 09:14:55.644 278-278/? D/SurfaceFlinger: FPS : 33.83
12911-14 09:14:55.644 278-278/? W/SurfaceFlinger: Fail to Open /sys/devices/platform/gpusysfs/fps
13011-14 09:14:55.674 278-278/? D/SurfaceFlinger: FPS : 33.83
13111-14 09:14:55.684 278-278/? W/SurfaceFlinger: Fail to Open /sys/devices/platform/gpusysfs/fps
13211-14 09:14:55.694 278-278/? D/SurfaceFlinger: FPS : 33.83
13311-14 09:14:55.694 278-278/? W/SurfaceFlinger: Fail to Open /sys/devices/platform/gpusysfs/fps
13411-14 09:14:55.714 278-278/? D/SurfaceFlinger: FPS : 33.83
13511-14 09:14:55.714 278-278/? W/SurfaceFlinger: Fail to Open /sys/devices/platform/gpusysfs/fps
13611-14 09:14:55.724 295-848/? D/EnterpriseController: mIsMarkChainAdded is 0 mIsBlockChainAdded is 0 netId is 0
13711-14 09:14:55.724 295-848/? D/Netd: getNetworkForDns: using netid 502 for uid 10200
13811-14 09:14:55.724 295-848/? D/EnterpriseController: mIsMarkChainAdded is 0 mIsBlockChainAdded is 0 netId is 0
13911-14 09:14:55.724 295-848/? D/Netd: getNetworkForDns: using netid 502 for uid 10200
14011-14 09:14:55.744 278-278/? D/SurfaceFlinger: FPS : 33.83
14111-14 09:14:55.744 278-278/? W/SurfaceFlinger: Fail to Open /sys/devices/platform/gpusysfs/fps
14211-14 09:14:55.784 278-278/? D/SurfaceFlinger: FPS : 33.83
14311-14 09:14:55.784 278-278/? W/SurfaceFlinger: Fail to Open /sys/devices/platform/gpusysfs/fps
14411-14 09:14:55.794 868-1397/? E/Watchdog: !@Sync 40
14511-14 09:14:55.814 278-278/? D/SurfaceFlinger: FPS : 33.83
14611-14 09:14:55.814 278-278/? W/SurfaceFlinger: Fail to Open /sys/devices/platform/gpusysfs/fps
14711-14 09:14:55.844 278-278/? D/SurfaceFlinger: FPS : 33.83
14811-14 09:14:55.844 278-278/? W/SurfaceFlinger: Fail to Open /sys/devices/platform/gpusysfs/fps
14911-14 09:14:55.874 278-278/? D/SurfaceFlinger: FPS : 33.83
15011-14 09:14:55.874 278-278/? W/SurfaceFlinger: Fail to Open /sys/devices/platform/gpusysfs/fps
15111-14 09:14:55.914 278-278/? D/SurfaceFlinger: FPS : 33.87
15211-14 09:14:55.914 278-278/? W/SurfaceFlinger: Fail to Open /sys/devices/platform/gpusysfs/fps
15311-14 09:14:55.944 278-278/? D/SurfaceFlinger: FPS : 33.87
15411-14 09:14:55.944 278-278/? W/SurfaceFlinger: Fail to Open /sys/devices/platform/gpusysfs/fps
15511-14 09:14:55.974 278-278/? D/SurfaceFlinger: FPS : 33.87
15611-14 09:14:55.974 278-278/? W/SurfaceFlinger: Fail to Open /sys/devices/platform/gpusysfs/fps
15711-14 09:14:56.014 278-278/? D/SurfaceFlinger: FPS : 33.87
15811-14 09:14:56.014 278-278/? W/SurfaceFlinger: Fail to Open /sys/devices/platform/gpusysfs/fps
15911-14 09:14:56.044 278-278/? D/SurfaceFlinger: FPS : 33.87
16011-14 09:14:56.044 278-278/? W/SurfaceFlinger: Fail to Open /sys/devices/platform/gpusysfs/fps
16111-14 09:14:56.254 295-848/? D/EnterpriseController: mIsMarkChainAdded is 0 mIsBlockChainAdded is 0 netId is 0
16211-14 09:14:56.254 295-848/? D/Netd: getNetworkForDns: using netid 502 for uid 10200
16311-14 09:14:56.254 295-848/? D/EnterpriseController: mIsMarkChainAdded is 0 mIsBlockChainAdded is 0 netId is 0
16411-14 09:14:56.254 295-848/? D/Netd: getNetworkForDns: using netid 502 for uid 10200
16511-14 09:14:56.284 295-848/? D/EnterpriseController: mIsMarkChainAdded is 0 mIsBlockChainAdded is 0 netId is 0
16611-14 09:14:56.284 295-848/? D/Netd: getNetworkForDns: using netid 502 for uid 10200
16711-14 09:14:56.314 295-848/? D/EnterpriseController: mIsMarkChainAdded is 0 mIsBlockChainAdded is 0 netId is 0
16811-14 09:14:56.314 295-848/? D/Netd: getNetworkForDns: using netid 502 for uid 10200
16911-14 09:14:56.334 295-848/? D/EnterpriseController: mIsMarkChainAdded is 0 mIsBlockChainAdded is 0 netId is 0
17011-14 09:14:56.334 295-848/? D/Netd: getNetworkForDns: using netid 502 for uid 10200
17111-14 09:14:56.374 24308-24308/? E/SMD: smd Interface open failed errno is 2 -1
17211-14 09:14:56.434 295-848/? D/EnterpriseController: mIsMarkChainAdded is 0 mIsBlockChainAdded is 0 netId is 0
17311-14 09:14:56.434 295-848/? D/Netd: getNetworkForDns: using netid 502 for uid 10200
17411-14 09:14:56.434 295-848/? D/EnterpriseController: mIsMarkChainAdded is 0 mIsBlockChainAdded is 0 netId is 0
17511-14 09:14:56.434 295-848/? D/Netd: getNetworkForDns: using netid 502 for uid 10200
17611-14 09:14:56.454 295-848/? D/EnterpriseController: mIsMarkChainAdded is 0 mIsBlockChainAdded is 0 netId is 0
17711-14 09:14:56.454 295-848/? D/Netd: getNetworkForDns: using netid 502 for uid 10200
17811-14 09:14:56.454 295-848/? D/EnterpriseController: mIsMarkChainAdded is 0 mIsBlockChainAdded is 0 netId is 0
17911-14 09:14:56.454 295-848/? D/Netd: getNetworkForDns: using netid 502 for uid 10200
18011-14 09:14:56.565 295-848/? D/EnterpriseController: mIsMarkChainAdded is 0 mIsBlockChainAdded is 0 netId is 0
18111-14 09:14:56.565 295-848/? D/Netd: getNetworkForDns: using netid 502 for uid 10200
18211-14 09:14:56.575 295-848/? D/EnterpriseController: mIsMarkChainAdded is 0 mIsBlockChainAdded is 0 netId is 0
18311-14 09:14:56.575 295-848/? D/Netd: getNetworkForDns: using netid 502 for uid 10200
18411-14 09:14:56.635 295-848/? D/EnterpriseController: mIsMarkChainAdded is 0 mIsBlockChainAdded is 0 netId is 0
18511-14 09:14:56.635 295-848/? D/Netd: getNetworkForDns: using netid 502 for uid 10200
18611-14 09:14:56.705 1641-1641/? I/wpa_supplicant: wlan0: State: COMPLETED -> GROUP_HANDSHAKE
18711-14 09:14:56.705 1641-1641/? I/wpa_supplicant: CTRL-EVENT-STATE-CHANGE id=0 state=8 BSSID=34.D0.C2 SSID=426164676572
18811-14 09:14:56.705 1641-1641/? I/wpa_supplicant: wlan0: WPA: Group rekeying completed with 34:31:c4:b8:d0:c2 [GTK=TKIP]
18911-14 09:14:56.705 1641-1641/? I/wpa_supplicant: wlan0: State: GROUP_HANDSHAKE -> COMPLETED
19011-14 09:14:56.705 1641-1641/? I/wpa_supplicant: Blacklist: Clear (temp)
19111-14 09:14:56.705 1641-1641/? I/wpa_supplicant: CTRL-EVENT-STATE-CHANGE id=0 state=9 BSSID=34.D0.C2 SSID=426164676572
19211-14 09:14:56.745 868-1195/? D/SecContentProvider2: uri = 20 selection = getPromptCredentialsEnabled
19311-14 09:14:56.745 868-1195/? D/SecContentProvider2: mCursor = null
19411-14 09:14:56.755 868-1195/? D/SecContentProvider2: uri = 20 selection = getPromptCredentialsEnabled
19511-14 09:14:56.755 868-1195/? D/SecContentProvider2: mCursor = null
19611-14 09:14:57.035 295-848/? D/EnterpriseController: mIsMarkChainAdded is 0 mIsBlockChainAdded is 0 netId is 0
19711-14 09:14:57.035 295-848/? D/Netd: getNetworkForDns: using netid 502 for uid 10200
19811-14 09:14:57.225 278-278/? D/SurfaceFlinger: FPS : 3.81
19911-14 09:14:57.225 278-278/? W/SurfaceFlinger: Fail to Open /sys/devices/platform/gpusysfs/fps
20011-14 09:14:57.375 24308-24308/? E/SMD: smd Interface open failed errno is 2 -1
20111-14 09:14:57.626 15042-15524/? D/GeckoTabs: handleMessage: Tab:ViewportMetadata
20211-14 09:14:57.626 15042-15042/? D/GeckoToolbar: onTabChanged: VIEWPORT_CHANGE
20311-14 09:14:57.626 15042-15042/? D/GeckoBrowserApp: BrowserApp.onTabChanged: 15: VIEWPORT_CHANGE
20411-14 09:14:57.646 868-24432/? W/ContextImpl: Calling a method in the system process without a qualified user: android.app.ContextImpl.sendBroadcast:1699 com.android.server.InputMethodManagerService$6.run:2733 java.lang.Thread.run:818 <bottom of call stack> <bottom of call stack>
20511-14 09:14:57.926 24440-24440/? E/Diag_Lib:  Diag_LSM_Init: Failed to open handle to diag driver, error = 2
20611-14 09:14:58.156 278-278/? D/SurfaceFlinger: FPS : 1.08
20711-14 09:14:58.156 278-278/? W/SurfaceFlinger: Fail to Open /sys/devices/platform/gpusysfs/fps
20811-14 09:14:58.176 278-278/? D/SurfaceFlinger: FPS : 1.08
20911-14 09:14:58.176 278-278/? W/SurfaceFlinger: Fail to Open /sys/devices/platform/gpusysfs/fps
21011-14 09:14:58.236 295-848/? D/EnterpriseController: mIsMarkChainAdded is 0 mIsBlockChainAdded is 0 netId is 0
21111-14 09:14:58.236 295-848/? D/Netd: getNetworkForDns: using netid 502 for uid 10200
21211-14 09:14:58.236 295-848/? D/EnterpriseController: mIsMarkChainAdded is 0 mIsBlockChainAdded is 0 netId is 0
21311-14 09:14:58.236 295-848/? D/Netd: getNetworkForDns: using netid 502 for uid 10200
21411-14 09:14:58.366 295-848/? D/EnterpriseController: mIsMarkChainAdded is 0 mIsBlockChainAdded is 0 netId is 0
21511-14 09:14:58.366 295-848/? D/Netd: getNetworkForDns: using netid 502 for uid 10200
21611-14 09:14:58.376 24308-24308/? E/SMD: smd Interface open failed errno is 2 -1
21711-14 09:14:58.406 295-848/? D/EnterpriseController: mIsMarkChainAdded is 0 mIsBlockChainAdded is 0 netId is 0
21811-14 09:14:58.406 295-848/? D/Netd: getNetworkForDns: using netid 502 for uid 10200
21911-14 09:14:58.687 278-278/? D/SurfaceFlinger: FPS : 3.76
22011-14 09:14:58.687 278-278/? W/SurfaceFlinger: Fail to Open /sys/devices/platform/gpusysfs/fps
22111-14 09:14:58.697 278-278/? D/SurfaceFlinger: FPS : 3.76
22211-14 09:14:58.697 278-278/? W/SurfaceFlinger: Fail to Open /sys/devices/platform/gpusysfs/fps
22311-14 09:14:58.717 278-278/? D/SurfaceFlinger: FPS : 3.76
22411-14 09:14:58.717 278-278/? W/SurfaceFlinger: Fail to Open /sys/devices/platform/gpusysfs/fps
22511-14 09:14:58.727 278-278/? D/SurfaceFlinger: FPS : 3.76
22611-14 09:14:58.727 278-278/? W/SurfaceFlinger: Fail to Open /sys/devices/platform/gpusysfs/fps
22711-14 09:14:58.767 278-278/? D/SurfaceFlinger: FPS : 3.76
22811-14 09:14:58.767 278-278/? W/SurfaceFlinger: Fail to Open /sys/devices/platform/gpusysfs/fps
22911-14 09:14:58.797 278-278/? D/SurfaceFlinger: FPS : 3.76
23011-14 09:14:58.797 278-278/? W/SurfaceFlinger: Fail to Open /sys/devices/platform/gpusysfs/fps
23111-14 09:14:58.817 278-278/? D/SurfaceFlinger: FPS : 3.76
23211-14 09:14:58.817 278-278/? W/SurfaceFlinger: Fail to Open /sys/devices/platform/gpusysfs/fps
23311-14 09:14:58.847 278-278/? D/SurfaceFlinger: FPS : 3.76
23411-14 09:14:58.847 278-278/? W/SurfaceFlinger: Fail to Open /sys/devices/platform/gpusysfs/fps
23511-14 09:14:58.877 278-278/? D/SurfaceFlinger: FPS : 3.76
23611-14 09:14:58.877 278-278/? W/SurfaceFlinger: Fail to Open /sys/devices/platform/gpusysfs/fps
23711-14 09:14:58.917 278-278/? D/SurfaceFlinger: FPS : 3.76
23811-14 09:14:58.917 278-278/? W/SurfaceFlinger: Fail to Open /sys/devices/platform/gpusysfs/fps
23911-14 09:14:58.917 295-848/? D/EnterpriseController: mIsMarkChainAdded is 0 mIsBlockChainAdded is 0 netId is 0
24011-14 09:14:58.917 295-848/? D/Netd: getNetworkForDns: using netid 502 for uid 10200
24111-14 09:14:58.927 295-848/? D/EnterpriseController: mIsMarkChainAdded is 0 mIsBlockChainAdded is 0 netId is 0
24211-14 09:14:58.937 295-848/? D/Netd: getNetworkForDns: using netid 502 for uid 10200
24311-14 09:14:58.957 278-278/? D/SurfaceFlinger: FPS : 37.69
24411-14 09:14:58.957 278-278/? W/SurfaceFlinger: Fail to Open /sys/devices/platform/gpusysfs/fps
24511-14 09:14:58.967 278-278/? D/SurfaceFlinger: FPS : 37.69
24611-14 09:14:58.967 278-278/? W/SurfaceFlinger: Fail to Open /sys/devices/platform/gpusysfs/fps
24711-14 09:14:58.987 295-848/? D/EnterpriseController: mIsMarkChainAdded is 0 mIsBlockChainAdded is 0 netId is 0
24811-14 09:14:58.987 295-848/? D/Netd: getNetworkForDns: using netid 502 for uid 10200
24911-14 09:14:58.997 278-278/? D/SurfaceFlinger: FPS : 37.69
25011-14 09:14:58.997 278-278/? W/SurfaceFlinger: Fail to Open /sys/devices/platform/gpusysfs/fps
25111-14 09:14:59.007 295-848/? D/EnterpriseController: mIsMarkChainAdded is 0 mIsBlockChainAdded is 0 netId is 0
25211-14 09:14:59.007 295-848/? D/Netd: getNetworkForDns: using netid 502 for uid 10200
25311-14 09:14:59.027 278-278/? D/SurfaceFlinger: FPS : 37.69
25411-14 09:14:59.027 278-278/? W/SurfaceFlinger: Fail to Open /sys/devices/platform/gpusysfs/fps
25511-14 09:14:59.067 278-278/? D/SurfaceFlinger: FPS : 37.69
25611-14 09:14:59.067 278-278/? W/SurfaceFlinger: Fail to Open /sys/devices/platform/gpusysfs/fps
25711-14 09:14:59.097 278-278/? D/SurfaceFlinger: FPS : 37.69
25811-14 09:14:59.097 278-278/? W/SurfaceFlinger: Fail to Open /sys/devices/platform/gpusysfs/fps
25911-14 09:14:59.127 278-278/? D/SurfaceFlinger: FPS : 37.69
26011-14 09:14:59.127 278-278/? W/SurfaceFlinger: Fail to Open /sys/devices/platform/gpusysfs/fps
26111-14 09:14:59.167 278-278/? D/SurfaceFlinger: FPS : 37.69
26211-14 09:14:59.167 278-278/? W/SurfaceFlinger: Fail to Open /sys/devices/platform/gpusysfs/fps
26311-14 09:14:59.197 278-278/? D/SurfaceFlinger: FPS : 37.69
26411-14 09:14:59.197 278-278/? W/SurfaceFlinger: Fail to Open /sys/devices/platform/gpusysfs/fps
26511-14 09:14:59.217 278-278/? D/SurfaceFlinger: FPS : 33.86
26611-14 09:14:59.217 278-278/? W/SurfaceFlinger: Fail to Open /sys/devices/platform/gpusysfs/fps
26711-14 09:14:59.247 278-278/? D/SurfaceFlinger: FPS : 33.86
26811-14 09:14:59.247 278-278/? W/SurfaceFlinger: Fail to Open /sys/devices/platform/gpusysfs/fps
26911-14 09:14:59.277 278-278/? D/SurfaceFlinger: FPS : 33.86
27011-14 09:14:59.277 278-278/? W/SurfaceFlinger: Fail to Open /sys/devices/platform/gpusysfs/fps
27111-14 09:14:59.317 278-278/? D/SurfaceFlinger: FPS : 33.86
27211-14 09:14:59.317 278-278/? W/SurfaceFlinger: Fail to Open /sys/devices/platform/gpusysfs/fps
27311-14 09:14:59.327 278-278/? D/SurfaceFlinger: FPS : 33.86
27411-14 09:14:59.327 278-278/? W/SurfaceFlinger: Fail to Open /sys/devices/platform/gpusysfs/fps
27511-14 09:14:59.367 278-278/? D/SurfaceFlinger: FPS : 33.86
27611-14 09:14:59.367 278-278/? W/SurfaceFlinger: Fail to Open /sys/devices/platform/gpusysfs/fps
27711-14 09:14:59.367 24308-24308/? E/SMD: smd Interface open failed errno is 2 -1
27811-14 09:14:59.567 295-848/? D/EnterpriseController: mIsMarkChainAdded is 0 mIsBlockChainAdded is 0 netId is 0
27911-14 09:14:59.567 295-848/? D/Netd: getNetworkForDns: using netid 502 for uid 10200
28011-14 09:14:59.658 15042-15524/? D/GeckoTabs: handleMessage: DOMContentLoaded
28111-14 09:14:59.658 15042-15042/? D/GeckoToolbar: onTabChanged: LOADED
28211-14 09:14:59.658 15042-15042/? D/GeckoBrowserApp: BrowserApp.onTabChanged: 15: LOADED
28311-14 09:14:59.658 278-278/? D/SurfaceFlinger: FPS : 13.35
28411-14 09:14:59.658 278-278/? W/SurfaceFlinger: Fail to Open /sys/devices/platform/gpusysfs/fps
28511-14 09:14:59.758 295-848/? D/EnterpriseController: mIsMarkChainAdded is 0 mIsBlockChainAdded is 0 netId is 0
28611-14 09:14:59.758 295-848/? D/Netd: getNetworkForDns: using netid 502 for uid 10200
28711-14 09:14:59.798 295-848/? D/EnterpriseController: mIsMarkChainAdded is 0 mIsBlockChainAdded is 0 netId is 0
28811-14 09:14:59.798 295-848/? D/Netd: getNetworkForDns: using netid 502 for uid 10200
28911-14 09:14:59.848 278-278/? D/SurfaceFlinger: FPS : 13.35
29011-14 09:14:59.848 278-278/? W/SurfaceFlinger: Fail to Open /sys/devices/platform/gpusysfs/fps
29111-14 09:14:59.858 278-278/? D/SurfaceFlinger: FPS : 13.35
29211-14 09:14:59.858 278-278/? W/SurfaceFlinger: Fail to Open /sys/devices/platform/gpusysfs/fps
29311-14 09:14:59.988 868-1120/? V/AlarmManager: waitForAlarm result :8
29411-14 09:14:59.998 1263-1263/? D/KeyguardUpdateMonitor: received broadcast android.intent.action.TIME_TICK
29511-14 09:14:59.998 1263-1263/? D/KeyguardUpdateMonitor: handleTimeUpdate
29611-14 09:15:00.028 278-278/? D/SurfaceFlinger: FPS : 8.22
29711-14 09:15:00.028 278-278/? W/SurfaceFlinger: Fail to Open /sys/devices/platform/gpusysfs/fps
29811-14 09:15:00.038 1263-1263/? D/DateView: regionalDateFormat = 22/11/3333 isRTLlanguage = false returnDateFormat = E, d MMMM
29911-14 09:15:00.048 1263-1263/? D/DateView: regionalDateFormat = 22/11/3333 isRTLlanguage = false returnDateFormat = E, d MMMM
30011-14 09:15:00.058 1263-1263/? D/KeyguardEffectViewController: onReceive action : android.intent.action.TIME_TICK
30111-14 09:15:00.058 1263-1263/? I/KeyguardEffectViewController: *** don't update sliding image ***
30211-14 09:15:00.128 278-278/? D/SurfaceFlinger: FPS : 8.22
30311-14 09:15:00.128 278-278/? W/SurfaceFlinger: Fail to Open /sys/devices/platform/gpusysfs/fps
30411-14 09:15:00.208 278-278/? D/SurfaceFlinger: FPS : 8.22
30511-14 09:15:00.208 278-278/? W/SurfaceFlinger: Fail to Open /sys/devices/platform/gpusysfs/fps
30611-14 09:15:00.258 278-278/? D/SurfaceFlinger: FPS : 8.22
30711-14 09:15:00.258 278-278/? W/SurfaceFlinger: Fail to Open /sys/devices/platform/gpusysfs/fps
30811-14 09:15:00.368 24308-24308/? E/SMD: smd Interface open failed errno is 2 -1
30911-14 09:15:00.378 278-278/? D/SurfaceFlinger: FPS : 11.46
31011-14 09:15:00.378 278-278/? W/SurfaceFlinger: Fail to Open /sys/devices/platform/gpusysfs/fps
31111-14 09:15:00.408 278-278/? D/SurfaceFlinger: FPS : 11.46
31211-14 09:15:00.408 278-278/? W/SurfaceFlinger: Fail to Open /sys/devices/platform/gpusysfs/fps
31311-14 09:15:00.418 868-3238/? D/SSRM:n: SIOP:: AP = 470, CUR = 460
31411-14 09:15:00.428 278-278/? D/SurfaceFlinger: FPS : 11.46
31511-14 09:15:00.428 278-278/? W/SurfaceFlinger: Fail to Open /sys/devices/platform/gpusysfs/fps
31611-14 09:15:00.458 278-278/? D/SurfaceFlinger: FPS : 11.46
31711-14 09:15:00.458 278-278/? W/SurfaceFlinger: Fail to Open /sys/devices/platform/gpusysfs/fps
31811-14 09:15:00.498 278-278/? D/SurfaceFlinger: FPS : 11.46
31911-14 09:15:00.498 278-278/? W/SurfaceFlinger: Fail to Open /sys/devices/platform/gpusysfs/fps
32011-14 09:15:00.528 278-278/? D/SurfaceFlinger: FPS : 11.46
32111-14 09:15:00.528 278-278/? W/SurfaceFlinger: Fail to Open /sys/devices/platform/gpusysfs/fps
32211-14 09:15:00.558 278-278/? D/SurfaceFlinger: FPS : 11.46
32311-14 09:15:00.558 278-278/? W/SurfaceFlinger: Fail to Open /sys/devices/platform/gpusysfs/fps
32411-14 09:15:00.578 278-278/? D/SurfaceFlinger: FPS : 11.46
32511-14 09:15:00.578 278-278/? W/SurfaceFlinger: Fail to Open /sys/devices/platform/gpusysfs/fps
32611-14 09:15:00.608 278-278/? D/SurfaceFlinger: FPS : 11.46
32711-14 09:15:00.608 278-278/? W/SurfaceFlinger: Fail to Open /sys/devices/platform/gpusysfs/fps
32811-14 09:15:00.638 278-278/? D/SurfaceFlinger: FPS : 33.83
32911-14 09:15:00.648 278-278/? W/SurfaceFlinger: Fail to Open /sys/devices/platform/gpusysfs/fps
33011-14 09:15:00.679 295-848/? D/EnterpriseController: mIsMarkChainAdded is 0 mIsBlockChainAdded is 0 netId is 0
33111-14 09:15:00.679 295-848/? D/Netd: getNetworkForDns: using netid 502 for uid 10200
33211-14 09:15:00.689 278-278/? D/SurfaceFlinger: FPS : 33.83
33311-14 09:15:00.699 278-278/? W/SurfaceFlinger: Fail to Open /sys/devices/platform/gpusysfs/fps
33411-14 09:15:00.729 278-278/? D/SurfaceFlinger: FPS : 33.83
33511-14 09:15:00.729 278-278/? W/SurfaceFlinger: Fail to Open /sys/devices/platform/gpusysfs/fps
33611-14 09:15:00.739 278-278/? D/SurfaceFlinger: FPS : 33.83
33711-14 09:15:00.739 278-278/? W/SurfaceFlinger: Fail to Open /sys/devices/platform/gpusysfs/fps
33811-14 09:15:00.779 278-278/? D/SurfaceFlinger: FPS : 33.83
33911-14 09:15:00.779 278-278/? W/SurfaceFlinger: Fail to Open /sys/devices/platform/gpusysfs/fps
34011-14 09:15:00.809 278-278/? D/SurfaceFlinger: FPS : 33.83
34111-14 09:15:00.809 278-278/? W/SurfaceFlinger: Fail to Open /sys/devices/platform/gpusysfs/fps
34211-14 09:15:00.829 278-278/? D/SurfaceFlinger: FPS : 33.83
34311-14 09:15:00.829 278-278/? W/SurfaceFlinger: Fail to Open /sys/devices/platform/gpusysfs/fps
34411-14 09:15:00.849 278-278/? D/SurfaceFlinger: FPS : 33.83
34511-14 09:15:00.849 278-278/? W/SurfaceFlinger: Fail to Open /sys/devices/platform/gpusysfs/fps
34611-14 09:15:01.169 295-848/? D/EnterpriseController: mIsMarkChainAdded is 0 mIsBlockChainAdded is 0 netId is 0
34711-14 09:15:01.169 295-848/? D/Netd: getNetworkForDns: using netid 502 for uid 10200
34811-14 09:15:01.199 295-848/? D/EnterpriseController: mIsMarkChainAdded is 0 mIsBlockChainAdded is 0 netId is 0
34911-14 09:15:01.199 295-848/? D/Netd: getNetworkForDns: using netid 502 for uid 10200
35011-14 09:15:01.309 278-278/? D/SurfaceFlinger: FPS : 12.03
35111-14 09:15:01.309 278-278/? W/SurfaceFlinger: Fail to Open /sys/devices/platform/gpusysfs/fps
35211-14 09:15:01.369 24308-24308/? E/SMD: smd Interface open failed errno is 2 -1
35311-14 09:15:01.379 278-278/? D/SurfaceFlinger: FPS : 12.03
35411-14 09:15:01.379 278-278/? W/SurfaceFlinger: Fail to Open /sys/devices/platform/gpusysfs/fps
35511-14 09:15:01.389 278-278/? D/SurfaceFlinger: FPS : 12.03
35611-14 09:15:01.389 278-278/? W/SurfaceFlinger: Fail to Open /sys/devices/platform/gpusysfs/fps
35711-14 09:15:01.409 278-278/? D/SurfaceFlinger: FPS : 12.03
35811-14 09:15:01.409 278-278/? W/SurfaceFlinger: Fail to Open /sys/devices/platform/gpusysfs/fps
35911-14 09:15:01.429 278-278/? D/SurfaceFlinger: FPS : 12.03
36011-14 09:15:01.429 278-278/? W/SurfaceFlinger: Fail to Open /sys/devices/platform/gpusysfs/fps
36111-14 09:15:01.439 278-278/? D/SurfaceFlinger: FPS : 12.03
36211-14 09:15:01.439 278-278/? W/SurfaceFlinger: Fail to Open /sys/devices/platform/gpusysfs/fps
36311-14 09:15:01.459 278-278/? D/SurfaceFlinger: FPS : 12.03
36411-14 09:15:01.459 278-278/? W/SurfaceFlinger: Fail to Open /sys/devices/platform/gpusysfs/fps
36511-14 09:15:01.489 278-278/? D/SurfaceFlinger: FPS : 12.03
36611-14 09:15:01.489 278-278/? W/SurfaceFlinger: Fail to Open /sys/devices/platform/gpusysfs/fps
36711-14 09:15:01.509 278-278/? D/SurfaceFlinger: FPS : 12.03
36811-14 09:15:01.509 278-278/? W/SurfaceFlinger: Fail to Open /sys/devices/platform/gpusysfs/fps
36911-14 09:15:01.559 278-278/? D/SurfaceFlinger: FPS : 12.03
37011-14 09:15:01.559 278-278/? W/SurfaceFlinger: Fail to Open /sys/devices/platform/gpusysfs/fps
37111-14 09:15:01.589 278-278/? D/SurfaceFlinger: FPS : 35.42
37211-14 09:15:01.589 278-278/? W/SurfaceFlinger: Fail to Open /sys/devices/platform/gpusysfs/fps
37311-14 09:15:01.629 278-278/? D/SurfaceFlinger: FPS : 35.42
37411-14 09:15:01.629 278-278/? W/SurfaceFlinger: Fail to Open /sys/devices/platform/gpusysfs/fps
37511-14 09:15:01.639 278-278/? D/SurfaceFlinger: FPS : 35.42
37611-14 09:15:01.639 278-278/? W/SurfaceFlinger: Fail to Open /sys/devices/platform/gpusysfs/fps
37711-14 09:15:01.659 278-278/? D/SurfaceFlinger: FPS : 35.42
37811-14 09:15:01.659 278-278/? W/SurfaceFlinger: Fail to Open /sys/devices/platform/gpusysfs/fps
37911-14 09:15:01.680 295-848/? D/EnterpriseController: mIsMarkChainAdded is 0 mIsBlockChainAdded is 0 netId is 0
38011-14 09:15:01.680 295-848/? D/Netd: getNetworkForDns: using netid 502 for uid 10200
38111-14 09:15:01.860 15042-15076/? D/Adjust: Wrote Activity state: ec:0 sc:3 ssc:5 sl:870.9 ts:780.3 la:11:12:13 uuid:36ec8976-7071-4aa6-867e-dd00d67f1c0e
38211-14 09:15:01.880 278-278/? D/SurfaceFlinger: FPS : 14.10
38311-14 09:15:01.880 278-278/? W/SurfaceFlinger: Fail to Open /sys/devices/platform/gpusysfs/fps
38411-14 09:15:02.010 1263-1263/? D/StatusBar.NetworkController: onSignalStrengthsChanged signalStrength=SignalStrength: 9 99 -120 -160 -120 -1 -1 99 2147483647 2147483647 2147483647 -1 2147483647 0x2 gsm|lte level=2
38511-14 09:15:02.020 1263-1263/? D/StatusBar.NetworkController: updateTelephonySignalStrength: hasService=true ss=SignalStrength: 9 99 -120 -160 -120 -1 -1 99 2147483647 2147483647 2147483647 -1 2147483647 0x2 gsm|lte
38611-14 09:15:02.020 1263-1263/? D/StatusBar.NetworkController: updateTelephonySignalStrength: iconLevel=2
38711-14 09:15:02.020 1263-1263/? D/StatusBar.NetworkController: updateTelephonySignalStrength, No signal level. mPhoneSignalIconId = com.android.systemui:drawable/stat_sys_signal_2_auto_rotate mDataSignalIconId = com.android.systemui:drawable/stat_sys_signal_2_auto_rotate mQSPhoneSignalIconId = com.android.systemui:drawable/ic_qs_signal_2 mContentDescriptionPhoneSignal = Phone two bars.
38811-14 09:15:02.020 1263-1263/? D/StatusBar.NetworkController: refreshViews connected={ wifi } level=2 combinedSignalIconId=0x7f020517/com.android.systemui:drawable/stat_sys_wifi_signal_4 mobileLabel=Emergency calls only wifiLabel="Badger"xxxxXXXXxxxxXXXX emergencyOnly=true combinedLabel="Badger"xxxxXXXXxxxxXXXX mAirplaneMode=false mDataActivity=0 mPhoneSignalIconId=0x7f020466/com.android.systemui:drawable/stat_sys_signal_2_auto_rotate mQSPhoneSignalIconId=0x7f02012a/com.android.systemui:drawable/ic_qs_signal_2 mDataDirectionIconId=0x0/(null) mDataSignalIconId=0x7f020466/com.android.systemui:drawable/stat_sys_signal_2_auto_rotate mDataTypeIconId=0x0/(null) mQSDataTypeIconId=0x0/(null) mNoSimIconId=0x0/(null) mWifiIconId=0x7f020517/com.android.systemui:drawable/stat_sys_wifi_signal_4 mQSWifiIconId=0x7f020143/com.android.systemui:drawable/ic_qs_wifi_4 mWifiActivityIconId=0x7f0204e8/com.android.systemui:drawable/stat_sys_signal_inout mBluetoothTetherIconId=0x10808cc/android:drawable/stat_sys_tether_bluetooth
38911-14 09:15:02.020 1263-1263/? D/STATUSBAR-WifiQuickSettingButton: onWifiSignalChanged enabled=true enabledDesc:"Badger"
39011-14 09:15:02.370 24308-24308/? E/SMD: smd Interface open failed errno is 2 -1
39111-14 09:15:02.390 278-278/? D/SurfaceFlinger: FPS : 1.94
39211-14 09:15:02.390 278-278/? W/SurfaceFlinger: Fail to Open /sys/devices/platform/gpusysfs/fps
39311-14 09:15:02.410 278-278/? D/SurfaceFlinger: FPS : 1.94
39411-14 09:15:02.410 278-278/? W/SurfaceFlinger: Fail to Open /sys/devices/platform/gpusysfs/fps
39511-14 09:15:02.430 24479-24479/? E/Diag_Lib:  Diag_LSM_Init: Failed to open handle to diag driver, error = 2
39611-14 09:15:02.460 278-278/? D/SurfaceFlinger: FPS : 1.94
39711-14 09:15:02.460 278-278/? W/SurfaceFlinger: Fail to Open /sys/devices/platform/gpusysfs/fps
39811-14 09:15:02.490 278-278/? D/SurfaceFlinger: FPS : 1.94
39911-14 09:15:02.490 278-278/? W/SurfaceFlinger: Fail to Open /sys/devices/platform/gpusysfs/fps
40011-14 09:15:02.510 278-278/? D/SurfaceFlinger: FPS : 1.94
40111-14 09:15:02.510 278-278/? W/SurfaceFlinger: Fail to Open /sys/devices/platform/gpusysfs/fps
40211-14 09:15:02.520 278-278/? D/SurfaceFlinger: FPS : 1.94
40311-14 09:15:02.520 278-278/? W/SurfaceFlinger: Fail to Open /sys/devices/platform/gpusysfs/fps
40411-14 09:15:02.540 278-278/? D/SurfaceFlinger: FPS : 1.94
40511-14 09:15:02.540 278-278/? W/SurfaceFlinger: Fail to Open /sys/devices/platform/gpusysfs/fps
40611-14 09:15:02.560 278-278/? D/SurfaceFlinger: FPS : 1.94
40711-14 09:15:02.560 278-278/? W/SurfaceFlinger: Fail to Open /sys/devices/platform/gpusysfs/fps
40811-14 09:15:02.570 278-278/? D/SurfaceFlinger: FPS : 1.94
40911-14 09:15:02.570 278-278/? W/SurfaceFlinger: Fail to Open /sys/devices/platform/gpusysfs/fps
41011-14 09:15:02.610 278-278/? D/SurfaceFlinger: FPS : 1.94
41111-14 09:15:02.610 278-278/? W/SurfaceFlinger: Fail to Open /sys/devices/platform/gpusysfs/fps
41211-14 09:15:02.640 295-848/? D/EnterpriseController: mIsMarkChainAdded is 0 mIsBlockChainAdded is 0 netId is 0
41311-14 09:15:02.640 295-848/? D/Netd: getNetworkForDns: using netid 502 for uid 10200
41411-14 09:15:02.640 278-278/? D/SurfaceFlinger: FPS : 1.94
41511-14 09:15:02.640 278-278/? W/SurfaceFlinger: Fail to Open /sys/devices/platform/gpusysfs/fps
41611-14 09:15:02.640 295-848/? D/EnterpriseController: mIsMarkChainAdded is 0 mIsBlockChainAdded is 0 netId is 0
41711-14 09:15:02.640 295-848/? D/Netd: getNetworkForDns: using netid 502 for uid 10200
41811-14 09:15:02.670 278-278/? D/SurfaceFlinger: FPS : 38.95
41911-14 09:15:02.670 278-278/? W/SurfaceFlinger: Fail to Open /sys/devices/platform/gpusysfs/fps
42011-14 09:15:02.711 278-278/? D/SurfaceFlinger: FPS : 38.95
42111-14 09:15:02.711 278-278/? W/SurfaceFlinger: Fail to Open /sys/devices/platform/gpusysfs/fps
42211-14 09:15:02.741 278-278/? D/SurfaceFlinger: FPS : 38.95
42311-14 09:15:02.741 278-278/? W/SurfaceFlinger: Fail to Open /sys/devices/platform/gpusysfs/fps
42411-14 09:15:02.761 278-278/? D/SurfaceFlinger: FPS : 38.95
42511-14 09:15:02.761 278-278/? W/SurfaceFlinger: Fail to Open /sys/devices/platform/gpusysfs/fps
42611-14 09:15:02.771 278-278/? D/SurfaceFlinger: FPS : 38.95
42711-14 09:15:02.771 278-278/? W/SurfaceFlinger: Fail to Open /sys/devices/platform/gpusysfs/fps
42811-14 09:15:02.811 278-278/? D/SurfaceFlinger: FPS : 38.95
42911-14 09:15:02.811 278-278/? W/SurfaceFlinger: Fail to Open /sys/devices/platform/gpusysfs/fps
43011-14 09:15:02.821 278-278/? D/SurfaceFlinger: FPS : 38.95
43111-14 09:15:02.821 278-278/? W/SurfaceFlinger: Fail to Open /sys/devices/platform/gpusysfs/fps
43211-14 09:15:02.841 278-278/? D/SurfaceFlinger: FPS : 38.95
43311-14 09:15:02.841 278-278/? W/SurfaceFlinger: Fail to Open /sys/devices/platform/gpusysfs/fps
43411-14 09:15:02.871 278-278/? D/SurfaceFlinger: FPS : 38.95
43511-14 09:15:02.871 278-278/? W/SurfaceFlinger: Fail to Open /sys/devices/platform/gpusysfs/fps
43611-14 09:15:02.911 278-278/? D/SurfaceFlinger: FPS : 38.95
43711-14 09:15:02.911 278-278/? W/SurfaceFlinger: Fail to Open /sys/devices/platform/gpusysfs/fps
43811-14 09:15:02.941 278-278/? D/SurfaceFlinger: FPS : 37.60
43911-14 09:15:02.941 278-278/? W/SurfaceFlinger: Fail to Open /sys/devices/platform/gpusysfs/fps
44011-14 09:15:02.971 278-278/? D/SurfaceFlinger: FPS : 37.60
44111-14 09:15:02.971 278-278/? W/SurfaceFlinger: Fail to Open /sys/devices/platform/gpusysfs/fps
44211-14 09:15:03.011 278-278/? D/SurfaceFlinger: FPS : 37.60
44311-14 09:15:03.011 278-278/? W/SurfaceFlinger: Fail to Open /sys/devices/platform/gpusysfs/fps
44411-14 09:15:03.041 278-278/? D/SurfaceFlinger: FPS : 37.60
44511-14 09:15:03.041 278-278/? W/SurfaceFlinger: Fail to Open /sys/devices/platform/gpusysfs/fps
44611-14 09:15:03.071 278-278/? D/SurfaceFlinger: FPS : 37.60
44711-14 09:15:03.071 278-278/? W/SurfaceFlinger: Fail to Open /sys/devices/platform/gpusysfs/fps
44811-14 09:15:03.111 278-278/? D/SurfaceFlinger: FPS : 37.60
44911-14 09:15:03.111 278-278/? W/SurfaceFlinger: Fail to Open /sys/devices/platform/gpusysfs/fps
45011-14 09:15:03.141 278-278/? D/SurfaceFlinger: FPS : 37.60
45111-14 09:15:03.141 278-278/? W/SurfaceFlinger: Fail to Open /sys/devices/platform/gpusysfs/fps
45211-14 09:15:03.171 278-278/? D/SurfaceFlinger: FPS : 37.60
45311-14 09:15:03.171 278-278/? W/SurfaceFlinger: Fail to Open /sys/devices/platform/gpusysfs/fps
45411-14 09:15:03.191 278-278/? D/SurfaceFlinger: FPS : 37.60
45511-14 09:15:03.191 278-278/? W/SurfaceFlinger: Fail to Open /sys/devices/platform/gpusysfs/fps
45611-14 09:15:03.221 278-278/? D/SurfaceFlinger: FPS : 31.70
45711-14 09:15:03.221 278-278/? W/SurfaceFlinger: Fail to Open /sys/devices/platform/gpusysfs/fps
45811-14 09:15:03.251 278-278/? D/SurfaceFlinger: FPS : 31.70
45911-14 09:15:03.251 278-278/? W/SurfaceFlinger: Fail to Open /sys/devices/platform/gpusysfs/fps
46011-14 09:15:03.291 278-278/? D/SurfaceFlinger: FPS : 31.70
46111-14 09:15:03.291 278-278/? W/SurfaceFlinger: Fail to Open /sys/devices/platform/gpusysfs/fps
46211-14 09:15:03.321 278-278/? D/SurfaceFlinger: FPS : 31.70
46311-14 09:15:03.321 278-278/? W/SurfaceFlinger: Fail to Open /sys/devices/platform/gpusysfs/fps
46411-14 09:15:03.351 278-278/? D/SurfaceFlinger: FPS : 31.70
46511-14 09:15:03.351 278-278/? W/SurfaceFlinger: Fail to Open /sys/devices/platform/gpusysfs/fps
46611-14 09:15:03.371 24308-24308/? E/SMD: smd Interface open failed errno is 2 -1
46711-14 09:15:03.651 1263-1263/? D/StatusBar.NetworkController: onSignalStrengthsChanged signalStrength=SignalStrength: 10 99 -120 -160 -120 -1 -1 99 2147483647 2147483647 2147483647 -1 2147483647 0x3 gsm|lte level=3
46811-14 09:15:03.651 1263-1263/? D/StatusBar.NetworkController: updateTelephonySignalStrength: hasService=true ss=SignalStrength: 10 99 -120 -160 -120 -1 -1 99 2147483647 2147483647 2147483647 -1 2147483647 0x3 gsm|lte
46911-14 09:15:03.651 1263-1263/? D/StatusBar.NetworkController: updateTelephonySignalStrength: iconLevel=3
47011-14 09:15:03.651 1263-1263/? D/StatusBar.NetworkController: updateTelephonySignalStrength, No signal level. mPhoneSignalIconId = com.android.systemui:drawable/stat_sys_signal_3_auto_rotate mDataSignalIconId = com.android.systemui:drawable/stat_sys_signal_3_auto_rotate mQSPhoneSignalIconId = com.android.systemui:drawable/ic_qs_signal_3 mContentDescriptionPhoneSignal = Phone three bars.
47111-14 09:15:03.651 1263-1263/? D/StatusBar.NetworkController: refreshViews connected={ wifi } level=3 combinedSignalIconId=0x7f020517/com.android.systemui:drawable/stat_sys_wifi_signal_4 mobileLabel=Emergency calls only wifiLabel="Badger"xxxxXXXXxxxxXXXX emergencyOnly=true combinedLabel="Badger"xxxxXXXXxxxxXXXX mAirplaneMode=false mDataActivity=0 mPhoneSignalIconId=0x7f02048e/com.android.systemui:drawable/stat_sys_signal_3_auto_rotate mQSPhoneSignalIconId=0x7f02012b/com.android.systemui:drawable/ic_qs_signal_3 mDataDirectionIconId=0x0/(null) mDataSignalIconId=0x7f02048e/com.android.systemui:drawable/stat_sys_signal_3_auto_rotate mDataTypeIconId=0x0/(null) mQSDataTypeIconId=0x0/(null) mNoSimIconId=0x0/(null) mWifiIconId=0x7f020517/com.android.systemui:drawable/stat_sys_wifi_signal_4 mQSWifiIconId=0x7f020143/com.android.systemui:drawable/ic_qs_wifi_4 mWifiActivityIconId=0x7f0204e8/com.android.systemui:drawable/stat_sys_signal_inout mBluetoothTetherIconId=0x10808cc/android:drawable/stat_sys_tether_bluetooth
47211-14 09:15:03.651 1263-1263/? D/STATUSBAR-WifiQuickSettingButton: onWifiSignalChanged enabled=true enabledDesc:"Badger"
47311-14 09:15:03.661 1263-1263/? D/StatusBar.NetworkController: refreshSignalCluster - setNWBoosterIndicators(false)
47411-14 09:15:03.661 1263-1263/? D/StatusBar.NetworkController: applyOpen
47511-14 09:15:03.661 1263-1263/? D/StatusBar.NetworkController: refreshSignalCluster - setNWBoosterIndicators(false)
47611-14 09:15:03.661 1263-1263/? D/StatusBar.NetworkController: applyOpen
47711-14 09:15:03.661 1263-1263/? D/StatusBar.NetworkController: refreshSignalCluster - setNWBoosterIndicators(false)
47811-14 09:15:03.661 1263-1263/? D/StatusBar.NetworkController: applyOpen
47911-14 09:15:03.661 1263-1263/? D/StatusBar.NetworkController: refreshSignalCluster - setNWBoosterIndicators(false)
48011-14 09:15:03.671 1263-1263/? D/StatusBar.NetworkController: applyOpen
48111-14 09:15:03.691 278-278/? D/SurfaceFlinger: FPS : 10.78
48211-14 09:15:03.691 278-278/? W/SurfaceFlinger: Fail to Open /sys/devices/platform/gpusysfs/fps
48311-14 09:15:04.372 24308-24308/? E/SMD: smd Interface open failed errno is 2 -1
48411-14 09:15:04.732 868-1765/? D/BatteryService: !@BatteryListener : batteryPropertiesChanged!
48511-14 09:15:04.732 868-1765/? D/BatteryService: level:67, scale:100, status:2, health:2, present:true, voltage: 3905, temperature: 324, technology: Li-ion, AC powered:false, USB powered:true, Wireless powered:false, icon:17303687, invalid charger:0
48611-14 09:15:04.732 868-1765/? D/BatteryService: online:4, current avg:460, charge type:1, power sharing:false, high voltage charger:false, capacity:280000, current_now:460
48711-14 09:15:04.732 868-868/? D/BatteryService: Sending ACTION_BATTERY_CHANGED.
48811-14 09:15:04.732 868-868/? I/MotionRecognitionService: Plugged
48911-14 09:15:04.732 868-868/? I/MotionRecognitionService: setPowerConnected  = true
49011-14 09:15:04.742 1263-1263/? D/KeyguardUpdateMonitor: received broadcast android.intent.action.BATTERY_CHANGED
49111-14 09:15:04.742 1263-1263/? D/KeyguardUpdateMonitor: handleBatteryUpdate
49211-14 09:15:04.742 1263-1263/? D/STATUSBAR-PhoneStatusBar:  mBrightnessEnablebySettings = true mBrightnessEnablebyBattery = true mBrightnessEnablebyDisableFlag = true mPmsBrightnessEnablebySettings = true
49311-14 09:15:04.742 1263-1263/? D/BatteryMeterView: ACTION_BATTERY_CHANGED : level:67 status:2 health:2
49411-14 09:15:04.742 1263-1263/? D/BatteryMeterView: ACTION_BATTERY_CHANGED : level:67 status:2 health:2
49511-14 09:15:04.752 1263-1263/? D/BatteryMeterView: ACTION_BATTERY_CHANGED : level:67 status:2 health:2
49611-14 09:15:04.773 278-278/? D/SurfaceFlinger: FPS : 0.93
49711-14 09:15:04.773 278-278/? W/SurfaceFlinger: Fail to Open /sys/devices/platform/gpusysfs/fps
49811-14 09:15:05.053 868-1003/? W/ProcessCpuTracker: Skipping unknown process pid 24435
49911-14 09:15:05.053 868-1003/? W/ProcessCpuTracker: Skipping unknown process pid 24437
50011-14 09:15:05.053 868-1003/? W/ProcessCpuTracker: Skipping unknown process pid 24484
50111-14 09:15:05.123 868-1767/? D/ActivityManager: startService callerProcessName:com.google.android.gms, calleePkgName: com.google.android.gms
50211-14 09:15:05.373 24308-24308/? E/SMD: smd Interface open failed errno is 2 -1
50311-14 09:15:05.663 304-22404/? E/OMX-VDEC-1080P: Rxd i/p EOS, Notify Driver that EOS has been reached
50411-14 09:15:05.673 304-22404/? E/OMX-VDEC-1080P: Output EOS has been reached
50511-14 09:15:05.673 304-22404/? E/OMX-VDEC-1080P: Rxd OMX_COMPONENT_GENERATE_EOS_DONE
50611-14 09:15:06.174 278-278/? D/SurfaceFlinger: FPS : 0.71
50711-14 09:15:06.174 278-278/? W/SurfaceFlinger: Fail to Open /sys/devices/platform/gpusysfs/fps
50811-14 09:15:06.254 278-278/? D/SurfaceFlinger: FPS : 0.71
50911-14 09:15:06.254 278-278/? W/SurfaceFlinger: Fail to Open /sys/devices/platform/gpusysfs/fps
51011-14 09:15:06.374 24308-24308/? E/SMD: smd Interface open failed errno is 2 -1
51111-14 09:15:06.384 295-848/? D/EnterpriseController: mIsMarkChainAdded is 0 mIsBlockChainAdded is 0 netId is 0
51211-14 09:15:06.384 295-848/? D/Netd: getNetworkForDns: using netid 502 for uid 10200
51311-14 09:15:06.514 295-848/? D/EnterpriseController: mIsMarkChainAdded is 0 mIsBlockChainAdded is 0 netId is 0
51411-14 09:15:06.514 295-848/? D/Netd: getNetworkForDns: using netid 502 for uid 10200
51511-14 09:15:07.145 278-278/? D/SurfaceFlinger: FPS : 2.05
51611-14 09:15:07.145 278-278/? W/SurfaceFlinger: Fail to Open /sys/devices/platform/gpusysfs/fps
51711-14 09:15:07.245 278-278/? D/SurfaceFlinger: FPS : 2.05
51811-14 09:15:07.245 278-278/? W/SurfaceFlinger: Fail to Open /sys/devices/platform/gpusysfs/fps
51911-14 09:15:07.285 278-278/? D/SurfaceFlinger: FPS : 2.05
52011-14 09:15:07.285 278-278/? W/SurfaceFlinger: Fail to Open /sys/devices/platform/gpusysfs/fps
52111-14 09:15:07.315 278-278/? D/SurfaceFlinger: FPS : 2.05
52211-14 09:15:07.315 278-278/? W/SurfaceFlinger: Fail to Open /sys/devices/platform/gpusysfs/fps
52311-14 09:15:07.345 278-278/? D/SurfaceFlinger: FPS : 2.05
52411-14 09:15:07.345 278-278/? W/SurfaceFlinger: Fail to Open /sys/devices/platform/gpusysfs/fps
52511-14 09:15:07.375 24308-24308/? E/SMD: smd Interface open failed errno is 2 -1
52611-14 09:15:07.385 278-278/? D/SurfaceFlinger: FPS : 2.05
52711-14 09:15:07.385 278-278/? W/SurfaceFlinger: Fail to Open /sys/devices/platform/gpusysfs/fps
52811-14 09:15:07.435 278-278/? D/SurfaceFlinger: FPS : 21.24
52911-14 09:15:07.435 278-278/? W/SurfaceFlinger: Fail to Open /sys/devices/platform/gpusysfs/fps
53011-14 09:15:07.445 24489-24489/? E/Diag_Lib:  Diag_LSM_Init: Failed to open handle to diag driver, error = 2
53111-14 09:15:07.465 278-278/? D/SurfaceFlinger: FPS : 21.24
53211-14 09:15:07.465 278-278/? W/SurfaceFlinger: Fail to Open /sys/devices/platform/gpusysfs/fps
53311-14 09:15:07.495 278-278/? D/SurfaceFlinger: FPS : 21.24
53411-14 09:15:07.495 278-278/? W/SurfaceFlinger: Fail to Open /sys/devices/platform/gpusysfs/fps
53511-14 09:15:07.615 295-848/? D/EnterpriseController: mIsMarkChainAdded is 0 mIsBlockChainAdded is 0 netId is 0
53611-14 09:15:07.615 295-848/? D/Netd: getNetworkForDns: using netid 502 for uid 10200
53711-14 09:15:07.815 304-22408/? E/OMX-VDEC-1080P: send_command: Recieved a Command from Client
53811-14 09:15:07.815 304-22404/? E/OMX-VDEC-1080P: send_command_proxy(): cmd = 1, Current State 3, Expected State -1
53911-14 09:15:07.815 304-22404/? E/OMX-VDEC-1080P: send_command_proxy(): OMX_CommandFlush issued with param1: -1
54011-14 09:15:07.815 304-22408/? E/OMX-VDEC-1080P: send_command: Command Processed
54111-14 09:15:07.815 15042-22403/? I/ACodec: [OMX.qcom.video.decoder.avc] Now Flushing
54211-14 09:15:07.815 304-22404/? E/OMX-VDEC-1080P: Driver flush i/p Port complete
54311-14 09:15:07.815 304-22404/? E/OMX-VDEC-1080P: Initiate Input Flush
54411-14 09:15:07.815 304-22404/? E/OMX-VDEC-1080P: OMX flush i/p Port complete PenBuf(0)
54511-14 09:15:07.815 304-22404/? E/OMX-VDEC-1080P: Driver flush o/p Port complete
54611-14 09:15:07.815 304-22404/? E/OMX-VDEC-1080P: Initiate Output Flush
54711-14 09:15:07.815 304-22404/? E/OMX-VDEC-1080P: Buffer queue size 6 pending buf cnt 6
54811-14 09:15:07.815 304-22404/? E/OMX-VDEC-1080P: ID(c) P1(b1d5ba30) P2(40000000)
54911-14 09:15:07.815 304-22404/? E/OMX-VDEC-1080P: Buffer queue size 5 pending buf cnt 5
55011-14 09:15:07.815 304-22404/? E/OMX-VDEC-1080P: ID(c) P1(b1d5ba80) P2(40000000)
55111-14 09:15:07.815 304-22404/? E/OMX-VDEC-1080P: Buffer queue size 4 pending buf cnt 4
55211-14 09:15:07.815 304-22404/? E/OMX-VDEC-1080P: ID(c) P1(b1d5bad0) P2(40000000)
55311-14 09:15:07.815 304-22404/? E/OMX-VDEC-1080P: Buffer queue size 3 pending buf cnt 3
55411-14 09:15:07.815 304-22404/? E/OMX-VDEC-1080P: ID(c) P1(b1d5bb20) P2(40000000)
55511-14 09:15:07.815 304-22404/? E/OMX-VDEC-1080P: Buffer queue size 2 pending buf cnt 2
55611-14 09:15:07.815 304-22404/? E/OMX-VDEC-1080P: ID(c) P1(b1d5bb70) P2(40000000)
55711-14 09:15:07.815 304-22404/? E/OMX-VDEC-1080P: Buffer queue size 1 pending buf cnt 1
55811-14 09:15:07.815 304-22404/? E/OMX-VDEC-1080P: ID(c) P1(b1d5b850) P2(40000000)
55911-14 09:15:07.815 304-22404/? E/OMX-VDEC-1080P: OMX flush o/p Port complete PenBuf(0)
56011-14 09:15:07.815 15042-22403/? I/ACodec: [OMX.qcom.video.decoder.avc] Now Executing
56111-14 09:15:07.836 304-22404/? E/OMX-VDEC-1080P: Sync frame received
56211-14 09:15:08.166 278-278/? D/SurfaceFlinger: FPS : 4.10
56311-14 09:15:08.166 278-278/? W/SurfaceFlinger: Fail to Open /sys/devices/platform/gpusysfs/fps
56411-14 09:15:08.376 24308-24308/? E/SMD: smd Interface open failed errno is 2 -1
56511-14 09:15:08.806 295-848/? D/EnterpriseController: mIsMarkChainAdded is 0 mIsBlockChainAdded is 0 netId is 0
56611-14 09:15:08.806 295-848/? D/Netd: getNetworkForDns: using netid 502 for uid 10200
56711-14 09:15:08.846 295-848/? D/EnterpriseController: mIsMarkChainAdded is 0 mIsBlockChainAdded is 0 netId is 0
56811-14 09:15:08.846 295-848/? D/Netd: getNetworkForDns: using netid 502 for uid 10200
56911-14 09:15:08.987 295-848/? D/EnterpriseController: mIsMarkChainAdded is 0 mIsBlockChainAdded is 0 netId is 0
57011-14 09:15:08.987 295-848/? D/Netd: getNetworkForDns: using netid 502 for uid 10200
57111-14 09:15:09.117 278-278/? D/SurfaceFlinger: FPS : 1.04
57211-14 09:15:09.117 278-278/? W/SurfaceFlinger: Fail to Open /sys/devices/platform/gpusysfs/fps
57311-14 09:15:09.137 295-848/? D/EnterpriseController: mIsMarkChainAdded is 0 mIsBlockChainAdded is 0 netId is 0
57411-14 09:15:09.137 295-848/? D/Netd: getNetworkForDns: using netid 502 for uid 10200
57511-14 09:15:09.137 295-848/? D/EnterpriseController: mIsMarkChainAdded is 0 mIsBlockChainAdded is 0 netId is 0
57611-14 09:15:09.137 295-848/? D/Netd: getNetworkForDns: using netid 502 for uid 10200
57711-14 09:15:09.367 24308-24308/? E/SMD: smd Interface open failed errno is 2 -1
57811-14 09:15:09.377 295-848/? D/EnterpriseController: mIsMarkChainAdded is 0 mIsBlockChainAdded is 0 netId is 0
57911-14 09:15:09.377 295-848/? D/Netd: getNetworkForDns: using netid 502 for uid 10200
58011-14 09:15:09.767 278-278/? D/SurfaceFlinger: FPS : 1.54
58111-14 09:15:09.767 278-278/? W/SurfaceFlinger: Fail to Open /sys/devices/platform/gpusysfs/fps
58211-14 09:15:09.847 278-278/? D/SurfaceFlinger: FPS : 1.54
58311-14 09:15:09.847 278-278/? W/SurfaceFlinger: Fail to Open /sys/devices/platform/gpusysfs/fps
58411-14 09:15:09.867 278-278/? D/SurfaceFlinger: FPS : 1.54
58511-14 09:15:09.867 278-278/? W/SurfaceFlinger: Fail to Open /sys/devices/platform/gpusysfs/fps
58611-14 09:15:09.888 278-278/? D/SurfaceFlinger: FPS : 1.54
58711-14 09:15:09.888 278-278/? W/SurfaceFlinger: Fail to Open /sys/devices/platform/gpusysfs/fps
58811-14 09:15:09.918 278-278/? D/SurfaceFlinger: FPS : 1.54
58911-14 09:15:09.918 278-278/? W/SurfaceFlinger: Fail to Open /sys/devices/platform/gpusysfs/fps
59011-14 09:15:09.938 278-278/? D/SurfaceFlinger: FPS : 1.54
59111-14 09:15:09.938 278-278/? W/SurfaceFlinger: Fail to Open /sys/devices/platform/gpusysfs/fps
59211-14 09:15:09.948 278-278/? D/SurfaceFlinger: FPS : 1.54
59311-14 09:15:09.948 278-278/? W/SurfaceFlinger: Fail to Open /sys/devices/platform/gpusysfs/fps
59411-14 09:15:09.968 278-278/? D/SurfaceFlinger: FPS : 1.54
59511-14 09:15:09.968 278-278/? W/SurfaceFlinger: Fail to Open /sys/devices/platform/gpusysfs/fps
59611-14 09:15:09.988 278-278/? D/SurfaceFlinger: FPS : 1.54
59711-14 09:15:09.988 278-278/? W/SurfaceFlinger: Fail to Open /sys/devices/platform/gpusysfs/fps
59811-14 09:15:09.998 278-278/? D/SurfaceFlinger: FPS : 1.54
59911-14 09:15:09.998 278-278/? W/SurfaceFlinger: Fail to Open /sys/devices/platform/gpusysfs/fps
60011-14 09:15:10.068 278-278/? D/SurfaceFlinger: FPS : 33.42
60111-14 09:15:10.068 278-278/? W/SurfaceFlinger: Fail to Open /sys/devices/platform/gpusysfs/fps
60211-14 09:15:10.088 278-278/? D/SurfaceFlinger: FPS : 33.42
60311-14 09:15:10.088 278-278/? W/SurfaceFlinger: Fail to Open /sys/devices/platform/gpusysfs/fps
60411-14 09:15:10.188 295-848/? D/EnterpriseController: mIsMarkChainAdded is 0 mIsBlockChainAdded is 0 netId is 0
60511-14 09:15:10.188 295-848/? D/Netd: getNetworkForDns: using netid 502 for uid 10200
60611-14 09:15:10.288 278-278/? D/SurfaceFlinger: FPS : 33.42
60711-14 09:15:10.288 278-278/? W/SurfaceFlinger: Fail to Open /sys/devices/platform/gpusysfs/fps
60811-14 09:15:10.298 278-278/? D/SurfaceFlinger: FPS : 33.42
60911-14 09:15:10.298 278-278/? W/SurfaceFlinger: Fail to Open /sys/devices/platform/gpusysfs/fps
61011-14 09:15:10.308 295-848/? D/EnterpriseController: mIsMarkChainAdded is 0 mIsBlockChainAdded is 0 netId is 0
61111-14 09:15:10.308 295-848/? D/Netd: getNetworkForDns: using netid 502 for uid 10200
61211-14 09:15:10.338 278-278/? D/SurfaceFlinger: FPS : 15.01
61311-14 09:15:10.338 278-278/? W/SurfaceFlinger: Fail to Open /sys/devices/platform/gpusysfs/fps
61411-14 09:15:10.368 278-278/? D/SurfaceFlinger: FPS : 15.01
61511-14 09:15:10.368 278-278/? W/SurfaceFlinger: Fail to Open /sys/devices/platform/gpusysfs/fps
61611-14 09:15:10.368 24308-24308/? E/SMD: smd Interface open failed errno is 2 -1
61711-14 09:15:10.398 278-278/? D/SurfaceFlinger: FPS : 15.01
61811-14 09:15:10.398 278-278/? W/SurfaceFlinger: Fail to Open /sys/devices/platform/gpusysfs/fps
61911-14 09:15:10.418 295-848/? D/EnterpriseController: mIsMarkChainAdded is 0 mIsBlockChainAdded is 0 netId is 0
62011-14 09:15:10.418 295-848/? D/Netd: getNetworkForDns: using netid 502 for uid 10200
62111-14 09:15:10.418 278-278/? D/SurfaceFlinger: FPS : 15.01
62211-14 09:15:10.418 278-278/? W/SurfaceFlinger: Fail to Open /sys/devices/platform/gpusysfs/fps
62311-14 09:15:10.438 868-3238/? D/SSRM:n: SIOP:: AP = 470, CUR = 460
62411-14 09:15:10.448 278-278/? D/SurfaceFlinger: FPS : 15.01
62511-14 09:15:10.448 278-278/? W/SurfaceFlinger: Fail to Open /sys/devices/platform/gpusysfs/fps
62611-14 09:15:10.648 278-278/? D/SurfaceFlinger: FPS : 15.86
62711-14 09:15:10.648 278-278/? W/SurfaceFlinger: Fail to Open /sys/devices/platform/gpusysfs/fps
62811-14 09:15:10.678 295-848/? D/EnterpriseController: mIsMarkChainAdded is 0 mIsBlockChainAdded is 0 netId is 0
62911-14 09:15:10.678 295-848/? D/Netd: getNetworkForDns: using netid 502 for uid 10200
63011-14 09:15:10.678 295-848/? D/EnterpriseController: mIsMarkChainAdded is 0 mIsBlockChainAdded is 0 netId is 0
63111-14 09:15:10.678 295-848/? D/Netd: getNetworkForDns: using netid 502 for uid 10200
63211-14 09:15:10.678 278-278/? D/SurfaceFlinger: FPS : 15.86
63311-14 09:15:10.678 278-278/? W/SurfaceFlinger: Fail to Open /sys/devices/platform/gpusysfs/fps
63411-14 09:15:10.718 278-278/? D/SurfaceFlinger: FPS : 15.86
63511-14 09:15:10.718 278-278/? W/SurfaceFlinger: Fail to Open /sys/devices/platform/gpusysfs/fps
63611-14 09:15:10.748 278-278/? D/SurfaceFlinger: FPS : 15.86
63711-14 09:15:10.748 278-278/? W/SurfaceFlinger: Fail to Open /sys/devices/platform/gpusysfs/fps
63811-14 09:15:10.778 278-278/? D/SurfaceFlinger: FPS : 15.86
63911-14 09:15:10.778 278-278/? W/SurfaceFlinger: Fail to Open /sys/devices/platform/gpusysfs/fps
64011-14 09:15:10.818 278-278/? D/SurfaceFlinger: FPS : 15.86
64111-14 09:15:10.818 278-278/? W/SurfaceFlinger: Fail to Open /sys/devices/platform/gpusysfs/fps
64211-14 09:15:10.848 278-278/? D/SurfaceFlinger: FPS : 15.86
64311-14 09:15:10.848 278-278/? W/SurfaceFlinger: Fail to Open /sys/devices/platform/gpusysfs/fps
64411-14 09:15:10.868 278-278/? D/SurfaceFlinger: FPS : 15.86
64511-14 09:15:10.868 278-278/? W/SurfaceFlinger: Fail to Open /sys/devices/platform/gpusysfs/fps
64611-14 09:15:10.878 278-278/? D/SurfaceFlinger: FPS : 15.86
64711-14 09:15:10.878 278-278/? W/SurfaceFlinger: Fail to Open /sys/devices/platform/gpusysfs/fps
64811-14 09:15:10.898 278-278/? D/SurfaceFlinger: FPS : 15.86
64911-14 09:15:10.898 278-278/? W/SurfaceFlinger: Fail to Open /sys/devices/platform/gpusysfs/fps
65011-14 09:15:10.919 278-278/? D/SurfaceFlinger: FPS : 37.61
65111-14 09:15:10.919 278-278/? W/SurfaceFlinger: Fail to Open /sys/devices/platform/gpusysfs/fps
65211-14 09:15:10.949 278-278/? D/SurfaceFlinger: FPS : 37.61
65311-14 09:15:10.949 278-278/? W/SurfaceFlinger: Fail to Open /sys/devices/platform/gpusysfs/fps
65411-14 09:15:10.969 278-278/? D/SurfaceFlinger: FPS : 37.61
65511-14 09:15:10.969 278-278/? W/SurfaceFlinger: Fail to Open /sys/devices/platform/gpusysfs/fps
65611-14 09:15:10.999 278-278/? D/SurfaceFlinger: FPS : 37.61
65711-14 09:15:10.999 278-278/? W/SurfaceFlinger: Fail to Open /sys/devices/platform/gpusysfs/fps
65811-14 09:15:11.019 278-278/? D/SurfaceFlinger: FPS : 37.61
65911-14 09:15:11.019 278-278/? W/SurfaceFlinger: Fail to Open /sys/devices/platform/gpusysfs/fps
66011-14 09:15:11.029 278-278/? D/SurfaceFlinger: FPS : 37.61
66111-14 09:15:11.029 278-278/? W/SurfaceFlinger: Fail to Open /sys/devices/platform/gpusysfs/fps
66211-14 09:15:11.049 278-278/? D/SurfaceFlinger: FPS : 37.61
66311-14 09:15:11.049 278-278/? W/SurfaceFlinger: Fail to Open /sys/devices/platform/gpusysfs/fps
66411-14 09:15:11.069 278-278/? D/SurfaceFlinger: FPS : 37.61
66511-14 09:15:11.069 278-278/? W/SurfaceFlinger: Fail to Open /sys/devices/platform/gpusysfs/fps
66611-14 09:15:11.079 278-278/? D/SurfaceFlinger: FPS : 37.61
66711-14 09:15:11.079 278-278/? W/SurfaceFlinger: Fail to Open /sys/devices/platform/gpusysfs/fps
66811-14 09:15:11.099 278-278/? D/SurfaceFlinger: FPS : 37.61
66911-14 09:15:11.099 278-278/? W/SurfaceFlinger: Fail to Open /sys/devices/platform/gpusysfs/fps
67011-14 09:15:11.119 278-278/? D/SurfaceFlinger: FPS : 37.61
67111-14 09:15:11.119 278-278/? W/SurfaceFlinger: Fail to Open /sys/devices/platform/gpusysfs/fps
67211-14 09:15:11.149 278-278/? D/SurfaceFlinger: FPS : 37.61
67311-14 09:15:11.149 278-278/? W/SurfaceFlinger: Fail to Open /sys/devices/platform/gpusysfs/fps
67411-14 09:15:11.179 278-278/? D/SurfaceFlinger: FPS : 45.12
67511-14 09:15:11.179 278-278/? W/SurfaceFlinger: Fail to Open /sys/devices/platform/gpusysfs/fps
67611-14 09:15:11.199 278-278/? D/SurfaceFlinger: FPS : 45.12
67711-14 09:15:11.199 278-278/? W/SurfaceFlinger: Fail to Open /sys/devices/platform/gpusysfs/fps
67811-14 09:15:11.219 278-278/? D/SurfaceFlinger: FPS : 45.12
67911-14 09:15:11.219 278-278/? W/SurfaceFlinger: Fail to Open /sys/devices/platform/gpusysfs/fps
68011-14 09:15:11.249 278-278/? D/SurfaceFlinger: FPS : 45.12
68111-14 09:15:11.249 278-278/? W/SurfaceFlinger: Fail to Open /sys/devices/platform/gpusysfs/fps
68211-14 09:15:11.279 278-278/? D/SurfaceFlinger: FPS : 45.12
68311-14 09:15:11.279 278-278/? W/SurfaceFlinger: Fail to Open /sys/devices/platform/gpusysfs/fps
68411-14 09:15:11.319 278-278/? D/SurfaceFlinger: FPS : 45.12
68511-14 09:15:11.319 278-278/? W/SurfaceFlinger: Fail to Open /sys/devices/platform/gpusysfs/fps
68611-14 09:15:11.349 295-848/? D/EnterpriseController: mIsMarkChainAdded is 0 mIsBlockChainAdded is 0 netId is 0
68711-14 09:15:11.349 295-848/? D/Netd: getNetworkForDns: using netid 502 for uid 10200
68811-14 09:15:11.349 15042-15524/? D/GeckoTabs: handleMessage: Content:PageShow
68911-14 09:15:11.349 15042-15042/? D/GeckoToolbar: onTabChanged: PAGE_SHOW
69011-14 09:15:11.349 15042-15042/? D/GeckoBrowserApp: BrowserApp.onTabChanged: 15: PAGE_SHOW
69111-14 09:15:11.359 15042-15042/? V/GeckoProfile: Fetching profile: '', 'null'
69211-14 09:15:11.359 15042-15042/? D/StrictMode: StrictMode policy violation; ~duration=0 ms: android.os.StrictMode$StrictModeDiskReadViolation: policy=31 violation=2
693                                                   at android.os.StrictMode$AndroidBlockGuardPolicy.onReadFromDisk(StrictMode.java:1137)
694                                                   at libcore.io.BlockGuardOs.access(BlockGuardOs.java:67)
695                                                   at java.io.File.doAccess(File.java:283)
696                                                   at java.io.File.exists(File.java:363)
697                                                   at org.mozilla.gecko.GeckoProfile.getGuestProfile(GeckoProfile.java:371)
698                                                   at org.mozilla.gecko.GuestSession.shouldUse(GuestSession.java:34)
699                                                   at org.mozilla.gecko.GeckoProfile.get(GeckoProfile.java:162)
700                                                   at org.mozilla.gecko.favicons.LoadFaviconTask.<init>(LoadFaviconTask.java:86)
701                                                   at org.mozilla.gecko.favicons.Favicons.loadUncachedFavicon(Favicons.java:355)
702                                                   at org.mozilla.gecko.favicons.Favicons.getSizedFavicon(Favicons.java:231)
703                                                   at org.mozilla.gecko.Tab.loadFavicon(Tab.java:435)
704                                                   at org.mozilla.gecko.BrowserApp.onTabChanged(BrowserApp.java:492)
705                                                   at org.mozilla.gecko.Tabs$5.run(Tabs.java:666)
706                                                   at android.os.Handler.handleCallback(Handler.java:739)
707                                                   at android.os.Handler.dispatchMessage(Handler.java:95)
708                                                   at android.os.Looper.loop(Looper.java:145)
709                                                   at android.app.ActivityThread.main(ActivityThread.java:5951)
710                                                   at java.lang.reflect.Method.invoke(Native Method)
711                                                   at java.lang.reflect.Method.invoke(Method.java:372)
712                                                   at com.android.internal.os.ZygoteInit$MethodAndArgsCaller.run(ZygoteInit.java:1400)
713                                                   at com.android.internal.os.ZygoteInit.main(ZygoteInit.java:1195)
71411-14 09:15:11.359 295-848/? D/EnterpriseController: mIsMarkChainAdded is 0 mIsBlockChainAdded is 0 netId is 0
71511-14 09:15:11.359 295-848/? D/Netd: getNetworkForDns: using netid 502 for uid 10200
71611-14 09:15:11.369 24308-24308/? E/SMD: smd Interface open failed errno is 2 -1
71711-14 09:15:11.389 15042-15536/? I/System.out: pool-5-thread-1 calls detatch()
71811-14 09:15:11.399 295-848/? D/EnterpriseController: mIsMarkChainAdded is 0 mIsBlockChainAdded is 0 netId is 0
71911-14 09:15:11.399 295-848/? D/Netd: getNetworkForDns: using netid 502 for uid 10200
72011-14 09:15:11.399 295-848/? D/EnterpriseController: mIsMarkChainAdded is 0 mIsBlockChainAdded is 0 netId is 0
72111-14 09:15:11.399 295-848/? D/Netd: getNetworkForDns: using netid 502 for uid 10200
72211-14 09:15:11.399 295-848/? D/EnterpriseController: mIsMarkChainAdded is 0 mIsBlockChainAdded is 0 netId is 0
72311-14 09:15:11.399 295-848/? D/Netd: getNetworkForDns: using netid 502 for uid 10200
72411-14 09:15:11.399 295-848/? D/EnterpriseController: mIsMarkChainAdded is 0 mIsBlockChainAdded is 0 netId is 0
72511-14 09:15:11.399 295-848/? D/Netd: getNetworkForDns: using netid 502 for uid 10200
72611-14 09:15:11.399 15042-15524/? D/GeckoTabs: handleMessage: Content:StateChange
72711-14 09:15:11.399 15042-15042/? D/GeckoToolbar: onTabChanged: STOP
72811-14 09:15:11.399 15042-15042/? I/GeckoToolbarDisplayLayout: zerdatime 1239366 - Throbber stop
72911-14 09:15:11.399 15042-15042/? D/GeckoBrowserApp: BrowserApp.onTabChanged: 15: STOP
73011-14 09:15:11.409 295-848/? D/EnterpriseController: mIsMarkChainAdded is 0 mIsBlockChainAdded is 0 netId is 0
73111-14 09:15:11.409 295-848/? D/Netd: getNetworkForDns: using netid 502 for uid 10200
73211-14 09:15:11.419 295-848/? D/EnterpriseController: mIsMarkChainAdded is 0 mIsBlockChainAdded is 0 netId is 0
73311-14 09:15:11.419 295-848/? D/Netd: getNetworkForDns: using netid 502 for uid 10200
73411-14 09:15:11.429 295-848/? D/EnterpriseController: mIsMarkChainAdded is 0 mIsBlockChainAdded is 0 netId is 0
73511-14 09:15:11.429 295-848/? D/Netd: getNetworkForDns: using netid 502 for uid 10200
73611-14 09:15:11.429 295-848/? D/EnterpriseController: mIsMarkChainAdded is 0 mIsBlockChainAdded is 0 netId is 0
73711-14 09:15:11.429 295-848/? D/Netd: getNetworkForDns: using netid 502 for uid 10200
73811-14 09:15:11.429 278-278/? D/SurfaceFlinger: FPS : 45.12
73911-14 09:15:11.429 278-278/? W/SurfaceFlinger: Fail to Open /sys/devices/platform/gpusysfs/fps
74011-14 09:15:11.429 295-848/? D/EnterpriseController: mIsMarkChainAdded is 0 mIsBlockChainAdded is 0 netId is 0
74111-14 09:15:11.429 295-848/? D/Netd: getNetworkForDns: using netid 502 for uid 10200
74211-14 09:15:11.449 278-278/? D/SurfaceFlinger: FPS : 26.31
74311-14 09:15:11.449 278-278/? W/SurfaceFlinger: Fail to Open /sys/devices/platform/gpusysfs/fps
74411-14 09:15:11.449 295-848/? D/EnterpriseController: mIsMarkChainAdded is 0 mIsBlockChainAdded is 0 netId is 0
74511-14 09:15:11.449 295-848/? D/Netd: getNetworkForDns: using netid 502 for uid 10200
74611-14 09:15:11.449 295-848/? D/EnterpriseController: mIsMarkChainAdded is 0 mIsBlockChainAdded is 0 netId is 0
74711-14 09:15:11.449 295-848/? D/Netd: getNetworkForDns: using netid 502 for uid 10200
74811-14 09:15:11.469 278-278/? D/SurfaceFlinger: FPS : 26.31
74911-14 09:15:11.469 278-278/? W/SurfaceFlinger: Fail to Open /sys/devices/platform/gpusysfs/fps
75011-14 09:15:11.479 278-278/? D/SurfaceFlinger: FPS : 26.31
75111-14 09:15:11.479 278-278/? W/SurfaceFlinger: Fail to Open /sys/devices/platform/gpusysfs/fps
75211-14 09:15:11.499 278-278/? D/SurfaceFlinger: FPS : 26.31
75311-14 09:15:11.499 278-278/? W/SurfaceFlinger: Fail to Open /sys/devices/platform/gpusysfs/fps
75411-14 09:15:11.519 278-278/? D/SurfaceFlinger: FPS : 26.31
75511-14 09:15:11.519 278-278/? W/SurfaceFlinger: Fail to Open /sys/devices/platform/gpusysfs/fps
75611-14 09:15:11.529 278-278/? D/SurfaceFlinger: FPS : 26.31
75711-14 09:15:11.529 278-278/? W/SurfaceFlinger: Fail to Open /sys/devices/platform/gpusysfs/fps
75811-14 09:15:11.529 15042-15536/? I/System.out: pool-5-thread-1 calls detatch()
75911-14 09:15:11.549 278-278/? D/SurfaceFlinger: FPS : 26.31
76011-14 09:15:11.549 278-278/? W/SurfaceFlinger: Fail to Open /sys/devices/platform/gpusysfs/fps
76111-14 09:15:11.559 15042-15536/? D/FaviconCache: Favicon cache fullness: 164352/524288
76211-14 09:15:11.569 278-278/? D/SurfaceFlinger: FPS : 26.31
76311-14 09:15:11.569 278-278/? W/SurfaceFlinger: Fail to Open /sys/devices/platform/gpusysfs/fps
76411-14 09:15:11.579 278-278/? D/SurfaceFlinger: FPS : 26.31
76511-14 09:15:11.579 15042-15042/? D/GeckoToolbar: onTabChanged: FAVICON
76611-14 09:15:11.579 15042-15042/? D/GeckoToolbarDisplayLayout: updateFavicon(android.graphics.Bitmap@1a8466dc)
76711-14 09:15:11.579 278-278/? W/SurfaceFlinger: Fail to Open /sys/devices/platform/gpusysfs/fps
76811-14 09:15:11.579 15042-15042/? D/GeckoBrowserApp: BrowserApp.onTabChanged: 15: FAVICON
76911-14 09:15:11.599 278-278/? D/SurfaceFlinger: FPS : 26.31
77011-14 09:15:11.599 278-278/? W/SurfaceFlinger: Fail to Open /sys/devices/platform/gpusysfs/fps
77111-14 09:15:11.619 278-278/? D/SurfaceFlinger: FPS : 26.31
77211-14 09:15:11.619 278-278/? W/SurfaceFlinger: Fail to Open /sys/devices/platform/gpusysfs/fps
77311-14 09:15:11.629 278-278/? D/SurfaceFlinger: FPS : 26.31
77411-14 09:15:11.629 278-278/? W/SurfaceFlinger: Fail to Open /sys/devices/platform/gpusysfs/fps
77511-14 09:15:11.659 295-848/? D/EnterpriseController: mIsMarkChainAdded is 0 mIsBlockChainAdded is 0 netId is 0
77611-14 09:15:11.659 295-848/? D/Netd: getNetworkForDns: using netid 502 for uid 10200
77711-14 09:15:11.659 295-848/? D/EnterpriseController: mIsMarkChainAdded is 0 mIsBlockChainAdded is 0 netId is 0
77811-14 09:15:11.659 295-848/? D/Netd: getNetworkForDns: using netid 502 for uid 10200
77911-14 09:15:11.899 15042-15520/? D/GeckoThumbnailHelper: Using new thumbnail size: 545724 (width 489 - height 279)
78011-14 09:15:11.899 15042-15520/? D/GeckoThumbnailHelper: Sending thumbnail event: 489, 279
78111-14 09:15:11.919 15042-15524/? D/GeckoThumbnailHelper: handleThumbnailData: 545724
78211-14 09:15:12.030 15042-15042/? D/GeckoToolbar: onTabChanged: THUMBNAIL
78311-14 09:15:12.030 15042-15042/? D/GeckoBrowserApp: BrowserApp.onTabChanged: 15: THUMBNAIL
78411-14 09:15:12.100 278-278/? D/SurfaceFlinger: FPS : 18.49
78511-14 09:15:12.100 278-278/? W/SurfaceFlinger: Fail to Open /sys/devices/platform/gpusysfs/fps
78611-14 09:15:12.110 278-278/? D/SurfaceFlinger: FPS : 18.49
78711-14 09:15:12.110 278-278/? W/SurfaceFlinger: Fail to Open /sys/devices/platform/gpusysfs/fps
78811-14 09:15:12.370 24308-24308/? E/SMD: smd Interface open failed errno is 2 -1
78911-14 09:15:12.460 24541-24541/? E/Diag_Lib:  Diag_LSM_Init: Failed to open handle to diag driver, error = 2
79011-14 09:15:13.271 278-278/? D/SurfaceFlinger: FPS : 1.71
79111-14 09:15:13.271 278-278/? W/SurfaceFlinger: Fail to Open /sys/devices/platform/gpusysfs/fps
79211-14 09:15:13.321 868-1163/? D/InputReader: Input event: value=1
79311-14 09:15:13.321 868-1163/? I/InputReader: Touch event's action is 0x0 (deviceType=0) [pCnt=1, s=0.301 ] when=1241288511000
79411-14 09:15:13.331 868-1162/? I/InputDispatcher: Delivering touch to (1263): action: 0x4, toolType: 1
79511-14 09:15:13.331 868-1162/? I/InputDispatcher: Delivering touch to (15042): action: 0x0, toolType: 1
79611-14 09:15:13.331 15042-15042/? D/ViewRootImpl: ViewPostImeInputStage ACTION_DOWN
79711-14 09:15:13.371 24308-24308/? E/SMD: smd Interface open failed errno is 2 -1
79811-14 09:15:13.441 278-278/? D/SurfaceFlinger: FPS : 1.71
79911-14 09:15:13.441 278-278/? W/SurfaceFlinger: Fail to Open /sys/devices/platform/gpusysfs/fps
80011-14 09:15:13.461 278-278/? D/SurfaceFlinger: FPS : 1.71
80111-14 09:15:13.461 278-278/? W/SurfaceFlinger: Fail to Open /sys/devices/platform/gpusysfs/fps
80211-14 09:15:13.481 278-278/? D/SurfaceFlinger: FPS : 1.71
80311-14 09:15:13.481 278-278/? W/SurfaceFlinger: Fail to Open /sys/devices/platform/gpusysfs/fps
80411-14 09:15:13.491 278-278/? D/SurfaceFlinger: FPS : 1.71
80511-14 09:15:13.491 278-278/? W/SurfaceFlinger: Fail to Open /sys/devices/platform/gpusysfs/fps
80611-14 09:15:13.511 278-278/? D/SurfaceFlinger: FPS : 1.71
80711-14 09:15:13.511 278-278/? W/SurfaceFlinger: Fail to Open /sys/devices/platform/gpusysfs/fps
80811-14 09:15:13.531 278-278/? D/SurfaceFlinger: FPS : 23.24
80911-14 09:15:13.531 278-278/? W/SurfaceFlinger: Fail to Open /sys/devices/platform/gpusysfs/fps
81011-14 09:15:13.541 278-278/? D/SurfaceFlinger: FPS : 23.24
81111-14 09:15:13.541 278-278/? W/SurfaceFlinger: Fail to Open /sys/devices/platform/gpusysfs/fps
81211-14 09:15:13.561 278-278/? D/SurfaceFlinger: FPS : 23.24
81311-14 09:15:13.561 278-278/? W/SurfaceFlinger: Fail to Open /sys/devices/platform/gpusysfs/fps
81411-14 09:15:13.591 278-278/? D/SurfaceFlinger: FPS : 23.24
81511-14 09:15:13.591 278-278/? W/SurfaceFlinger: Fail to Open /sys/devices/platform/gpusysfs/fps
81611-14 09:15:13.611 278-278/? D/SurfaceFlinger: FPS : 23.24
81711-14 09:15:13.611 278-278/? W/SurfaceFlinger: Fail to Open /sys/devices/platform/gpusysfs/fps
81811-14 09:15:13.631 278-278/? D/SurfaceFlinger: FPS : 23.24
81911-14 09:15:13.631 278-278/? W/SurfaceFlinger: Fail to Open /sys/devices/platform/gpusysfs/fps
82011-14 09:15:13.641 278-278/? D/SurfaceFlinger: FPS : 23.24
82111-14 09:15:13.641 278-278/? W/SurfaceFlinger: Fail to Open /sys/devices/platform/gpusysfs/fps
82211-14 09:15:13.681 278-278/? D/SurfaceFlinger: FPS : 23.24
82311-14 09:15:13.681 278-278/? W/SurfaceFlinger: Fail to Open /sys/devices/platform/gpusysfs/fps
82411-14 09:15:13.691 278-278/? D/SurfaceFlinger: FPS : 23.24
82511-14 09:15:13.691 278-278/? W/SurfaceFlinger: Fail to Open /sys/devices/platform/gpusysfs/fps
82611-14 09:15:13.711 278-278/? D/SurfaceFlinger: FPS : 23.24
82711-14 09:15:13.711 278-278/? W/SurfaceFlinger: Fail to Open /sys/devices/platform/gpusysfs/fps
82811-14 09:15:13.731 278-278/? D/SurfaceFlinger: FPS : 23.24
82911-14 09:15:13.731 278-278/? W/SurfaceFlinger: Fail to Open /sys/devices/platform/gpusysfs/fps
83011-14 09:15:13.741 278-278/? D/SurfaceFlinger: FPS : 23.24
83111-14 09:15:13.741 278-278/? W/SurfaceFlinger: Fail to Open /sys/devices/platform/gpusysfs/fps
83211-14 09:15:13.761 278-278/? D/SurfaceFlinger: FPS : 23.24
83311-14 09:15:13.761 278-278/? W/SurfaceFlinger: Fail to Open /sys/devices/platform/gpusysfs/fps
83411-14 09:15:13.781 278-278/? D/SurfaceFlinger: FPS : 23.24
83511-14 09:15:13.781 278-278/? W/SurfaceFlinger: Fail to Open /sys/devices/platform/gpusysfs/fps
83611-14 09:15:13.791 868-1163/? D/InputReader: Input event: value=0
83711-14 09:15:13.791 868-1163/? I/InputReader: Touch event's action is 0x1 (deviceType=0) [pCnt=1, s=] when=1241756650000
83811-14 09:15:13.791 278-278/? D/SurfaceFlinger: FPS : 52.60
83911-14 09:15:13.791 278-278/? W/SurfaceFlinger: Fail to Open /sys/devices/platform/gpusysfs/fps
84011-14 09:15:13.791 868-1162/? I/InputDispatcher: Delivering touch to (15042): action: 0x1, toolType: 1
84111-14 09:15:13.811 278-278/? D/SurfaceFlinger: FPS : 52.60
84211-14 09:15:13.811 278-278/? W/SurfaceFlinger: Fail to Open /sys/devices/platform/gpusysfs/fps
84311-14 09:15:13.831 278-278/? D/SurfaceFlinger: FPS : 52.60
84411-14 09:15:13.831 278-278/? W/SurfaceFlinger: Fail to Open /sys/devices/platform/gpusysfs/fps
84511-14 09:15:13.841 278-278/? D/SurfaceFlinger: FPS : 52.60
84611-14 09:15:13.841 278-278/? W/SurfaceFlinger: Fail to Open /sys/devices/platform/gpusysfs/fps
84711-14 09:15:13.861 278-278/? D/SurfaceFlinger: FPS : 52.60
84811-14 09:15:13.861 278-278/? W/SurfaceFlinger: Fail to Open /sys/devices/platform/gpusysfs/fps
84911-14 09:15:13.881 278-278/? D/SurfaceFlinger: FPS : 52.60
85011-14 09:15:13.881 278-278/? W/SurfaceFlinger: Fail to Open /sys/devices/platform/gpusysfs/fps
85111-14 09:15:13.891 278-278/? D/SurfaceFlinger: FPS : 52.60
85211-14 09:15:13.891 278-278/? W/SurfaceFlinger: Fail to Open /sys/devices/platform/gpusysfs/fps
85311-14 09:15:13.911 278-278/? D/SurfaceFlinger: FPS : 52.60
85411-14 09:15:13.911 278-278/? W/SurfaceFlinger: Fail to Open /sys/devices/platform/gpusysfs/fps
85511-14 09:15:13.931 278-278/? D/SurfaceFlinger: FPS : 52.60
85611-14 09:15:13.931 278-278/? W/SurfaceFlinger: Fail to Open /sys/devices/platform/gpusysfs/fps
85711-14 09:15:13.941 278-278/? D/SurfaceFlinger: FPS : 52.60
85811-14 09:15:13.941 278-278/? W/SurfaceFlinger: Fail to Open /sys/devices/platform/gpusysfs/fps
85911-14 09:15:13.961 278-278/? D/SurfaceFlinger: FPS : 52.60
86011-14 09:15:13.961 278-278/? W/SurfaceFlinger: Fail to Open /sys/devices/platform/gpusysfs/fps
86111-14 09:15:13.982 278-278/? D/SurfaceFlinger: FPS : 52.60
86211-14 09:15:13.982 278-278/? W/SurfaceFlinger: Fail to Open /sys/devices/platform/gpusysfs/fps
86311-14 09:15:13.992 278-278/? D/SurfaceFlinger: FPS : 52.60
86411-14 09:15:13.992 278-278/? W/SurfaceFlinger: Fail to Open /sys/devices/platform/gpusysfs/fps
86511-14 09:15:14.012 278-278/? D/SurfaceFlinger: FPS : 52.60
86611-14 09:15:14.012 278-278/? W/SurfaceFlinger: Fail to Open /sys/devices/platform/gpusysfs/fps
86711-14 09:15:14.032 278-278/? D/SurfaceFlinger: FPS : 52.60
86811-14 09:15:14.032 278-278/? W/SurfaceFlinger: Fail to Open /sys/devices/platform/gpusysfs/fps
86911-14 09:15:14.042 278-278/? D/SurfaceFlinger: FPS : 52.60
87011-14 09:15:14.042 278-278/? W/SurfaceFlinger: Fail to Open /sys/devices/platform/gpusysfs/fps
87111-14 09:15:14.062 278-278/? D/SurfaceFlinger: FPS : 60.17
87211-14 09:15:14.062 278-278/? W/SurfaceFlinger: Fail to Open /sys/devices/platform/gpusysfs/fps
87311-14 09:15:14.072 278-278/? D/SurfaceFlinger: FPS : 60.17
87411-14 09:15:14.072 278-278/? W/SurfaceFlinger: Fail to Open /sys/devices/platform/gpusysfs/fps
87511-14 09:15:14.092 278-278/? D/SurfaceFlinger: FPS : 60.17
87611-14 09:15:14.092 278-278/? W/SurfaceFlinger: Fail to Open /sys/devices/platform/gpusysfs/fps
87711-14 09:15:14.112 278-278/? D/SurfaceFlinger: FPS : 60.17
87811-14 09:15:14.112 278-278/? W/SurfaceFlinger: Fail to Open /sys/devices/platform/gpusysfs/fps
87911-14 09:15:14.122 278-278/? D/SurfaceFlinger: FPS : 60.17
88011-14 09:15:14.122 278-278/? W/SurfaceFlinger: Fail to Open /sys/devices/platform/gpusysfs/fps
88111-14 09:15:14.162 868-1163/? D/InputReader: Input event: value=1
88211-14 09:15:14.162 868-1163/? I/InputReader: Touch event's action is 0x0 (deviceType=0) [pCnt=1, s=0.302 ] when=1242126188000
88311-14 09:15:14.162 868-1162/? I/InputDispatcher: Delivering touch to (1263): action: 0x4, toolType: 1
88411-14 09:15:14.162 868-1162/? I/InputDispatcher: Delivering touch to (15042): action: 0x0, toolType: 1
88511-14 09:15:14.162 15042-15042/? D/ViewRootImpl: ViewPostImeInputStage ACTION_DOWN
88611-14 09:15:14.272 278-278/? D/SurfaceFlinger: FPS : 60.17
88711-14 09:15:14.272 278-278/? W/SurfaceFlinger: Fail to Open /sys/devices/platform/gpusysfs/fps
88811-14 09:15:14.312 278-278/? D/SurfaceFlinger: FPS : 60.17
88911-14 09:15:14.312 278-278/? W/SurfaceFlinger: Fail to Open /sys/devices/platform/gpusysfs/fps
89011-14 09:15:14.322 278-278/? D/SurfaceFlinger: FPS : 26.33
89111-14 09:15:14.322 278-278/? W/SurfaceFlinger: Fail to Open /sys/devices/platform/gpusysfs/fps
89211-14 09:15:14.342 278-278/? D/SurfaceFlinger: FPS : 26.33
89311-14 09:15:14.342 278-278/? W/SurfaceFlinger: Fail to Open /sys/devices/platform/gpusysfs/fps
89411-14 09:15:14.362 278-278/? D/SurfaceFlinger: FPS : 26.33
89511-14 09:15:14.362 278-278/? W/SurfaceFlinger: Fail to Open /sys/devices/platform/gpusysfs/fps
89611-14 09:15:14.372 24308-24308/? E/SMD: smd Interface open failed errno is 2 -1
89711-14 09:15:14.372 278-278/? D/SurfaceFlinger: FPS : 26.33
89811-14 09:15:14.372 278-278/? W/SurfaceFlinger: Fail to Open /sys/devices/platform/gpusysfs/fps
89911-14 09:15:14.392 278-278/? D/SurfaceFlinger: FPS : 26.33
90011-14 09:15:14.392 278-278/? W/SurfaceFlinger: Fail to Open /sys/devices/platform/gpusysfs/fps
90111-14 09:15:14.412 278-278/? D/SurfaceFlinger: FPS : 26.33
90211-14 09:15:14.412 278-278/? W/SurfaceFlinger: Fail to Open /sys/devices/platform/gpusysfs/fps
90311-14 09:15:14.422 278-278/? D/SurfaceFlinger: FPS : 26.33
90411-14 09:15:14.422 278-278/? W/SurfaceFlinger: Fail to Open /sys/devices/platform/gpusysfs/fps
90511-14 09:15:14.462 278-278/? D/SurfaceFlinger: FPS : 26.33
90611-14 09:15:14.462 278-278/? W/SurfaceFlinger: Fail to Open /sys/devices/platform/gpusysfs/fps
90711-14 09:15:14.492 278-278/? D/SurfaceFlinger: FPS : 26.33
90811-14 09:15:14.492 278-278/? W/SurfaceFlinger: Fail to Open /sys/devices/platform/gpusysfs/fps
90911-14 09:15:14.512 278-278/? D/SurfaceFlinger: FPS : 26.33
91011-14 09:15:14.512 278-278/? W/SurfaceFlinger: Fail to Open /sys/devices/platform/gpusysfs/fps
91111-14 09:15:14.522 278-278/? D/SurfaceFlinger: FPS : 26.33
91211-14 09:15:14.522 278-278/? W/SurfaceFlinger: Fail to Open /sys/devices/platform/gpusysfs/fps
91311-14 09:15:14.542 278-278/? D/SurfaceFlinger: FPS : 26.33
91411-14 09:15:14.542 278-278/? W/SurfaceFlinger: Fail to Open /sys/devices/platform/gpusysfs/fps
91511-14 09:15:14.562 278-278/? D/SurfaceFlinger: FPS : 26.33
91611-14 09:15:14.562 278-278/? W/SurfaceFlinger: Fail to Open /sys/devices/platform/gpusysfs/fps
91711-14 09:15:14.572 278-278/? D/SurfaceFlinger: FPS : 26.33
91811-14 09:15:14.572 278-278/? W/SurfaceFlinger: Fail to Open /sys/devices/platform/gpusysfs/fps
91911-14 09:15:14.592 278-278/? D/SurfaceFlinger: FPS : 52.49
92011-14 09:15:14.592 278-278/? W/SurfaceFlinger: Fail to Open /sys/devices/platform/gpusysfs/fps
92111-14 09:15:14.612 278-278/? D/SurfaceFlinger: FPS : 52.49
92211-14 09:15:14.612 278-278/? W/SurfaceFlinger: Fail to Open /sys/devices/platform/gpusysfs/fps
92311-14 09:15:14.612 868-1163/? D/InputReader: Input event: value=0
92411-14 09:15:14.612 868-1163/? I/InputReader: Touch event's action is 0x1 (deviceType=0) [pCnt=1, s=] when=1242577726000
92511-14 09:15:14.612 868-1162/? I/InputDispatcher: Delivering touch to (15042): action: 0x1, toolType: 1
92611-14 09:15:14.622 278-278/? D/SurfaceFlinger: FPS : 52.49
92711-14 09:15:14.622 278-278/? W/SurfaceFlinger: Fail to Open /sys/devices/platform/gpusysfs/fps
92811-14 09:15:14.642 278-278/? D/SurfaceFlinger: FPS : 52.49
92911-14 09:15:14.642 278-278/? W/SurfaceFlinger: Fail to Open /sys/devices/platform/gpusysfs/fps
93011-14 09:15:14.662 278-278/? D/SurfaceFlinger: FPS : 52.49
93111-14 09:15:14.662 278-278/? W/SurfaceFlinger: Fail to Open /sys/devices/platform/gpusysfs/fps
93211-14 09:15:14.672 278-278/? D/SurfaceFlinger: FPS : 52.49
93311-14 09:15:14.672 278-278/? W/SurfaceFlinger: Fail to Open /sys/devices/platform/gpusysfs/fps
93411-14 09:15:14.692 278-278/? D/SurfaceFlinger: FPS : 52.49
93511-14 09:15:14.692 278-278/? W/SurfaceFlinger: Fail to Open /sys/devices/platform/gpusysfs/fps
93611-14 09:15:14.712 278-278/? D/SurfaceFlinger: FPS : 52.49
93711-14 09:15:14.712 278-278/? W/SurfaceFlinger: Fail to Open /sys/devices/platform/gpusysfs/fps
93811-14 09:15:14.722 278-278/? D/SurfaceFlinger: FPS : 52.49
93911-14 09:15:14.722 278-278/? W/SurfaceFlinger: Fail to Open /sys/devices/platform/gpusysfs/fps
94011-14 09:15:14.742 278-278/? D/SurfaceFlinger: FPS : 52.49
94111-14 09:15:14.742 278-278/? W/SurfaceFlinger: Fail to Open /sys/devices/platform/gpusysfs/fps
94211-14 09:15:14.762 278-278/? D/SurfaceFlinger: FPS : 52.49
94311-14 09:15:14.762 278-278/? W/SurfaceFlinger: Fail to Open /sys/devices/platform/gpusysfs/fps
94411-14 09:15:14.762 868-4388/? D/BatteryService: !@BatteryListener : batteryPropertiesChanged!
94511-14 09:15:14.762 868-4388/? D/BatteryService: level:67, scale:100, status:2, health:2, present:true, voltage: 3871, temperature: 324, technology: Li-ion, AC powered:false, USB powered:true, Wireless powered:false, icon:17303687, invalid charger:0
94611-14 09:15:14.762 868-4388/? D/BatteryService: online:4, current avg:460, charge type:1, power sharing:false, high voltage charger:false, capacity:280000, current_now:460
94711-14 09:15:14.762 868-868/? D/BatteryService: Sending ACTION_BATTERY_CHANGED.
94811-14 09:15:14.762 868-868/? I/MotionRecognitionService: Plugged
94911-14 09:15:14.762 868-868/? I/MotionRecognitionService: setPowerConnected  = true
95011-14 09:15:14.772 1263-1263/? D/KeyguardUpdateMonitor: received broadcast android.intent.action.BATTERY_CHANGED
95111-14 09:15:14.772 1263-1263/? D/STATUSBAR-PhoneStatusBar:  mBrightnessEnablebySettings = true mBrightnessEnablebyBattery = true mBrightnessEnablebyDisableFlag = true mPmsBrightnessEnablebySettings = true
95211-14 09:15:14.772 1263-1263/? D/BatteryMeterView: ACTION_BATTERY_CHANGED : level:67 status:2 health:2
95311-14 09:15:14.772 1263-1263/? D/BatteryMeterView: ACTION_BATTERY_CHANGED : level:67 status:2 health:2
95411-14 09:15:14.772 1263-1263/? D/BatteryMeterView: ACTION_BATTERY_CHANGED : level:67 status:2 health:2
95511-14 09:15:14.772 1263-1263/? D/KeyguardUpdateMonitor: handleBatteryUpdate
95611-14 09:15:14.792 278-278/? D/SurfaceFlinger: FPS : 52.49
95711-14 09:15:14.792 278-278/? W/SurfaceFlinger: Fail to Open /sys/devices/platform/gpusysfs/fps
95811-14 09:15:14.812 278-278/? D/SurfaceFlinger: FPS : 52.49
95911-14 09:15:14.812 278-278/? W/SurfaceFlinger: Fail to Open /sys/devices/platform/gpusysfs/fps
96011-14 09:15:14.822 278-278/? D/SurfaceFlinger: FPS : 52.49
96111-14 09:15:14.822 278-278/? W/SurfaceFlinger: Fail to Open /sys/devices/platform/gpusysfs/fps
96211-14 09:15:14.842 278-278/? D/SurfaceFlinger: FPS : 52.49
96311-14 09:15:14.842 278-278/? W/SurfaceFlinger: Fail to Open /sys/devices/platform/gpusysfs/fps
96411-14 09:15:14.862 278-278/? D/SurfaceFlinger: FPS : 56.55
96511-14 09:15:14.862 278-278/? W/SurfaceFlinger: Fail to Open /sys/devices/platform/gpusysfs/fps
96611-14 09:15:14.872 278-278/? D/SurfaceFlinger: FPS : 56.55
96711-14 09:15:14.872 278-278/? W/SurfaceFlinger: Fail to Open /sys/devices/platform/gpusysfs/fps
96811-14 09:15:14.892 278-278/? D/SurfaceFlinger: FPS : 56.55
96911-14 09:15:14.892 278-278/? W/SurfaceFlinger: Fail to Open /sys/devices/platform/gpusysfs/fps
97011-14 09:15:14.912 278-278/? D/SurfaceFlinger: FPS : 56.55
97111-14 09:15:14.912 278-278/? W/SurfaceFlinger: Fail to Open /sys/devices/platform/gpusysfs/fps
97211-14 09:15:14.922 278-278/? D/SurfaceFlinger: FPS : 56.55
97311-14 09:15:14.922 278-278/? W/SurfaceFlinger: Fail to Open /sys/devices/platform/gpusysfs/fps
97411-14 09:15:14.962 278-278/? D/SurfaceFlinger: FPS : 56.55
97511-14 09:15:14.962 278-278/? W/SurfaceFlinger: Fail to Open /sys/devices/platform/gpusysfs/fps
97611-14 09:15:14.972 278-278/? D/SurfaceFlinger: FPS : 56.55
97711-14 09:15:14.972 278-278/? W/SurfaceFlinger: Fail to Open /sys/devices/platform/gpusysfs/fps
97811-14 09:15:14.992 278-278/? D/SurfaceFlinger: FPS : 56.55
97911-14 09:15:14.992 278-278/? W/SurfaceFlinger: Fail to Open /sys/devices/platform/gpusysfs/fps
98011-14 09:15:15.013 278-278/? D/SurfaceFlinger: FPS : 56.55
98111-14 09:15:15.013 278-278/? W/SurfaceFlinger: Fail to Open /sys/devices/platform/gpusysfs/fps
98211-14 09:15:15.023 278-278/? D/SurfaceFlinger: FPS : 56.55
98311-14 09:15:15.023 278-278/? W/SurfaceFlinger: Fail to Open /sys/devices/platform/gpusysfs/fps
98411-14 09:15:15.043 278-278/? D/SurfaceFlinger: FPS : 56.55
98511-14 09:15:15.043 278-278/? W/SurfaceFlinger: Fail to Open /sys/devices/platform/gpusysfs/fps
98611-14 09:15:15.063 278-278/? D/SurfaceFlinger: FPS : 56.55
98711-14 09:15:15.063 278-278/? W/SurfaceFlinger: Fail to Open /sys/devices/platform/gpusysfs/fps
98811-14 09:15:15.073 278-278/? D/SurfaceFlinger: FPS : 56.55
98911-14 09:15:15.073 278-278/? W/SurfaceFlinger: Fail to Open /sys/devices/platform/gpusysfs/fps
99011-14 09:15:15.083 868-1163/? D/InputReader: Input event: value=1
99111-14 09:15:15.083 868-1163/? I/InputReader: Touch event's action is 0x0 (deviceType=0) [pCnt=1, s=0.303 ] when=1243043943000
99211-14 09:15:15.083 868-1162/? I/InputDispatcher: Delivering touch to (1263): action: 0x4, toolType: 1
99311-14 09:15:15.083 868-1162/? I/InputDispatcher: Delivering touch to (15042): action: 0x0, toolType: 1
99411-14 09:15:15.083 15042-15042/? D/ViewRootImpl: ViewPostImeInputStage ACTION_DOWN
99511-14 09:15:15.093 278-278/? D/SurfaceFlinger: FPS : 56.55
99611-14 09:15:15.093 278-278/? W/SurfaceFlinger: Fail to Open /sys/devices/platform/gpusysfs/fps
99711-14 09:15:15.113 278-278/? D/SurfaceFlinger: FPS : 56.55
99811-14 09:15:15.113 278-278/? W/SurfaceFlinger: Fail to Open /sys/devices/platform/gpusysfs/fps
99911-14 09:15:15.123 278-278/? D/SurfaceFlinger: FPS : 56.44
100011-14 09:15:15.123 278-278/? W/SurfaceFlinger: Fail to Open /sys/devices/platform/gpusysfs/fps
100111-14 09:15:15.163 278-278/? D/SurfaceFlinger: FPS : 56.44
100211-14 09:15:15.163 278-278/? W/SurfaceFlinger: Fail to Open /sys/devices/platform/gpusysfs/fps
100311-14 09:15:15.213 868-1163/? D/InputReader: Input event: value=0
100411-14 09:15:15.213 868-1163/? I/InputReader: Touch event's action is 0x1 (deviceType=0) [pCnt=1, s=] when=1243172788000
100511-14 09:15:15.213 868-1162/? I/InputDispatcher: Delivering touch to (15042): action: 0x1, toolType: 1
100611-14 09:15:15.223 868-1192/? V/NetworkStats: performPollLocked(flags=0x1)
100711-14 09:15:15.223 868-1192/? D/NtpTrustedTime: currentTimeMillis() cache hit
100811-14 09:15:15.223 868-1192/? D/NetworkStatsFactory: UpdateStatsForKnox
100911-14 09:15:15.223 278-278/? D/SurfaceFlinger: FPS : 56.44
101011-14 09:15:15.223 278-278/? W/SurfaceFlinger: Fail to Open /sys/devices/platform/gpusysfs/fps
101111-14 09:15:15.223 868-1192/? D/ConnectivityService: returning getNetworkInfo(networkType - 28) :[type: MOBILE_ENT1[] - MOBILE_ENT1, state: DISCONNECTED/DISCONNECTED, reason: (unspecified), extra: (none), roaming: false, failover: false, isAvailable: true, isConnectedToProvisioningNetwork: false]
101211-14 09:15:15.243 278-278/? D/SurfaceFlinger: FPS : 56.44
101311-14 09:15:15.243 278-278/? W/SurfaceFlinger: Fail to Open /sys/devices/platform/gpusysfs/fps
101411-14 09:15:15.263 868-1192/? V/NetworkStats: performPollLocked() took 43ms
101511-14 09:15:15.263 868-1192/? D/NtpTrustedTime: currentTimeMillis() cache hit
101611-14 09:15:15.263 868-1193/? D/NtpTrustedTime: currentTimeMillis() cache hit
101711-14 09:15:15.263 868-1193/? D/NtpTrustedTime: currentTimeMillis() cache hit
101811-14 09:15:15.273 278-278/? D/SurfaceFlinger: FPS : 56.44
101911-14 09:15:15.273 278-278/? W/SurfaceFlinger: Fail to Open /sys/devices/platform/gpusysfs/fps
102011-14 09:15:15.293 278-278/? D/SurfaceFlinger: FPS : 56.44
102111-14 09:15:15.293 278-278/? W/SurfaceFlinger: Fail to Open /sys/devices/platform/gpusysfs/fps
102211-14 09:15:15.303 278-278/? D/SurfaceFlinger: FPS : 56.44
102311-14 09:15:15.303 278-278/? W/SurfaceFlinger: Fail to Open /sys/devices/platform/gpusysfs/fps
102411-14 09:15:15.323 278-278/? D/SurfaceFlinger: FPS : 56.44
102511-14 09:15:15.323 278-278/? W/SurfaceFlinger: Fail to Open /sys/devices/platform/gpusysfs/fps
102611-14 09:15:15.343 278-278/? D/SurfaceFlinger: FPS : 56.44
102711-14 09:15:15.343 278-278/? W/SurfaceFlinger: Fail to Open /sys/devices/platform/gpusysfs/fps
102811-14 09:15:15.353 278-278/? D/SurfaceFlinger: FPS : 56.44
102911-14 09:15:15.363 278-278/? W/SurfaceFlinger: Fail to Open /sys/devices/platform/gpusysfs/fps
103011-14 09:15:15.373 278-278/? D/SurfaceFlinger: FPS : 56.44
103111-14 09:15:15.373 278-278/? W/SurfaceFlinger: Fail to Open /sys/devices/platform/gpusysfs/fps
103211-14 09:15:15.373 24308-24308/? E/SMD: smd Interface open failed errno is 2 -1
103311-14 09:15:15.393 278-278/? D/SurfaceFlinger: FPS : 41.35
103411-14 09:15:15.393 278-278/? W/SurfaceFlinger: Fail to Open /sys/devices/platform/gpusysfs/fps
103511-14 09:15:15.423 278-278/? D/SurfaceFlinger: FPS : 41.35
103611-14 09:15:15.423 278-278/? W/SurfaceFlinger: Fail to Open /sys/devices/platform/gpusysfs/fps
103711-14 09:15:15.443 278-278/? D/SurfaceFlinger: FPS : 41.35
103811-14 09:15:15.443 278-278/? W/SurfaceFlinger: Fail to Open /sys/devices/platform/gpusysfs/fps
103911-14 09:15:15.453 278-278/? D/SurfaceFlinger: FPS : 41.35
104011-14 09:15:15.453 278-278/? W/SurfaceFlinger: Fail to Open /sys/devices/platform/gpusysfs/fps
104111-14 09:15:15.473 278-278/? D/SurfaceFlinger: FPS : 41.35
104211-14 09:15:15.473 278-278/? W/SurfaceFlinger: Fail to Open /sys/devices/platform/gpusysfs/fps
104311-14 09:15:15.493 278-278/? D/SurfaceFlinger: FPS : 41.35
104411-14 09:15:15.493 278-278/? W/SurfaceFlinger: Fail to Open /sys/devices/platform/gpusysfs/fps
104511-14 09:15:15.503 278-278/? D/SurfaceFlinger: FPS : 41.35
104611-14 09:15:15.503 278-278/? W/SurfaceFlinger: Fail to Open /sys/devices/platform/gpusysfs/fps
104711-14 09:15:15.543 278-278/? D/SurfaceFlinger: FPS : 41.35
104811-14 09:15:15.543 278-278/? W/SurfaceFlinger: Fail to Open /sys/devices/platform/gpusysfs/fps
104911-14 09:15:15.553 278-278/? D/SurfaceFlinger: FPS : 41.35
105011-14 09:15:15.553 278-278/? W/SurfaceFlinger: Fail to Open /sys/devices/platform/gpusysfs/fps
105111-14 09:15:15.603 868-1163/? D/InputReader: Input event: value=1
105211-14 09:15:15.603 868-1163/? I/InputReader: Touch event's action is 0x0 (deviceType=0) [pCnt=1, s=0.304 ] when=1243563291000
105311-14 09:15:15.603 868-1162/? I/InputDispatcher: Delivering touch to (1263): action: 0x4, toolType: 1
105411-14 09:15:15.603 868-1162/? I/InputDispatcher: Delivering touch to (15042): action: 0x0, toolType: 1
105511-14 09:15:15.603 15042-15042/? D/ViewRootImpl: ViewPostImeInputStage ACTION_DOWN
105611-14 09:15:15.603 278-278/? D/SurfaceFlinger: FPS : 41.35
105711-14 09:15:15.603 278-278/? W/SurfaceFlinger: Fail to Open /sys/devices/platform/gpusysfs/fps
105811-14 09:15:15.643 278-278/? D/SurfaceFlinger: FPS : 41.35
105911-14 09:15:15.643 278-278/? W/SurfaceFlinger: Fail to Open /sys/devices/platform/gpusysfs/fps
106011-14 09:15:15.653 278-278/? D/SurfaceFlinger: FPS : 41.35
106111-14 09:15:15.653 278-278/? W/SurfaceFlinger: Fail to Open /sys/devices/platform/gpusysfs/fps
106211-14 09:15:15.673 278-278/? D/SurfaceFlinger: FPS : 41.35
106311-14 09:15:15.673 278-278/? W/SurfaceFlinger: Fail to Open /sys/devices/platform/gpusysfs/fps
106411-14 09:15:15.683 868-1163/? D/InputReader: Input event: value=0
106511-14 09:15:15.683 868-1163/? I/InputReader: Touch event's action is 0x1 (deviceType=0) [pCnt=1, s=] when=1243648771000
106611-14 09:15:15.683 868-1162/? I/InputDispatcher: Delivering touch to (15042): action: 0x1, toolType: 1
106711-14 09:15:15.693 278-278/? D/SurfaceFlinger: FPS : 41.35
106811-14 09:15:15.693 278-278/? W/SurfaceFlinger: Fail to Open /sys/devices/platform/gpusysfs/fps
106911-14 09:15:15.703 278-278/? D/SurfaceFlinger: FPS : 41.35
107011-14 09:15:15.703 278-278/? W/SurfaceFlinger: Fail to Open /sys/devices/platform/gpusysfs/fps
107111-14 09:15:15.723 278-278/? D/SurfaceFlinger: FPS : 41.35
107211-14 09:15:15.723 278-278/? W/SurfaceFlinger: Fail to Open /sys/devices/platform/gpusysfs/fps
107311-14 09:15:15.743 278-278/? D/SurfaceFlinger: FPS : 41.35
107411-14 09:15:15.743 278-278/? W/SurfaceFlinger: Fail to Open /sys/devices/platform/gpusysfs/fps
107511-14 09:15:15.753 278-278/? D/SurfaceFlinger: FPS : 41.35
107611-14 09:15:15.753 278-278/? W/SurfaceFlinger: Fail to Open /sys/devices/platform/gpusysfs/fps
107711-14 09:15:15.773 278-278/? D/SurfaceFlinger: FPS : 41.35
107811-14 09:15:15.773 278-278/? W/SurfaceFlinger: Fail to Open /sys/devices/platform/gpusysfs/fps
107911-14 09:15:15.793 278-278/? D/SurfaceFlinger: FPS : 41.35
108011-14 09:15:15.793 278-278/? W/SurfaceFlinger: Fail to Open /sys/devices/platform/gpusysfs/fps
108111-14 09:15:15.803 278-278/? D/SurfaceFlinger: FPS : 41.35
108211-14 09:15:15.803 278-278/? W/SurfaceFlinger: Fail to Open /sys/devices/platform/gpusysfs/fps
108311-14 09:15:15.843 278-278/? D/SurfaceFlinger: FPS : 41.35
108411-14 09:15:15.843 278-278/? W/SurfaceFlinger: Fail to Open /sys/devices/platform/gpusysfs/fps
108511-14 09:15:15.853 278-278/? D/SurfaceFlinger: FPS : 41.35
108611-14 09:15:15.853 278-278/? W/SurfaceFlinger: Fail to Open /sys/devices/platform/gpusysfs/fps
108711-14 09:15:15.873 278-278/? D/SurfaceFlinger: FPS : 41.35
108811-14 09:15:15.873 278-278/? W/SurfaceFlinger: Fail to Open /sys/devices/platform/gpusysfs/fps
108911-14 09:15:15.903 278-278/? D/SurfaceFlinger: FPS : 41.35
109011-14 09:15:15.903 278-278/? W/SurfaceFlinger: Fail to Open /sys/devices/platform/gpusysfs/fps
109111-14 09:15:15.923 278-278/? D/SurfaceFlinger: FPS : 52.66
109211-14 09:15:15.923 278-278/? W/SurfaceFlinger: Fail to Open /sys/devices/platform/gpusysfs/fps
109311-14 09:15:15.953 278-278/? D/SurfaceFlinger: FPS : 52.66
109411-14 09:15:15.953 278-278/? W/SurfaceFlinger: Fail to Open /sys/devices/platform/gpusysfs/fps
109511-14 09:15:15.973 278-278/? D/SurfaceFlinger: FPS : 52.66
109611-14 09:15:15.973 278-278/? W/SurfaceFlinger: Fail to Open /sys/devices/platform/gpusysfs/fps
109711-14 09:15:16.003 278-278/? D/SurfaceFlinger: FPS : 52.66
109811-14 09:15:16.003 278-278/? W/SurfaceFlinger: Fail to Open /sys/devices/platform/gpusysfs/fps
109911-14 09:15:16.044 278-278/? D/SurfaceFlinger: FPS : 52.66
110011-14 09:15:16.044 278-278/? W/SurfaceFlinger: Fail to Open /sys/devices/platform/gpusysfs/fps
110111-14 09:15:16.054 278-278/? D/SurfaceFlinger: FPS : 52.66
110211-14 09:15:16.054 278-278/? W/SurfaceFlinger: Fail to Open /sys/devices/platform/gpusysfs/fps
110311-14 09:15:16.074 278-278/? D/SurfaceFlinger: FPS : 52.66
110411-14 09:15:16.074 278-278/? W/SurfaceFlinger: Fail to Open /sys/devices/platform/gpusysfs/fps
110511-14 09:15:16.094 868-1163/? D/InputReader: Input event: value=1
110611-14 09:15:16.094 868-1163/? I/InputReader: Touch event's action is 0x0 (deviceType=0) [pCnt=1, s=0.305 ] when=1244050290000
110711-14 09:15:16.094 868-1162/? I/InputDispatcher: Delivering touch to (1263): action: 0x4, toolType: 1
110811-14 09:15:16.094 868-1162/? I/InputDispatcher: Delivering touch to (15042): action: 0x0, toolType: 1
110911-14 09:15:16.094 15042-15042/? D/ViewRootImpl: ViewPostImeInputStage ACTION_DOWN
111011-14 09:15:16.094 278-278/? D/SurfaceFlinger: FPS : 52.66
111111-14 09:15:16.094 278-278/? W/SurfaceFlinger: Fail to Open /sys/devices/platform/gpusysfs/fps
111211-14 09:15:16.104 278-278/? D/SurfaceFlinger: FPS : 52.66
111311-14 09:15:16.104 278-278/? W/SurfaceFlinger: Fail to Open /sys/devices/platform/gpusysfs/fps
111411-14 09:15:16.124 278-278/? D/SurfaceFlinger: FPS : 52.66
111511-14 09:15:16.124 278-278/? W/SurfaceFlinger: Fail to Open /sys/devices/platform/gpusysfs/fps
111611-14 09:15:16.154 278-278/? D/SurfaceFlinger: FPS : 52.66
111711-14 09:15:16.154 278-278/? W/SurfaceFlinger: Fail to Open /sys/devices/platform/gpusysfs/fps
111811-14 09:15:16.174 278-278/? D/SurfaceFlinger: FPS : 52.66
111911-14 09:15:16.174 278-278/? W/SurfaceFlinger: Fail to Open /sys/devices/platform/gpusysfs/fps
112011-14 09:15:16.184 868-1163/? D/InputReader: Input event: value=0
112111-14 09:15:16.184 868-1163/? I/InputReader: Touch event's action is 0x1 (deviceType=0) [pCnt=1, s=] when=1244146573000
112211-14 09:15:16.184 868-1162/? I/InputDispatcher: Delivering touch to (15042): action: 0x1, toolType: 1
112311-14 09:15:16.194 278-278/? D/SurfaceFlinger: FPS : 45.08
112411-14 09:15:16.194 278-278/? W/SurfaceFlinger: Fail to Open /sys/devices/platform/gpusysfs/fps
112511-14 09:15:16.204 278-278/? D/SurfaceFlinger: FPS : 45.08
112611-14 09:15:16.204 278-278/? W/SurfaceFlinger: Fail to Open /sys/devices/platform/gpusysfs/fps
112711-14 09:15:16.224 278-278/? D/SurfaceFlinger: FPS : 45.08
112811-14 09:15:16.224 278-278/? W/SurfaceFlinger: Fail to Open /sys/devices/platform/gpusysfs/fps
112911-14 09:15:16.244 278-278/? D/SurfaceFlinger: FPS : 45.08
113011-14 09:15:16.244 278-278/? W/SurfaceFlinger: Fail to Open /sys/devices/platform/gpusysfs/fps
113111-14 09:15:16.254 278-278/? D/SurfaceFlinger: FPS : 45.08
113211-14 09:15:16.254 278-278/? W/SurfaceFlinger: Fail to Open /sys/devices/platform/gpusysfs/fps
113311-14 09:15:16.274 278-278/? D/SurfaceFlinger: FPS : 45.08
113411-14 09:15:16.274 278-278/? W/SurfaceFlinger: Fail to Open /sys/devices/platform/gpusysfs/fps
113511-14 09:15:16.294 278-278/? D/SurfaceFlinger: FPS : 45.08
113611-14 09:15:16.294 278-278/? W/SurfaceFlinger: Fail to Open /sys/devices/platform/gpusysfs/fps
113711-14 09:15:16.304 278-278/? D/SurfaceFlinger: FPS : 45.08
113811-14 09:15:16.304 278-278/? W/SurfaceFlinger: Fail to Open /sys/devices/platform/gpusysfs/fps
113911-14 09:15:16.324 278-278/? D/SurfaceFlinger: FPS : 45.08
114011-14 09:15:16.324 278-278/? W/SurfaceFlinger: Fail to Open /sys/devices/platform/gpusysfs/fps
114111-14 09:15:16.344 278-278/? D/SurfaceFlinger: FPS : 45.08
114211-14 09:15:16.344 278-278/? W/SurfaceFlinger: Fail to Open /sys/devices/platform/gpusysfs/fps
114311-14 09:15:16.354 278-278/? D/SurfaceFlinger: FPS : 45.08
114411-14 09:15:16.354 278-278/? W/SurfaceFlinger: Fail to Open /sys/devices/platform/gpusysfs/fps
114511-14 09:15:16.374 278-278/? D/SurfaceFlinger: FPS : 45.08
114611-14 09:15:16.374 278-278/? W/SurfaceFlinger: Fail to Open /sys/devices/platform/gpusysfs/fps
114711-14 09:15:16.374 24308-24308/? E/SMD: smd Interface open failed errno is 2 -1
114811-14 09:15:16.394 278-278/? D/SurfaceFlinger: FPS : 45.08
114911-14 09:15:16.394 278-278/? W/SurfaceFlinger: Fail to Open /sys/devices/platform/gpusysfs/fps
115011-14 09:15:16.404 278-278/? D/SurfaceFlinger: FPS : 45.08
115111-14 09:15:16.404 278-278/? W/SurfaceFlinger: Fail to Open /sys/devices/platform/gpusysfs/fps
115211-14 09:15:16.424 278-278/? D/SurfaceFlinger: FPS : 45.08
115311-14 09:15:16.424 278-278/? W/SurfaceFlinger: Fail to Open /sys/devices/platform/gpusysfs/fps
115411-14 09:15:16.444 278-278/? D/SurfaceFlinger: FPS : 45.08
115511-14 09:15:16.444 278-278/? W/SurfaceFlinger: Fail to Open /sys/devices/platform/gpusysfs/fps
115611-14 09:15:16.454 278-278/? D/SurfaceFlinger: FPS : 60.15
115711-14 09:15:16.454 278-278/? W/SurfaceFlinger: Fail to Open /sys/devices/platform/gpusysfs/fps
115811-14 09:15:16.474 278-278/? D/SurfaceFlinger: FPS : 60.15
115911-14 09:15:16.474 278-278/? W/SurfaceFlinger: Fail to Open /sys/devices/platform/gpusysfs/fps
116011-14 09:15:16.494 278-278/? D/SurfaceFlinger: FPS : 60.15
116111-14 09:15:16.494 278-278/? W/SurfaceFlinger: Fail to Open /sys/devices/platform/gpusysfs/fps
116211-14 09:15:16.504 278-278/? D/SurfaceFlinger: FPS : 60.15
116311-14 09:15:16.504 278-278/? W/SurfaceFlinger: Fail to Open /sys/devices/platform/gpusysfs/fps
116411-14 09:15:16.524 278-278/? D/SurfaceFlinger: FPS : 60.15
116511-14 09:15:16.524 278-278/? W/SurfaceFlinger: Fail to Open /sys/devices/platform/gpusysfs/fps
116611-14 09:15:16.544 278-278/? D/SurfaceFlinger: FPS : 60.15
116711-14 09:15:16.544 278-278/? W/SurfaceFlinger: Fail to Open /sys/devices/platform/gpusysfs/fps
116811-14 09:15:16.554 278-278/? D/SurfaceFlinger: FPS : 60.15
116911-14 09:15:16.554 278-278/? W/SurfaceFlinger: Fail to Open /sys/devices/platform/gpusysfs/fps
117011-14 09:15:16.574 278-278/? D/SurfaceFlinger: FPS : 60.15
117111-14 09:15:16.574 278-278/? W/SurfaceFlinger: Fail to Open /sys/devices/platform/gpusysfs/fps
117211-14 09:15:16.584 278-278/? D/SurfaceFlinger: FPS : 60.15
117311-14 09:15:16.594 278-278/? W/SurfaceFlinger: Fail to Open /sys/devices/platform/gpusysfs/fps
117411-14 09:15:16.604 278-278/? D/SurfaceFlinger: FPS : 60.15
117511-14 09:15:16.604 278-278/? W/SurfaceFlinger: Fail to Open /sys/devices/platform/gpusysfs/fps
117611-14 09:15:16.624 278-278/? D/SurfaceFlinger: FPS : 60.15
117711-14 09:15:16.624 278-278/? W/SurfaceFlinger: Fail to Open /sys/devices/platform/gpusysfs/fps
117811-14 09:15:16.644 278-278/? D/SurfaceFlinger: FPS : 60.15
117911-14 09:15:16.644 278-278/? W/SurfaceFlinger: Fail to Open /sys/devices/platform/gpusysfs/fps
118011-14 09:15:16.654 278-278/? D/SurfaceFlinger: FPS : 60.15
118111-14 09:15:16.654 278-278/? W/SurfaceFlinger: Fail to Open /sys/devices/platform/gpusysfs/fps
118211-14 09:15:16.674 278-278/? D/SurfaceFlinger: FPS : 60.15
118311-14 09:15:16.674 278-278/? W/SurfaceFlinger: Fail to Open /sys/devices/platform/gpusysfs/fps
118411-14 09:15:16.694 278-278/? D/SurfaceFlinger: FPS : 60.15
118511-14 09:15:16.694 278-278/? W/SurfaceFlinger: Fail to Open /sys/devices/platform/gpusysfs/fps
118611-14 09:15:16.704 278-278/? D/SurfaceFlinger: FPS : 60.15
118711-14 09:15:16.704 278-278/? W/SurfaceFlinger: Fail to Open /sys/devices/platform/gpusysfs/fps
118811-14 09:15:16.724 278-278/? D/SurfaceFlinger: FPS : 60.10
118911-14 09:15:16.724 278-278/? W/SurfaceFlinger: Fail to Open /sys/devices/platform/gpusysfs/fps
119011-14 09:15:16.744 278-278/? D/SurfaceFlinger: FPS : 60.10
119111-14 09:15:16.744 278-278/? W/SurfaceFlinger: Fail to Open /sys/devices/platform/gpusysfs/fps
119211-14 09:15:16.754 278-278/? D/SurfaceFlinger: FPS : 60.10
119311-14 09:15:16.754 278-278/? W/SurfaceFlinger: Fail to Open /sys/devices/platform/gpusysfs/fps
119411-14 09:15:16.774 278-278/? D/SurfaceFlinger: FPS : 60.10
119511-14 09:15:16.774 278-278/? W/SurfaceFlinger: Fail to Open /sys/devices/platform/gpusysfs/fps
119611-14 09:15:16.794 278-278/? D/SurfaceFlinger: FPS : 60.10
119711-14 09:15:16.794 278-278/? W/SurfaceFlinger: Fail to Open /sys/devices/platform/gpusysfs/fps
119811-14 09:15:16.804 278-278/? D/SurfaceFlinger: FPS : 60.10
119911-14 09:15:16.804 278-278/? W/SurfaceFlinger: Fail to Open /sys/devices/platform/gpusysfs/fps
120011-14 09:15:16.824 278-278/? D/SurfaceFlinger: FPS : 60.10
120111-14 09:15:16.824 278-278/? W/SurfaceFlinger: Fail to Open /sys/devices/platform/gpusysfs/fps
120211-14 09:15:16.834 278-278/? D/SurfaceFlinger: FPS : 60.10
120311-14 09:15:16.834 278-278/? W/SurfaceFlinger: Fail to Open /sys/devices/platform/gpusysfs/fps
120411-14 09:15:16.854 278-278/? D/SurfaceFlinger: FPS : 60.10
120511-14 09:15:16.854 278-278/? W/SurfaceFlinger: Fail to Open /sys/devices/platform/gpusysfs/fps
120611-14 09:15:16.874 278-278/? D/SurfaceFlinger: FPS : 60.10
120711-14 09:15:16.874 278-278/? W/SurfaceFlinger: Fail to Open /sys/devices/platform/gpusysfs/fps
120811-14 09:15:16.884 278-278/? D/SurfaceFlinger: FPS : 60.10
120911-14 09:15:16.884 278-278/? W/SurfaceFlinger: Fail to Open /sys/devices/platform/gpusysfs/fps
121011-14 09:15:16.904 278-278/? D/SurfaceFlinger: FPS : 60.10
121111-14 09:15:16.904 278-278/? W/SurfaceFlinger: Fail to Open /sys/devices/platform/gpusysfs/fps
121211-14 09:15:16.914 868-1163/? D/InputReader: Input event: value=1
121311-14 09:15:16.924 868-1163/? I/InputReader: Touch event's action is 0x0 (deviceType=0) [pCnt=1, s=0.306 ] when=1244879789000
121411-14 09:15:16.924 868-1162/? I/InputDispatcher: Delivering touch to (1263): action: 0x4, toolType: 1
121511-14 09:15:16.924 868-1162/? I/InputDispatcher: Delivering touch to (15042): action: 0x0, toolType: 1
121611-14 09:15:16.924 15042-15042/? D/ViewRootImpl: ViewPostImeInputStage ACTION_DOWN
121711-14 09:15:16.924 278-278/? D/SurfaceFlinger: FPS : 60.10
121811-14 09:15:16.924 278-278/? W/SurfaceFlinger: Fail to Open /sys/devices/platform/gpusysfs/fps
121911-14 09:15:16.934 278-278/? D/SurfaceFlinger: FPS : 60.10
122011-14 09:15:16.934 278-278/? W/SurfaceFlinger: Fail to Open /sys/devices/platform/gpusysfs/fps
122111-14 09:15:16.954 278-278/? D/SurfaceFlinger: FPS : 60.10
122211-14 09:15:16.954 278-278/? W/SurfaceFlinger: Fail to Open /sys/devices/platform/gpusysfs/fps
122311-14 09:15:16.964 868-1163/? D/InputReader: Input event: value=0
122411-14 09:15:16.964 868-1163/? I/InputReader: Touch event's action is 0x1 (deviceType=0) [pCnt=1, s=] when=1244928342000
122511-14 09:15:16.964 868-1162/? I/InputDispatcher: Delivering touch to (15042): action: 0x1, toolType: 1
122611-14 09:15:16.974 304-22409/? I/AudioPolicyManager_legacy: getAudioPolicyConfig: situation=1;device=0
122711-14 09:15:16.974 304-22409/? I/AudioPolicyManager_legacy: getSituationVolume: isBTConnected:0 isHeadConnected:0
122811-14 09:15:16.974 304-22409/? V/AudioPolicyManager_legacy: deviceInt = 0, situationInt = 1, situationVolume = 0.800000
122911-14 09:15:16.974 278-278/? D/SurfaceFlinger: FPS : 60.10
123011-14 09:15:16.974 278-278/? W/SurfaceFlinger: Fail to Open /sys/devices/platform/gpusysfs/fps
123111-14 09:15:16.974 304-763/? V/AudioPolicyManager_legacy: getOutput() device 2, stream 1, samplingRate 0, format 0, channelMask 0, flags 3
123211-14 09:15:16.974 304-763/? V/AudioPolicyManager_legacy: getOutputsForDevice device 0002 -> 0002
123311-14 09:15:16.974 304-763/? V/AudioPolicyManager_legacy: getOutput() returns output 2
123411-14 09:15:16.974 304-304/? V/AudioPolicyManager_legacy: getOutput() device 2, stream 1, samplingRate 0, format 0, channelMask 0, flags 3
123511-14 09:15:16.974 304-304/? V/AudioPolicyManager_legacy: getOutputsForDevice device 0002 -> 0002
123611-14 09:15:16.974 304-304/? V/AudioPolicyManager_legacy: getOutput() returns output 2
123711-14 09:15:16.974 15042-15042/? V/GeckoProfile: Fetching profile: '', 'null'
123811-14 09:15:16.974 304-22408/? V/AudioPolicyManager_legacy: getOutputForAttr() usage=13, content=4, tag= flags=00000000
123911-14 09:15:16.974 304-22408/? V/AudioPolicyManager_legacy: getOutputForAttr() device 2, samplingRate 48000, format 1, channelMask 1, flags 4
124011-14 09:15:16.974 304-22408/? V/AudioPolicyManager_legacy: getOutputsForDevice device 0002 -> 0002
124111-14 09:15:16.974 304-22408/? V/AudioPolicyManager_legacy: getOutput() returns output 2
124211-14 09:15:16.974 15042-15042/? D/StrictMode: StrictMode policy violation; ~duration=4 ms: android.os.StrictMode$StrictModeDiskReadViolation: policy=31 violation=2
1243                                                   at android.os.StrictMode$AndroidBlockGuardPolicy.onReadFromDisk(StrictMode.java:1137)
1244                                                   at libcore.io.BlockGuardOs.access(BlockGuardOs.java:67)
1245                                                   at java.io.File.doAccess(File.java:283)
1246                                                   at java.io.File.exists(File.java:363)
1247                                                   at org.mozilla.gecko.GeckoProfile.getGuestProfile(GeckoProfile.java:371)
1248                                                   at org.mozilla.gecko.GuestSession.shouldUse(GuestSession.java:34)
1249                                                   at org.mozilla.gecko.GeckoProfile.get(GeckoProfile.java:162)
1250                                                   at org.mozilla.gecko.Tabs.refreshThumbnails(Tabs.java:593)
1251                                                   at org.mozilla.gecko.tabs.TabsListLayout.show(TabsListLayout.java:134)
1252                                                   at org.mozilla.gecko.tabs.TabsPanel.prepareToShow(TabsPanel.java:413)
1253                                                   at org.mozilla.gecko.tabs.TabsPanel.show(TabsPanel.java:370)
1254                                                   at org.mozilla.gecko.BrowserApp.showTabs(BrowserApp.java:1965)
1255                                                   at org.mozilla.gecko.BrowserApp.showNormalTabs(BrowserApp.java:1919)
1256                                                   at org.mozilla.gecko.toolbar.BrowserToolbar.showSelectedTabs(BrowserToolbar.java:557)
1257                                                   at org.mozilla.gecko.toolbar.BrowserToolbar.access$300(BrowserToolbar.java:75)
1258                                                   at org.mozilla.gecko.toolbar.BrowserToolbar$6.onClick(BrowserToolbar.java:315)
1259                                                   at android.view.View.performClick(View.java:5197)
1260                                                   at android.view.View$PerformClick.run(View.java:20926)
1261                                                   at android.os.Handler.handleCallback(Handler.java:739)
1262                                                   at android.os.Handler.dispatchMessage(Handler.java:95)
1263                                                   at android.os.Looper.loop(Looper.java:145)
1264                                                   at android.app.ActivityThread.main(ActivityThread.java:5951)
1265                                                   at java.lang.reflect.Method.invoke(Native Method)
1266                                                   at java.lang.reflect.Method.invoke(Method.java:372)
1267                                                   at com.android.internal.os.ZygoteInit$MethodAndArgsCaller.run(ZygoteInit.java:1400)
1268                                                   at com.android.internal.os.ZygoteInit.main(ZygoteInit.java:1195)
126911-14 09:15:16.974 868-1206/? E/AudioTrack: AudioTrack::set : Exit
127011-14 09:15:16.984 304-854/? V/AudioPolicyManager_legacy: startOutput() output 2, stream 1, session 126
127111-14 09:15:16.984 304-854/? V/AudioPolicyManager_legacy: changeRefCount() stream 1, count 1
127211-14 09:15:16.984 304-854/? V/AudioPolicyManager_legacy: getNewOutputDevice() selected device 2
127311-14 09:15:16.984 304-854/? V/AudioPolicyManager_legacy: setOutputDevice() output 2 device 0002 delayMs 0
127411-14 09:15:16.984 304-854/? V/AudioPolicyManager_legacy: setOutputDevice() prevDevice 0002
127511-14 09:15:16.984 304-854/? V/AudioPolicyManager_legacy: setOutputDevice() setting same device 0002 or null device for output 2
127611-14 09:15:16.984 304-750/? D/ALSADevice: route: devices 0x2 in mode 0
127711-14 09:15:16.984 304-750/? V/ALSADevice: switchDevice: device 0x2 mode:0
127811-14 09:15:16.984 304-750/? V/ALSADevice: getUCMDevice for output device: devices:2 is input device:0
127911-14 09:15:16.984 304-750/? V/ALSADevice: getUCMDevice for input device: devices:0 is input device:1
128011-14 09:15:16.984 304-750/? D/ALSADevice: No valid input device: 0
128111-14 09:15:16.984 304-750/? V/ALSADevice: switchDevice,rxDev:Speaker, txDev:(null), curRxDev:Speaker, curTxDev:Main Mic
128211-14 09:15:16.984 304-750/? D/alsa_ucm: snd_use_case_set(): uc_mgr 0xb3c18510 identifier _enadev value Speaker
128311-14 09:15:16.984 304-750/? D/ALSADevice: switchDevice: mCurTxUCMDevivce Main Mic mCurRxDevDevice Speaker inCallDevSwitch = 0
128411-14 09:15:16.984 304-750/? V/ALSADevice: switchDevice Done
128511-14 09:15:16.984 304-750/? D/alsa_ucm: snd_use_case_set(): uc_mgr 0xb3c18510 identifier _verb value HiFi
128611-14 09:15:16.984 868-24548/? W/ContextImpl: Calling a method in the system process without a qualified user: android.app.ContextImpl.sendBroadcast:1699 com.android.server.InputMethodManagerService$6.run:2733 java.lang.Thread.run:818 <bottom of call stack> <bottom of call stack>
128711-14 09:15:16.984 304-750/? D/alsa_ucm: Set mixer controls for Speaker enable 1
128811-14 09:15:16.984 304-750/? D/alsa_ucm: acdb_id 15 cap 1 enable 1
128911-14 09:15:16.984 304-750/? D/ACDB-LOADER: ACDB -> send_audio_cal, acdb_id = 15, path =  0
129011-14 09:15:16.984 304-750/? D/ACDB-LOADER: ACDB -> send_adm_topology
129111-14 09:15:16.984 304-750/? D/ACDB-LOADER: ACDB -> ACDB_CMD_GET_AUDPROC_COMMON_TOPOLOGY_ID
129211-14 09:15:16.984 304-750/? D/ACDB-LOADER: ACDB -> send_asm_topology
129311-14 09:15:16.984 304-750/? D/ACDB-LOADER: ACDB -> ACDB_CMD_GET_AUDPROC_STREAM_TOPOLOGY_ID
129411-14 09:15:16.984 304-750/? D/ACDB-LOADER: ACDB -> send_audtable
129511-14 09:15:16.984 304-750/? D/ACDB-LOADER: ACDB -> ACDB_CMD_GET_AUDPROC_COMMON_TABLE
129611-14 09:15:16.984 304-750/? D/ACDB-LOADER: ACDB -> AUDIO_SET_AUDPROC_CAL
129711-14 09:15:16.984 304-750/? D/ACDB-LOADER: ACDB -> send_audvoltable
129811-14 09:15:16.984 304-750/? D/ACDB-LOADER: ACDB -> ACDB_CMD_GET_AUDPROC_GAIN_DEP_VOLTBL_STEP_COPP
129911-14 09:15:16.984 304-593/? V/AudioPolicyManager_legacy: releaseOutput() 2
130011-14 09:15:16.984 304-750/? E/ACDB-LOADER: Error: ACDB AudProc vol returned = -8
130111-14 09:15:16.984 304-750/? D/ACDB-LOADER: ACDB -> AUDIO_SET_AUDPROC_VOL_CAL
130211-14 09:15:16.984 304-750/? D/ACDB-LOADER: ACDB -> send_afe_cal
130311-14 09:15:16.984 304-750/? D/ACDB-LOADER: ACDB -> ACDB_CMD_GET_AFE_COMMON_TABLE
130411-14 09:15:16.984 304-750/? D/ACDB-LOADER: ACDB -> AUDIO_SET_AFE_CAL
130511-14 09:15:16.984 304-750/? D/ACDB-LOADER: ACDB -> send_hw_delay : acdb_id = 15 path = 0
130611-14 09:15:16.984 304-750/? D/ACDB-LOADER: ACDB -> ACDB_CMD_GET_DEVICE_PROPERTY_SIZE
130711-14 09:15:16.984 304-750/? D/ACDB-LOADER: ACDB -> ACDB_AVSYNC_INFO: ACDB_CMD_GET_DEVICE_PROPERTY
130811-14 09:15:16.984 304-750/? D/ACDB-LOADER: send_hw_delay id = 15 delay_num_entries = 1 result = 0
130911-14 09:15:16.984 304-750/? D/alsa_ucm: Setting mixer control: SLIM_0_RX Channels, value: Two
131011-14 09:15:16.984 304-750/? D/alsa_ucm: Setting mixer control: RX5 MIX1 INP1, value: RX1
131111-14 09:15:16.984 278-278/? D/SurfaceFlinger: FPS : 60.21
131211-14 09:15:16.984 278-278/? W/SurfaceFlinger: Fail to Open /sys/devices/platform/gpusysfs/fps
131311-14 09:15:16.984 304-750/? D/alsa_ucm: Setting mixer control: RX5 MIX1 INP2, value: RX2
131411-14 09:15:16.994 304-750/? D/alsa_ucm: Setting mixer control: RX6 DSM MUX, value: DSM_INV
131511-14 09:15:16.994 304-750/? D/alsa_ucm: Setting multi value: LINEOUT2 Volume
131611-14 09:15:16.994 304-750/? D/alsa_ucm: Setting multi value: LINEOUT4 Volume
131711-14 09:15:16.994 304-750/? D/alsa_ucm: Setting multi value: RX5 Digital Volume
131811-14 09:15:16.994 304-750/? D/alsa_ucm: Set mixer controls for HiFi enable 1
131911-14 09:15:16.994 304-750/? D/alsa_ucm: Setting mixer control: SLIMBUS_0_RX Audio Mixer MultiMedia1, value: 1
132011-14 09:15:16.994 304-750/? D/ALSADevice: close: handle 0xb3c57700 h 0x0
132111-14 09:15:16.994 304-750/? D/ALSADevice: open: handle 0xb3c57700, format 0x2
132211-14 09:15:16.994 304-750/? V/ALSADevice: Music case
132311-14 09:15:16.994 304-750/? D/ALSADevice: Device value returned is hw:0,0
132411-14 09:15:16.994 304-750/? V/ALSADevice: flags 0, devName hw:0,0
132511-14 09:15:17.004 304-750/? V/ALSADevice: pcm_open returned fd 42
132611-14 09:15:17.004 304-750/? D/ALSADevice: handle->format: 0x2
132711-14 09:15:17.004 304-750/? D/ALSADevice: setHardwareParams: reqBuffSize 2048 channels 2 sampleRate 48000
132811-14 09:15:17.004 304-750/? D/ALSADevice: setHardwareParams: buffer_size 16384, period_size 2048, period_cnt 8
132911-14 09:15:17.004 278-278/? D/SurfaceFlinger: FPS : 60.21
133011-14 09:15:17.004 278-278/? W/SurfaceFlinger: Fail to Open /sys/devices/platform/gpusysfs/fps
133111-14 09:15:17.024 278-278/? D/SurfaceFlinger: FPS : 60.21
133211-14 09:15:17.024 278-278/? W/SurfaceFlinger: Fail to Open /sys/devices/platform/gpusysfs/fps
133311-14 09:15:17.034 278-278/? D/SurfaceFlinger: FPS : 60.21
133411-14 09:15:17.034 278-278/? W/SurfaceFlinger: Fail to Open /sys/devices/platform/gpusysfs/fps
133511-14 09:15:17.055 278-278/? D/SurfaceFlinger: FPS : 60.21
133611-14 09:15:17.055 278-278/? W/SurfaceFlinger: Fail to Open /sys/devices/platform/gpusysfs/fps
133711-14 09:15:17.075 278-278/? D/SurfaceFlinger: FPS : 60.21
133811-14 09:15:17.075 278-278/? W/SurfaceFlinger: Fail to Open /sys/devices/platform/gpusysfs/fps
133911-14 09:15:17.085 278-278/? D/SurfaceFlinger: FPS : 60.21
134011-14 09:15:17.085 278-278/? W/SurfaceFlinger: Fail to Open /sys/devices/platform/gpusysfs/fps
134111-14 09:15:17.105 278-278/? D/SurfaceFlinger: FPS : 60.21
134211-14 09:15:17.105 278-278/? W/SurfaceFlinger: Fail to Open /sys/devices/platform/gpusysfs/fps
134311-14 09:15:17.125 278-278/? D/SurfaceFlinger: FPS : 60.21
134411-14 09:15:17.125 278-278/? W/SurfaceFlinger: Fail to Open /sys/devices/platform/gpusysfs/fps
134511-14 09:15:17.145 278-278/? D/SurfaceFlinger: FPS : 60.21
134611-14 09:15:17.145 278-278/? W/SurfaceFlinger: Fail to Open /sys/devices/platform/gpusysfs/fps
134711-14 09:15:17.155 278-278/? D/SurfaceFlinger: FPS : 60.21
134811-14 09:15:17.155 278-278/? W/SurfaceFlinger: Fail to Open /sys/devices/platform/gpusysfs/fps
134911-14 09:15:17.175 304-593/? V/AudioPolicyManager_legacy: stopOutput() output 2, stream 1, session 126
135011-14 09:15:17.175 304-593/? V/AudioPolicyManager_legacy: changeRefCount() stream 1, count 0
135111-14 09:15:17.175 304-593/? V/AudioPolicyManager_legacy: getNewOutputDevice() selected device 0
135211-14 09:15:17.175 304-593/? V/AudioPolicyManager_legacy: setOutputDevice() output 2 device 0000 delayMs 192
135311-14 09:15:17.175 304-593/? V/AudioPolicyManager_legacy: setOutputDevice() prevDevice 0002
135411-14 09:15:17.175 304-593/? V/AudioPolicyManager_legacy: setOutputDevice() setting same device 0000 or null device for output 2
135511-14 09:15:17.175 278-278/? D/SurfaceFlinger: FPS : 60.21
135611-14 09:15:17.175 278-278/? W/SurfaceFlinger: Fail to Open /sys/devices/platform/gpusysfs/fps
135711-14 09:15:17.185 278-278/? D/SurfaceFlinger: FPS : 60.21
135811-14 09:15:17.185 278-278/? W/SurfaceFlinger: Fail to Open /sys/devices/platform/gpusysfs/fps
135911-14 09:15:17.205 278-278/? D/SurfaceFlinger: FPS : 60.21
136011-14 09:15:17.205 278-278/? W/SurfaceFlinger: Fail to Open /sys/devices/platform/gpusysfs/fps
136111-14 09:15:17.225 278-278/? D/SurfaceFlinger: FPS : 60.21
136211-14 09:15:17.225 278-278/? W/SurfaceFlinger: Fail to Open /sys/devices/platform/gpusysfs/fps
136311-14 09:15:17.245 278-278/? D/SurfaceFlinger: FPS : 59.64
136411-14 09:15:17.245 278-278/? W/SurfaceFlinger: Fail to Open /sys/devices/platform/gpusysfs/fps
136511-14 09:15:17.255 278-278/? D/SurfaceFlinger: FPS : 59.64
136611-14 09:15:17.255 278-278/? W/SurfaceFlinger: Fail to Open /sys/devices/platform/gpusysfs/fps
136711-14 09:15:17.275 278-278/? D/SurfaceFlinger: FPS : 59.64
136811-14 09:15:17.275 278-278/? W/SurfaceFlinger: Fail to Open /sys/devices/platform/gpusysfs/fps
136911-14 09:15:17.285 278-278/? D/SurfaceFlinger: FPS : 59.64
137011-14 09:15:17.285 278-278/? W/SurfaceFlinger: Fail to Open /sys/devices/platform/gpusysfs/fps
137111-14 09:15:17.305 278-278/? D/SurfaceFlinger: FPS : 59.64
137211-14 09:15:17.305 278-278/? W/SurfaceFlinger: Fail to Open /sys/devices/platform/gpusysfs/fps
137311-14 09:15:17.325 278-278/? D/SurfaceFlinger: FPS : 59.64
137411-14 09:15:17.325 278-278/? W/SurfaceFlinger: Fail to Open /sys/devices/platform/gpusysfs/fps
137511-14 09:15:17.345 278-278/? D/SurfaceFlinger: FPS : 59.64
137611-14 09:15:17.345 278-278/? W/SurfaceFlinger: Fail to Open /sys/devices/platform/gpusysfs/fps
137711-14 09:15:17.355 278-278/? D/SurfaceFlinger: FPS : 59.64
137811-14 09:15:17.355 278-278/? W/SurfaceFlinger: Fail to Open /sys/devices/platform/gpusysfs/fps
137911-14 09:15:17.375 278-278/? D/SurfaceFlinger: FPS : 59.64
138011-14 09:15:17.375 278-278/? W/SurfaceFlinger: Fail to Open /sys/devices/platform/gpusysfs/fps
138111-14 09:15:17.375 24308-24308/? E/SMD: smd Interface open failed errno is 2 -1
138211-14 09:15:17.385 278-278/? D/SurfaceFlinger: FPS : 59.64
138311-14 09:15:17.385 278-278/? W/SurfaceFlinger: Fail to Open /sys/devices/platform/gpusysfs/fps
138411-14 09:15:17.405 278-278/? D/SurfaceFlinger: FPS : 59.64
138511-14 09:15:17.405 278-278/? W/SurfaceFlinger: Fail to Open /sys/devices/platform/gpusysfs/fps
138611-14 09:15:17.425 278-278/? D/SurfaceFlinger: FPS : 59.64
138711-14 09:15:17.425 278-278/? W/SurfaceFlinger: Fail to Open /sys/devices/platform/gpusysfs/fps
138811-14 09:15:17.435 278-278/? D/SurfaceFlinger: FPS : 59.64
138911-14 09:15:17.435 278-278/? W/SurfaceFlinger: Fail to Open /sys/devices/platform/gpusysfs/fps
139011-14 09:15:17.455 15042-15042/? D/Telemetry: StopUISession: awesomescreen.1, reason=null
139111-14 09:15:17.455 278-278/? D/SurfaceFlinger: FPS : 59.64
139211-14 09:15:17.455 278-278/? W/SurfaceFlinger: Fail to Open /sys/devices/platform/gpusysfs/fps
139311-14 09:15:17.475 278-278/? D/SurfaceFlinger: FPS : 59.64
139411-14 09:15:17.475 278-278/? W/SurfaceFlinger: Fail to Open /sys/devices/platform/gpusysfs/fps
139511-14 09:15:17.485 278-278/? D/SurfaceFlinger: FPS : 59.64
139611-14 09:15:17.485 278-278/? W/SurfaceFlinger: Fail to Open /sys/devices/platform/gpusysfs/fps
139711-14 09:15:17.505 24551-24551/? E/Diag_Lib:  Diag_LSM_Init: Failed to open handle to diag driver, error = 2
139811-14 09:15:17.575 868-1163/? D/InputReader: Input event: value=1
139911-14 09:15:17.575 868-1163/? I/InputReader: Touch event's action is 0x0 (deviceType=0) [pCnt=1, s=0.307 ] when=1245538144000
140011-14 09:15:17.575 868-1162/? I/InputDispatcher: Delivering touch to (1263): action: 0x4, toolType: 1
140111-14 09:15:17.575 868-1162/? I/InputDispatcher: Delivering touch to (15042): action: 0x0, toolType: 1
140211-14 09:15:17.575 15042-15042/? D/ViewRootImpl: ViewPostImeInputStage ACTION_DOWN
140311-14 09:15:17.605 278-278/? D/SurfaceFlinger: FPS : 44.00
140411-14 09:15:17.605 278-278/? W/SurfaceFlinger: Fail to Open /sys/devices/platform/gpusysfs/fps
140511-14 09:15:17.625 868-1163/? D/InputReader: Input event: value=0
140611-14 09:15:17.625 868-1163/? I/InputReader: Touch event's action is 0x1 (deviceType=0) [pCnt=1, s=] when=1245586637000
140711-14 09:15:17.625 868-1162/? I/InputDispatcher: Delivering touch to (15042): action: 0x1, toolType: 1
140811-14 09:15:17.625 15042-15042/? D/Telemetry: SendUIEvent: event = action.1 method = actionbar timestamp = 3436926 extras = new_tab
140911-14 09:15:17.625 304-763/? I/AudioPolicyManager_legacy: getAudioPolicyConfig: situation=1;device=0
141011-14 09:15:17.625 304-763/? I/AudioPolicyManager_legacy: getSituationVolume: isBTConnected:0 isHeadConnected:0
141111-14 09:15:17.625 304-763/? V/AudioPolicyManager_legacy: deviceInt = 0, situationInt = 1, situationVolume = 0.800000
141211-14 09:15:17.625 15042-15042/? V/GeckoProfile: Fetching profile: '', 'null'
141311-14 09:15:17.625 15042-15042/? D/GeckoTabs: Setting about: tab favicon inline.
141411-14 09:15:17.625 304-22409/? V/AudioPolicyManager_legacy: getOutput() device 2, stream 1, samplingRate 0, format 0, channelMask 0, flags 3
141511-14 09:15:17.625 304-22409/? V/AudioPolicyManager_legacy: getOutputsForDevice device 0002 -> 0002
141611-14 09:15:17.625 304-22409/? V/AudioPolicyManager_legacy: getOutput() returns output 2
141711-14 09:15:17.635 304-304/? V/AudioPolicyManager_legacy: getOutput() device 2, stream 1, samplingRate 0, format 0, channelMask 0, flags 3
141811-14 09:15:17.635 304-304/? V/AudioPolicyManager_legacy: getOutputsForDevice device 0002 -> 0002
141911-14 09:15:17.635 304-304/? V/AudioPolicyManager_legacy: getOutput() returns output 2
142011-14 09:15:17.635 15042-15042/? V/GeckoProfile: Fetching profile: '', 'null'
142111-14 09:15:17.635 304-22408/? V/AudioPolicyManager_legacy: getOutputForAttr() usage=13, content=4, tag= flags=00000000
142211-14 09:15:17.635 304-22408/? V/AudioPolicyManager_legacy: getOutputForAttr() device 2, samplingRate 48000, format 1, channelMask 1, flags 4
142311-14 09:15:17.635 304-22408/? V/AudioPolicyManager_legacy: getOutputsForDevice device 0002 -> 0002
142411-14 09:15:17.635 304-22408/? V/AudioPolicyManager_legacy: getOutput() returns output 2
142511-14 09:15:17.635 15042-15042/? D/StrictMode: StrictMode policy violation; ~duration=3 ms: android.os.StrictMode$StrictModeDiskReadViolation: policy=31 violation=2
1426                                                   at android.os.StrictMode$AndroidBlockGuardPolicy.onReadFromDisk(StrictMode.java:1137)
1427                                                   at libcore.io.BlockGuardOs.access(BlockGuardOs.java:67)
1428                                                   at java.io.File.doAccess(File.java:283)
1429                                                   at java.io.File.exists(File.java:363)
1430                                                   at org.mozilla.gecko.GeckoProfile.getGuestProfile(GeckoProfile.java:371)
1431                                                   at org.mozilla.gecko.GuestSession.shouldUse(GuestSession.java:34)
1432                                                   at org.mozilla.gecko.GeckoProfile.get(GeckoProfile.java:162)
1433                                                   at org.mozilla.gecko.Tab.<init>(Tab.java:113)
1434                                                   at org.mozilla.gecko.Tabs.addTab(Tabs.java:233)
1435                                                   at org.mozilla.gecko.Tabs.loadUrl(Tabs.java:913)
1436                                                   at org.mozilla.gecko.Tabs.loadUrl(Tabs.java:817)
1437                                                   at org.mozilla.gecko.Tabs.addTab(Tabs.java:942)
1438                                                   at org.mozilla.gecko.BrowserApp.addTab(BrowserApp.java:1909)
1439                                                   at org.mozilla.gecko.tabs.TabsPanel.access$000(TabsPanel.java:40)
1440                                                   at org.mozilla.gecko.tabs.TabsPanel$1.onClick(TabsPanel.java:133)
1441                                                   at android.view.View.performClick(View.java:5197)
1442                                                   at android.view.View$PerformClick.run(View.java:20926)
1443                                                   at android.os.Handler.handleCallback(Handler.java:739)
1444                                                   at android.os.Handler.dispatchMessage(Handler.java:95)
1445                                                   at android.os.Looper.loop(Looper.java:145)
1446                                                   at android.app.ActivityThread.main(ActivityThread.java:5951)
1447                                                   at java.lang.reflect.Method.invoke(Native Method)
1448                                                   at java.lang.reflect.Method.invoke(Method.java:372)
1449                                                   at com.android.internal.os.ZygoteInit$MethodAndArgsCaller.run(ZygoteInit.java:1400)
1450                                                   at com.android.internal.os.ZygoteInit.main(ZygoteInit.java:1195)
145111-14 09:15:17.635 15042-15042/? D/StrictMode: StrictMode policy violation; ~duration=1 ms: android.os.StrictMode$StrictModeDiskReadViolation: policy=31 violation=2
1452                                                   at android.os.StrictMode$AndroidBlockGuardPolicy.onReadFromDisk(StrictMode.java:1137)
1453                                                   at libcore.io.BlockGuardOs.access(BlockGuardOs.java:67)
1454                                                   at java.io.File.doAccess(File.java:283)
1455                                                   at java.io.File.exists(File.java:363)
1456                                                   at org.mozilla.gecko.GeckoProfile.getGuestProfile(GeckoProfile.java:371)
1457                                                   at org.mozilla.gecko.GuestSession.shouldUse(GuestSession.java:34)
1458                                                   at org.mozilla.gecko.GeckoProfile.get(GeckoProfile.java:162)
1459                                                   at org.mozilla.gecko.favicons.LoadFaviconTask.<init>(LoadFaviconTask.java:86)
1460                                                   at org.mozilla.gecko.favicons.Favicons.loadUncachedFavicon(Favicons.java:355)
1461                                                   at org.mozilla.gecko.favicons.Favicons.getSizedFavicon(Favicons.java:231)
1462                                                   at org.mozilla.gecko.Tab.loadFavicon(Tab.java:435)
1463                                                   at org.mozilla.gecko.Tabs.loadUrl(Tabs.java:935)
1464                                                   at org.mozilla.gecko.Tabs.loadUrl(Tabs.java:817)
1465                                                   at org.mozilla.gecko.Tabs.addTab(Tabs.java:942)
1466                                                   at org.mozilla.gecko.BrowserApp.addTab(BrowserApp.java:1909)
1467                                                   at org.mozilla.gecko.tabs.TabsPanel.access$000(TabsPanel.java:40)
1468                                                   at org.mozilla.gecko.tabs.TabsPanel$1.onClick(TabsPanel.java:133)
1469                                                   at android.view.View.performClick(View.java:5197)
1470                                                   at android.view.View$PerformClick.run(View.java:20926)
1471                                                   at android.os.Handler.handleCallback(Handler.java:739)
1472                                                   at android.os.Handler.dispatchMessage(Handler.java:95)
1473                                                   at android.os.Looper.loop(Looper.java:145)
1474                                                   at android.app.ActivityThread.main(ActivityThread.java:5951)
1475                                                   at java.lang.reflect.Method.invoke(Native Method)
1476                                                   at java.lang.reflect.Method.invoke(Method.java:372)
1477                                                   at com.android.internal.os.ZygoteInit$MethodAndArgsCaller.run(ZygoteInit.java:1400)
1478                                                   at com.android.internal.os.ZygoteInit.main(ZygoteInit.java:1195)
147911-14 09:15:17.635 15042-15042/? D/GeckoToolbar: onTabChanged: ADDED
148011-14 09:15:17.635 15042-15042/? D/GeckoBrowserApp: BrowserApp.onTabChanged: 16: ADDED
148111-14 09:15:17.635 15042-15042/? V/GeckoProfile: Fetching profile: '', 'null'
148211-14 09:15:17.635 15042-15042/? D/GeckoToolbar: onTabChanged: SELECTED
148311-14 09:15:17.635 868-1206/? E/AudioTrack: AudioTrack::set : Exit
148411-14 09:15:17.635 304-854/? V/AudioPolicyManager_legacy: startOutput() output 2, stream 1, session 127
148511-14 09:15:17.635 304-854/? V/AudioPolicyManager_legacy: changeRefCount() stream 1, count 1
148611-14 09:15:17.635 304-854/? V/AudioPolicyManager_legacy: getNewOutputDevice() selected device 2
148711-14 09:15:17.635 304-854/? V/AudioPolicyManager_legacy: setOutputDevice() output 2 device 0002 delayMs 0
148811-14 09:15:17.635 304-854/? V/AudioPolicyManager_legacy: setOutputDevice() prevDevice 0002
148911-14 09:15:17.635 304-854/? V/AudioPolicyManager_legacy: setOutputDevice() setting same device 0002 or null device for output 2
149011-14 09:15:17.635 15042-15042/? D/GeckoToolbarDisplayLayout: updateFavicon(null)
149111-14 09:15:17.635 304-593/? V/AudioPolicyManager_legacy: releaseOutput() 2
149211-14 09:15:17.635 15042-15042/? D/GeckoBrowserApp: BrowserApp.onTabChanged: 16: SELECTED
149311-14 09:15:17.635 15042-15042/? D/Telemetry: StartUISession: homepanel.1:4becc86b-41eb-429a-a042-88fe8b5a094e
149411-14 09:15:17.645 15042-15042/? D/StrictMode: StrictMode policy violation; ~duration=6 ms: android.os.StrictMode$StrictModeDiskReadViolation: policy=31 violation=2
1495                                                   at android.os.StrictMode$AndroidBlockGuardPolicy.onReadFromDisk(StrictMode.java:1137)
1496                                                   at libcore.io.BlockGuardOs.access(BlockGuardOs.java:67)
1497                                                   at java.io.File.doAccess(File.java:283)
1498                                                   at java.io.File.exists(File.java:363)
1499                                                   at org.mozilla.gecko.GeckoProfile.getGuestProfile(GeckoProfile.java:371)
1500                                                   at org.mozilla.gecko.GuestSession.shouldUse(GuestSession.java:34)
1501                                                   at org.mozilla.gecko.GeckoProfile.get(GeckoProfile.java:162)
1502                                                   at org.mozilla.gecko.Tabs$PersistTabsRunnable.<init>(Tabs.java:85)
1503                                                   at org.mozilla.gecko.Tabs.queuePersistAllTabs(Tabs.java:717)
1504                                                   at org.mozilla.gecko.Tabs.access$300$10cc6f07(Tabs.java:40)
1505                                                   at org.mozilla.gecko.Tabs$5.run(Tabs.java:658)
1506                                                   at android.os.Handler.handleCallback(Handler.java:739)
1507                                                   at android.os.Handler.dispatchMessage(Handler.java:95)
1508                                                   at android.os.Looper.loop(Looper.java:145)
1509                                                   at android.app.ActivityThread.main(ActivityThread.java:5951)
1510                                                   at java.lang.reflect.Method.invoke(Native Method)
1511                                                   at java.lang.reflect.Method.invoke(Method.java:372)
1512                                                   at com.android.internal.os.ZygoteInit$MethodAndArgsCaller.run(ZygoteInit.java:1400)
1513                                                   at com.android.internal.os.ZygoteInit.main(ZygoteInit.java:1195)
151411-14 09:15:17.645 15042-15042/? D/GeckoToolbar: onTabChanged: UNSELECTED
151511-14 09:15:17.645 15042-15042/? D/GeckoBrowserApp: BrowserApp.onTabChanged: 15: UNSELECTED
151611-14 09:15:17.645 15042-15042/? D/AbsListView: Get MotionRecognitionManager
151711-14 09:15:17.655 15042-15042/? D/AbsListView: Get MotionRecognitionManager
151811-14 09:15:17.655 15042-15042/? D/AbsListView: Get MotionRecognitionManager
151911-14 09:15:17.665 15042-15042/? D/AbsListView: Get MotionRecognitionManager
152011-14 09:15:17.675 278-278/? D/SurfaceFlinger: FPS : 44.00
152111-14 09:15:17.675 278-278/? W/SurfaceFlinger: Fail to Open /sys/devices/platform/gpusysfs/fps
152211-14 09:15:17.675 15042-15042/? D/AbsListView: Get MotionRecognitionManager
152311-14 09:15:17.675 15042-15042/? D/AbsListView: Get MotionRecognitionManager
152411-14 09:15:17.685 278-278/? D/SurfaceFlinger: FPS : 44.00
152511-14 09:15:17.685 278-278/? W/SurfaceFlinger: Fail to Open /sys/devices/platform/gpusysfs/fps
152611-14 09:15:17.705 15042-15042/? D/GeckoToolbar: onTabChanged: MENU_UPDATED
152711-14 09:15:17.705 15042-15042/? D/GeckoBrowserApp: BrowserApp.onTabChanged: 16: MENU_UPDATED
152811-14 09:15:17.705 15042-15042/? D/GeckoToolbar: onTabChanged: MENU_UPDATED
152911-14 09:15:17.705 15042-15042/? D/GeckoBrowserApp: BrowserApp.onTabChanged: 16: MENU_UPDATED
153011-14 09:15:17.705 278-278/? D/SurfaceFlinger: FPS : 44.00
153111-14 09:15:17.705 278-278/? W/SurfaceFlinger: Fail to Open /sys/devices/platform/gpusysfs/fps
153211-14 09:15:17.715 15042-15042/? D/GeckoToolbar: onTabChanged: FAVICON
153311-14 09:15:17.715 15042-15042/? D/GeckoToolbarDisplayLayout: updateFavicon(android.graphics.Bitmap@be3c05d)
153411-14 09:15:17.715 15042-15042/? D/GeckoBrowserApp: BrowserApp.onTabChanged: 16: FAVICON
153511-14 09:15:17.725 278-278/? D/SurfaceFlinger: FPS : 44.00
153611-14 09:15:17.725 278-278/? W/SurfaceFlinger: Fail to Open /sys/devices/platform/gpusysfs/fps
153711-14 09:15:17.725 15042-15524/? D/GeckoTabs: handleMessage: Tab:Added
153811-14 09:15:17.735 278-278/? D/SurfaceFlinger: FPS : 44.00
153911-14 09:15:17.735 278-278/? W/SurfaceFlinger: Fail to Open /sys/devices/platform/gpusysfs/fps
154011-14 09:15:17.745 15042-15524/? D/GeckoTabs: handleMessage: Content:StateChange
154111-14 09:15:17.755 278-278/? D/SurfaceFlinger: FPS : 44.00
154211-14 09:15:17.755 278-278/? W/SurfaceFlinger: Fail to Open /sys/devices/platform/gpusysfs/fps
154311-14 09:15:17.775 278-278/? D/SurfaceFlinger: FPS : 44.00
154411-14 09:15:17.775 278-278/? W/SurfaceFlinger: Fail to Open /sys/devices/platform/gpusysfs/fps
154511-14 09:15:17.785 278-278/? D/SurfaceFlinger: FPS : 44.00
154611-14 09:15:17.785 278-278/? W/SurfaceFlinger: Fail to Open /sys/devices/platform/gpusysfs/fps
154711-14 09:15:17.795 15042-15042/? D/GeckoToolbar: onTabChanged: START
154811-14 09:15:17.795 15042-15042/? D/GeckoBrowserApp: BrowserApp.onTabChanged: 16: START
154911-14 09:15:17.805 278-278/? D/SurfaceFlinger: FPS : 44.00
155011-14 09:15:17.805 278-278/? W/SurfaceFlinger: Fail to Open /sys/devices/platform/gpusysfs/fps
155111-14 09:15:17.815 15042-15626/? V/GeckoProfile: Fetching profile: '', 'null'
155211-14 09:15:17.825 278-278/? D/SurfaceFlinger: FPS : 44.00
155311-14 09:15:17.825 278-278/? W/SurfaceFlinger: Fail to Open /sys/devices/platform/gpusysfs/fps
155411-14 09:15:17.825 15042-15524/? D/GeckoTabs: handleMessage: Content:LocationChange
155511-14 09:15:17.825 15042-15524/? D/GeckoTabs: handleMessage: Content:SecurityChange
155611-14 09:15:17.835 15042-15042/? V/GeckoProfile: Fetching profile: '', 'null'
155711-14 09:15:17.835 15042-15042/? D/GeckoToolbar: onTabChanged: LOCATION_CHANGE
155811-14 09:15:17.835 15042-15042/? D/GeckoToolbarDisplayLayout: Ignoring favicon: new image is identical to previous one.
155911-14 09:15:17.835 15042-15042/? D/GeckoBrowserApp: BrowserApp.onTabChanged: 16: LOCATION_CHANGE
156011-14 09:15:17.835 15042-15042/? D/GeckoToolbar: onTabChanged: SECURITY_CHANGE
156111-14 09:15:17.835 15042-15042/? D/GeckoBrowserApp: BrowserApp.onTabChanged: 16: SECURITY_CHANGE
156211-14 09:15:17.835 278-278/? D/SurfaceFlinger: FPS : 44.00
156311-14 09:15:17.835 278-278/? W/SurfaceFlinger: Fail to Open /sys/devices/platform/gpusysfs/fps
156411-14 09:15:17.855 278-278/? D/SurfaceFlinger: FPS : 47.87
156511-14 09:15:17.855 278-278/? W/SurfaceFlinger: Fail to Open /sys/devices/platform/gpusysfs/fps
156611-14 09:15:17.875 278-278/? D/SurfaceFlinger: FPS : 47.87
156711-14 09:15:17.875 278-278/? W/SurfaceFlinger: Fail to Open /sys/devices/platform/gpusysfs/fps
156811-14 09:15:17.885 278-278/? D/SurfaceFlinger: FPS : 47.87
156911-14 09:15:17.885 278-278/? W/SurfaceFlinger: Fail to Open /sys/devices/platform/gpusysfs/fps
157011-14 09:15:17.895 304-22404/? E/OMX-VDEC-1080P: Rxd i/p EOS, Notify Driver that EOS has been reached
157111-14 09:15:17.895 304-22404/? E/OMX-VDEC-1080P: Output EOS has been reached
157211-14 09:15:17.895 304-22404/? E/OMX-VDEC-1080P: Rxd OMX_COMPONENT_GENERATE_EOS_DONE
157311-14 09:15:17.905 278-278/? D/SurfaceFlinger: FPS : 47.87
157411-14 09:15:17.905 278-278/? W/SurfaceFlinger: Fail to Open /sys/devices/platform/gpusysfs/fps
157511-14 09:15:17.915 304-593/? V/AudioPolicyManager_legacy: stopOutput() output 2, stream 1, session 127
157611-14 09:15:17.915 304-593/? V/AudioPolicyManager_legacy: changeRefCount() stream 1, count 0
157711-14 09:15:17.915 304-593/? V/AudioPolicyManager_legacy: getNewOutputDevice() selected device 0
157811-14 09:15:17.915 304-593/? V/AudioPolicyManager_legacy: setOutputDevice() output 2 device 0000 delayMs 192
157911-14 09:15:17.915 304-593/? V/AudioPolicyManager_legacy: setOutputDevice() prevDevice 0002
158011-14 09:15:17.915 304-593/? V/AudioPolicyManager_legacy: setOutputDevice() setting same device 0000 or null device for output 2
158111-14 09:15:17.925 278-278/? D/SurfaceFlinger: FPS : 47.87
158211-14 09:15:17.925 278-278/? W/SurfaceFlinger: Fail to Open /sys/devices/platform/gpusysfs/fps
158311-14 09:15:17.935 278-278/? D/SurfaceFlinger: FPS : 47.87
158411-14 09:15:17.935 278-278/? W/SurfaceFlinger: Fail to Open /sys/devices/platform/gpusysfs/fps
158511-14 09:15:17.955 278-278/? D/SurfaceFlinger: FPS : 47.87
158611-14 09:15:17.955 278-278/? W/SurfaceFlinger: Fail to Open /sys/devices/platform/gpusysfs/fps
158711-14 09:15:17.975 278-278/? D/SurfaceFlinger: FPS : 47.87
158811-14 09:15:17.975 278-278/? W/SurfaceFlinger: Fail to Open /sys/devices/platform/gpusysfs/fps
158911-14 09:15:17.975 15042-15524/? D/GeckoTabs: handleMessage: DOMTitleChanged
159011-14 09:15:17.985 15042-15524/? D/GeckoTabs: handleMessage: DOMContentLoaded
159111-14 09:15:17.985 15042-15042/? D/GeckoToolbar: onTabChanged: TITLE
159211-14 09:15:17.985 278-278/? D/SurfaceFlinger: FPS : 47.87
159311-14 09:15:17.985 278-278/? W/SurfaceFlinger: Fail to Open /sys/devices/platform/gpusysfs/fps
159411-14 09:15:17.985 15042-15042/? D/GeckoBrowserApp: BrowserApp.onTabChanged: 16: TITLE
159511-14 09:15:17.985 15042-15042/? D/GeckoToolbar: onTabChanged: LOADED
159611-14 09:15:17.985 15042-15524/? D/GeckoTabs: handleMessage: Content:PageShow
159711-14 09:15:17.985 15042-15042/? D/GeckoBrowserApp: BrowserApp.onTabChanged: 16: LOADED
159811-14 09:15:17.995 15042-15524/? D/GeckoTabs: handleMessage: Tab:ViewportMetadata
159911-14 09:15:18.005 278-278/? D/SurfaceFlinger: FPS : 47.87
160011-14 09:15:18.005 278-278/? W/SurfaceFlinger: Fail to Open /sys/devices/platform/gpusysfs/fps
160111-14 09:15:18.005 15042-15042/? D/GeckoToolbar: onTabChanged: PAGE_SHOW
160211-14 09:15:18.005 15042-15042/? D/GeckoBrowserApp: BrowserApp.onTabChanged: 16: PAGE_SHOW
160311-14 09:15:18.005 15042-15042/? D/GeckoToolbar: onTabChanged: VIEWPORT_CHANGE
160411-14 09:15:18.005 15042-15042/? D/GeckoBrowserApp: BrowserApp.onTabChanged: 16: VIEWPORT_CHANGE
160511-14 09:15:18.015 15042-15524/? D/GeckoTabs: handleMessage: Content:StateChange
160611-14 09:15:18.025 15042-15042/? D/GeckoToolbar: onTabChanged: FAVICON
160711-14 09:15:18.025 15042-15042/? D/GeckoToolbarDisplayLayout: Ignoring favicon: new image is identical to previous one.
160811-14 09:15:18.025 15042-15042/? D/GeckoBrowserApp: BrowserApp.onTabChanged: 16: FAVICON
160911-14 09:15:18.025 15042-15042/? D/GeckoToolbar: onTabChanged: STOP
161011-14 09:15:18.025 278-278/? D/SurfaceFlinger: FPS : 47.87
161111-14 09:15:18.025 278-278/? W/SurfaceFlinger: Fail to Open /sys/devices/platform/gpusysfs/fps
161211-14 09:15:18.025 15042-15042/? D/GeckoBrowserApp: BrowserApp.onTabChanged: 16: STOP
161311-14 09:15:18.035 278-278/? D/SurfaceFlinger: FPS : 47.87
161411-14 09:15:18.035 278-278/? W/SurfaceFlinger: Fail to Open /sys/devices/platform/gpusysfs/fps
161511-14 09:15:18.055 278-278/? D/SurfaceFlinger: FPS : 47.87
161611-14 09:15:18.055 278-278/? W/SurfaceFlinger: Fail to Open /sys/devices/platform/gpusysfs/fps
161711-14 09:15:18.065 304-1854/? E/OMX-VDEC-1080P: send_command: Recieved a Command from Client
161811-14 09:15:18.065 304-22404/? E/OMX-VDEC-1080P: send_command_proxy(): cmd = 1, Current State 3, Expected State -1
161911-14 09:15:18.065 304-22404/? E/OMX-VDEC-1080P: send_command_proxy(): OMX_CommandFlush issued with param1: -1
162011-14 09:15:18.065 304-1854/? E/OMX-VDEC-1080P: send_command: Command Processed
162111-14 09:15:18.065 15042-22403/? I/ACodec: [OMX.qcom.video.decoder.avc] Now Flushing
162211-14 09:15:18.065 304-22404/? E/OMX-VDEC-1080P: Driver flush i/p Port complete
162311-14 09:15:18.065 304-22404/? E/OMX-VDEC-1080P: Initiate Input Flush
162411-14 09:15:18.065 304-22404/? E/OMX-VDEC-1080P: OMX flush i/p Port complete PenBuf(0)
162511-14 09:15:18.065 304-22404/? E/OMX-VDEC-1080P: Driver flush o/p Port complete
162611-14 09:15:18.065 304-22404/? E/OMX-VDEC-1080P: Initiate Output Flush
162711-14 09:15:18.065 304-22404/? E/OMX-VDEC-1080P: Buffer queue size 6 pending buf cnt 6
162811-14 09:15:18.065 304-22404/? E/OMX-VDEC-1080P: ID(c) P1(b1d5ba30) P2(40000000)
162911-14 09:15:18.065 304-22404/? E/OMX-VDEC-1080P: Buffer queue size 5 pending buf cnt 5
163011-14 09:15:18.065 304-22404/? E/OMX-VDEC-1080P: ID(c) P1(b1d5ba80) P2(40000000)
163111-14 09:15:18.065 304-22404/? E/OMX-VDEC-1080P: Buffer queue size 4 pending buf cnt 4
163211-14 09:15:18.065 304-22404/? E/OMX-VDEC-1080P: ID(c) P1(b1d5b8f0) P2(40000000)
163311-14 09:15:18.065 304-22404/? E/OMX-VDEC-1080P: Buffer queue size 3 pending buf cnt 3
163411-14 09:15:18.065 304-22404/? E/OMX-VDEC-1080P: ID(c) P1(b1d5b940) P2(40000000)
163511-14 09:15:18.065 304-22404/? E/OMX-VDEC-1080P: Buffer queue size 2 pending buf cnt 2
163611-14 09:15:18.065 304-22404/? E/OMX-VDEC-1080P: ID(c) P1(b1d5b990) P2(40000000)
163711-14 09:15:18.065 304-22404/? E/OMX-VDEC-1080P: Buffer queue size 1 pending buf cnt 1
163811-14 09:15:18.065 304-22404/? E/OMX-VDEC-1080P: ID(c) P1(b1d5b9e0) P2(40000000)
163911-14 09:15:18.065 304-22404/? E/OMX-VDEC-1080P: OMX flush o/p Port complete PenBuf(0)
164011-14 09:15:18.065 15042-22403/? I/ACodec: [OMX.qcom.video.decoder.avc] Now Executing
164111-14 09:15:18.065 278-278/? D/SurfaceFlinger: FPS : 47.87
164211-14 09:15:18.065 278-278/? W/SurfaceFlinger: Fail to Open /sys/devices/platform/gpusysfs/fps
164311-14 09:15:18.086 304-22404/? E/OMX-VDEC-1080P: Sync frame received
164411-14 09:15:18.086 278-278/? D/SurfaceFlinger: FPS : 47.87
164511-14 09:15:18.086 278-278/? W/SurfaceFlinger: Fail to Open /sys/devices/platform/gpusysfs/fps
164611-14 09:15:18.106 278-278/? D/SurfaceFlinger: FPS : 47.87
164711-14 09:15:18.106 278-278/? W/SurfaceFlinger: Fail to Open /sys/devices/platform/gpusysfs/fps
164811-14 09:15:18.116 278-278/? D/SurfaceFlinger: FPS : 60.41
164911-14 09:15:18.116 278-278/? W/SurfaceFlinger: Fail to Open /sys/devices/platform/gpusysfs/fps
165011-14 09:15:18.376 24308-24308/? E/SMD: smd Interface open failed errno is 2 -1
165111-14 09:15:18.516 15042-15042/? D/GeckoToolbar: onTabChanged: THUMBNAIL
165211-14 09:15:18.516 15042-15042/? D/GeckoBrowserApp: BrowserApp.onTabChanged: 16: THUMBNAIL
165311-14 09:15:18.566 278-278/? D/SurfaceFlinger: FPS : 2.23
165411-14 09:15:18.566 278-278/? W/SurfaceFlinger: Fail to Open /sys/devices/platform/gpusysfs/fps
165511-14 09:15:18.606 278-278/? D/SurfaceFlinger: FPS : 2.23
165611-14 09:15:18.606 278-278/? W/SurfaceFlinger: Fail to Open /sys/devices/platform/gpusysfs/fps
165711-14 09:15:18.616 278-278/? D/SurfaceFlinger: FPS : 2.23
165811-14 09:15:18.616 278-278/? W/SurfaceFlinger: Fail to Open /sys/devices/platform/gpusysfs/fps
165911-14 09:15:18.656 278-278/? D/SurfaceFlinger: FPS : 2.23
166011-14 09:15:18.656 278-278/? W/SurfaceFlinger: Fail to Open /sys/devices/platform/gpusysfs/fps
166111-14 09:15:18.686 278-278/? D/SurfaceFlinger: FPS : 2.23
166211-14 09:15:18.686 278-278/? W/SurfaceFlinger: Fail to Open /sys/devices/platform/gpusysfs/fps
166311-14 09:15:18.706 278-278/? D/SurfaceFlinger: FPS : 2.23
166411-14 09:15:18.706 278-278/? W/SurfaceFlinger: Fail to Open /sys/devices/platform/gpusysfs/fps
166511-14 09:15:18.716 278-278/? D/SurfaceFlinger: FPS : 2.23
166611-14 09:15:18.716 278-278/? W/SurfaceFlinger: Fail to Open /sys/devices/platform/gpusysfs/fps
166711-14 09:15:18.756 278-278/? D/SurfaceFlinger: FPS : 2.23
166811-14 09:15:18.756 278-278/? W/SurfaceFlinger: Fail to Open /sys/devices/platform/gpusysfs/fps
166911-14 09:15:18.766 278-278/? D/SurfaceFlinger: FPS : 2.23
167011-14 09:15:18.766 278-278/? W/SurfaceFlinger: Fail to Open /sys/devices/platform/gpusysfs/fps
167111-14 09:15:18.806 278-278/? D/SurfaceFlinger: FPS : 2.23
167211-14 09:15:18.806 278-278/? W/SurfaceFlinger: Fail to Open /sys/devices/platform/gpusysfs/fps
167311-14 09:15:18.836 278-278/? D/SurfaceFlinger: FPS : 37.59
167411-14 09:15:18.836 278-278/? W/SurfaceFlinger: Fail to Open /sys/devices/platform/gpusysfs/fps
167511-14 09:15:18.866 278-278/? D/SurfaceFlinger: FPS : 37.59
167611-14 09:15:18.866 278-278/? W/SurfaceFlinger: Fail to Open /sys/devices/platform/gpusysfs/fps
167711-14 09:15:18.886 278-278/? D/SurfaceFlinger: FPS : 37.59
167811-14 09:15:18.886 278-278/? W/SurfaceFlinger: Fail to Open /sys/devices/platform/gpusysfs/fps
167911-14 09:15:18.916 278-278/? D/SurfaceFlinger: FPS : 37.59
168011-14 09:15:18.916 278-278/? W/SurfaceFlinger: Fail to Open /sys/devices/platform/gpusysfs/fps
168111-14 09:15:18.936 278-278/? D/SurfaceFlinger: FPS : 37.59
168211-14 09:15:18.936 278-278/? W/SurfaceFlinger: Fail to Open /sys/devices/platform/gpusysfs/fps
168311-14 09:15:18.956 278-278/? D/SurfaceFlinger: FPS : 37.59
168411-14 09:15:18.956 278-278/? W/SurfaceFlinger: Fail to Open /sys/devices/platform/gpusysfs/fps
168511-14 09:15:18.966 278-278/? D/SurfaceFlinger: FPS : 37.59
168611-14 09:15:18.966 278-278/? W/SurfaceFlinger: Fail to Open /sys/devices/platform/gpusysfs/fps
168711-14 09:15:18.986 278-278/? D/SurfaceFlinger: FPS : 37.59
168811-14 09:15:18.986 278-278/? W/SurfaceFlinger: Fail to Open /sys/devices/platform/gpusysfs/fps
168911-14 09:15:19.006 278-278/? D/SurfaceFlinger: FPS : 37.59
169011-14 09:15:19.006 278-278/? W/SurfaceFlinger: Fail to Open /sys/devices/platform/gpusysfs/fps
169111-14 09:15:19.016 278-278/? D/SurfaceFlinger: FPS : 37.59
169211-14 09:15:19.016 278-278/? W/SurfaceFlinger: Fail to Open /sys/devices/platform/gpusysfs/fps
169311-14 09:15:19.036 278-278/? D/SurfaceFlinger: FPS : 37.59
169411-14 09:15:19.036 278-278/? W/SurfaceFlinger: Fail to Open /sys/devices/platform/gpusysfs/fps
169511-14 09:15:19.056 278-278/? D/SurfaceFlinger: FPS : 37.59
169611-14 09:15:19.056 278-278/? W/SurfaceFlinger: Fail to Open /sys/devices/platform/gpusysfs/fps
169711-14 09:15:19.066 278-278/? D/SurfaceFlinger: FPS : 37.59
169811-14 09:15:19.066 278-278/? W/SurfaceFlinger: Fail to Open /sys/devices/platform/gpusysfs/fps
169911-14 09:15:19.086 278-278/? D/SurfaceFlinger: FPS : 51.63
170011-14 09:15:19.086 278-278/? W/SurfaceFlinger: Fail to Open /sys/devices/platform/gpusysfs/fps
170111-14 09:15:19.107 278-278/? D/SurfaceFlinger: FPS : 51.63
170211-14 09:15:19.107 278-278/? W/SurfaceFlinger: Fail to Open /sys/devices/platform/gpusysfs/fps
170311-14 09:15:19.117 278-278/? D/SurfaceFlinger: FPS : 51.63
170411-14 09:15:19.117 278-278/? W/SurfaceFlinger: Fail to Open /sys/devices/platform/gpusysfs/fps
170511-14 09:15:19.137 278-278/? D/SurfaceFlinger: FPS : 51.63
170611-14 09:15:19.137 278-278/? W/SurfaceFlinger: Fail to Open /sys/devices/platform/gpusysfs/fps
170711-14 09:15:19.147 278-278/? D/SurfaceFlinger: FPS : 51.63
170811-14 09:15:19.147 278-278/? W/SurfaceFlinger: Fail to Open /sys/devices/platform/gpusysfs/fps
170911-14 09:15:19.167 278-278/? D/SurfaceFlinger: FPS : 51.63
171011-14 09:15:19.167 278-278/? W/SurfaceFlinger: Fail to Open /sys/devices/platform/gpusysfs/fps
171111-14 09:15:19.187 278-278/? D/SurfaceFlinger: FPS : 51.63
171211-14 09:15:19.187 278-278/? W/SurfaceFlinger: Fail to Open /sys/devices/platform/gpusysfs/fps
171311-14 09:15:19.197 278-278/? D/SurfaceFlinger: FPS : 51.63
171411-14 09:15:19.197 278-278/? W/SurfaceFlinger: Fail to Open /sys/devices/platform/gpusysfs/fps
171511-14 09:15:19.207 278-278/? D/SurfaceFlinger: FPS : 51.63
171611-14 09:15:19.207 278-278/? W/SurfaceFlinger: Fail to Open /sys/devices/platform/gpusysfs/fps
171711-14 09:15:19.227 278-278/? D/SurfaceFlinger: FPS : 51.63
171811-14 09:15:19.227 278-278/? W/SurfaceFlinger: Fail to Open /sys/devices/platform/gpusysfs/fps
171911-14 09:15:19.257 278-278/? D/SurfaceFlinger: FPS : 51.63
172011-14 09:15:19.257 278-278/? W/SurfaceFlinger: Fail to Open /sys/devices/platform/gpusysfs/fps
172111-14 09:15:19.277 278-278/? D/SurfaceFlinger: FPS : 51.63
172211-14 09:15:19.277 278-278/? W/SurfaceFlinger: Fail to Open /sys/devices/platform/gpusysfs/fps
172311-14 09:15:19.307 278-278/? D/SurfaceFlinger: FPS : 51.63
172411-14 09:15:19.307 278-278/? W/SurfaceFlinger: Fail to Open /sys/devices/platform/gpusysfs/fps
172511-14 09:15:19.357 278-278/? D/SurfaceFlinger: FPS : 46.26
172611-14 09:15:19.357 278-278/? W/SurfaceFlinger: Fail to Open /sys/devices/platform/gpusysfs/fps
172711-14 09:15:19.367 24308-24308/? E/SMD: smd Interface open failed errno is 2 -1
172811-14 09:15:19.377 278-278/? D/SurfaceFlinger: FPS : 46.26
172911-14 09:15:19.377 278-278/? W/SurfaceFlinger: Fail to Open /sys/devices/platform/gpusysfs/fps
173011-14 09:15:19.407 278-278/? D/SurfaceFlinger: FPS : 46.26
173111-14 09:15:19.407 278-278/? W/SurfaceFlinger: Fail to Open /sys/devices/platform/gpusysfs/fps
173211-14 09:15:19.457 278-278/? D/SurfaceFlinger: FPS : 46.26
173311-14 09:15:19.457 278-278/? W/SurfaceFlinger: Fail to Open /sys/devices/platform/gpusysfs/fps
173411-14 09:15:19.477 278-278/? D/SurfaceFlinger: FPS : 46.26
173511-14 09:15:19.477 278-278/? W/SurfaceFlinger: Fail to Open /sys/devices/platform/gpusysfs/fps
173611-14 09:15:19.507 278-278/? D/SurfaceFlinger: FPS : 46.26
173711-14 09:15:19.507 278-278/? W/SurfaceFlinger: Fail to Open /sys/devices/platform/gpusysfs/fps
173811-14 09:15:19.537 278-278/? D/SurfaceFlinger: FPS : 46.26
173911-14 09:15:19.537 278-278/? W/SurfaceFlinger: Fail to Open /sys/devices/platform/gpusysfs/fps
174011-14 09:15:19.577 278-278/? D/SurfaceFlinger: FPS : 46.26
174111-14 09:15:19.577 278-278/? W/SurfaceFlinger: Fail to Open /sys/devices/platform/gpusysfs/fps
174211-14 09:15:19.607 278-278/? D/SurfaceFlinger: FPS : 46.26
174311-14 09:15:19.607 278-278/? W/SurfaceFlinger: Fail to Open /sys/devices/platform/gpusysfs/fps
174411-14 09:15:19.627 278-278/? D/SurfaceFlinger: FPS : 33.95
174511-14 09:15:19.627 278-278/? W/SurfaceFlinger: Fail to Open /sys/devices/platform/gpusysfs/fps
174611-14 09:15:19.657 278-278/? D/SurfaceFlinger: FPS : 33.95
174711-14 09:15:19.657 278-278/? W/SurfaceFlinger: Fail to Open /sys/devices/platform/gpusysfs/fps
174811-14 09:15:20.368 24308-24308/? E/SMD: smd Interface open failed errno is 2 -1
174911-14 09:15:20.468 868-3238/? D/SSRM:n: SIOP:: AP = 480, CUR = 460
175011-14 09:15:20.798 304-750/? D/ALSADevice: standby: handle 0xb3c57700 h 0x0
175111-14 09:15:20.798 304-750/? V/ALSADevice: standby handle h 0xb3c79d00
175211-14 09:15:20.968 304-750/? D/alsa_ucm: snd_use_case_set(): uc_mgr 0xb3c18510 identifier _verb value Inactive
175311-14 09:15:20.968 304-750/? D/alsa_ucm: Set mixer controls for HiFi enable 0
175411-14 09:15:20.968 304-750/? D/alsa_ucm: Setting mixer control: SLIMBUS_0_RX Audio Mixer MultiMedia1, value: 0
175511-14 09:15:20.978 304-750/? V/ALSADevice: Number of modifiers 0
175611-14 09:15:20.978 304-750/? V/ALSADevice: usecase_type is 0
175711-14 09:15:20.978 304-750/? D/alsa_ucm: snd_use_case_set(): uc_mgr 0xb3c18510 identifier _disdev value Main Mic
175811-14 09:15:20.978 304-750/? D/alsa_ucm: disdev: device Main Mic not enabled, no need to disable
175911-14 09:15:20.978 304-750/? D/alsa_ucm: snd_use_case_set(): uc_mgr 0xb3c18510 identifier _disdev value Speaker
176011-14 09:15:20.978 304-750/? D/alsa_ucm: Set mixer controls for Speaker enable 0
176111-14 09:15:20.978 304-750/? D/alsa_ucm: Setting mixer control: RX5 MIX1 INP1, value: ZERO
176211-14 09:15:20.978 304-750/? D/alsa_ucm: Setting mixer control: RX5 MIX1 INP2, value: ZERO
176311-14 09:15:20.978 304-750/? D/alsa_ucm: Setting mixer control: LINEOUT2 Volume, value: 0
176411-14 09:15:20.978 304-750/? D/alsa_ucm: Setting mixer control: LINEOUT4 Volume, value: 0
176511-14 09:15:20.988 304-750/? D/alsa_ucm: Setting mixer control: RX5 Digital Volume, value: 0
176611-14 09:15:21.369 24308-24308/? E/SMD: smd Interface open failed errno is 2 -1
176711-14 09:15:21.459 278-278/? D/SurfaceFlinger: FPS : 1.09
176811-14 09:15:21.459 278-278/? W/SurfaceFlinger: Fail to Open /sys/devices/platform/gpusysfs/fps
176911-14 09:15:22.370 24308-24308/? E/SMD: smd Interface open failed errno is 2 -1
177011-14 09:15:22.480 24586-24586/? E/Diag_Lib:  Diag_LSM_Init: Failed to open handle to diag driver, error = 2
177111-14 09:15:23.371 24308-24308/? E/SMD: smd Interface open failed errno is 2 -1
177211-14 09:15:23.911 295-848/? D/EnterpriseController: mIsMarkChainAdded is 0 mIsBlockChainAdded is 0 netId is 0
177311-14 09:15:23.911 295-848/? D/Netd: getNetworkForDns: using netid 502 for uid 10200
177411-14 09:15:24.382 24308-24308/? E/SMD: smd Interface open failed errno is 2 -1
177511-14 09:15:24.812 868-907/? D/BatteryService: !@BatteryListener : batteryPropertiesChanged!
177611-14 09:15:24.812 868-907/? D/BatteryService: level:67, scale:100, status:2, health:2, present:true, voltage: 3956, temperature: 325, technology: Li-ion, AC powered:false, USB powered:true, Wireless powered:false, icon:17303687, invalid charger:0
177711-14 09:15:24.812 868-907/? D/BatteryService: online:4, current avg:460, charge type:1, power sharing:false, high voltage charger:false, capacity:280000, current_now:460
177811-14 09:15:24.812 868-868/? D/BatteryService: Sending ACTION_BATTERY_CHANGED.
177911-14 09:15:24.822 1263-1263/? D/KeyguardUpdateMonitor: received broadcast android.intent.action.BATTERY_CHANGED
178011-14 09:15:24.822 868-868/? I/MotionRecognitionService: Plugged
178111-14 09:15:24.822 868-868/? I/MotionRecognitionService: setPowerConnected  = true
178211-14 09:15:24.832 1263-1263/? D/KeyguardUpdateMonitor: handleBatteryUpdate
178311-14 09:15:24.842 1263-1263/? D/STATUSBAR-PhoneStatusBar:  mBrightnessEnablebySettings = true mBrightnessEnablebyBattery = true mBrightnessEnablebyDisableFlag = true mPmsBrightnessEnablebySettings = true
178411-14 09:15:24.842 1263-1263/? D/BatteryMeterView: ACTION_BATTERY_CHANGED : level:67 status:2 health:2
178511-14 09:15:24.842 1263-1263/? D/BatteryMeterView: ACTION_BATTERY_CHANGED : level:67 status:2 health:2
178611-14 09:15:24.842 1263-1263/? D/BatteryMeterView: ACTION_BATTERY_CHANGED : level:67 status:2 health:2
178711-14 09:15:24.862 278-278/? D/SurfaceFlinger: FPS : 0.29
178811-14 09:15:24.862 278-278/? W/SurfaceFlinger: Fail to Open /sys/devices/platform/gpusysfs/fps
178911-14 09:15:25.132 868-1533/? D/ActivityManager: startService callerProcessName:com.google.android.gms, calleePkgName: com.google.android.gms
179011-14 09:15:25.383 24308-24308/? E/SMD: smd Interface open failed errno is 2 -1
179111-14 09:15:25.793 868-1397/? E/Watchdog: !@Sync 41
179211-14 09:15:26.073 868-1003/? W/ProcessCpuTracker: Skipping unknown process pid 24602
179311-14 09:15:26.073 868-1003/? W/ProcessCpuTracker: Skipping unknown process pid 24604
179411-14 09:15:26.083 868-1003/? W/ProcessCpuTracker: Skipping unknown process pid 24605
179511-14 09:15:26.384 24308-24308/? E/SMD: smd Interface open failed errno is 2 -1
179611-14 09:15:26.884 278-278/? D/SurfaceFlinger: FPS : 0.50
179711-14 09:15:26.884 278-278/? W/SurfaceFlinger: Fail to Open /sys/devices/platform/gpusysfs/fps
179811-14 09:15:27.385 24308-24308/? E/SMD: smd Interface open failed errno is 2 -1
179911-14 09:15:27.515 24612-24612/? E/Diag_Lib:  Diag_LSM_Init: Failed to open handle to diag driver, error = 2
180011-14 09:15:28.145 304-22404/? E/OMX-VDEC-1080P: Rxd i/p EOS, Notify Driver that EOS has been reached
180111-14 09:15:28.145 304-22404/? E/OMX-VDEC-1080P: Output EOS has been reached
180211-14 09:15:28.145 304-22404/? E/OMX-VDEC-1080P: Rxd OMX_COMPONENT_GENERATE_EOS_DONE
180311-14 09:15:28.305 304-854/? E/OMX-VDEC-1080P: send_command: Recieved a Command from Client
180411-14 09:15:28.315 304-22404/? E/OMX-VDEC-1080P: send_command_proxy(): cmd = 1, Current State 3, Expected State -1
180511-14 09:15:28.315 304-22404/? E/OMX-VDEC-1080P: send_command_proxy(): OMX_CommandFlush issued with param1: -1
180611-14 09:15:28.315 304-854/? E/OMX-VDEC-1080P: send_command: Command Processed
180711-14 09:15:28.315 15042-22403/? I/ACodec: [OMX.qcom.video.decoder.avc] Now Flushing
180811-14 09:15:28.315 304-22404/? E/OMX-VDEC-1080P: Driver flush i/p Port complete
180911-14 09:15:28.315 304-22404/? E/OMX-VDEC-1080P: Initiate Input Flush
181011-14 09:15:28.315 304-22404/? E/OMX-VDEC-1080P: OMX flush i/p Port complete PenBuf(0)
181111-14 09:15:28.325 304-22404/? E/OMX-VDEC-1080P: Driver flush o/p Port complete
181211-14 09:15:28.325 304-22404/? E/OMX-VDEC-1080P: Initiate Output Flush
181311-14 09:15:28.325 304-22404/? E/OMX-VDEC-1080P: Buffer queue size 6 pending buf cnt 6
181411-14 09:15:28.325 304-22404/? E/OMX-VDEC-1080P: ID(c) P1(b1d5b9e0) P2(40000000)
181511-14 09:15:28.325 304-22404/? E/OMX-VDEC-1080P: Buffer queue size 5 pending buf cnt 5
181611-14 09:15:28.325 304-22404/? E/OMX-VDEC-1080P: ID(c) P1(b1d5ba30) P2(40000000)
181711-14 09:15:28.336 304-22404/? E/OMX-VDEC-1080P: Buffer queue size 4 pending buf cnt 4
181811-14 09:15:28.336 304-22404/? E/OMX-VDEC-1080P: ID(c) P1(b1d5ba80) P2(40000000)
181911-14 09:15:28.336 304-22404/? E/OMX-VDEC-1080P: Buffer queue size 3 pending buf cnt 3
182011-14 09:15:28.336 304-22404/? E/OMX-VDEC-1080P: ID(c) P1(b1d5bad0) P2(40000000)
182111-14 09:15:28.336 304-22404/? E/OMX-VDEC-1080P: Buffer queue size 2 pending buf cnt 2
182211-14 09:15:28.336 304-22404/? E/OMX-VDEC-1080P: ID(c) P1(b1d5bb20) P2(40000000)
182311-14 09:15:28.346 304-22404/? E/OMX-VDEC-1080P: Buffer queue size 1 pending buf cnt 1
182411-14 09:15:28.346 304-22404/? E/OMX-VDEC-1080P: ID(c) P1(b1d5bb70) P2(40000000)
182511-14 09:15:28.346 304-22404/? E/OMX-VDEC-1080P: OMX flush o/p Port complete PenBuf(0)
182611-14 09:15:28.346 15042-22403/? I/ACodec: [OMX.qcom.video.decoder.avc] Now Executing
182711-14 09:15:28.376 304-22404/? E/OMX-VDEC-1080P: Sync frame received
182811-14 09:15:28.386 24308-24308/? E/SMD: smd Interface open failed errno is 2 -1
182911-14 09:15:29.036 868-1534/? D/ConnectivityService: returning getActiveNetworkInfo :[type: WIFI[] - WIFI, state: CONNECTED/CONNECTED, reason: (unspecified), extra: "Badger", roaming: false, failover: false, isAvailable: true, isConnectedToProvisioningNetwork: false]
183011-14 09:15:29.387 24308-24308/? E/SMD: smd Interface open failed errno is 2 -1
183111-14 09:15:30.377 24308-24308/? E/SMD: smd Interface open failed errno is 2 -1
183211-14 09:15:30.488 868-3238/? D/SSRM:n: SIOP:: AP = 460, CUR = 460
183311-14 09:15:31.378 24308-24308/? E/SMD: smd Interface open failed errno is 2 -1
183411-14 09:15:32.379 24308-24308/? E/SMD: smd Interface open failed errno is 2 -1
183511-14 09:15:32.530 24618-24618/? E/Diag_Lib:  Diag_LSM_Init: Failed to open handle to diag driver, error = 2
183611-14 09:15:33.380 24308-24308/? E/SMD: smd Interface open failed errno is 2 -1
183711-14 09:15:34.381 24308-24308/? E/SMD: smd Interface open failed errno is 2 -1
183811-14 09:15:34.852 868-1765/? D/BatteryService: !@BatteryListener : batteryPropertiesChanged!
183911-14 09:15:34.852 868-1765/? D/BatteryService: level:67, scale:100, status:2, health:2, present:true, voltage: 3947, temperature: 325, technology: Li-ion, AC powered:false, USB powered:true, Wireless powered:false, icon:17303687, invalid charger:0
184011-14 09:15:34.852 868-1765/? D/BatteryService: online:4, current avg:460, charge type:1, power sharing:false, high voltage charger:false, capacity:280000, current_now:460
184111-14 09:15:34.852 868-868/? D/BatteryService: Sending ACTION_BATTERY_CHANGED.
184211-14 09:15:34.852 1263-1263/? D/KeyguardUpdateMonitor: received broadcast android.intent.action.BATTERY_CHANGED
184311-14 09:15:34.852 1263-1263/? D/KeyguardUpdateMonitor: handleBatteryUpdate
184411-14 09:15:34.852 868-868/? I/MotionRecognitionService: Plugged
184511-14 09:15:34.862 868-868/? I/MotionRecognitionService: setPowerConnected  = true
184611-14 09:15:34.862 1263-1263/? D/STATUSBAR-PhoneStatusBar:  mBrightnessEnablebySettings = true mBrightnessEnablebyBattery = true mBrightnessEnablebyDisableFlag = true mPmsBrightnessEnablebySettings = true
184711-14 09:15:34.862 1263-1263/? D/BatteryMeterView: ACTION_BATTERY_CHANGED : level:67 status:2 health:2
184811-14 09:15:34.862 1263-1263/? D/BatteryMeterView: ACTION_BATTERY_CHANGED : level:67 status:2 health:2
184911-14 09:15:34.862 1263-1263/? D/BatteryMeterView: ACTION_BATTERY_CHANGED : level:67 status:2 health:2
185011-14 09:15:34.892 278-278/? D/SurfaceFlinger: FPS : 0.12
185111-14 09:15:34.892 278-278/? W/SurfaceFlinger: Fail to Open /sys/devices/platform/gpusysfs/fps
185211-14 09:15:35.382 24308-24308/? E/SMD: smd Interface open failed errno is 2 -1
185311-14 09:15:36.383 24308-24308/? E/SMD: smd Interface open failed errno is 2 -1
185411-14 09:15:36.904 278-278/? D/SurfaceFlinger: FPS : 0.50
185511-14 09:15:36.904 278-278/? W/SurfaceFlinger: Fail to Open /sys/devices/platform/gpusysfs/fps
185611-14 09:15:37.384 24308-24308/? E/SMD: smd Interface open failed errno is 2 -1
185711-14 09:15:37.575 24658-24658/? E/Diag_Lib:  Diag_LSM_Init: Failed to open handle to diag driver, error = 2
185811-14 09:15:38.385 24308-24308/? E/SMD: smd Interface open failed errno is 2 -1
185911-14 09:15:38.435 304-22404/? E/OMX-VDEC-1080P: Rxd i/p EOS, Notify Driver that EOS has been reached
186011-14 09:15:38.435 304-22404/? E/OMX-VDEC-1080P: Output EOS has been reached
186111-14 09:15:38.435 304-22404/? E/OMX-VDEC-1080P: Rxd OMX_COMPONENT_GENERATE_EOS_DONE
186211-14 09:15:38.596 304-304/? E/OMX-VDEC-1080P: send_command: Recieved a Command from Client
186311-14 09:15:38.596 304-22404/? E/OMX-VDEC-1080P: send_command_proxy(): cmd = 1, Current State 3, Expected State -1
186411-14 09:15:38.596 304-22404/? E/OMX-VDEC-1080P: send_command_proxy(): OMX_CommandFlush issued with param1: -1
186511-14 09:15:38.606 304-304/? E/OMX-VDEC-1080P: send_command: Command Processed
186611-14 09:15:38.606 15042-22403/? I/ACodec: [OMX.qcom.video.decoder.avc] Now Flushing
186711-14 09:15:38.606 304-22404/? E/OMX-VDEC-1080P: Driver flush i/p Port complete
186811-14 09:15:38.606 304-22404/? E/OMX-VDEC-1080P: Initiate Input Flush
186911-14 09:15:38.606 304-22404/? E/OMX-VDEC-1080P: OMX flush i/p Port complete PenBuf(0)
187011-14 09:15:38.606 304-22404/? E/OMX-VDEC-1080P: Driver flush o/p Port complete
187111-14 09:15:38.606 304-22404/? E/OMX-VDEC-1080P: Initiate Output Flush
187211-14 09:15:38.606 304-22404/? E/OMX-VDEC-1080P: Buffer queue size 6 pending buf cnt 6
187311-14 09:15:38.606 304-22404/? E/OMX-VDEC-1080P: ID(c) P1(b1d5ba80) P2(40000000)
187411-14 09:15:38.606 304-22404/? E/OMX-VDEC-1080P: Buffer queue size 5 pending buf cnt 5
187511-14 09:15:38.606 304-22404/? E/OMX-VDEC-1080P: ID(c) P1(b1d5bad0) P2(40000000)
187611-14 09:15:38.606 304-22404/? E/OMX-VDEC-1080P: Buffer queue size 4 pending buf cnt 4
187711-14 09:15:38.606 304-22404/? E/OMX-VDEC-1080P: ID(c) P1(b1d5bb20) P2(40000000)
187811-14 09:15:38.606 304-22404/? E/OMX-VDEC-1080P: Buffer queue size 3 pending buf cnt 3
187911-14 09:15:38.606 304-22404/? E/OMX-VDEC-1080P: ID(c) P1(b1d5bb70) P2(40000000)
188011-14 09:15:38.606 304-22404/? E/OMX-VDEC-1080P: Buffer queue size 2 pending buf cnt 2
188111-14 09:15:38.606 304-22404/? E/OMX-VDEC-1080P: ID(c) P1(b1d5b800) P2(40000000)
188211-14 09:15:38.606 304-22404/? E/OMX-VDEC-1080P: Buffer queue size 1 pending buf cnt 1
188311-14 09:15:38.606 304-22404/? E/OMX-VDEC-1080P: ID(c) P1(b1d5b850) P2(40000000)
188411-14 09:15:38.606 304-22404/? E/OMX-VDEC-1080P: OMX flush o/p Port complete PenBuf(0)
188511-14 09:15:38.606 15042-22403/? I/ACodec: [OMX.qcom.video.decoder.avc] Now Executing
188611-14 09:15:38.626 304-22404/? E/OMX-VDEC-1080P: Sync frame received
188711-14 09:15:39.386 24308-24308/? E/SMD: smd Interface open failed errno is 2 -1
188811-14 09:15:40.337 1263-1263/? D/StatusBar.NetworkController: refreshViews connected={ wifi } level=3 combinedSignalIconId=0x7f020517/com.android.systemui:drawable/stat_sys_wifi_signal_4 mobileLabel=Emergency calls only wifiLabel="Badger"xxxxXXXXxxxxXXXX emergencyOnly=true combinedLabel="Badger"xxxxXXXXxxxxXXXX mAirplaneMode=false mDataActivity=0 mPhoneSignalIconId=0x7f02048e/com.android.systemui:drawable/stat_sys_signal_3_auto_rotate mQSPhoneSignalIconId=0x7f02012b/com.android.systemui:drawable/ic_qs_signal_3 mDataDirectionIconId=0x0/(null) mDataSignalIconId=0x7f02048e/com.android.systemui:drawable/stat_sys_signal_3_auto_rotate mDataTypeIconId=0x0/(null) mQSDataTypeIconId=0x0/(null) mNoSimIconId=0x0/(null) mWifiIconId=0x7f020517/com.android.systemui:drawable/stat_sys_wifi_signal_4 mQSWifiIconId=0x7f020143/com.android.systemui:drawable/ic_qs_wifi_4 mWifiActivityIconId=0x7f0204e6/com.android.systemui:drawable/stat_sys_signal_in mBluetoothTetherIconId=0x10808cc/android:drawable/stat_sys_tether_bluetooth
188911-14 09:15:40.337 1263-1263/? D/STATUSBAR-WifiQuickSettingButton: onWifiSignalChanged enabled=true enabledDesc:"Badger"
189011-14 09:15:40.337 1263-1263/? D/StatusBar.NetworkController: refreshSignalCluster - setNWBoosterIndicators(false)
189111-14 09:15:40.337 1263-1263/? D/StatusBar.NetworkController: applyOpen
189211-14 09:15:40.337 1263-1263/? D/StatusBar.NetworkController: refreshSignalCluster - setNWBoosterIndicators(false)
189311-14 09:15:40.337 1263-1263/? D/StatusBar.NetworkController: applyOpen
189411-14 09:15:40.337 1263-1263/? D/StatusBar.NetworkController: refreshSignalCluster - setNWBoosterIndicators(false)
189511-14 09:15:40.337 1263-1263/? D/StatusBar.NetworkController: applyOpen
189611-14 09:15:40.337 1263-1263/? D/StatusBar.NetworkController: refreshSignalCluster - setNWBoosterIndicators(false)
189711-14 09:15:40.337 1263-1263/? D/StatusBar.NetworkController: applyOpen
189811-14 09:15:40.367 278-278/? D/SurfaceFlinger: FPS : 0.29
189911-14 09:15:40.367 278-278/? W/SurfaceFlinger: Fail to Open /sys/devices/platform/gpusysfs/fps
190011-14 09:15:40.377 24308-24308/? E/SMD: smd Interface open failed errno is 2 -1
190111-14 09:15:40.507 868-3238/? D/SSRM:n: SIOP:: AP = 450, CUR = 460
190211-14 09:15:41.348 1263-1263/? D/StatusBar.NetworkController: refreshViews connected={ wifi } level=3 combinedSignalIconId=0x7f020517/com.android.systemui:drawable/stat_sys_wifi_signal_4 mobileLabel=Emergency calls only wifiLabel="Badger"xxxxXXXXxxxxXXXX emergencyOnly=true combinedLabel="Badger"xxxxXXXXxxxxXXXX mAirplaneMode=false mDataActivity=0 mPhoneSignalIconId=0x7f02048e/com.android.systemui:drawable/stat_sys_signal_3_auto_rotate mQSPhoneSignalIconId=0x7f02012b/com.android.systemui:drawable/ic_qs_signal_3 mDataDirectionIconId=0x0/(null) mDataSignalIconId=0x7f02048e/com.android.systemui:drawable/stat_sys_signal_3_auto_rotate mDataTypeIconId=0x0/(null) mQSDataTypeIconId=0x0/(null) mNoSimIconId=0x0/(null) mWifiIconId=0x7f020517/com.android.systemui:drawable/stat_sys_wifi_signal_4 mQSWifiIconId=0x7f020143/com.android.systemui:drawable/ic_qs_wifi_4 mWifiActivityIconId=0x7f0204e8/com.android.systemui:drawable/stat_sys_signal_inout mBluetoothTetherIconId=0x10808cc/android:drawable/stat_sys_tether_bluetooth
190311-14 09:15:41.348 1263-1263/? D/STATUSBAR-WifiQuickSettingButton: onWifiSignalChanged enabled=true enabledDesc:"Badger"
190411-14 09:15:41.348 1263-1263/? D/StatusBar.NetworkController: refreshSignalCluster - setNWBoosterIndicators(false)
190511-14 09:15:41.358 1263-1263/? D/StatusBar.NetworkController: applyOpen
190611-14 09:15:41.358 1263-1263/? D/StatusBar.NetworkController: refreshSignalCluster - setNWBoosterIndicators(false)
190711-14 09:15:41.358 1263-1263/? D/StatusBar.NetworkController: applyOpen
190811-14 09:15:41.368 1263-1263/? D/StatusBar.NetworkController: refreshSignalCluster - setNWBoosterIndicators(false)
190911-14 09:15:41.368 1263-1263/? D/StatusBar.NetworkController: applyOpen
191011-14 09:15:41.368 1263-1263/? D/StatusBar.NetworkController: refreshSignalCluster - setNWBoosterIndicators(false)
191111-14 09:15:41.368 1263-1263/? D/StatusBar.NetworkController: applyOpen
191211-14 09:15:41.378 24308-24308/? E/SMD: smd Interface open failed errno is 2 -1
191311-14 09:15:41.398 278-278/? D/SurfaceFlinger: FPS : 0.97
191411-14 09:15:41.398 278-278/? W/SurfaceFlinger: Fail to Open /sys/devices/platform/gpusysfs/fps
191511-14 09:15:42.409 24686-24686/? E/Diag_Lib:  Diag_LSM_Init: Failed to open handle to diag driver, error = 2
191611-14 09:15:43.380 278-278/? D/SurfaceFlinger: FPS : 0.50
191711-14 09:15:43.380 278-278/? W/SurfaceFlinger: Fail to Open /sys/devices/platform/gpusysfs/fps
191811-14 09:15:44.371 1263-1263/? D/StatusBar.NetworkController: refreshViews connected={ wifi } level=3 combinedSignalIconId=0x7f020517/com.android.systemui:drawable/stat_sys_wifi_signal_4 mobileLabel=Emergency calls only wifiLabel="Badger"xxxxXXXXxxxxXXXX emergencyOnly=true combinedLabel="Badger"xxxxXXXXxxxxXXXX mAirplaneMode=false mDataActivity=0 mPhoneSignalIconId=0x7f02048e/com.android.systemui:drawable/stat_sys_signal_3_auto_rotate mQSPhoneSignalIconId=0x7f02012b/com.android.systemui:drawable/ic_qs_signal_3 mDataDirectionIconId=0x0/(null) mDataSignalIconId=0x7f02048e/com.android.systemui:drawable/stat_sys_signal_3_auto_rotate mDataTypeIconId=0x0/(null) mQSDataTypeIconId=0x0/(null) mNoSimIconId=0x0/(null) mWifiIconId=0x7f020517/com.android.systemui:drawable/stat_sys_wifi_signal_4 mQSWifiIconId=0x7f020143/com.android.systemui:drawable/ic_qs_wifi_4 mWifiActivityIconId=0x7f0204e6/com.android.systemui:drawable/stat_sys_signal_in mBluetoothTetherIconId=0x10808cc/android:drawable/stat_sys_tether_bluetooth
191911-14 09:15:44.371 1263-1263/? D/STATUSBAR-WifiQuickSettingButton: onWifiSignalChanged enabled=true enabledDesc:"Badger"
192011-14 09:15:44.371 1263-1263/? D/StatusBar.NetworkController: refreshSignalCluster - setNWBoosterIndicators(false)
192111-14 09:15:44.381 1263-1263/? D/StatusBar.NetworkController: applyOpen
192211-14 09:15:44.381 1263-1263/? D/StatusBar.NetworkController: refreshSignalCluster - setNWBoosterIndicators(false)
192311-14 09:15:44.391 1263-1263/? D/StatusBar.NetworkController: applyOpen
192411-14 09:15:44.391 1263-1263/? D/StatusBar.NetworkController: refreshSignalCluster - setNWBoosterIndicators(false)
192511-14 09:15:44.391 1263-1263/? D/StatusBar.NetworkController: applyOpen
192611-14 09:15:44.391 1263-1263/? D/StatusBar.NetworkController: refreshSignalCluster - setNWBoosterIndicators(false)
192711-14 09:15:44.401 1263-1263/? D/StatusBar.NetworkController: applyOpen
192811-14 09:15:44.411 278-278/? D/SurfaceFlinger: FPS : 0.97
192911-14 09:15:44.411 278-278/? W/SurfaceFlinger: Fail to Open /sys/devices/platform/gpusysfs/fps
193011-14 09:15:44.892 868-1190/? D/BatteryService: !@BatteryListener : batteryPropertiesChanged!
193111-14 09:15:44.892 868-1190/? D/BatteryService: level:67, scale:100, status:2, health:2, present:true, voltage: 3958, temperature: 326, technology: Li-ion, AC powered:false, USB powered:true, Wireless powered:false, icon:17303687, invalid charger:0
193211-14 09:15:44.892 868-1190/? D/BatteryService: online:4, current avg:460, charge type:1, power sharing:false, high voltage charger:false, capacity:280000, current_now:460
193311-14 09:15:44.892 868-868/? D/BatteryService: Sending ACTION_BATTERY_CHANGED.
193411-14 09:15:44.902 868-868/? I/MotionRecognitionService: Plugged
193511-14 09:15:44.902 868-868/? I/MotionRecognitionService: setPowerConnected  = true
193611-14 09:15:44.902 1263-1263/? D/KeyguardUpdateMonitor: received broadcast android.intent.action.BATTERY_CHANGED
193711-14 09:15:44.912 1263-1263/? D/STATUSBAR-PhoneStatusBar:  mBrightnessEnablebySettings = true mBrightnessEnablebyBattery = true mBrightnessEnablebyDisableFlag = true mPmsBrightnessEnablebySettings = true
193811-14 09:15:44.912 1263-1263/? D/KeyguardUpdateMonitor: handleBatteryUpdate
193911-14 09:15:44.912 1263-1263/? D/BatteryMeterView: ACTION_BATTERY_CHANGED : level:67 status:2 health:2
194011-14 09:15:44.912 1263-1263/? D/BatteryMeterView: ACTION_BATTERY_CHANGED : level:67 status:2 health:2
194111-14 09:15:44.932 1263-1263/? D/BatteryMeterView: ACTION_BATTERY_CHANGED : level:67 status:2 health:2
194211-14 09:15:44.942 278-278/? D/SurfaceFlinger: FPS : 1.88
194311-14 09:15:44.942 278-278/? W/SurfaceFlinger: Fail to Open /sys/devices/platform/gpusysfs/fps
194411-14 09:15:45.172 868-1764/? D/ActivityManager: startService callerProcessName:com.google.android.gms, calleePkgName: com.google.android.gms
194511-14 09:15:45.382 1263-1263/? D/StatusBar.NetworkController: refreshViews connected={ wifi } level=3 combinedSignalIconId=0x7f020517/com.android.systemui:drawable/stat_sys_wifi_signal_4 mobileLabel=Emergency calls only wifiLabel="Badger"xxxxXXXXxxxxXXXX emergencyOnly=true combinedLabel="Badger"xxxxXXXXxxxxXXXX mAirplaneMode=false mDataActivity=0 mPhoneSignalIconId=0x7f02048e/com.android.systemui:drawable/stat_sys_signal_3_auto_rotate mQSPhoneSignalIconId=0x7f02012b/com.android.systemui:drawable/ic_qs_signal_3 mDataDirectionIconId=0x0/(null) mDataSignalIconId=0x7f02048e/com.android.systemui:drawable/stat_sys_signal_3_auto_rotate mDataTypeIconId=0x0/(null) mQSDataTypeIconId=0x0/(null) mNoSimIconId=0x0/(null) mWifiIconId=0x7f020517/com.android.systemui:drawable/stat_sys_wifi_signal_4 mQSWifiIconId=0x7f020143/com.android.systemui:drawable/ic_qs_wifi_4 mWifiActivityIconId=0x7f0204e8/com.android.systemui:drawable/stat_sys_signal_inout mBluetoothTetherIconId=0x10808cc/android:drawable/stat_sys_tether_bluetooth
194611-14 09:15:45.382 1263-1263/? D/STATUSBAR-WifiQuickSettingButton: onWifiSignalChanged enabled=true enabledDesc:"Badger"
194711-14 09:15:45.382 1263-1263/? D/StatusBar.NetworkController: refreshSignalCluster - setNWBoosterIndicators(false)
194811-14 09:15:45.382 1263-1263/? D/StatusBar.NetworkController: applyOpen
194911-14 09:15:45.392 1263-1263/? D/StatusBar.NetworkController: refreshSignalCluster - setNWBoosterIndicators(false)
195011-14 09:15:45.392 1263-1263/? D/StatusBar.NetworkController: applyOpen
195111-14 09:15:45.392 1263-1263/? D/StatusBar.NetworkController: refreshSignalCluster - setNWBoosterIndicators(false)
195211-14 09:15:45.392 1263-1263/? D/StatusBar.NetworkController: applyOpen
195311-14 09:15:45.402 1263-1263/? D/StatusBar.NetworkController: refreshSignalCluster - setNWBoosterIndicators(false)
195411-14 09:15:45.402 1263-1263/? D/StatusBar.NetworkController: applyOpen
195511-14 09:15:45.412 278-278/? D/SurfaceFlinger: FPS : 2.14
195611-14 09:15:45.412 278-278/? W/SurfaceFlinger: Fail to Open /sys/devices/platform/gpusysfs/fps
195711-14 09:15:46.393 1263-1263/? D/StatusBar.NetworkController: refreshViews connected={ wifi } level=3 combinedSignalIconId=0x7f020517/com.android.systemui:drawable/stat_sys_wifi_signal_4 mobileLabel=Emergency calls only wifiLabel="Badger"xxxxXXXXxxxxXXXX emergencyOnly=true combinedLabel="Badger"xxxxXXXXxxxxXXXX mAirplaneMode=false mDataActivity=0 mPhoneSignalIconId=0x7f02048e/com.android.systemui:drawable/stat_sys_signal_3_auto_rotate mQSPhoneSignalIconId=0x7f02012b/com.android.systemui:drawable/ic_qs_signal_3 mDataDirectionIconId=0x0/(null) mDataSignalIconId=0x7f02048e/com.android.systemui:drawable/stat_sys_signal_3_auto_rotate mDataTypeIconId=0x0/(null) mQSDataTypeIconId=0x0/(null) mNoSimIconId=0x0/(null) mWifiIconId=0x7f020517/com.android.systemui:drawable/stat_sys_wifi_signal_4 mQSWifiIconId=0x7f020143/com.android.systemui:drawable/ic_qs_wifi_4 mWifiActivityIconId=0x7f0204e6/com.android.systemui:drawable/stat_sys_signal_in mBluetoothTetherIconId=0x10808cc/android:drawable/stat_sys_tether_bluetooth
195811-14 09:15:46.393 1263-1263/? D/STATUSBAR-WifiQuickSettingButton: onWifiSignalChanged enabled=true enabledDesc:"Badger"
195911-14 09:15:46.393 1263-1263/? D/StatusBar.NetworkController: refreshSignalCluster - setNWBoosterIndicators(false)
196011-14 09:15:46.393 1263-1263/? D/StatusBar.NetworkController: applyOpen
196111-14 09:15:46.403 1263-1263/? D/StatusBar.NetworkController: refreshSignalCluster - setNWBoosterIndicators(false)
196211-14 09:15:46.403 1263-1263/? D/StatusBar.NetworkController: applyOpen
196311-14 09:15:46.403 1263-1263/? D/StatusBar.NetworkController: refreshSignalCluster - setNWBoosterIndicators(false)
196411-14 09:15:46.413 1263-1263/? D/StatusBar.NetworkController: applyOpen
196511-14 09:15:46.423 1263-1263/? D/StatusBar.NetworkController: refreshSignalCluster - setNWBoosterIndicators(false)
196611-14 09:15:46.423 1263-1263/? D/StatusBar.NetworkController: applyOpen
196711-14 09:15:46.433 278-278/? D/SurfaceFlinger: FPS : 0.98
196811-14 09:15:46.433 278-278/? W/SurfaceFlinger: Fail to Open /sys/devices/platform/gpusysfs/fps
196911-14 09:15:46.463 278-278/? D/SurfaceFlinger: FPS : 0.98
197011-14 09:15:46.463 278-278/? W/SurfaceFlinger: Fail to Open /sys/devices/platform/gpusysfs/fps
197111-14 09:15:47.394 1263-1263/? D/StatusBar.NetworkController: refreshViews connected={ wifi } level=3 combinedSignalIconId=0x7f020517/com.android.systemui:drawable/stat_sys_wifi_signal_4 mobileLabel=Emergency calls only wifiLabel="Badger"xxxxXXXXxxxxXXXX emergencyOnly=true combinedLabel="Badger"xxxxXXXXxxxxXXXX mAirplaneMode=false mDataActivity=0 mPhoneSignalIconId=0x7f02048e/com.android.systemui:drawable/stat_sys_signal_3_auto_rotate mQSPhoneSignalIconId=0x7f02012b/com.android.systemui:drawable/ic_qs_signal_3 mDataDirectionIconId=0x0/(null) mDataSignalIconId=0x7f02048e/com.android.systemui:drawable/stat_sys_signal_3_auto_rotate mDataTypeIconId=0x0/(null) mQSDataTypeIconId=0x0/(null) mNoSimIconId=0x0/(null) mWifiIconId=0x7f020517/com.android.systemui:drawable/stat_sys_wifi_signal_4 mQSWifiIconId=0x7f020143/com.android.systemui:drawable/ic_qs_wifi_4 mWifiActivityIconId=0x7f0204e8/com.android.systemui:drawable/stat_sys_signal_inout mBluetoothTetherIconId=0x10808cc/android:drawable/stat_sys_tether_bluetooth
197211-14 09:15:47.404 1263-1263/? D/STATUSBAR-WifiQuickSettingButton: onWifiSignalChanged enabled=true enabledDesc:"Badger"
197311-14 09:15:47.404 1263-1263/? D/StatusBar.NetworkController: refreshSignalCluster - setNWBoosterIndicators(false)
197411-14 09:15:47.404 1263-1263/? D/StatusBar.NetworkController: applyOpen
197511-14 09:15:47.414 1263-1263/? D/StatusBar.NetworkController: refreshSignalCluster - setNWBoosterIndicators(false)
197611-14 09:15:47.414 1263-1263/? D/StatusBar.NetworkController: applyOpen
197711-14 09:15:47.414 1263-1263/? D/StatusBar.NetworkController: refreshSignalCluster - setNWBoosterIndicators(false)
197811-14 09:15:47.414 1263-1263/? D/StatusBar.NetworkController: applyOpen
197911-14 09:15:47.424 1263-1263/? D/StatusBar.NetworkController: refreshSignalCluster - setNWBoosterIndicators(false)
198011-14 09:15:47.434 1263-1263/? D/StatusBar.NetworkController: applyOpen
198111-14 09:15:47.454 278-278/? D/SurfaceFlinger: FPS : 1.96
198211-14 09:15:47.464 24698-24698/? E/Diag_Lib:  Diag_LSM_Init: Failed to open handle to diag driver, error = 2
198311-14 09:15:47.464 278-278/? W/SurfaceFlinger: Fail to Open /sys/devices/platform/gpusysfs/fps
198411-14 09:15:48.195 6778-6815/? I/PlayCommon: [1076] com.google.android.play.a.g.e(862): Preparing logs for uploading
198511-14 09:15:48.195 868-1767/? D/ConnectivityService: returning getActiveNetworkInfo :[type: WIFI[] - WIFI, state: CONNECTED/CONNECTED, reason: (unspecified), extra: "Badger", roaming: false, failover: false, isAvailable: true, isConnectedToProvisioningNetwork: false]
198611-14 09:15:48.205 868-906/? D/ActivityManager: bindService callerProcessName:android, calleePkgName: com.google.android.gms, action: android.accounts.AccountAuthenticator
198711-14 09:15:48.225 2023-2023/? I/Auth: [AuthDelegateWrapper] Service intent: Intent { cmp=com.google.android.gms/.auth.account.authenticator.DefaultAuthDelegateService }.
198811-14 09:15:48.225 868-4388/? D/ActivityManager: bindService callerProcessName:com.google.android.gms, calleePkgName: com.google.android.gms, action: null
198911-14 09:15:48.235 2023-2023/? I/Auth: [AuthDelegateWrapper] Service intent: Intent { cmp=com.google.android.gms/.auth.account.authenticator.DefaultAuthDelegateService }.
199011-14 09:15:48.235 2023-2023/? I/Auth: [AuthDelegateWrapper] Service intent: Intent { cmp=com.google.android.gms/.auth.account.authenticator.DefaultAuthDelegateService }.
199111-14 09:15:48.295 6778-6815/? I/PlayCommon: [1076] com.google.android.play.a.g.a(1002): Connecting to server: https://play.googleapis.com/play/log?format=raw&proto_v2=true
199211-14 09:15:48.295 6778-6815/? I/System.out: (HTTPLog)-Static: isSBSettingEnabled false
199311-14 09:15:48.305 295-848/? D/EnterpriseController: mIsMarkChainAdded is 0 mIsBlockChainAdded is 0 netId is 0
199411-14 09:15:48.305 295-848/? D/Netd: getNetworkForDns: using netid 502 for uid 10026
199511-14 09:15:48.315 6778-6815/? I/System.out: KnoxVpnUidStorageknoxVpnSupported API value returned is false
199611-14 09:15:48.475 278-278/? D/SurfaceFlinger: FPS : 0.98
199711-14 09:15:48.475 278-278/? W/SurfaceFlinger: Fail to Open /sys/devices/platform/gpusysfs/fps
199811-14 09:15:48.535 6778-6815/? I/PlayCommon: [1076] com.google.android.play.a.g.a(1077): Successfully uploaded logs.
199911-14 09:15:48.695 304-22404/? E/OMX-VDEC-1080P: Rxd i/p EOS, Notify Driver that EOS has been reached
200011-14 09:15:48.695 304-22404/? E/OMX-VDEC-1080P: Output EOS has been reached
200111-14 09:15:48.695 304-22404/? E/OMX-VDEC-1080P: Rxd OMX_COMPONENT_GENERATE_EOS_DONE
200211-14 09:15:48.866 304-854/? E/OMX-VDEC-1080P: send_command: Recieved a Command from Client
200311-14 09:15:48.866 304-22404/? E/OMX-VDEC-1080P: send_command_proxy(): cmd = 1, Current State 3, Expected State -1
200411-14 09:15:48.866 304-22404/? E/OMX-VDEC-1080P: send_command_proxy(): OMX_CommandFlush issued with param1: -1
200511-14 09:15:48.866 304-854/? E/OMX-VDEC-1080P: send_command: Command Processed
200611-14 09:15:48.866 15042-22403/? I/ACodec: [OMX.qcom.video.decoder.avc] Now Flushing
200711-14 09:15:48.876 304-22404/? E/OMX-VDEC-1080P: Driver flush i/p Port complete
200811-14 09:15:48.876 304-22404/? E/OMX-VDEC-1080P: Initiate Input Flush
200911-14 09:15:48.876 304-22404/? E/OMX-VDEC-1080P: OMX flush i/p Port complete PenBuf(0)
201011-14 09:15:48.876 304-22404/? E/OMX-VDEC-1080P: Driver flush o/p Port complete
201111-14 09:15:48.876 304-22404/? E/OMX-VDEC-1080P: Initiate Output Flush
201211-14 09:15:48.876 304-22404/? E/OMX-VDEC-1080P: OMX flush o/p Port complete PenBuf(0)
201311-14 09:15:48.886 15042-22403/? I/ACodec: [OMX.qcom.video.decoder.avc] Now Executing
201411-14 09:15:48.916 304-22404/? E/OMX-VDEC-1080P: Sync frame received
201511-14 09:15:50.527 868-3238/? D/SSRM:n: SIOP:: AP = 450, CUR = 460
201611-14 09:15:51.448 24680-24680/? E/SMD: smd_init start
201711-14 09:15:51.448 24680-24680/? E/SMD: smd Interface open failed errno is 2 -1
201811-14 09:15:52.439 24680-24680/? E/SMD: smd Interface open failed errno is 2 -1
201911-14 09:15:52.569 24750-24750/? E/Diag_Lib:  Diag_LSM_Init: Failed to open handle to diag driver, error = 2
202011-14 09:15:53.420 1263-1263/? D/StatusBar.NetworkController: refreshViews connected={ wifi } level=3 combinedSignalIconId=0x7f020517/com.android.systemui:drawable/stat_sys_wifi_signal_4 mobileLabel=Emergency calls only wifiLabel="Badger"xxxxXXXXxxxxXXXX emergencyOnly=true combinedLabel="Badger"xxxxXXXXxxxxXXXX mAirplaneMode=false mDataActivity=0 mPhoneSignalIconId=0x7f02048e/com.android.systemui:drawable/stat_sys_signal_3_auto_rotate mQSPhoneSignalIconId=0x7f02012b/com.android.systemui:drawable/ic_qs_signal_3 mDataDirectionIconId=0x0/(null) mDataSignalIconId=0x7f02048e/com.android.systemui:drawable/stat_sys_signal_3_auto_rotate mDataTypeIconId=0x0/(null) mQSDataTypeIconId=0x0/(null) mNoSimIconId=0x0/(null) mWifiIconId=0x7f020517/com.android.systemui:drawable/stat_sys_wifi_signal_4 mQSWifiIconId=0x7f020143/com.android.systemui:drawable/ic_qs_wifi_4 mWifiActivityIconId=0x7f0204e6/com.android.systemui:drawable/stat_sys_signal_in mBluetoothTetherIconId=0x10808cc/android:drawable/stat_sys_tether_bluetooth
202111-14 09:15:53.420 1263-1263/? D/STATUSBAR-WifiQuickSettingButton: onWifiSignalChanged enabled=true enabledDesc:"Badger"
202211-14 09:15:53.420 1263-1263/? D/StatusBar.NetworkController: refreshSignalCluster - setNWBoosterIndicators(false)
202311-14 09:15:53.430 1263-1263/? D/StatusBar.NetworkController: applyOpen
202411-14 09:15:53.430 1263-1263/? D/StatusBar.NetworkController: refreshSignalCluster - setNWBoosterIndicators(false)
202511-14 09:15:53.430 1263-1263/? D/StatusBar.NetworkController: applyOpen
202611-14 09:15:53.430 1263-1263/? D/StatusBar.NetworkController: refreshSignalCluster - setNWBoosterIndicators(false)
202711-14 09:15:53.430 1263-1263/? D/StatusBar.NetworkController: applyOpen
202811-14 09:15:53.440 1263-1263/? D/StatusBar.NetworkController: refreshSignalCluster - setNWBoosterIndicators(false)
202911-14 09:15:53.440 24680-24680/? E/SMD: smd Interface open failed errno is 2 -1
203011-14 09:15:53.440 1263-1263/? D/StatusBar.NetworkController: applyOpen
203111-14 09:15:53.470 278-278/? D/SurfaceFlinger: FPS : 0.20
203211-14 09:15:53.470 278-278/? W/SurfaceFlinger: Fail to Open /sys/devices/platform/gpusysfs/fps
203311-14 09:15:54.421 1263-1263/? D/StatusBar.NetworkController: refreshViews connected={ wifi } level=3 combinedSignalIconId=0x7f020517/com.android.systemui:drawable/stat_sys_wifi_signal_4 mobileLabel=Emergency calls only wifiLabel="Badger"xxxxXXXXxxxxXXXX emergencyOnly=true combinedLabel="Badger"xxxxXXXXxxxxXXXX mAirplaneMode=false mDataActivity=0 mPhoneSignalIconId=0x7f02048e/com.android.systemui:drawable/stat_sys_signal_3_auto_rotate mQSPhoneSignalIconId=0x7f02012b/com.android.systemui:drawable/ic_qs_signal_3 mDataDirectionIconId=0x0/(null) mDataSignalIconId=0x7f02048e/com.android.systemui:drawable/stat_sys_signal_3_auto_rotate mDataTypeIconId=0x0/(null) mQSDataTypeIconId=0x0/(null) mNoSimIconId=0x0/(null) mWifiIconId=0x7f020517/com.android.systemui:drawable/stat_sys_wifi_signal_4 mQSWifiIconId=0x7f020143/com.android.systemui:drawable/ic_qs_wifi_4 mWifiActivityIconId=0x7f0204e8/com.android.systemui:drawable/stat_sys_signal_inout mBluetoothTetherIconId=0x10808cc/android:drawable/stat_sys_tether_bluetooth
203411-14 09:15:54.421 1263-1263/? D/STATUSBAR-WifiQuickSettingButton: onWifiSignalChanged enabled=true enabledDesc:"Badger"
203511-14 09:15:54.431 1263-1263/? D/StatusBar.NetworkController: refreshSignalCluster - setNWBoosterIndicators(false)
203611-14 09:15:54.431 1263-1263/? D/StatusBar.NetworkController: applyOpen
203711-14 09:15:54.431 1263-1263/? D/StatusBar.NetworkController: refreshSignalCluster - setNWBoosterIndicators(false)
203811-14 09:15:54.431 1263-1263/? D/StatusBar.NetworkController: applyOpen
203911-14 09:15:54.441 1263-1263/? D/StatusBar.NetworkController: refreshSignalCluster - setNWBoosterIndicators(false)
204011-14 09:15:54.441 1263-1263/? D/StatusBar.NetworkController: applyOpen
204111-14 09:15:54.441 1263-1263/? D/StatusBar.NetworkController: refreshSignalCluster - setNWBoosterIndicators(false)
204211-14 09:15:54.441 24680-24680/? E/SMD: smd Interface open failed errno is 2 -1
204311-14 09:15:54.451 1263-1263/? D/StatusBar.NetworkController: applyOpen
204411-14 09:15:54.471 278-278/? D/SurfaceFlinger: FPS : 1.00
204511-14 09:15:54.471 278-278/? W/SurfaceFlinger: Fail to Open /sys/devices/platform/gpusysfs/fps
204611-14 09:15:54.941 868-1768/? D/BatteryService: !@BatteryListener : batteryPropertiesChanged!
204711-14 09:15:54.941 868-1768/? D/BatteryService: level:67, scale:100, status:2, health:2, present:true, voltage: 3980, temperature: 326, technology: Li-ion, AC powered:false, USB powered:true, Wireless powered:false, icon:17303687, invalid charger:0
204811-14 09:15:54.941 868-1768/? D/BatteryService: online:4, current avg:460, charge type:1, power sharing:false, high voltage charger:false, capacity:280000, current_now:460
204911-14 09:15:54.941 868-868/? D/BatteryService: Sending ACTION_BATTERY_CHANGED.
205011-14 09:15:54.951 1263-1263/? D/KeyguardUpdateMonitor: received broadcast android.intent.action.BATTERY_CHANGED
205111-14 09:15:54.951 1263-1263/? D/KeyguardUpdateMonitor: handleBatteryUpdate
205211-14 09:15:54.951 868-868/? I/MotionRecognitionService: Plugged
205311-14 09:15:54.951 868-868/? I/MotionRecognitionService: setPowerConnected  = true
205411-14 09:15:54.951 1263-1263/? D/STATUSBAR-PhoneStatusBar:  mBrightnessEnablebySettings = true mBrightnessEnablebyBattery = true mBrightnessEnablebyDisableFlag = true mPmsBrightnessEnablebySettings = true
205511-14 09:15:54.971 1263-1263/? D/BatteryMeterView: ACTION_BATTERY_CHANGED : level:67 status:2 health:2
205611-14 09:15:54.971 1263-1263/? D/BatteryMeterView: ACTION_BATTERY_CHANGED : level:67 status:2 health:2
205711-14 09:15:54.971 1263-1263/? D/BatteryMeterView: ACTION_BATTERY_CHANGED : level:67 status:2 health:2
205811-14 09:15:54.982 278-278/? D/SurfaceFlinger: FPS : 1.95
205911-14 09:15:54.982 278-278/? W/SurfaceFlinger: Fail to Open /sys/devices/platform/gpusysfs/fps
206011-14 09:15:55.432 1263-1263/? D/StatusBar.NetworkController: refreshViews connected={ wifi } level=3 combinedSignalIconId=0x7f020517/com.android.systemui:drawable/stat_sys_wifi_signal_4 mobileLabel=Emergency calls only wifiLabel="Badger"xxxxXXXXxxxxXXXX emergencyOnly=true combinedLabel="Badger"xxxxXXXXxxxxXXXX mAirplaneMode=false mDataActivity=0 mPhoneSignalIconId=0x7f02048e/com.android.systemui:drawable/stat_sys_signal_3_auto_rotate mQSPhoneSignalIconId=0x7f02012b/com.android.systemui:drawable/ic_qs_signal_3 mDataDirectionIconId=0x0/(null) mDataSignalIconId=0x7f02048e/com.android.systemui:drawable/stat_sys_signal_3_auto_rotate mDataTypeIconId=0x0/(null) mQSDataTypeIconId=0x0/(null) mNoSimIconId=0x0/(null) mWifiIconId=0x7f020517/com.android.systemui:drawable/stat_sys_wifi_signal_4 mQSWifiIconId=0x7f020143/com.android.systemui:drawable/ic_qs_wifi_4 mWifiActivityIconId=0x7f0204e6/com.android.systemui:drawable/stat_sys_signal_in mBluetoothTetherIconId=0x10808cc/android:drawable/stat_sys_tether_bluetooth
206111-14 09:15:55.432 1263-1263/? D/STATUSBAR-WifiQuickSettingButton: onWifiSignalChanged enabled=true enabledDesc:"Badger"
206211-14 09:15:55.432 1263-1263/? D/StatusBar.NetworkController: refreshSignalCluster - setNWBoosterIndicators(false)
206311-14 09:15:55.432 1263-1263/? D/StatusBar.NetworkController: applyOpen
206411-14 09:15:55.442 1263-1263/? D/StatusBar.NetworkController: refreshSignalCluster - setNWBoosterIndicators(false)
206511-14 09:15:55.442 1263-1263/? D/StatusBar.NetworkController: applyOpen
206611-14 09:15:55.442 1263-1263/? D/StatusBar.NetworkController: refreshSignalCluster - setNWBoosterIndicators(false)
206711-14 09:15:55.442 1263-1263/? D/StatusBar.NetworkController: applyOpen
206811-14 09:15:55.442 24680-24680/? E/SMD: smd Interface open failed errno is 2 -1
206911-14 09:15:55.452 1263-1263/? D/StatusBar.NetworkController: refreshSignalCluster - setNWBoosterIndicators(false)
207011-14 09:15:55.452 1263-1263/? D/StatusBar.NetworkController: applyOpen
207111-14 09:15:55.472 278-278/? D/SurfaceFlinger: FPS : 2.07
207211-14 09:15:55.472 278-278/? W/SurfaceFlinger: Fail to Open /sys/devices/platform/gpusysfs/fps
207311-14 09:15:55.792 868-1397/? E/Watchdog: !@Sync 42
207411-14 09:15:56.443 24680-24680/? E/SMD: smd Interface open failed errno is 2 -1
207511-14 09:15:56.503 278-278/? D/SurfaceFlinger: FPS : 0.97
207611-14 09:15:56.503 278-278/? W/SurfaceFlinger: Fail to Open /sys/devices/platform/gpusysfs/fps
207711-14 09:15:57.444 1263-1263/? D/StatusBar.NetworkController: refreshViews connected={ wifi } level=3 combinedSignalIconId=0x7f020517/com.android.systemui:drawable/stat_sys_wifi_signal_4 mobileLabel=Emergency calls only wifiLabel="Badger"xxxxXXXXxxxxXXXX emergencyOnly=true combinedLabel="Badger"xxxxXXXXxxxxXXXX mAirplaneMode=false mDataActivity=0 mPhoneSignalIconId=0x7f02048e/com.android.systemui:drawable/stat_sys_signal_3_auto_rotate mQSPhoneSignalIconId=0x7f02012b/com.android.systemui:drawable/ic_qs_signal_3 mDataDirectionIconId=0x0/(null) mDataSignalIconId=0x7f02048e/com.android.systemui:drawable/stat_sys_signal_3_auto_rotate mDataTypeIconId=0x0/(null) mQSDataTypeIconId=0x0/(null) mNoSimIconId=0x0/(null) mWifiIconId=0x7f020517/com.android.systemui:drawable/stat_sys_wifi_signal_4 mQSWifiIconId=0x7f020143/com.android.systemui:drawable/ic_qs_wifi_4 mWifiActivityIconId=0x7f0204e8/com.android.systemui:drawable/stat_sys_signal_inout mBluetoothTetherIconId=0x10808cc/android:drawable/stat_sys_tether_bluetooth
207811-14 09:15:57.444 1263-1263/? D/STATUSBAR-WifiQuickSettingButton: onWifiSignalChanged enabled=true enabledDesc:"Badger"
207911-14 09:15:57.444 1263-1263/? D/StatusBar.NetworkController: refreshSignalCluster - setNWBoosterIndicators(false)
208011-14 09:15:57.444 24680-24680/? E/SMD: smd Interface open failed errno is 2 -1
208111-14 09:15:57.454 1263-1263/? D/StatusBar.NetworkController: applyOpen
208211-14 09:15:57.454 1263-1263/? D/StatusBar.NetworkController: refreshSignalCluster - setNWBoosterIndicators(false)
208311-14 09:15:57.464 1263-1263/? D/StatusBar.NetworkController: applyOpen
208411-14 09:15:57.464 1263-1263/? D/StatusBar.NetworkController: refreshSignalCluster - setNWBoosterIndicators(false)
208511-14 09:15:57.474 1263-1263/? D/StatusBar.NetworkController: applyOpen
208611-14 09:15:57.474 1263-1263/? D/StatusBar.NetworkController: refreshSignalCluster - setNWBoosterIndicators(false)
208711-14 09:15:57.484 1263-1263/? D/StatusBar.NetworkController: applyOpen
208811-14 09:15:57.494 278-278/? D/SurfaceFlinger: FPS : 1.01
208911-14 09:15:57.494 278-278/? W/SurfaceFlinger: Fail to Open /sys/devices/platform/gpusysfs/fps
209011-14 09:15:57.604 24767-24767/? E/Diag_Lib:  Diag_LSM_Init: Failed to open handle to diag driver, error = 2
209111-14 09:15:58.445 1263-1263/? D/StatusBar.NetworkController: refreshViews connected={ wifi } level=3 combinedSignalIconId=0x7f020517/com.android.systemui:drawable/stat_sys_wifi_signal_4 mobileLabel=Emergency calls only wifiLabel="Badger"xxxxXXXXxxxxXXXX emergencyOnly=true combinedLabel="Badger"xxxxXXXXxxxxXXXX mAirplaneMode=false mDataActivity=0 mPhoneSignalIconId=0x7f02048e/com.android.systemui:drawable/stat_sys_signal_3_auto_rotate mQSPhoneSignalIconId=0x7f02012b/com.android.systemui:drawable/ic_qs_signal_3 mDataDirectionIconId=0x0/(null) mDataSignalIconId=0x7f02048e/com.android.systemui:drawable/stat_sys_signal_3_auto_rotate mDataTypeIconId=0x0/(null) mQSDataTypeIconId=0x0/(null) mNoSimIconId=0x0/(null) mWifiIconId=0x7f020517/com.android.systemui:drawable/stat_sys_wifi_signal_4 mQSWifiIconId=0x7f020143/com.android.systemui:drawable/ic_qs_wifi_4 mWifiActivityIconId=0x7f0204e6/com.android.systemui:drawable/stat_sys_signal_in mBluetoothTetherIconId=0x10808cc/android:drawable/stat_sys_tether_bluetooth
209211-14 09:15:58.445 24680-24680/? E/SMD: smd Interface open failed errno is 2 -1
209311-14 09:15:58.455 1263-1263/? D/STATUSBAR-WifiQuickSettingButton: onWifiSignalChanged enabled=true enabledDesc:"Badger"
209411-14 09:15:58.465 1263-1263/? D/StatusBar.NetworkController: refreshSignalCluster - setNWBoosterIndicators(false)
209511-14 09:15:58.465 1263-1263/? D/StatusBar.NetworkController: applyOpen
209611-14 09:15:58.475 1263-1263/? D/StatusBar.NetworkController: refreshSignalCluster - setNWBoosterIndicators(false)
209711-14 09:15:58.485 1263-1263/? D/StatusBar.NetworkController: applyOpen
209811-14 09:15:58.505 1263-1263/? D/StatusBar.NetworkController: refreshSignalCluster - setNWBoosterIndicators(false)
209911-14 09:15:58.505 1263-1263/? D/StatusBar.NetworkController: applyOpen
210011-14 09:15:58.515 1263-1263/? D/StatusBar.NetworkController: refreshSignalCluster - setNWBoosterIndicators(false)
210111-14 09:15:58.515 1263-1263/? D/StatusBar.NetworkController: applyOpen
210211-14 09:15:58.525 278-278/? D/SurfaceFlinger: FPS : 0.97
210311-14 09:15:58.525 278-278/? W/SurfaceFlinger: Fail to Open /sys/devices/platform/gpusysfs/fps
210411-14 09:15:58.975 304-22404/? E/OMX-VDEC-1080P: Rxd i/p EOS, Notify Driver that EOS has been reached
210511-14 09:15:58.975 304-22404/? E/OMX-VDEC-1080P: Output EOS has been reached
210611-14 09:15:58.975 304-22404/? E/OMX-VDEC-1080P: Rxd OMX_COMPONENT_GENERATE_EOS_DONE
210711-14 09:15:59.146 304-763/? E/OMX-VDEC-1080P: send_command: Recieved a Command from Client
210811-14 09:15:59.146 304-22404/? E/OMX-VDEC-1080P: send_command_proxy(): cmd = 1, Current State 3, Expected State -1
210911-14 09:15:59.146 304-22404/? E/OMX-VDEC-1080P: send_command_proxy(): OMX_CommandFlush issued with param1: -1
211011-14 09:15:59.146 304-763/? E/OMX-VDEC-1080P: send_command: Command Processed
211111-14 09:15:59.146 15042-22403/? I/ACodec: [OMX.qcom.video.decoder.avc] Now Flushing
211211-14 09:15:59.156 304-22404/? E/OMX-VDEC-1080P: Driver flush i/p Port complete
211311-14 09:15:59.156 304-22404/? E/OMX-VDEC-1080P: Initiate Input Flush
211411-14 09:15:59.156 304-22404/? E/OMX-VDEC-1080P: OMX flush i/p Port complete PenBuf(0)
211511-14 09:15:59.156 304-22404/? E/OMX-VDEC-1080P: Driver flush o/p Port complete
211611-14 09:15:59.156 304-22404/? E/OMX-VDEC-1080P: Initiate Output Flush
211711-14 09:15:59.156 304-22404/? E/OMX-VDEC-1080P: Buffer queue size 6 pending buf cnt 6
211811-14 09:15:59.156 304-22404/? E/OMX-VDEC-1080P: ID(c) P1(b1d5ba30) P2(40000000)
211911-14 09:15:59.166 304-22404/? E/OMX-VDEC-1080P: Buffer queue size 5 pending buf cnt 5
212011-14 09:15:59.166 304-22404/? E/OMX-VDEC-1080P: ID(c) P1(b1d5ba80) P2(40000000)
212111-14 09:15:59.166 304-22404/? E/OMX-VDEC-1080P: Buffer queue size 4 pending buf cnt 4
212211-14 09:15:59.166 304-22404/? E/OMX-VDEC-1080P: ID(c) P1(b1d5bad0) P2(40000000)
212311-14 09:15:59.166 304-22404/? E/OMX-VDEC-1080P: Buffer queue size 3 pending buf cnt 3
212411-14 09:15:59.166 304-22404/? E/OMX-VDEC-1080P: ID(c) P1(b1d5bb20) P2(40000000)
212511-14 09:15:59.176 304-22404/? E/OMX-VDEC-1080P: Buffer queue size 2 pending buf cnt 2
212611-14 09:15:59.176 304-22404/? E/OMX-VDEC-1080P: ID(c) P1(b1d5bb70) P2(40000000)
212711-14 09:15:59.176 304-22404/? E/OMX-VDEC-1080P: Buffer queue size 1 pending buf cnt 1
212811-14 09:15:59.176 304-22404/? E/OMX-VDEC-1080P: ID(c) P1(b1d5b800) P2(40000000)
212911-14 09:15:59.176 304-22404/? E/OMX-VDEC-1080P: OMX flush o/p Port complete PenBuf(0)
213011-14 09:15:59.186 15042-22403/? I/ACodec: [OMX.qcom.video.decoder.avc] Now Executing
213111-14 09:15:59.206 6778-7086/? I/PlayCommon: [1094] com.google.android.play.a.g.e(862): Preparing logs for uploading
213211-14 09:15:59.206 6778-7086/? I/PlayCommon: [1094] com.google.android.play.a.g.e(864): No file ready to send
213311-14 09:15:59.216 304-22404/? E/OMX-VDEC-1080P: Sync frame received
213411-14 09:15:59.446 24680-24680/? E/SMD: smd Interface open failed errno is 2 -1
213511-14 09:15:59.996 868-1120/? V/AlarmManager: waitForAlarm result :8
213611-14 09:16:00.016 1263-1263/? D/KeyguardUpdateMonitor: received broadcast android.intent.action.TIME_TICK
213711-14 09:16:00.016 1263-1263/? D/KeyguardUpdateMonitor: handleTimeUpdate
213811-14 09:16:00.046 278-278/? D/SurfaceFlinger: FPS : 0.66
213911-14 09:16:00.046 278-278/? W/SurfaceFlinger: Fail to Open /sys/devices/platform/gpusysfs/fps
214011-14 09:16:00.066 1263-1263/? D/DateView: regionalDateFormat = 22/11/3333 isRTLlanguage = false returnDateFormat = E, d MMMM
214111-14 09:16:00.086 1263-1263/? D/DateView: regionalDateFormat = 22/11/3333 isRTLlanguage = false returnDateFormat = E, d MMMM
214211-14 09:16:00.096 1263-1263/? D/KeyguardEffectViewController: onReceive action : android.intent.action.TIME_TICK
214311-14 09:16:00.096 1263-1263/? I/KeyguardEffectViewController: *** don't update sliding image ***
214411-14 09:16:00.457 24680-24680/? E/SMD: smd Interface open failed errno is 2 -1
214511-14 09:16:00.477 1263-1263/? D/StatusBar.NetworkController: refreshViews connected={ wifi } level=3 combinedSignalIconId=0x7f020517/com.android.systemui:drawable/stat_sys_wifi_signal_4 mobileLabel=Emergency calls only wifiLabel="Badger"xxxxXXXXxxxxXXXX emergencyOnly=true combinedLabel="Badger"xxxxXXXXxxxxXXXX mAirplaneMode=false mDataActivity=0 mPhoneSignalIconId=0x7f02048e/com.android.systemui:drawable/stat_sys_signal_3_auto_rotate mQSPhoneSignalIconId=0x7f02012b/com.android.systemui:drawable/ic_qs_signal_3 mDataDirectionIconId=0x0/(null) mDataSignalIconId=0x7f02048e/com.android.systemui:drawable/stat_sys_signal_3_auto_rotate mDataTypeIconId=0x0/(null) mQSDataTypeIconId=0x0/(null) mNoSimIconId=0x0/(null) mWifiIconId=0x7f020517/com.android.systemui:drawable/stat_sys_wifi_signal_4 mQSWifiIconId=0x7f020143/com.android.systemui:drawable/ic_qs_wifi_4 mWifiActivityIconId=0x7f0204e8/com.android.systemui:drawable/stat_sys_signal_inout mBluetoothTetherIconId=0x10808cc/android:drawable/stat_sys_tether_bluetooth
214611-14 09:16:00.477 1263-1263/? D/STATUSBAR-WifiQuickSettingButton: onWifiSignalChanged enabled=true enabledDesc:"Badger"
214711-14 09:16:00.477 1263-1263/? D/StatusBar.NetworkController: refreshSignalCluster - setNWBoosterIndicators(false)
214811-14 09:16:00.487 1263-1263/? D/StatusBar.NetworkController: applyOpen
214911-14 09:16:00.487 1263-1263/? D/StatusBar.NetworkController: refreshSignalCluster - setNWBoosterIndicators(false)
215011-14 09:16:00.487 1263-1263/? D/StatusBar.NetworkController: applyOpen
215111-14 09:16:00.487 1263-1263/? D/StatusBar.NetworkController: refreshSignalCluster - setNWBoosterIndicators(false)
215211-14 09:16:00.497 1263-1263/? D/StatusBar.NetworkController: applyOpen
215311-14 09:16:00.497 1263-1263/? D/StatusBar.NetworkController: refreshSignalCluster - setNWBoosterIndicators(false)
215411-14 09:16:00.497 1263-1263/? D/StatusBar.NetworkController: applyOpen
215511-14 09:16:00.517 278-278/? D/SurfaceFlinger: FPS : 2.08
215611-14 09:16:00.517 278-278/? W/SurfaceFlinger: Fail to Open /sys/devices/platform/gpusysfs/fps
215711-14 09:16:00.567 868-3238/? D/SSRM:n: SIOP:: AP = 440, CUR = 460
215811-14 09:16:01.448 24680-24680/? E/SMD: smd Interface open failed errno is 2 -1
215911-14 09:16:01.868 15042-15076/? D/Adjust: Wrote Activity state: ec:0 sc:3 ssc:5 sl:930.9 ts:840.3 la:11:12:13 uuid:36ec8976-7071-4aa6-867e-dd00d67f1c0e
216011-14 09:16:02.449 24680-24680/? E/SMD: smd Interface open failed errno is 2 -1
216111-14 09:16:02.509 278-278/? D/SurfaceFlinger: FPS : 0.50
216211-14 09:16:02.509 278-278/? W/SurfaceFlinger: Fail to Open /sys/devices/platform/gpusysfs/fps
216311-14 09:16:02.599 24799-24799/? E/Diag_Lib:  Diag_LSM_Init: Failed to open handle to diag driver, error = 2
216411-14 09:16:03.450 24680-24680/? E/SMD: smd Interface open failed errno is 2 -1
216511-14 09:16:03.490 1263-1263/? D/StatusBar.NetworkController: refreshViews connected={ wifi } level=3 combinedSignalIconId=0x7f020517/com.android.systemui:drawable/stat_sys_wifi_signal_4 mobileLabel=Emergency calls only wifiLabel="Badger"xxxxXXXXxxxxXXXX emergencyOnly=true combinedLabel="Badger"xxxxXXXXxxxxXXXX mAirplaneMode=false mDataActivity=0 mPhoneSignalIconId=0x7f02048e/com.android.systemui:drawable/stat_sys_signal_3_auto_rotate mQSPhoneSignalIconId=0x7f02012b/com.android.systemui:drawable/ic_qs_signal_3 mDataDirectionIconId=0x0/(null) mDataSignalIconId=0x7f02048e/com.android.systemui:drawable/stat_sys_signal_3_auto_rotate mDataTypeIconId=0x0/(null) mQSDataTypeIconId=0x0/(null) mNoSimIconId=0x0/(null) mWifiIconId=0x7f020517/com.android.systemui:drawable/stat_sys_wifi_signal_4 mQSWifiIconId=0x7f020143/com.android.systemui:drawable/ic_qs_wifi_4 mWifiActivityIconId=0x7f0204e6/com.android.systemui:drawable/stat_sys_signal_in mBluetoothTetherIconId=0x10808cc/android:drawable/stat_sys_tether_bluetooth
216611-14 09:16:03.490 1263-1263/? D/STATUSBAR-WifiQuickSettingButton: onWifiSignalChanged enabled=true enabledDesc:"Badger"
216711-14 09:16:03.500 1263-1263/? D/StatusBar.NetworkController: refreshSignalCluster - setNWBoosterIndicators(false)
216811-14 09:16:03.500 1263-1263/? D/StatusBar.NetworkController: applyOpen
216911-14 09:16:03.510 1263-1263/? D/StatusBar.NetworkController: refreshSignalCluster - setNWBoosterIndicators(false)
217011-14 09:16:03.510 1263-1263/? D/StatusBar.NetworkController: applyOpen
217111-14 09:16:03.530 1263-1263/? D/StatusBar.NetworkController: refreshSignalCluster - setNWBoosterIndicators(false)
217211-14 09:16:03.540 1263-1263/? D/StatusBar.NetworkController: applyOpen
217311-14 09:16:03.540 1263-1263/? D/StatusBar.NetworkController: refreshSignalCluster - setNWBoosterIndicators(false)
217411-14 09:16:03.540 1263-1263/? D/StatusBar.NetworkController: applyOpen
217511-14 09:16:03.560 278-278/? D/SurfaceFlinger: FPS : 0.96
217611-14 09:16:03.560 278-278/? W/SurfaceFlinger: Fail to Open /sys/devices/platform/gpusysfs/fps
217711-14 09:16:03.940 868-1163/? D/InputReader: Input event: value=1
217811-14 09:16:03.950 868-1163/? I/InputReader: Touch event's action is 0x0 (deviceType=0) [pCnt=1, s=0.308 ] when=1291908353000
217911-14 09:16:03.950 868-1162/? I/InputDispatcher: Delivering touch to (1263): action: 0x4, toolType: 1
218011-14 09:16:03.950 868-1162/? I/InputDispatcher: Delivering touch to (15042): action: 0x0, toolType: 1
218111-14 09:16:03.950 15042-15042/? D/ViewRootImpl: ViewPostImeInputStage ACTION_DOWN
218211-14 09:16:04.000 868-3238/? D/CustomFrequencyManagerService: acquireDVFSLockLocked : type : DVFS_MIN_LIMIT  frequency : 1566000  uid : 1000  pid : 868  pkgName : LIST_SCROLL_BOOSTER@35
218311-14 09:16:04.020 278-278/? D/SurfaceFlinger: FPS : 2.15
218411-14 09:16:04.020 278-278/? W/SurfaceFlinger: Fail to Open /sys/devices/platform/gpusysfs/fps
218511-14 09:16:04.040 278-278/? D/SurfaceFlinger: FPS : 2.15
218611-14 09:16:04.040 278-278/? W/SurfaceFlinger: Fail to Open /sys/devices/platform/gpusysfs/fps
218711-14 09:16:04.060 278-278/? D/SurfaceFlinger: FPS : 2.15
218811-14 09:16:04.060 278-278/? W/SurfaceFlinger: Fail to Open /sys/devices/platform/gpusysfs/fps
218911-14 09:16:04.070 278-278/? D/SurfaceFlinger: FPS : 2.15
219011-14 09:16:04.070 278-278/? W/SurfaceFlinger: Fail to Open /sys/devices/platform/gpusysfs/fps
219111-14 09:16:04.090 278-278/? D/SurfaceFlinger: FPS : 2.15
219211-14 09:16:04.090 278-278/? W/SurfaceFlinger: Fail to Open /sys/devices/platform/gpusysfs/fps
219311-14 09:16:04.110 278-278/? D/SurfaceFlinger: FPS : 2.15
219411-14 09:16:04.110 278-278/? W/SurfaceFlinger: Fail to Open /sys/devices/platform/gpusysfs/fps
219511-14 09:16:04.120 278-278/? D/SurfaceFlinger: FPS : 2.15
219611-14 09:16:04.120 278-278/? W/SurfaceFlinger: Fail to Open /sys/devices/platform/gpusysfs/fps
219711-14 09:16:04.140 278-278/? D/SurfaceFlinger: FPS : 2.15
219811-14 09:16:04.140 278-278/? W/SurfaceFlinger: Fail to Open /sys/devices/platform/gpusysfs/fps
219911-14 09:16:04.160 278-278/? D/SurfaceFlinger: FPS : 2.15
220011-14 09:16:04.160 278-278/? W/SurfaceFlinger: Fail to Open /sys/devices/platform/gpusysfs/fps
220111-14 09:16:04.170 278-278/? D/SurfaceFlinger: FPS : 2.15
220211-14 09:16:04.170 278-278/? W/SurfaceFlinger: Fail to Open /sys/devices/platform/gpusysfs/fps
220311-14 09:16:04.190 278-278/? D/SurfaceFlinger: FPS : 2.15
220411-14 09:16:04.190 278-278/? W/SurfaceFlinger: Fail to Open /sys/devices/platform/gpusysfs/fps
220511-14 09:16:04.211 278-278/? D/SurfaceFlinger: FPS : 2.15
220611-14 09:16:04.211 278-278/? W/SurfaceFlinger: Fail to Open /sys/devices/platform/gpusysfs/fps
220711-14 09:16:04.221 278-278/? D/SurfaceFlinger: FPS : 2.15
220811-14 09:16:04.221 278-278/? W/SurfaceFlinger: Fail to Open /sys/devices/platform/gpusysfs/fps
220911-14 09:16:04.241 278-278/? D/SurfaceFlinger: FPS : 2.15
221011-14 09:16:04.241 278-278/? W/SurfaceFlinger: Fail to Open /sys/devices/platform/gpusysfs/fps
221111-14 09:16:04.261 278-278/? D/SurfaceFlinger: FPS : 2.15
221211-14 09:16:04.261 278-278/? W/SurfaceFlinger: Fail to Open /sys/devices/platform/gpusysfs/fps
221311-14 09:16:04.271 278-278/? D/SurfaceFlinger: FPS : 2.15
221411-14 09:16:04.271 278-278/? W/SurfaceFlinger: Fail to Open /sys/devices/platform/gpusysfs/fps
221511-14 09:16:04.291 278-278/? D/SurfaceFlinger: FPS : 60.34
221611-14 09:16:04.291 278-278/? W/SurfaceFlinger: Fail to Open /sys/devices/platform/gpusysfs/fps
221711-14 09:16:04.311 278-278/? D/SurfaceFlinger: FPS : 60.34
221811-14 09:16:04.311 278-278/? W/SurfaceFlinger: Fail to Open /sys/devices/platform/gpusysfs/fps
221911-14 09:16:04.321 278-278/? D/SurfaceFlinger: FPS : 60.34
222011-14 09:16:04.321 278-278/? W/SurfaceFlinger: Fail to Open /sys/devices/platform/gpusysfs/fps
222111-14 09:16:04.341 278-278/? D/SurfaceFlinger: FPS : 60.34
222211-14 09:16:04.341 278-278/? W/SurfaceFlinger: Fail to Open /sys/devices/platform/gpusysfs/fps
222311-14 09:16:04.361 278-278/? D/SurfaceFlinger: FPS : 60.34
222411-14 09:16:04.361 278-278/? W/SurfaceFlinger: Fail to Open /sys/devices/platform/gpusysfs/fps
222511-14 09:16:04.371 278-278/? D/SurfaceFlinger: FPS : 60.34
222611-14 09:16:04.371 278-278/? W/SurfaceFlinger: Fail to Open /sys/devices/platform/gpusysfs/fps
222711-14 09:16:04.391 278-278/? D/SurfaceFlinger: FPS : 60.34
222811-14 09:16:04.391 278-278/? W/SurfaceFlinger: Fail to Open /sys/devices/platform/gpusysfs/fps
222911-14 09:16:04.411 278-278/? D/SurfaceFlinger: FPS : 60.34
223011-14 09:16:04.411 278-278/? W/SurfaceFlinger: Fail to Open /sys/devices/platform/gpusysfs/fps
223111-14 09:16:04.421 868-1163/? D/InputReader: Input event: value=0
223211-14 09:16:04.421 868-1163/? I/InputReader: Touch event's action is 0x1 (deviceType=0) [pCnt=1, s=] when=1292387327000
223311-14 09:16:04.421 868-1162/? I/InputDispatcher: Delivering touch to (15042): action: 0x1, toolType: 1
223411-14 09:16:04.431 868-3238/? D/CustomFrequencyManagerService: releaseDVFSLockLocked : Getting Lock type frm List : DVFS_MIN_LIMIT  frequency : 1566000  uid : 1000  pid : 868  tag : LIST_SCROLL_BOOSTER@35
223511-14 09:16:04.441 278-278/? D/SurfaceFlinger: FPS : 60.34
223611-14 09:16:04.441 278-278/? W/SurfaceFlinger: Fail to Open /sys/devices/platform/gpusysfs/fps
223711-14 09:16:04.451 24680-24680/? E/SMD: smd Interface open failed errno is 2 -1
223811-14 09:16:04.461 278-278/? D/SurfaceFlinger: FPS : 60.34
223911-14 09:16:04.461 278-278/? W/SurfaceFlinger: Fail to Open /sys/devices/platform/gpusysfs/fps
224011-14 09:16:04.741 278-278/? D/SurfaceFlinger: FPS : 22.22
224111-14 09:16:04.741 278-278/? W/SurfaceFlinger: Fail to Open /sys/devices/platform/gpusysfs/fps
224211-14 09:16:04.771 278-278/? D/SurfaceFlinger: FPS : 22.22
224311-14 09:16:04.771 278-278/? W/SurfaceFlinger: Fail to Open /sys/devices/platform/gpusysfs/fps
224411-14 09:16:04.791 278-278/? D/SurfaceFlinger: FPS : 22.22
224511-14 09:16:04.791 278-278/? W/SurfaceFlinger: Fail to Open /sys/devices/platform/gpusysfs/fps
224611-14 09:16:04.811 278-278/? D/SurfaceFlinger: FPS : 22.22
224711-14 09:16:04.811 278-278/? W/SurfaceFlinger: Fail to Open /sys/devices/platform/gpusysfs/fps
224811-14 09:16:04.821 278-278/? D/SurfaceFlinger: FPS : 22.22
224911-14 09:16:04.821 278-278/? W/SurfaceFlinger: Fail to Open /sys/devices/platform/gpusysfs/fps
225011-14 09:16:04.841 278-278/? D/SurfaceFlinger: FPS : 22.22
225111-14 09:16:04.841 278-278/? W/SurfaceFlinger: Fail to Open /sys/devices/platform/gpusysfs/fps
225211-14 09:16:04.851 278-278/? D/SurfaceFlinger: FPS : 22.22
225311-14 09:16:04.851 278-278/? W/SurfaceFlinger: Fail to Open /sys/devices/platform/gpusysfs/fps
225411-14 09:16:04.871 278-278/? D/SurfaceFlinger: FPS : 22.22
225511-14 09:16:04.871 278-278/? W/SurfaceFlinger: Fail to Open /sys/devices/platform/gpusysfs/fps
225611-14 09:16:04.891 278-278/? D/SurfaceFlinger: FPS : 22.22
225711-14 09:16:04.891 278-278/? W/SurfaceFlinger: Fail to Open /sys/devices/platform/gpusysfs/fps
225811-14 09:16:04.911 278-278/? D/SurfaceFlinger: FPS : 22.22
225911-14 09:16:04.911 278-278/? W/SurfaceFlinger: Fail to Open /sys/devices/platform/gpusysfs/fps
226011-14 09:16:04.921 278-278/? D/SurfaceFlinger: FPS : 22.22
226111-14 09:16:04.921 278-278/? W/SurfaceFlinger: Fail to Open /sys/devices/platform/gpusysfs/fps
226211-14 09:16:04.941 278-278/? D/SurfaceFlinger: FPS : 22.22
226311-14 09:16:04.941 278-278/? W/SurfaceFlinger: Fail to Open /sys/devices/platform/gpusysfs/fps
226411-14 09:16:04.951 278-278/? D/SurfaceFlinger: FPS : 22.22
226511-14 09:16:04.961 278-278/? W/SurfaceFlinger: Fail to Open /sys/devices/platform/gpusysfs/fps
226611-14 09:16:04.971 868-1764/? D/BatteryService: !@BatteryListener : batteryPropertiesChanged!
226711-14 09:16:04.971 868-1764/? D/BatteryService: level:67, scale:100, status:2, health:2, present:true, voltage: 3968, temperature: 327, technology: Li-ion, AC powered:false, USB powered:true, Wireless powered:false, icon:17303687, invalid charger:0
226811-14 09:16:04.971 868-1764/? D/BatteryService: online:4, current avg:460, charge type:1, power sharing:false, high voltage charger:false, capacity:280000, current_now:460
226911-14 09:16:04.971 868-868/? D/BatteryService: Sending ACTION_BATTERY_CHANGED.
227011-14 09:16:04.971 278-278/? D/SurfaceFlinger: FPS : 22.22
227111-14 09:16:04.971 278-278/? W/SurfaceFlinger: Fail to Open /sys/devices/platform/gpusysfs/fps
227211-14 09:16:04.971 868-868/? I/MotionRecognitionService: Plugged
227311-14 09:16:04.971 868-868/? I/MotionRecognitionService: setPowerConnected  = true
227411-14 09:16:04.981 1263-1263/? D/KeyguardUpdateMonitor: received broadcast android.intent.action.BATTERY_CHANGED
227511-14 09:16:04.981 1263-1263/? D/KeyguardUpdateMonitor: handleBatteryUpdate
227611-14 09:16:04.991 1263-1263/? D/STATUSBAR-PhoneStatusBar:  mBrightnessEnablebySettings = true mBrightnessEnablebyBattery = true mBrightnessEnablebyDisableFlag = true mPmsBrightnessEnablebySettings = true
227711-14 09:16:04.991 1263-1263/? D/BatteryMeterView: ACTION_BATTERY_CHANGED : level:67 status:2 health:2
227811-14 09:16:04.991 1263-1263/? D/BatteryMeterView: ACTION_BATTERY_CHANGED : level:67 status:2 health:2
227911-14 09:16:04.991 1263-1263/? D/BatteryMeterView: ACTION_BATTERY_CHANGED : level:67 status:2 health:2
228011-14 09:16:05.001 278-278/? D/SurfaceFlinger: FPS : 52.82
228111-14 09:16:05.011 278-278/? W/SurfaceFlinger: Fail to Open /sys/devices/platform/gpusysfs/fps
228211-14 09:16:05.021 278-278/? D/SurfaceFlinger: FPS : 52.82
228311-14 09:16:05.021 278-278/? W/SurfaceFlinger: Fail to Open /sys/devices/platform/gpusysfs/fps
228411-14 09:16:05.181 868-1534/? D/ActivityManager: startService callerProcessName:com.google.android.gms, calleePkgName: com.google.android.gms
228511-14 09:16:05.452 24680-24680/? E/SMD: smd Interface open failed errno is 2 -1
228611-14 09:16:05.522 1263-1263/? D/StatusBar.NetworkController: refreshViews connected={ wifi } level=3 combinedSignalIconId=0x7f020517/com.android.systemui:drawable/stat_sys_wifi_signal_4 mobileLabel=Emergency calls only wifiLabel="Badger"xxxxXXXXxxxxXXXX emergencyOnly=true combinedLabel="Badger"xxxxXXXXxxxxXXXX mAirplaneMode=false mDataActivity=0 mPhoneSignalIconId=0x7f02048e/com.android.systemui:drawable/stat_sys_signal_3_auto_rotate mQSPhoneSignalIconId=0x7f02012b/com.android.systemui:drawable/ic_qs_signal_3 mDataDirectionIconId=0x0/(null) mDataSignalIconId=0x7f02048e/com.android.systemui:drawable/stat_sys_signal_3_auto_rotate mDataTypeIconId=0x0/(null) mQSDataTypeIconId=0x0/(null) mNoSimIconId=0x0/(null) mWifiIconId=0x7f020517/com.android.systemui:drawable/stat_sys_wifi_signal_4 mQSWifiIconId=0x7f020143/com.android.systemui:drawable/ic_qs_wifi_4 mWifiActivityIconId=0x7f0204e8/com.android.systemui:drawable/stat_sys_signal_inout mBluetoothTetherIconId=0x10808cc/android:drawable/stat_sys_tether_bluetooth
228711-14 09:16:05.522 1263-1263/? D/STATUSBAR-WifiQuickSettingButton: onWifiSignalChanged enabled=true enabledDesc:"Badger"
228811-14 09:16:05.532 1263-1263/? D/StatusBar.NetworkController: refreshSignalCluster - setNWBoosterIndicators(false)
228911-14 09:16:05.532 1263-1263/? D/StatusBar.NetworkController: applyOpen
229011-14 09:16:05.532 1263-1263/? D/StatusBar.NetworkController: refreshSignalCluster - setNWBoosterIndicators(false)
229111-14 09:16:05.542 1263-1263/? D/StatusBar.NetworkController: applyOpen
229211-14 09:16:05.542 1263-1263/? D/StatusBar.NetworkController: refreshSignalCluster - setNWBoosterIndicators(false)
229311-14 09:16:05.542 1263-1263/? D/StatusBar.NetworkController: applyOpen
229411-14 09:16:05.552 1263-1263/? D/StatusBar.NetworkController: refreshSignalCluster - setNWBoosterIndicators(false)
229511-14 09:16:05.552 1263-1263/? D/StatusBar.NetworkController: applyOpen
229611-14 09:16:05.572 278-278/? D/SurfaceFlinger: FPS : 3.53
229711-14 09:16:05.572 278-278/? W/SurfaceFlinger: Fail to Open /sys/devices/platform/gpusysfs/fps
229811-14 09:16:06.453 24680-24680/? E/SMD: smd Interface open failed errno is 2 -1
229911-14 09:16:06.533 1263-1263/? D/StatusBar.NetworkController: refreshViews connected={ wifi } level=3 combinedSignalIconId=0x7f020517/com.android.systemui:drawable/stat_sys_wifi_signal_4 mobileLabel=Emergency calls only wifiLabel="Badger"xxxxXXXXxxxxXXXX emergencyOnly=true combinedLabel="Badger"xxxxXXXXxxxxXXXX mAirplaneMode=false mDataActivity=0 mPhoneSignalIconId=0x7f02048e/com.android.systemui:drawable/stat_sys_signal_3_auto_rotate mQSPhoneSignalIconId=0x7f02012b/com.android.systemui:drawable/ic_qs_signal_3 mDataDirectionIconId=0x0/(null) mDataSignalIconId=0x7f02048e/com.android.systemui:drawable/stat_sys_signal_3_auto_rotate mDataTypeIconId=0x0/(null) mQSDataTypeIconId=0x0/(null) mNoSimIconId=0x0/(null) mWifiIconId=0x7f020517/com.android.systemui:drawable/stat_sys_wifi_signal_4 mQSWifiIconId=0x7f020143/com.android.systemui:drawable/ic_qs_wifi_4 mWifiActivityIconId=0x7f0204e6/com.android.systemui:drawable/stat_sys_signal_in mBluetoothTetherIconId=0x10808cc/android:drawable/stat_sys_tether_bluetooth
230011-14 09:16:06.533 1263-1263/? D/STATUSBAR-WifiQuickSettingButton: onWifiSignalChanged enabled=true enabledDesc:"Badger"
230111-14 09:16:06.533 1263-1263/? D/StatusBar.NetworkController: refreshSignalCluster - setNWBoosterIndicators(false)
230211-14 09:16:06.533 1263-1263/? D/StatusBar.NetworkController: applyOpen
230311-14 09:16:06.543 1263-1263/? D/StatusBar.NetworkController: refreshSignalCluster - setNWBoosterIndicators(false)
230411-14 09:16:06.543 1263-1263/? D/StatusBar.NetworkController: applyOpen
230511-14 09:16:06.543 1263-1263/? D/StatusBar.NetworkController: refreshSignalCluster - setNWBoosterIndicators(false)
230611-14 09:16:06.543 1263-1263/? D/StatusBar.NetworkController: applyOpen
230711-14 09:16:06.553 1263-1263/? D/StatusBar.NetworkController: refreshSignalCluster - setNWBoosterIndicators(false)
230811-14 09:16:06.563 1263-1263/? D/StatusBar.NetworkController: applyOpen
230911-14 09:16:06.573 278-278/? D/SurfaceFlinger: FPS : 1.00
231011-14 09:16:06.573 278-278/? W/SurfaceFlinger: Fail to Open /sys/devices/platform/gpusysfs/fps
231111-14 09:16:07.454 24680-24680/? E/SMD: smd Interface open failed errno is 2 -1
231211-14 09:16:07.534 1263-1263/? D/StatusBar.NetworkController: refreshViews connected={ wifi } level=3 combinedSignalIconId=0x7f020517/com.android.systemui:drawable/stat_sys_wifi_signal_4 mobileLabel=Emergency calls only wifiLabel="Badger"xxxxXXXXxxxxXXXX emergencyOnly=true combinedLabel="Badger"xxxxXXXXxxxxXXXX mAirplaneMode=false mDataActivity=0 mPhoneSignalIconId=0x7f02048e/com.android.systemui:drawable/stat_sys_signal_3_auto_rotate mQSPhoneSignalIconId=0x7f02012b/com.android.systemui:drawable/ic_qs_signal_3 mDataDirectionIconId=0x0/(null) mDataSignalIconId=0x7f02048e/com.android.systemui:drawable/stat_sys_signal_3_auto_rotate mDataTypeIconId=0x0/(null) mQSDataTypeIconId=0x0/(null) mNoSimIconId=0x0/(null) mWifiIconId=0x7f020517/com.android.systemui:drawable/stat_sys_wifi_signal_4 mQSWifiIconId=0x7f020143/com.android.systemui:drawable/ic_qs_wifi_4 mWifiActivityIconId=0x7f0204e8/com.android.systemui:drawable/stat_sys_signal_inout mBluetoothTetherIconId=0x10808cc/android:drawable/stat_sys_tether_bluetooth
231311-14 09:16:07.544 1263-1263/? D/STATUSBAR-WifiQuickSettingButton: onWifiSignalChanged enabled=true enabledDesc:"Badger"
231411-14 09:16:07.544 1263-1263/? D/StatusBar.NetworkController: refreshSignalCluster - setNWBoosterIndicators(false)
231511-14 09:16:07.554 1263-1263/? D/StatusBar.NetworkController: applyOpen
231611-14 09:16:07.554 1263-1263/? D/StatusBar.NetworkController: refreshSignalCluster - setNWBoosterIndicators(false)
231711-14 09:16:07.554 1263-1263/? D/StatusBar.NetworkController: applyOpen
231811-14 09:16:07.564 1263-1263/? D/StatusBar.NetworkController: refreshSignalCluster - setNWBoosterIndicators(false)
231911-14 09:16:07.564 1263-1263/? D/StatusBar.NetworkController: applyOpen
232011-14 09:16:07.574 1263-1263/? D/StatusBar.NetworkController: refreshSignalCluster - setNWBoosterIndicators(false)
232111-14 09:16:07.594 1263-1263/? D/StatusBar.NetworkController: applyOpen
232211-14 09:16:07.604 278-278/? D/SurfaceFlinger: FPS : 0.97
232311-14 09:16:07.604 278-278/? W/SurfaceFlinger: Fail to Open /sys/devices/platform/gpusysfs/fps
232411-14 09:16:07.624 24828-24828/? E/Diag_Lib:  Diag_LSM_Init: Failed to open handle to diag driver, error = 2
232511-14 09:16:08.455 24680-24680/? E/SMD: smd Interface open failed errno is 2 -1
232611-14 09:16:09.275 304-22404/? E/OMX-VDEC-1080P: Rxd i/p EOS, Notify Driver that EOS has been reached
232711-14 09:16:09.275 304-22404/? E/OMX-VDEC-1080P: Output EOS has been reached
232811-14 09:16:09.275 304-22404/? E/OMX-VDEC-1080P: Rxd OMX_COMPONENT_GENERATE_EOS_DONE
232911-14 09:16:09.436 304-854/? E/OMX-VDEC-1080P: send_command: Recieved a Command from Client
233011-14 09:16:09.436 304-22404/? E/OMX-VDEC-1080P: send_command_proxy(): cmd = 1, Current State 3, Expected State -1
233111-14 09:16:09.436 304-22404/? E/OMX-VDEC-1080P: send_command_proxy(): OMX_CommandFlush issued with param1: -1
233211-14 09:16:09.446 304-854/? E/OMX-VDEC-1080P: send_command: Command Processed
233311-14 09:16:09.446 15042-22403/? I/ACodec: [OMX.qcom.video.decoder.avc] Now Flushing
233411-14 09:16:09.446 304-22404/? E/OMX-VDEC-1080P: Driver flush i/p Port complete
233511-14 09:16:09.446 304-22404/? E/OMX-VDEC-1080P: Initiate Input Flush
233611-14 09:16:09.446 304-22404/? E/OMX-VDEC-1080P: OMX flush i/p Port complete PenBuf(0)
233711-14 09:16:09.446 304-22404/? E/OMX-VDEC-1080P: Driver flush o/p Port complete
233811-14 09:16:09.456 304-22404/? E/OMX-VDEC-1080P: Initiate Output Flush
233911-14 09:16:09.456 304-22404/? E/OMX-VDEC-1080P: Buffer queue size 4 pending buf cnt 4
234011-14 09:16:09.456 304-22404/? E/OMX-VDEC-1080P: ID(c) P1(b1d5bb20) P2(40000000)
234111-14 09:16:09.456 304-22404/? E/OMX-VDEC-1080P: Buffer queue size 3 pending buf cnt 3
234211-14 09:16:09.456 304-22404/? E/OMX-VDEC-1080P: ID(c) P1(b1d5bb70) P2(40000000)
234311-14 09:16:09.456 24680-24680/? E/SMD: smd Interface open failed errno is 2 -1
234411-14 09:16:09.466 304-22404/? E/OMX-VDEC-1080P: Buffer queue size 2 pending buf cnt 2
234511-14 09:16:09.466 304-22404/? E/OMX-VDEC-1080P: ID(c) P1(b1d5b8a0) P2(40000000)
234611-14 09:16:09.476 304-22404/? E/OMX-VDEC-1080P: Buffer queue size 1 pending buf cnt 1
234711-14 09:16:09.476 304-22404/? E/OMX-VDEC-1080P: ID(c) P1(b1d5b8f0) P2(40000000)
234811-14 09:16:09.476 304-22404/? E/OMX-VDEC-1080P: OMX flush o/p Port complete PenBuf(0)
234911-14 09:16:09.476 15042-22403/? I/ACodec: [OMX.qcom.video.decoder.avc] Now Executing
235011-14 09:16:09.506 304-22404/? E/OMX-VDEC-1080P: Sync frame received
235111-14 09:16:09.566 1263-1263/? D/StatusBar.NetworkController: refreshViews connected={ wifi } level=3 combinedSignalIconId=0x7f020517/com.android.systemui:drawable/stat_sys_wifi_signal_4 mobileLabel=Emergency calls only wifiLabel="Badger"xxxxXXXXxxxxXXXX emergencyOnly=true combinedLabel="Badger"xxxxXXXXxxxxXXXX mAirplaneMode=false mDataActivity=0 mPhoneSignalIconId=0x7f02048e/com.android.systemui:drawable/stat_sys_signal_3_auto_rotate mQSPhoneSignalIconId=0x7f02012b/com.android.systemui:drawable/ic_qs_signal_3 mDataDirectionIconId=0x0/(null) mDataSignalIconId=0x7f02048e/com.android.systemui:drawable/stat_sys_signal_3_auto_rotate mDataTypeIconId=0x0/(null) mQSDataTypeIconId=0x0/(null) mNoSimIconId=0x0/(null) mWifiIconId=0x7f020517/com.android.systemui:drawable/stat_sys_wifi_signal_4 mQSWifiIconId=0x7f020143/com.android.systemui:drawable/ic_qs_wifi_4 mWifiActivityIconId=0x7f0204e6/com.android.systemui:drawable/stat_sys_signal_in mBluetoothTetherIconId=0x10808cc/android:drawable/stat_sys_tether_bluetooth
235211-14 09:16:09.566 1263-1263/? D/STATUSBAR-WifiQuickSettingButton: onWifiSignalChanged enabled=true enabledDesc:"Badger"
235311-14 09:16:09.566 1263-1263/? D/StatusBar.NetworkController: refreshSignalCluster - setNWBoosterIndicators(false)
235411-14 09:16:09.566 1263-1263/? D/StatusBar.NetworkController: applyOpen
235511-14 09:16:09.576 1263-1263/? D/StatusBar.NetworkController: refreshSignalCluster - setNWBoosterIndicators(false)
235611-14 09:16:09.576 1263-1263/? D/StatusBar.NetworkController: applyOpen
235711-14 09:16:09.576 1263-1263/? D/StatusBar.NetworkController: refreshSignalCluster - setNWBoosterIndicators(false)
235811-14 09:16:09.576 1263-1263/? D/StatusBar.NetworkController: applyOpen
235911-14 09:16:09.576 1263-1263/? D/StatusBar.NetworkController: refreshSignalCluster - setNWBoosterIndicators(false)
236011-14 09:16:09.576 1263-1263/? D/StatusBar.NetworkController: applyOpen
236111-14 09:16:09.586 278-278/? D/SurfaceFlinger: FPS : 0.50
236211-14 09:16:09.586 278-278/? W/SurfaceFlinger: Fail to Open /sys/devices/platform/gpusysfs/fps
236311-14 09:16:09.596 278-278/? D/SurfaceFlinger: FPS : 0.50
236411-14 09:16:09.606 278-278/? W/SurfaceFlinger: Fail to Open /sys/devices/platform/gpusysfs/fps
236511-14 09:16:10.447 24680-24680/? E/SMD: smd Interface open failed errno is 2 -1
236611-14 09:16:10.567 1263-1263/? D/StatusBar.NetworkController: refreshViews connected={ wifi } level=3 combinedSignalIconId=0x7f020517/com.android.systemui:drawable/stat_sys_wifi_signal_4 mobileLabel=Emergency calls only wifiLabel="Badger"xxxxXXXXxxxxXXXX emergencyOnly=true combinedLabel="Badger"xxxxXXXXxxxxXXXX mAirplaneMode=false mDataActivity=0 mPhoneSignalIconId=0x7f02048e/com.android.systemui:drawable/stat_sys_signal_3_auto_rotate mQSPhoneSignalIconId=0x7f02012b/com.android.systemui:drawable/ic_qs_signal_3 mDataDirectionIconId=0x0/(null) mDataSignalIconId=0x7f02048e/com.android.systemui:drawable/stat_sys_signal_3_auto_rotate mDataTypeIconId=0x0/(null) mQSDataTypeIconId=0x0/(null) mNoSimIconId=0x0/(null) mWifiIconId=0x7f020517/com.android.systemui:drawable/stat_sys_wifi_signal_4 mQSWifiIconId=0x7f020143/com.android.systemui:drawable/ic_qs_wifi_4 mWifiActivityIconId=0x7f0204e8/com.android.systemui:drawable/stat_sys_signal_inout mBluetoothTetherIconId=0x10808cc/android:drawable/stat_sys_tether_bluetooth
236711-14 09:16:10.567 1263-1263/? D/STATUSBAR-WifiQuickSettingButton: onWifiSignalChanged enabled=true enabledDesc:"Badger"
236811-14 09:16:10.567 1263-1263/? D/StatusBar.NetworkController: refreshSignalCluster - setNWBoosterIndicators(false)
236911-14 09:16:10.577 1263-1263/? D/StatusBar.NetworkController: applyOpen
237011-14 09:16:10.577 1263-1263/? D/StatusBar.NetworkController: refreshSignalCluster - setNWBoosterIndicators(false)
237111-14 09:16:10.577 1263-1263/? D/StatusBar.NetworkController: applyOpen
237211-14 09:16:10.577 1263-1263/? D/StatusBar.NetworkController: refreshSignalCluster - setNWBoosterIndicators(false)
237311-14 09:16:10.587 1263-1263/? D/StatusBar.NetworkController: applyOpen
237411-14 09:16:10.597 868-3238/? D/SSRM:n: SIOP:: AP = 440, CUR = 460
237511-14 09:16:10.597 1263-1263/? D/StatusBar.NetworkController: refreshSignalCluster - setNWBoosterIndicators(false)
237611-14 09:16:10.597 1263-1263/? D/StatusBar.NetworkController: applyOpen
237711-14 09:16:10.617 278-278/? D/SurfaceFlinger: FPS : 1.92
237811-14 09:16:10.617 278-278/? W/SurfaceFlinger: Fail to Open /sys/devices/platform/gpusysfs/fps
237911-14 09:16:11.438 295-848/? D/EnterpriseController: mIsMarkChainAdded is 0 mIsBlockChainAdded is 0 netId is 0
238011-14 09:16:11.438 295-848/? D/Netd: getNetworkForDns: using netid 502 for uid 10200
238111-14 09:16:11.448 295-848/? D/EnterpriseController: mIsMarkChainAdded is 0 mIsBlockChainAdded is 0 netId is 0
238211-14 09:16:11.448 295-848/? D/Netd: getNetworkForDns: using netid 502 for uid 10200
238311-14 09:16:11.458 24680-24680/? E/SMD: smd Interface open failed errno is 2 -1
238411-14 09:16:11.838 295-848/? D/EnterpriseController: mIsMarkChainAdded is 0 mIsBlockChainAdded is 0 netId is 0
238511-14 09:16:11.838 295-848/? D/Netd: getNetworkForDns: using netid 502 for uid 10200
238611-14 09:16:12.459 24680-24680/? E/SMD: smd Interface open failed errno is 2 -1
238711-14 09:16:12.619 24863-24863/? E/Diag_Lib:  Diag_LSM_Init: Failed to open handle to diag driver, error = 2
238811-14 09:16:12.639 278-278/? D/SurfaceFlinger: FPS : 0.50
238911-14 09:16:12.639 278-278/? W/SurfaceFlinger: Fail to Open /sys/devices/platform/gpusysfs/fps
239011-14 09:16:13.460 24680-24680/? E/SMD: smd Interface open failed errno is 2 -1
239111-14 09:16:13.580 1263-1263/? D/StatusBar.NetworkController: refreshViews connected={ wifi } level=3 combinedSignalIconId=0x7f020517/com.android.systemui:drawable/stat_sys_wifi_signal_4 mobileLabel=Emergency calls only wifiLabel="Badger"xxxxXXXXxxxxXXXX emergencyOnly=true combinedLabel="Badger"xxxxXXXXxxxxXXXX mAirplaneMode=false mDataActivity=0 mPhoneSignalIconId=0x7f02048e/com.android.systemui:drawable/stat_sys_signal_3_auto_rotate mQSPhoneSignalIconId=0x7f02012b/com.android.systemui:drawable/ic_qs_signal_3 mDataDirectionIconId=0x0/(null) mDataSignalIconId=0x7f02048e/com.android.systemui:drawable/stat_sys_signal_3_auto_rotate mDataTypeIconId=0x0/(null) mQSDataTypeIconId=0x0/(null) mNoSimIconId=0x0/(null) mWifiIconId=0x7f020517/com.android.systemui:drawable/stat_sys_wifi_signal_4 mQSWifiIconId=0x7f020143/com.android.systemui:drawable/ic_qs_wifi_4 mWifiActivityIconId=0x7f0204e6/com.android.systemui:drawable/stat_sys_signal_in mBluetoothTetherIconId=0x10808cc/android:drawable/stat_sys_tether_bluetooth
239211-14 09:16:13.580 1263-1263/? D/STATUSBAR-WifiQuickSettingButton: onWifiSignalChanged enabled=true enabledDesc:"Badger"
239311-14 09:16:13.580 1263-1263/? D/StatusBar.NetworkController: refreshSignalCluster - setNWBoosterIndicators(false)
239411-14 09:16:13.580 1263-1263/? D/StatusBar.NetworkController: applyOpen
239511-14 09:16:13.600 1263-1263/? D/StatusBar.NetworkController: refreshSignalCluster - setNWBoosterIndicators(false)
239611-14 09:16:13.600 1263-1263/? D/StatusBar.NetworkController: applyOpen
239711-14 09:16:13.600 1263-1263/? D/StatusBar.NetworkController: refreshSignalCluster - setNWBoosterIndicators(false)
239811-14 09:16:13.610 1263-1263/? D/StatusBar.NetworkController: applyOpen
239911-14 09:16:13.620 1263-1263/? D/StatusBar.NetworkController: refreshSignalCluster - setNWBoosterIndicators(false)
240011-14 09:16:13.620 1263-1263/? D/StatusBar.NetworkController: applyOpen
240111-14 09:16:13.630 278-278/? D/SurfaceFlinger: FPS : 1.00
240211-14 09:16:13.640 278-278/? W/SurfaceFlinger: Fail to Open /sys/devices/platform/gpusysfs/fps
240311-14 09:16:13.790 15042-15524/? D/GeckoIdleService: Get idle time: time since reset 55770 msec
240411-14 09:16:13.790 15042-15524/? D/GeckoIdleService: Idle timer callback: current idle time 55770 msec
240511-14 09:16:13.790 15042-15524/? D/GeckoIdleService: next timeout 124228 msec from now
240611-14 09:16:13.790 15042-15524/? D/GeckoIdleService: SetTimerExpiryIfBefore: next timeout 124228 msec from now
240711-14 09:16:13.790 15042-15524/? D/GeckoIdleService: reset timer expiry to 124237 msec from now
240811-14 09:16:14.461 24680-24680/? E/SMD: smd Interface open failed errno is 2 -1
240911-14 09:16:15.021 868-4388/? D/BatteryService: !@BatteryListener : batteryPropertiesChanged!
241011-14 09:16:15.021 868-4388/? D/BatteryService: level:67, scale:100, status:2, health:2, present:true, voltage: 3990, temperature: 327, technology: Li-ion, AC powered:false, USB powered:true, Wireless powered:false, icon:17303687, invalid charger:0
241111-14 09:16:15.021 868-4388/? D/BatteryService: online:4, current avg:460, charge type:1, power sharing:false, high voltage charger:false, capacity:280000, current_now:460
241211-14 09:16:15.021 868-868/? D/BatteryService: Sending ACTION_BATTERY_CHANGED.
241311-14 09:16:15.031 1263-1263/? D/KeyguardUpdateMonitor: received broadcast android.intent.action.BATTERY_CHANGED
241411-14 09:16:15.041 868-868/? I/MotionRecognitionService: Plugged
241511-14 09:16:15.041 868-868/? I/MotionRecognitionService: setPowerConnected  = true
241611-14 09:16:15.041 1263-1263/? D/KeyguardUpdateMonitor: handleBatteryUpdate
241711-14 09:16:15.041 1263-1263/? D/STATUSBAR-PhoneStatusBar:  mBrightnessEnablebySettings = true mBrightnessEnablebyBattery = true mBrightnessEnablebyDisableFlag = true mPmsBrightnessEnablebySettings = true
241811-14 09:16:15.061 1263-1263/? D/BatteryMeterView: ACTION_BATTERY_CHANGED : level:67 status:2 health:2
241911-14 09:16:15.071 1263-1263/? D/BatteryMeterView: ACTION_BATTERY_CHANGED : level:67 status:2 health:2
242011-14 09:16:15.071 1263-1263/? D/BatteryMeterView: ACTION_BATTERY_CHANGED : level:67 status:2 health:2
242111-14 09:16:15.081 278-278/? D/SurfaceFlinger: FPS : 0.69
242211-14 09:16:15.081 278-278/? W/SurfaceFlinger: Fail to Open /sys/devices/platform/gpusysfs/fps
242311-14 09:16:15.461 24680-24680/? E/SMD: smd Interface open failed errno is 2 -1
242411-14 09:16:16.462 24680-24680/? E/SMD: smd Interface open failed errno is 2 -1
242511-14 09:16:16.663 278-278/? D/SurfaceFlinger: FPS : 0.63
242611-14 09:16:16.663 278-278/? W/SurfaceFlinger: Fail to Open /sys/devices/platform/gpusysfs/fps
242711-14 09:16:17.463 24680-24680/? E/SMD: smd Interface open failed errno is 2 -1
242811-14 09:16:17.694 24881-24881/? E/Diag_Lib:  Diag_LSM_Init: Failed to open handle to diag driver, error = 2
242911-14 09:16:17.814 1263-1263/? D/StatusBar.NetworkController: onSignalStrengthsChanged signalStrength=SignalStrength: 9 99 -120 -160 -120 -1 -1 99 2147483647 2147483647 2147483647 -1 2147483647 0x2 gsm|lte level=2
243011-14 09:16:17.814 1263-1263/? D/StatusBar.NetworkController: updateTelephonySignalStrength: hasService=true ss=SignalStrength: 9 99 -120 -160 -120 -1 -1 99 2147483647 2147483647 2147483647 -1 2147483647 0x2 gsm|lte
243111-14 09:16:17.814 1263-1263/? D/StatusBar.NetworkController: updateTelephonySignalStrength: iconLevel=2
243211-14 09:16:17.824 1263-1263/? D/StatusBar.NetworkController: updateTelephonySignalStrength, No signal level. mPhoneSignalIconId = com.android.systemui:drawable/stat_sys_signal_2_auto_rotate mDataSignalIconId = com.android.systemui:drawable/stat_sys_signal_2_auto_rotate mQSPhoneSignalIconId = com.android.systemui:drawable/ic_qs_signal_2 mContentDescriptionPhoneSignal = Phone two bars.
243311-14 09:16:17.824 1263-1263/? D/StatusBar.NetworkController: refreshViews connected={ wifi } level=2 combinedSignalIconId=0x7f020517/com.android.systemui:drawable/stat_sys_wifi_signal_4 mobileLabel=Emergency calls only wifiLabel="Badger"xxxxXXXXxxxxXXXX emergencyOnly=true combinedLabel="Badger"xxxxXXXXxxxxXXXX mAirplaneMode=false mDataActivity=0 mPhoneSignalIconId=0x7f020466/com.android.systemui:drawable/stat_sys_signal_2_auto_rotate mQSPhoneSignalIconId=0x7f02012a/com.android.systemui:drawable/ic_qs_signal_2 mDataDirectionIconId=0x0/(null) mDataSignalIconId=0x7f020466/com.android.systemui:drawable/stat_sys_signal_2_auto_rotate mDataTypeIconId=0x0/(null) mQSDataTypeIconId=0x0/(null) mNoSimIconId=0x0/(null) mWifiIconId=0x7f020517/com.android.systemui:drawable/stat_sys_wifi_signal_4 mQSWifiIconId=0x7f020143/com.android.systemui:drawable/ic_qs_wifi_4 mWifiActivityIconId=0x7f0204e6/com.android.systemui:drawable/stat_sys_signal_in mBluetoothTetherIconId=0x10808cc/android:drawable/stat_sys_tether_bluetooth
243411-14 09:16:17.824 1263-1263/? D/STATUSBAR-WifiQuickSettingButton: onWifiSignalChanged enabled=true enabledDesc:"Badger"
243511-14 09:16:17.824 1263-1263/? D/StatusBar.NetworkController: refreshSignalCluster - setNWBoosterIndicators(false)
243611-14 09:16:17.834 1263-1263/? D/StatusBar.NetworkController: applyOpen
243711-14 09:16:17.844 1263-1263/? D/StatusBar.NetworkController: refreshSignalCluster - setNWBoosterIndicators(false)
243811-14 09:16:17.844 1263-1263/? D/StatusBar.NetworkController: applyOpen
243911-14 09:16:17.844 1263-1263/? D/StatusBar.NetworkController: refreshSignalCluster - setNWBoosterIndicators(false)
244011-14 09:16:17.844 1263-1263/? D/StatusBar.NetworkController: applyOpen
244111-14 09:16:17.844 1263-1263/? D/StatusBar.NetworkController: refreshSignalCluster - setNWBoosterIndicators(false)
244211-14 09:16:17.854 1263-1263/? D/StatusBar.NetworkController: applyOpen
244311-14 09:16:17.874 278-278/? D/SurfaceFlinger: FPS : 0.83
244411-14 09:16:17.874 278-278/? W/SurfaceFlinger: Fail to Open /sys/devices/platform/gpusysfs/fps
244511-14 09:16:18.464 24680-24680/? E/SMD: smd Interface open failed errno is 2 -1
244611-14 09:16:18.625 1263-1263/? D/StatusBar.NetworkController: refreshViews connected={ wifi } level=2 combinedSignalIconId=0x7f020517/com.android.systemui:drawable/stat_sys_wifi_signal_4 mobileLabel=Emergency calls only wifiLabel="Badger"xxxxXXXXxxxxXXXX emergencyOnly=true combinedLabel="Badger"xxxxXXXXxxxxXXXX mAirplaneMode=false mDataActivity=0 mPhoneSignalIconId=0x7f020466/com.android.systemui:drawable/stat_sys_signal_2_auto_rotate mQSPhoneSignalIconId=0x7f02012a/com.android.systemui:drawable/ic_qs_signal_2 mDataDirectionIconId=0x0/(null) mDataSignalIconId=0x7f020466/com.android.systemui:drawable/stat_sys_signal_2_auto_rotate mDataTypeIconId=0x0/(null) mQSDataTypeIconId=0x0/(null) mNoSimIconId=0x0/(null) mWifiIconId=0x7f020517/com.android.systemui:drawable/stat_sys_wifi_signal_4 mQSWifiIconId=0x7f020143/com.android.systemui:drawable/ic_qs_wifi_4 mWifiActivityIconId=0x7f0204e8/com.android.systemui:drawable/stat_sys_signal_inout mBluetoothTetherIconId=0x10808cc/android:drawable/stat_sys_tether_bluetooth
244711-14 09:16:18.625 1263-1263/? D/STATUSBAR-WifiQuickSettingButton: onWifiSignalChanged enabled=true enabledDesc:"Badger"
244811-14 09:16:18.625 1263-1263/? D/StatusBar.NetworkController: refreshSignalCluster - setNWBoosterIndicators(false)
244911-14 09:16:18.645 1263-1263/? D/StatusBar.NetworkController: applyOpen
245011-14 09:16:18.645 1263-1263/? D/StatusBar.NetworkController: refreshSignalCluster - setNWBoosterIndicators(false)
245111-14 09:16:18.645 1263-1263/? D/StatusBar.NetworkController: applyOpen
245211-14 09:16:18.645 1263-1263/? D/StatusBar.NetworkController: refreshSignalCluster - setNWBoosterIndicators(false)
245311-14 09:16:18.645 1263-1263/? D/StatusBar.NetworkController: applyOpen
245411-14 09:16:18.655 1263-1263/? D/StatusBar.NetworkController: refreshSignalCluster - setNWBoosterIndicators(false)
245511-14 09:16:18.655 1263-1263/? D/StatusBar.NetworkController: applyOpen
245611-14 09:16:18.675 278-278/? D/SurfaceFlinger: FPS : 1.25
245711-14 09:16:18.675 278-278/? W/SurfaceFlinger: Fail to Open /sys/devices/platform/gpusysfs/fps
245811-14 09:16:19.465 24680-24680/? E/SMD: smd Interface open failed errno is 2 -1
245911-14 09:16:19.565 304-22404/? E/OMX-VDEC-1080P: Rxd i/p EOS, Notify Driver that EOS has been reached
246011-14 09:16:19.565 304-22404/? E/OMX-VDEC-1080P: Output EOS has been reached
246111-14 09:16:19.565 304-22404/? E/OMX-VDEC-1080P: Rxd OMX_COMPONENT_GENERATE_EOS_DONE
246211-14 09:16:19.656 1263-1263/? D/StatusBar.NetworkController: refreshViews connected={ wifi } level=2 combinedSignalIconId=0x7f020517/com.android.systemui:drawable/stat_sys_wifi_signal_4 mobileLabel=Emergency calls only wifiLabel="Badger"xxxxXXXXxxxxXXXX emergencyOnly=true combinedLabel="Badger"xxxxXXXXxxxxXXXX mAirplaneMode=false mDataActivity=0 mPhoneSignalIconId=0x7f020466/com.android.systemui:drawable/stat_sys_signal_2_auto_rotate mQSPhoneSignalIconId=0x7f02012a/com.android.systemui:drawable/ic_qs_signal_2 mDataDirectionIconId=0x0/(null) mDataSignalIconId=0x7f020466/com.android.systemui:drawable/stat_sys_signal_2_auto_rotate mDataTypeIconId=0x0/(null) mQSDataTypeIconId=0x0/(null) mNoSimIconId=0x0/(null) mWifiIconId=0x7f020517/com.android.systemui:drawable/stat_sys_wifi_signal_4 mQSWifiIconId=0x7f020143/com.android.systemui:drawable/ic_qs_wifi_4 mWifiActivityIconId=0x7f0204e6/com.android.systemui:drawable/stat_sys_signal_in mBluetoothTetherIconId=0x10808cc/android:drawable/stat_sys_tether_bluetooth
246311-14 09:16:19.656 1263-1263/? D/STATUSBAR-WifiQuickSettingButton: onWifiSignalChanged enabled=true enabledDesc:"Badger"
246411-14 09:16:19.656 1263-1263/? D/StatusBar.NetworkController: refreshSignalCluster - setNWBoosterIndicators(false)
246511-14 09:16:19.666 1263-1263/? D/StatusBar.NetworkController: applyOpen
246611-14 09:16:19.666 1263-1263/? D/StatusBar.NetworkController: refreshSignalCluster - setNWBoosterIndicators(false)
246711-14 09:16:19.676 1263-1263/? D/StatusBar.NetworkController: applyOpen
246811-14 09:16:19.686 1263-1263/? D/StatusBar.NetworkController: refreshSignalCluster - setNWBoosterIndicators(false)
246911-14 09:16:19.686 1263-1263/? D/StatusBar.NetworkController: applyOpen
247011-14 09:16:19.696 1263-1263/? D/StatusBar.NetworkController: refreshSignalCluster - setNWBoosterIndicators(false)
247111-14 09:16:19.696 1263-1263/? D/StatusBar.NetworkController: applyOpen
247211-14 09:16:19.716 278-278/? D/SurfaceFlinger: FPS : 0.95
247311-14 09:16:19.726 304-1854/? E/OMX-VDEC-1080P: send_command: Recieved a Command from Client
247411-14 09:16:19.726 304-22404/? E/OMX-VDEC-1080P: send_command_proxy(): cmd = 1, Current State 3, Expected State -1
247511-14 09:16:19.726 304-22404/? E/OMX-VDEC-1080P: send_command_proxy(): OMX_CommandFlush issued with param1: -1
247611-14 09:16:19.726 304-1854/? E/OMX-VDEC-1080P: send_command: Command Processed
247711-14 09:16:19.726 15042-22403/? I/ACodec: [OMX.qcom.video.decoder.avc] Now Flushing
247811-14 09:16:19.726 304-22404/? E/OMX-VDEC-1080P: Driver flush i/p Port complete
247911-14 09:16:19.726 278-278/? W/SurfaceFlinger: Fail to Open /sys/devices/platform/gpusysfs/fps
248011-14 09:16:19.726 304-22404/? E/OMX-VDEC-1080P: Initiate Input Flush
248111-14 09:16:19.726 304-22404/? E/OMX-VDEC-1080P: OMX flush i/p Port complete PenBuf(0)
248211-14 09:16:19.726 304-22404/? E/OMX-VDEC-1080P: Driver flush o/p Port complete
248311-14 09:16:19.726 304-22404/? E/OMX-VDEC-1080P: Initiate Output Flush
248411-14 09:16:19.726 304-22404/? E/OMX-VDEC-1080P: Buffer queue size 5 pending buf cnt 5
248511-14 09:16:19.726 304-22404/? E/OMX-VDEC-1080P: ID(c) P1(b1d5ba80) P2(40000000)
248611-14 09:16:19.726 304-22404/? E/OMX-VDEC-1080P: Buffer queue size 4 pending buf cnt 4
248711-14 09:16:19.726 304-22404/? E/OMX-VDEC-1080P: ID(c) P1(b1d5bad0) P2(40000000)
248811-14 09:16:19.726 304-22404/? E/OMX-VDEC-1080P: Buffer queue size 3 pending buf cnt 3
248911-14 09:16:19.726 304-22404/? E/OMX-VDEC-1080P: ID(c) P1(b1d5b990) P2(40000000)
249011-14 09:16:19.736 304-22404/? E/OMX-VDEC-1080P: Buffer queue size 2 pending buf cnt 2
249111-14 09:16:19.736 304-22404/? E/OMX-VDEC-1080P: ID(c) P1(b1d5b9e0) P2(40000000)
249211-14 09:16:19.736 304-22404/? E/OMX-VDEC-1080P: Buffer queue size 1 pending buf cnt 1
249311-14 09:16:19.736 304-22404/? E/OMX-VDEC-1080P: ID(c) P1(b1d5ba30) P2(40000000)
249411-14 09:16:19.736 304-22404/? E/OMX-VDEC-1080P: OMX flush o/p Port complete PenBuf(0)
249511-14 09:16:19.736 15042-22403/? I/ACodec: [OMX.qcom.video.decoder.avc] Now Executing
249611-14 09:16:19.756 304-22404/? E/OMX-VDEC-1080P: Sync frame received
249711-14 09:16:20.466 24680-24680/? E/SMD: smd Interface open failed errno is 2 -1
249811-14 09:16:20.637 868-3238/? D/SSRM:n: SIOP:: AP = 440, CUR = 460
249911-14 09:16:20.897 278-278/? D/SurfaceFlinger: FPS : 0.84
250011-14 09:16:20.897 278-278/? W/SurfaceFlinger: Fail to Open /sys/devices/platform/gpusysfs/fps
250111-14 09:16:21.457 24680-24680/? E/SMD: smd Interface open failed errno is 2 -1
250211-14 09:16:21.668 1263-1263/? D/StatusBar.NetworkController: refreshViews connected={ wifi } level=2 combinedSignalIconId=0x7f020517/com.android.systemui:drawable/stat_sys_wifi_signal_4 mobileLabel=Emergency calls only wifiLabel="Badger"xxxxXXXXxxxxXXXX emergencyOnly=true combinedLabel="Badger"xxxxXXXXxxxxXXXX mAirplaneMode=false mDataActivity=0 mPhoneSignalIconId=0x7f020466/com.android.systemui:drawable/stat_sys_signal_2_auto_rotate mQSPhoneSignalIconId=0x7f02012a/com.android.systemui:drawable/ic_qs_signal_2 mDataDirectionIconId=0x0/(null) mDataSignalIconId=0x7f020466/com.android.systemui:drawable/stat_sys_signal_2_auto_rotate mDataTypeIconId=0x0/(null) mQSDataTypeIconId=0x0/(null) mNoSimIconId=0x0/(null) mWifiIconId=0x7f020517/com.android.systemui:drawable/stat_sys_wifi_signal_4 mQSWifiIconId=0x7f020143/com.android.systemui:drawable/ic_qs_wifi_4 mWifiActivityIconId=0x7f0204e8/com.android.systemui:drawable/stat_sys_signal_inout mBluetoothTetherIconId=0x10808cc/android:drawable/stat_sys_tether_bluetooth
250311-14 09:16:21.668 1263-1263/? D/STATUSBAR-WifiQuickSettingButton: onWifiSignalChanged enabled=true enabledDesc:"Badger"
250411-14 09:16:21.678 1263-1263/? D/StatusBar.NetworkController: refreshSignalCluster - setNWBoosterIndicators(false)
250511-14 09:16:21.678 1263-1263/? D/StatusBar.NetworkController: applyOpen
250611-14 09:16:21.678 1263-1263/? D/StatusBar.NetworkController: refreshSignalCluster - setNWBoosterIndicators(false)
250711-14 09:16:21.688 1263-1263/? D/StatusBar.NetworkController: applyOpen
250811-14 09:16:21.698 1263-1263/? D/StatusBar.NetworkController: refreshSignalCluster - setNWBoosterIndicators(false)
250911-14 09:16:21.698 1263-1263/? D/StatusBar.NetworkController: applyOpen
251011-14 09:16:21.698 1263-1263/? D/StatusBar.NetworkController: refreshSignalCluster - setNWBoosterIndicators(false)
251111-14 09:16:21.708 1263-1263/? D/StatusBar.NetworkController: applyOpen
251211-14 09:16:21.728 278-278/? D/SurfaceFlinger: FPS : 1.21
251311-14 09:16:21.728 278-278/? W/SurfaceFlinger: Fail to Open /sys/devices/platform/gpusysfs/fps
251411-14 09:16:22.468 24680-24680/? E/SMD: smd Interface open failed errno is 2 -1
251511-14 09:16:22.648 24898-24898/? E/Diag_Lib:  Diag_LSM_Init: Failed to open handle to diag driver, error = 2
251611-14 09:16:23.459 24680-24680/? E/SMD: smd Interface open failed errno is 2 -1
251711-14 09:16:23.700 1263-1263/? D/StatusBar.NetworkController: refreshViews connected={ wifi } level=2 combinedSignalIconId=0x7f020517/com.android.systemui:drawable/stat_sys_wifi_signal_4 mobileLabel=Emergency calls only wifiLabel="Badger"xxxxXXXXxxxxXXXX emergencyOnly=true combinedLabel="Badger"xxxxXXXXxxxxXXXX mAirplaneMode=false mDataActivity=0 mPhoneSignalIconId=0x7f020466/com.android.systemui:drawable/stat_sys_signal_2_auto_rotate mQSPhoneSignalIconId=0x7f02012a/com.android.systemui:drawable/ic_qs_signal_2 mDataDirectionIconId=0x0/(null) mDataSignalIconId=0x7f020466/com.android.systemui:drawable/stat_sys_signal_2_auto_rotate mDataTypeIconId=0x0/(null) mQSDataTypeIconId=0x0/(null) mNoSimIconId=0x0/(null) mWifiIconId=0x7f020517/com.android.systemui:drawable/stat_sys_wifi_signal_4 mQSWifiIconId=0x7f020143/com.android.systemui:drawable/ic_qs_wifi_4 mWifiActivityIconId=0x7f0204e6/com.android.systemui:drawable/stat_sys_signal_in mBluetoothTetherIconId=0x10808cc/android:drawable/stat_sys_tether_bluetooth
251811-14 09:16:23.700 1263-1263/? D/STATUSBAR-WifiQuickSettingButton: onWifiSignalChanged enabled=true enabledDesc:"Badger"
251911-14 09:16:23.700 1263-1263/? D/StatusBar.NetworkController: refreshSignalCluster - setNWBoosterIndicators(false)
252011-14 09:16:23.710 1263-1263/? D/StatusBar.NetworkController: applyOpen
252111-14 09:16:23.720 1263-1263/? D/StatusBar.NetworkController: refreshSignalCluster - setNWBoosterIndicators(false)
252211-14 09:16:23.740 1263-1263/? D/StatusBar.NetworkController: applyOpen
252311-14 09:16:23.740 1263-1263/? D/StatusBar.NetworkController: refreshSignalCluster - setNWBoosterIndicators(false)
252411-14 09:16:23.750 1263-1263/? D/StatusBar.NetworkController: applyOpen
252511-14 09:16:23.750 1263-1263/? D/StatusBar.NetworkController: refreshSignalCluster - setNWBoosterIndicators(false)
252611-14 09:16:23.750 1263-1263/? D/StatusBar.NetworkController: applyOpen
252711-14 09:16:23.760 278-278/? D/SurfaceFlinger: FPS : 0.49
252811-14 09:16:23.760 278-278/? W/SurfaceFlinger: Fail to Open /sys/devices/platform/gpusysfs/fps
252911-14 09:16:23.770 278-278/? D/SurfaceFlinger: FPS : 0.49
253011-14 09:16:23.770 278-278/? W/SurfaceFlinger: Fail to Open /sys/devices/platform/gpusysfs/fps
253111-14 09:16:24.390 1263-1263/? D/StatusBar.NetworkController: onSignalStrengthsChanged signalStrength=SignalStrength: 9 99 -120 -160 -120 -1 -1 99 2147483647 2147483647 2147483647 -1 2147483647 0x2 gsm|lte level=2
253211-14 09:16:24.390 1263-1263/? D/StatusBar.NetworkController: updateTelephonySignalStrength: hasService=true ss=SignalStrength: 9 99 -120 -160 -120 -1 -1 99 2147483647 2147483647 2147483647 -1 2147483647 0x2 gsm|lte
253311-14 09:16:24.400 1263-1263/? D/StatusBar.NetworkController: updateTelephonySignalStrength: iconLevel=2
253411-14 09:16:24.400 1263-1263/? D/StatusBar.NetworkController: updateTelephonySignalStrength, No signal level. mPhoneSignalIconId = com.android.systemui:drawable/stat_sys_signal_2_auto_rotate mDataSignalIconId = com.android.systemui:drawable/stat_sys_signal_2_auto_rotate mQSPhoneSignalIconId = com.android.systemui:drawable/ic_qs_signal_2 mContentDescriptionPhoneSignal = Phone two bars.
253511-14 09:16:24.400 1263-1263/? D/StatusBar.NetworkController: refreshViews connected={ wifi } level=2 combinedSignalIconId=0x7f020517/com.android.systemui:drawable/stat_sys_wifi_signal_4 mobileLabel=Emergency calls only wifiLabel="Badger"xxxxXXXXxxxxXXXX emergencyOnly=true combinedLabel="Badger"xxxxXXXXxxxxXXXX mAirplaneMode=false mDataActivity=0 mPhoneSignalIconId=0x7f020466/com.android.systemui:drawable/stat_sys_signal_2_auto_rotate mQSPhoneSignalIconId=0x7f02012a/com.android.systemui:drawable/ic_qs_signal_2 mDataDirectionIconId=0x0/(null) mDataSignalIconId=0x7f020466/com.android.systemui:drawable/stat_sys_signal_2_auto_rotate mDataTypeIconId=0x0/(null) mQSDataTypeIconId=0x0/(null) mNoSimIconId=0x0/(null) mWifiIconId=0x7f020517/com.android.systemui:drawable/stat_sys_wifi_signal_4 mQSWifiIconId=0x7f020143/com.android.systemui:drawable/ic_qs_wifi_4 mWifiActivityIconId=0x7f0204e6/com.android.systemui:drawable/stat_sys_signal_in mBluetoothTetherIconId=0x10808cc/android:drawable/stat_sys_tether_bluetooth
253611-14 09:16:24.400 1263-1263/? D/STATUSBAR-WifiQuickSettingButton: onWifiSignalChanged enabled=true enabledDesc:"Badger"
253711-14 09:16:24.460 24680-24680/? E/SMD: smd Interface open failed errno is 2 -1
253811-14 09:16:25.061 868-1764/? D/BatteryService: !@BatteryListener : batteryPropertiesChanged!
253911-14 09:16:25.061 868-1764/? D/BatteryService: level:67, scale:100, status:2, health:2, present:true, voltage: 3970, temperature: 327, technology: Li-ion, AC powered:false, USB powered:true, Wireless powered:false, icon:17303687, invalid charger:0
254011-14 09:16:25.061 868-1764/? D/BatteryService: online:4, current avg:460, charge type:1, power sharing:false, high voltage charger:false, capacity:280000, current_now:460
254111-14 09:16:25.061 868-868/? D/BatteryService: Sending ACTION_BATTERY_CHANGED.
254211-14 09:16:25.071 1263-1263/? D/KeyguardUpdateMonitor: received broadcast android.intent.action.BATTERY_CHANGED
254311-14 09:16:25.071 1263-1263/? D/STATUSBAR-PhoneStatusBar:  mBrightnessEnablebySettings = true mBrightnessEnablebyBattery = true mBrightnessEnablebyDisableFlag = true mPmsBrightnessEnablebySettings = true
254411-14 09:16:25.071 868-868/? I/MotionRecognitionService: Plugged
254511-14 09:16:25.071 868-868/? I/MotionRecognitionService: setPowerConnected  = true
254611-14 09:16:25.081 1263-1263/? D/BatteryMeterView: ACTION_BATTERY_CHANGED : level:67 status:2 health:2
254711-14 09:16:25.081 1263-1263/? D/KeyguardUpdateMonitor: handleBatteryUpdate
254811-14 09:16:25.091 1263-1263/? D/BatteryMeterView: ACTION_BATTERY_CHANGED : level:67 status:2 health:2
254911-14 09:16:25.091 1263-1263/? D/BatteryMeterView: ACTION_BATTERY_CHANGED : level:67 status:2 health:2
255011-14 09:16:25.101 278-278/? D/SurfaceFlinger: FPS : 1.49
255111-14 09:16:25.101 278-278/? W/SurfaceFlinger: Fail to Open /sys/devices/platform/gpusysfs/fps
255211-14 09:16:25.201 868-1534/? D/ActivityManager: startService callerProcessName:com.google.android.gms, calleePkgName: com.google.android.gms
255311-14 09:16:25.461 24680-24680/? E/SMD: smd Interface open failed errno is 2 -1
255411-14 09:16:25.732 1263-1263/? D/StatusBar.NetworkController: refreshViews connected={ wifi } level=2 combinedSignalIconId=0x7f020517/com.android.systemui:drawable/stat_sys_wifi_signal_4 mobileLabel=Emergency calls only wifiLabel="Badger"xxxxXXXXxxxxXXXX emergencyOnly=true combinedLabel="Badger"xxxxXXXXxxxxXXXX mAirplaneMode=false mDataActivity=0 mPhoneSignalIconId=0x7f020466/com.android.systemui:drawable/stat_sys_signal_2_auto_rotate mQSPhoneSignalIconId=0x7f02012a/com.android.systemui:drawable/ic_qs_signal_2 mDataDirectionIconId=0x0/(null) mDataSignalIconId=0x7f020466/com.android.systemui:drawable/stat_sys_signal_2_auto_rotate mDataTypeIconId=0x0/(null) mQSDataTypeIconId=0x0/(null) mNoSimIconId=0x0/(null) mWifiIconId=0x7f020517/com.android.systemui:drawable/stat_sys_wifi_signal_4 mQSWifiIconId=0x7f020143/com.android.systemui:drawable/ic_qs_wifi_4 mWifiActivityIconId=0x7f0204e8/com.android.systemui:drawable/stat_sys_signal_inout mBluetoothTetherIconId=0x10808cc/android:drawable/stat_sys_tether_bluetooth
255511-14 09:16:25.732 1263-1263/? D/STATUSBAR-WifiQuickSettingButton: onWifiSignalChanged enabled=true enabledDesc:"Badger"
255611-14 09:16:25.732 1263-1263/? D/StatusBar.NetworkController: refreshSignalCluster - setNWBoosterIndicators(false)
255711-14 09:16:25.732 1263-1263/? D/StatusBar.NetworkController: applyOpen
255811-14 09:16:25.742 1263-1263/? D/StatusBar.NetworkController: refreshSignalCluster - setNWBoosterIndicators(false)
255911-14 09:16:25.742 1263-1263/? D/StatusBar.NetworkController: applyOpen
256011-14 09:16:25.742 1263-1263/? D/StatusBar.NetworkController: refreshSignalCluster - setNWBoosterIndicators(false)
256111-14 09:16:25.742 1263-1263/? D/StatusBar.NetworkController: applyOpen
256211-14 09:16:25.752 1263-1263/? D/StatusBar.NetworkController: refreshSignalCluster - setNWBoosterIndicators(false)
256311-14 09:16:25.752 1263-1263/? D/StatusBar.NetworkController: applyOpen
256411-14 09:16:25.772 278-278/? D/SurfaceFlinger: FPS : 1.50
256511-14 09:16:25.772 278-278/? W/SurfaceFlinger: Fail to Open /sys/devices/platform/gpusysfs/fps
256611-14 09:16:25.802 868-1397/? E/Watchdog: !@Sync 43
256711-14 09:16:26.462 24680-24680/? E/SMD: smd Interface open failed errno is 2 -1
256811-14 09:16:26.742 1263-1263/? D/StatusBar.NetworkController: refreshViews connected={ wifi } level=2 combinedSignalIconId=0x7f020517/com.android.systemui:drawable/stat_sys_wifi_signal_4 mobileLabel=Emergency calls only wifiLabel="Badger"xxxxXXXXxxxxXXXX emergencyOnly=true combinedLabel="Badger"xxxxXXXXxxxxXXXX mAirplaneMode=false mDataActivity=0 mPhoneSignalIconId=0x7f020466/com.android.systemui:drawable/stat_sys_signal_2_auto_rotate mQSPhoneSignalIconId=0x7f02012a/com.android.systemui:drawable/ic_qs_signal_2 mDataDirectionIconId=0x0/(null) mDataSignalIconId=0x7f020466/com.android.systemui:drawable/stat_sys_signal_2_auto_rotate mDataTypeIconId=0x0/(null) mQSDataTypeIconId=0x0/(null) mNoSimIconId=0x0/(null) mWifiIconId=0x7f020517/com.android.systemui:drawable/stat_sys_wifi_signal_4 mQSWifiIconId=0x7f020143/com.android.systemui:drawable/ic_qs_wifi_4 mWifiActivityIconId=0x7f0204e6/com.android.systemui:drawable/stat_sys_signal_in mBluetoothTetherIconId=0x10808cc/android:drawable/stat_sys_tether_bluetooth
256911-14 09:16:26.742 1263-1263/? D/STATUSBAR-WifiQuickSettingButton: onWifiSignalChanged enabled=true enabledDesc:"Badger"
257011-14 09:16:26.742 1263-1263/? D/StatusBar.NetworkController: refreshSignalCluster - setNWBoosterIndicators(false)
257111-14 09:16:26.742 1263-1263/? D/StatusBar.NetworkController: applyOpen
257211-14 09:16:26.752 1263-1263/? D/StatusBar.NetworkController: refreshSignalCluster - setNWBoosterIndicators(false)
257311-14 09:16:26.752 1263-1263/? D/StatusBar.NetworkController: applyOpen
257411-14 09:16:26.752 1263-1263/? D/StatusBar.NetworkController: refreshSignalCluster - setNWBoosterIndicators(false)
257511-14 09:16:26.752 1263-1263/? D/StatusBar.NetworkController: applyOpen
257611-14 09:16:26.752 1263-1263/? D/StatusBar.NetworkController: refreshSignalCluster - setNWBoosterIndicators(false)
257711-14 09:16:26.763 1263-1263/? D/StatusBar.NetworkController: applyOpen
257811-14 09:16:26.793 278-278/? D/SurfaceFlinger: FPS : 0.98
257911-14 09:16:26.793 278-278/? W/SurfaceFlinger: Fail to Open /sys/devices/platform/gpusysfs/fps
258011-14 09:16:27.463 24680-24680/? E/SMD: smd Interface open failed errno is 2 -1
258111-14 09:16:27.713 24920-24920/? E/Diag_Lib:  Diag_LSM_Init: Failed to open handle to diag driver, error = 2
258211-14 09:16:27.743 1263-1263/? D/StatusBar.NetworkController: refreshViews connected={ wifi } level=2 combinedSignalIconId=0x7f020517/com.android.systemui:drawable/stat_sys_wifi_signal_4 mobileLabel=Emergency calls only wifiLabel="Badger"xxxxXXXXxxxxXXXX emergencyOnly=true combinedLabel="Badger"xxxxXXXXxxxxXXXX mAirplaneMode=false mDataActivity=0 mPhoneSignalIconId=0x7f020466/com.android.systemui:drawable/stat_sys_signal_2_auto_rotate mQSPhoneSignalIconId=0x7f02012a/com.android.systemui:drawable/ic_qs_signal_2 mDataDirectionIconId=0x0/(null) mDataSignalIconId=0x7f020466/com.android.systemui:drawable/stat_sys_signal_2_auto_rotate mDataTypeIconId=0x0/(null) mQSDataTypeIconId=0x0/(null) mNoSimIconId=0x0/(null) mWifiIconId=0x7f020517/com.android.systemui:drawable/stat_sys_wifi_signal_4 mQSWifiIconId=0x7f020143/com.android.systemui:drawable/ic_qs_wifi_4 mWifiActivityIconId=0x7f0204e8/com.android.systemui:drawable/stat_sys_signal_inout mBluetoothTetherIconId=0x10808cc/android:drawable/stat_sys_tether_bluetooth
258311-14 09:16:27.753 1263-1263/? D/STATUSBAR-WifiQuickSettingButton: onWifiSignalChanged enabled=true enabledDesc:"Badger"
258411-14 09:16:27.753 1263-1263/? D/StatusBar.NetworkController: refreshSignalCluster - setNWBoosterIndicators(false)
258511-14 09:16:27.753 1263-1263/? D/StatusBar.NetworkController: applyOpen
258611-14 09:16:27.753 1263-1263/? D/StatusBar.NetworkController: refreshSignalCluster - setNWBoosterIndicators(false)
258711-14 09:16:27.753 1263-1263/? D/StatusBar.NetworkController: applyOpen
258811-14 09:16:27.753 1263-1263/? D/StatusBar.NetworkController: refreshSignalCluster - setNWBoosterIndicators(false)
258911-14 09:16:27.753 1263-1263/? D/StatusBar.NetworkController: applyOpen
259011-14 09:16:27.753 1263-1263/? D/StatusBar.NetworkController: refreshSignalCluster - setNWBoosterIndicators(false)
259111-14 09:16:27.753 1263-1263/? D/StatusBar.NetworkController: applyOpen
259211-14 09:16:27.784 278-278/? D/SurfaceFlinger: FPS : 1.01
259311-14 09:16:27.784 278-278/? W/SurfaceFlinger: Fail to Open /sys/devices/platform/gpusysfs/fps
259411-14 09:16:28.464 24680-24680/? E/SMD: smd Interface open failed errno is 2 -1
259511-14 09:16:28.754 1263-1263/? D/StatusBar.NetworkController: refreshViews connected={ wifi } level=2 combinedSignalIconId=0x7f020517/com.android.systemui:drawable/stat_sys_wifi_signal_4 mobileLabel=Emergency calls only wifiLabel="Badger"xxxxXXXXxxxxXXXX emergencyOnly=true combinedLabel="Badger"xxxxXXXXxxxxXXXX mAirplaneMode=false mDataActivity=0 mPhoneSignalIconId=0x7f020466/com.android.systemui:drawable/stat_sys_signal_2_auto_rotate mQSPhoneSignalIconId=0x7f02012a/com.android.systemui:drawable/ic_qs_signal_2 mDataDirectionIconId=0x0/(null) mDataSignalIconId=0x7f020466/com.android.systemui:drawable/stat_sys_signal_2_auto_rotate mDataTypeIconId=0x0/(null) mQSDataTypeIconId=0x0/(null) mNoSimIconId=0x0/(null) mWifiIconId=0x7f020517/com.android.systemui:drawable/stat_sys_wifi_signal_4 mQSWifiIconId=0x7f020143/com.android.systemui:drawable/ic_qs_wifi_4 mWifiActivityIconId=0x7f0204e6/com.android.systemui:drawable/stat_sys_signal_in mBluetoothTetherIconId=0x10808cc/android:drawable/stat_sys_tether_bluetooth
259611-14 09:16:28.754 1263-1263/? D/STATUSBAR-WifiQuickSettingButton: onWifiSignalChanged enabled=true enabledDesc:"Badger"
259711-14 09:16:28.754 1263-1263/? D/StatusBar.NetworkController: refreshSignalCluster - setNWBoosterIndicators(false)
259811-14 09:16:28.754 1263-1263/? D/StatusBar.NetworkController: applyOpen
259911-14 09:16:28.754 1263-1263/? D/StatusBar.NetworkController: refreshSignalCluster - setNWBoosterIndicators(false)
260011-14 09:16:28.754 1263-1263/? D/StatusBar.NetworkController: applyOpen
260111-14 09:16:28.764 1263-1263/? D/StatusBar.NetworkController: refreshSignalCluster - setNWBoosterIndicators(false)
260211-14 09:16:28.764 1263-1263/? D/StatusBar.NetworkController: applyOpen
260311-14 09:16:28.764 1263-1263/? D/StatusBar.NetworkController: refreshSignalCluster - setNWBoosterIndicators(false)
260411-14 09:16:28.764 1263-1263/? D/StatusBar.NetworkController: applyOpen
260511-14 09:16:28.774 278-278/? D/SurfaceFlinger: FPS : 1.00
260611-14 09:16:28.774 278-278/? W/SurfaceFlinger: Fail to Open /sys/devices/platform/gpusysfs/fps
260711-14 09:16:28.995 1263-1263/? D/StatusBar.NetworkController: onSignalStrengthsChanged signalStrength=SignalStrength: 9 99 -120 -160 -120 -1 -1 99 2147483647 2147483647 2147483647 -1 2147483647 0x2 gsm|lte level=2
260811-14 09:16:28.995 1263-1263/? D/StatusBar.NetworkController: updateTelephonySignalStrength: hasService=true ss=SignalStrength: 9 99 -120 -160 -120 -1 -1 99 2147483647 2147483647 2147483647 -1 2147483647 0x2 gsm|lte
260911-14 09:16:28.995 1263-1263/? D/StatusBar.NetworkController: updateTelephonySignalStrength: iconLevel=2
261011-14 09:16:28.995 1263-1263/? D/StatusBar.NetworkController: updateTelephonySignalStrength, No signal level. mPhoneSignalIconId = com.android.systemui:drawable/stat_sys_signal_2_auto_rotate mDataSignalIconId = com.android.systemui:drawable/stat_sys_signal_2_auto_rotate mQSPhoneSignalIconId = com.android.systemui:drawable/ic_qs_signal_2 mContentDescriptionPhoneSignal = Phone two bars.
261111-14 09:16:29.005 1263-1263/? D/StatusBar.NetworkController: refreshViews connected={ wifi } level=2 combinedSignalIconId=0x7f020517/com.android.systemui:drawable/stat_sys_wifi_signal_4 mobileLabel=Emergency calls only wifiLabel="Badger"xxxxXXXXxxxxXXXX emergencyOnly=true combinedLabel="Badger"xxxxXXXXxxxxXXXX mAirplaneMode=false mDataActivity=0 mPhoneSignalIconId=0x7f020466/com.android.systemui:drawable/stat_sys_signal_2_auto_rotate mQSPhoneSignalIconId=0x7f02012a/com.android.systemui:drawable/ic_qs_signal_2 mDataDirectionIconId=0x0/(null) mDataSignalIconId=0x7f020466/com.android.systemui:drawable/stat_sys_signal_2_auto_rotate mDataTypeIconId=0x0/(null) mQSDataTypeIconId=0x0/(null) mNoSimIconId=0x0/(null) mWifiIconId=0x7f020517/com.android.systemui:drawable/stat_sys_wifi_signal_4 mQSWifiIconId=0x7f020143/com.android.systemui:drawable/ic_qs_wifi_4 mWifiActivityIconId=0x7f0204e6/com.android.systemui:drawable/stat_sys_signal_in mBluetoothTetherIconId=0x10808cc/android:drawable/stat_sys_tether_bluetooth
261211-14 09:16:29.005 1263-1263/? D/STATUSBAR-WifiQuickSettingButton: onWifiSignalChanged enabled=true enabledDesc:"Badger"
261311-14 09:16:29.465 24680-24680/? E/SMD: smd Interface open failed errno is 2 -1
261411-14 09:16:29.795 278-278/? D/SurfaceFlinger: FPS : 0.98
261511-14 09:16:29.795 278-278/? W/SurfaceFlinger: Fail to Open /sys/devices/platform/gpusysfs/fps
261611-14 09:16:29.815 304-22404/? E/OMX-VDEC-1080P: Rxd i/p EOS, Notify Driver that EOS has been reached
261711-14 09:16:29.815 304-22404/? E/OMX-VDEC-1080P: Output EOS has been reached
261811-14 09:16:29.825 304-22404/? E/OMX-VDEC-1080P: Rxd OMX_COMPONENT_GENERATE_EOS_DONE
261911-14 09:16:29.986 304-22409/? E/OMX-VDEC-1080P: send_command: Recieved a Command from Client
262011-14 09:16:29.986 304-22404/? E/OMX-VDEC-1080P: send_command_proxy(): cmd = 1, Current State 3, Expected State -1
262111-14 09:16:29.986 304-22404/? E/OMX-VDEC-1080P: send_command_proxy(): OMX_CommandFlush issued with param1: -1
262211-14 09:16:29.986 304-22409/? E/OMX-VDEC-1080P: send_command: Command Processed
262311-14 09:16:29.986 15042-22403/? I/ACodec: [OMX.qcom.video.decoder.avc] Now Flushing
262411-14 09:16:29.996 304-22404/? E/OMX-VDEC-1080P: Driver flush i/p Port complete
262511-14 09:16:29.996 304-22404/? E/OMX-VDEC-1080P: Initiate Input Flush
262611-14 09:16:29.996 304-22404/? E/OMX-VDEC-1080P: OMX flush i/p Port complete PenBuf(0)
262711-14 09:16:29.996 304-22404/? E/OMX-VDEC-1080P: Driver flush o/p Port complete
262811-14 09:16:29.996 304-22404/? E/OMX-VDEC-1080P: Initiate Output Flush
262911-14 09:16:29.996 304-22404/? E/OMX-VDEC-1080P: Buffer queue size 1 pending buf cnt 1
263011-14 09:16:29.996 304-22404/? E/OMX-VDEC-1080P: ID(c) P1(b1d5b850) P2(40000000)
263111-14 09:16:30.006 304-22404/? E/OMX-VDEC-1080P: OMX flush o/p Port complete PenBuf(0)
263211-14 09:16:30.006 15042-22403/? I/ACodec: [OMX.qcom.video.decoder.avc] Now Executing
263311-14 09:16:30.036 304-22404/? E/OMX-VDEC-1080P: Sync frame received
263411-14 09:16:30.466 24680-24680/? E/SMD: smd Interface open failed errno is 2 -1
263511-14 09:16:30.656 868-3238/? D/SSRM:n: SIOP:: AP = 440, CUR = 460
263611-14 09:16:31.457 24680-24680/? E/SMD: smd Interface open failed errno is 2 -1
263711-14 09:16:31.757 1263-1263/? D/StatusBar.NetworkController: refreshViews connected={ wifi } level=2 combinedSignalIconId=0x7f020517/com.android.systemui:drawable/stat_sys_wifi_signal_4 mobileLabel=Emergency calls only wifiLabel="Badger"xxxxXXXXxxxxXXXX emergencyOnly=true combinedLabel="Badger"xxxxXXXXxxxxXXXX mAirplaneMode=false mDataActivity=0 mPhoneSignalIconId=0x7f020466/com.android.systemui:drawable/stat_sys_signal_2_auto_rotate mQSPhoneSignalIconId=0x7f02012a/com.android.systemui:drawable/ic_qs_signal_2 mDataDirectionIconId=0x0/(null) mDataSignalIconId=0x7f020466/com.android.systemui:drawable/stat_sys_signal_2_auto_rotate mDataTypeIconId=0x0/(null) mQSDataTypeIconId=0x0/(null) mNoSimIconId=0x0/(null) mWifiIconId=0x7f020517/com.android.systemui:drawable/stat_sys_wifi_signal_4 mQSWifiIconId=0x7f020143/com.android.systemui:drawable/ic_qs_wifi_4 mWifiActivityIconId=0x7f0204e8/com.android.systemui:drawable/stat_sys_signal_inout mBluetoothTetherIconId=0x10808cc/android:drawable/stat_sys_tether_bluetooth
263811-14 09:16:31.757 1263-1263/? D/STATUSBAR-WifiQuickSettingButton: onWifiSignalChanged enabled=true enabledDesc:"Badger"
263911-14 09:16:31.767 1263-1263/? D/StatusBar.NetworkController: refreshSignalCluster - setNWBoosterIndicators(false)
264011-14 09:16:31.777 1263-1263/? D/StatusBar.NetworkController: applyOpen
264111-14 09:16:31.777 1263-1263/? D/StatusBar.NetworkController: refreshSignalCluster - setNWBoosterIndicators(false)
264211-14 09:16:31.777 1263-1263/? D/StatusBar.NetworkController: applyOpen
264311-14 09:16:31.777 1263-1263/? D/StatusBar.NetworkController: refreshSignalCluster - setNWBoosterIndicators(false)
264411-14 09:16:31.787 1263-1263/? D/StatusBar.NetworkController: applyOpen
264511-14 09:16:31.787 1263-1263/? D/StatusBar.NetworkController: refreshSignalCluster - setNWBoosterIndicators(false)
264611-14 09:16:31.787 1263-1263/? D/StatusBar.NetworkController: applyOpen
264711-14 09:16:31.817 278-278/? D/SurfaceFlinger: FPS : 0.49
264811-14 09:16:31.817 278-278/? W/SurfaceFlinger: Fail to Open /sys/devices/platform/gpusysfs/fps
264911-14 09:16:32.458 24680-24680/? E/SMD: smd Interface open failed errno is 2 -1
265011-14 09:16:32.688 24931-24931/? E/Diag_Lib:  Diag_LSM_Init: Failed to open handle to diag driver, error = 2
265111-14 09:16:33.459 24680-24680/? E/SMD: smd Interface open failed errno is 2 -1
265211-14 09:16:33.789 1263-1263/? D/StatusBar.NetworkController: refreshViews connected={ wifi } level=2 combinedSignalIconId=0x7f020517/com.android.systemui:drawable/stat_sys_wifi_signal_4 mobileLabel=Emergency calls only wifiLabel="Badger"xxxxXXXXxxxxXXXX emergencyOnly=true combinedLabel="Badger"xxxxXXXXxxxxXXXX mAirplaneMode=false mDataActivity=0 mPhoneSignalIconId=0x7f020466/com.android.systemui:drawable/stat_sys_signal_2_auto_rotate mQSPhoneSignalIconId=0x7f02012a/com.android.systemui:drawable/ic_qs_signal_2 mDataDirectionIconId=0x0/(null) mDataSignalIconId=0x7f020466/com.android.systemui:drawable/stat_sys_signal_2_auto_rotate mDataTypeIconId=0x0/(null) mQSDataTypeIconId=0x0/(null) mNoSimIconId=0x0/(null) mWifiIconId=0x7f020517/com.android.systemui:drawable/stat_sys_wifi_signal_4 mQSWifiIconId=0x7f020143/com.android.systemui:drawable/ic_qs_wifi_4 mWifiActivityIconId=0x7f0204e6/com.android.systemui:drawable/stat_sys_signal_in mBluetoothTetherIconId=0x10808cc/android:drawable/stat_sys_tether_bluetooth
265311-14 09:16:33.789 1263-1263/? D/STATUSBAR-WifiQuickSettingButton: onWifiSignalChanged enabled=true enabledDesc:"Badger"
265411-14 09:16:33.799 1263-1263/? D/StatusBar.NetworkController: refreshSignalCluster - setNWBoosterIndicators(false)
265511-14 09:16:33.799 1263-1263/? D/StatusBar.NetworkController: applyOpen
265611-14 09:16:33.799 1263-1263/? D/StatusBar.NetworkController: refreshSignalCluster - setNWBoosterIndicators(false)
265711-14 09:16:33.799 1263-1263/? D/StatusBar.NetworkController: applyOpen
265811-14 09:16:33.799 1263-1263/? D/StatusBar.NetworkController: refreshSignalCluster - setNWBoosterIndicators(false)
265911-14 09:16:33.809 1263-1263/? D/StatusBar.NetworkController: applyOpen
266011-14 09:16:33.809 1263-1263/? D/StatusBar.NetworkController: refreshSignalCluster - setNWBoosterIndicators(false)
266111-14 09:16:33.819 1263-1263/? D/StatusBar.NetworkController: applyOpen
266211-14 09:16:33.829 278-278/? D/SurfaceFlinger: FPS : 0.50
266311-14 09:16:33.829 278-278/? W/SurfaceFlinger: Fail to Open /sys/devices/platform/gpusysfs/fps
266411-14 09:16:34.460 24680-24680/? E/SMD: smd Interface open failed errno is 2 -1
266511-14 09:16:35.091 868-1533/? D/BatteryService: !@BatteryListener : batteryPropertiesChanged!
266611-14 09:16:35.091 868-1533/? D/BatteryService: level:67, scale:100, status:2, health:2, present:true, voltage: 3983, temperature: 328, technology: Li-ion, AC powered:false, USB powered:true, Wireless powered:false, icon:17303687, invalid charger:0
266711-14 09:16:35.101 868-1533/? D/BatteryService: online:4, current avg:460, charge type:1, power sharing:false, high voltage charger:false, capacity:280000, current_now:460
266811-14 09:16:35.101 868-868/? D/BatteryService: Sending ACTION_BATTERY_CHANGED.
266911-14 09:16:35.111 1263-1263/? D/KeyguardUpdateMonitor: received broadcast android.intent.action.BATTERY_CHANGED
267011-14 09:16:35.111 1263-1263/? D/STATUSBAR-PhoneStatusBar:  mBrightnessEnablebySettings = true mBrightnessEnablebyBattery = true mBrightnessEnablebyDisableFlag = true mPmsBrightnessEnablebySettings = true
267111-14 09:16:35.111 868-868/? I/MotionRecognitionService: Plugged
267211-14 09:16:35.111 868-868/? I/MotionRecognitionService: setPowerConnected  = true
267311-14 09:16:35.121 1263-1263/? D/BatteryMeterView: ACTION_BATTERY_CHANGED : level:67 status:2 health:2
267411-14 09:16:35.141 1263-1263/? D/KeyguardUpdateMonitor: handleBatteryUpdate
267511-14 09:16:35.151 1263-1263/? D/BatteryMeterView: ACTION_BATTERY_CHANGED : level:67 status:2 health:2
267611-14 09:16:35.161 1263-1263/? D/BatteryMeterView: ACTION_BATTERY_CHANGED : level:67 status:2 health:2
267711-14 09:16:35.171 278-278/? D/SurfaceFlinger: FPS : 0.74
267811-14 09:16:35.171 278-278/? W/SurfaceFlinger: Fail to Open /sys/devices/platform/gpusysfs/fps
267911-14 09:16:35.461 24680-24680/? E/SMD: smd Interface open failed errno is 2 -1
268011-14 09:16:36.462 24680-24680/? E/SMD: smd Interface open failed errno is 2 -1
268111-14 09:16:37.203 278-278/? D/SurfaceFlinger: FPS : 0.49
268211-14 09:16:37.203 278-278/? W/SurfaceFlinger: Fail to Open /sys/devices/platform/gpusysfs/fps
268311-14 09:16:37.463 24680-24680/? E/SMD: smd Interface open failed errno is 2 -1
268411-14 09:16:37.733 24952-24952/? E/Diag_Lib:  Diag_LSM_Init: Failed to open handle to diag driver, error = 2
268511-14 09:16:38.464 24680-24680/? E/SMD: smd Interface open failed errno is 2 -1
268611-14 09:16:39.465 24680-24680/? E/SMD: smd Interface open failed errno is 2 -1
268711-14 09:16:40.106 304-22404/? E/OMX-VDEC-1080P: Rxd i/p EOS, Notify Driver that EOS has been reached
268811-14 09:16:40.106 304-22404/? E/OMX-VDEC-1080P: Output EOS has been reached
268911-14 09:16:40.106 304-22404/? E/OMX-VDEC-1080P: Rxd OMX_COMPONENT_GENERATE_EOS_DONE
269011-14 09:16:40.266 304-1854/? E/OMX-VDEC-1080P: send_command: Recieved a Command from Client
269111-14 09:16:40.266 304-22404/? E/OMX-VDEC-1080P: send_command_proxy(): cmd = 1, Current State 3, Expected State -1
269211-14 09:16:40.276 304-22404/? E/OMX-VDEC-1080P: send_command_proxy(): OMX_CommandFlush issued with param1: -1
269311-14 09:16:40.276 304-1854/? E/OMX-VDEC-1080P: send_command: Command Processed
269411-14 09:16:40.276 15042-22403/? I/ACodec: [OMX.qcom.video.decoder.avc] Now Flushing
269511-14 09:16:40.276 304-22404/? E/OMX-VDEC-1080P: Driver flush i/p Port complete
269611-14 09:16:40.276 304-22404/? E/OMX-VDEC-1080P: Initiate Input Flush
269711-14 09:16:40.276 304-22404/? E/OMX-VDEC-1080P: OMX flush i/p Port complete PenBuf(0)
269811-14 09:16:40.276 304-22404/? E/OMX-VDEC-1080P: Driver flush o/p Port complete
269911-14 09:16:40.286 304-22404/? E/OMX-VDEC-1080P: Initiate Output Flush
270011-14 09:16:40.286 304-22404/? E/OMX-VDEC-1080P: Buffer queue size 6 pending buf cnt 6
270111-14 09:16:40.286 304-22404/? E/OMX-VDEC-1080P: ID(c) P1(b1d5ba30) P2(40000000)
270211-14 09:16:40.286 304-22404/? E/OMX-VDEC-1080P: Buffer queue size 5 pending buf cnt 5
270311-14 09:16:40.286 304-22404/? E/OMX-VDEC-1080P: ID(c) P1(b1d5ba80) P2(40000000)
270411-14 09:16:40.286 304-22404/? E/OMX-VDEC-1080P: Buffer queue size 4 pending buf cnt 4
270511-14 09:16:40.296 304-22404/? E/OMX-VDEC-1080P: ID(c) P1(b1d5bad0) P2(40000000)
270611-14 09:16:40.296 304-22404/? E/OMX-VDEC-1080P: Buffer queue size 3 pending buf cnt 3
270711-14 09:16:40.296 304-22404/? E/OMX-VDEC-1080P: ID(c) P1(b1d5b940) P2(40000000)
270811-14 09:16:40.296 304-22404/? E/OMX-VDEC-1080P: Buffer queue size 2 pending buf cnt 2
270911-14 09:16:40.296 304-22404/? E/OMX-VDEC-1080P: ID(c) P1(b1d5b990) P2(40000000)
271011-14 09:16:40.296 304-22404/? E/OMX-VDEC-1080P: Buffer queue size 1 pending buf cnt 1
271111-14 09:16:40.306 304-22404/? E/OMX-VDEC-1080P: ID(c) P1(b1d5b9e0) P2(40000000)
271211-14 09:16:40.306 304-22404/? E/OMX-VDEC-1080P: OMX flush o/p Port complete PenBuf(0)
271311-14 09:16:40.306 15042-22403/? I/ACodec: [OMX.qcom.video.decoder.avc] Now Executing
271411-14 09:16:40.336 304-22404/? E/OMX-VDEC-1080P: Sync frame received
271511-14 09:16:40.466 24680-24680/? E/SMD: smd Interface open failed errno is 2 -1
271611-14 09:16:40.686 868-3238/? D/SSRM:n: SIOP:: AP = 430, CUR = 460
271711-14 09:16:41.457 24680-24680/? E/SMD: smd Interface open failed errno is 2 -1
271811-14 09:16:41.817 1263-1263/? D/StatusBar.NetworkController: refreshViews connected={ wifi } level=2 combinedSignalIconId=0x7f020517/com.android.systemui:drawable/stat_sys_wifi_signal_4 mobileLabel=Emergency calls only wifiLabel="Badger"xxxxXXXXxxxxXXXX emergencyOnly=true combinedLabel="Badger"xxxxXXXXxxxxXXXX mAirplaneMode=false mDataActivity=0 mPhoneSignalIconId=0x7f020466/com.android.systemui:drawable/stat_sys_signal_2_auto_rotate mQSPhoneSignalIconId=0x7f02012a/com.android.systemui:drawable/ic_qs_signal_2 mDataDirectionIconId=0x0/(null) mDataSignalIconId=0x7f020466/com.android.systemui:drawable/stat_sys_signal_2_auto_rotate mDataTypeIconId=0x0/(null) mQSDataTypeIconId=0x0/(null) mNoSimIconId=0x0/(null) mWifiIconId=0x7f020517/com.android.systemui:drawable/stat_sys_wifi_signal_4 mQSWifiIconId=0x7f020143/com.android.systemui:drawable/ic_qs_wifi_4 mWifiActivityIconId=0x7f0204e8/com.android.systemui:drawable/stat_sys_signal_inout mBluetoothTetherIconId=0x10808cc/android:drawable/stat_sys_tether_bluetooth
271911-14 09:16:41.827 1263-1263/? D/STATUSBAR-WifiQuickSettingButton: onWifiSignalChanged enabled=true enabledDesc:"Badger"
272011-14 09:16:41.827 1263-1263/? D/StatusBar.NetworkController: refreshSignalCluster - setNWBoosterIndicators(false)
272111-14 09:16:41.837 1263-1263/? D/StatusBar.NetworkController: applyOpen
272211-14 09:16:41.837 1263-1263/? D/StatusBar.NetworkController: refreshSignalCluster - setNWBoosterIndicators(false)
272311-14 09:16:41.847 1263-1263/? D/StatusBar.NetworkController: applyOpen
272411-14 09:16:41.867 1263-1263/? D/StatusBar.NetworkController: refreshSignalCluster - setNWBoosterIndicators(false)
272511-14 09:16:41.867 1263-1263/? D/StatusBar.NetworkController: applyOpen
272611-14 09:16:41.867 1263-1263/? D/StatusBar.NetworkController: refreshSignalCluster - setNWBoosterIndicators(false)
272711-14 09:16:41.877 1263-1263/? D/StatusBar.NetworkController: applyOpen
272811-14 09:16:41.887 278-278/? D/SurfaceFlinger: FPS : 0.21
272911-14 09:16:41.887 278-278/? W/SurfaceFlinger: Fail to Open /sys/devices/platform/gpusysfs/fps
273011-14 09:16:42.488 24956-24956/? E/Diag_Lib:  Diag_LSM_Init: Failed to open handle to diag driver, error = 2
273111-14 09:16:43.849 1263-1263/? D/StatusBar.NetworkController: refreshViews connected={ wifi } level=2 combinedSignalIconId=0x7f020517/com.android.systemui:drawable/stat_sys_wifi_signal_4 mobileLabel=Emergency calls only wifiLabel="Badger"xxxxXXXXxxxxXXXX emergencyOnly=true combinedLabel="Badger"xxxxXXXXxxxxXXXX mAirplaneMode=false mDataActivity=0 mPhoneSignalIconId=0x7f020466/com.android.systemui:drawable/stat_sys_signal_2_auto_rotate mQSPhoneSignalIconId=0x7f02012a/com.android.systemui:drawable/ic_qs_signal_2 mDataDirectionIconId=0x0/(null) mDataSignalIconId=0x7f020466/com.android.systemui:drawable/stat_sys_signal_2_auto_rotate mDataTypeIconId=0x0/(null) mQSDataTypeIconId=0x0/(null) mNoSimIconId=0x0/(null) mWifiIconId=0x7f020517/com.android.systemui:drawable/stat_sys_wifi_signal_4 mQSWifiIconId=0x7f020143/com.android.systemui:drawable/ic_qs_wifi_4 mWifiActivityIconId=0x7f0204e6/com.android.systemui:drawable/stat_sys_signal_in mBluetoothTetherIconId=0x10808cc/android:drawable/stat_sys_tether_bluetooth
273211-14 09:16:43.849 1263-1263/? D/STATUSBAR-WifiQuickSettingButton: onWifiSignalChanged enabled=true enabledDesc:"Badger"
273311-14 09:16:43.849 1263-1263/? D/StatusBar.NetworkController: refreshSignalCluster - setNWBoosterIndicators(false)
273411-14 09:16:43.849 1263-1263/? D/StatusBar.NetworkController: applyOpen
273511-14 09:16:43.859 1263-1263/? D/StatusBar.NetworkController: refreshSignalCluster - setNWBoosterIndicators(false)
273611-14 09:16:43.859 1263-1263/? D/StatusBar.NetworkController: applyOpen
273711-14 09:16:43.869 1263-1263/? D/StatusBar.NetworkController: refreshSignalCluster - setNWBoosterIndicators(false)
273811-14 09:16:43.869 1263-1263/? D/StatusBar.NetworkController: applyOpen
273911-14 09:16:43.879 1263-1263/? D/StatusBar.NetworkController: refreshSignalCluster - setNWBoosterIndicators(false)
274011-14 09:16:43.879 1263-1263/? D/StatusBar.NetworkController: applyOpen
274111-14 09:16:43.909 278-278/? D/SurfaceFlinger: FPS : 0.50
274211-14 09:16:43.909 278-278/? W/SurfaceFlinger: Fail to Open /sys/devices/platform/gpusysfs/fps
274311-14 09:16:45.211 868-1766/? D/ActivityManager: startService callerProcessName:com.google.android.gms, calleePkgName: com.google.android.gms
274411-14 09:16:45.821 1263-1263/? D/StatusBar.NetworkController: onSignalStrengthsChanged signalStrength=SignalStrength: 9 99 -120 -160 -120 -1 -1 99 2147483647 2147483647 2147483647 -1 2147483647 0x2 gsm|lte level=2
274511-14 09:16:45.821 1263-1263/? D/StatusBar.NetworkController: updateTelephonySignalStrength: hasService=true ss=SignalStrength: 9 99 -120 -160 -120 -1 -1 99 2147483647 2147483647 2147483647 -1 2147483647 0x2 gsm|lte
274611-14 09:16:45.821 1263-1263/? D/StatusBar.NetworkController: updateTelephonySignalStrength: iconLevel=2
274711-14 09:16:45.821 1263-1263/? D/StatusBar.NetworkController: updateTelephonySignalStrength, No signal level. mPhoneSignalIconId = com.android.systemui:drawable/stat_sys_signal_2_auto_rotate mDataSignalIconId = com.android.systemui:drawable/stat_sys_signal_2_auto_rotate mQSPhoneSignalIconId = com.android.systemui:drawable/ic_qs_signal_2 mContentDescriptionPhoneSignal = Phone two bars.
274811-14 09:16:45.831 1263-1263/? D/StatusBar.NetworkController: refreshViews connected={ wifi } level=2 combinedSignalIconId=0x7f020517/com.android.systemui:drawable/stat_sys_wifi_signal_4 mobileLabel=Emergency calls only wifiLabel="Badger"xxxxXXXXxxxxXXXX emergencyOnly=true combinedLabel="Badger"xxxxXXXXxxxxXXXX mAirplaneMode=false mDataActivity=0 mPhoneSignalIconId=0x7f020466/com.android.systemui:drawable/stat_sys_signal_2_auto_rotate mQSPhoneSignalIconId=0x7f02012a/com.android.systemui:drawable/ic_qs_signal_2 mDataDirectionIconId=0x0/(null) mDataSignalIconId=0x7f020466/com.android.systemui:drawable/stat_sys_signal_2_auto_rotate mDataTypeIconId=0x0/(null) mQSDataTypeIconId=0x0/(null) mNoSimIconId=0x0/(null) mWifiIconId=0x7f020517/com.android.systemui:drawable/stat_sys_wifi_signal_4 mQSWifiIconId=0x7f020143/com.android.systemui:drawable/ic_qs_wifi_4 mWifiActivityIconId=0x7f0204e6/com.android.systemui:drawable/stat_sys_signal_in mBluetoothTetherIconId=0x10808cc/android:drawable/stat_sys_tether_bluetooth
274911-14 09:16:45.831 1263-1263/? D/STATUSBAR-WifiQuickSettingButton: onWifiSignalChanged enabled=true enabledDesc:"Badger"
275011-14 09:16:45.851 1263-1263/? D/StatusBar.NetworkController: refreshViews connected={ wifi } level=2 combinedSignalIconId=0x7f020517/com.android.systemui:drawable/stat_sys_wifi_signal_4 mobileLabel=Emergency calls only wifiLabel="Badger"xxxxXXXXxxxxXXXX emergencyOnly=true combinedLabel="Badger"xxxxXXXXxxxxXXXX mAirplaneMode=false mDataActivity=0 mPhoneSignalIconId=0x7f020466/com.android.systemui:drawable/stat_sys_signal_2_auto_rotate mQSPhoneSignalIconId=0x7f02012a/com.android.systemui:drawable/ic_qs_signal_2 mDataDirectionIconId=0x0/(null) mDataSignalIconId=0x7f020466/com.android.systemui:drawable/stat_sys_signal_2_auto_rotate mDataTypeIconId=0x0/(null) mQSDataTypeIconId=0x0/(null) mNoSimIconId=0x0/(null) mWifiIconId=0x7f020517/com.android.systemui:drawable/stat_sys_wifi_signal_4 mQSWifiIconId=0x7f020143/com.android.systemui:drawable/ic_qs_wifi_4 mWifiActivityIconId=0x7f0204e8/com.android.systemui:drawable/stat_sys_signal_inout mBluetoothTetherIconId=0x10808cc/android:drawable/stat_sys_tether_bluetooth
275111-14 09:16:45.851 1263-1263/? D/STATUSBAR-WifiQuickSettingButton: onWifiSignalChanged enabled=true enabledDesc:"Badger"
275211-14 09:16:45.851 1263-1263/? D/StatusBar.NetworkController: refreshSignalCluster - setNWBoosterIndicators(false)
275311-14 09:16:45.851 1263-1263/? D/StatusBar.NetworkController: applyOpen
275411-14 09:16:45.861 1263-1263/? D/StatusBar.NetworkController: refreshSignalCluster - setNWBoosterIndicators(false)
275511-14 09:16:45.861 1263-1263/? D/StatusBar.NetworkController: applyOpen
275611-14 09:16:45.861 1263-1263/? D/StatusBar.NetworkController: refreshSignalCluster - setNWBoosterIndicators(false)
275711-14 09:16:45.861 1263-1263/? D/StatusBar.NetworkController: applyOpen
275811-14 09:16:45.861 1263-1263/? D/StatusBar.NetworkController: refreshSignalCluster - setNWBoosterIndicators(false)
275911-14 09:16:45.861 1263-1263/? D/StatusBar.NetworkController: applyOpen
276011-14 09:16:45.881 278-278/? D/SurfaceFlinger: FPS : 0.51
276111-14 09:16:45.881 278-278/? W/SurfaceFlinger: Fail to Open /sys/devices/platform/gpusysfs/fps
276211-14 09:16:46.862 1263-1263/? D/StatusBar.NetworkController: refreshViews connected={ wifi } level=2 combinedSignalIconId=0x7f020517/com.android.systemui:drawable/stat_sys_wifi_signal_4 mobileLabel=Emergency calls only wifiLabel="Badger"xxxxXXXXxxxxXXXX emergencyOnly=true combinedLabel="Badger"xxxxXXXXxxxxXXXX mAirplaneMode=false mDataActivity=0 mPhoneSignalIconId=0x7f020466/com.android.systemui:drawable/stat_sys_signal_2_auto_rotate mQSPhoneSignalIconId=0x7f02012a/com.android.systemui:drawable/ic_qs_signal_2 mDataDirectionIconId=0x0/(null) mDataSignalIconId=0x7f020466/com.android.systemui:drawable/stat_sys_signal_2_auto_rotate mDataTypeIconId=0x0/(null) mQSDataTypeIconId=0x0/(null) mNoSimIconId=0x0/(null) mWifiIconId=0x7f020517/com.android.systemui:drawable/stat_sys_wifi_signal_4 mQSWifiIconId=0x7f020143/com.android.systemui:drawable/ic_qs_wifi_4 mWifiActivityIconId=0x7f0204e6/com.android.systemui:drawable/stat_sys_signal_in mBluetoothTetherIconId=0x10808cc/android:drawable/stat_sys_tether_bluetooth
276311-14 09:16:46.862 1263-1263/? D/STATUSBAR-WifiQuickSettingButton: onWifiSignalChanged enabled=true enabledDesc:"Badger"
276411-14 09:16:46.872 1263-1263/? D/StatusBar.NetworkController: refreshSignalCluster - setNWBoosterIndicators(false)
276511-14 09:16:46.872 1263-1263/? D/StatusBar.NetworkController: applyOpen
276611-14 09:16:46.872 1263-1263/? D/StatusBar.NetworkController: refreshSignalCluster - setNWBoosterIndicators(false)
276711-14 09:16:46.872 1263-1263/? D/StatusBar.NetworkController: applyOpen
276811-14 09:16:46.882 1263-1263/? D/StatusBar.NetworkController: refreshSignalCluster - setNWBoosterIndicators(false)
276911-14 09:16:46.882 1263-1263/? D/StatusBar.NetworkController: applyOpen
277011-14 09:16:46.892 1263-1263/? D/StatusBar.NetworkController: refreshSignalCluster - setNWBoosterIndicators(false)
277111-14 09:16:46.892 1263-1263/? D/StatusBar.NetworkController: applyOpen
277211-14 09:16:46.912 278-278/? D/SurfaceFlinger: FPS : 0.97
277311-14 09:16:46.912 278-278/? W/SurfaceFlinger: Fail to Open /sys/devices/platform/gpusysfs/fps
277411-14 09:16:47.523 24960-24960/? E/Diag_Lib:  Diag_LSM_Init: Failed to open handle to diag driver, error = 2
277511-14 09:16:48.894 278-278/? D/SurfaceFlinger: FPS : 0.50
277611-14 09:16:48.894 278-278/? W/SurfaceFlinger: Fail to Open /sys/devices/platform/gpusysfs/fps
277711-14 09:16:49.134 1263-1263/? D/StatusBar.NetworkController: onSignalStrengthsChanged signalStrength=SignalStrength: 9 99 -120 -160 -120 -1 -1 99 2147483647 2147483647 2147483647 -1 2147483647 0x2 gsm|lte level=2
277811-14 09:16:49.134 1263-1263/? D/StatusBar.NetworkController: updateTelephonySignalStrength: hasService=true ss=SignalStrength: 9 99 -120 -160 -120 -1 -1 99 2147483647 2147483647 2147483647 -1 2147483647 0x2 gsm|lte
277911-14 09:16:49.134 1263-1263/? D/StatusBar.NetworkController: updateTelephonySignalStrength: iconLevel=2
278011-14 09:16:49.134 1263-1263/? D/StatusBar.NetworkController: updateTelephonySignalStrength, No signal level. mPhoneSignalIconId = com.android.systemui:drawable/stat_sys_signal_2_auto_rotate mDataSignalIconId = com.android.systemui:drawable/stat_sys_signal_2_auto_rotate mQSPhoneSignalIconId = com.android.systemui:drawable/ic_qs_signal_2 mContentDescriptionPhoneSignal = Phone two bars.
278111-14 09:16:49.134 1263-1263/? D/StatusBar.NetworkController: refreshViews connected={ wifi } level=2 combinedSignalIconId=0x7f020517/com.android.systemui:drawable/stat_sys_wifi_signal_4 mobileLabel=Emergency calls only wifiLabel="Badger"xxxxXXXXxxxxXXXX emergencyOnly=true combinedLabel="Badger"xxxxXXXXxxxxXXXX mAirplaneMode=false mDataActivity=0 mPhoneSignalIconId=0x7f020466/com.android.systemui:drawable/stat_sys_signal_2_auto_rotate mQSPhoneSignalIconId=0x7f02012a/com.android.systemui:drawable/ic_qs_signal_2 mDataDirectionIconId=0x0/(null) mDataSignalIconId=0x7f020466/com.android.systemui:drawable/stat_sys_signal_2_auto_rotate mDataTypeIconId=0x0/(null) mQSDataTypeIconId=0x0/(null) mNoSimIconId=0x0/(null) mWifiIconId=0x7f020517/com.android.systemui:drawable/stat_sys_wifi_signal_4 mQSWifiIconId=0x7f020143/com.android.systemui:drawable/ic_qs_wifi_4 mWifiActivityIconId=0x7f0204e6/com.android.systemui:drawable/stat_sys_signal_in mBluetoothTetherIconId=0x10808cc/android:drawable/stat_sys_tether_bluetooth
278211-14 09:16:49.134 1263-1263/? D/STATUSBAR-WifiQuickSettingButton: onWifiSignalChanged enabled=true enabledDesc:"Badger"
278311-14 09:16:50.396 304-22404/? E/OMX-VDEC-1080P: Rxd i/p EOS, Notify Driver that EOS has been reached
278411-14 09:16:50.396 304-22404/? E/OMX-VDEC-1080P: Output EOS has been reached
278511-14 09:16:50.396 304-22404/? E/OMX-VDEC-1080P: Rxd OMX_COMPONENT_GENERATE_EOS_DONE
278611-14 09:16:50.556 304-763/? E/OMX-VDEC-1080P: send_command: Recieved a Command from Client
278711-14 09:16:50.556 304-22404/? E/OMX-VDEC-1080P: send_command_proxy(): cmd = 1, Current State 3, Expected State -1
278811-14 09:16:50.566 304-22404/? E/OMX-VDEC-1080P: send_command_proxy(): OMX_CommandFlush issued with param1: -1
278911-14 09:16:50.566 304-763/? E/OMX-VDEC-1080P: send_command: Command Processed
279011-14 09:16:50.566 15042-22403/? I/ACodec: [OMX.qcom.video.decoder.avc] Now Flushing
279111-14 09:16:50.566 304-22404/? E/OMX-VDEC-1080P: Driver flush i/p Port complete
279211-14 09:16:50.566 304-22404/? E/OMX-VDEC-1080P: Initiate Input Flush
279311-14 09:16:50.566 304-22404/? E/OMX-VDEC-1080P: OMX flush i/p Port complete PenBuf(0)
279411-14 09:16:50.576 304-22404/? E/OMX-VDEC-1080P: Driver flush o/p Port complete
279511-14 09:16:50.576 304-22404/? E/OMX-VDEC-1080P: Initiate Output Flush
279611-14 09:16:50.576 304-22404/? E/OMX-VDEC-1080P: Buffer queue size 6 pending buf cnt 6
279711-14 09:16:50.576 304-22404/? E/OMX-VDEC-1080P: ID(c) P1(b1d5ba30) P2(40000000)
279811-14 09:16:50.576 304-22404/? E/OMX-VDEC-1080P: Buffer queue size 5 pending buf cnt 5
279911-14 09:16:50.576 304-22404/? E/OMX-VDEC-1080P: ID(c) P1(b1d5ba80) P2(40000000)
280011-14 09:16:50.586 304-22404/? E/OMX-VDEC-1080P: Buffer queue size 4 pending buf cnt 4
280111-14 09:16:50.586 304-22404/? E/OMX-VDEC-1080P: ID(c) P1(b1d5bad0) P2(40000000)
280211-14 09:16:50.586 304-22404/? E/OMX-VDEC-1080P: Buffer queue size 3 pending buf cnt 3
280311-14 09:16:50.586 304-22404/? E/OMX-VDEC-1080P: ID(c) P1(b1d5bb20) P2(40000000)
280411-14 09:16:50.586 304-22404/? E/OMX-VDEC-1080P: Buffer queue size 2 pending buf cnt 2
280511-14 09:16:50.586 304-22404/? E/OMX-VDEC-1080P: ID(c) P1(b1d5bb70) P2(40000000)
280611-14 09:16:50.596 304-22404/? E/OMX-VDEC-1080P: Buffer queue size 1 pending buf cnt 1
280711-14 09:16:50.596 304-22404/? E/OMX-VDEC-1080P: ID(c) P1(b1d5b800) P2(40000000)
280811-14 09:16:50.596 304-22404/? E/OMX-VDEC-1080P: OMX flush o/p Port complete PenBuf(0)
280911-14 09:16:50.596 15042-22403/? I/ACodec: [OMX.qcom.video.decoder.avc] Now Executing
281011-14 09:16:50.626 304-22404/? E/OMX-VDEC-1080P: Sync frame received
281111-14 09:16:50.706 868-3238/? D/SSRM:n: SIOP:: AP = 430, CUR = 460
281211-14 09:16:51.517 24953-24953/? E/SMD: smd_init start
281311-14 09:16:51.517 24953-24953/? E/SMD: smd Interface open failed errno is 2 -1
281411-14 09:16:51.887 1263-1263/? D/StatusBar.NetworkController: refreshViews connected={ wifi } level=2 combinedSignalIconId=0x7f020517/com.android.systemui:drawable/stat_sys_wifi_signal_4 mobileLabel=Emergency calls only wifiLabel="Badger"xxxxXXXXxxxxXXXX emergencyOnly=true combinedLabel="Badger"xxxxXXXXxxxxXXXX mAirplaneMode=false mDataActivity=0 mPhoneSignalIconId=0x7f020466/com.android.systemui:drawable/stat_sys_signal_2_auto_rotate mQSPhoneSignalIconId=0x7f02012a/com.android.systemui:drawable/ic_qs_signal_2 mDataDirectionIconId=0x0/(null) mDataSignalIconId=0x7f020466/com.android.systemui:drawable/stat_sys_signal_2_auto_rotate mDataTypeIconId=0x0/(null) mQSDataTypeIconId=0x0/(null) mNoSimIconId=0x0/(null) mWifiIconId=0x7f020517/com.android.systemui:drawable/stat_sys_wifi_signal_4 mQSWifiIconId=0x7f020143/com.android.systemui:drawable/ic_qs_wifi_4 mWifiActivityIconId=0x7f0204e8/com.android.systemui:drawable/stat_sys_signal_inout mBluetoothTetherIconId=0x10808cc/android:drawable/stat_sys_tether_bluetooth
281511-14 09:16:51.887 1263-1263/? D/STATUSBAR-WifiQuickSettingButton: onWifiSignalChanged enabled=true enabledDesc:"Badger"
281611-14 09:16:51.887 1263-1263/? D/StatusBar.NetworkController: refreshSignalCluster - setNWBoosterIndicators(false)
281711-14 09:16:51.887 1263-1263/? D/StatusBar.NetworkController: applyOpen
281811-14 09:16:51.897 1263-1263/? D/StatusBar.NetworkController: refreshSignalCluster - setNWBoosterIndicators(false)
281911-14 09:16:51.897 1263-1263/? D/StatusBar.NetworkController: applyOpen
282011-14 09:16:51.897 1263-1263/? D/StatusBar.NetworkController: refreshSignalCluster - setNWBoosterIndicators(false)
282111-14 09:16:51.897 1263-1263/? D/StatusBar.NetworkController: applyOpen
282211-14 09:16:51.907 1263-1263/? D/StatusBar.NetworkController: refreshSignalCluster - setNWBoosterIndicators(false)
282311-14 09:16:51.907 1263-1263/? D/StatusBar.NetworkController: applyOpen
282411-14 09:16:51.927 278-278/? D/SurfaceFlinger: FPS : 0.33
282511-14 09:16:51.927 278-278/? W/SurfaceFlinger: Fail to Open /sys/devices/platform/gpusysfs/fps
282611-14 09:16:52.528 24953-24953/? E/SMD: smd Interface open failed errno is 2 -1
282711-14 09:16:52.718 24995-24995/? E/Diag_Lib:  Diag_LSM_Init: Failed to open handle to diag driver, error = 2
282811-14 09:16:52.858 868-1120/? V/AlarmManager: waitForAlarm result :4
282911-14 09:16:52.888 868-1190/? D/ConnectivityService: returning getActiveNetworkInfo :[type: WIFI[] - WIFI, state: CONNECTED/CONNECTED, reason: (unspecified), extra: "Badger", roaming: false, failover: false, isAvailable: true, isConnectedToProvisioningNetwork: false]
283011-14 09:16:52.908 868-1768/? D/BatteryService: !@BatteryListener : batteryPropertiesChanged!
283111-14 09:16:52.908 868-1768/? D/BatteryService: level:67, scale:100, status:2, health:2, present:true, voltage: 3975, temperature: 328, technology: Li-ion, AC powered:false, USB powered:true, Wireless powered:false, icon:17303687, invalid charger:0
283211-14 09:16:52.908 868-1768/? D/BatteryService: online:4, current avg:460, charge type:1, power sharing:false, high voltage charger:false, capacity:280000, current_now:460
283311-14 09:16:52.908 868-868/? D/BatteryService: Sending ACTION_BATTERY_CHANGED.
283411-14 09:16:52.918 868-1646/? D/ConnectivityService: returning getActiveNetworkInfo :[type: WIFI[] - WIFI, state: CONNECTED/CONNECTED, reason: (unspecified), extra: "Badger", roaming: false, failover: false, isAvailable: true, isConnectedToProvisioningNetwork: false]
283511-14 09:16:52.928 1263-1263/? D/KeyguardUpdateMonitor: received broadcast android.intent.action.BATTERY_CHANGED
283611-14 09:16:52.928 1263-1263/? D/KeyguardUpdateMonitor: handleBatteryUpdate
283711-14 09:16:52.938 868-868/? I/MotionRecognitionService: Plugged
283811-14 09:16:52.938 868-868/? I/MotionRecognitionService: setPowerConnected  = true
283911-14 09:16:52.938 1263-1263/? D/STATUSBAR-PhoneStatusBar:  mBrightnessEnablebySettings = true mBrightnessEnablebyBattery = true mBrightnessEnablebyDisableFlag = true mPmsBrightnessEnablebySettings = true
284011-14 09:16:52.938 1263-1263/? D/BatteryMeterView: ACTION_BATTERY_CHANGED : level:67 status:2 health:2
284111-14 09:16:52.948 1263-1263/? D/BatteryMeterView: ACTION_BATTERY_CHANGED : level:67 status:2 health:2
284211-14 09:16:52.948 1263-1263/? D/BatteryMeterView: ACTION_BATTERY_CHANGED : level:67 status:2 health:2
284311-14 09:16:52.958 278-278/? D/SurfaceFlinger: FPS : 0.97
284411-14 09:16:52.958 278-278/? W/SurfaceFlinger: Fail to Open /sys/devices/platform/gpusysfs/fps
284511-14 09:16:52.978 868-1534/? D/ConnectivityService: returning getActiveNetworkInfo :[type: WIFI[] - WIFI, state: CONNECTED/CONNECTED, reason: (unspecified), extra: "Badger", roaming: false, failover: false, isAvailable: true, isConnectedToProvisioningNetwork: false]
284611-14 09:16:52.988 868-1768/? D/ConnectivityService: returning getActiveNetworkInfo :[type: WIFI[] - WIFI, state: CONNECTED/CONNECTED, reason: (unspecified), extra: "Badger", roaming: false, failover: false, isAvailable: true, isConnectedToProvisioningNetwork: false]
284711-14 09:16:53.529 24953-24953/? E/SMD: smd Interface open failed errno is 2 -1
284811-14 09:16:54.249 868-1003/? W/ProcessCpuTracker: Skipping unknown process pid 24981
284911-14 09:16:54.249 868-1003/? W/ProcessCpuTracker: Skipping unknown process pid 24983
285011-14 09:16:54.249 868-1003/? W/ProcessCpuTracker: Skipping unknown process pid 24985
285111-14 09:16:54.249 868-1003/? W/ProcessCpuTracker: Skipping unknown process pid 24987
285211-14 09:16:54.249 868-1003/? W/ProcessCpuTracker: Skipping unknown process pid 24992
285311-14 09:16:54.249 868-1003/? W/ProcessCpuTracker: Skipping unknown process pid 24998
285411-14 09:16:54.259 868-1003/? W/ProcessCpuTracker: Skipping unknown process pid 25000
285511-14 09:16:54.530 24953-24953/? E/SMD: smd Interface open failed errno is 2 -1
285611-14 09:16:54.910 1263-1263/? D/StatusBar.NetworkController: refreshViews connected={ wifi } level=2 combinedSignalIconId=0x7f020517/com.android.systemui:drawable/stat_sys_wifi_signal_4 mobileLabel=Emergency calls only wifiLabel="Badger"xxxxXXXXxxxxXXXX emergencyOnly=true combinedLabel="Badger"xxxxXXXXxxxxXXXX mAirplaneMode=false mDataActivity=0 mPhoneSignalIconId=0x7f020466/com.android.systemui:drawable/stat_sys_signal_2_auto_rotate mQSPhoneSignalIconId=0x7f02012a/com.android.systemui:drawable/ic_qs_signal_2 mDataDirectionIconId=0x0/(null) mDataSignalIconId=0x7f020466/com.android.systemui:drawable/stat_sys_signal_2_auto_rotate mDataTypeIconId=0x0/(null) mQSDataTypeIconId=0x0/(null) mNoSimIconId=0x0/(null) mWifiIconId=0x7f020517/com.android.systemui:drawable/stat_sys_wifi_signal_4 mQSWifiIconId=0x7f020143/com.android.systemui:drawable/ic_qs_wifi_4 mWifiActivityIconId=0x7f0204e6/com.android.systemui:drawable/stat_sys_signal_in mBluetoothTetherIconId=0x10808cc/android:drawable/stat_sys_tether_bluetooth
285711-14 09:16:54.920 1263-1263/? D/STATUSBAR-WifiQuickSettingButton: onWifiSignalChanged enabled=true enabledDesc:"Badger"
285811-14 09:16:54.920 1263-1263/? D/StatusBar.NetworkController: refreshSignalCluster - setNWBoosterIndicators(false)
285911-14 09:16:54.920 1263-1263/? D/StatusBar.NetworkController: applyOpen
286011-14 09:16:54.920 1263-1263/? D/StatusBar.NetworkController: refreshSignalCluster - setNWBoosterIndicators(false)
286111-14 09:16:54.920 1263-1263/? D/StatusBar.NetworkController: applyOpen
286211-14 09:16:54.920 1263-1263/? D/StatusBar.NetworkController: refreshSignalCluster - setNWBoosterIndicators(false)
286311-14 09:16:54.930 1263-1263/? D/StatusBar.NetworkController: applyOpen
286411-14 09:16:54.930 1263-1263/? D/StatusBar.NetworkController: refreshSignalCluster - setNWBoosterIndicators(false)
286511-14 09:16:54.930 1263-1263/? D/StatusBar.NetworkController: applyOpen
286611-14 09:16:54.940 278-278/? D/SurfaceFlinger: FPS : 0.51
286711-14 09:16:54.940 278-278/? W/SurfaceFlinger: Fail to Open /sys/devices/platform/gpusysfs/fps
286811-14 09:16:54.960 278-278/? D/SurfaceFlinger: FPS : 0.51
286911-14 09:16:54.960 278-278/? W/SurfaceFlinger: Fail to Open /sys/devices/platform/gpusysfs/fps
287011-14 09:16:55.531 24953-24953/? E/SMD: smd Interface open failed errno is 2 -1
287111-14 09:16:55.801 868-1397/? E/Watchdog: !@Sync 44
287211-14 09:16:56.532 24953-24953/? E/SMD: smd Interface open failed errno is 2 -1
287311-14 09:16:56.922 1263-1263/? D/StatusBar.NetworkController: refreshViews connected={ wifi } level=2 combinedSignalIconId=0x7f020517/com.android.systemui:drawable/stat_sys_wifi_signal_4 mobileLabel=Emergency calls only wifiLabel="Badger"xxxxXXXXxxxxXXXX emergencyOnly=true combinedLabel="Badger"xxxxXXXXxxxxXXXX mAirplaneMode=false mDataActivity=0 mPhoneSignalIconId=0x7f020466/com.android.systemui:drawable/stat_sys_signal_2_auto_rotate mQSPhoneSignalIconId=0x7f02012a/com.android.systemui:drawable/ic_qs_signal_2 mDataDirectionIconId=0x0/(null) mDataSignalIconId=0x7f020466/com.android.systemui:drawable/stat_sys_signal_2_auto_rotate mDataTypeIconId=0x0/(null) mQSDataTypeIconId=0x0/(null) mNoSimIconId=0x0/(null) mWifiIconId=0x7f020517/com.android.systemui:drawable/stat_sys_wifi_signal_4 mQSWifiIconId=0x7f020143/com.android.systemui:drawable/ic_qs_wifi_4 mWifiActivityIconId=0x7f0204e8/com.android.systemui:drawable/stat_sys_signal_inout mBluetoothTetherIconId=0x10808cc/android:drawable/stat_sys_tether_bluetooth
287411-14 09:16:56.922 1263-1263/? D/STATUSBAR-WifiQuickSettingButton: onWifiSignalChanged enabled=true enabledDesc:"Badger"
287511-14 09:16:56.932 1263-1263/? D/StatusBar.NetworkController: refreshSignalCluster - setNWBoosterIndicators(false)
287611-14 09:16:56.932 1263-1263/? D/StatusBar.NetworkController: applyOpen
287711-14 09:16:56.932 1263-1263/? D/StatusBar.NetworkController: refreshSignalCluster - setNWBoosterIndicators(false)
287811-14 09:16:56.932 1263-1263/? D/StatusBar.NetworkController: applyOpen
287911-14 09:16:56.932 1263-1263/? D/StatusBar.NetworkController: refreshSignalCluster - setNWBoosterIndicators(false)
288011-14 09:16:56.932 1263-1263/? D/StatusBar.NetworkController: applyOpen
288111-14 09:16:56.942 1263-1263/? D/StatusBar.NetworkController: refreshSignalCluster - setNWBoosterIndicators(false)
288211-14 09:16:56.952 1263-1263/? D/StatusBar.NetworkController: applyOpen
288311-14 09:16:56.972 278-278/? D/SurfaceFlinger: FPS : 0.99
288411-14 09:16:56.972 278-278/? W/SurfaceFlinger: Fail to Open /sys/devices/platform/gpusysfs/fps
288511-14 09:16:56.982 278-278/? D/SurfaceFlinger: FPS : 0.99
288611-14 09:16:56.982 278-278/? W/SurfaceFlinger: Fail to Open /sys/devices/platform/gpusysfs/fps
288711-14 09:16:57.533 24953-24953/? E/SMD: smd Interface open failed errno is 2 -1
288811-14 09:16:57.783 25005-25005/? E/Diag_Lib:  Diag_LSM_Init: Failed to open handle to diag driver, error = 2
288911-14 09:16:58.534 24953-24953/? E/SMD: smd Interface open failed errno is 2 -1
289011-14 09:16:58.934 1263-1263/? D/StatusBar.NetworkController: refreshViews connected={ wifi } level=2 combinedSignalIconId=0x7f020517/com.android.systemui:drawable/stat_sys_wifi_signal_4 mobileLabel=Emergency calls only wifiLabel="Badger"xxxxXXXXxxxxXXXX emergencyOnly=true combinedLabel="Badger"xxxxXXXXxxxxXXXX mAirplaneMode=false mDataActivity=0 mPhoneSignalIconId=0x7f020466/com.android.systemui:drawable/stat_sys_signal_2_auto_rotate mQSPhoneSignalIconId=0x7f02012a/com.android.systemui:drawable/ic_qs_signal_2 mDataDirectionIconId=0x0/(null) mDataSignalIconId=0x7f020466/com.android.systemui:drawable/stat_sys_signal_2_auto_rotate mDataTypeIconId=0x0/(null) mQSDataTypeIconId=0x0/(null) mNoSimIconId=0x0/(null) mWifiIconId=0x7f020517/com.android.systemui:drawable/stat_sys_wifi_signal_4 mQSWifiIconId=0x7f020143/com.android.systemui:drawable/ic_qs_wifi_4 mWifiActivityIconId=0x7f0204e6/com.android.systemui:drawable/stat_sys_signal_in mBluetoothTetherIconId=0x10808cc/android:drawable/stat_sys_tether_bluetooth
289111-14 09:16:58.934 1263-1263/? D/STATUSBAR-WifiQuickSettingButton: onWifiSignalChanged enabled=true enabledDesc:"Badger"
289211-14 09:16:58.934 1263-1263/? D/StatusBar.NetworkController: refreshSignalCluster - setNWBoosterIndicators(false)
289311-14 09:16:58.934 1263-1263/? D/StatusBar.NetworkController: applyOpen
289411-14 09:16:58.944 1263-1263/? D/StatusBar.NetworkController: refreshSignalCluster - setNWBoosterIndicators(false)
289511-14 09:16:58.944 1263-1263/? D/StatusBar.NetworkController: applyOpen
289611-14 09:16:58.944 1263-1263/? D/StatusBar.NetworkController: refreshSignalCluster - setNWBoosterIndicators(false)
289711-14 09:16:58.954 1263-1263/? D/StatusBar.NetworkController: applyOpen
289811-14 09:16:58.954 1263-1263/? D/StatusBar.NetworkController: refreshSignalCluster - setNWBoosterIndicators(false)
289911-14 09:16:58.954 1263-1263/? D/StatusBar.NetworkController: applyOpen
290011-14 09:16:58.974 278-278/? D/SurfaceFlinger: FPS : 1.00
290111-14 09:16:58.984 278-278/? W/SurfaceFlinger: Fail to Open /sys/devices/platform/gpusysfs/fps
290211-14 09:16:59.534 24953-24953/? E/SMD: smd Interface open failed errno is 2 -1
290311-14 09:16:59.995 868-1120/? V/AlarmManager: waitForAlarm result :8
290411-14 09:16:59.995 278-278/? D/SurfaceFlinger: FPS : 0.98
290511-14 09:17:00.005 278-278/? W/SurfaceFlinger: Fail to Open /sys/devices/platform/gpusysfs/fps
290611-14 09:17:00.025 1263-1263/? D/KeyguardUpdateMonitor: received broadcast android.intent.action.TIME_TICK
290711-14 09:17:00.025 1263-1263/? D/KeyguardUpdateMonitor: handleTimeUpdate
290811-14 09:17:00.065 278-278/? D/SurfaceFlinger: FPS : 0.98
290911-14 09:17:00.065 278-278/? W/SurfaceFlinger: Fail to Open /sys/devices/platform/gpusysfs/fps
291011-14 09:17:00.085 1263-1263/? D/DateView: regionalDateFormat = 22/11/3333 isRTLlanguage = false returnDateFormat = E, d MMMM
291111-14 09:17:00.085 1263-1263/? D/DateView: regionalDateFormat = 22/11/3333 isRTLlanguage = false returnDateFormat = E, d MMMM
291211-14 09:17:00.105 1263-1263/? D/KeyguardEffectViewController: onReceive action : android.intent.action.TIME_TICK
291311-14 09:17:00.105 1263-1263/? I/KeyguardEffectViewController: *** don't update sliding image ***
291411-14 09:17:00.535 24953-24953/? E/SMD: smd Interface open failed errno is 2 -1
291511-14 09:17:00.686 304-22404/? E/OMX-VDEC-1080P: Rxd i/p EOS, Notify Driver that EOS has been reached
291611-14 09:17:00.686 304-22404/? E/OMX-VDEC-1080P: Output EOS has been reached
291711-14 09:17:00.686 304-22404/? E/OMX-VDEC-1080P: Rxd OMX_COMPONENT_GENERATE_EOS_DONE
291811-14 09:17:00.726 868-3238/? D/SSRM:n: SIOP:: AP = 430, CUR = 460
291911-14 09:17:00.856 304-304/? E/OMX-VDEC-1080P: send_command: Recieved a Command from Client
292011-14 09:17:00.856 304-22404/? E/OMX-VDEC-1080P: send_command_proxy(): cmd = 1, Current State 3, Expected State -1
292111-14 09:17:00.856 304-22404/? E/OMX-VDEC-1080P: send_command_proxy(): OMX_CommandFlush issued with param1: -1
292211-14 09:17:00.856 304-304/? E/OMX-VDEC-1080P: send_command: Command Processed
292311-14 09:17:00.866 15042-22403/? I/ACodec: [OMX.qcom.video.decoder.avc] Now Flushing
292411-14 09:17:00.866 304-22404/? E/OMX-VDEC-1080P: Driver flush i/p Port complete
292511-14 09:17:00.866 304-22404/? E/OMX-VDEC-1080P: Initiate Input Flush
292611-14 09:17:00.866 304-22404/? E/OMX-VDEC-1080P: OMX flush i/p Port complete PenBuf(0)
292711-14 09:17:00.866 304-22404/? E/OMX-VDEC-1080P: Driver flush o/p Port complete
292811-14 09:17:00.866 304-22404/? E/OMX-VDEC-1080P: Initiate Output Flush
292911-14 09:17:00.876 304-22404/? E/OMX-VDEC-1080P: Buffer queue size 6 pending buf cnt 6
293011-14 09:17:00.876 304-22404/? E/OMX-VDEC-1080P: ID(c) P1(b1d5ba80) P2(40000000)
293111-14 09:17:00.876 304-22404/? E/OMX-VDEC-1080P: Buffer queue size 5 pending buf cnt 5
293211-14 09:17:00.876 304-22404/? E/OMX-VDEC-1080P: ID(c) P1(b1d5bad0) P2(40000000)
293311-14 09:17:00.876 304-22404/? E/OMX-VDEC-1080P: Buffer queue size 4 pending buf cnt 4
293411-14 09:17:00.876 304-22404/? E/OMX-VDEC-1080P: ID(c) P1(b1d5bb20) P2(40000000)
293511-14 09:17:00.876 304-22404/? E/OMX-VDEC-1080P: Buffer queue size 3 pending buf cnt 3
293611-14 09:17:00.886 304-22404/? E/OMX-VDEC-1080P: ID(c) P1(b1d5bb70) P2(40000000)
293711-14 09:17:00.886 304-22404/? E/OMX-VDEC-1080P: Buffer queue size 2 pending buf cnt 2
293811-14 09:17:00.886 304-22404/? E/OMX-VDEC-1080P: ID(c) P1(b1d5b8a0) P2(40000000)
293911-14 09:17:00.886 304-22404/? E/OMX-VDEC-1080P: Buffer queue size 1 pending buf cnt 1
294011-14 09:17:00.886 304-22404/? E/OMX-VDEC-1080P: ID(c) P1(b1d5b8f0) P2(40000000)
294111-14 09:17:00.896 304-22404/? E/OMX-VDEC-1080P: OMX flush o/p Port complete PenBuf(0)
294211-14 09:17:00.896 15042-22403/? I/ACodec: [OMX.qcom.video.decoder.avc] Now Executing
294311-14 09:17:00.916 304-22404/? E/OMX-VDEC-1080P: Sync frame received
294411-14 09:17:00.976 1263-1263/? D/StatusBar.NetworkController: refreshViews connected={ wifi } level=2 combinedSignalIconId=0x7f020517/com.android.systemui:drawable/stat_sys_wifi_signal_4 mobileLabel=Emergency calls only wifiLabel="Badger"xxxxXXXXxxxxXXXX emergencyOnly=true combinedLabel="Badger"xxxxXXXXxxxxXXXX mAirplaneMode=false mDataActivity=0 mPhoneSignalIconId=0x7f020466/com.android.systemui:drawable/stat_sys_signal_2_auto_rotate mQSPhoneSignalIconId=0x7f02012a/com.android.systemui:drawable/ic_qs_signal_2 mDataDirectionIconId=0x0/(null) mDataSignalIconId=0x7f020466/com.android.systemui:drawable/stat_sys_signal_2_auto_rotate mDataTypeIconId=0x0/(null) mQSDataTypeIconId=0x0/(null) mNoSimIconId=0x0/(null) mWifiIconId=0x7f020517/com.android.systemui:drawable/stat_sys_wifi_signal_4 mQSWifiIconId=0x7f020143/com.android.systemui:drawable/ic_qs_wifi_4 mWifiActivityIconId=0x7f0204e8/com.android.systemui:drawable/stat_sys_signal_inout mBluetoothTetherIconId=0x10808cc/android:drawable/stat_sys_tether_bluetooth
294511-14 09:17:00.976 1263-1263/? D/STATUSBAR-WifiQuickSettingButton: onWifiSignalChanged enabled=true enabledDesc:"Badger"
294611-14 09:17:00.976 1263-1263/? D/StatusBar.NetworkController: refreshSignalCluster - setNWBoosterIndicators(false)
294711-14 09:17:00.976 1263-1263/? D/StatusBar.NetworkController: applyOpen
294811-14 09:17:00.986 1263-1263/? D/StatusBar.NetworkController: refreshSignalCluster - setNWBoosterIndicators(false)
294911-14 09:17:00.986 1263-1263/? D/StatusBar.NetworkController: applyOpen
295011-14 09:17:00.986 1263-1263/? D/StatusBar.NetworkController: refreshSignalCluster - setNWBoosterIndicators(false)
295111-14 09:17:00.986 1263-1263/? D/StatusBar.NetworkController: applyOpen
295211-14 09:17:00.986 1263-1263/? D/StatusBar.NetworkController: refreshSignalCluster - setNWBoosterIndicators(false)
295311-14 09:17:00.996 1263-1263/? D/StatusBar.NetworkController: applyOpen
295411-14 09:17:01.006 278-278/? D/SurfaceFlinger: FPS : 1.98
295511-14 09:17:01.006 278-278/? W/SurfaceFlinger: Fail to Open /sys/devices/platform/gpusysfs/fps
295611-14 09:17:01.536 24953-24953/? E/SMD: smd Interface open failed errno is 2 -1
295711-14 09:17:01.867 15042-15076/? D/Adjust: Wrote Activity state: ec:0 sc:3 ssc:5 sl:990.9 ts:900.3 la:11:12:13 uuid:36ec8976-7071-4aa6-867e-dd00d67f1c0e
295811-14 09:17:01.957 1263-1263/? D/StatusBar.NetworkController: refreshViews connected={ wifi } level=2 combinedSignalIconId=0x7f020517/com.android.systemui:drawable/stat_sys_wifi_signal_4 mobileLabel=Emergency calls only wifiLabel="Badger"xxxxXXXXxxxxXXXX emergencyOnly=true combinedLabel="Badger"xxxxXXXXxxxxXXXX mAirplaneMode=false mDataActivity=0 mPhoneSignalIconId=0x7f020466/com.android.systemui:drawable/stat_sys_signal_2_auto_rotate mQSPhoneSignalIconId=0x7f02012a/com.android.systemui:drawable/ic_qs_signal_2 mDataDirectionIconId=0x0/(null) mDataSignalIconId=0x7f020466/com.android.systemui:drawable/stat_sys_signal_2_auto_rotate mDataTypeIconId=0x0/(null) mQSDataTypeIconId=0x0/(null) mNoSimIconId=0x0/(null) mWifiIconId=0x7f020517/com.android.systemui:drawable/stat_sys_wifi_signal_4 mQSWifiIconId=0x7f020143/com.android.systemui:drawable/ic_qs_wifi_4 mWifiActivityIconId=0x7f0204e6/com.android.systemui:drawable/stat_sys_signal_in mBluetoothTetherIconId=0x10808cc/android:drawable/stat_sys_tether_bluetooth
295911-14 09:17:01.967 1263-1263/? D/STATUSBAR-WifiQuickSettingButton: onWifiSignalChanged enabled=true enabledDesc:"Badger"
296011-14 09:17:01.967 1263-1263/? D/StatusBar.NetworkController: refreshSignalCluster - setNWBoosterIndicators(false)
296111-14 09:17:01.967 1263-1263/? D/StatusBar.NetworkController: applyOpen
296211-14 09:17:01.977 1263-1263/? D/StatusBar.NetworkController: refreshSignalCluster - setNWBoosterIndicators(false)
296311-14 09:17:01.977 1263-1263/? D/StatusBar.NetworkController: applyOpen
296411-14 09:17:01.977 1263-1263/? D/StatusBar.NetworkController: refreshSignalCluster - setNWBoosterIndicators(false)
296511-14 09:17:01.997 1263-1263/? D/StatusBar.NetworkController: applyOpen
296611-14 09:17:01.997 1263-1263/? D/StatusBar.NetworkController: refreshSignalCluster - setNWBoosterIndicators(false)
296711-14 09:17:01.997 1263-1263/? D/StatusBar.NetworkController: applyOpen
296811-14 09:17:02.017 278-278/? D/SurfaceFlinger: FPS : 0.99
296911-14 09:17:02.017 278-278/? W/SurfaceFlinger: Fail to Open /sys/devices/platform/gpusysfs/fps
297011-14 09:17:02.527 24953-24953/? E/SMD: smd Interface open failed errno is 2 -1
297111-14 09:17:02.748 25038-25038/? E/Diag_Lib:  Diag_LSM_Init: Failed to open handle to diag driver, error = 2
297211-14 09:17:02.948 868-1534/? D/BatteryService: !@BatteryListener : batteryPropertiesChanged!
297311-14 09:17:02.948 868-1534/? D/BatteryService: level:67, scale:100, status:2, health:2, present:true, voltage: 3971, temperature: 328, technology: Li-ion, AC powered:false, USB powered:true, Wireless powered:false, icon:17303687, invalid charger:0
297411-14 09:17:02.948 868-1534/? D/BatteryService: online:4, current avg:460, charge type:1, power sharing:false, high voltage charger:false, capacity:280000, current_now:460
297511-14 09:17:02.948 868-868/? D/BatteryService: Sending ACTION_BATTERY_CHANGED.
297611-14 09:17:02.948 868-868/? I/MotionRecognitionService: Plugged
297711-14 09:17:02.948 868-868/? I/MotionRecognitionService: setPowerConnected  = true
297811-14 09:17:02.948 1263-1263/? D/KeyguardUpdateMonitor: received broadcast android.intent.action.BATTERY_CHANGED
297911-14 09:17:02.948 1263-1263/? D/KeyguardUpdateMonitor: handleBatteryUpdate
298011-14 09:17:02.968 1263-1263/? D/STATUSBAR-PhoneStatusBar:  mBrightnessEnablebySettings = true mBrightnessEnablebyBattery = true mBrightnessEnablebyDisableFlag = true mPmsBrightnessEnablebySettings = true
298111-14 09:17:02.968 1263-1263/? D/BatteryMeterView: ACTION_BATTERY_CHANGED : level:67 status:2 health:2
298211-14 09:17:02.968 1263-1263/? D/BatteryMeterView: ACTION_BATTERY_CHANGED : level:67 status:2 health:2
298311-14 09:17:02.968 1263-1263/? D/BatteryMeterView: ACTION_BATTERY_CHANGED : level:67 status:2 health:2
298411-14 09:17:02.988 1263-1263/? D/StatusBar.NetworkController: refreshViews connected={ wifi } level=2 combinedSignalIconId=0x7f020517/com.android.systemui:drawable/stat_sys_wifi_signal_4 mobileLabel=Emergency calls only wifiLabel="Badger"xxxxXXXXxxxxXXXX emergencyOnly=true combinedLabel="Badger"xxxxXXXXxxxxXXXX mAirplaneMode=false mDataActivity=0 mPhoneSignalIconId=0x7f020466/com.android.systemui:drawable/stat_sys_signal_2_auto_rotate mQSPhoneSignalIconId=0x7f02012a/com.android.systemui:drawable/ic_qs_signal_2 mDataDirectionIconId=0x0/(null) mDataSignalIconId=0x7f020466/com.android.systemui:drawable/stat_sys_signal_2_auto_rotate mDataTypeIconId=0x0/(null) mQSDataTypeIconId=0x0/(null) mNoSimIconId=0x0/(null) mWifiIconId=0x7f020517/com.android.systemui:drawable/stat_sys_wifi_signal_4 mQSWifiIconId=0x7f020143/com.android.systemui:drawable/ic_qs_wifi_4 mWifiActivityIconId=0x7f0204e8/com.android.systemui:drawable/stat_sys_signal_inout mBluetoothTetherIconId=0x10808cc/android:drawable/stat_sys_tether_bluetooth
298511-14 09:17:02.988 1263-1263/? D/STATUSBAR-WifiQuickSettingButton: onWifiSignalChanged enabled=true enabledDesc:"Badger"
298611-14 09:17:02.988 1263-1263/? D/StatusBar.NetworkController: refreshSignalCluster - setNWBoosterIndicators(false)
298711-14 09:17:02.988 1263-1263/? D/StatusBar.NetworkController: applyOpen
298811-14 09:17:02.988 1263-1263/? D/StatusBar.NetworkController: refreshSignalCluster - setNWBoosterIndicators(false)
298911-14 09:17:02.988 1263-1263/? D/StatusBar.NetworkController: applyOpen
299011-14 09:17:02.988 1263-1263/? D/StatusBar.NetworkController: refreshSignalCluster - setNWBoosterIndicators(false)
299111-14 09:17:02.988 1263-1263/? D/StatusBar.NetworkController: applyOpen
299211-14 09:17:02.988 1263-1263/? D/StatusBar.NetworkController: refreshSignalCluster - setNWBoosterIndicators(false)
299311-14 09:17:02.988 1263-1263/? D/StatusBar.NetworkController: applyOpen
299411-14 09:17:02.998 278-278/? D/SurfaceFlinger: FPS : 1.02
299511-14 09:17:02.998 278-278/? W/SurfaceFlinger: Fail to Open /sys/devices/platform/gpusysfs/fps
299611-14 09:17:03.008 278-278/? D/SurfaceFlinger: FPS : 1.02
299711-14 09:17:03.018 278-278/? W/SurfaceFlinger: Fail to Open /sys/devices/platform/gpusysfs/fps
299811-14 09:17:03.528 24953-24953/? E/SMD: smd Interface open failed errno is 2 -1
299911-14 09:17:03.969 1263-1263/? D/StatusBar.NetworkController: refreshViews connected={ wifi } level=2 combinedSignalIconId=0x7f020517/com.android.systemui:drawable/stat_sys_wifi_signal_4 mobileLabel=Emergency calls only wifiLabel="Badger"xxxxXXXXxxxxXXXX emergencyOnly=true combinedLabel="Badger"xxxxXXXXxxxxXXXX mAirplaneMode=false mDataActivity=0 mPhoneSignalIconId=0x7f020466/com.android.systemui:drawable/stat_sys_signal_2_auto_rotate mQSPhoneSignalIconId=0x7f02012a/com.android.systemui:drawable/ic_qs_signal_2 mDataDirectionIconId=0x0/(null) mDataSignalIconId=0x7f020466/com.android.systemui:drawable/stat_sys_signal_2_auto_rotate mDataTypeIconId=0x0/(null) mQSDataTypeIconId=0x0/(null) mNoSimIconId=0x0/(null) mWifiIconId=0x7f020517/com.android.systemui:drawable/stat_sys_wifi_signal_4 mQSWifiIconId=0x7f020143/com.android.systemui:drawable/ic_qs_wifi_4 mWifiActivityIconId=0x7f0204e6/com.android.systemui:drawable/stat_sys_signal_in mBluetoothTetherIconId=0x10808cc/android:drawable/stat_sys_tether_bluetooth
300011-14 09:17:03.969 1263-1263/? D/STATUSBAR-WifiQuickSettingButton: onWifiSignalChanged enabled=true enabledDesc:"Badger"
300111-14 09:17:03.979 1263-1263/? D/StatusBar.NetworkController: refreshSignalCluster - setNWBoosterIndicators(false)
300211-14 09:17:03.979 1263-1263/? D/StatusBar.NetworkController: applyOpen
300311-14 09:17:03.979 1263-1263/? D/StatusBar.NetworkController: refreshSignalCluster - setNWBoosterIndicators(false)
300411-14 09:17:03.979 1263-1263/? D/StatusBar.NetworkController: applyOpen
300511-14 09:17:03.989 1263-1263/? D/StatusBar.NetworkController: refreshSignalCluster - setNWBoosterIndicators(false)
300611-14 09:17:03.989 1263-1263/? D/StatusBar.NetworkController: applyOpen
300711-14 09:17:03.989 1263-1263/? D/StatusBar.NetworkController: refreshSignalCluster - setNWBoosterIndicators(false)
300811-14 09:17:03.989 1263-1263/? D/StatusBar.NetworkController: applyOpen
300911-14 09:17:04.009 278-278/? D/SurfaceFlinger: FPS : 1.97
301011-14 09:17:04.009 278-278/? W/SurfaceFlinger: Fail to Open /sys/devices/platform/gpusysfs/fps
301111-14 09:17:04.189 1263-1263/? D/StatusBar.NetworkController: onSignalStrengthsChanged signalStrength=SignalStrength: 9 99 -120 -160 -120 -1 -1 99 2147483647 2147483647 2147483647 -1 2147483647 0x2 gsm|lte level=2
301211-14 09:17:04.189 1263-1263/? D/StatusBar.NetworkController: updateTelephonySignalStrength: hasService=true ss=SignalStrength: 9 99 -120 -160 -120 -1 -1 99 2147483647 2147483647 2147483647 -1 2147483647 0x2 gsm|lte
301311-14 09:17:04.189 1263-1263/? D/StatusBar.NetworkController: updateTelephonySignalStrength: iconLevel=2
301411-14 09:17:04.189 1263-1263/? D/StatusBar.NetworkController: updateTelephonySignalStrength, No signal level. mPhoneSignalIconId = com.android.systemui:drawable/stat_sys_signal_2_auto_rotate mDataSignalIconId = com.android.systemui:drawable/stat_sys_signal_2_auto_rotate mQSPhoneSignalIconId = com.android.systemui:drawable/ic_qs_signal_2 mContentDescriptionPhoneSignal = Phone two bars.
301511-14 09:17:04.199 1263-1263/? D/StatusBar.NetworkController: refreshViews connected={ wifi } level=2 combinedSignalIconId=0x7f020517/com.android.systemui:drawable/stat_sys_wifi_signal_4 mobileLabel=Emergency calls only wifiLabel="Badger"xxxxXXXXxxxxXXXX emergencyOnly=true combinedLabel="Badger"xxxxXXXXxxxxXXXX mAirplaneMode=false mDataActivity=0 mPhoneSignalIconId=0x7f020466/com.android.systemui:drawable/stat_sys_signal_2_auto_rotate mQSPhoneSignalIconId=0x7f02012a/com.android.systemui:drawable/ic_qs_signal_2 mDataDirectionIconId=0x0/(null) mDataSignalIconId=0x7f020466/com.android.systemui:drawable/stat_sys_signal_2_auto_rotate mDataTypeIconId=0x0/(null) mQSDataTypeIconId=0x0/(null) mNoSimIconId=0x0/(null) mWifiIconId=0x7f020517/com.android.systemui:drawable/stat_sys_wifi_signal_4 mQSWifiIconId=0x7f020143/com.android.systemui:drawable/ic_qs_wifi_4 mWifiActivityIconId=0x7f0204e6/com.android.systemui:drawable/stat_sys_signal_in mBluetoothTetherIconId=0x10808cc/android:drawable/stat_sys_tether_bluetooth
301611-14 09:17:04.199 1263-1263/? D/STATUSBAR-WifiQuickSettingButton: onWifiSignalChanged enabled=true enabledDesc:"Badger"
301711-14 09:17:04.529 24953-24953/? E/SMD: smd Interface open failed errno is 2 -1
301811-14 09:17:05.090 278-278/? D/SurfaceFlinger: FPS : 0.93
301911-14 09:17:05.090 278-278/? W/SurfaceFlinger: Fail to Open /sys/devices/platform/gpusysfs/fps
302011-14 09:17:05.250 868-1534/? D/ActivityManager: startService callerProcessName:com.google.android.gms, calleePkgName: com.google.android.gms
302111-14 09:17:05.530 24953-24953/? E/SMD: smd Interface open failed errno is 2 -1
302211-14 09:17:06.001 1263-1263/? D/StatusBar.NetworkController: refreshViews connected={ wifi } level=2 combinedSignalIconId=0x7f020517/com.android.systemui:drawable/stat_sys_wifi_signal_4 mobileLabel=Emergency calls only wifiLabel="Badger"xxxxXXXXxxxxXXXX emergencyOnly=true combinedLabel="Badger"xxxxXXXXxxxxXXXX mAirplaneMode=false mDataActivity=0 mPhoneSignalIconId=0x7f020466/com.android.systemui:drawable/stat_sys_signal_2_auto_rotate mQSPhoneSignalIconId=0x7f02012a/com.android.systemui:drawable/ic_qs_signal_2 mDataDirectionIconId=0x0/(null) mDataSignalIconId=0x7f020466/com.android.systemui:drawable/stat_sys_signal_2_auto_rotate mDataTypeIconId=0x0/(null) mQSDataTypeIconId=0x0/(null) mNoSimIconId=0x0/(null) mWifiIconId=0x7f020517/com.android.systemui:drawable/stat_sys_wifi_signal_4 mQSWifiIconId=0x7f020143/com.android.systemui:drawable/ic_qs_wifi_4 mWifiActivityIconId=0x7f0204e8/com.android.systemui:drawable/stat_sys_signal_inout mBluetoothTetherIconId=0x10808cc/android:drawable/stat_sys_tether_bluetooth
302311-14 09:17:06.001 1263-1263/? D/STATUSBAR-WifiQuickSettingButton: onWifiSignalChanged enabled=true enabledDesc:"Badger"
302411-14 09:17:06.001 1263-1263/? D/StatusBar.NetworkController: refreshSignalCluster - setNWBoosterIndicators(false)
302511-14 09:17:06.001 1263-1263/? D/StatusBar.NetworkController: applyOpen
302611-14 09:17:06.011 1263-1263/? D/StatusBar.NetworkController: refreshSignalCluster - setNWBoosterIndicators(false)
302711-14 09:17:06.011 1263-1263/? D/StatusBar.NetworkController: applyOpen
302811-14 09:17:06.011 1263-1263/? D/StatusBar.NetworkController: refreshSignalCluster - setNWBoosterIndicators(false)
302911-14 09:17:06.011 1263-1263/? D/StatusBar.NetworkController: applyOpen
303011-14 09:17:06.021 1263-1263/? D/StatusBar.NetworkController: refreshSignalCluster - setNWBoosterIndicators(false)
303111-14 09:17:06.021 1263-1263/? D/StatusBar.NetworkController: applyOpen
303211-14 09:17:06.041 278-278/? D/SurfaceFlinger: FPS : 1.06
303311-14 09:17:06.041 278-278/? W/SurfaceFlinger: Fail to Open /sys/devices/platform/gpusysfs/fps
303411-14 09:17:06.531 24953-24953/? E/SMD: smd Interface open failed errno is 2 -1
303511-14 09:17:06.661 1263-1263/? D/StatusBar.NetworkController: onSignalStrengthsChanged signalStrength=SignalStrength: 9 99 -120 -160 -120 -1 -1 99 2147483647 2147483647 2147483647 -1 2147483647 0x2 gsm|lte level=2
303611-14 09:17:06.661 1263-1263/? D/StatusBar.NetworkController: updateTelephonySignalStrength: hasService=true ss=SignalStrength: 9 99 -120 -160 -120 -1 -1 99 2147483647 2147483647 2147483647 -1 2147483647 0x2 gsm|lte
303711-14 09:17:06.661 1263-1263/? D/StatusBar.NetworkController: updateTelephonySignalStrength: iconLevel=2
303811-14 09:17:06.661 1263-1263/? D/StatusBar.NetworkController: updateTelephonySignalStrength, No signal level. mPhoneSignalIconId = com.android.systemui:drawable/stat_sys_signal_2_auto_rotate mDataSignalIconId = com.android.systemui:drawable/stat_sys_signal_2_auto_rotate mQSPhoneSignalIconId = com.android.systemui:drawable/ic_qs_signal_2 mContentDescriptionPhoneSignal = Phone two bars.
303911-14 09:17:06.661 1263-1263/? D/StatusBar.NetworkController: refreshViews connected={ wifi } level=2 combinedSignalIconId=0x7f020517/com.android.systemui:drawable/stat_sys_wifi_signal_4 mobileLabel=Emergency calls only wifiLabel="Badger"xxxxXXXXxxxxXXXX emergencyOnly=true combinedLabel="Badger"xxxxXXXXxxxxXXXX mAirplaneMode=false mDataActivity=0 mPhoneSignalIconId=0x7f020466/com.android.systemui:drawable/stat_sys_signal_2_auto_rotate mQSPhoneSignalIconId=0x7f02012a/com.android.systemui:drawable/ic_qs_signal_2 mDataDirectionIconId=0x0/(null) mDataSignalIconId=0x7f020466/com.android.systemui:drawable/stat_sys_signal_2_auto_rotate mDataTypeIconId=0x0/(null) mQSDataTypeIconId=0x0/(null) mNoSimIconId=0x0/(null) mWifiIconId=0x7f020517/com.android.systemui:drawable/stat_sys_wifi_signal_4 mQSWifiIconId=0x7f020143/com.android.systemui:drawable/ic_qs_wifi_4 mWifiActivityIconId=0x7f0204e8/com.android.systemui:drawable/stat_sys_signal_inout mBluetoothTetherIconId=0x10808cc/android:drawable/stat_sys_tether_bluetooth
304011-14 09:17:06.661 1263-1263/? D/STATUSBAR-WifiQuickSettingButton: onWifiSignalChanged enabled=true enabledDesc:"Badger"
304111-14 09:17:07.532 24953-24953/? E/SMD: smd Interface open failed errno is 2 -1
304211-14 09:17:07.702 25067-25067/? E/Diag_Lib:  Diag_LSM_Init: Failed to open handle to diag driver, error = 2
304311-14 09:17:08.023 1263-1263/? D/StatusBar.NetworkController: refreshViews connected={ wifi } level=2 combinedSignalIconId=0x7f020517/com.android.systemui:drawable/stat_sys_wifi_signal_4 mobileLabel=Emergency calls only wifiLabel="Badger"xxxxXXXXxxxxXXXX emergencyOnly=true combinedLabel="Badger"xxxxXXXXxxxxXXXX mAirplaneMode=false mDataActivity=0 mPhoneSignalIconId=0x7f020466/com.android.systemui:drawable/stat_sys_signal_2_auto_rotate mQSPhoneSignalIconId=0x7f02012a/com.android.systemui:drawable/ic_qs_signal_2 mDataDirectionIconId=0x0/(null) mDataSignalIconId=0x7f020466/com.android.systemui:drawable/stat_sys_signal_2_auto_rotate mDataTypeIconId=0x0/(null) mQSDataTypeIconId=0x0/(null) mNoSimIconId=0x0/(null) mWifiIconId=0x7f020517/com.android.systemui:drawable/stat_sys_wifi_signal_4 mQSWifiIconId=0x7f020143/com.android.systemui:drawable/ic_qs_wifi_4 mWifiActivityIconId=0x7f0204e6/com.android.systemui:drawable/stat_sys_signal_in mBluetoothTetherIconId=0x10808cc/android:drawable/stat_sys_tether_bluetooth
304411-14 09:17:08.023 1263-1263/? D/STATUSBAR-WifiQuickSettingButton: onWifiSignalChanged enabled=true enabledDesc:"Badger"
304511-14 09:17:08.023 1263-1263/? D/StatusBar.NetworkController: refreshSignalCluster - setNWBoosterIndicators(false)
304611-14 09:17:08.023 1263-1263/? D/StatusBar.NetworkController: applyOpen
304711-14 09:17:08.033 1263-1263/? D/StatusBar.NetworkController: refreshSignalCluster - setNWBoosterIndicators(false)
304811-14 09:17:08.033 1263-1263/? D/StatusBar.NetworkController: applyOpen
304911-14 09:17:08.033 1263-1263/? D/StatusBar.NetworkController: refreshSignalCluster - setNWBoosterIndicators(false)
305011-14 09:17:08.033 1263-1263/? D/StatusBar.NetworkController: applyOpen
305111-14 09:17:08.043 1263-1263/? D/StatusBar.NetworkController: refreshSignalCluster - setNWBoosterIndicators(false)
305211-14 09:17:08.043 1263-1263/? D/StatusBar.NetworkController: applyOpen
305311-14 09:17:08.063 278-278/? D/SurfaceFlinger: FPS : 0.50
305411-14 09:17:08.063 278-278/? W/SurfaceFlinger: Fail to Open /sys/devices/platform/gpusysfs/fps
305511-14 09:17:08.533 24953-24953/? E/SMD: smd Interface open failed errno is 2 -1
305611-14 09:17:08.543 1263-1263/? D/StatusBar.NetworkController: onSignalStrengthsChanged signalStrength=SignalStrength: 10 99 -120 -160 -120 -1 -1 99 2147483647 2147483647 2147483647 -1 2147483647 0x3 gsm|lte level=3
305711-14 09:17:08.543 1263-1263/? D/StatusBar.NetworkController: updateTelephonySignalStrength: hasService=true ss=SignalStrength: 10 99 -120 -160 -120 -1 -1 99 2147483647 2147483647 2147483647 -1 2147483647 0x3 gsm|lte
305811-14 09:17:08.543 1263-1263/? D/StatusBar.NetworkController: updateTelephonySignalStrength: iconLevel=3
305911-14 09:17:08.543 1263-1263/? D/StatusBar.NetworkController: updateTelephonySignalStrength, No signal level. mPhoneSignalIconId = com.android.systemui:drawable/stat_sys_signal_3_auto_rotate mDataSignalIconId = com.android.systemui:drawable/stat_sys_signal_3_auto_rotate mQSPhoneSignalIconId = com.android.systemui:drawable/ic_qs_signal_3 mContentDescriptionPhoneSignal = Phone three bars.
306011-14 09:17:08.543 1263-1263/? D/StatusBar.NetworkController: refreshViews connected={ wifi } level=3 combinedSignalIconId=0x7f020517/com.android.systemui:drawable/stat_sys_wifi_signal_4 mobileLabel=Emergency calls only wifiLabel="Badger"xxxxXXXXxxxxXXXX emergencyOnly=true combinedLabel="Badger"xxxxXXXXxxxxXXXX mAirplaneMode=false mDataActivity=0 mPhoneSignalIconId=0x7f02048e/com.android.systemui:drawable/stat_sys_signal_3_auto_rotate mQSPhoneSignalIconId=0x7f02012b/com.android.systemui:drawable/ic_qs_signal_3 mDataDirectionIconId=0x0/(null) mDataSignalIconId=0x7f02048e/com.android.systemui:drawable/stat_sys_signal_3_auto_rotate mDataTypeIconId=0x0/(null) mQSDataTypeIconId=0x0/(null) mNoSimIconId=0x0/(null) mWifiIconId=0x7f020517/com.android.systemui:drawable/stat_sys_wifi_signal_4 mQSWifiIconId=0x7f020143/com.android.systemui:drawable/ic_qs_wifi_4 mWifiActivityIconId=0x7f0204e6/com.android.systemui:drawable/stat_sys_signal_in mBluetoothTetherIconId=0x10808cc/android:drawable/stat_sys_tether_bluetooth
306111-14 09:17:08.543 1263-1263/? D/STATUSBAR-WifiQuickSettingButton: onWifiSignalChanged enabled=true enabledDesc:"Badger"
306211-14 09:17:08.543 1263-1263/? D/StatusBar.NetworkController: refreshSignalCluster - setNWBoosterIndicators(false)
306311-14 09:17:08.553 1263-1263/? D/StatusBar.NetworkController: applyOpen
306411-14 09:17:08.553 1263-1263/? D/StatusBar.NetworkController: refreshSignalCluster - setNWBoosterIndicators(false)
306511-14 09:17:08.553 1263-1263/? D/StatusBar.NetworkController: applyOpen
306611-14 09:17:08.553 1263-1263/? D/StatusBar.NetworkController: refreshSignalCluster - setNWBoosterIndicators(false)
306711-14 09:17:08.563 1263-1263/? D/StatusBar.NetworkController: applyOpen
306811-14 09:17:08.563 1263-1263/? D/StatusBar.NetworkController: refreshSignalCluster - setNWBoosterIndicators(false)
306911-14 09:17:08.563 1263-1263/? D/StatusBar.NetworkController: applyOpen
307011-14 09:17:08.583 278-278/? D/SurfaceFlinger: FPS : 1.91
307111-14 09:17:08.583 278-278/? W/SurfaceFlinger: Fail to Open /sys/devices/platform/gpusysfs/fps
307211-14 09:17:09.034 1263-1263/? D/StatusBar.NetworkController: refreshViews connected={ wifi } level=3 combinedSignalIconId=0x7f020517/com.android.systemui:drawable/stat_sys_wifi_signal_4 mobileLabel=Emergency calls only wifiLabel="Badger"xxxxXXXXxxxxXXXX emergencyOnly=true combinedLabel="Badger"xxxxXXXXxxxxXXXX mAirplaneMode=false mDataActivity=0 mPhoneSignalIconId=0x7f02048e/com.android.systemui:drawable/stat_sys_signal_3_auto_rotate mQSPhoneSignalIconId=0x7f02012b/com.android.systemui:drawable/ic_qs_signal_3 mDataDirectionIconId=0x0/(null) mDataSignalIconId=0x7f02048e/com.android.systemui:drawable/stat_sys_signal_3_auto_rotate mDataTypeIconId=0x0/(null) mQSDataTypeIconId=0x0/(null) mNoSimIconId=0x0/(null) mWifiIconId=0x7f020517/com.android.systemui:drawable/stat_sys_wifi_signal_4 mQSWifiIconId=0x7f020143/com.android.systemui:drawable/ic_qs_wifi_4 mWifiActivityIconId=0x7f0204e8/com.android.systemui:drawable/stat_sys_signal_inout mBluetoothTetherIconId=0x10808cc/android:drawable/stat_sys_tether_bluetooth
307311-14 09:17:09.034 1263-1263/? D/STATUSBAR-WifiQuickSettingButton: onWifiSignalChanged enabled=true enabledDesc:"Badger"
307411-14 09:17:09.034 1263-1263/? D/StatusBar.NetworkController: refreshSignalCluster - setNWBoosterIndicators(false)
307511-14 09:17:09.034 1263-1263/? D/StatusBar.NetworkController: applyOpen
307611-14 09:17:09.044 1263-1263/? D/StatusBar.NetworkController: refreshSignalCluster - setNWBoosterIndicators(false)
307711-14 09:17:09.044 1263-1263/? D/StatusBar.NetworkController: applyOpen
307811-14 09:17:09.044 1263-1263/? D/StatusBar.NetworkController: refreshSignalCluster - setNWBoosterIndicators(false)
307911-14 09:17:09.044 1263-1263/? D/StatusBar.NetworkController: applyOpen
308011-14 09:17:09.054 1263-1263/? D/StatusBar.NetworkController: refreshSignalCluster - setNWBoosterIndicators(false)
308111-14 09:17:09.054 1263-1263/? D/StatusBar.NetworkController: applyOpen
308211-14 09:17:09.074 278-278/? D/SurfaceFlinger: FPS : 2.07
308311-14 09:17:09.074 278-278/? W/SurfaceFlinger: Fail to Open /sys/devices/platform/gpusysfs/fps
308411-14 09:17:09.534 24953-24953/? E/SMD: smd Interface open failed errno is 2 -1
308511-14 09:17:10.045 1263-1263/? D/StatusBar.NetworkController: refreshViews connected={ wifi } level=3 combinedSignalIconId=0x7f020517/com.android.systemui:drawable/stat_sys_wifi_signal_4 mobileLabel=Emergency calls only wifiLabel="Badger"xxxxXXXXxxxxXXXX emergencyOnly=true combinedLabel="Badger"xxxxXXXXxxxxXXXX mAirplaneMode=false mDataActivity=0 mPhoneSignalIconId=0x7f02048e/com.android.systemui:drawable/stat_sys_signal_3_auto_rotate mQSPhoneSignalIconId=0x7f02012b/com.android.systemui:drawable/ic_qs_signal_3 mDataDirectionIconId=0x0/(null) mDataSignalIconId=0x7f02048e/com.android.systemui:drawable/stat_sys_signal_3_auto_rotate mDataTypeIconId=0x0/(null) mQSDataTypeIconId=0x0/(null) mNoSimIconId=0x0/(null) mWifiIconId=0x7f020517/com.android.systemui:drawable/stat_sys_wifi_signal_4 mQSWifiIconId=0x7f020143/com.android.systemui:drawable/ic_qs_wifi_4 mWifiActivityIconId=0x7f0204e6/com.android.systemui:drawable/stat_sys_signal_in mBluetoothTetherIconId=0x10808cc/android:drawable/stat_sys_tether_bluetooth
308611-14 09:17:10.045 1263-1263/? D/STATUSBAR-WifiQuickSettingButton: onWifiSignalChanged enabled=true enabledDesc:"Badger"
308711-14 09:17:10.045 1263-1263/? D/StatusBar.NetworkController: refreshSignalCluster - setNWBoosterIndicators(false)
308811-14 09:17:10.045 1263-1263/? D/StatusBar.NetworkController: applyOpen
308911-14 09:17:10.055 1263-1263/? D/StatusBar.NetworkController: refreshSignalCluster - setNWBoosterIndicators(false)
309011-14 09:17:10.055 1263-1263/? D/StatusBar.NetworkController: applyOpen
309111-14 09:17:10.055 1263-1263/? D/StatusBar.NetworkController: refreshSignalCluster - setNWBoosterIndicators(false)
309211-14 09:17:10.065 1263-1263/? D/StatusBar.NetworkController: applyOpen
309311-14 09:17:10.065 1263-1263/? D/StatusBar.NetworkController: refreshSignalCluster - setNWBoosterIndicators(false)
309411-14 09:17:10.065 1263-1263/? D/StatusBar.NetworkController: applyOpen
309511-14 09:17:10.085 278-278/? D/SurfaceFlinger: FPS : 0.99
309611-14 09:17:10.085 278-278/? W/SurfaceFlinger: Fail to Open /sys/devices/platform/gpusysfs/fps
309711-14 09:17:10.535 24953-24953/? E/SMD: smd Interface open failed errno is 2 -1
309811-14 09:17:10.755 868-3238/? D/SSRM:n: SIOP:: AP = 430, CUR = 460
309911-14 09:17:10.976 304-22404/? E/OMX-VDEC-1080P: Rxd i/p EOS, Notify Driver that EOS has been reached
310011-14 09:17:10.976 304-22404/? E/OMX-VDEC-1080P: Output EOS has been reached
310111-14 09:17:10.976 304-22404/? E/OMX-VDEC-1080P: Rxd OMX_COMPONENT_GENERATE_EOS_DONE
310211-14 09:17:11.136 304-1854/? E/OMX-VDEC-1080P: send_command: Recieved a Command from Client
310311-14 09:17:11.146 304-22404/? E/OMX-VDEC-1080P: send_command_proxy(): cmd = 1, Current State 3, Expected State -1
310411-14 09:17:11.146 304-22404/? E/OMX-VDEC-1080P: send_command_proxy(): OMX_CommandFlush issued with param1: -1
310511-14 09:17:11.146 304-1854/? E/OMX-VDEC-1080P: send_command: Command Processed
310611-14 09:17:11.146 15042-22403/? I/ACodec: [OMX.qcom.video.decoder.avc] Now Flushing
310711-14 09:17:11.146 304-22404/? E/OMX-VDEC-1080P: Driver flush i/p Port complete
310811-14 09:17:11.156 304-22404/? E/OMX-VDEC-1080P: Initiate Input Flush
310911-14 09:17:11.156 304-22404/? E/OMX-VDEC-1080P: OMX flush i/p Port complete PenBuf(0)
311011-14 09:17:11.156 304-22404/? E/OMX-VDEC-1080P: Driver flush o/p Port complete
311111-14 09:17:11.156 304-22404/? E/OMX-VDEC-1080P: Initiate Output Flush
311211-14 09:17:11.156 304-22404/? E/OMX-VDEC-1080P: Buffer queue size 6 pending buf cnt 6
311311-14 09:17:11.156 304-22404/? E/OMX-VDEC-1080P: ID(c) P1(b1d5ba80) P2(40000000)
311411-14 09:17:11.166 304-22404/? E/OMX-VDEC-1080P: Buffer queue size 5 pending buf cnt 5
311511-14 09:17:11.166 304-22404/? E/OMX-VDEC-1080P: ID(c) P1(b1d5bad0) P2(40000000)
311611-14 09:17:11.166 304-22404/? E/OMX-VDEC-1080P: Buffer queue size 4 pending buf cnt 4
311711-14 09:17:11.166 304-22404/? E/OMX-VDEC-1080P: ID(c) P1(b1d5bb20) P2(40000000)
311811-14 09:17:11.166 304-22404/? E/OMX-VDEC-1080P: Buffer queue size 3 pending buf cnt 3
311911-14 09:17:11.176 304-22404/? E/OMX-VDEC-1080P: ID(c) P1(b1d5b990) P2(40000000)
312011-14 09:17:11.176 304-22404/? E/OMX-VDEC-1080P: Buffer queue size 2 pending buf cnt 2
312111-14 09:17:11.176 304-22404/? E/OMX-VDEC-1080P: ID(c) P1(b1d5b9e0) P2(40000000)
312211-14 09:17:11.176 304-22404/? E/OMX-VDEC-1080P: Buffer queue size 1 pending buf cnt 1
312311-14 09:17:11.176 304-22404/? E/OMX-VDEC-1080P: ID(c) P1(b1d5ba30) P2(40000000)
312411-14 09:17:11.186 304-22404/? E/OMX-VDEC-1080P: OMX flush o/p Port complete PenBuf(0)
312511-14 09:17:11.186 15042-22403/? I/ACodec: [OMX.qcom.video.decoder.avc] Now Executing
312611-14 09:17:11.216 304-22404/? E/OMX-VDEC-1080P: Sync frame received
312711-14 09:17:11.266 295-848/? D/EnterpriseController: mIsMarkChainAdded is 0 mIsBlockChainAdded is 0 netId is 0
312811-14 09:17:11.266 295-848/? D/Netd: getNetworkForDns: using netid 502 for uid 10200
312911-14 09:17:11.266 295-848/? D/EnterpriseController: mIsMarkChainAdded is 0 mIsBlockChainAdded is 0 netId is 0
313011-14 09:17:11.266 295-848/? D/Netd: getNetworkForDns: using netid 502 for uid 10200
313111-14 09:17:11.536 24953-24953/? E/SMD: smd Interface open failed errno is 2 -1
313211-14 09:17:11.606 278-278/? D/SurfaceFlinger: FPS : 0.66
313311-14 09:17:11.606 278-278/? W/SurfaceFlinger: Fail to Open /sys/devices/platform/gpusysfs/fps
313411-14 09:17:12.047 1263-1263/? D/StatusBar.NetworkController: refreshViews connected={ wifi } level=3 combinedSignalIconId=0x7f020517/com.android.systemui:drawable/stat_sys_wifi_signal_4 mobileLabel=Emergency calls only wifiLabel="Badger"xxxxXXXXxxxxXXXX emergencyOnly=true combinedLabel="Badger"xxxxXXXXxxxxXXXX mAirplaneMode=false mDataActivity=0 mPhoneSignalIconId=0x7f02048e/com.android.systemui:drawable/stat_sys_signal_3_auto_rotate mQSPhoneSignalIconId=0x7f02012b/com.android.systemui:drawable/ic_qs_signal_3 mDataDirectionIconId=0x0/(null) mDataSignalIconId=0x7f02048e/com.android.systemui:drawable/stat_sys_signal_3_auto_rotate mDataTypeIconId=0x0/(null) mQSDataTypeIconId=0x0/(null) mNoSimIconId=0x0/(null) mWifiIconId=0x7f020517/com.android.systemui:drawable/stat_sys_wifi_signal_4 mQSWifiIconId=0x7f020143/com.android.systemui:drawable/ic_qs_wifi_4 mWifiActivityIconId=0x7f0204e8/com.android.systemui:drawable/stat_sys_signal_inout mBluetoothTetherIconId=0x10808cc/android:drawable/stat_sys_tether_bluetooth
313511-14 09:17:12.047 1263-1263/? D/STATUSBAR-WifiQuickSettingButton: onWifiSignalChanged enabled=true enabledDesc:"Badger"
313611-14 09:17:12.057 1263-1263/? D/StatusBar.NetworkController: refreshSignalCluster - setNWBoosterIndicators(false)
313711-14 09:17:12.067 1263-1263/? D/StatusBar.NetworkController: applyOpen
313811-14 09:17:12.067 1263-1263/? D/StatusBar.NetworkController: refreshSignalCluster - setNWBoosterIndicators(false)
313911-14 09:17:12.077 1263-1263/? D/StatusBar.NetworkController: applyOpen
314011-14 09:17:12.077 1263-1263/? D/StatusBar.NetworkController: refreshSignalCluster - setNWBoosterIndicators(false)
314111-14 09:17:12.087 1263-1263/? D/StatusBar.NetworkController: applyOpen
314211-14 09:17:12.087 1263-1263/? D/StatusBar.NetworkController: refreshSignalCluster - setNWBoosterIndicators(false)
314311-14 09:17:12.087 1263-1263/? D/StatusBar.NetworkController: applyOpen
314411-14 09:17:12.107 278-278/? D/SurfaceFlinger: FPS : 1.95
314511-14 09:17:12.107 278-278/? W/SurfaceFlinger: Fail to Open /sys/devices/platform/gpusysfs/fps
314611-14 09:17:12.527 24953-24953/? E/SMD: smd Interface open failed errno is 2 -1
314711-14 09:17:12.777 25107-25107/? E/Diag_Lib:  Diag_LSM_Init: Failed to open handle to diag driver, error = 2
314811-14 09:17:12.988 868-1766/? D/BatteryService: !@BatteryListener : batteryPropertiesChanged!
314911-14 09:17:12.998 868-1766/? D/BatteryService: level:67, scale:100, status:2, health:2, present:true, voltage: 3936, temperature: 328, technology: Li-ion, AC powered:false, USB powered:true, Wireless powered:false, icon:17303687, invalid charger:0
315011-14 09:17:12.998 868-1766/? D/BatteryService: online:4, current avg:460, charge type:1, power sharing:false, high voltage charger:false, capacity:280000, current_now:460
315111-14 09:17:12.998 868-868/? D/BatteryService: Sending ACTION_BATTERY_CHANGED.
315211-14 09:17:12.998 1263-1263/? D/KeyguardUpdateMonitor: received broadcast android.intent.action.BATTERY_CHANGED
315311-14 09:17:13.008 868-868/? I/MotionRecognitionService: Plugged
315411-14 09:17:13.008 868-868/? I/MotionRecognitionService: setPowerConnected  = true
315511-14 09:17:13.008 1263-1263/? D/STATUSBAR-PhoneStatusBar:  mBrightnessEnablebySettings = true mBrightnessEnablebyBattery = true mBrightnessEnablebyDisableFlag = true mPmsBrightnessEnablebySettings = true
315611-14 09:17:13.008 1263-1263/? D/KeyguardUpdateMonitor: handleBatteryUpdate
315711-14 09:17:13.018 1263-1263/? D/BatteryMeterView: ACTION_BATTERY_CHANGED : level:67 status:2 health:2
315811-14 09:17:13.028 1263-1263/? D/BatteryMeterView: ACTION_BATTERY_CHANGED : level:67 status:2 health:2
315911-14 09:17:13.028 1263-1263/? D/BatteryMeterView: ACTION_BATTERY_CHANGED : level:67 status:2 health:2
316011-14 09:17:13.038 278-278/? D/SurfaceFlinger: FPS : 1.08
316111-14 09:17:13.038 278-278/? W/SurfaceFlinger: Fail to Open /sys/devices/platform/gpusysfs/fps
316211-14 09:17:13.528 24953-24953/? E/SMD: smd Interface open failed errno is 2 -1
316311-14 09:17:14.059 1263-1263/? D/StatusBar.NetworkController: refreshViews connected={ wifi } level=3 combinedSignalIconId=0x7f020517/com.android.systemui:drawable/stat_sys_wifi_signal_4 mobileLabel=Emergency calls only wifiLabel="Badger"xxxxXXXXxxxxXXXX emergencyOnly=true combinedLabel="Badger"xxxxXXXXxxxxXXXX mAirplaneMode=false mDataActivity=0 mPhoneSignalIconId=0x7f02048e/com.android.systemui:drawable/stat_sys_signal_3_auto_rotate mQSPhoneSignalIconId=0x7f02012b/com.android.systemui:drawable/ic_qs_signal_3 mDataDirectionIconId=0x0/(null) mDataSignalIconId=0x7f02048e/com.android.systemui:drawable/stat_sys_signal_3_auto_rotate mDataTypeIconId=0x0/(null) mQSDataTypeIconId=0x0/(null) mNoSimIconId=0x0/(null) mWifiIconId=0x7f020517/com.android.systemui:drawable/stat_sys_wifi_signal_4 mQSWifiIconId=0x7f020143/com.android.systemui:drawable/ic_qs_wifi_4 mWifiActivityIconId=0x7f0204e6/com.android.systemui:drawable/stat_sys_signal_in mBluetoothTetherIconId=0x10808cc/android:drawable/stat_sys_tether_bluetooth
316411-14 09:17:14.059 1263-1263/? D/STATUSBAR-WifiQuickSettingButton: onWifiSignalChanged enabled=true enabledDesc:"Badger"
316511-14 09:17:14.069 1263-1263/? D/StatusBar.NetworkController: refreshSignalCluster - setNWBoosterIndicators(false)
316611-14 09:17:14.069 1263-1263/? D/StatusBar.NetworkController: applyOpen
316711-14 09:17:14.069 1263-1263/? D/StatusBar.NetworkController: refreshSignalCluster - setNWBoosterIndicators(false)
316811-14 09:17:14.069 1263-1263/? D/StatusBar.NetworkController: applyOpen
316911-14 09:17:14.069 1263-1263/? D/StatusBar.NetworkController: refreshSignalCluster - setNWBoosterIndicators(false)
317011-14 09:17:14.079 1263-1263/? D/StatusBar.NetworkController: applyOpen
317111-14 09:17:14.089 1263-1263/? D/StatusBar.NetworkController: refreshSignalCluster - setNWBoosterIndicators(false)
317211-14 09:17:14.089 1263-1263/? D/StatusBar.NetworkController: applyOpen
317311-14 09:17:14.119 278-278/? D/SurfaceFlinger: FPS : 0.92
317411-14 09:17:14.119 278-278/? W/SurfaceFlinger: Fail to Open /sys/devices/platform/gpusysfs/fps
317511-14 09:17:14.529 24953-24953/? E/SMD: smd Interface open failed errno is 2 -1
317611-14 09:17:15.530 24953-24953/? E/SMD: smd Interface open failed errno is 2 -1
317711-14 09:17:16.531 24953-24953/? E/SMD: smd Interface open failed errno is 2 -1
317811-14 09:17:17.532 24953-24953/? E/SMD: smd Interface open failed errno is 2 -1
317911-14 09:17:17.832 25109-25109/? E/Diag_Lib:  Diag_LSM_Init: Failed to open handle to diag driver, error = 2
318011-14 09:17:18.533 24953-24953/? E/SMD: smd Interface open failed errno is 2 -1
318111-14 09:17:18.633 15042-15057/? I/art: Background sticky concurrent mark sweep GC freed 177844(8MB) AllocSpace objects, 26(1127KB) LOS objects, 14% free, 46MB/54MB, paused 1.037ms total 141.082ms
318211-14 09:17:19.534 24953-24953/? E/SMD: smd Interface open failed errno is 2 -1
318311-14 09:17:20.535 24953-24953/? E/SMD: smd Interface open failed errno is 2 -1
318411-14 09:17:20.775 868-3238/? D/SSRM:n: SIOP:: AP = 430, CUR = 460
318511-14 09:17:21.266 304-22404/? E/OMX-VDEC-1080P: Rxd i/p EOS, Notify Driver that EOS has been reached
318611-14 09:17:21.266 304-22404/? E/OMX-VDEC-1080P: Output EOS has been reached
318711-14 09:17:21.276 304-22404/? E/OMX-VDEC-1080P: Rxd OMX_COMPONENT_GENERATE_EOS_DONE
318811-14 09:17:21.436 304-763/? E/OMX-VDEC-1080P: send_command: Recieved a Command from Client
318911-14 09:17:21.436 304-22404/? E/OMX-VDEC-1080P: send_command_proxy(): cmd = 1, Current State 3, Expected State -1
319011-14 09:17:21.436 304-22404/? E/OMX-VDEC-1080P: send_command_proxy(): OMX_CommandFlush issued with param1: -1
319111-14 09:17:21.436 304-763/? E/OMX-VDEC-1080P: send_command: Command Processed
319211-14 09:17:21.436 15042-22403/? I/ACodec: [OMX.qcom.video.decoder.avc] Now Flushing
319311-14 09:17:21.446 304-22404/? E/OMX-VDEC-1080P: Driver flush i/p Port complete
319411-14 09:17:21.446 304-22404/? E/OMX-VDEC-1080P: Initiate Input Flush
319511-14 09:17:21.446 304-22404/? E/OMX-VDEC-1080P: OMX flush i/p Port complete PenBuf(0)
319611-14 09:17:21.446 304-22404/? E/OMX-VDEC-1080P: Driver flush o/p Port complete
319711-14 09:17:21.446 304-22404/? E/OMX-VDEC-1080P: Initiate Output Flush
319811-14 09:17:21.456 304-22404/? E/OMX-VDEC-1080P: Buffer queue size 5 pending buf cnt 5
319911-14 09:17:21.456 304-22404/? E/OMX-VDEC-1080P: ID(c) P1(b1d5ba30) P2(40000000)
320011-14 09:17:21.456 304-22404/? E/OMX-VDEC-1080P: Buffer queue size 4 pending buf cnt 4
320111-14 09:17:21.456 304-22404/? E/OMX-VDEC-1080P: ID(c) P1(b1d5ba80) P2(40000000)
320211-14 09:17:21.456 304-22404/? E/OMX-VDEC-1080P: Buffer queue size 3 pending buf cnt 3
320311-14 09:17:21.456 304-22404/? E/OMX-VDEC-1080P: ID(c) P1(b1d5bad0) P2(40000000)
320411-14 09:17:21.466 304-22404/? E/OMX-VDEC-1080P: Buffer queue size 2 pending buf cnt 2
320511-14 09:17:21.466 304-22404/? E/OMX-VDEC-1080P: ID(c) P1(b1d5bb20) P2(40000000)
320611-14 09:17:21.466 304-22404/? E/OMX-VDEC-1080P: Buffer queue size 1 pending buf cnt 1
320711-14 09:17:21.466 304-22404/? E/OMX-VDEC-1080P: ID(c) P1(b1d5bb70) P2(40000000)
320811-14 09:17:21.466 304-22404/? E/OMX-VDEC-1080P: OMX flush o/p Port complete PenBuf(0)
320911-14 09:17:21.476 15042-22403/? I/ACodec: [OMX.qcom.video.decoder.avc] Now Executing
321011-14 09:17:21.506 304-22404/? E/OMX-VDEC-1080P: Sync frame received
321111-14 09:17:21.536 24953-24953/? E/SMD: smd Interface open failed errno is 2 -1
321211-14 09:17:22.096 1263-1263/? D/StatusBar.NetworkController: refreshViews connected={ wifi } level=3 combinedSignalIconId=0x7f020517/com.android.systemui:drawable/stat_sys_wifi_signal_4 mobileLabel=Emergency calls only wifiLabel="Badger"xxxxXXXXxxxxXXXX emergencyOnly=true combinedLabel="Badger"xxxxXXXXxxxxXXXX mAirplaneMode=false mDataActivity=0 mPhoneSignalIconId=0x7f02048e/com.android.systemui:drawable/stat_sys_signal_3_auto_rotate mQSPhoneSignalIconId=0x7f02012b/com.android.systemui:drawable/ic_qs_signal_3 mDataDirectionIconId=0x0/(null) mDataSignalIconId=0x7f02048e/com.android.systemui:drawable/stat_sys_signal_3_auto_rotate mDataTypeIconId=0x0/(null) mQSDataTypeIconId=0x0/(null) mNoSimIconId=0x0/(null) mWifiIconId=0x7f020517/com.android.systemui:drawable/stat_sys_wifi_signal_4 mQSWifiIconId=0x7f020143/com.android.systemui:drawable/ic_qs_wifi_4 mWifiActivityIconId=0x7f0204e8/com.android.systemui:drawable/stat_sys_signal_inout mBluetoothTetherIconId=0x10808cc/android:drawable/stat_sys_tether_bluetooth
321311-14 09:17:22.096 1263-1263/? D/STATUSBAR-WifiQuickSettingButton: onWifiSignalChanged enabled=true enabledDesc:"Badger"
321411-14 09:17:22.107 1263-1263/? D/StatusBar.NetworkController: refreshSignalCluster - setNWBoosterIndicators(false)
321511-14 09:17:22.107 1263-1263/? D/StatusBar.NetworkController: applyOpen
321611-14 09:17:22.107 1263-1263/? D/StatusBar.NetworkController: refreshSignalCluster - setNWBoosterIndicators(false)
321711-14 09:17:22.107 1263-1263/? D/StatusBar.NetworkController: applyOpen
321811-14 09:17:22.107 1263-1263/? D/StatusBar.NetworkController: refreshSignalCluster - setNWBoosterIndicators(false)
321911-14 09:17:22.117 1263-1263/? D/StatusBar.NetworkController: applyOpen
322011-14 09:17:22.127 1263-1263/? D/StatusBar.NetworkController: refreshSignalCluster - setNWBoosterIndicators(false)
322111-14 09:17:22.127 1263-1263/? D/StatusBar.NetworkController: applyOpen
322211-14 09:17:22.157 278-278/? D/SurfaceFlinger: FPS : 0.12
322311-14 09:17:22.157 278-278/? W/SurfaceFlinger: Fail to Open /sys/devices/platform/gpusysfs/fps
322411-14 09:17:22.527 24953-24953/? E/SMD: smd Interface open failed errno is 2 -1
322511-14 09:17:22.797 25112-25112/? E/Diag_Lib:  Diag_LSM_Init: Failed to open handle to diag driver, error = 2
322611-14 09:17:23.037 868-1327/? D/BatteryService: !@BatteryListener : batteryPropertiesChanged!
322711-14 09:17:23.037 868-1327/? D/BatteryService: level:67, scale:100, status:2, health:2, present:true, voltage: 3985, temperature: 328, technology: Li-ion, AC powered:false, USB powered:true, Wireless powered:false, icon:17303687, invalid charger:0
322811-14 09:17:23.037 868-1327/? D/BatteryService: online:4, current avg:460, charge type:1, power sharing:false, high voltage charger:false, capacity:280000, current_now:460
322911-14 09:17:23.047 868-868/? D/BatteryService: Sending ACTION_BATTERY_CHANGED.
323011-14 09:17:23.047 868-868/? I/MotionRecognitionService: Plugged
323111-14 09:17:23.047 868-868/? I/MotionRecognitionService: setPowerConnected  = true
323211-14 09:17:23.047 1263-1263/? D/KeyguardUpdateMonitor: received broadcast android.intent.action.BATTERY_CHANGED
323311-14 09:17:23.047 1263-1263/? D/KeyguardUpdateMonitor: handleBatteryUpdate
323411-14 09:17:23.057 1263-1263/? D/STATUSBAR-PhoneStatusBar:  mBrightnessEnablebySettings = true mBrightnessEnablebyBattery = true mBrightnessEnablebyDisableFlag = true mPmsBrightnessEnablebySettings = true
323511-14 09:17:23.057 1263-1263/? D/BatteryMeterView: ACTION_BATTERY_CHANGED : level:67 status:2 health:2
323611-14 09:17:23.067 1263-1263/? D/BatteryMeterView: ACTION_BATTERY_CHANGED : level:67 status:2 health:2
323711-14 09:17:23.067 1263-1263/? D/BatteryMeterView: ACTION_BATTERY_CHANGED : level:67 status:2 health:2
323811-14 09:17:23.087 1263-1263/? D/StatusBar.NetworkController: refreshViews connected={ wifi } level=3 combinedSignalIconId=0x7f020517/com.android.systemui:drawable/stat_sys_wifi_signal_4 mobileLabel=Emergency calls only wifiLabel="Badger"xxxxXXXXxxxxXXXX emergencyOnly=true combinedLabel="Badger"xxxxXXXXxxxxXXXX mAirplaneMode=false mDataActivity=0 mPhoneSignalIconId=0x7f02048e/com.android.systemui:drawable/stat_sys_signal_3_auto_rotate mQSPhoneSignalIconId=0x7f02012b/com.android.systemui:drawable/ic_qs_signal_3 mDataDirectionIconId=0x0/(null) mDataSignalIconId=0x7f02048e/com.android.systemui:drawable/stat_sys_signal_3_auto_rotate mDataTypeIconId=0x0/(null) mQSDataTypeIconId=0x0/(null) mNoSimIconId=0x0/(null) mWifiIconId=0x7f020517/com.android.systemui:drawable/stat_sys_wifi_signal_4 mQSWifiIconId=0x7f020143/com.android.systemui:drawable/ic_qs_wifi_4 mWifiActivityIconId=0x7f0204e6/com.android.systemui:drawable/stat_sys_signal_in mBluetoothTetherIconId=0x10808cc/android:drawable/stat_sys_tether_bluetooth
323911-14 09:17:23.087 1263-1263/? D/STATUSBAR-WifiQuickSettingButton: onWifiSignalChanged enabled=true enabledDesc:"Badger"
324011-14 09:17:23.087 278-278/? D/SurfaceFlinger: FPS : 1.06
324111-14 09:17:23.097 278-278/? W/SurfaceFlinger: Fail to Open /sys/devices/platform/gpusysfs/fps
324211-14 09:17:23.097 1263-1263/? D/StatusBar.NetworkController: refreshSignalCluster - setNWBoosterIndicators(false)
324311-14 09:17:23.097 1263-1263/? D/StatusBar.NetworkController: applyOpen
324411-14 09:17:23.097 1263-1263/? D/StatusBar.NetworkController: refreshSignalCluster - setNWBoosterIndicators(false)
324511-14 09:17:23.097 1263-1263/? D/StatusBar.NetworkController: applyOpen
324611-14 09:17:23.107 1263-1263/? D/StatusBar.NetworkController: refreshSignalCluster - setNWBoosterIndicators(false)
324711-14 09:17:23.107 1263-1263/? D/StatusBar.NetworkController: applyOpen
324811-14 09:17:23.107 1263-1263/? D/StatusBar.NetworkController: refreshSignalCluster - setNWBoosterIndicators(false)
324911-14 09:17:23.117 1263-1263/? D/StatusBar.NetworkController: applyOpen
325011-14 09:17:23.127 278-278/? D/SurfaceFlinger: FPS : 1.06
325111-14 09:17:23.127 278-278/? W/SurfaceFlinger: Fail to Open /sys/devices/platform/gpusysfs/fps
325211-14 09:17:23.528 24953-24953/? E/SMD: smd Interface open failed errno is 2 -1
325311-14 09:17:24.159 278-278/? D/SurfaceFlinger: FPS : 1.88
325411-14 09:17:24.159 278-278/? W/SurfaceFlinger: Fail to Open /sys/devices/platform/gpusysfs/fps
325511-14 09:17:24.529 24953-24953/? E/SMD: smd Interface open failed errno is 2 -1
325611-14 09:17:25.290 868-1528/? D/ActivityManager: startService callerProcessName:com.google.android.gms, calleePkgName: com.google.android.gms
325711-14 09:17:25.530 24953-24953/? E/SMD: smd Interface open failed errno is 2 -1
325811-14 09:17:25.800 868-1397/? E/Watchdog: !@Sync 45
325911-14 09:17:26.100 1263-1263/? D/StatusBar.NetworkController: refreshViews connected={ wifi } level=3 combinedSignalIconId=0x7f020517/com.android.systemui:drawable/stat_sys_wifi_signal_4 mobileLabel=Emergency calls only wifiLabel="Badger"xxxxXXXXxxxxXXXX emergencyOnly=true combinedLabel="Badger"xxxxXXXXxxxxXXXX mAirplaneMode=false mDataActivity=0 mPhoneSignalIconId=0x7f02048e/com.android.systemui:drawable/stat_sys_signal_3_auto_rotate mQSPhoneSignalIconId=0x7f02012b/com.android.systemui:drawable/ic_qs_signal_3 mDataDirectionIconId=0x0/(null) mDataSignalIconId=0x7f02048e/com.android.systemui:drawable/stat_sys_signal_3_auto_rotate mDataTypeIconId=0x0/(null) mQSDataTypeIconId=0x0/(null) mNoSimIconId=0x0/(null) mWifiIconId=0x7f020517/com.android.systemui:drawable/stat_sys_wifi_signal_4 mQSWifiIconId=0x7f020143/com.android.systemui:drawable/ic_qs_wifi_4 mWifiActivityIconId=0x7f0204e8/com.android.systemui:drawable/stat_sys_signal_inout mBluetoothTetherIconId=0x10808cc/android:drawable/stat_sys_tether_bluetooth
326011-14 09:17:26.110 1263-1263/? D/STATUSBAR-WifiQuickSettingButton: onWifiSignalChanged enabled=true enabledDesc:"Badger"
326111-14 09:17:26.110 1263-1263/? D/StatusBar.NetworkController: refreshSignalCluster - setNWBoosterIndicators(false)
326211-14 09:17:26.110 1263-1263/? D/StatusBar.NetworkController: applyOpen
326311-14 09:17:26.120 1263-1263/? D/StatusBar.NetworkController: refreshSignalCluster - setNWBoosterIndicators(false)
326411-14 09:17:26.120 1263-1263/? D/StatusBar.NetworkController: applyOpen
326511-14 09:17:26.120 1263-1263/? D/StatusBar.NetworkController: refreshSignalCluster - setNWBoosterIndicators(false)
326611-14 09:17:26.130 1263-1263/? D/StatusBar.NetworkController: applyOpen
326711-14 09:17:26.140 1263-1263/? D/StatusBar.NetworkController: refreshSignalCluster - setNWBoosterIndicators(false)
326811-14 09:17:26.140 1263-1263/? D/StatusBar.NetworkController: applyOpen
326911-14 09:17:26.150 278-278/? D/SurfaceFlinger: FPS : 0.50
327011-14 09:17:26.150 278-278/? W/SurfaceFlinger: Fail to Open /sys/devices/platform/gpusysfs/fps
327111-14 09:17:26.531 24953-24953/? E/SMD: smd Interface open failed errno is 2 -1
327211-14 09:17:27.111 1263-1263/? D/StatusBar.NetworkController: refreshViews connected={ wifi } level=3 combinedSignalIconId=0x7f020517/com.android.systemui:drawable/stat_sys_wifi_signal_4 mobileLabel=Emergency calls only wifiLabel="Badger"xxxxXXXXxxxxXXXX emergencyOnly=true combinedLabel="Badger"xxxxXXXXxxxxXXXX mAirplaneMode=false mDataActivity=0 mPhoneSignalIconId=0x7f02048e/com.android.systemui:drawable/stat_sys_signal_3_auto_rotate mQSPhoneSignalIconId=0x7f02012b/com.android.systemui:drawable/ic_qs_signal_3 mDataDirectionIconId=0x0/(null) mDataSignalIconId=0x7f02048e/com.android.systemui:drawable/stat_sys_signal_3_auto_rotate mDataTypeIconId=0x0/(null) mQSDataTypeIconId=0x0/(null) mNoSimIconId=0x0/(null) mWifiIconId=0x7f020517/com.android.systemui:drawable/stat_sys_wifi_signal_4 mQSWifiIconId=0x7f020143/com.android.systemui:drawable/ic_qs_wifi_4 mWifiActivityIconId=0x7f0204e6/com.android.systemui:drawable/stat_sys_signal_in mBluetoothTetherIconId=0x10808cc/android:drawable/stat_sys_tether_bluetooth
327311-14 09:17:27.111 1263-1263/? D/STATUSBAR-WifiQuickSettingButton: onWifiSignalChanged enabled=true enabledDesc:"Badger"
327411-14 09:17:27.121 1263-1263/? D/StatusBar.NetworkController: refreshSignalCluster - setNWBoosterIndicators(false)
327511-14 09:17:27.121 1263-1263/? D/StatusBar.NetworkController: applyOpen
327611-14 09:17:27.121 1263-1263/? D/StatusBar.NetworkController: refreshSignalCluster - setNWBoosterIndicators(false)
327711-14 09:17:27.121 1263-1263/? D/StatusBar.NetworkController: applyOpen
327811-14 09:17:27.131 1263-1263/? D/StatusBar.NetworkController: refreshSignalCluster - setNWBoosterIndicators(false)
327911-14 09:17:27.141 1263-1263/? D/StatusBar.NetworkController: applyOpen
328011-14 09:17:27.141 1263-1263/? D/StatusBar.NetworkController: refreshSignalCluster - setNWBoosterIndicators(false)
328111-14 09:17:27.141 1263-1263/? D/StatusBar.NetworkController: applyOpen
328211-14 09:17:27.151 278-278/? D/SurfaceFlinger: FPS : 1.00
328311-14 09:17:27.151 278-278/? W/SurfaceFlinger: Fail to Open /sys/devices/platform/gpusysfs/fps
328411-14 09:17:27.532 24953-24953/? E/SMD: smd Interface open failed errno is 2 -1
328511-14 09:17:27.852 25115-25115/? E/Diag_Lib:  Diag_LSM_Init: Failed to open handle to diag driver, error = 2
328611-14 09:17:28.182 278-278/? D/SurfaceFlinger: FPS : 0.97
328711-14 09:17:28.182 278-278/? W/SurfaceFlinger: Fail to Open /sys/devices/platform/gpusysfs/fps
328811-14 09:17:28.543 24953-24953/? E/SMD: smd Interface open failed errno is 2 -1
328911-14 09:17:29.093 868-1768/? D/ConnectivityService: returning getActiveNetworkInfo :[type: WIFI[] - WIFI, state: CONNECTED/CONNECTED, reason: (unspecified), extra: "Badger", roaming: false, failover: false, isAvailable: true, isConnectedToProvisioningNetwork: false]
329011-14 09:17:29.113 1263-1263/? D/StatusBar.NetworkController: refreshViews connected={ wifi } level=3 combinedSignalIconId=0x7f020517/com.android.systemui:drawable/stat_sys_wifi_signal_4 mobileLabel=Emergency calls only wifiLabel="Badger"xxxxXXXXxxxxXXXX emergencyOnly=true combinedLabel="Badger"xxxxXXXXxxxxXXXX mAirplaneMode=false mDataActivity=0 mPhoneSignalIconId=0x7f02048e/com.android.systemui:drawable/stat_sys_signal_3_auto_rotate mQSPhoneSignalIconId=0x7f02012b/com.android.systemui:drawable/ic_qs_signal_3 mDataDirectionIconId=0x0/(null) mDataSignalIconId=0x7f02048e/com.android.systemui:drawable/stat_sys_signal_3_auto_rotate mDataTypeIconId=0x0/(null) mQSDataTypeIconId=0x0/(null) mNoSimIconId=0x0/(null) mWifiIconId=0x7f020517/com.android.systemui:drawable/stat_sys_wifi_signal_4 mQSWifiIconId=0x7f020143/com.android.systemui:drawable/ic_qs_wifi_4 mWifiActivityIconId=0x7f0204e8/com.android.systemui:drawable/stat_sys_signal_inout mBluetoothTetherIconId=0x10808cc/android:drawable/stat_sys_tether_bluetooth
329111-14 09:17:29.123 1263-1263/? D/STATUSBAR-WifiQuickSettingButton: onWifiSignalChanged enabled=true enabledDesc:"Badger"
329211-14 09:17:29.123 1263-1263/? D/StatusBar.NetworkController: refreshSignalCluster - setNWBoosterIndicators(false)
329311-14 09:17:29.123 1263-1263/? D/StatusBar.NetworkController: applyOpen
329411-14 09:17:29.133 1263-1263/? D/StatusBar.NetworkController: refreshSignalCluster - setNWBoosterIndicators(false)
329511-14 09:17:29.133 1263-1263/? D/StatusBar.NetworkController: applyOpen
329611-14 09:17:29.143 1263-1263/? D/StatusBar.NetworkController: refreshSignalCluster - setNWBoosterIndicators(false)
329711-14 09:17:29.143 1263-1263/? D/StatusBar.NetworkController: applyOpen
329811-14 09:17:29.143 1263-1263/? D/StatusBar.NetworkController: refreshSignalCluster - setNWBoosterIndicators(false)
329911-14 09:17:29.143 1263-1263/? D/StatusBar.NetworkController: applyOpen
330011-14 09:17:29.163 278-278/? D/SurfaceFlinger: FPS : 1.02
330111-14 09:17:29.163 278-278/? W/SurfaceFlinger: Fail to Open /sys/devices/platform/gpusysfs/fps
330211-14 09:17:29.544 24953-24953/? E/SMD: smd Interface open failed errno is 2 -1
330311-14 09:17:30.545 24953-24953/? E/SMD: smd Interface open failed errno is 2 -1
330411-14 09:17:30.835 868-3238/? D/SSRM:n: SIOP:: AP = 430, CUR = 460
330511-14 09:17:31.185 278-278/? D/SurfaceFlinger: FPS : 0.50
330611-14 09:17:31.185 278-278/? W/SurfaceFlinger: Fail to Open /sys/devices/platform/gpusysfs/fps
330711-14 09:17:31.546 24953-24953/? E/SMD: smd Interface open failed errno is 2 -1
330811-14 09:17:31.566 304-22404/? E/OMX-VDEC-1080P: Rxd i/p EOS, Notify Driver that EOS has been reached
330911-14 09:17:31.566 304-22404/? E/OMX-VDEC-1080P: Output EOS has been reached
331011-14 09:17:31.566 304-22404/? E/OMX-VDEC-1080P: Rxd OMX_COMPONENT_GENERATE_EOS_DONE
331111-14 09:17:31.736 304-22409/? E/OMX-VDEC-1080P: send_command: Recieved a Command from Client
331211-14 09:17:31.736 304-22404/? E/OMX-VDEC-1080P: send_command_proxy(): cmd = 1, Current State 3, Expected State -1
331311-14 09:17:31.736 304-22404/? E/OMX-VDEC-1080P: send_command_proxy(): OMX_CommandFlush issued with param1: -1
331411-14 09:17:31.746 304-22409/? E/OMX-VDEC-1080P: send_command: Command Processed
331511-14 09:17:31.746 15042-22403/? I/ACodec: [OMX.qcom.video.decoder.avc] Now Flushing
331611-14 09:17:31.746 304-22404/? E/OMX-VDEC-1080P: Driver flush i/p Port complete
331711-14 09:17:31.746 304-22404/? E/OMX-VDEC-1080P: Initiate Input Flush
331811-14 09:17:31.746 304-22404/? E/OMX-VDEC-1080P: OMX flush i/p Port complete PenBuf(0)
331911-14 09:17:31.746 304-22404/? E/OMX-VDEC-1080P: Driver flush o/p Port complete
332011-14 09:17:31.756 304-22404/? E/OMX-VDEC-1080P: Initiate Output Flush
332111-14 09:17:31.756 304-22404/? E/OMX-VDEC-1080P: Buffer queue size 6 pending buf cnt 6
332211-14 09:17:31.756 304-22404/? E/OMX-VDEC-1080P: ID(c) P1(b1d5ba30) P2(40000000)
332311-14 09:17:31.756 304-22404/? E/OMX-VDEC-1080P: Buffer queue size 5 pending buf cnt 5
332411-14 09:17:31.756 304-22404/? E/OMX-VDEC-1080P: ID(c) P1(b1d5ba80) P2(40000000)
332511-14 09:17:31.756 304-22404/? E/OMX-VDEC-1080P: Buffer queue size 4 pending buf cnt 4
332611-14 09:17:31.766 304-22404/? E/OMX-VDEC-1080P: ID(c) P1(b1d5bad0) P2(40000000)
332711-14 09:17:31.766 304-22404/? E/OMX-VDEC-1080P: Buffer queue size 3 pending buf cnt 3
332811-14 09:17:31.766 304-22404/? E/OMX-VDEC-1080P: ID(c) P1(b1d5b940) P2(40000000)
332911-14 09:17:31.766 304-22404/? E/OMX-VDEC-1080P: Buffer queue size 2 pending buf cnt 2
333011-14 09:17:31.766 304-22404/? E/OMX-VDEC-1080P: ID(c) P1(b1d5b990) P2(40000000)
333111-14 09:17:31.766 304-22404/? E/OMX-VDEC-1080P: Buffer queue size 1 pending buf cnt 1
333211-14 09:17:31.776 304-22404/? E/OMX-VDEC-1080P: ID(c) P1(b1d5b9e0) P2(40000000)
333311-14 09:17:31.776 304-22404/? E/OMX-VDEC-1080P: OMX flush o/p Port complete PenBuf(0)
333411-14 09:17:31.776 15042-22403/? I/ACodec: [OMX.qcom.video.decoder.avc] Now Executing
333511-14 09:17:31.806 304-22404/? E/OMX-VDEC-1080P: Sync frame received
333611-14 09:17:32.537 24953-24953/? E/SMD: smd Interface open failed errno is 2 -1
333711-14 09:17:32.847 25118-25118/? E/Diag_Lib:  Diag_LSM_Init: Failed to open handle to diag driver, error = 2
333811-14 09:17:33.067 868-907/? D/BatteryService: !@BatteryListener : batteryPropertiesChanged!
333911-14 09:17:33.077 868-907/? D/BatteryService: level:67, scale:100, status:2, health:2, present:true, voltage: 3991, temperature: 328, technology: Li-ion, AC powered:false, USB powered:true, Wireless powered:false, icon:17303687, invalid charger:0
334011-14 09:17:33.077 868-907/? D/BatteryService: online:4, current avg:460, charge type:1, power sharing:false, high voltage charger:false, capacity:280000, current_now:460
334111-14 09:17:33.077 868-868/? D/BatteryService: Sending ACTION_BATTERY_CHANGED.
334211-14 09:17:33.087 1263-1263/? D/KeyguardUpdateMonitor: received broadcast android.intent.action.BATTERY_CHANGED
334311-14 09:17:33.087 1263-1263/? D/KeyguardUpdateMonitor: handleBatteryUpdate
334411-14 09:17:33.087 868-868/? I/MotionRecognitionService: Plugged
334511-14 09:17:33.087 868-868/? I/MotionRecognitionService: setPowerConnected  = true
334611-14 09:17:33.087 1263-1263/? D/STATUSBAR-PhoneStatusBar:  mBrightnessEnablebySettings = true mBrightnessEnablebyBattery = true mBrightnessEnablebyDisableFlag = true mPmsBrightnessEnablebySettings = true
334711-14 09:17:33.097 1263-1263/? D/BatteryMeterView: ACTION_BATTERY_CHANGED : level:67 status:2 health:2
334811-14 09:17:33.107 1263-1263/? D/BatteryMeterView: ACTION_BATTERY_CHANGED : level:67 status:2 health:2
334911-14 09:17:33.107 1263-1263/? D/BatteryMeterView: ACTION_BATTERY_CHANGED : level:67 status:2 health:2
335011-14 09:17:33.117 278-278/? D/SurfaceFlinger: FPS : 0.52
335111-14 09:17:33.117 278-278/? W/SurfaceFlinger: Fail to Open /sys/devices/platform/gpusysfs/fps
335211-14 09:17:33.538 24953-24953/? E/SMD: smd Interface open failed errno is 2 -1
335311-14 09:17:34.539 24953-24953/? E/SMD: smd Interface open failed errno is 2 -1
335411-14 09:17:35.129 278-278/? D/SurfaceFlinger: FPS : 0.50
335511-14 09:17:35.129 278-278/? W/SurfaceFlinger: Fail to Open /sys/devices/platform/gpusysfs/fps
335611-14 09:17:35.540 24953-24953/? E/SMD: smd Interface open failed errno is 2 -1
335711-14 09:17:36.541 24953-24953/? E/SMD: smd Interface open failed errno is 2 -1
335811-14 09:17:37.542 24953-24953/? E/SMD: smd Interface open failed errno is 2 -1
335911-14 09:17:37.902 25122-25122/? E/Diag_Lib:  Diag_LSM_Init: Failed to open handle to diag driver, error = 2
336011-14 09:17:38.442 868-1163/? D/InputReader: Input event: value=1
336111-14 09:17:38.452 868-1163/? I/InputReader: Touch event's action is 0x0 (deviceType=0) [pCnt=1, s=0.309 ] when=1386409726000
336211-14 09:17:38.452 868-1162/? I/InputDispatcher: Delivering touch to (1263): action: 0x4, toolType: 1
336311-14 09:17:38.452 868-1162/? I/InputDispatcher: Delivering touch to (15042): action: 0x0, toolType: 1
336411-14 09:17:38.452 15042-15042/? D/ViewRootImpl: ViewPostImeInputStage ACTION_DOWN
336511-14 09:17:38.543 24953-24953/? E/SMD: smd Interface open failed errno is 2 -1
336611-14 09:17:38.553 868-3238/? D/CustomFrequencyManagerService: acquireDVFSLockLocked : type : DVFS_MIN_LIMIT  frequency : 1566000  uid : 1000  pid : 868  pkgName : LIST_SCROLL_BOOSTER@35
336711-14 09:17:38.593 278-278/? D/SurfaceFlinger: FPS : 0.29
336811-14 09:17:38.593 278-278/? W/SurfaceFlinger: Fail to Open /sys/devices/platform/gpusysfs/fps
336911-14 09:17:38.603 278-278/? D/SurfaceFlinger: FPS : 0.29
337011-14 09:17:38.603 278-278/? W/SurfaceFlinger: Fail to Open /sys/devices/platform/gpusysfs/fps
337111-14 09:17:38.623 278-278/? D/SurfaceFlinger: FPS : 0.29
337211-14 09:17:38.623 278-278/? W/SurfaceFlinger: Fail to Open /sys/devices/platform/gpusysfs/fps
337311-14 09:17:38.633 278-278/? D/SurfaceFlinger: FPS : 0.29
337411-14 09:17:38.633 278-278/? W/SurfaceFlinger: Fail to Open /sys/devices/platform/gpusysfs/fps
337511-14 09:17:38.653 278-278/? D/SurfaceFlinger: FPS : 0.29
337611-14 09:17:38.653 278-278/? W/SurfaceFlinger: Fail to Open /sys/devices/platform/gpusysfs/fps
337711-14 09:17:38.673 278-278/? D/SurfaceFlinger: FPS : 0.29
337811-14 09:17:38.673 278-278/? W/SurfaceFlinger: Fail to Open /sys/devices/platform/gpusysfs/fps
337911-14 09:17:38.693 278-278/? D/SurfaceFlinger: FPS : 0.29
338011-14 09:17:38.693 278-278/? W/SurfaceFlinger: Fail to Open /sys/devices/platform/gpusysfs/fps
338111-14 09:17:38.703 278-278/? D/SurfaceFlinger: FPS : 0.29
338211-14 09:17:38.703 278-278/? W/SurfaceFlinger: Fail to Open /sys/devices/platform/gpusysfs/fps
338311-14 09:17:38.723 278-278/? D/SurfaceFlinger: FPS : 0.29
338411-14 09:17:38.723 278-278/? W/SurfaceFlinger: Fail to Open /sys/devices/platform/gpusysfs/fps
338511-14 09:17:38.733 278-278/? D/SurfaceFlinger: FPS : 0.29
338611-14 09:17:38.733 278-278/? W/SurfaceFlinger: Fail to Open /sys/devices/platform/gpusysfs/fps
338711-14 09:17:38.753 278-278/? D/SurfaceFlinger: FPS : 0.29
338811-14 09:17:38.753 278-278/? W/SurfaceFlinger: Fail to Open /sys/devices/platform/gpusysfs/fps
338911-14 09:17:38.773 278-278/? D/SurfaceFlinger: FPS : 0.29
339011-14 09:17:38.773 278-278/? W/SurfaceFlinger: Fail to Open /sys/devices/platform/gpusysfs/fps
339111-14 09:17:38.783 278-278/? D/SurfaceFlinger: FPS : 0.29
339211-14 09:17:38.783 278-278/? W/SurfaceFlinger: Fail to Open /sys/devices/platform/gpusysfs/fps
339311-14 09:17:38.803 278-278/? D/SurfaceFlinger: FPS : 0.29
339411-14 09:17:38.803 278-278/? W/SurfaceFlinger: Fail to Open /sys/devices/platform/gpusysfs/fps
339511-14 09:17:38.823 278-278/? D/SurfaceFlinger: FPS : 0.29
339611-14 09:17:38.823 278-278/? W/SurfaceFlinger: Fail to Open /sys/devices/platform/gpusysfs/fps
339711-14 09:17:38.833 278-278/? D/SurfaceFlinger: FPS : 0.29
339811-14 09:17:38.833 278-278/? W/SurfaceFlinger: Fail to Open /sys/devices/platform/gpusysfs/fps
339911-14 09:17:38.853 278-278/? D/SurfaceFlinger: FPS : 60.49
340011-14 09:17:38.853 278-278/? W/SurfaceFlinger: Fail to Open /sys/devices/platform/gpusysfs/fps
340111-14 09:17:38.873 278-278/? D/SurfaceFlinger: FPS : 60.49
340211-14 09:17:38.873 278-278/? W/SurfaceFlinger: Fail to Open /sys/devices/platform/gpusysfs/fps
340311-14 09:17:38.883 278-278/? D/SurfaceFlinger: FPS : 60.49
340411-14 09:17:38.883 278-278/? W/SurfaceFlinger: Fail to Open /sys/devices/platform/gpusysfs/fps
340511-14 09:17:38.903 278-278/? D/SurfaceFlinger: FPS : 60.49
340611-14 09:17:38.903 278-278/? W/SurfaceFlinger: Fail to Open /sys/devices/platform/gpusysfs/fps
340711-14 09:17:38.923 278-278/? D/SurfaceFlinger: FPS : 60.49
340811-14 09:17:38.923 278-278/? W/SurfaceFlinger: Fail to Open /sys/devices/platform/gpusysfs/fps
340911-14 09:17:38.933 278-278/? D/SurfaceFlinger: FPS : 60.49
341011-14 09:17:38.933 278-278/? W/SurfaceFlinger: Fail to Open /sys/devices/platform/gpusysfs/fps
341111-14 09:17:38.953 278-278/? D/SurfaceFlinger: FPS : 60.49
341211-14 09:17:38.953 278-278/? W/SurfaceFlinger: Fail to Open /sys/devices/platform/gpusysfs/fps
341311-14 09:17:38.973 278-278/? D/SurfaceFlinger: FPS : 60.49
341411-14 09:17:38.973 278-278/? W/SurfaceFlinger: Fail to Open /sys/devices/platform/gpusysfs/fps
341511-14 09:17:38.983 278-278/? D/SurfaceFlinger: FPS : 60.49
341611-14 09:17:38.983 278-278/? W/SurfaceFlinger: Fail to Open /sys/devices/platform/gpusysfs/fps
341711-14 09:17:39.003 278-278/? D/SurfaceFlinger: FPS : 60.49
341811-14 09:17:39.003 278-278/? W/SurfaceFlinger: Fail to Open /sys/devices/platform/gpusysfs/fps
341911-14 09:17:39.023 278-278/? D/SurfaceFlinger: FPS : 60.49
342011-14 09:17:39.023 278-278/? W/SurfaceFlinger: Fail to Open /sys/devices/platform/gpusysfs/fps
342111-14 09:17:39.033 278-278/? D/SurfaceFlinger: FPS : 60.49
342211-14 09:17:39.033 278-278/? W/SurfaceFlinger: Fail to Open /sys/devices/platform/gpusysfs/fps
342311-14 09:17:39.053 278-278/? D/SurfaceFlinger: FPS : 60.49
342411-14 09:17:39.053 278-278/? W/SurfaceFlinger: Fail to Open /sys/devices/platform/gpusysfs/fps
342511-14 09:17:39.073 278-278/? D/SurfaceFlinger: FPS : 60.49
342611-14 09:17:39.073 278-278/? W/SurfaceFlinger: Fail to Open /sys/devices/platform/gpusysfs/fps
342711-14 09:17:39.083 278-278/? D/SurfaceFlinger: FPS : 60.49
342811-14 09:17:39.083 278-278/? W/SurfaceFlinger: Fail to Open /sys/devices/platform/gpusysfs/fps
342911-14 09:17:39.103 278-278/? D/SurfaceFlinger: FPS : 59.85
343011-14 09:17:39.103 278-278/? W/SurfaceFlinger: Fail to Open /sys/devices/platform/gpusysfs/fps
343111-14 09:17:39.123 278-278/? D/SurfaceFlinger: FPS : 59.85
343211-14 09:17:39.123 278-278/? W/SurfaceFlinger: Fail to Open /sys/devices/platform/gpusysfs/fps
343311-14 09:17:39.133 278-278/? D/SurfaceFlinger: FPS : 59.85
343411-14 09:17:39.133 278-278/? W/SurfaceFlinger: Fail to Open /sys/devices/platform/gpusysfs/fps
343511-14 09:17:39.143 868-1163/? D/InputReader: Input event: value=0
343611-14 09:17:39.153 868-1163/? I/InputReader: Touch event's action is 0x1 (deviceType=0) [pCnt=1, s=] when=1387109311000
343711-14 09:17:39.153 868-1162/? I/InputDispatcher: Delivering touch to (15042): action: 0x1, toolType: 1
343811-14 09:17:39.153 868-3238/? D/CustomFrequencyManagerService: releaseDVFSLockLocked : Getting Lock type frm List : DVFS_MIN_LIMIT  frequency : 1566000  uid : 1000  pid : 868  tag : LIST_SCROLL_BOOSTER@35
343911-14 09:17:39.153 278-278/? D/SurfaceFlinger: FPS : 59.85
344011-14 09:17:39.153 278-278/? W/SurfaceFlinger: Fail to Open /sys/devices/platform/gpusysfs/fps
344111-14 09:17:39.153 1263-1263/? D/StatusBar.NetworkController: refreshViews connected={ wifi } level=3 combinedSignalIconId=0x7f020517/com.android.systemui:drawable/stat_sys_wifi_signal_4 mobileLabel=Emergency calls only wifiLabel="Badger"xxxxXXXXxxxxXXXX emergencyOnly=true combinedLabel="Badger"xxxxXXXXxxxxXXXX mAirplaneMode=false mDataActivity=0 mPhoneSignalIconId=0x7f02048e/com.android.systemui:drawable/stat_sys_signal_3_auto_rotate mQSPhoneSignalIconId=0x7f02012b/com.android.systemui:drawable/ic_qs_signal_3 mDataDirectionIconId=0x0/(null) mDataSignalIconId=0x7f02048e/com.android.systemui:drawable/stat_sys_signal_3_auto_rotate mDataTypeIconId=0x0/(null) mQSDataTypeIconId=0x0/(null) mNoSimIconId=0x0/(null) mWifiIconId=0x7f020517/com.android.systemui:drawable/stat_sys_wifi_signal_4 mQSWifiIconId=0x7f020143/com.android.systemui:drawable/ic_qs_wifi_4 mWifiActivityIconId=0x7f0204e6/com.android.systemui:drawable/stat_sys_signal_in mBluetoothTetherIconId=0x10808cc/android:drawable/stat_sys_tether_bluetooth
344211-14 09:17:39.153 1263-1263/? D/STATUSBAR-WifiQuickSettingButton: onWifiSignalChanged enabled=true enabledDesc:"Badger"
344311-14 09:17:39.153 1263-1263/? D/StatusBar.NetworkController: refreshSignalCluster - setNWBoosterIndicators(false)
344411-14 09:17:39.163 1263-1263/? D/StatusBar.NetworkController: applyOpen
344511-14 09:17:39.163 1263-1263/? D/StatusBar.NetworkController: refreshSignalCluster - setNWBoosterIndicators(false)
344611-14 09:17:39.163 1263-1263/? D/StatusBar.NetworkController: applyOpen
344711-14 09:17:39.163 1263-1263/? D/StatusBar.NetworkController: refreshSignalCluster - setNWBoosterIndicators(false)
344811-14 09:17:39.163 1263-1263/? D/StatusBar.NetworkController: applyOpen
344911-14 09:17:39.163 1263-1263/? D/StatusBar.NetworkController: refreshSignalCluster - setNWBoosterIndicators(false)
345011-14 09:17:39.163 1263-1263/? D/StatusBar.NetworkController: applyOpen
345111-14 09:17:39.173 278-278/? D/SurfaceFlinger: FPS : 59.85
345211-14 09:17:39.173 278-278/? W/SurfaceFlinger: Fail to Open /sys/devices/platform/gpusysfs/fps
345311-14 09:17:39.183 278-278/? D/SurfaceFlinger: FPS : 59.85
345411-14 09:17:39.183 278-278/? W/SurfaceFlinger: Fail to Open /sys/devices/platform/gpusysfs/fps
345511-14 09:17:39.273 309-754/? D/Sensorhubs: readContextData: 1, 1, 14, 1
345611-14 09:17:39.273 868-1122/? D/SensorHubManager: onGetSensorHubDataLocked: library(4) = 1, 1, 14, 1
345711-14 09:17:39.313 868-868/? D/CAE: onGetSensorHubData(SensorHubParserProvider.java:87) - onGetSensorHubData Event [event buffer len :4], AP_WAKEUP
345811-14 09:17:39.313 868-868/? I/CAE: parse(SensorHubParserProvider.java:166) - buffer size = 4
345911-14 09:17:39.313 868-868/? I/CAE: parse(SensorHubParserProvider.java:177) - 1, 1, 14, 1,
346011-14 09:17:39.333 868-868/? D/CAE: display(ContextProvider.java:365) - ================= FLIP_COVER_ACTION =================
346111-14 09:17:39.333 868-868/? I/CAE: display(ContextProvider.java:381) - Action=[1]
346211-14 09:17:39.353 868-868/? D/SContextService: updateSContext() : event = Flip Cover Action
346311-14 09:17:39.353 868-868/? D/MotionRecognitionService: [ FLIP_COVER_ACTION_CLOSE ]
346411-14 09:17:39.353 868-868/? D/MotionRecognitionService: setFlipCoverTouchEnabled to false
346511-14 09:17:39.363 868-868/? D/InputReader: setFlipCoverTouchEnabled/clearCoverOpen/adjustTouch: 0,1, 0
346611-14 09:17:39.453 278-278/? D/SurfaceFlinger: FPS : 17.24
346711-14 09:17:39.453 278-278/? W/SurfaceFlinger: Fail to Open /sys/devices/platform/gpusysfs/fps
346811-14 09:17:39.473 278-278/? D/SurfaceFlinger: FPS : 17.24
346911-14 09:17:39.483 278-278/? W/SurfaceFlinger: Fail to Open /sys/devices/platform/gpusysfs/fps
347011-14 09:17:39.483 278-278/? D/SurfaceFlinger: FPS : 17.24
347111-14 09:17:39.483 278-278/? W/SurfaceFlinger: Fail to Open /sys/devices/platform/gpusysfs/fps
347211-14 09:17:39.503 278-278/? D/SurfaceFlinger: FPS : 17.24
347311-14 09:17:39.503 278-278/? W/SurfaceFlinger: Fail to Open /sys/devices/platform/gpusysfs/fps
347411-14 09:17:39.523 278-278/? D/SurfaceFlinger: FPS : 17.24
347511-14 09:17:39.523 278-278/? W/SurfaceFlinger: Fail to Open /sys/devices/platform/gpusysfs/fps
347611-14 09:17:39.534 278-278/? D/SurfaceFlinger: FPS : 17.24
347711-14 09:17:39.534 278-278/? W/SurfaceFlinger: Fail to Open /sys/devices/platform/gpusysfs/fps
347811-14 09:17:39.544 24953-24953/? E/SMD: smd Interface open failed errno is 2 -1
347911-14 09:17:39.554 278-278/? D/SurfaceFlinger: FPS : 17.24
348011-14 09:17:39.554 278-278/? W/SurfaceFlinger: Fail to Open /sys/devices/platform/gpusysfs/fps
348111-14 09:17:39.574 278-278/? D/SurfaceFlinger: FPS : 17.24
348211-14 09:17:39.574 278-278/? W/SurfaceFlinger: Fail to Open /sys/devices/platform/gpusysfs/fps
348311-14 09:17:39.584 278-278/? D/SurfaceFlinger: FPS : 17.24
348411-14 09:17:39.584 278-278/? W/SurfaceFlinger: Fail to Open /sys/devices/platform/gpusysfs/fps
348511-14 09:17:39.604 278-278/? D/SurfaceFlinger: FPS : 17.24
348611-14 09:17:39.604 278-278/? W/SurfaceFlinger: Fail to Open /sys/devices/platform/gpusysfs/fps
348711-14 09:17:39.624 278-278/? D/SurfaceFlinger: FPS : 17.24
348811-14 09:17:39.624 278-278/? W/SurfaceFlinger: Fail to Open /sys/devices/platform/gpusysfs/fps
348911-14 09:17:39.634 278-278/? D/SurfaceFlinger: FPS : 17.24
349011-14 09:17:39.634 278-278/? W/SurfaceFlinger: Fail to Open /sys/devices/platform/gpusysfs/fps
349111-14 09:17:39.654 278-278/? D/SurfaceFlinger: FPS : 17.24
349211-14 09:17:39.654 278-278/? W/SurfaceFlinger: Fail to Open /sys/devices/platform/gpusysfs/fps
349311-14 09:17:39.674 278-278/? D/SurfaceFlinger: FPS : 17.24
349411-14 09:17:39.674 278-278/? W/SurfaceFlinger: Fail to Open /sys/devices/platform/gpusysfs/fps
349511-14 09:17:39.684 278-278/? D/SurfaceFlinger: FPS : 17.24
349611-14 09:17:39.684 278-278/? W/SurfaceFlinger: Fail to Open /sys/devices/platform/gpusysfs/fps
349711-14 09:17:39.704 278-278/? D/SurfaceFlinger: FPS : 17.24
349811-14 09:17:39.704 278-278/? W/SurfaceFlinger: Fail to Open /sys/devices/platform/gpusysfs/fps
349911-14 09:17:39.724 278-278/? D/SurfaceFlinger: FPS : 59.97
350011-14 09:17:39.724 278-278/? W/SurfaceFlinger: Fail to Open /sys/devices/platform/gpusysfs/fps
350111-14 09:17:40.544 24953-24953/? E/SMD: smd Interface open failed errno is 2 -1
350211-14 09:17:40.855 868-3238/? D/SSRM:n: SIOP:: AP = 430, CUR = 460
350311-14 09:17:41.235 309-754/? D/Sensorhubs: readContextData: 1, 1, 14, 0
350411-14 09:17:41.235 868-1122/? D/SensorHubManager: onGetSensorHubDataLocked: library(4) = 1, 1, 14, 0
350511-14 09:17:41.235 868-868/? D/CAE: onGetSensorHubData(SensorHubParserProvider.java:87) - onGetSensorHubData Event [event buffer len :4], AP_WAKEUP
350611-14 09:17:41.235 868-868/? I/CAE: parse(SensorHubParserProvider.java:166) - buffer size = 4
350711-14 09:17:41.245 868-868/? I/CAE: parse(SensorHubParserProvider.java:177) - 1, 1, 14, 0,
350811-14 09:17:41.245 868-868/? D/CAE: display(ContextProvider.java:365) - ================= FLIP_COVER_ACTION =================
350911-14 09:17:41.245 868-868/? I/CAE: display(ContextProvider.java:381) - Action=[0]
351011-14 09:17:41.245 868-868/? D/SContextService: updateSContext() : event = Flip Cover Action
351111-14 09:17:41.245 868-868/? D/MotionRecognitionService: [ FLIP_COVER_ACTION_OPEN ]
351211-14 09:17:41.245 868-868/? D/MotionRecognitionService: setFlipCoverTouchEnabled to true
351311-14 09:17:41.245 868-868/? D/InputReader: setFlipCoverTouchEnabled/clearCoverOpen/adjustTouch: 1,1, 0
351411-14 09:17:41.545 24953-24953/? E/SMD: smd Interface open failed errno is 2 -1
351511-14 09:17:41.596 278-278/? D/SurfaceFlinger: FPS : 0.53
351611-14 09:17:41.606 278-278/? W/SurfaceFlinger: Fail to Open /sys/devices/platform/gpusysfs/fps
351711-14 09:17:41.826 304-22404/? E/OMX-VDEC-1080P: Rxd i/p EOS, Notify Driver that EOS has been reached
351811-14 09:17:41.836 304-22404/? E/OMX-VDEC-1080P: Output EOS has been reached
351911-14 09:17:41.836 304-22404/? E/OMX-VDEC-1080P: Rxd OMX_COMPONENT_GENERATE_EOS_DONE
352011-14 09:17:42.036 304-1854/? E/OMX-VDEC-1080P: send_command: Recieved a Command from Client
352111-14 09:17:42.036 304-22404/? E/OMX-VDEC-1080P: send_command_proxy(): cmd = 1, Current State 3, Expected State -1
352211-14 09:17:42.036 304-22404/? E/OMX-VDEC-1080P: send_command_proxy(): OMX_CommandFlush issued with param1: -1
352311-14 09:17:42.036 304-1854/? E/OMX-VDEC-1080P: send_command: Command Processed
352411-14 09:17:42.046 15042-22403/? I/ACodec: [OMX.qcom.video.decoder.avc] Now Flushing
352511-14 09:17:42.046 304-22404/? E/OMX-VDEC-1080P: Driver flush i/p Port complete
352611-14 09:17:42.046 304-22404/? E/OMX-VDEC-1080P: Initiate Input Flush
352711-14 09:17:42.046 304-22404/? E/OMX-VDEC-1080P: OMX flush i/p Port complete PenBuf(0)
352811-14 09:17:42.046 304-22404/? E/OMX-VDEC-1080P: Driver flush o/p Port complete
352911-14 09:17:42.056 304-22404/? E/OMX-VDEC-1080P: Initiate Output Flush
353011-14 09:17:42.056 304-22404/? E/OMX-VDEC-1080P: Buffer queue size 5 pending buf cnt 5
353111-14 09:17:42.056 304-22404/? E/OMX-VDEC-1080P: ID(c) P1(b1d5ba30) P2(40000000)
353211-14 09:17:42.056 304-22404/? E/OMX-VDEC-1080P: Buffer queue size 4 pending buf cnt 4
353311-14 09:17:42.056 304-22404/? E/OMX-VDEC-1080P: ID(c) P1(b1d5ba80) P2(40000000)
353411-14 09:17:42.056 304-22404/? E/OMX-VDEC-1080P: Buffer queue size 3 pending buf cnt 3
353511-14 09:17:42.056 304-22404/? E/OMX-VDEC-1080P: ID(c) P1(b1d5bad0) P2(40000000)
353611-14 09:17:42.066 304-22404/? E/OMX-VDEC-1080P: Buffer queue size 2 pending buf cnt 2
353711-14 09:17:42.066 304-22404/? E/OMX-VDEC-1080P: ID(c) P1(b1d5bb20) P2(40000000)
353811-14 09:17:42.066 304-22404/? E/OMX-VDEC-1080P: Buffer queue size 1 pending buf cnt 1
353911-14 09:17:42.066 304-22404/? E/OMX-VDEC-1080P: ID(c) P1(b1d5bb70) P2(40000000)
354011-14 09:17:42.066 304-22404/? E/OMX-VDEC-1080P: OMX flush o/p Port complete PenBuf(0)
354111-14 09:17:42.076 15042-22403/? I/ACodec: [OMX.qcom.video.decoder.avc] Now Executing
354211-14 09:17:42.106 304-22404/? E/OMX-VDEC-1080P: Sync frame received
354311-14 09:17:42.166 1263-1263/? D/StatusBar.NetworkController: refreshViews connected={ wifi } level=3 combinedSignalIconId=0x7f020517/com.android.systemui:drawable/stat_sys_wifi_signal_4 mobileLabel=Emergency calls only wifiLabel="Badger"xxxxXXXXxxxxXXXX emergencyOnly=true combinedLabel="Badger"xxxxXXXXxxxxXXXX mAirplaneMode=false mDataActivity=0 mPhoneSignalIconId=0x7f02048e/com.android.systemui:drawable/stat_sys_signal_3_auto_rotate mQSPhoneSignalIconId=0x7f02012b/com.android.systemui:drawable/ic_qs_signal_3 mDataDirectionIconId=0x0/(null) mDataSignalIconId=0x7f02048e/com.android.systemui:drawable/stat_sys_signal_3_auto_rotate mDataTypeIconId=0x0/(null) mQSDataTypeIconId=0x0/(null) mNoSimIconId=0x0/(null) mWifiIconId=0x7f020517/com.android.systemui:drawable/stat_sys_wifi_signal_4 mQSWifiIconId=0x7f020143/com.android.systemui:drawable/ic_qs_wifi_4 mWifiActivityIconId=0x7f0204e8/com.android.systemui:drawable/stat_sys_signal_inout mBluetoothTetherIconId=0x10808cc/android:drawable/stat_sys_tether_bluetooth
354411-14 09:17:42.176 1263-1263/? D/STATUSBAR-WifiQuickSettingButton: onWifiSignalChanged enabled=true enabledDesc:"Badger"
354511-14 09:17:42.176 1263-1263/? D/StatusBar.NetworkController: refreshSignalCluster - setNWBoosterIndicators(false)
354611-14 09:17:42.176 1263-1263/? D/StatusBar.NetworkController: applyOpen
354711-14 09:17:42.176 1263-1263/? D/StatusBar.NetworkController: refreshSignalCluster - setNWBoosterIndicators(false)
354811-14 09:17:42.176 1263-1263/? D/StatusBar.NetworkController: applyOpen
354911-14 09:17:42.186 1263-1263/? D/StatusBar.NetworkController: refreshSignalCluster - setNWBoosterIndicators(false)
355011-14 09:17:42.186 1263-1263/? D/StatusBar.NetworkController: applyOpen
355111-14 09:17:42.186 1263-1263/? D/StatusBar.NetworkController: refreshSignalCluster - setNWBoosterIndicators(false)
355211-14 09:17:42.186 1263-1263/? D/StatusBar.NetworkController: applyOpen
355311-14 09:17:42.196 278-278/? D/SurfaceFlinger: FPS : 1.67
355411-14 09:17:42.196 278-278/? W/SurfaceFlinger: Fail to Open /sys/devices/platform/gpusysfs/fps
355511-14 09:17:42.566 25134-25134/? E/Diag_Lib:  Diag_LSM_Init: Failed to open handle to diag driver, error = 2
355611-14 09:17:43.117 868-906/? D/BatteryService: !@BatteryListener : batteryPropertiesChanged!
355711-14 09:17:43.167 1263-1263/? D/StatusBar.NetworkController: refreshViews connected={ wifi } level=3 combinedSignalIconId=0x7f020517/com.android.systemui:drawable/stat_sys_wifi_signal_4 mobileLabel=Emergency calls only wifiLabel="Badger"xxxxXXXXxxxxXXXX emergencyOnly=true combinedLabel="Badger"xxxxXXXXxxxxXXXX mAirplaneMode=false mDataActivity=0 mPhoneSignalIconId=0x7f02048e/com.android.systemui:drawable/stat_sys_signal_3_auto_rotate mQSPhoneSignalIconId=0x7f02012b/com.android.systemui:drawable/ic_qs_signal_3 mDataDirectionIconId=0x0/(null) mDataSignalIconId=0x7f02048e/com.android.systemui:drawable/stat_sys_signal_3_auto_rotate mDataTypeIconId=0x0/(null) mQSDataTypeIconId=0x0/(null) mNoSimIconId=0x0/(null) mWifiIconId=0x7f020517/com.android.systemui:drawable/stat_sys_wifi_signal_4 mQSWifiIconId=0x7f020143/com.android.systemui:drawable/ic_qs_wifi_4 mWifiActivityIconId=0x7f0204e6/com.android.systemui:drawable/stat_sys_signal_in mBluetoothTetherIconId=0x10808cc/android:drawable/stat_sys_tether_bluetooth
355811-14 09:17:43.167 1263-1263/? D/STATUSBAR-WifiQuickSettingButton: onWifiSignalChanged enabled=true enabledDesc:"Badger"
355911-14 09:17:43.167 1263-1263/? D/StatusBar.NetworkController: refreshSignalCluster - setNWBoosterIndicators(false)
356011-14 09:17:43.167 1263-1263/? D/StatusBar.NetworkController: applyOpen
356111-14 09:17:43.167 1263-1263/? D/StatusBar.NetworkController: refreshSignalCluster - setNWBoosterIndicators(false)
356211-14 09:17:43.167 1263-1263/? D/StatusBar.NetworkController: applyOpen
356311-14 09:17:43.167 1263-1263/? D/StatusBar.NetworkController: refreshSignalCluster - setNWBoosterIndicators(false)
356411-14 09:17:43.177 1263-1263/? D/StatusBar.NetworkController: applyOpen
356511-14 09:17:43.177 1263-1263/? D/StatusBar.NetworkController: refreshSignalCluster - setNWBoosterIndicators(false)
356611-14 09:17:43.177 1263-1263/? D/StatusBar.NetworkController: applyOpen
356711-14 09:17:43.207 278-278/? D/SurfaceFlinger: FPS : 0.99
356811-14 09:17:43.207 278-278/? W/SurfaceFlinger: Fail to Open /sys/devices/platform/gpusysfs/fps
356911-14 09:17:45.219 278-278/? D/SurfaceFlinger: FPS : 0.50
357011-14 09:17:45.219 278-278/? W/SurfaceFlinger: Fail to Open /sys/devices/platform/gpusysfs/fps
357111-14 09:17:45.329 868-1765/? D/ActivityManager: startService callerProcessName:com.google.android.gms, calleePkgName: com.google.android.gms
357211-14 09:17:46.180 1263-1263/? D/StatusBar.NetworkController: refreshViews connected={ wifi } level=3 combinedSignalIconId=0x7f020517/com.android.systemui:drawable/stat_sys_wifi_signal_4 mobileLabel=Emergency calls only wifiLabel="Badger"xxxxXXXXxxxxXXXX emergencyOnly=true combinedLabel="Badger"xxxxXXXXxxxxXXXX mAirplaneMode=false mDataActivity=0 mPhoneSignalIconId=0x7f02048e/com.android.systemui:drawable/stat_sys_signal_3_auto_rotate mQSPhoneSignalIconId=0x7f02012b/com.android.systemui:drawable/ic_qs_signal_3 mDataDirectionIconId=0x0/(null) mDataSignalIconId=0x7f02048e/com.android.systemui:drawable/stat_sys_signal_3_auto_rotate mDataTypeIconId=0x0/(null) mQSDataTypeIconId=0x0/(null) mNoSimIconId=0x0/(null) mWifiIconId=0x7f020517/com.android.systemui:drawable/stat_sys_wifi_signal_4 mQSWifiIconId=0x7f020143/com.android.systemui:drawable/ic_qs_wifi_4 mWifiActivityIconId=0x7f0204e8/com.android.systemui:drawable/stat_sys_signal_inout mBluetoothTetherIconId=0x10808cc/android:drawable/stat_sys_tether_bluetooth
357311-14 09:17:46.180 1263-1263/? D/STATUSBAR-WifiQuickSettingButton: onWifiSignalChanged enabled=true enabledDesc:"Badger"
357411-14 09:17:46.180 1263-1263/? D/StatusBar.NetworkController: refreshSignalCluster - setNWBoosterIndicators(false)
357511-14 09:17:46.180 1263-1263/? D/StatusBar.NetworkController: applyOpen
357611-14 09:17:46.190 1263-1263/? D/StatusBar.NetworkController: refreshSignalCluster - setNWBoosterIndicators(false)
357711-14 09:17:46.200 1263-1263/? D/StatusBar.NetworkController: applyOpen
357811-14 09:17:46.200 1263-1263/? D/StatusBar.NetworkController: refreshSignalCluster - setNWBoosterIndicators(false)
357911-14 09:17:46.210 1263-1263/? D/StatusBar.NetworkController: applyOpen
358011-14 09:17:46.220 1263-1263/? D/StatusBar.NetworkController: refreshSignalCluster - setNWBoosterIndicators(false)
358111-14 09:17:46.220 1263-1263/? D/StatusBar.NetworkController: applyOpen
358211-14 09:17:46.250 278-278/? D/SurfaceFlinger: FPS : 0.97
358311-14 09:17:46.250 278-278/? W/SurfaceFlinger: Fail to Open /sys/devices/platform/gpusysfs/fps
358411-14 09:17:47.631 25138-25138/? E/Diag_Lib:  Diag_LSM_Init: Failed to open handle to diag driver, error = 2
358511-14 09:17:48.182 1263-1263/? D/StatusBar.NetworkController: refreshViews connected={ wifi } level=3 combinedSignalIconId=0x7f020517/com.android.systemui:drawable/stat_sys_wifi_signal_4 mobileLabel=Emergency calls only wifiLabel="Badger"xxxxXXXXxxxxXXXX emergencyOnly=true combinedLabel="Badger"xxxxXXXXxxxxXXXX mAirplaneMode=false mDataActivity=0 mPhoneSignalIconId=0x7f02048e/com.android.systemui:drawable/stat_sys_signal_3_auto_rotate mQSPhoneSignalIconId=0x7f02012b/com.android.systemui:drawable/ic_qs_signal_3 mDataDirectionIconId=0x0/(null) mDataSignalIconId=0x7f02048e/com.android.systemui:drawable/stat_sys_signal_3_auto_rotate mDataTypeIconId=0x0/(null) mQSDataTypeIconId=0x0/(null) mNoSimIconId=0x0/(null) mWifiIconId=0x7f020517/com.android.systemui:drawable/stat_sys_wifi_signal_4 mQSWifiIconId=0x7f020143/com.android.systemui:drawable/ic_qs_wifi_4 mWifiActivityIconId=0x7f0204e6/com.android.systemui:drawable/stat_sys_signal_in mBluetoothTetherIconId=0x10808cc/android:drawable/stat_sys_tether_bluetooth
358611-14 09:17:48.192 1263-1263/? D/STATUSBAR-WifiQuickSettingButton: onWifiSignalChanged enabled=true enabledDesc:"Badger"
358711-14 09:17:48.192 1263-1263/? D/StatusBar.NetworkController: refreshSignalCluster - setNWBoosterIndicators(false)
358811-14 09:17:48.202 1263-1263/? D/StatusBar.NetworkController: applyOpen
358911-14 09:17:48.202 1263-1263/? D/StatusBar.NetworkController: refreshSignalCluster - setNWBoosterIndicators(false)
359011-14 09:17:48.202 1263-1263/? D/StatusBar.NetworkController: applyOpen
359111-14 09:17:48.222 1263-1263/? D/StatusBar.NetworkController: refreshSignalCluster - setNWBoosterIndicators(false)
359211-14 09:17:48.222 1263-1263/? D/StatusBar.NetworkController: applyOpen
359311-14 09:17:48.232 1263-1263/? D/StatusBar.NetworkController: refreshSignalCluster - setNWBoosterIndicators(false)
359411-14 09:17:48.232 1263-1263/? D/StatusBar.NetworkController: applyOpen
359511-14 09:17:48.242 278-278/? D/SurfaceFlinger: FPS : 0.50
359611-14 09:17:48.242 278-278/? W/SurfaceFlinger: Fail to Open /sys/devices/platform/gpusysfs/fps
359711-14 09:17:49.263 278-278/? D/SurfaceFlinger: FPS : 0.98
359811-14 09:17:49.263 278-278/? W/SurfaceFlinger: Fail to Open /sys/devices/platform/gpusysfs/fps
359911-14 09:17:50.875 868-3238/? D/SSRM:n: SIOP:: AP = 430, CUR = 460
360011-14 09:17:51.215 1263-1263/? D/StatusBar.NetworkController: refreshViews connected={ wifi } level=3 combinedSignalIconId=0x7f020517/com.android.systemui:drawable/stat_sys_wifi_signal_4 mobileLabel=Emergency calls only wifiLabel="Badger"xxxxXXXXxxxxXXXX emergencyOnly=true combinedLabel="Badger"xxxxXXXXxxxxXXXX mAirplaneMode=false mDataActivity=0 mPhoneSignalIconId=0x7f02048e/com.android.systemui:drawable/stat_sys_signal_3_auto_rotate mQSPhoneSignalIconId=0x7f02012b/com.android.systemui:drawable/ic_qs_signal_3 mDataDirectionIconId=0x0/(null) mDataSignalIconId=0x7f02048e/com.android.systemui:drawable/stat_sys_signal_3_auto_rotate mDataTypeIconId=0x0/(null) mQSDataTypeIconId=0x0/(null) mNoSimIconId=0x0/(null) mWifiIconId=0x7f020517/com.android.systemui:drawable/stat_sys_wifi_signal_4 mQSWifiIconId=0x7f020143/com.android.systemui:drawable/ic_qs_wifi_4 mWifiActivityIconId=0x7f0204e8/com.android.systemui:drawable/stat_sys_signal_inout mBluetoothTetherIconId=0x10808cc/android:drawable/stat_sys_tether_bluetooth
360111-14 09:17:51.225 1263-1263/? D/STATUSBAR-WifiQuickSettingButton: onWifiSignalChanged enabled=true enabledDesc:"Badger"
360211-14 09:17:51.225 1263-1263/? D/StatusBar.NetworkController: refreshSignalCluster - setNWBoosterIndicators(false)
360311-14 09:17:51.225 1263-1263/? D/StatusBar.NetworkController: applyOpen
360411-14 09:17:51.235 1263-1263/? D/StatusBar.NetworkController: refreshSignalCluster - setNWBoosterIndicators(false)
360511-14 09:17:51.235 1263-1263/? D/StatusBar.NetworkController: applyOpen
360611-14 09:17:51.235 1263-1263/? D/StatusBar.NetworkController: refreshSignalCluster - setNWBoosterIndicators(false)
360711-14 09:17:51.245 1263-1263/? D/StatusBar.NetworkController: applyOpen
360811-14 09:17:51.245 1263-1263/? D/StatusBar.NetworkController: refreshSignalCluster - setNWBoosterIndicators(false)
360911-14 09:17:51.255 1263-1263/? D/StatusBar.NetworkController: applyOpen
361011-14 09:17:51.275 278-278/? D/SurfaceFlinger: FPS : 0.50
361111-14 09:17:51.275 278-278/? W/SurfaceFlinger: Fail to Open /sys/devices/platform/gpusysfs/fps
361211-14 09:17:51.595 25131-25131/? E/SMD: smd_init start
361311-14 09:17:51.595 25131-25131/? E/SMD: smd Interface open failed errno is 2 -1
361411-14 09:17:52.156 304-22404/? E/OMX-VDEC-1080P: Rxd i/p EOS, Notify Driver that EOS has been reached
361511-14 09:17:52.166 304-22404/? E/OMX-VDEC-1080P: Output EOS has been reached
361611-14 09:17:52.166 304-22404/? E/OMX-VDEC-1080P: Rxd OMX_COMPONENT_GENERATE_EOS_DONE
361711-14 09:17:52.326 304-854/? E/OMX-VDEC-1080P: send_command: Recieved a Command from Client
361811-14 09:17:52.326 304-22404/? E/OMX-VDEC-1080P: send_command_proxy(): cmd = 1, Current State 3, Expected State -1
361911-14 09:17:52.326 304-22404/? E/OMX-VDEC-1080P: send_command_proxy(): OMX_CommandFlush issued with param1: -1
362011-14 09:17:52.326 304-854/? E/OMX-VDEC-1080P: send_command: Command Processed
362111-14 09:17:52.336 15042-22403/? I/ACodec: [OMX.qcom.video.decoder.avc] Now Flushing
362211-14 09:17:52.336 304-22404/? E/OMX-VDEC-1080P: Driver flush i/p Port complete
362311-14 09:17:52.336 304-22404/? E/OMX-VDEC-1080P: Initiate Input Flush
362411-14 09:17:52.336 304-22404/? E/OMX-VDEC-1080P: OMX flush i/p Port complete PenBuf(0)
362511-14 09:17:52.336 304-22404/? E/OMX-VDEC-1080P: Driver flush o/p Port complete
362611-14 09:17:52.336 304-22404/? E/OMX-VDEC-1080P: Initiate Output Flush
362711-14 09:17:52.346 304-22404/? E/OMX-VDEC-1080P: Buffer queue size 5 pending buf cnt 5
362811-14 09:17:52.346 304-22404/? E/OMX-VDEC-1080P: ID(c) P1(b1d5ba80) P2(40000000)
362911-14 09:17:52.346 304-22404/? E/OMX-VDEC-1080P: Buffer queue size 4 pending buf cnt 4
363011-14 09:17:52.346 304-22404/? E/OMX-VDEC-1080P: ID(c) P1(b1d5bad0) P2(40000000)
363111-14 09:17:52.346 304-22404/? E/OMX-VDEC-1080P: Buffer queue size 3 pending buf cnt 3
363211-14 09:17:52.346 304-22404/? E/OMX-VDEC-1080P: ID(c) P1(b1d5bb20) P2(40000000)
363311-14 09:17:52.356 304-22404/? E/OMX-VDEC-1080P: Buffer queue size 2 pending buf cnt 2
363411-14 09:17:52.356 304-22404/? E/OMX-VDEC-1080P: ID(c) P1(b1d5bb70) P2(40000000)
363511-14 09:17:52.356 304-22404/? E/OMX-VDEC-1080P: Buffer queue size 1 pending buf cnt 1
363611-14 09:17:52.356 304-22404/? E/OMX-VDEC-1080P: ID(c) P1(b1d5b8a0) P2(40000000)
363711-14 09:17:52.356 304-22404/? E/OMX-VDEC-1080P: OMX flush o/p Port complete PenBuf(0)
363811-14 09:17:52.366 15042-22403/? I/ACodec: [OMX.qcom.video.decoder.avc] Now Executing
363911-14 09:17:52.396 304-22404/? E/OMX-VDEC-1080P: Sync frame received
364011-14 09:17:52.596 25131-25131/? E/SMD: smd Interface open failed errno is 2 -1
364111-14 09:17:52.897 25141-25141/? E/Diag_Lib:  Diag_LSM_Init: Failed to open handle to diag driver, error = 2
364211-14 09:17:53.157 868-1533/? D/BatteryService: !@BatteryListener : batteryPropertiesChanged!
364311-14 09:17:53.237 1263-1263/? D/StatusBar.NetworkController: refreshViews connected={ wifi } level=3 combinedSignalIconId=0x7f020517/com.android.systemui:drawable/stat_sys_wifi_signal_4 mobileLabel=Emergency calls only wifiLabel="Badger"xxxxXXXXxxxxXXXX emergencyOnly=true combinedLabel="Badger"xxxxXXXXxxxxXXXX mAirplaneMode=false mDataActivity=0 mPhoneSignalIconId=0x7f02048e/com.android.systemui:drawable/stat_sys_signal_3_auto_rotate mQSPhoneSignalIconId=0x7f02012b/com.android.systemui:drawable/ic_qs_signal_3 mDataDirectionIconId=0x0/(null) mDataSignalIconId=0x7f02048e/com.android.systemui:drawable/stat_sys_signal_3_auto_rotate mDataTypeIconId=0x0/(null) mQSDataTypeIconId=0x0/(null) mNoSimIconId=0x0/(null) mWifiIconId=0x7f020517/com.android.systemui:drawable/stat_sys_wifi_signal_4 mQSWifiIconId=0x7f020143/com.android.systemui:drawable/ic_qs_wifi_4 mWifiActivityIconId=0x7f0204e6/com.android.systemui:drawable/stat_sys_signal_in mBluetoothTetherIconId=0x10808cc/android:drawable/stat_sys_tether_bluetooth
364411-14 09:17:53.237 1263-1263/? D/STATUSBAR-WifiQuickSettingButton: onWifiSignalChanged enabled=true enabledDesc:"Badger"
364511-14 09:17:53.247 1263-1263/? D/StatusBar.NetworkController: refreshSignalCluster - setNWBoosterIndicators(false)
364611-14 09:17:53.247 1263-1263/? D/StatusBar.NetworkController: applyOpen
364711-14 09:17:53.257 1263-1263/? D/StatusBar.NetworkController: refreshSignalCluster - setNWBoosterIndicators(false)
364811-14 09:17:53.257 1263-1263/? D/StatusBar.NetworkController: applyOpen
364911-14 09:17:53.257 1263-1263/? D/StatusBar.NetworkController: refreshSignalCluster - setNWBoosterIndicators(false)
365011-14 09:17:53.267 1263-1263/? D/StatusBar.NetworkController: applyOpen
365111-14 09:17:53.267 1263-1263/? D/StatusBar.NetworkController: refreshSignalCluster - setNWBoosterIndicators(false)
365211-14 09:17:53.277 1263-1263/? D/StatusBar.NetworkController: applyOpen
365311-14 09:17:53.297 278-278/? D/SurfaceFlinger: FPS : 0.49
365411-14 09:17:53.297 278-278/? W/SurfaceFlinger: Fail to Open /sys/devices/platform/gpusysfs/fps
365511-14 09:17:53.587 25131-25131/? E/SMD: smd Interface open failed errno is 2 -1
365611-14 09:17:54.588 25131-25131/? E/SMD: smd Interface open failed errno is 2 -1
365711-14 09:17:55.599 25131-25131/? E/SMD: smd Interface open failed errno is 2 -1
365811-14 09:17:55.799 868-1397/? E/Watchdog: !@Sync 46
365911-14 09:17:56.250 1263-1263/? D/StatusBar.NetworkController: refreshViews connected={ wifi } level=3 combinedSignalIconId=0x7f020517/com.android.systemui:drawable/stat_sys_wifi_signal_4 mobileLabel=Emergency calls only wifiLabel="Badger"xxxxXXXXxxxxXXXX emergencyOnly=true combinedLabel="Badger"xxxxXXXXxxxxXXXX mAirplaneMode=false mDataActivity=0 mPhoneSignalIconId=0x7f02048e/com.android.systemui:drawable/stat_sys_signal_3_auto_rotate mQSPhoneSignalIconId=0x7f02012b/com.android.systemui:drawable/ic_qs_signal_3 mDataDirectionIconId=0x0/(null) mDataSignalIconId=0x7f02048e/com.android.systemui:drawable/stat_sys_signal_3_auto_rotate mDataTypeIconId=0x0/(null) mQSDataTypeIconId=0x0/(null) mNoSimIconId=0x0/(null) mWifiIconId=0x7f020517/com.android.systemui:drawable/stat_sys_wifi_signal_4 mQSWifiIconId=0x7f020143/com.android.systemui:drawable/ic_qs_wifi_4 mWifiActivityIconId=0x7f0204e8/com.android.systemui:drawable/stat_sys_signal_inout mBluetoothTetherIconId=0x10808cc/android:drawable/stat_sys_tether_bluetooth
366011-14 09:17:56.260 1263-1263/? D/STATUSBAR-WifiQuickSettingButton: onWifiSignalChanged enabled=true enabledDesc:"Badger"
366111-14 09:17:56.260 1263-1263/? D/StatusBar.NetworkController: refreshSignalCluster - setNWBoosterIndicators(false)
366211-14 09:17:56.260 1263-1263/? D/StatusBar.NetworkController: applyOpen
366311-14 09:17:56.270 1263-1263/? D/StatusBar.NetworkController: refreshSignalCluster - setNWBoosterIndicators(false)
366411-14 09:17:56.270 1263-1263/? D/StatusBar.NetworkController: applyOpen
366511-14 09:17:56.280 1263-1263/? D/StatusBar.NetworkController: refreshSignalCluster - setNWBoosterIndicators(false)
366611-14 09:17:56.290 1263-1263/? D/StatusBar.NetworkController: applyOpen
366711-14 09:17:56.290 1263-1263/? D/StatusBar.NetworkController: refreshSignalCluster - setNWBoosterIndicators(false)
366811-14 09:17:56.300 1263-1263/? D/StatusBar.NetworkController: applyOpen
366911-14 09:17:56.320 278-278/? D/SurfaceFlinger: FPS : 0.33
367011-14 09:17:56.330 278-278/? W/SurfaceFlinger: Fail to Open /sys/devices/platform/gpusysfs/fps
367111-14 09:17:56.600 25131-25131/? E/SMD: smd Interface open failed errno is 2 -1
367211-14 09:17:57.601 25131-25131/? E/SMD: smd Interface open failed errno is 2 -1
367311-14 09:17:57.961 25144-25144/? E/Diag_Lib:  Diag_LSM_Init: Failed to open handle to diag driver, error = 2
367411-14 09:17:58.272 1263-1263/? D/StatusBar.NetworkController: refreshViews connected={ wifi } level=3 combinedSignalIconId=0x7f020517/com.android.systemui:drawable/stat_sys_wifi_signal_4 mobileLabel=Emergency calls only wifiLabel="Badger"xxxxXXXXxxxxXXXX emergencyOnly=true combinedLabel="Badger"xxxxXXXXxxxxXXXX mAirplaneMode=false mDataActivity=0 mPhoneSignalIconId=0x7f02048e/com.android.systemui:drawable/stat_sys_signal_3_auto_rotate mQSPhoneSignalIconId=0x7f02012b/com.android.systemui:drawable/ic_qs_signal_3 mDataDirectionIconId=0x0/(null) mDataSignalIconId=0x7f02048e/com.android.systemui:drawable/stat_sys_signal_3_auto_rotate mDataTypeIconId=0x0/(null) mQSDataTypeIconId=0x0/(null) mNoSimIconId=0x0/(null) mWifiIconId=0x7f020517/com.android.systemui:drawable/stat_sys_wifi_signal_4 mQSWifiIconId=0x7f020143/com.android.systemui:drawable/ic_qs_wifi_4 mWifiActivityIconId=0x7f0204e6/com.android.systemui:drawable/stat_sys_signal_in mBluetoothTetherIconId=0x10808cc/android:drawable/stat_sys_tether_bluetooth
367511-14 09:17:58.282 1263-1263/? D/STATUSBAR-WifiQuickSettingButton: onWifiSignalChanged enabled=true enabledDesc:"Badger"
367611-14 09:17:58.292 1263-1263/? D/StatusBar.NetworkController: refreshSignalCluster - setNWBoosterIndicators(false)
367711-14 09:17:58.292 1263-1263/? D/StatusBar.NetworkController: applyOpen
367811-14 09:17:58.292 1263-1263/? D/StatusBar.NetworkController: refreshSignalCluster - setNWBoosterIndicators(false)
367911-14 09:17:58.302 1263-1263/? D/StatusBar.NetworkController: applyOpen
368011-14 09:17:58.302 1263-1263/? D/StatusBar.NetworkController: refreshSignalCluster - setNWBoosterIndicators(false)
368111-14 09:17:58.312 1263-1263/? D/StatusBar.NetworkController: applyOpen
368211-14 09:17:58.322 1263-1263/? D/StatusBar.NetworkController: refreshSignalCluster - setNWBoosterIndicators(false)
368311-14 09:17:58.322 1263-1263/? D/StatusBar.NetworkController: applyOpen
368411-14 09:17:58.352 278-278/? D/SurfaceFlinger: FPS : 0.49
368511-14 09:17:58.352 278-278/? W/SurfaceFlinger: Fail to Open /sys/devices/platform/gpusysfs/fps
368611-14 09:17:58.602 25131-25131/? E/SMD: smd Interface open failed errno is 2 -1
368711-14 09:17:59.603 25131-25131/? E/SMD: smd Interface open failed errno is 2 -1
368811-14 09:17:59.993 868-1120/? V/AlarmManager: waitForAlarm result :8
368911-14 09:18:00.003 1263-1263/? D/KeyguardUpdateMonitor: received broadcast android.intent.action.TIME_TICK
369011-14 09:18:00.003 1263-1263/? D/KeyguardUpdateMonitor: handleTimeUpdate
369111-14 09:18:00.044 278-278/? D/SurfaceFlinger: FPS : 0.59
369211-14 09:18:00.044 278-278/? W/SurfaceFlinger: Fail to Open /sys/devices/platform/gpusysfs/fps
369311-14 09:18:00.074 1263-1263/? D/DateView: regionalDateFormat = 22/11/3333 isRTLlanguage = false returnDateFormat = E, d MMMM
369411-14 09:18:00.074 1263-1263/? D/DateView: regionalDateFormat = 22/11/3333 isRTLlanguage = false returnDateFormat = E, d MMMM
369511-14 09:18:00.094 1263-1263/? D/KeyguardEffectViewController: onReceive action : android.intent.action.TIME_TICK
369611-14 09:18:00.104 1263-1263/? I/KeyguardEffectViewController: *** don't update sliding image ***
369711-14 09:18:00.304 1263-1263/? D/StatusBar.NetworkController: refreshViews connected={ wifi } level=3 combinedSignalIconId=0x7f020517/com.android.systemui:drawable/stat_sys_wifi_signal_4 mobileLabel=Emergency calls only wifiLabel="Badger"xxxxXXXXxxxxXXXX emergencyOnly=true combinedLabel="Badger"xxxxXXXXxxxxXXXX mAirplaneMode=false mDataActivity=0 mPhoneSignalIconId=0x7f02048e/com.android.systemui:drawable/stat_sys_signal_3_auto_rotate mQSPhoneSignalIconId=0x7f02012b/com.android.systemui:drawable/ic_qs_signal_3 mDataDirectionIconId=0x0/(null) mDataSignalIconId=0x7f02048e/com.android.systemui:drawable/stat_sys_signal_3_auto_rotate mDataTypeIconId=0x0/(null) mQSDataTypeIconId=0x0/(null) mNoSimIconId=0x0/(null) mWifiIconId=0x7f020517/com.android.systemui:drawable/stat_sys_wifi_signal_4 mQSWifiIconId=0x7f020143/com.android.systemui:drawable/ic_qs_wifi_4 mWifiActivityIconId=0x7f0204e8/com.android.systemui:drawable/stat_sys_signal_inout mBluetoothTetherIconId=0x10808cc/android:drawable/stat_sys_tether_bluetooth
369811-14 09:18:00.304 1263-1263/? D/STATUSBAR-WifiQuickSettingButton: onWifiSignalChanged enabled=true enabledDesc:"Badger"
369911-14 09:18:00.314 1263-1263/? D/StatusBar.NetworkController: refreshSignalCluster - setNWBoosterIndicators(false)
370011-14 09:18:00.314 1263-1263/? D/StatusBar.NetworkController: applyOpen
370111-14 09:18:00.314 1263-1263/? D/StatusBar.NetworkController: refreshSignalCluster - setNWBoosterIndicators(false)
370211-14 09:18:00.314 1263-1263/? D/StatusBar.NetworkController: applyOpen
370311-14 09:18:00.314 1263-1263/? D/StatusBar.NetworkController: refreshSignalCluster - setNWBoosterIndicators(false)
370411-14 09:18:00.314 1263-1263/? D/StatusBar.NetworkController: applyOpen
370511-14 09:18:00.324 1263-1263/? D/StatusBar.NetworkController: refreshSignalCluster - setNWBoosterIndicators(false)
370611-14 09:18:00.324 1263-1263/? D/StatusBar.NetworkController: applyOpen
370711-14 09:18:00.344 278-278/? D/SurfaceFlinger: FPS : 3.35
370811-14 09:18:00.344 278-278/? W/SurfaceFlinger: Fail to Open /sys/devices/platform/gpusysfs/fps
370911-14 09:18:00.444 868-1163/? D/InputReader: Input event: value=1
371011-14 09:18:00.444 868-1163/? I/InputReader: Touch event's action is 0x0 (deviceType=0) [pCnt=1, s=0.310 ] when=1408402006000
371111-14 09:18:00.444 868-1162/? I/InputDispatcher: Delivering touch to (1263): action: 0x4, toolType: 1
371211-14 09:18:00.444 868-1162/? I/InputDispatcher: Delivering touch to (15042): action: 0x0, toolType: 1
371311-14 09:18:00.444 15042-15042/? D/ViewRootImpl: ViewPostImeInputStage ACTION_DOWN
371411-14 09:18:00.514 868-3238/? D/CustomFrequencyManagerService: acquireDVFSLockLocked : type : DVFS_MIN_LIMIT  frequency : 1566000  uid : 1000  pid : 868  pkgName : LIST_SCROLL_BOOSTER@35
371511-14 09:18:00.534 278-278/? D/SurfaceFlinger: FPS : 3.35
371611-14 09:18:00.534 278-278/? W/SurfaceFlinger: Fail to Open /sys/devices/platform/gpusysfs/fps
371711-14 09:18:00.544 278-278/? D/SurfaceFlinger: FPS : 3.35
371811-14 09:18:00.544 278-278/? W/SurfaceFlinger: Fail to Open /sys/devices/platform/gpusysfs/fps
371911-14 09:18:00.564 278-278/? D/SurfaceFlinger: FPS : 3.35
372011-14 09:18:00.564 278-278/? W/SurfaceFlinger: Fail to Open /sys/devices/platform/gpusysfs/fps
372111-14 09:18:00.584 278-278/? D/SurfaceFlinger: FPS : 3.35
372211-14 09:18:00.584 278-278/? W/SurfaceFlinger: Fail to Open /sys/devices/platform/gpusysfs/fps
372311-14 09:18:00.594 278-278/? D/SurfaceFlinger: FPS : 3.35
372411-14 09:18:00.594 278-278/? W/SurfaceFlinger: Fail to Open /sys/devices/platform/gpusysfs/fps
372511-14 09:18:00.604 25131-25131/? E/SMD: smd Interface open failed errno is 2 -1
372611-14 09:18:00.634 278-278/? D/SurfaceFlinger: FPS : 21.26
372711-14 09:18:00.634 278-278/? W/SurfaceFlinger: Fail to Open /sys/devices/platform/gpusysfs/fps
372811-14 09:18:00.654 278-278/? D/SurfaceFlinger: FPS : 21.26
372911-14 09:18:00.654 278-278/? W/SurfaceFlinger: Fail to Open /sys/devices/platform/gpusysfs/fps
373011-14 09:18:00.664 278-278/? D/SurfaceFlinger: FPS : 21.26
373111-14 09:18:00.664 278-278/? W/SurfaceFlinger: Fail to Open /sys/devices/platform/gpusysfs/fps
373211-14 09:18:00.674 278-278/? D/SurfaceFlinger: FPS : 21.26
373311-14 09:18:00.684 278-278/? W/SurfaceFlinger: Fail to Open /sys/devices/platform/gpusysfs/fps
373411-14 09:18:00.694 278-278/? D/SurfaceFlinger: FPS : 21.26
373511-14 09:18:00.694 278-278/? W/SurfaceFlinger: Fail to Open /sys/devices/platform/gpusysfs/fps
373611-14 09:18:00.714 278-278/? D/SurfaceFlinger: FPS : 21.26
373711-14 09:18:00.714 278-278/? W/SurfaceFlinger: Fail to Open /sys/devices/platform/gpusysfs/fps
373811-14 09:18:00.734 278-278/? D/SurfaceFlinger: FPS : 21.26
373911-14 09:18:00.734 278-278/? W/SurfaceFlinger: Fail to Open /sys/devices/platform/gpusysfs/fps
374011-14 09:18:00.744 278-278/? D/SurfaceFlinger: FPS : 21.26
374111-14 09:18:00.744 278-278/? W/SurfaceFlinger: Fail to Open /sys/devices/platform/gpusysfs/fps
374211-14 09:18:00.764 278-278/? D/SurfaceFlinger: FPS : 21.26
374311-14 09:18:00.764 278-278/? W/SurfaceFlinger: Fail to Open /sys/devices/platform/gpusysfs/fps
374411-14 09:18:00.774 278-278/? D/SurfaceFlinger: FPS : 21.26
374511-14 09:18:00.774 278-278/? W/SurfaceFlinger: Fail to Open /sys/devices/platform/gpusysfs/fps
374611-14 09:18:00.794 278-278/? D/SurfaceFlinger: FPS : 21.26
374711-14 09:18:00.794 278-278/? W/SurfaceFlinger: Fail to Open /sys/devices/platform/gpusysfs/fps
374811-14 09:18:00.814 278-278/? D/SurfaceFlinger: FPS : 21.26
374911-14 09:18:00.814 278-278/? W/SurfaceFlinger: Fail to Open /sys/devices/platform/gpusysfs/fps
375011-14 09:18:00.824 278-278/? D/SurfaceFlinger: FPS : 21.26
375111-14 09:18:00.824 278-278/? W/SurfaceFlinger: Fail to Open /sys/devices/platform/gpusysfs/fps
375211-14 09:18:00.844 278-278/? D/SurfaceFlinger: FPS : 21.26
375311-14 09:18:00.844 278-278/? W/SurfaceFlinger: Fail to Open /sys/devices/platform/gpusysfs/fps
375411-14 09:18:00.864 278-278/? D/SurfaceFlinger: FPS : 21.26
375511-14 09:18:00.864 278-278/? W/SurfaceFlinger: Fail to Open /sys/devices/platform/gpusysfs/fps
375611-14 09:18:00.874 278-278/? D/SurfaceFlinger: FPS : 21.26
375711-14 09:18:00.874 278-278/? W/SurfaceFlinger: Fail to Open /sys/devices/platform/gpusysfs/fps
375811-14 09:18:00.894 278-278/? D/SurfaceFlinger: FPS : 59.88
375911-14 09:18:00.894 278-278/? W/SurfaceFlinger: Fail to Open /sys/devices/platform/gpusysfs/fps
376011-14 09:18:00.904 868-3238/? D/SSRM:n: SIOP:: AP = 420, CUR = 460
376111-14 09:18:00.914 278-278/? D/SurfaceFlinger: FPS : 59.88
376211-14 09:18:00.914 278-278/? W/SurfaceFlinger: Fail to Open /sys/devices/platform/gpusysfs/fps
376311-14 09:18:00.924 278-278/? D/SurfaceFlinger: FPS : 59.88
376411-14 09:18:00.934 278-278/? W/SurfaceFlinger: Fail to Open /sys/devices/platform/gpusysfs/fps
376511-14 09:18:00.944 278-278/? D/SurfaceFlinger: FPS : 59.88
376611-14 09:18:00.944 278-278/? W/SurfaceFlinger: Fail to Open /sys/devices/platform/gpusysfs/fps
376711-14 09:18:00.964 278-278/? D/SurfaceFlinger: FPS : 59.88
376811-14 09:18:00.964 278-278/? W/SurfaceFlinger: Fail to Open /sys/devices/platform/gpusysfs/fps
376911-14 09:18:00.974 278-278/? D/SurfaceFlinger: FPS : 59.88
377011-14 09:18:00.974 278-278/? W/SurfaceFlinger: Fail to Open /sys/devices/platform/gpusysfs/fps
377111-14 09:18:00.994 278-278/? D/SurfaceFlinger: FPS : 59.88
377211-14 09:18:00.994 278-278/? W/SurfaceFlinger: Fail to Open /sys/devices/platform/gpusysfs/fps
377311-14 09:18:01.014 278-278/? D/SurfaceFlinger: FPS : 59.88
377411-14 09:18:01.014 278-278/? W/SurfaceFlinger: Fail to Open /sys/devices/platform/gpusysfs/fps
377511-14 09:18:01.024 278-278/? D/SurfaceFlinger: FPS : 59.88
377611-14 09:18:01.024 278-278/? W/SurfaceFlinger: Fail to Open /sys/devices/platform/gpusysfs/fps
377711-14 09:18:01.044 278-278/? D/SurfaceFlinger: FPS : 59.88
377811-14 09:18:01.044 278-278/? W/SurfaceFlinger: Fail to Open /sys/devices/platform/gpusysfs/fps
377911-14 09:18:01.065 278-278/? D/SurfaceFlinger: FPS : 59.88
378011-14 09:18:01.065 278-278/? W/SurfaceFlinger: Fail to Open /sys/devices/platform/gpusysfs/fps
378111-14 09:18:01.075 278-278/? D/SurfaceFlinger: FPS : 59.88
378211-14 09:18:01.075 278-278/? W/SurfaceFlinger: Fail to Open /sys/devices/platform/gpusysfs/fps
378311-14 09:18:01.095 278-278/? D/SurfaceFlinger: FPS : 59.88
378411-14 09:18:01.095 278-278/? W/SurfaceFlinger: Fail to Open /sys/devices/platform/gpusysfs/fps
378511-14 09:18:01.115 278-278/? D/SurfaceFlinger: FPS : 59.88
378611-14 09:18:01.115 278-278/? W/SurfaceFlinger: Fail to Open /sys/devices/platform/gpusysfs/fps
378711-14 09:18:01.125 278-278/? D/SurfaceFlinger: FPS : 59.88
378811-14 09:18:01.125 278-278/? W/SurfaceFlinger: Fail to Open /sys/devices/platform/gpusysfs/fps
378911-14 09:18:01.145 278-278/? D/SurfaceFlinger: FPS : 59.88
379011-14 09:18:01.145 278-278/? W/SurfaceFlinger: Fail to Open /sys/devices/platform/gpusysfs/fps
379111-14 09:18:01.165 278-278/? D/SurfaceFlinger: FPS : 60.47
379211-14 09:18:01.165 278-278/? W/SurfaceFlinger: Fail to Open /sys/devices/platform/gpusysfs/fps
379311-14 09:18:01.175 278-278/? D/SurfaceFlinger: FPS : 60.47
379411-14 09:18:01.175 278-278/? W/SurfaceFlinger: Fail to Open /sys/devices/platform/gpusysfs/fps
379511-14 09:18:01.195 278-278/? D/SurfaceFlinger: FPS : 60.47
379611-14 09:18:01.195 278-278/? W/SurfaceFlinger: Fail to Open /sys/devices/platform/gpusysfs/fps
379711-14 09:18:01.215 278-278/? D/SurfaceFlinger: FPS : 60.47
379811-14 09:18:01.215 278-278/? W/SurfaceFlinger: Fail to Open /sys/devices/platform/gpusysfs/fps
379911-14 09:18:01.225 278-278/? D/SurfaceFlinger: FPS : 60.47
380011-14 09:18:01.225 278-278/? W/SurfaceFlinger: Fail to Open /sys/devices/platform/gpusysfs/fps
380111-14 09:18:01.245 278-278/? D/SurfaceFlinger: FPS : 60.47
380211-14 09:18:01.245 278-278/? W/SurfaceFlinger: Fail to Open /sys/devices/platform/gpusysfs/fps
380311-14 09:18:01.265 278-278/? D/SurfaceFlinger: FPS : 60.47
380411-14 09:18:01.265 278-278/? W/SurfaceFlinger: Fail to Open /sys/devices/platform/gpusysfs/fps
380511-14 09:18:01.275 278-278/? D/SurfaceFlinger: FPS : 60.47
380611-14 09:18:01.275 278-278/? W/SurfaceFlinger: Fail to Open /sys/devices/platform/gpusysfs/fps
380711-14 09:18:01.295 278-278/? D/SurfaceFlinger: FPS : 60.47
380811-14 09:18:01.295 278-278/? W/SurfaceFlinger: Fail to Open /sys/devices/platform/gpusysfs/fps
380911-14 09:18:01.295 868-1163/? D/InputReader: Input event: value=0
381011-14 09:18:01.295 868-1163/? I/InputReader: Touch event's action is 0x1 (deviceType=0) [pCnt=1, s=] when=1409258970000
381111-14 09:18:01.295 868-1162/? I/InputDispatcher: Delivering touch to (15042): action: 0x1, toolType: 1
381211-14 09:18:01.305 1263-1263/? D/StatusBar.NetworkController: refreshViews connected={ wifi } level=3 combinedSignalIconId=0x7f020517/com.android.systemui:drawable/stat_sys_wifi_signal_4 mobileLabel=Emergency calls only wifiLabel="Badger"xxxxXXXXxxxxXXXX emergencyOnly=true combinedLabel="Badger"xxxxXXXXxxxxXXXX mAirplaneMode=false mDataActivity=0 mPhoneSignalIconId=0x7f02048e/com.android.systemui:drawable/stat_sys_signal_3_auto_rotate mQSPhoneSignalIconId=0x7f02012b/com.android.systemui:drawable/ic_qs_signal_3 mDataDirectionIconId=0x0/(null) mDataSignalIconId=0x7f02048e/com.android.systemui:drawable/stat_sys_signal_3_auto_rotate mDataTypeIconId=0x0/(null) mQSDataTypeIconId=0x0/(null) mNoSimIconId=0x0/(null) mWifiIconId=0x7f020517/com.android.systemui:drawable/stat_sys_wifi_signal_4 mQSWifiIconId=0x7f020143/com.android.systemui:drawable/ic_qs_wifi_4 mWifiActivityIconId=0x7f0204e6/com.android.systemui:drawable/stat_sys_signal_in mBluetoothTetherIconId=0x10808cc/android:drawable/stat_sys_tether_bluetooth
381311-14 09:18:01.305 1263-1263/? D/STATUSBAR-WifiQuickSettingButton: onWifiSignalChanged enabled=true enabledDesc:"Badger"
381411-14 09:18:01.305 1263-1263/? D/StatusBar.NetworkController: refreshSignalCluster - setNWBoosterIndicators(false)
381511-14 09:18:01.305 1263-1263/? D/StatusBar.NetworkController: applyOpen
381611-14 09:18:01.305 1263-1263/? D/StatusBar.NetworkController: refreshSignalCluster - setNWBoosterIndicators(false)
381711-14 09:18:01.315 1263-1263/? D/StatusBar.NetworkController: applyOpen
381811-14 09:18:01.315 1263-1263/? D/StatusBar.NetworkController: refreshSignalCluster - setNWBoosterIndicators(false)
381911-14 09:18:01.315 278-278/? D/SurfaceFlinger: FPS : 60.47
382011-14 09:18:01.315 278-278/? W/SurfaceFlinger: Fail to Open /sys/devices/platform/gpusysfs/fps
382111-14 09:18:01.315 1263-1263/? D/StatusBar.NetworkController: applyOpen
382211-14 09:18:01.315 1263-1263/? D/StatusBar.NetworkController: refreshSignalCluster - setNWBoosterIndicators(false)
382311-14 09:18:01.315 1263-1263/? D/StatusBar.NetworkController: applyOpen
382411-14 09:18:01.325 278-278/? D/SurfaceFlinger: FPS : 60.47
382511-14 09:18:01.325 278-278/? W/SurfaceFlinger: Fail to Open /sys/devices/platform/gpusysfs/fps
382611-14 09:18:01.345 278-278/? D/SurfaceFlinger: FPS : 60.47
382711-14 09:18:01.345 278-278/? W/SurfaceFlinger: Fail to Open /sys/devices/platform/gpusysfs/fps
382811-14 09:18:01.365 278-278/? D/SurfaceFlinger: FPS : 60.47
382911-14 09:18:01.365 278-278/? W/SurfaceFlinger: Fail to Open /sys/devices/platform/gpusysfs/fps
383011-14 09:18:01.375 278-278/? D/SurfaceFlinger: FPS : 60.47
383111-14 09:18:01.375 278-278/? W/SurfaceFlinger: Fail to Open /sys/devices/platform/gpusysfs/fps
383211-14 09:18:01.395 278-278/? D/SurfaceFlinger: FPS : 60.47
383311-14 09:18:01.395 278-278/? W/SurfaceFlinger: Fail to Open /sys/devices/platform/gpusysfs/fps
383411-14 09:18:01.415 278-278/? D/SurfaceFlinger: FPS : 60.47
383511-14 09:18:01.415 278-278/? W/SurfaceFlinger: Fail to Open /sys/devices/platform/gpusysfs/fps
383611-14 09:18:01.425 278-278/? D/SurfaceFlinger: FPS : 60.18
383711-14 09:18:01.425 278-278/? W/SurfaceFlinger: Fail to Open /sys/devices/platform/gpusysfs/fps
383811-14 09:18:01.445 278-278/? D/SurfaceFlinger: FPS : 60.18
383911-14 09:18:01.445 278-278/? W/SurfaceFlinger: Fail to Open /sys/devices/platform/gpusysfs/fps
384011-14 09:18:01.465 278-278/? D/SurfaceFlinger: FPS : 60.18
384111-14 09:18:01.465 278-278/? W/SurfaceFlinger: Fail to Open /sys/devices/platform/gpusysfs/fps
384211-14 09:18:01.475 278-278/? D/SurfaceFlinger: FPS : 60.18
384311-14 09:18:01.475 278-278/? W/SurfaceFlinger: Fail to Open /sys/devices/platform/gpusysfs/fps
384411-14 09:18:01.495 278-278/? D/SurfaceFlinger: FPS : 60.18
384511-14 09:18:01.495 278-278/? W/SurfaceFlinger: Fail to Open /sys/devices/platform/gpusysfs/fps
384611-14 09:18:01.515 278-278/? D/SurfaceFlinger: FPS : 60.18
384711-14 09:18:01.515 278-278/? W/SurfaceFlinger: Fail to Open /sys/devices/platform/gpusysfs/fps
384811-14 09:18:01.525 278-278/? D/SurfaceFlinger: FPS : 60.18
384911-14 09:18:01.525 278-278/? W/SurfaceFlinger: Fail to Open /sys/devices/platform/gpusysfs/fps
385011-14 09:18:01.525 868-3238/? D/CustomFrequencyManagerService: releaseDVFSLockLocked : Getting Lock type frm List : DVFS_MIN_LIMIT  frequency : 1566000  uid : 1000  pid : 868  tag : LIST_SCROLL_BOOSTER@35
385111-14 09:18:01.545 278-278/? D/SurfaceFlinger: FPS : 60.18
385211-14 09:18:01.545 278-278/? W/SurfaceFlinger: Fail to Open /sys/devices/platform/gpusysfs/fps
385311-14 09:18:01.575 278-278/? D/SurfaceFlinger: FPS : 60.18
385411-14 09:18:01.575 278-278/? W/SurfaceFlinger: Fail to Open /sys/devices/platform/gpusysfs/fps
385511-14 09:18:01.575 278-278/? D/SurfaceFlinger: FPS : 60.18
385611-14 09:18:01.575 278-278/? W/SurfaceFlinger: Fail to Open /sys/devices/platform/gpusysfs/fps
385711-14 09:18:01.595 278-278/? D/SurfaceFlinger: FPS : 60.18
385811-14 09:18:01.595 278-278/? W/SurfaceFlinger: Fail to Open /sys/devices/platform/gpusysfs/fps
385911-14 09:18:01.605 25131-25131/? E/SMD: smd Interface open failed errno is 2 -1
386011-14 09:18:01.615 278-278/? D/SurfaceFlinger: FPS : 60.18
386111-14 09:18:01.615 278-278/? W/SurfaceFlinger: Fail to Open /sys/devices/platform/gpusysfs/fps
386211-14 09:18:01.615 1263-1263/? D/StatusBar.NetworkController: onSignalStrengthsChanged signalStrength=SignalStrength: 9 99 -120 -160 -120 -1 -1 99 2147483647 2147483647 2147483647 -1 2147483647 0x2 gsm|lte level=2
386311-14 09:18:01.615 1263-1263/? D/StatusBar.NetworkController: updateTelephonySignalStrength: hasService=true ss=SignalStrength: 9 99 -120 -160 -120 -1 -1 99 2147483647 2147483647 2147483647 -1 2147483647 0x2 gsm|lte
386411-14 09:18:01.615 1263-1263/? D/StatusBar.NetworkController: updateTelephonySignalStrength: iconLevel=2
386511-14 09:18:01.625 1263-1263/? D/StatusBar.NetworkController: updateTelephonySignalStrength, No signal level. mPhoneSignalIconId = com.android.systemui:drawable/stat_sys_signal_2_auto_rotate mDataSignalIconId = com.android.systemui:drawable/stat_sys_signal_2_auto_rotate mQSPhoneSignalIconId = com.android.systemui:drawable/ic_qs_signal_2 mContentDescriptionPhoneSignal = Phone two bars.
386611-14 09:18:01.625 1263-1263/? D/StatusBar.NetworkController: refreshViews connected={ wifi } level=2 combinedSignalIconId=0x7f020517/com.android.systemui:drawable/stat_sys_wifi_signal_4 mobileLabel=Emergency calls only wifiLabel="Badger"xxxxXXXXxxxxXXXX emergencyOnly=true combinedLabel="Badger"xxxxXXXXxxxxXXXX mAirplaneMode=false mDataActivity=0 mPhoneSignalIconId=0x7f020466/com.android.systemui:drawable/stat_sys_signal_2_auto_rotate mQSPhoneSignalIconId=0x7f02012a/com.android.systemui:drawable/ic_qs_signal_2 mDataDirectionIconId=0x0/(null) mDataSignalIconId=0x7f020466/com.android.systemui:drawable/stat_sys_signal_2_auto_rotate mDataTypeIconId=0x0/(null) mQSDataTypeIconId=0x0/(null) mNoSimIconId=0x0/(null) mWifiIconId=0x7f020517/com.android.systemui:drawable/stat_sys_wifi_signal_4 mQSWifiIconId=0x7f020143/com.android.systemui:drawable/ic_qs_wifi_4 mWifiActivityIconId=0x7f0204e6/com.android.systemui:drawable/stat_sys_signal_in mBluetoothTetherIconId=0x10808cc/android:drawable/stat_sys_tether_bluetooth
386711-14 09:18:01.625 1263-1263/? D/STATUSBAR-WifiQuickSettingButton: onWifiSignalChanged enabled=true enabledDesc:"Badger"
386811-14 09:18:01.625 1263-1263/? D/StatusBar.NetworkController: refreshSignalCluster - setNWBoosterIndicators(false)
386911-14 09:18:01.625 1263-1263/? D/StatusBar.NetworkController: applyOpen
387011-14 09:18:01.625 278-278/? D/SurfaceFlinger: FPS : 60.18
387111-14 09:18:01.625 278-278/? W/SurfaceFlinger: Fail to Open /sys/devices/platform/gpusysfs/fps
387211-14 09:18:01.635 1263-1263/? D/StatusBar.NetworkController: refreshSignalCluster - setNWBoosterIndicators(false)
387311-14 09:18:01.635 1263-1263/? D/StatusBar.NetworkController: applyOpen
387411-14 09:18:01.635 1263-1263/? D/StatusBar.NetworkController: refreshSignalCluster - setNWBoosterIndicators(false)
387511-14 09:18:01.635 1263-1263/? D/StatusBar.NetworkController: applyOpen
387611-14 09:18:01.635 1263-1263/? D/StatusBar.NetworkController: refreshSignalCluster - setNWBoosterIndicators(false)
387711-14 09:18:01.645 1263-1263/? D/StatusBar.NetworkController: applyOpen
387811-14 09:18:01.645 278-278/? D/SurfaceFlinger: FPS : 60.18
387911-14 09:18:01.645 278-278/? W/SurfaceFlinger: Fail to Open /sys/devices/platform/gpusysfs/fps
388011-14 09:18:01.645 1263-1263/? D/StatusBar.NetworkController: onSignalStrengthsChanged signalStrength=SignalStrength: 9 99 -120 -160 -120 -1 -1 99 2147483647 2147483647 2147483647 -1 2147483647 0x2 gsm|lte level=2
388111-14 09:18:01.645 1263-1263/? D/StatusBar.NetworkController: updateTelephonySignalStrength: hasService=true ss=SignalStrength: 9 99 -120 -160 -120 -1 -1 99 2147483647 2147483647 2147483647 -1 2147483647 0x2 gsm|lte
388211-14 09:18:01.645 1263-1263/? D/StatusBar.NetworkController: updateTelephonySignalStrength: iconLevel=2
388311-14 09:18:01.645 1263-1263/? D/StatusBar.NetworkController: updateTelephonySignalStrength, No signal level. mPhoneSignalIconId = com.android.systemui:drawable/stat_sys_signal_2_auto_rotate mDataSignalIconId = com.android.systemui:drawable/stat_sys_signal_2_auto_rotate mQSPhoneSignalIconId = com.android.systemui:drawable/ic_qs_signal_2 mContentDescriptionPhoneSignal = Phone two bars.
388411-14 09:18:01.655 1263-1263/? D/StatusBar.NetworkController: refreshViews connected={ wifi } level=2 combinedSignalIconId=0x7f020517/com.android.systemui:drawable/stat_sys_wifi_signal_4 mobileLabel=Emergency calls only wifiLabel="Badger"xxxxXXXXxxxxXXXX emergencyOnly=true combinedLabel="Badger"xxxxXXXXxxxxXXXX mAirplaneMode=false mDataActivity=0 mPhoneSignalIconId=0x7f020466/com.android.systemui:drawable/stat_sys_signal_2_auto_rotate mQSPhoneSignalIconId=0x7f02012a/com.android.systemui:drawable/ic_qs_signal_2 mDataDirectionIconId=0x0/(null) mDataSignalIconId=0x7f020466/com.android.systemui:drawable/stat_sys_signal_2_auto_rotate mDataTypeIconId=0x0/(null) mQSDataTypeIconId=0x0/(null) mNoSimIconId=0x0/(null) mWifiIconId=0x7f020517/com.android.systemui:drawable/stat_sys_wifi_signal_4 mQSWifiIconId=0x7f020143/com.android.systemui:drawable/ic_qs_wifi_4 mWifiActivityIconId=0x7f0204e6/com.android.systemui:drawable/stat_sys_signal_in mBluetoothTetherIconId=0x10808cc/android:drawable/stat_sys_tether_bluetooth
388511-14 09:18:01.655 1263-1263/? D/STATUSBAR-WifiQuickSettingButton: onWifiSignalChanged enabled=true enabledDesc:"Badger"
388611-14 09:18:01.665 278-278/? D/SurfaceFlinger: FPS : 60.18
388711-14 09:18:01.665 278-278/? W/SurfaceFlinger: Fail to Open /sys/devices/platform/gpusysfs/fps
388811-14 09:18:01.675 278-278/? D/SurfaceFlinger: FPS : 59.93
388911-14 09:18:01.675 278-278/? W/SurfaceFlinger: Fail to Open /sys/devices/platform/gpusysfs/fps
389011-14 09:18:01.695 278-278/? D/SurfaceFlinger: FPS : 59.93
389111-14 09:18:01.695 278-278/? W/SurfaceFlinger: Fail to Open /sys/devices/platform/gpusysfs/fps
389211-14 09:18:01.715 278-278/? D/SurfaceFlinger: FPS : 59.93
389311-14 09:18:01.715 278-278/? W/SurfaceFlinger: Fail to Open /sys/devices/platform/gpusysfs/fps
389411-14 09:18:01.725 278-278/? D/SurfaceFlinger: FPS : 59.93
389511-14 09:18:01.725 278-278/? W/SurfaceFlinger: Fail to Open /sys/devices/platform/gpusysfs/fps
389611-14 09:18:01.745 278-278/? D/SurfaceFlinger: FPS : 59.93
389711-14 09:18:01.745 278-278/? W/SurfaceFlinger: Fail to Open /sys/devices/platform/gpusysfs/fps
389811-14 09:18:01.765 278-278/? D/SurfaceFlinger: FPS : 59.93
389911-14 09:18:01.765 278-278/? W/SurfaceFlinger: Fail to Open /sys/devices/platform/gpusysfs/fps
390011-14 09:18:01.775 278-278/? D/SurfaceFlinger: FPS : 59.93
390111-14 09:18:01.775 278-278/? W/SurfaceFlinger: Fail to Open /sys/devices/platform/gpusysfs/fps
390211-14 09:18:01.795 278-278/? D/SurfaceFlinger: FPS : 59.93
390311-14 09:18:01.795 278-278/? W/SurfaceFlinger: Fail to Open /sys/devices/platform/gpusysfs/fps
390411-14 09:18:01.815 278-278/? D/SurfaceFlinger: FPS : 59.93
390511-14 09:18:01.815 278-278/? W/SurfaceFlinger: Fail to Open /sys/devices/platform/gpusysfs/fps
390611-14 09:18:01.825 278-278/? D/SurfaceFlinger: FPS : 59.93
390711-14 09:18:01.825 278-278/? W/SurfaceFlinger: Fail to Open /sys/devices/platform/gpusysfs/fps
390811-14 09:18:01.845 278-278/? D/SurfaceFlinger: FPS : 59.93
390911-14 09:18:01.845 278-278/? W/SurfaceFlinger: Fail to Open /sys/devices/platform/gpusysfs/fps
391011-14 09:18:01.865 278-278/? D/SurfaceFlinger: FPS : 59.93
391111-14 09:18:01.865 278-278/? W/SurfaceFlinger: Fail to Open /sys/devices/platform/gpusysfs/fps
391211-14 09:18:01.875 278-278/? D/SurfaceFlinger: FPS : 59.93
391311-14 09:18:01.875 278-278/? W/SurfaceFlinger: Fail to Open /sys/devices/platform/gpusysfs/fps
391411-14 09:18:01.875 15042-15076/? D/Adjust: Wrote Activity state: ec:0 sc:3 ssc:5 sl:1050.9 ts:960.3 la:11:12:13 uuid:36ec8976-7071-4aa6-867e-dd00d67f1c0e
391511-14 09:18:01.895 278-278/? D/SurfaceFlinger: FPS : 59.93
391611-14 09:18:01.895 278-278/? W/SurfaceFlinger: Fail to Open /sys/devices/platform/gpusysfs/fps
391711-14 09:18:01.915 278-278/? D/SurfaceFlinger: FPS : 59.93
391811-14 09:18:01.915 278-278/? W/SurfaceFlinger: Fail to Open /sys/devices/platform/gpusysfs/fps
391911-14 09:18:01.925 278-278/? D/SurfaceFlinger: FPS : 59.65
392011-14 09:18:01.925 278-278/? W/SurfaceFlinger: Fail to Open /sys/devices/platform/gpusysfs/fps
392111-14 09:18:01.945 278-278/? D/SurfaceFlinger: FPS : 59.65
392211-14 09:18:01.945 278-278/? W/SurfaceFlinger: Fail to Open /sys/devices/platform/gpusysfs/fps
392311-14 09:18:01.965 278-278/? D/SurfaceFlinger: FPS : 59.65
392411-14 09:18:01.965 278-278/? W/SurfaceFlinger: Fail to Open /sys/devices/platform/gpusysfs/fps
392511-14 09:18:01.975 278-278/? D/SurfaceFlinger: FPS : 59.65
392611-14 09:18:01.975 278-278/? W/SurfaceFlinger: Fail to Open /sys/devices/platform/gpusysfs/fps
392711-14 09:18:01.995 278-278/? D/SurfaceFlinger: FPS : 59.65
392811-14 09:18:01.995 278-278/? W/SurfaceFlinger: Fail to Open /sys/devices/platform/gpusysfs/fps
392911-14 09:18:02.015 278-278/? D/SurfaceFlinger: FPS : 59.65
393011-14 09:18:02.015 278-278/? W/SurfaceFlinger: Fail to Open /sys/devices/platform/gpusysfs/fps
393111-14 09:18:02.025 278-278/? D/SurfaceFlinger: FPS : 59.65
393211-14 09:18:02.025 278-278/? W/SurfaceFlinger: Fail to Open /sys/devices/platform/gpusysfs/fps
393311-14 09:18:02.045 278-278/? D/SurfaceFlinger: FPS : 59.65
393411-14 09:18:02.045 278-278/? W/SurfaceFlinger: Fail to Open /sys/devices/platform/gpusysfs/fps
393511-14 09:18:02.065 278-278/? D/SurfaceFlinger: FPS : 59.65
393611-14 09:18:02.065 278-278/? W/SurfaceFlinger: Fail to Open /sys/devices/platform/gpusysfs/fps
393711-14 09:18:02.075 278-278/? D/SurfaceFlinger: FPS : 59.65
393811-14 09:18:02.075 278-278/? W/SurfaceFlinger: Fail to Open /sys/devices/platform/gpusysfs/fps
393911-14 09:18:02.096 278-278/? D/SurfaceFlinger: FPS : 59.65
394011-14 09:18:02.096 278-278/? W/SurfaceFlinger: Fail to Open /sys/devices/platform/gpusysfs/fps
394111-14 09:18:02.106 278-278/? D/SurfaceFlinger: FPS : 59.65
394211-14 09:18:02.106 278-278/? W/SurfaceFlinger: Fail to Open /sys/devices/platform/gpusysfs/fps
394311-14 09:18:02.316 1263-1263/? D/StatusBar.NetworkController: refreshViews connected={ wifi } level=2 combinedSignalIconId=0x7f020517/com.android.systemui:drawable/stat_sys_wifi_signal_4 mobileLabel=Emergency calls only wifiLabel="Badger"xxxxXXXXxxxxXXXX emergencyOnly=true combinedLabel="Badger"xxxxXXXXxxxxXXXX mAirplaneMode=false mDataActivity=0 mPhoneSignalIconId=0x7f020466/com.android.systemui:drawable/stat_sys_signal_2_auto_rotate mQSPhoneSignalIconId=0x7f02012a/com.android.systemui:drawable/ic_qs_signal_2 mDataDirectionIconId=0x0/(null) mDataSignalIconId=0x7f020466/com.android.systemui:drawable/stat_sys_signal_2_auto_rotate mDataTypeIconId=0x0/(null) mQSDataTypeIconId=0x0/(null) mNoSimIconId=0x0/(null) mWifiIconId=0x7f020517/com.android.systemui:drawable/stat_sys_wifi_signal_4 mQSWifiIconId=0x7f020143/com.android.systemui:drawable/ic_qs_wifi_4 mWifiActivityIconId=0x7f0204e8/com.android.systemui:drawable/stat_sys_signal_inout mBluetoothTetherIconId=0x10808cc/android:drawable/stat_sys_tether_bluetooth
394411-14 09:18:02.316 1263-1263/? D/STATUSBAR-WifiQuickSettingButton: onWifiSignalChanged enabled=true enabledDesc:"Badger"
394511-14 09:18:02.316 1263-1263/? D/StatusBar.NetworkController: refreshSignalCluster - setNWBoosterIndicators(false)
394611-14 09:18:02.316 1263-1263/? D/StatusBar.NetworkController: applyOpen
394711-14 09:18:02.326 1263-1263/? D/StatusBar.NetworkController: refreshSignalCluster - setNWBoosterIndicators(false)
394811-14 09:18:02.326 1263-1263/? D/StatusBar.NetworkController: applyOpen
394911-14 09:18:02.326 1263-1263/? D/StatusBar.NetworkController: refreshSignalCluster - setNWBoosterIndicators(false)
395011-14 09:18:02.336 1263-1263/? D/StatusBar.NetworkController: applyOpen
395111-14 09:18:02.336 1263-1263/? D/StatusBar.NetworkController: refreshSignalCluster - setNWBoosterIndicators(false)
395211-14 09:18:02.336 1263-1263/? D/StatusBar.NetworkController: applyOpen
395311-14 09:18:02.366 278-278/? D/SurfaceFlinger: FPS : 27.86
395411-14 09:18:02.366 278-278/? W/SurfaceFlinger: Fail to Open /sys/devices/platform/gpusysfs/fps
395511-14 09:18:02.446 304-22404/? E/OMX-VDEC-1080P: Rxd i/p EOS, Notify Driver that EOS has been reached
395611-14 09:18:02.456 304-22404/? E/OMX-VDEC-1080P: Output EOS has been reached
395711-14 09:18:02.456 304-22404/? E/OMX-VDEC-1080P: Rxd OMX_COMPONENT_GENERATE_EOS_DONE
395811-14 09:18:02.606 25131-25131/? E/SMD: smd Interface open failed errno is 2 -1
395911-14 09:18:02.616 304-22409/? E/OMX-VDEC-1080P: send_command: Recieved a Command from Client
396011-14 09:18:02.616 304-22404/? E/OMX-VDEC-1080P: send_command_proxy(): cmd = 1, Current State 3, Expected State -1
396111-14 09:18:02.616 304-22404/? E/OMX-VDEC-1080P: send_command_proxy(): OMX_CommandFlush issued with param1: -1
396211-14 09:18:02.616 304-22409/? E/OMX-VDEC-1080P: send_command: Command Processed
396311-14 09:18:02.626 15042-22403/? I/ACodec: [OMX.qcom.video.decoder.avc] Now Flushing
396411-14 09:18:02.626 304-22404/? E/OMX-VDEC-1080P: Driver flush i/p Port complete
396511-14 09:18:02.626 304-22404/? E/OMX-VDEC-1080P: Initiate Input Flush
396611-14 09:18:02.626 304-22404/? E/OMX-VDEC-1080P: OMX flush i/p Port complete PenBuf(0)
396711-14 09:18:02.626 304-22404/? E/OMX-VDEC-1080P: Driver flush o/p Port complete
396811-14 09:18:02.636 304-22404/? E/OMX-VDEC-1080P: Initiate Output Flush
396911-14 09:18:02.636 304-22404/? E/OMX-VDEC-1080P: Buffer queue size 6 pending buf cnt 6
397011-14 09:18:02.636 304-22404/? E/OMX-VDEC-1080P: ID(c) P1(b1d5ba80) P2(40000000)
397111-14 09:18:02.636 304-22404/? E/OMX-VDEC-1080P: Buffer queue size 5 pending buf cnt 5
397211-14 09:18:02.636 304-22404/? E/OMX-VDEC-1080P: ID(c) P1(b1d5bad0) P2(40000000)
397311-14 09:18:02.636 304-22404/? E/OMX-VDEC-1080P: Buffer queue size 4 pending buf cnt 4
397411-14 09:18:02.636 304-22404/? E/OMX-VDEC-1080P: ID(c) P1(b1d5bb20) P2(40000000)
397511-14 09:18:02.646 304-22404/? E/OMX-VDEC-1080P: Buffer queue size 3 pending buf cnt 3
397611-14 09:18:02.646 304-22404/? E/OMX-VDEC-1080P: ID(c) P1(b1d5b990) P2(40000000)
397711-14 09:18:02.646 304-22404/? E/OMX-VDEC-1080P: Buffer queue size 2 pending buf cnt 2
397811-14 09:18:02.646 304-22404/? E/OMX-VDEC-1080P: ID(c) P1(b1d5b9e0) P2(40000000)
397911-14 09:18:02.646 304-22404/? E/OMX-VDEC-1080P: Buffer queue size 1 pending buf cnt 1
398011-14 09:18:02.646 304-22404/? E/OMX-VDEC-1080P: ID(c) P1(b1d5ba30) P2(40000000)
398111-14 09:18:02.646 304-22404/? E/OMX-VDEC-1080P: OMX flush o/p Port complete PenBuf(0)
398211-14 09:18:02.646 15042-22403/? I/ACodec: [OMX.qcom.video.decoder.avc] Now Executing
398311-14 09:18:02.676 304-22404/? E/OMX-VDEC-1080P: Sync frame received
398411-14 09:18:02.926 25174-25174/? E/Diag_Lib:  Diag_LSM_Init: Failed to open handle to diag driver, error = 2
398511-14 09:18:03.217 868-1534/? D/BatteryService: !@BatteryListener : batteryPropertiesChanged!
398611-14 09:18:03.217 868-1534/? D/BatteryService: level:67, scale:100, status:2, health:2, present:true, voltage: 3973, temperature: 328, technology: Li-ion, AC powered:false, USB powered:true, Wireless powered:false, icon:17303687, invalid charger:0
398711-14 09:18:03.217 868-1534/? D/BatteryService: online:4, current avg:460, charge type:1, power sharing:false, high voltage charger:false, capacity:280000, current_now:460
398811-14 09:18:03.217 868-868/? D/BatteryService: Sending ACTION_BATTERY_CHANGED.
398911-14 09:18:03.217 868-868/? I/MotionRecognitionService: Plugged
399011-14 09:18:03.217 1263-1263/? D/KeyguardUpdateMonitor: received broadcast android.intent.action.BATTERY_CHANGED
399111-14 09:18:03.217 1263-1263/? D/KeyguardUpdateMonitor: handleBatteryUpdate
399211-14 09:18:03.217 868-868/? I/MotionRecognitionService: setPowerConnected  = true
399311-14 09:18:03.227 1263-1263/? D/STATUSBAR-PhoneStatusBar:  mBrightnessEnablebySettings = true mBrightnessEnablebyBattery = true mBrightnessEnablebyDisableFlag = true mPmsBrightnessEnablebySettings = true
399411-14 09:18:03.227 1263-1263/? D/BatteryMeterView: ACTION_BATTERY_CHANGED : level:67 status:2 health:2
399511-14 09:18:03.227 1263-1263/? D/BatteryMeterView: ACTION_BATTERY_CHANGED : level:67 status:2 health:2
399611-14 09:18:03.237 1263-1263/? D/BatteryMeterView: ACTION_BATTERY_CHANGED : level:67 status:2 health:2
399711-14 09:18:03.247 278-278/? D/SurfaceFlinger: FPS : 1.11
399811-14 09:18:03.247 278-278/? W/SurfaceFlinger: Fail to Open /sys/devices/platform/gpusysfs/fps
399911-14 09:18:03.317 1263-1263/? D/StatusBar.NetworkController: refreshViews connected={ wifi } level=2 combinedSignalIconId=0x7f020517/com.android.systemui:drawable/stat_sys_wifi_signal_4 mobileLabel=Emergency calls only wifiLabel="Badger"xxxxXXXXxxxxXXXX emergencyOnly=true combinedLabel="Badger"xxxxXXXXxxxxXXXX mAirplaneMode=false mDataActivity=0 mPhoneSignalIconId=0x7f020466/com.android.systemui:drawable/stat_sys_signal_2_auto_rotate mQSPhoneSignalIconId=0x7f02012a/com.android.systemui:drawable/ic_qs_signal_2 mDataDirectionIconId=0x0/(null) mDataSignalIconId=0x7f020466/com.android.systemui:drawable/stat_sys_signal_2_auto_rotate mDataTypeIconId=0x0/(null) mQSDataTypeIconId=0x0/(null) mNoSimIconId=0x0/(null) mWifiIconId=0x7f020517/com.android.systemui:drawable/stat_sys_wifi_signal_4 mQSWifiIconId=0x7f020143/com.android.systemui:drawable/ic_qs_wifi_4 mWifiActivityIconId=0x7f0204e6/com.android.systemui:drawable/stat_sys_signal_in mBluetoothTetherIconId=0x10808cc/android:drawable/stat_sys_tether_bluetooth
400011-14 09:18:03.317 1263-1263/? D/STATUSBAR-WifiQuickSettingButton: onWifiSignalChanged enabled=true enabledDesc:"Badger"
400111-14 09:18:03.317 1263-1263/? D/StatusBar.NetworkController: refreshSignalCluster - setNWBoosterIndicators(false)
400211-14 09:18:03.317 1263-1263/? D/StatusBar.NetworkController: applyOpen
400311-14 09:18:03.327 1263-1263/? D/StatusBar.NetworkController: refreshSignalCluster - setNWBoosterIndicators(false)
400411-14 09:18:03.327 1263-1263/? D/StatusBar.NetworkController: applyOpen
400511-14 09:18:03.327 1263-1263/? D/StatusBar.NetworkController: refreshSignalCluster - setNWBoosterIndicators(false)
400611-14 09:18:03.327 1263-1263/? D/StatusBar.NetworkController: applyOpen
400711-14 09:18:03.327 1263-1263/? D/StatusBar.NetworkController: refreshSignalCluster - setNWBoosterIndicators(false)
400811-14 09:18:03.327 1263-1263/? D/StatusBar.NetworkController: applyOpen
400911-14 09:18:03.347 278-278/? D/SurfaceFlinger: FPS : 1.11
401011-14 09:18:03.347 278-278/? W/SurfaceFlinger: Fail to Open /sys/devices/platform/gpusysfs/fps
401111-14 09:18:03.597 25131-25131/? E/SMD: smd Interface open failed errno is 2 -1
401211-14 09:18:04.107 868-1163/? D/InputReader: Input event: value=1
401311-14 09:18:04.107 868-1163/? I/InputReader: Touch event's action is 0x0 (deviceType=0) [pCnt=1, s=0.311 ] when=1412078977000
401411-14 09:18:04.117 868-1162/? I/InputDispatcher: Delivering touch to (1263): action: 0x4, toolType: 1
401511-14 09:18:04.117 868-1162/? I/InputDispatcher: Delivering touch to (15042): action: 0x0, toolType: 1
401611-14 09:18:04.117 15042-15042/? D/ViewRootImpl: ViewPostImeInputStage ACTION_DOWN
401711-14 09:18:04.188 868-3238/? D/CustomFrequencyManagerService: acquireDVFSLockLocked : type : DVFS_MIN_LIMIT  frequency : 1566000  uid : 1000  pid : 868  pkgName : LIST_SCROLL_BOOSTER@35
401811-14 09:18:04.198 278-278/? D/SurfaceFlinger: FPS : 2.11
401911-14 09:18:04.198 278-278/? W/SurfaceFlinger: Fail to Open /sys/devices/platform/gpusysfs/fps
402011-14 09:18:04.218 278-278/? D/SurfaceFlinger: FPS : 2.11
402111-14 09:18:04.218 278-278/? W/SurfaceFlinger: Fail to Open /sys/devices/platform/gpusysfs/fps
402211-14 09:18:04.228 278-278/? D/SurfaceFlinger: FPS : 2.11
402311-14 09:18:04.228 278-278/? W/SurfaceFlinger: Fail to Open /sys/devices/platform/gpusysfs/fps
402411-14 09:18:04.248 278-278/? D/SurfaceFlinger: FPS : 2.11
402511-14 09:18:04.248 278-278/? W/SurfaceFlinger: Fail to Open /sys/devices/platform/gpusysfs/fps
402611-14 09:18:04.268 278-278/? D/SurfaceFlinger: FPS : 2.11
402711-14 09:18:04.268 278-278/? W/SurfaceFlinger: Fail to Open /sys/devices/platform/gpusysfs/fps
402811-14 09:18:04.278 278-278/? D/SurfaceFlinger: FPS : 2.11
402911-14 09:18:04.278 278-278/? W/SurfaceFlinger: Fail to Open /sys/devices/platform/gpusysfs/fps
403011-14 09:18:04.298 278-278/? D/SurfaceFlinger: FPS : 2.11
403111-14 09:18:04.298 278-278/? W/SurfaceFlinger: Fail to Open /sys/devices/platform/gpusysfs/fps
403211-14 09:18:04.318 278-278/? D/SurfaceFlinger: FPS : 2.11
403311-14 09:18:04.318 278-278/? W/SurfaceFlinger: Fail to Open /sys/devices/platform/gpusysfs/fps
403411-14 09:18:04.328 278-278/? D/SurfaceFlinger: FPS : 2.11
403511-14 09:18:04.328 278-278/? W/SurfaceFlinger: Fail to Open /sys/devices/platform/gpusysfs/fps
403611-14 09:18:04.348 278-278/? D/SurfaceFlinger: FPS : 2.11
403711-14 09:18:04.348 278-278/? W/SurfaceFlinger: Fail to Open /sys/devices/platform/gpusysfs/fps
403811-14 09:18:04.358 278-278/? D/SurfaceFlinger: FPS : 2.11
403911-14 09:18:04.368 278-278/? W/SurfaceFlinger: Fail to Open /sys/devices/platform/gpusysfs/fps
404011-14 09:18:04.378 278-278/? D/SurfaceFlinger: FPS : 2.11
404111-14 09:18:04.378 278-278/? W/SurfaceFlinger: Fail to Open /sys/devices/platform/gpusysfs/fps
404211-14 09:18:04.398 278-278/? D/SurfaceFlinger: FPS : 2.11
404311-14 09:18:04.398 278-278/? W/SurfaceFlinger: Fail to Open /sys/devices/platform/gpusysfs/fps
404411-14 09:18:04.408 278-278/? D/SurfaceFlinger: FPS : 2.11
404511-14 09:18:04.408 278-278/? W/SurfaceFlinger: Fail to Open /sys/devices/platform/gpusysfs/fps
404611-14 09:18:04.428 278-278/? D/SurfaceFlinger: FPS : 2.11
404711-14 09:18:04.428 278-278/? W/SurfaceFlinger: Fail to Open /sys/devices/platform/gpusysfs/fps
404811-14 09:18:04.448 278-278/? D/SurfaceFlinger: FPS : 2.11
404911-14 09:18:04.448 278-278/? W/SurfaceFlinger: Fail to Open /sys/devices/platform/gpusysfs/fps
405011-14 09:18:04.458 278-278/? D/SurfaceFlinger: FPS : 60.79
405111-14 09:18:04.458 278-278/? W/SurfaceFlinger: Fail to Open /sys/devices/platform/gpusysfs/fps
405211-14 09:18:04.478 278-278/? D/SurfaceFlinger: FPS : 60.79
405311-14 09:18:04.478 278-278/? W/SurfaceFlinger: Fail to Open /sys/devices/platform/gpusysfs/fps
405411-14 09:18:04.498 278-278/? D/SurfaceFlinger: FPS : 60.79
405511-14 09:18:04.498 278-278/? W/SurfaceFlinger: Fail to Open /sys/devices/platform/gpusysfs/fps
405611-14 09:18:04.508 278-278/? D/SurfaceFlinger: FPS : 60.79
405711-14 09:18:04.508 278-278/? W/SurfaceFlinger: Fail to Open /sys/devices/platform/gpusysfs/fps
405811-14 09:18:04.528 278-278/? D/SurfaceFlinger: FPS : 60.79
405911-14 09:18:04.528 278-278/? W/SurfaceFlinger: Fail to Open /sys/devices/platform/gpusysfs/fps
406011-14 09:18:04.548 278-278/? D/SurfaceFlinger: FPS : 60.79
406111-14 09:18:04.548 278-278/? W/SurfaceFlinger: Fail to Open /sys/devices/platform/gpusysfs/fps
406211-14 09:18:04.558 278-278/? D/SurfaceFlinger: FPS : 60.79
406311-14 09:18:04.568 278-278/? W/SurfaceFlinger: Fail to Open /sys/devices/platform/gpusysfs/fps
406411-14 09:18:04.578 278-278/? D/SurfaceFlinger: FPS : 60.79
406511-14 09:18:04.578 278-278/? W/SurfaceFlinger: Fail to Open /sys/devices/platform/gpusysfs/fps
406611-14 09:18:04.598 25131-25131/? E/SMD: smd Interface open failed errno is 2 -1
406711-14 09:18:04.598 278-278/? D/SurfaceFlinger: FPS : 60.79
406811-14 09:18:04.598 278-278/? W/SurfaceFlinger: Fail to Open /sys/devices/platform/gpusysfs/fps
406911-14 09:18:04.608 278-278/? D/SurfaceFlinger: FPS : 60.79
407011-14 09:18:04.608 278-278/? W/SurfaceFlinger: Fail to Open /sys/devices/platform/gpusysfs/fps
407111-14 09:18:04.628 278-278/? D/SurfaceFlinger: FPS : 60.79
407211-14 09:18:04.628 278-278/? W/SurfaceFlinger: Fail to Open /sys/devices/platform/gpusysfs/fps
407311-14 09:18:04.648 278-278/? D/SurfaceFlinger: FPS : 60.79
407411-14 09:18:04.648 278-278/? W/SurfaceFlinger: Fail to Open /sys/devices/platform/gpusysfs/fps
407511-14 09:18:04.658 278-278/? D/SurfaceFlinger: FPS : 60.79
407611-14 09:18:04.658 278-278/? W/SurfaceFlinger: Fail to Open /sys/devices/platform/gpusysfs/fps
407711-14 09:18:04.678 278-278/? D/SurfaceFlinger: FPS : 60.79
407811-14 09:18:04.678 278-278/? W/SurfaceFlinger: Fail to Open /sys/devices/platform/gpusysfs/fps
407911-14 09:18:04.698 278-278/? D/SurfaceFlinger: FPS : 60.79
408011-14 09:18:04.698 278-278/? W/SurfaceFlinger: Fail to Open /sys/devices/platform/gpusysfs/fps
408111-14 09:18:04.708 278-278/? D/SurfaceFlinger: FPS : 60.79
408211-14 09:18:04.708 278-278/? W/SurfaceFlinger: Fail to Open /sys/devices/platform/gpusysfs/fps
408311-14 09:18:04.728 278-278/? D/SurfaceFlinger: FPS : 60.20
408411-14 09:18:04.728 278-278/? W/SurfaceFlinger: Fail to Open /sys/devices/platform/gpusysfs/fps
408511-14 09:18:04.748 278-278/? D/SurfaceFlinger: FPS : 60.20
408611-14 09:18:04.748 278-278/? W/SurfaceFlinger: Fail to Open /sys/devices/platform/gpusysfs/fps
408711-14 09:18:04.758 278-278/? D/SurfaceFlinger: FPS : 60.20
408811-14 09:18:04.758 278-278/? W/SurfaceFlinger: Fail to Open /sys/devices/platform/gpusysfs/fps
408911-14 09:18:04.778 278-278/? D/SurfaceFlinger: FPS : 60.20
409011-14 09:18:04.778 278-278/? W/SurfaceFlinger: Fail to Open /sys/devices/platform/gpusysfs/fps
409111-14 09:18:04.798 278-278/? D/SurfaceFlinger: FPS : 60.20
409211-14 09:18:04.798 278-278/? W/SurfaceFlinger: Fail to Open /sys/devices/platform/gpusysfs/fps
409311-14 09:18:04.808 278-278/? D/SurfaceFlinger: FPS : 60.20
409411-14 09:18:04.808 278-278/? W/SurfaceFlinger: Fail to Open /sys/devices/platform/gpusysfs/fps
409511-14 09:18:04.828 278-278/? D/SurfaceFlinger: FPS : 60.20
409611-14 09:18:04.828 278-278/? W/SurfaceFlinger: Fail to Open /sys/devices/platform/gpusysfs/fps
409711-14 09:18:04.848 278-278/? D/SurfaceFlinger: FPS : 60.20
409811-14 09:18:04.848 278-278/? W/SurfaceFlinger: Fail to Open /sys/devices/platform/gpusysfs/fps
409911-14 09:18:04.858 278-278/? D/SurfaceFlinger: FPS : 60.20
410011-14 09:18:04.858 278-278/? W/SurfaceFlinger: Fail to Open /sys/devices/platform/gpusysfs/fps
410111-14 09:18:04.878 278-278/? D/SurfaceFlinger: FPS : 60.20
410211-14 09:18:04.878 278-278/? W/SurfaceFlinger: Fail to Open /sys/devices/platform/gpusysfs/fps
410311-14 09:18:04.898 278-278/? D/SurfaceFlinger: FPS : 60.20
410411-14 09:18:04.898 278-278/? W/SurfaceFlinger: Fail to Open /sys/devices/platform/gpusysfs/fps
410511-14 09:18:04.908 278-278/? D/SurfaceFlinger: FPS : 60.20
410611-14 09:18:04.908 278-278/? W/SurfaceFlinger: Fail to Open /sys/devices/platform/gpusysfs/fps
410711-14 09:18:04.948 278-278/? D/SurfaceFlinger: FPS : 60.20
410811-14 09:18:04.948 278-278/? W/SurfaceFlinger: Fail to Open /sys/devices/platform/gpusysfs/fps
410911-14 09:18:04.958 278-278/? D/SurfaceFlinger: FPS : 60.20
411011-14 09:18:04.958 278-278/? W/SurfaceFlinger: Fail to Open /sys/devices/platform/gpusysfs/fps
411111-14 09:18:04.978 278-278/? D/SurfaceFlinger: FPS : 60.20
411211-14 09:18:04.978 278-278/? W/SurfaceFlinger: Fail to Open /sys/devices/platform/gpusysfs/fps
411311-14 09:18:04.998 278-278/? D/SurfaceFlinger: FPS : 56.40
411411-14 09:18:04.998 278-278/? W/SurfaceFlinger: Fail to Open /sys/devices/platform/gpusysfs/fps
411511-14 09:18:05.008 278-278/? D/SurfaceFlinger: FPS : 56.40
411611-14 09:18:05.008 278-278/? W/SurfaceFlinger: Fail to Open /sys/devices/platform/gpusysfs/fps
411711-14 09:18:05.028 278-278/? D/SurfaceFlinger: FPS : 56.40
411811-14 09:18:05.028 278-278/? W/SurfaceFlinger: Fail to Open /sys/devices/platform/gpusysfs/fps
411911-14 09:18:05.048 278-278/? D/SurfaceFlinger: FPS : 56.40
412011-14 09:18:05.048 278-278/? W/SurfaceFlinger: Fail to Open /sys/devices/platform/gpusysfs/fps
412111-14 09:18:05.058 278-278/? D/SurfaceFlinger: FPS : 56.40
412211-14 09:18:05.058 278-278/? W/SurfaceFlinger: Fail to Open /sys/devices/platform/gpusysfs/fps
412311-14 09:18:05.078 278-278/? D/SurfaceFlinger: FPS : 56.40
412411-14 09:18:05.078 278-278/? W/SurfaceFlinger: Fail to Open /sys/devices/platform/gpusysfs/fps
412511-14 09:18:05.098 278-278/? D/SurfaceFlinger: FPS : 56.40
412611-14 09:18:05.098 278-278/? W/SurfaceFlinger: Fail to Open /sys/devices/platform/gpusysfs/fps
412711-14 09:18:05.108 278-278/? D/SurfaceFlinger: FPS : 56.40
412811-14 09:18:05.108 278-278/? W/SurfaceFlinger: Fail to Open /sys/devices/platform/gpusysfs/fps
412911-14 09:18:05.128 278-278/? D/SurfaceFlinger: FPS : 56.40
413011-14 09:18:05.128 278-278/? W/SurfaceFlinger: Fail to Open /sys/devices/platform/gpusysfs/fps
413111-14 09:18:05.148 278-278/? D/SurfaceFlinger: FPS : 56.40
413211-14 09:18:05.148 278-278/? W/SurfaceFlinger: Fail to Open /sys/devices/platform/gpusysfs/fps
413311-14 09:18:05.159 278-278/? D/SurfaceFlinger: FPS : 56.40
413411-14 09:18:05.159 278-278/? W/SurfaceFlinger: Fail to Open /sys/devices/platform/gpusysfs/fps
413511-14 09:18:05.179 278-278/? D/SurfaceFlinger: FPS : 56.40
413611-14 09:18:05.179 278-278/? W/SurfaceFlinger: Fail to Open /sys/devices/platform/gpusysfs/fps
413711-14 09:18:05.199 278-278/? D/SurfaceFlinger: FPS : 56.40
413811-14 09:18:05.199 278-278/? W/SurfaceFlinger: Fail to Open /sys/devices/platform/gpusysfs/fps
413911-14 09:18:05.209 278-278/? D/SurfaceFlinger: FPS : 56.40
414011-14 09:18:05.209 278-278/? W/SurfaceFlinger: Fail to Open /sys/devices/platform/gpusysfs/fps
414111-14 09:18:05.229 278-278/? D/SurfaceFlinger: FPS : 56.40
414211-14 09:18:05.229 278-278/? W/SurfaceFlinger: Fail to Open /sys/devices/platform/gpusysfs/fps
414311-14 09:18:05.249 278-278/? D/SurfaceFlinger: FPS : 56.40
414411-14 09:18:05.249 278-278/? W/SurfaceFlinger: Fail to Open /sys/devices/platform/gpusysfs/fps
414511-14 09:18:05.259 278-278/? D/SurfaceFlinger: FPS : 60.07
414611-14 09:18:05.259 278-278/? W/SurfaceFlinger: Fail to Open /sys/devices/platform/gpusysfs/fps
414711-14 09:18:05.279 278-278/? D/SurfaceFlinger: FPS : 60.07
414811-14 09:18:05.279 278-278/? W/SurfaceFlinger: Fail to Open /sys/devices/platform/gpusysfs/fps
414911-14 09:18:05.299 278-278/? D/SurfaceFlinger: FPS : 60.07
415011-14 09:18:05.299 278-278/? W/SurfaceFlinger: Fail to Open /sys/devices/platform/gpusysfs/fps
415111-14 09:18:05.319 278-278/? D/SurfaceFlinger: FPS : 60.07
415211-14 09:18:05.319 278-278/? W/SurfaceFlinger: Fail to Open /sys/devices/platform/gpusysfs/fps
415311-14 09:18:05.329 1263-1263/? D/StatusBar.NetworkController: refreshViews connected={ wifi } level=2 combinedSignalIconId=0x7f020517/com.android.systemui:drawable/stat_sys_wifi_signal_4 mobileLabel=Emergency calls only wifiLabel="Badger"xxxxXXXXxxxxXXXX emergencyOnly=true combinedLabel="Badger"xxxxXXXXxxxxXXXX mAirplaneMode=false mDataActivity=0 mPhoneSignalIconId=0x7f020466/com.android.systemui:drawable/stat_sys_signal_2_auto_rotate mQSPhoneSignalIconId=0x7f02012a/com.android.systemui:drawable/ic_qs_signal_2 mDataDirectionIconId=0x0/(null) mDataSignalIconId=0x7f020466/com.android.systemui:drawable/stat_sys_signal_2_auto_rotate mDataTypeIconId=0x0/(null) mQSDataTypeIconId=0x0/(null) mNoSimIconId=0x0/(null) mWifiIconId=0x7f020517/com.android.systemui:drawable/stat_sys_wifi_signal_4 mQSWifiIconId=0x7f020143/com.android.systemui:drawable/ic_qs_wifi_4 mWifiActivityIconId=0x7f0204e8/com.android.systemui:drawable/stat_sys_signal_inout mBluetoothTetherIconId=0x10808cc/android:drawable/stat_sys_tether_bluetooth
415411-14 09:18:05.329 1263-1263/? D/STATUSBAR-WifiQuickSettingButton: onWifiSignalChanged enabled=true enabledDesc:"Badger"
415511-14 09:18:05.329 1263-1263/? D/StatusBar.NetworkController: refreshSignalCluster - setNWBoosterIndicators(false)
415611-14 09:18:05.329 1263-1263/? D/StatusBar.NetworkController: applyOpen
415711-14 09:18:05.329 278-278/? D/SurfaceFlinger: FPS : 60.07
415811-14 09:18:05.329 278-278/? W/SurfaceFlinger: Fail to Open /sys/devices/platform/gpusysfs/fps
415911-14 09:18:05.329 1263-1263/? D/StatusBar.NetworkController: refreshSignalCluster - setNWBoosterIndicators(false)
416011-14 09:18:05.329 1263-1263/? D/StatusBar.NetworkController: applyOpen
416111-14 09:18:05.329 1263-1263/? D/StatusBar.NetworkController: refreshSignalCluster - setNWBoosterIndicators(false)
416211-14 09:18:05.339 1263-1263/? D/StatusBar.NetworkController: applyOpen
416311-14 09:18:05.339 1263-1263/? D/StatusBar.NetworkController: refreshSignalCluster - setNWBoosterIndicators(false)
416411-14 09:18:05.339 1263-1263/? D/StatusBar.NetworkController: applyOpen
416511-14 09:18:05.349 278-278/? D/SurfaceFlinger: FPS : 60.07
416611-14 09:18:05.349 278-278/? W/SurfaceFlinger: Fail to Open /sys/devices/platform/gpusysfs/fps
416711-14 09:18:05.359 278-278/? D/SurfaceFlinger: FPS : 60.07
416811-14 09:18:05.359 278-278/? W/SurfaceFlinger: Fail to Open /sys/devices/platform/gpusysfs/fps
416911-14 09:18:05.379 278-278/? D/SurfaceFlinger: FPS : 60.07
417011-14 09:18:05.379 278-278/? W/SurfaceFlinger: Fail to Open /sys/devices/platform/gpusysfs/fps
417111-14 09:18:05.379 868-1533/? D/ActivityManager: startService callerProcessName:com.google.android.gms, calleePkgName: com.google.android.gms
417211-14 09:18:05.399 278-278/? D/SurfaceFlinger: FPS : 60.07
417311-14 09:18:05.399 278-278/? W/SurfaceFlinger: Fail to Open /sys/devices/platform/gpusysfs/fps
417411-14 09:18:05.409 278-278/? D/SurfaceFlinger: FPS : 60.07
417511-14 09:18:05.409 278-278/? W/SurfaceFlinger: Fail to Open /sys/devices/platform/gpusysfs/fps
417611-14 09:18:05.429 278-278/? D/SurfaceFlinger: FPS : 60.07
417711-14 09:18:05.429 278-278/? W/SurfaceFlinger: Fail to Open /sys/devices/platform/gpusysfs/fps
417811-14 09:18:05.449 278-278/? D/SurfaceFlinger: FPS : 60.07
417911-14 09:18:05.449 278-278/? W/SurfaceFlinger: Fail to Open /sys/devices/platform/gpusysfs/fps
418011-14 09:18:05.459 278-278/? D/SurfaceFlinger: FPS : 60.07
418111-14 09:18:05.459 278-278/? W/SurfaceFlinger: Fail to Open /sys/devices/platform/gpusysfs/fps
418211-14 09:18:05.479 278-278/? D/SurfaceFlinger: FPS : 60.07
418311-14 09:18:05.479 278-278/? W/SurfaceFlinger: Fail to Open /sys/devices/platform/gpusysfs/fps
418411-14 09:18:05.499 278-278/? D/SurfaceFlinger: FPS : 60.07
418511-14 09:18:05.499 278-278/? W/SurfaceFlinger: Fail to Open /sys/devices/platform/gpusysfs/fps
418611-14 09:18:05.509 278-278/? D/SurfaceFlinger: FPS : 60.07
418711-14 09:18:05.509 278-278/? W/SurfaceFlinger: Fail to Open /sys/devices/platform/gpusysfs/fps
418811-14 09:18:05.529 278-278/? D/SurfaceFlinger: FPS : 60.29
418911-14 09:18:05.529 278-278/? W/SurfaceFlinger: Fail to Open /sys/devices/platform/gpusysfs/fps
419011-14 09:18:05.539 278-278/? D/SurfaceFlinger: FPS : 60.29
419111-14 09:18:05.549 278-278/? W/SurfaceFlinger: Fail to Open /sys/devices/platform/gpusysfs/fps
419211-14 09:18:05.559 278-278/? D/SurfaceFlinger: FPS : 60.29
419311-14 09:18:05.559 278-278/? W/SurfaceFlinger: Fail to Open /sys/devices/platform/gpusysfs/fps
419411-14 09:18:05.579 278-278/? D/SurfaceFlinger: FPS : 60.29
419511-14 09:18:05.579 278-278/? W/SurfaceFlinger: Fail to Open /sys/devices/platform/gpusysfs/fps
419611-14 09:18:05.599 278-278/? D/SurfaceFlinger: FPS : 60.29
419711-14 09:18:05.599 278-278/? W/SurfaceFlinger: Fail to Open /sys/devices/platform/gpusysfs/fps
419811-14 09:18:05.599 25131-25131/? E/SMD: smd Interface open failed errno is 2 -1
419911-14 09:18:05.609 278-278/? D/SurfaceFlinger: FPS : 60.29
420011-14 09:18:05.609 278-278/? W/SurfaceFlinger: Fail to Open /sys/devices/platform/gpusysfs/fps
420111-14 09:18:05.629 278-278/? D/SurfaceFlinger: FPS : 60.29
420211-14 09:18:05.629 278-278/? W/SurfaceFlinger: Fail to Open /sys/devices/platform/gpusysfs/fps
420311-14 09:18:05.639 278-278/? D/SurfaceFlinger: FPS : 60.29
420411-14 09:18:05.649 278-278/? W/SurfaceFlinger: Fail to Open /sys/devices/platform/gpusysfs/fps
420511-14 09:18:05.659 278-278/? D/SurfaceFlinger: FPS : 60.29
420611-14 09:18:05.659 278-278/? W/SurfaceFlinger: Fail to Open /sys/devices/platform/gpusysfs/fps
420711-14 09:18:05.679 278-278/? D/SurfaceFlinger: FPS : 60.29
420811-14 09:18:05.679 278-278/? W/SurfaceFlinger: Fail to Open /sys/devices/platform/gpusysfs/fps
420911-14 09:18:05.689 278-278/? D/SurfaceFlinger: FPS : 60.29
421011-14 09:18:05.689 278-278/? W/SurfaceFlinger: Fail to Open /sys/devices/platform/gpusysfs/fps
421111-14 09:18:05.709 278-278/? D/SurfaceFlinger: FPS : 60.29
421211-14 09:18:05.709 278-278/? W/SurfaceFlinger: Fail to Open /sys/devices/platform/gpusysfs/fps
421311-14 09:18:05.729 278-278/? D/SurfaceFlinger: FPS : 60.29
421411-14 09:18:05.729 278-278/? W/SurfaceFlinger: Fail to Open /sys/devices/platform/gpusysfs/fps
421511-14 09:18:05.739 278-278/? D/SurfaceFlinger: FPS : 60.29
421611-14 09:18:05.739 278-278/? W/SurfaceFlinger: Fail to Open /sys/devices/platform/gpusysfs/fps
421711-14 09:18:05.759 278-278/? D/SurfaceFlinger: FPS : 60.29
421811-14 09:18:05.759 278-278/? W/SurfaceFlinger: Fail to Open /sys/devices/platform/gpusysfs/fps
421911-14 09:18:05.779 278-278/? D/SurfaceFlinger: FPS : 60.29
422011-14 09:18:05.779 278-278/? W/SurfaceFlinger: Fail to Open /sys/devices/platform/gpusysfs/fps
422111-14 09:18:05.789 278-278/? D/SurfaceFlinger: FPS : 60.17
422211-14 09:18:05.789 278-278/? W/SurfaceFlinger: Fail to Open /sys/devices/platform/gpusysfs/fps
422311-14 09:18:05.809 278-278/? D/SurfaceFlinger: FPS : 60.17
422411-14 09:18:05.809 278-278/? W/SurfaceFlinger: Fail to Open /sys/devices/platform/gpusysfs/fps
422511-14 09:18:05.829 278-278/? D/SurfaceFlinger: FPS : 60.17
422611-14 09:18:05.829 278-278/? W/SurfaceFlinger: Fail to Open /sys/devices/platform/gpusysfs/fps
422711-14 09:18:05.839 278-278/? D/SurfaceFlinger: FPS : 60.17
422811-14 09:18:05.849 278-278/? W/SurfaceFlinger: Fail to Open /sys/devices/platform/gpusysfs/fps
422911-14 09:18:05.859 278-278/? D/SurfaceFlinger: FPS : 60.17
423011-14 09:18:05.859 278-278/? W/SurfaceFlinger: Fail to Open /sys/devices/platform/gpusysfs/fps
423111-14 09:18:05.879 278-278/? D/SurfaceFlinger: FPS : 60.17
423211-14 09:18:05.879 278-278/? W/SurfaceFlinger: Fail to Open /sys/devices/platform/gpusysfs/fps
423311-14 09:18:05.889 278-278/? D/SurfaceFlinger: FPS : 60.17
423411-14 09:18:05.889 278-278/? W/SurfaceFlinger: Fail to Open /sys/devices/platform/gpusysfs/fps
423511-14 09:18:05.909 278-278/? D/SurfaceFlinger: FPS : 60.17
423611-14 09:18:05.909 278-278/? W/SurfaceFlinger: Fail to Open /sys/devices/platform/gpusysfs/fps
423711-14 09:18:05.929 278-278/? D/SurfaceFlinger: FPS : 60.17
423811-14 09:18:05.929 278-278/? W/SurfaceFlinger: Fail to Open /sys/devices/platform/gpusysfs/fps
423911-14 09:18:05.939 278-278/? D/SurfaceFlinger: FPS : 60.17
424011-14 09:18:05.939 278-278/? W/SurfaceFlinger: Fail to Open /sys/devices/platform/gpusysfs/fps
424111-14 09:18:05.969 278-278/? D/SurfaceFlinger: FPS : 60.17
424211-14 09:18:05.969 278-278/? W/SurfaceFlinger: Fail to Open /sys/devices/platform/gpusysfs/fps
424311-14 09:18:05.979 278-278/? D/SurfaceFlinger: FPS : 60.17
424411-14 09:18:05.979 278-278/? W/SurfaceFlinger: Fail to Open /sys/devices/platform/gpusysfs/fps
424511-14 09:18:05.989 278-278/? D/SurfaceFlinger: FPS : 60.17
424611-14 09:18:05.989 278-278/? W/SurfaceFlinger: Fail to Open /sys/devices/platform/gpusysfs/fps
424711-14 09:18:06.009 278-278/? D/SurfaceFlinger: FPS : 60.17
424811-14 09:18:06.009 278-278/? W/SurfaceFlinger: Fail to Open /sys/devices/platform/gpusysfs/fps
424911-14 09:18:06.029 278-278/? D/SurfaceFlinger: FPS : 60.17
425011-14 09:18:06.029 278-278/? W/SurfaceFlinger: Fail to Open /sys/devices/platform/gpusysfs/fps
425111-14 09:18:06.039 278-278/? D/SurfaceFlinger: FPS : 60.17
425211-14 09:18:06.039 278-278/? W/SurfaceFlinger: Fail to Open /sys/devices/platform/gpusysfs/fps
425311-14 09:18:06.059 278-278/? D/SurfaceFlinger: FPS : 60.15
425411-14 09:18:06.059 278-278/? W/SurfaceFlinger: Fail to Open /sys/devices/platform/gpusysfs/fps
425511-14 09:18:06.079 278-278/? D/SurfaceFlinger: FPS : 60.15
425611-14 09:18:06.079 278-278/? W/SurfaceFlinger: Fail to Open /sys/devices/platform/gpusysfs/fps
425711-14 09:18:06.089 278-278/? D/SurfaceFlinger: FPS : 60.15
425811-14 09:18:06.089 278-278/? W/SurfaceFlinger: Fail to Open /sys/devices/platform/gpusysfs/fps
425911-14 09:18:06.109 278-278/? D/SurfaceFlinger: FPS : 60.15
426011-14 09:18:06.109 278-278/? W/SurfaceFlinger: Fail to Open /sys/devices/platform/gpusysfs/fps
426111-14 09:18:06.129 278-278/? D/SurfaceFlinger: FPS : 60.15
426211-14 09:18:06.129 278-278/? W/SurfaceFlinger: Fail to Open /sys/devices/platform/gpusysfs/fps
426311-14 09:18:06.139 278-278/? D/SurfaceFlinger: FPS : 60.15
426411-14 09:18:06.139 278-278/? W/SurfaceFlinger: Fail to Open /sys/devices/platform/gpusysfs/fps
426511-14 09:18:06.159 278-278/? D/SurfaceFlinger: FPS : 60.15
426611-14 09:18:06.159 278-278/? W/SurfaceFlinger: Fail to Open /sys/devices/platform/gpusysfs/fps
426711-14 09:18:06.180 278-278/? D/SurfaceFlinger: FPS : 60.15
426811-14 09:18:06.180 278-278/? W/SurfaceFlinger: Fail to Open /sys/devices/platform/gpusysfs/fps
426911-14 09:18:06.190 278-278/? D/SurfaceFlinger: FPS : 60.15
427011-14 09:18:06.190 278-278/? W/SurfaceFlinger: Fail to Open /sys/devices/platform/gpusysfs/fps
427111-14 09:18:06.210 278-278/? D/SurfaceFlinger: FPS : 60.15
427211-14 09:18:06.210 278-278/? W/SurfaceFlinger: Fail to Open /sys/devices/platform/gpusysfs/fps
427311-14 09:18:06.230 278-278/? D/SurfaceFlinger: FPS : 60.15
427411-14 09:18:06.230 278-278/? W/SurfaceFlinger: Fail to Open /sys/devices/platform/gpusysfs/fps
427511-14 09:18:06.240 278-278/? D/SurfaceFlinger: FPS : 60.15
427611-14 09:18:06.250 278-278/? W/SurfaceFlinger: Fail to Open /sys/devices/platform/gpusysfs/fps
427711-14 09:18:06.260 278-278/? D/SurfaceFlinger: FPS : 60.15
427811-14 09:18:06.260 278-278/? W/SurfaceFlinger: Fail to Open /sys/devices/platform/gpusysfs/fps
427911-14 09:18:06.280 278-278/? D/SurfaceFlinger: FPS : 60.15
428011-14 09:18:06.280 278-278/? W/SurfaceFlinger: Fail to Open /sys/devices/platform/gpusysfs/fps
428111-14 09:18:06.290 278-278/? D/SurfaceFlinger: FPS : 60.15
428211-14 09:18:06.290 278-278/? W/SurfaceFlinger: Fail to Open /sys/devices/platform/gpusysfs/fps
428311-14 09:18:06.310 278-278/? D/SurfaceFlinger: FPS : 60.15
428411-14 09:18:06.310 278-278/? W/SurfaceFlinger: Fail to Open /sys/devices/platform/gpusysfs/fps
428511-14 09:18:06.330 278-278/? D/SurfaceFlinger: FPS : 60.13
428611-14 09:18:06.330 278-278/? W/SurfaceFlinger: Fail to Open /sys/devices/platform/gpusysfs/fps
428711-14 09:18:06.340 278-278/? D/SurfaceFlinger: FPS : 60.13
428811-14 09:18:06.340 278-278/? W/SurfaceFlinger: Fail to Open /sys/devices/platform/gpusysfs/fps
428911-14 09:18:06.360 278-278/? D/SurfaceFlinger: FPS : 60.13
429011-14 09:18:06.360 278-278/? W/SurfaceFlinger: Fail to Open /sys/devices/platform/gpusysfs/fps
429111-14 09:18:06.380 278-278/? D/SurfaceFlinger: FPS : 60.13
429211-14 09:18:06.380 278-278/? W/SurfaceFlinger: Fail to Open /sys/devices/platform/gpusysfs/fps
429311-14 09:18:06.390 278-278/? D/SurfaceFlinger: FPS : 60.13
429411-14 09:18:06.390 278-278/? W/SurfaceFlinger: Fail to Open /sys/devices/platform/gpusysfs/fps
429511-14 09:18:06.410 278-278/? D/SurfaceFlinger: FPS : 60.13
429611-14 09:18:06.410 278-278/? W/SurfaceFlinger: Fail to Open /sys/devices/platform/gpusysfs/fps
429711-14 09:18:06.430 278-278/? D/SurfaceFlinger: FPS : 60.13
429811-14 09:18:06.430 278-278/? W/SurfaceFlinger: Fail to Open /sys/devices/platform/gpusysfs/fps
429911-14 09:18:06.440 278-278/? D/SurfaceFlinger: FPS : 60.13
430011-14 09:18:06.440 278-278/? W/SurfaceFlinger: Fail to Open /sys/devices/platform/gpusysfs/fps
430111-14 09:18:06.460 278-278/? D/SurfaceFlinger: FPS : 60.13
430211-14 09:18:06.460 278-278/? W/SurfaceFlinger: Fail to Open /sys/devices/platform/gpusysfs/fps
430311-14 09:18:06.480 278-278/? D/SurfaceFlinger: FPS : 60.13
430411-14 09:18:06.480 278-278/? W/SurfaceFlinger: Fail to Open /sys/devices/platform/gpusysfs/fps
430511-14 09:18:06.490 278-278/? D/SurfaceFlinger: FPS : 60.13
430611-14 09:18:06.490 278-278/? W/SurfaceFlinger: Fail to Open /sys/devices/platform/gpusysfs/fps
430711-14 09:18:06.510 278-278/? D/SurfaceFlinger: FPS : 60.13
430811-14 09:18:06.510 278-278/? W/SurfaceFlinger: Fail to Open /sys/devices/platform/gpusysfs/fps
430911-14 09:18:06.530 278-278/? D/SurfaceFlinger: FPS : 60.13
431011-14 09:18:06.530 278-278/? W/SurfaceFlinger: Fail to Open /sys/devices/platform/gpusysfs/fps
431111-14 09:18:06.540 278-278/? D/SurfaceFlinger: FPS : 60.13
431211-14 09:18:06.540 278-278/? W/SurfaceFlinger: Fail to Open /sys/devices/platform/gpusysfs/fps
431311-14 09:18:06.560 278-278/? D/SurfaceFlinger: FPS : 60.13
431411-14 09:18:06.560 278-278/? W/SurfaceFlinger: Fail to Open /sys/devices/platform/gpusysfs/fps
431511-14 09:18:06.580 278-278/? D/SurfaceFlinger: FPS : 60.13
431611-14 09:18:06.580 278-278/? W/SurfaceFlinger: Fail to Open /sys/devices/platform/gpusysfs/fps
431711-14 09:18:06.590 278-278/? D/SurfaceFlinger: FPS : 60.19
431811-14 09:18:06.590 278-278/? W/SurfaceFlinger: Fail to Open /sys/devices/platform/gpusysfs/fps
431911-14 09:18:06.600 25131-25131/? E/SMD: smd Interface open failed errno is 2 -1
432011-14 09:18:06.610 278-278/? D/SurfaceFlinger: FPS : 60.19
432111-14 09:18:06.610 278-278/? W/SurfaceFlinger: Fail to Open /sys/devices/platform/gpusysfs/fps
432211-14 09:18:06.630 278-278/? D/SurfaceFlinger: FPS : 60.19
432311-14 09:18:06.630 278-278/? W/SurfaceFlinger: Fail to Open /sys/devices/platform/gpusysfs/fps
432411-14 09:18:06.640 278-278/? D/SurfaceFlinger: FPS : 60.19
432511-14 09:18:06.640 278-278/? W/SurfaceFlinger: Fail to Open /sys/devices/platform/gpusysfs/fps
432611-14 09:18:06.660 278-278/? D/SurfaceFlinger: FPS : 60.19
432711-14 09:18:06.660 278-278/? W/SurfaceFlinger: Fail to Open /sys/devices/platform/gpusysfs/fps
432811-14 09:18:06.680 278-278/? D/SurfaceFlinger: FPS : 60.19
432911-14 09:18:06.680 278-278/? W/SurfaceFlinger: Fail to Open /sys/devices/platform/gpusysfs/fps
433011-14 09:18:06.690 278-278/? D/SurfaceFlinger: FPS : 60.19
433111-14 09:18:06.690 278-278/? W/SurfaceFlinger: Fail to Open /sys/devices/platform/gpusysfs/fps
433211-14 09:18:06.710 278-278/? D/SurfaceFlinger: FPS : 60.19
433311-14 09:18:06.710 278-278/? W/SurfaceFlinger: Fail to Open /sys/devices/platform/gpusysfs/fps
433411-14 09:18:06.730 278-278/? D/SurfaceFlinger: FPS : 60.19
433511-14 09:18:06.730 278-278/? W/SurfaceFlinger: Fail to Open /sys/devices/platform/gpusysfs/fps
433611-14 09:18:06.740 278-278/? D/SurfaceFlinger: FPS : 60.19
433711-14 09:18:06.740 278-278/? W/SurfaceFlinger: Fail to Open /sys/devices/platform/gpusysfs/fps
433811-14 09:18:06.760 278-278/? D/SurfaceFlinger: FPS : 60.19
433911-14 09:18:06.760 278-278/? W/SurfaceFlinger: Fail to Open /sys/devices/platform/gpusysfs/fps
434011-14 09:18:06.780 278-278/? D/SurfaceFlinger: FPS : 60.19
434111-14 09:18:06.780 278-278/? W/SurfaceFlinger: Fail to Open /sys/devices/platform/gpusysfs/fps
434211-14 09:18:06.790 278-278/? D/SurfaceFlinger: FPS : 60.19
434311-14 09:18:06.790 278-278/? W/SurfaceFlinger: Fail to Open /sys/devices/platform/gpusysfs/fps
434411-14 09:18:06.810 278-278/? D/SurfaceFlinger: FPS : 60.19
434511-14 09:18:06.810 278-278/? W/SurfaceFlinger: Fail to Open /sys/devices/platform/gpusysfs/fps
434611-14 09:18:06.820 278-278/? D/SurfaceFlinger: FPS : 60.19
434711-14 09:18:06.820 278-278/? W/SurfaceFlinger: Fail to Open /sys/devices/platform/gpusysfs/fps
434811-14 09:18:06.840 278-278/? D/SurfaceFlinger: FPS : 59.79
434911-14 09:18:06.840 278-278/? W/SurfaceFlinger: Fail to Open /sys/devices/platform/gpusysfs/fps
435011-14 09:18:06.860 278-278/? D/SurfaceFlinger: FPS : 59.79
435111-14 09:18:06.860 278-278/? W/SurfaceFlinger: Fail to Open /sys/devices/platform/gpusysfs/fps
435211-14 09:18:06.870 278-278/? D/SurfaceFlinger: FPS : 59.79
435311-14 09:18:06.870 278-278/? W/SurfaceFlinger: Fail to Open /sys/devices/platform/gpusysfs/fps
435411-14 09:18:06.890 278-278/? D/SurfaceFlinger: FPS : 59.79
435511-14 09:18:06.890 278-278/? W/SurfaceFlinger: Fail to Open /sys/devices/platform/gpusysfs/fps
435611-14 09:18:06.910 278-278/? D/SurfaceFlinger: FPS : 59.79
435711-14 09:18:06.910 278-278/? W/SurfaceFlinger: Fail to Open /sys/devices/platform/gpusysfs/fps
435811-14 09:18:06.920 278-278/? D/SurfaceFlinger: FPS : 59.79
435911-14 09:18:06.920 278-278/? W/SurfaceFlinger: Fail to Open /sys/devices/platform/gpusysfs/fps
436011-14 09:18:06.940 278-278/? D/SurfaceFlinger: FPS : 59.79
436111-14 09:18:06.940 278-278/? W/SurfaceFlinger: Fail to Open /sys/devices/platform/gpusysfs/fps
436211-14 09:18:06.960 278-278/? D/SurfaceFlinger: FPS : 59.79
436311-14 09:18:06.960 278-278/? W/SurfaceFlinger: Fail to Open /sys/devices/platform/gpusysfs/fps
436411-14 09:18:06.970 278-278/? D/SurfaceFlinger: FPS : 59.79
436511-14 09:18:06.970 278-278/? W/SurfaceFlinger: Fail to Open /sys/devices/platform/gpusysfs/fps
436611-14 09:18:06.990 278-278/? D/SurfaceFlinger: FPS : 59.79
436711-14 09:18:06.990 278-278/? W/SurfaceFlinger: Fail to Open /sys/devices/platform/gpusysfs/fps
436811-14 09:18:07.010 278-278/? D/SurfaceFlinger: FPS : 59.79
436911-14 09:18:07.010 278-278/? W/SurfaceFlinger: Fail to Open /sys/devices/platform/gpusysfs/fps
437011-14 09:18:07.020 278-278/? D/SurfaceFlinger: FPS : 59.79
437111-14 09:18:07.020 278-278/? W/SurfaceFlinger: Fail to Open /sys/devices/platform/gpusysfs/fps
437211-14 09:18:07.040 278-278/? D/SurfaceFlinger: FPS : 59.79
437311-14 09:18:07.040 278-278/? W/SurfaceFlinger: Fail to Open /sys/devices/platform/gpusysfs/fps
437411-14 09:18:07.060 278-278/? D/SurfaceFlinger: FPS : 59.79
437511-14 09:18:07.060 278-278/? W/SurfaceFlinger: Fail to Open /sys/devices/platform/gpusysfs/fps
437611-14 09:18:07.070 278-278/? D/SurfaceFlinger: FPS : 59.79
437711-14 09:18:07.070 278-278/? W/SurfaceFlinger: Fail to Open /sys/devices/platform/gpusysfs/fps
437811-14 09:18:07.090 278-278/? D/SurfaceFlinger: FPS : 59.79
437911-14 09:18:07.090 278-278/? W/SurfaceFlinger: Fail to Open /sys/devices/platform/gpusysfs/fps
438011-14 09:18:07.110 278-278/? D/SurfaceFlinger: FPS : 60.53
438111-14 09:18:07.110 278-278/? W/SurfaceFlinger: Fail to Open /sys/devices/platform/gpusysfs/fps
438211-14 09:18:07.120 278-278/? D/SurfaceFlinger: FPS : 60.53
438311-14 09:18:07.120 278-278/? W/SurfaceFlinger: Fail to Open /sys/devices/platform/gpusysfs/fps
438411-14 09:18:07.140 278-278/? D/SurfaceFlinger: FPS : 60.53
438511-14 09:18:07.140 278-278/? W/SurfaceFlinger: Fail to Open /sys/devices/platform/gpusysfs/fps
438611-14 09:18:07.160 278-278/? D/SurfaceFlinger: FPS : 60.53
438711-14 09:18:07.160 278-278/? W/SurfaceFlinger: Fail to Open /sys/devices/platform/gpusysfs/fps
438811-14 09:18:07.170 278-278/? D/SurfaceFlinger: FPS : 60.53
438911-14 09:18:07.170 278-278/? W/SurfaceFlinger: Fail to Open /sys/devices/platform/gpusysfs/fps
439011-14 09:18:07.190 278-278/? D/SurfaceFlinger: FPS : 60.53
439111-14 09:18:07.190 278-278/? W/SurfaceFlinger: Fail to Open /sys/devices/platform/gpusysfs/fps
439211-14 09:18:07.211 278-278/? D/SurfaceFlinger: FPS : 60.53
439311-14 09:18:07.211 278-278/? W/SurfaceFlinger: Fail to Open /sys/devices/platform/gpusysfs/fps
439411-14 09:18:07.241 278-278/? D/SurfaceFlinger: FPS : 60.53
439511-14 09:18:07.241 278-278/? W/SurfaceFlinger: Fail to Open /sys/devices/platform/gpusysfs/fps
439611-14 09:18:07.261 278-278/? D/SurfaceFlinger: FPS : 60.53
439711-14 09:18:07.261 278-278/? W/SurfaceFlinger: Fail to Open /sys/devices/platform/gpusysfs/fps
439811-14 09:18:07.271 278-278/? D/SurfaceFlinger: FPS : 60.53
439911-14 09:18:07.271 278-278/? W/SurfaceFlinger: Fail to Open /sys/devices/platform/gpusysfs/fps
440011-14 09:18:07.291 278-278/? D/SurfaceFlinger: FPS : 60.53
440111-14 09:18:07.291 278-278/? W/SurfaceFlinger: Fail to Open /sys/devices/platform/gpusysfs/fps
440211-14 09:18:07.311 278-278/? D/SurfaceFlinger: FPS : 60.53
440311-14 09:18:07.311 278-278/? W/SurfaceFlinger: Fail to Open /sys/devices/platform/gpusysfs/fps
440411-14 09:18:07.331 278-278/? D/SurfaceFlinger: FPS : 60.53
440511-14 09:18:07.331 278-278/? W/SurfaceFlinger: Fail to Open /sys/devices/platform/gpusysfs/fps
440611-14 09:18:07.361 278-278/? D/SurfaceFlinger: FPS : 51.38
440711-14 09:18:07.361 278-278/? W/SurfaceFlinger: Fail to Open /sys/devices/platform/gpusysfs/fps
440811-14 09:18:07.391 278-278/? D/SurfaceFlinger: FPS : 51.38
440911-14 09:18:07.391 278-278/? W/SurfaceFlinger: Fail to Open /sys/devices/platform/gpusysfs/fps
441011-14 09:18:07.411 278-278/? D/SurfaceFlinger: FPS : 51.38
441111-14 09:18:07.411 278-278/? W/SurfaceFlinger: Fail to Open /sys/devices/platform/gpusysfs/fps
441211-14 09:18:07.421 278-278/? D/SurfaceFlinger: FPS : 51.38
441311-14 09:18:07.421 278-278/? W/SurfaceFlinger: Fail to Open /sys/devices/platform/gpusysfs/fps
441411-14 09:18:07.441 278-278/? D/SurfaceFlinger: FPS : 51.38
441511-14 09:18:07.441 278-278/? W/SurfaceFlinger: Fail to Open /sys/devices/platform/gpusysfs/fps
441611-14 09:18:07.461 278-278/? D/SurfaceFlinger: FPS : 51.38
441711-14 09:18:07.461 278-278/? W/SurfaceFlinger: Fail to Open /sys/devices/platform/gpusysfs/fps
441811-14 09:18:07.471 278-278/? D/SurfaceFlinger: FPS : 51.38
441911-14 09:18:07.471 278-278/? W/SurfaceFlinger: Fail to Open /sys/devices/platform/gpusysfs/fps
442011-14 09:18:07.491 278-278/? D/SurfaceFlinger: FPS : 51.38
442111-14 09:18:07.491 278-278/? W/SurfaceFlinger: Fail to Open /sys/devices/platform/gpusysfs/fps
442211-14 09:18:07.511 278-278/? D/SurfaceFlinger: FPS : 51.38
442311-14 09:18:07.511 278-278/? W/SurfaceFlinger: Fail to Open /sys/devices/platform/gpusysfs/fps
442411-14 09:18:07.521 278-278/? D/SurfaceFlinger: FPS : 51.38
442511-14 09:18:07.521 278-278/? W/SurfaceFlinger: Fail to Open /sys/devices/platform/gpusysfs/fps
442611-14 09:18:07.541 278-278/? D/SurfaceFlinger: FPS : 51.38
442711-14 09:18:07.541 278-278/? W/SurfaceFlinger: Fail to Open /sys/devices/platform/gpusysfs/fps
442811-14 09:18:07.561 278-278/? D/SurfaceFlinger: FPS : 51.38
442911-14 09:18:07.561 278-278/? W/SurfaceFlinger: Fail to Open /sys/devices/platform/gpusysfs/fps
443011-14 09:18:07.571 278-278/? D/SurfaceFlinger: FPS : 51.38
443111-14 09:18:07.571 278-278/? W/SurfaceFlinger: Fail to Open /sys/devices/platform/gpusysfs/fps
443211-14 09:18:07.601 25131-25131/? E/SMD: smd Interface open failed errno is 2 -1
443311-14 09:18:07.611 278-278/? D/SurfaceFlinger: FPS : 51.38
443411-14 09:18:07.611 278-278/? W/SurfaceFlinger: Fail to Open /sys/devices/platform/gpusysfs/fps
443511-14 09:18:07.621 278-278/? D/SurfaceFlinger: FPS : 53.22
443611-14 09:18:07.621 278-278/? W/SurfaceFlinger: Fail to Open /sys/devices/platform/gpusysfs/fps
443711-14 09:18:07.641 278-278/? D/SurfaceFlinger: FPS : 53.22
443811-14 09:18:07.641 278-278/? W/SurfaceFlinger: Fail to Open /sys/devices/platform/gpusysfs/fps
443911-14 09:18:07.661 278-278/? D/SurfaceFlinger: FPS : 53.22
444011-14 09:18:07.661 278-278/? W/SurfaceFlinger: Fail to Open /sys/devices/platform/gpusysfs/fps
444111-14 09:18:07.671 278-278/? D/SurfaceFlinger: FPS : 53.22
444211-14 09:18:07.671 278-278/? W/SurfaceFlinger: Fail to Open /sys/devices/platform/gpusysfs/fps
444311-14 09:18:07.691 278-278/? D/SurfaceFlinger: FPS : 53.22
444411-14 09:18:07.691 278-278/? W/SurfaceFlinger: Fail to Open /sys/devices/platform/gpusysfs/fps
444511-14 09:18:07.711 278-278/? D/SurfaceFlinger: FPS : 53.22
444611-14 09:18:07.711 278-278/? W/SurfaceFlinger: Fail to Open /sys/devices/platform/gpusysfs/fps
444711-14 09:18:07.721 278-278/? D/SurfaceFlinger: FPS : 53.22
444811-14 09:18:07.721 278-278/? W/SurfaceFlinger: Fail to Open /sys/devices/platform/gpusysfs/fps
444911-14 09:18:07.741 278-278/? D/SurfaceFlinger: FPS : 53.22
445011-14 09:18:07.741 278-278/? W/SurfaceFlinger: Fail to Open /sys/devices/platform/gpusysfs/fps
445111-14 09:18:07.761 278-278/? D/SurfaceFlinger: FPS : 53.22
445211-14 09:18:07.761 278-278/? W/SurfaceFlinger: Fail to Open /sys/devices/platform/gpusysfs/fps
445311-14 09:18:07.771 278-278/? D/SurfaceFlinger: FPS : 53.22
445411-14 09:18:07.771 278-278/? W/SurfaceFlinger: Fail to Open /sys/devices/platform/gpusysfs/fps
445511-14 09:18:07.791 278-278/? D/SurfaceFlinger: FPS : 53.22
445611-14 09:18:07.791 278-278/? W/SurfaceFlinger: Fail to Open /sys/devices/platform/gpusysfs/fps
445711-14 09:18:07.811 278-278/? D/SurfaceFlinger: FPS : 53.22
445811-14 09:18:07.811 278-278/? W/SurfaceFlinger: Fail to Open /sys/devices/platform/gpusysfs/fps
445911-14 09:18:07.821 278-278/? D/SurfaceFlinger: FPS : 53.22
446011-14 09:18:07.821 278-278/? W/SurfaceFlinger: Fail to Open /sys/devices/platform/gpusysfs/fps
446111-14 09:18:07.841 278-278/? D/SurfaceFlinger: FPS : 53.22
446211-14 09:18:07.841 278-278/? W/SurfaceFlinger: Fail to Open /sys/devices/platform/gpusysfs/fps
446311-14 09:18:07.861 278-278/? D/SurfaceFlinger: FPS : 53.22
446411-14 09:18:07.861 278-278/? W/SurfaceFlinger: Fail to Open /sys/devices/platform/gpusysfs/fps
446511-14 09:18:07.871 278-278/? D/SurfaceFlinger: FPS : 53.22
446611-14 09:18:07.871 278-278/? W/SurfaceFlinger: Fail to Open /sys/devices/platform/gpusysfs/fps
446711-14 09:18:07.891 278-278/? D/SurfaceFlinger: FPS : 60.33
446811-14 09:18:07.891 278-278/? W/SurfaceFlinger: Fail to Open /sys/devices/platform/gpusysfs/fps
446911-14 09:18:07.921 278-278/? D/SurfaceFlinger: FPS : 60.33
447011-14 09:18:07.921 278-278/? W/SurfaceFlinger: Fail to Open /sys/devices/platform/gpusysfs/fps
447111-14 09:18:07.941 278-278/? D/SurfaceFlinger: FPS : 60.33
447211-14 09:18:07.941 278-278/? W/SurfaceFlinger: Fail to Open /sys/devices/platform/gpusysfs/fps
447311-14 09:18:07.961 278-278/? D/SurfaceFlinger: FPS : 60.33
447411-14 09:18:07.961 278-278/? W/SurfaceFlinger: Fail to Open /sys/devices/platform/gpusysfs/fps
447511-14 09:18:07.971 25228-25228/? E/Diag_Lib:  Diag_LSM_Init: Failed to open handle to diag driver, error = 2
447611-14 09:18:07.991 278-278/? D/SurfaceFlinger: FPS : 60.33
447711-14 09:18:07.991 278-278/? W/SurfaceFlinger: Fail to Open /sys/devices/platform/gpusysfs/fps
447811-14 09:18:08.011 278-278/? D/SurfaceFlinger: FPS : 60.33
447911-14 09:18:08.011 278-278/? W/SurfaceFlinger: Fail to Open /sys/devices/platform/gpusysfs/fps
448011-14 09:18:08.021 278-278/? D/SurfaceFlinger: FPS : 60.33
448111-14 09:18:08.021 278-278/? W/SurfaceFlinger: Fail to Open /sys/devices/platform/gpusysfs/fps
448211-14 09:18:08.041 278-278/? D/SurfaceFlinger: FPS : 60.33
448311-14 09:18:08.041 278-278/? W/SurfaceFlinger: Fail to Open /sys/devices/platform/gpusysfs/fps
448411-14 09:18:08.061 278-278/? D/SurfaceFlinger: FPS : 60.33
448511-14 09:18:08.061 278-278/? W/SurfaceFlinger: Fail to Open /sys/devices/platform/gpusysfs/fps
448611-14 09:18:08.071 278-278/? D/SurfaceFlinger: FPS : 60.33
448711-14 09:18:08.071 278-278/? W/SurfaceFlinger: Fail to Open /sys/devices/platform/gpusysfs/fps
448811-14 09:18:08.091 278-278/? D/SurfaceFlinger: FPS : 60.33
448911-14 09:18:08.091 278-278/? W/SurfaceFlinger: Fail to Open /sys/devices/platform/gpusysfs/fps
449011-14 09:18:08.101 278-278/? D/SurfaceFlinger: FPS : 60.33
449111-14 09:18:08.111 278-278/? W/SurfaceFlinger: Fail to Open /sys/devices/platform/gpusysfs/fps
449211-14 09:18:08.121 278-278/? D/SurfaceFlinger: FPS : 60.33
449311-14 09:18:08.121 278-278/? W/SurfaceFlinger: Fail to Open /sys/devices/platform/gpusysfs/fps
449411-14 09:18:08.141 278-278/? D/SurfaceFlinger: FPS : 60.33
449511-14 09:18:08.141 278-278/? W/SurfaceFlinger: Fail to Open /sys/devices/platform/gpusysfs/fps
449611-14 09:18:08.151 278-278/? D/SurfaceFlinger: FPS : 52.64
449711-14 09:18:08.161 278-278/? W/SurfaceFlinger: Fail to Open /sys/devices/platform/gpusysfs/fps
449811-14 09:18:08.171 278-278/? D/SurfaceFlinger: FPS : 52.64
449911-14 09:18:08.171 278-278/? W/SurfaceFlinger: Fail to Open /sys/devices/platform/gpusysfs/fps
450011-14 09:18:08.191 278-278/? D/SurfaceFlinger: FPS : 52.64
450111-14 09:18:08.191 278-278/? W/SurfaceFlinger: Fail to Open /sys/devices/platform/gpusysfs/fps
450211-14 09:18:08.201 278-278/? D/SurfaceFlinger: FPS : 52.64
450311-14 09:18:08.211 278-278/? W/SurfaceFlinger: Fail to Open /sys/devices/platform/gpusysfs/fps
450411-14 09:18:08.221 278-278/? D/SurfaceFlinger: FPS : 52.64
450511-14 09:18:08.221 278-278/? W/SurfaceFlinger: Fail to Open /sys/devices/platform/gpusysfs/fps
450611-14 09:18:08.242 278-278/? D/SurfaceFlinger: FPS : 52.64
450711-14 09:18:08.242 278-278/? W/SurfaceFlinger: Fail to Open /sys/devices/platform/gpusysfs/fps
450811-14 09:18:08.252 278-278/? D/SurfaceFlinger: FPS : 52.64
450911-14 09:18:08.252 278-278/? W/SurfaceFlinger: Fail to Open /sys/devices/platform/gpusysfs/fps
451011-14 09:18:08.272 278-278/? D/SurfaceFlinger: FPS : 52.64
451111-14 09:18:08.272 278-278/? W/SurfaceFlinger: Fail to Open /sys/devices/platform/gpusysfs/fps
451211-14 09:18:08.292 278-278/? D/SurfaceFlinger: FPS : 52.64
451311-14 09:18:08.292 278-278/? W/SurfaceFlinger: Fail to Open /sys/devices/platform/gpusysfs/fps
451411-14 09:18:08.302 278-278/? D/SurfaceFlinger: FPS : 52.64
451511-14 09:18:08.302 278-278/? W/SurfaceFlinger: Fail to Open /sys/devices/platform/gpusysfs/fps
451611-14 09:18:08.322 278-278/? D/SurfaceFlinger: FPS : 52.64
451711-14 09:18:08.322 278-278/? W/SurfaceFlinger: Fail to Open /sys/devices/platform/gpusysfs/fps
451811-14 09:18:08.342 278-278/? D/SurfaceFlinger: FPS : 52.64
451911-14 09:18:08.342 278-278/? W/SurfaceFlinger: Fail to Open /sys/devices/platform/gpusysfs/fps
452011-14 09:18:08.352 278-278/? D/SurfaceFlinger: FPS : 52.64
452111-14 09:18:08.352 278-278/? W/SurfaceFlinger: Fail to Open /sys/devices/platform/gpusysfs/fps
452211-14 09:18:08.372 278-278/? D/SurfaceFlinger: FPS : 52.64
452311-14 09:18:08.372 278-278/? W/SurfaceFlinger: Fail to Open /sys/devices/platform/gpusysfs/fps
452411-14 09:18:08.392 278-278/? D/SurfaceFlinger: FPS : 52.64
452511-14 09:18:08.392 278-278/? W/SurfaceFlinger: Fail to Open /sys/devices/platform/gpusysfs/fps
452611-14 09:18:08.402 278-278/? D/SurfaceFlinger: FPS : 52.64
452711-14 09:18:08.402 278-278/? W/SurfaceFlinger: Fail to Open /sys/devices/platform/gpusysfs/fps
452811-14 09:18:08.422 278-278/? D/SurfaceFlinger: FPS : 60.05
452911-14 09:18:08.422 278-278/? W/SurfaceFlinger: Fail to Open /sys/devices/platform/gpusysfs/fps
453011-14 09:18:08.442 278-278/? D/SurfaceFlinger: FPS : 60.05
453111-14 09:18:08.442 278-278/? W/SurfaceFlinger: Fail to Open /sys/devices/platform/gpusysfs/fps
453211-14 09:18:08.452 278-278/? D/SurfaceFlinger: FPS : 60.05
453311-14 09:18:08.452 278-278/? W/SurfaceFlinger: Fail to Open /sys/devices/platform/gpusysfs/fps
453411-14 09:18:08.472 278-278/? D/SurfaceFlinger: FPS : 60.05
453511-14 09:18:08.472 278-278/? W/SurfaceFlinger: Fail to Open /sys/devices/platform/gpusysfs/fps
453611-14 09:18:08.492 278-278/? D/SurfaceFlinger: FPS : 60.05
453711-14 09:18:08.492 278-278/? W/SurfaceFlinger: Fail to Open /sys/devices/platform/gpusysfs/fps
453811-14 09:18:08.502 278-278/? D/SurfaceFlinger: FPS : 60.05
453911-14 09:18:08.502 278-278/? W/SurfaceFlinger: Fail to Open /sys/devices/platform/gpusysfs/fps
454011-14 09:18:08.522 278-278/? D/SurfaceFlinger: FPS : 60.05
454111-14 09:18:08.522 278-278/? W/SurfaceFlinger: Fail to Open /sys/devices/platform/gpusysfs/fps
454211-14 09:18:08.542 278-278/? D/SurfaceFlinger: FPS : 60.05
454311-14 09:18:08.542 278-278/? W/SurfaceFlinger: Fail to Open /sys/devices/platform/gpusysfs/fps
454411-14 09:18:08.552 278-278/? D/SurfaceFlinger: FPS : 60.05
454511-14 09:18:08.552 278-278/? W/SurfaceFlinger: Fail to Open /sys/devices/platform/gpusysfs/fps
454611-14 09:18:08.572 278-278/? D/SurfaceFlinger: FPS : 60.05
454711-14 09:18:08.572 278-278/? W/SurfaceFlinger: Fail to Open /sys/devices/platform/gpusysfs/fps
454811-14 09:18:08.592 278-278/? D/SurfaceFlinger: FPS : 60.05
454911-14 09:18:08.592 278-278/? W/SurfaceFlinger: Fail to Open /sys/devices/platform/gpusysfs/fps
455011-14 09:18:08.602 25131-25131/? E/SMD: smd Interface open failed errno is 2 -1
455111-14 09:18:08.602 278-278/? D/SurfaceFlinger: FPS : 60.05
455211-14 09:18:08.602 278-278/? W/SurfaceFlinger: Fail to Open /sys/devices/platform/gpusysfs/fps
455311-14 09:18:08.622 278-278/? D/SurfaceFlinger: FPS : 60.05
455411-14 09:18:08.622 278-278/? W/SurfaceFlinger: Fail to Open /sys/devices/platform/gpusysfs/fps
455511-14 09:18:08.642 278-278/? D/SurfaceFlinger: FPS : 60.05
455611-14 09:18:08.642 278-278/? W/SurfaceFlinger: Fail to Open /sys/devices/platform/gpusysfs/fps
455711-14 09:18:08.652 278-278/? D/SurfaceFlinger: FPS : 60.05
455811-14 09:18:08.652 278-278/? W/SurfaceFlinger: Fail to Open /sys/devices/platform/gpusysfs/fps
455911-14 09:18:08.672 278-278/? D/SurfaceFlinger: FPS : 60.05
456011-14 09:18:08.672 278-278/? W/SurfaceFlinger: Fail to Open /sys/devices/platform/gpusysfs/fps
456111-14 09:18:08.692 278-278/? D/SurfaceFlinger: FPS : 60.28
456211-14 09:18:08.692 278-278/? W/SurfaceFlinger: Fail to Open /sys/devices/platform/gpusysfs/fps
456311-14 09:18:08.702 278-278/? D/SurfaceFlinger: FPS : 60.28
456411-14 09:18:08.702 278-278/? W/SurfaceFlinger: Fail to Open /sys/devices/platform/gpusysfs/fps
456511-14 09:18:08.722 278-278/? D/SurfaceFlinger: FPS : 60.28
456611-14 09:18:08.722 278-278/? W/SurfaceFlinger: Fail to Open /sys/devices/platform/gpusysfs/fps
456711-14 09:18:08.742 278-278/? D/SurfaceFlinger: FPS : 60.28
456811-14 09:18:08.742 278-278/? W/SurfaceFlinger: Fail to Open /sys/devices/platform/gpusysfs/fps
456911-14 09:18:08.752 278-278/? D/SurfaceFlinger: FPS : 60.28
457011-14 09:18:08.752 278-278/? W/SurfaceFlinger: Fail to Open /sys/devices/platform/gpusysfs/fps
457111-14 09:18:08.772 278-278/? D/SurfaceFlinger: FPS : 60.28
457211-14 09:18:08.772 278-278/? W/SurfaceFlinger: Fail to Open /sys/devices/platform/gpusysfs/fps
457311-14 09:18:08.792 278-278/? D/SurfaceFlinger: FPS : 60.28
457411-14 09:18:08.792 278-278/? W/SurfaceFlinger: Fail to Open /sys/devices/platform/gpusysfs/fps
457511-14 09:18:08.802 278-278/? D/SurfaceFlinger: FPS : 60.28
457611-14 09:18:08.802 278-278/? W/SurfaceFlinger: Fail to Open /sys/devices/platform/gpusysfs/fps
457711-14 09:18:08.822 278-278/? D/SurfaceFlinger: FPS : 60.28
457811-14 09:18:08.822 278-278/? W/SurfaceFlinger: Fail to Open /sys/devices/platform/gpusysfs/fps
457911-14 09:18:08.842 278-278/? D/SurfaceFlinger: FPS : 60.28
458011-14 09:18:08.842 278-278/? W/SurfaceFlinger: Fail to Open /sys/devices/platform/gpusysfs/fps
458111-14 09:18:08.852 278-278/? D/SurfaceFlinger: FPS : 60.28
458211-14 09:18:08.852 278-278/? W/SurfaceFlinger: Fail to Open /sys/devices/platform/gpusysfs/fps
458311-14 09:18:08.872 278-278/? D/SurfaceFlinger: FPS : 60.28
458411-14 09:18:08.872 278-278/? W/SurfaceFlinger: Fail to Open /sys/devices/platform/gpusysfs/fps
458511-14 09:18:08.892 278-278/? D/SurfaceFlinger: FPS : 60.28
458611-14 09:18:08.892 278-278/? W/SurfaceFlinger: Fail to Open /sys/devices/platform/gpusysfs/fps
458711-14 09:18:08.902 278-278/? D/SurfaceFlinger: FPS : 60.28
458811-14 09:18:08.902 278-278/? W/SurfaceFlinger: Fail to Open /sys/devices/platform/gpusysfs/fps
458911-14 09:18:08.922 278-278/? D/SurfaceFlinger: FPS : 60.28
459011-14 09:18:08.922 278-278/? W/SurfaceFlinger: Fail to Open /sys/devices/platform/gpusysfs/fps
459111-14 09:18:08.942 278-278/? D/SurfaceFlinger: FPS : 60.28
459211-14 09:18:08.942 278-278/? W/SurfaceFlinger: Fail to Open /sys/devices/platform/gpusysfs/fps
459311-14 09:18:08.952 278-278/? D/SurfaceFlinger: FPS : 60.17
459411-14 09:18:08.952 278-278/? W/SurfaceFlinger: Fail to Open /sys/devices/platform/gpusysfs/fps
459511-14 09:18:08.972 278-278/? D/SurfaceFlinger: FPS : 60.17
459611-14 09:18:08.972 278-278/? W/SurfaceFlinger: Fail to Open /sys/devices/platform/gpusysfs/fps
459711-14 09:18:08.992 278-278/? D/SurfaceFlinger: FPS : 60.17
459811-14 09:18:08.992 278-278/? W/SurfaceFlinger: Fail to Open /sys/devices/platform/gpusysfs/fps
459911-14 09:18:09.002 278-278/? D/SurfaceFlinger: FPS : 60.17
460011-14 09:18:09.002 278-278/? W/SurfaceFlinger: Fail to Open /sys/devices/platform/gpusysfs/fps
460111-14 09:18:09.022 278-278/? D/SurfaceFlinger: FPS : 60.17
460211-14 09:18:09.022 278-278/? W/SurfaceFlinger: Fail to Open /sys/devices/platform/gpusysfs/fps
460311-14 09:18:09.042 278-278/? D/SurfaceFlinger: FPS : 60.17
460411-14 09:18:09.042 278-278/? W/SurfaceFlinger: Fail to Open /sys/devices/platform/gpusysfs/fps
460511-14 09:18:09.052 278-278/? D/SurfaceFlinger: FPS : 60.17
460611-14 09:18:09.052 278-278/? W/SurfaceFlinger: Fail to Open /sys/devices/platform/gpusysfs/fps
460711-14 09:18:09.072 278-278/? D/SurfaceFlinger: FPS : 60.17
460811-14 09:18:09.072 278-278/? W/SurfaceFlinger: Fail to Open /sys/devices/platform/gpusysfs/fps
460911-14 09:18:09.092 278-278/? D/SurfaceFlinger: FPS : 60.17
461011-14 09:18:09.092 278-278/? W/SurfaceFlinger: Fail to Open /sys/devices/platform/gpusysfs/fps
461111-14 09:18:09.102 278-278/? D/SurfaceFlinger: FPS : 60.17
461211-14 09:18:09.102 278-278/? W/SurfaceFlinger: Fail to Open /sys/devices/platform/gpusysfs/fps
461311-14 09:18:09.122 278-278/? D/SurfaceFlinger: FPS : 60.17
461411-14 09:18:09.122 278-278/? W/SurfaceFlinger: Fail to Open /sys/devices/platform/gpusysfs/fps
461511-14 09:18:09.142 278-278/? D/SurfaceFlinger: FPS : 60.17
461611-14 09:18:09.142 278-278/? W/SurfaceFlinger: Fail to Open /sys/devices/platform/gpusysfs/fps
461711-14 09:18:09.152 278-278/? D/SurfaceFlinger: FPS : 60.17
461811-14 09:18:09.152 278-278/? W/SurfaceFlinger: Fail to Open /sys/devices/platform/gpusysfs/fps
461911-14 09:18:09.172 278-278/? D/SurfaceFlinger: FPS : 60.17
462011-14 09:18:09.172 278-278/? W/SurfaceFlinger: Fail to Open /sys/devices/platform/gpusysfs/fps
462111-14 09:18:09.192 278-278/? D/SurfaceFlinger: FPS : 60.17
462211-14 09:18:09.192 278-278/? W/SurfaceFlinger: Fail to Open /sys/devices/platform/gpusysfs/fps
462311-14 09:18:09.202 278-278/? D/SurfaceFlinger: FPS : 60.17
462411-14 09:18:09.202 278-278/? W/SurfaceFlinger: Fail to Open /sys/devices/platform/gpusysfs/fps
462511-14 09:18:09.222 278-278/? D/SurfaceFlinger: FPS : 60.17
462611-14 09:18:09.222 278-278/? W/SurfaceFlinger: Fail to Open /sys/devices/platform/gpusysfs/fps
462711-14 09:18:09.232 278-278/? D/SurfaceFlinger: FPS : 60.17
462811-14 09:18:09.242 278-278/? W/SurfaceFlinger: Fail to Open /sys/devices/platform/gpusysfs/fps
462911-14 09:18:09.252 278-278/? D/SurfaceFlinger: FPS : 60.17
463011-14 09:18:09.252 278-278/? W/SurfaceFlinger: Fail to Open /sys/devices/platform/gpusysfs/fps
463111-14 09:18:09.273 278-278/? D/SurfaceFlinger: FPS : 60.17
463211-14 09:18:09.273 278-278/? W/SurfaceFlinger: Fail to Open /sys/devices/platform/gpusysfs/fps
463311-14 09:18:09.283 278-278/? D/SurfaceFlinger: FPS : 60.17
463411-14 09:18:09.293 278-278/? W/SurfaceFlinger: Fail to Open /sys/devices/platform/gpusysfs/fps
463511-14 09:18:09.303 278-278/? D/SurfaceFlinger: FPS : 60.17
463611-14 09:18:09.303 278-278/? W/SurfaceFlinger: Fail to Open /sys/devices/platform/gpusysfs/fps
463711-14 09:18:09.323 278-278/? D/SurfaceFlinger: FPS : 60.17
463811-14 09:18:09.323 278-278/? W/SurfaceFlinger: Fail to Open /sys/devices/platform/gpusysfs/fps
463911-14 09:18:09.333 1263-1263/? D/StatusBar.NetworkController: refreshViews connected={ wifi } level=2 combinedSignalIconId=0x7f020517/com.android.systemui:drawable/stat_sys_wifi_signal_4 mobileLabel=Emergency calls only wifiLabel="Badger"xxxxXXXXxxxxXXXX emergencyOnly=true combinedLabel="Badger"xxxxXXXXxxxxXXXX mAirplaneMode=false mDataActivity=0 mPhoneSignalIconId=0x7f020466/com.android.systemui:drawable/stat_sys_signal_2_auto_rotate mQSPhoneSignalIconId=0x7f02012a/com.android.systemui:drawable/ic_qs_signal_2 mDataDirectionIconId=0x0/(null) mDataSignalIconId=0x7f020466/com.android.systemui:drawable/stat_sys_signal_2_auto_rotate mDataTypeIconId=0x0/(null) mQSDataTypeIconId=0x0/(null) mNoSimIconId=0x0/(null) mWifiIconId=0x7f020517/com.android.systemui:drawable/stat_sys_wifi_signal_4 mQSWifiIconId=0x7f020143/com.android.systemui:drawable/ic_qs_wifi_4 mWifiActivityIconId=0x7f0204e6/com.android.systemui:drawable/stat_sys_signal_in mBluetoothTetherIconId=0x10808cc/android:drawable/stat_sys_tether_bluetooth
464011-14 09:18:09.333 1263-1263/? D/STATUSBAR-WifiQuickSettingButton: onWifiSignalChanged enabled=true enabledDesc:"Badger"
464111-14 09:18:09.333 1263-1263/? D/StatusBar.NetworkController: refreshSignalCluster - setNWBoosterIndicators(false)
464211-14 09:18:09.333 1263-1263/? D/StatusBar.NetworkController: applyOpen
464311-14 09:18:09.333 1263-1263/? D/StatusBar.NetworkController: refreshSignalCluster - setNWBoosterIndicators(false)
464411-14 09:18:09.333 1263-1263/? D/StatusBar.NetworkController: applyOpen
464511-14 09:18:09.333 1263-1263/? D/StatusBar.NetworkController: refreshSignalCluster - setNWBoosterIndicators(false)
464611-14 09:18:09.343 1263-1263/? D/StatusBar.NetworkController: applyOpen
464711-14 09:18:09.343 278-278/? D/SurfaceFlinger: FPS : 60.17
464811-14 09:18:09.343 278-278/? W/SurfaceFlinger: Fail to Open /sys/devices/platform/gpusysfs/fps
464911-14 09:18:09.343 1263-1263/? D/StatusBar.NetworkController: refreshSignalCluster - setNWBoosterIndicators(false)
465011-14 09:18:09.343 1263-1263/? D/StatusBar.NetworkController: applyOpen
465111-14 09:18:09.353 278-278/? D/SurfaceFlinger: FPS : 60.17
465211-14 09:18:09.353 278-278/? W/SurfaceFlinger: Fail to Open /sys/devices/platform/gpusysfs/fps
465311-14 09:18:09.373 278-278/? D/SurfaceFlinger: FPS : 60.17
465411-14 09:18:09.373 278-278/? W/SurfaceFlinger: Fail to Open /sys/devices/platform/gpusysfs/fps
465511-14 09:18:09.383 278-278/? D/SurfaceFlinger: FPS : 60.17
465611-14 09:18:09.383 278-278/? W/SurfaceFlinger: Fail to Open /sys/devices/platform/gpusysfs/fps
465711-14 09:18:09.403 278-278/? D/SurfaceFlinger: FPS : 60.17
465811-14 09:18:09.403 278-278/? W/SurfaceFlinger: Fail to Open /sys/devices/platform/gpusysfs/fps
465911-14 09:18:09.423 278-278/? D/SurfaceFlinger: FPS : 60.17
466011-14 09:18:09.423 278-278/? W/SurfaceFlinger: Fail to Open /sys/devices/platform/gpusysfs/fps
466111-14 09:18:09.433 278-278/? D/SurfaceFlinger: FPS : 60.17
466211-14 09:18:09.433 278-278/? W/SurfaceFlinger: Fail to Open /sys/devices/platform/gpusysfs/fps
466311-14 09:18:09.453 278-278/? D/SurfaceFlinger: FPS : 60.17
466411-14 09:18:09.453 278-278/? W/SurfaceFlinger: Fail to Open /sys/devices/platform/gpusysfs/fps
466511-14 09:18:09.473 278-278/? D/SurfaceFlinger: FPS : 58.86
466611-14 09:18:09.473 278-278/? W/SurfaceFlinger: Fail to Open /sys/devices/platform/gpusysfs/fps
466711-14 09:18:09.483 278-278/? D/SurfaceFlinger: FPS : 58.86
466811-14 09:18:09.483 278-278/? W/SurfaceFlinger: Fail to Open /sys/devices/platform/gpusysfs/fps
466911-14 09:18:09.503 278-278/? D/SurfaceFlinger: FPS : 58.86
467011-14 09:18:09.503 278-278/? W/SurfaceFlinger: Fail to Open /sys/devices/platform/gpusysfs/fps
467111-14 09:18:09.523 278-278/? D/SurfaceFlinger: FPS : 58.86
467211-14 09:18:09.523 278-278/? W/SurfaceFlinger: Fail to Open /sys/devices/platform/gpusysfs/fps
467311-14 09:18:09.533 278-278/? D/SurfaceFlinger: FPS : 58.86
467411-14 09:18:09.533 278-278/? W/SurfaceFlinger: Fail to Open /sys/devices/platform/gpusysfs/fps
467511-14 09:18:09.553 278-278/? D/SurfaceFlinger: FPS : 58.86
467611-14 09:18:09.553 278-278/? W/SurfaceFlinger: Fail to Open /sys/devices/platform/gpusysfs/fps
467711-14 09:18:09.573 278-278/? D/SurfaceFlinger: FPS : 58.86
467811-14 09:18:09.573 278-278/? W/SurfaceFlinger: Fail to Open /sys/devices/platform/gpusysfs/fps
467911-14 09:18:09.583 278-278/? D/SurfaceFlinger: FPS : 58.86
468011-14 09:18:09.583 278-278/? W/SurfaceFlinger: Fail to Open /sys/devices/platform/gpusysfs/fps
468111-14 09:18:09.603 25131-25131/? E/SMD: smd Interface open failed errno is 2 -1
468211-14 09:18:09.603 278-278/? D/SurfaceFlinger: FPS : 58.86
468311-14 09:18:09.603 278-278/? W/SurfaceFlinger: Fail to Open /sys/devices/platform/gpusysfs/fps
468411-14 09:18:09.623 278-278/? D/SurfaceFlinger: FPS : 58.86
468511-14 09:18:09.623 278-278/? W/SurfaceFlinger: Fail to Open /sys/devices/platform/gpusysfs/fps
468611-14 09:18:09.633 278-278/? D/SurfaceFlinger: FPS : 58.86
468711-14 09:18:09.633 278-278/? W/SurfaceFlinger: Fail to Open /sys/devices/platform/gpusysfs/fps
468811-14 09:18:09.653 278-278/? D/SurfaceFlinger: FPS : 58.86
468911-14 09:18:09.653 278-278/? W/SurfaceFlinger: Fail to Open /sys/devices/platform/gpusysfs/fps
469011-14 09:18:09.673 278-278/? D/SurfaceFlinger: FPS : 58.86
469111-14 09:18:09.673 278-278/? W/SurfaceFlinger: Fail to Open /sys/devices/platform/gpusysfs/fps
469211-14 09:18:09.683 278-278/? D/SurfaceFlinger: FPS : 58.86
469311-14 09:18:09.683 278-278/? W/SurfaceFlinger: Fail to Open /sys/devices/platform/gpusysfs/fps
469411-14 09:18:09.703 278-278/? D/SurfaceFlinger: FPS : 58.86
469511-14 09:18:09.703 278-278/? W/SurfaceFlinger: Fail to Open /sys/devices/platform/gpusysfs/fps
469611-14 09:18:09.723 278-278/? D/SurfaceFlinger: FPS : 58.86
469711-14 09:18:09.723 278-278/? W/SurfaceFlinger: Fail to Open /sys/devices/platform/gpusysfs/fps
469811-14 09:18:09.733 278-278/? D/SurfaceFlinger: FPS : 61.42
469911-14 09:18:09.733 278-278/? W/SurfaceFlinger: Fail to Open /sys/devices/platform/gpusysfs/fps
470011-14 09:18:09.753 278-278/? D/SurfaceFlinger: FPS : 61.42
470111-14 09:18:09.753 278-278/? W/SurfaceFlinger: Fail to Open /sys/devices/platform/gpusysfs/fps
470211-14 09:18:09.773 278-278/? D/SurfaceFlinger: FPS : 61.42
470311-14 09:18:09.773 278-278/? W/SurfaceFlinger: Fail to Open /sys/devices/platform/gpusysfs/fps
470411-14 09:18:09.783 278-278/? D/SurfaceFlinger: FPS : 61.42
470511-14 09:18:09.783 278-278/? W/SurfaceFlinger: Fail to Open /sys/devices/platform/gpusysfs/fps
470611-14 09:18:09.803 278-278/? D/SurfaceFlinger: FPS : 61.42
470711-14 09:18:09.803 278-278/? W/SurfaceFlinger: Fail to Open /sys/devices/platform/gpusysfs/fps
470811-14 09:18:09.823 278-278/? D/SurfaceFlinger: FPS : 61.42
470911-14 09:18:09.823 278-278/? W/SurfaceFlinger: Fail to Open /sys/devices/platform/gpusysfs/fps
471011-14 09:18:09.833 278-278/? D/SurfaceFlinger: FPS : 61.42
471111-14 09:18:09.833 278-278/? W/SurfaceFlinger: Fail to Open /sys/devices/platform/gpusysfs/fps
471211-14 09:18:09.853 278-278/? D/SurfaceFlinger: FPS : 61.42
471311-14 09:18:09.853 278-278/? W/SurfaceFlinger: Fail to Open /sys/devices/platform/gpusysfs/fps
471411-14 09:18:09.873 278-278/? D/SurfaceFlinger: FPS : 61.42
471511-14 09:18:09.873 278-278/? W/SurfaceFlinger: Fail to Open /sys/devices/platform/gpusysfs/fps
471611-14 09:18:09.883 278-278/? D/SurfaceFlinger: FPS : 61.42
471711-14 09:18:09.883 278-278/? W/SurfaceFlinger: Fail to Open /sys/devices/platform/gpusysfs/fps
471811-14 09:18:09.903 278-278/? D/SurfaceFlinger: FPS : 61.42
471911-14 09:18:09.903 278-278/? W/SurfaceFlinger: Fail to Open /sys/devices/platform/gpusysfs/fps
472011-14 09:18:09.923 278-278/? D/SurfaceFlinger: FPS : 61.42
472111-14 09:18:09.923 278-278/? W/SurfaceFlinger: Fail to Open /sys/devices/platform/gpusysfs/fps
472211-14 09:18:09.933 278-278/? D/SurfaceFlinger: FPS : 61.42
472311-14 09:18:09.933 278-278/? W/SurfaceFlinger: Fail to Open /sys/devices/platform/gpusysfs/fps
472411-14 09:18:09.953 278-278/? D/SurfaceFlinger: FPS : 61.42
472511-14 09:18:09.953 278-278/? W/SurfaceFlinger: Fail to Open /sys/devices/platform/gpusysfs/fps
472611-14 09:18:09.973 278-278/? D/SurfaceFlinger: FPS : 61.42
472711-14 09:18:09.973 278-278/? W/SurfaceFlinger: Fail to Open /sys/devices/platform/gpusysfs/fps
472811-14 09:18:09.983 278-278/? D/SurfaceFlinger: FPS : 61.42
472911-14 09:18:09.983 278-278/? W/SurfaceFlinger: Fail to Open /sys/devices/platform/gpusysfs/fps
473011-14 09:18:10.003 278-278/? D/SurfaceFlinger: FPS : 60.15
473111-14 09:18:10.003 278-278/? W/SurfaceFlinger: Fail to Open /sys/devices/platform/gpusysfs/fps
473211-14 09:18:10.023 278-278/? D/SurfaceFlinger: FPS : 60.15
473311-14 09:18:10.023 278-278/? W/SurfaceFlinger: Fail to Open /sys/devices/platform/gpusysfs/fps
473411-14 09:18:10.033 278-278/? D/SurfaceFlinger: FPS : 60.15
473511-14 09:18:10.033 278-278/? W/SurfaceFlinger: Fail to Open /sys/devices/platform/gpusysfs/fps
473611-14 09:18:10.053 278-278/? D/SurfaceFlinger: FPS : 60.15
473711-14 09:18:10.053 278-278/? W/SurfaceFlinger: Fail to Open /sys/devices/platform/gpusysfs/fps
473811-14 09:18:10.073 278-278/? D/SurfaceFlinger: FPS : 60.15
473911-14 09:18:10.073 278-278/? W/SurfaceFlinger: Fail to Open /sys/devices/platform/gpusysfs/fps
474011-14 09:18:10.083 278-278/? D/SurfaceFlinger: FPS : 60.15
474111-14 09:18:10.083 278-278/? W/SurfaceFlinger: Fail to Open /sys/devices/platform/gpusysfs/fps
474211-14 09:18:10.103 278-278/? D/SurfaceFlinger: FPS : 60.15
474311-14 09:18:10.103 278-278/? W/SurfaceFlinger: Fail to Open /sys/devices/platform/gpusysfs/fps
474411-14 09:18:10.123 278-278/? D/SurfaceFlinger: FPS : 60.15
474511-14 09:18:10.123 278-278/? W/SurfaceFlinger: Fail to Open /sys/devices/platform/gpusysfs/fps
474611-14 09:18:10.133 278-278/? D/SurfaceFlinger: FPS : 60.15
474711-14 09:18:10.133 278-278/? W/SurfaceFlinger: Fail to Open /sys/devices/platform/gpusysfs/fps
474811-14 09:18:10.153 278-278/? D/SurfaceFlinger: FPS : 60.15
474911-14 09:18:10.153 278-278/? W/SurfaceFlinger: Fail to Open /sys/devices/platform/gpusysfs/fps
475011-14 09:18:10.173 278-278/? D/SurfaceFlinger: FPS : 60.15
475111-14 09:18:10.173 278-278/? W/SurfaceFlinger: Fail to Open /sys/devices/platform/gpusysfs/fps
475211-14 09:18:10.183 278-278/? D/SurfaceFlinger: FPS : 60.15
475311-14 09:18:10.183 278-278/? W/SurfaceFlinger: Fail to Open /sys/devices/platform/gpusysfs/fps
475411-14 09:18:10.203 278-278/? D/SurfaceFlinger: FPS : 60.15
475511-14 09:18:10.203 278-278/? W/SurfaceFlinger: Fail to Open /sys/devices/platform/gpusysfs/fps
475611-14 09:18:10.223 278-278/? D/SurfaceFlinger: FPS : 60.15
475711-14 09:18:10.223 278-278/? W/SurfaceFlinger: Fail to Open /sys/devices/platform/gpusysfs/fps
475811-14 09:18:10.233 278-278/? D/SurfaceFlinger: FPS : 60.15
475911-14 09:18:10.233 278-278/? W/SurfaceFlinger: Fail to Open /sys/devices/platform/gpusysfs/fps
476011-14 09:18:10.253 278-278/? D/SurfaceFlinger: FPS : 60.15
476111-14 09:18:10.253 278-278/? W/SurfaceFlinger: Fail to Open /sys/devices/platform/gpusysfs/fps
476211-14 09:18:10.273 278-278/? D/SurfaceFlinger: FPS : 60.19
476311-14 09:18:10.273 278-278/? W/SurfaceFlinger: Fail to Open /sys/devices/platform/gpusysfs/fps
476411-14 09:18:10.284 278-278/? D/SurfaceFlinger: FPS : 60.19
476511-14 09:18:10.284 278-278/? W/SurfaceFlinger: Fail to Open /sys/devices/platform/gpusysfs/fps
476611-14 09:18:10.304 278-278/? D/SurfaceFlinger: FPS : 60.19
476711-14 09:18:10.304 278-278/? W/SurfaceFlinger: Fail to Open /sys/devices/platform/gpusysfs/fps
476811-14 09:18:10.324 278-278/? D/SurfaceFlinger: FPS : 60.19
476911-14 09:18:10.324 278-278/? W/SurfaceFlinger: Fail to Open /sys/devices/platform/gpusysfs/fps
477011-14 09:18:10.334 278-278/? D/SurfaceFlinger: FPS : 60.19
477111-14 09:18:10.334 278-278/? W/SurfaceFlinger: Fail to Open /sys/devices/platform/gpusysfs/fps
477211-14 09:18:10.354 278-278/? D/SurfaceFlinger: FPS : 60.19
477311-14 09:18:10.364 278-278/? W/SurfaceFlinger: Fail to Open /sys/devices/platform/gpusysfs/fps
477411-14 09:18:10.384 278-278/? D/SurfaceFlinger: FPS : 60.19
477511-14 09:18:10.384 278-278/? W/SurfaceFlinger: Fail to Open /sys/devices/platform/gpusysfs/fps
477611-14 09:18:10.404 278-278/? D/SurfaceFlinger: FPS : 60.19
477711-14 09:18:10.404 278-278/? W/SurfaceFlinger: Fail to Open /sys/devices/platform/gpusysfs/fps
477811-14 09:18:10.424 278-278/? D/SurfaceFlinger: FPS : 60.19
477911-14 09:18:10.424 278-278/? W/SurfaceFlinger: Fail to Open /sys/devices/platform/gpusysfs/fps
478011-14 09:18:10.434 278-278/? D/SurfaceFlinger: FPS : 60.19
478111-14 09:18:10.434 278-278/? W/SurfaceFlinger: Fail to Open /sys/devices/platform/gpusysfs/fps
478211-14 09:18:10.454 278-278/? D/SurfaceFlinger: FPS : 60.19
478311-14 09:18:10.454 278-278/? W/SurfaceFlinger: Fail to Open /sys/devices/platform/gpusysfs/fps
478411-14 09:18:10.464 278-278/? D/SurfaceFlinger: FPS : 60.19
478511-14 09:18:10.474 278-278/? W/SurfaceFlinger: Fail to Open /sys/devices/platform/gpusysfs/fps
478611-14 09:18:10.484 278-278/? D/SurfaceFlinger: FPS : 60.19
478711-14 09:18:10.484 278-278/? W/SurfaceFlinger: Fail to Open /sys/devices/platform/gpusysfs/fps
478811-14 09:18:10.504 278-278/? D/SurfaceFlinger: FPS : 60.19
478911-14 09:18:10.504 278-278/? W/SurfaceFlinger: Fail to Open /sys/devices/platform/gpusysfs/fps
479011-14 09:18:10.514 278-278/? D/SurfaceFlinger: FPS : 60.19
479111-14 09:18:10.524 278-278/? W/SurfaceFlinger: Fail to Open /sys/devices/platform/gpusysfs/fps
479211-14 09:18:10.534 278-278/? D/SurfaceFlinger: FPS : 56.15
479311-14 09:18:10.534 278-278/? W/SurfaceFlinger: Fail to Open /sys/devices/platform/gpusysfs/fps
479411-14 09:18:10.554 278-278/? D/SurfaceFlinger: FPS : 56.15
479511-14 09:18:10.554 278-278/? W/SurfaceFlinger: Fail to Open /sys/devices/platform/gpusysfs/fps
479611-14 09:18:10.574 278-278/? D/SurfaceFlinger: FPS : 56.15
479711-14 09:18:10.574 278-278/? W/SurfaceFlinger: Fail to Open /sys/devices/platform/gpusysfs/fps
479811-14 09:18:10.584 278-278/? D/SurfaceFlinger: FPS : 56.15
479911-14 09:18:10.584 278-278/? W/SurfaceFlinger: Fail to Open /sys/devices/platform/gpusysfs/fps
480011-14 09:18:10.604 278-278/? D/SurfaceFlinger: FPS : 56.15
480111-14 09:18:10.604 278-278/? W/SurfaceFlinger: Fail to Open /sys/devices/platform/gpusysfs/fps
480211-14 09:18:10.604 25131-25131/? E/SMD: smd Interface open failed errno is 2 -1
480311-14 09:18:10.614 278-278/? D/SurfaceFlinger: FPS : 56.15
480411-14 09:18:10.614 278-278/? W/SurfaceFlinger: Fail to Open /sys/devices/platform/gpusysfs/fps
480511-14 09:18:10.634 278-278/? D/SurfaceFlinger: FPS : 56.15
480611-14 09:18:10.634 278-278/? W/SurfaceFlinger: Fail to Open /sys/devices/platform/gpusysfs/fps
480711-14 09:18:10.654 278-278/? D/SurfaceFlinger: FPS : 56.15
480811-14 09:18:10.654 278-278/? W/SurfaceFlinger: Fail to Open /sys/devices/platform/gpusysfs/fps
480911-14 09:18:10.664 278-278/? D/SurfaceFlinger: FPS : 56.15
481011-14 09:18:10.664 278-278/? W/SurfaceFlinger: Fail to Open /sys/devices/platform/gpusysfs/fps
481111-14 09:18:10.684 278-278/? D/SurfaceFlinger: FPS : 56.15
481211-14 09:18:10.684 278-278/? W/SurfaceFlinger: Fail to Open /sys/devices/platform/gpusysfs/fps
481311-14 09:18:10.704 278-278/? D/SurfaceFlinger: FPS : 56.15
481411-14 09:18:10.704 278-278/? W/SurfaceFlinger: Fail to Open /sys/devices/platform/gpusysfs/fps
481511-14 09:18:10.714 278-278/? D/SurfaceFlinger: FPS : 56.15
481611-14 09:18:10.724 278-278/? W/SurfaceFlinger: Fail to Open /sys/devices/platform/gpusysfs/fps
481711-14 09:18:10.734 278-278/? D/SurfaceFlinger: FPS : 56.15
481811-14 09:18:10.734 278-278/? W/SurfaceFlinger: Fail to Open /sys/devices/platform/gpusysfs/fps
481911-14 09:18:10.754 278-278/? D/SurfaceFlinger: FPS : 56.15
482011-14 09:18:10.754 278-278/? W/SurfaceFlinger: Fail to Open /sys/devices/platform/gpusysfs/fps
482111-14 09:18:10.764 278-278/? D/SurfaceFlinger: FPS : 56.15
482211-14 09:18:10.764 278-278/? W/SurfaceFlinger: Fail to Open /sys/devices/platform/gpusysfs/fps
482311-14 09:18:10.784 278-278/? D/SurfaceFlinger: FPS : 56.15
482411-14 09:18:10.784 278-278/? W/SurfaceFlinger: Fail to Open /sys/devices/platform/gpusysfs/fps
482511-14 09:18:10.804 278-278/? D/SurfaceFlinger: FPS : 60.43
482611-14 09:18:10.804 278-278/? W/SurfaceFlinger: Fail to Open /sys/devices/platform/gpusysfs/fps
482711-14 09:18:10.814 278-278/? D/SurfaceFlinger: FPS : 60.43
482811-14 09:18:10.814 278-278/? W/SurfaceFlinger: Fail to Open /sys/devices/platform/gpusysfs/fps
482911-14 09:18:10.834 278-278/? D/SurfaceFlinger: FPS : 60.43
483011-14 09:18:10.834 278-278/? W/SurfaceFlinger: Fail to Open /sys/devices/platform/gpusysfs/fps
483111-14 09:18:10.854 278-278/? D/SurfaceFlinger: FPS : 60.43
483211-14 09:18:10.854 278-278/? W/SurfaceFlinger: Fail to Open /sys/devices/platform/gpusysfs/fps
483311-14 09:18:10.864 278-278/? D/SurfaceFlinger: FPS : 60.43
483411-14 09:18:10.864 278-278/? W/SurfaceFlinger: Fail to Open /sys/devices/platform/gpusysfs/fps
483511-14 09:18:10.884 278-278/? D/SurfaceFlinger: FPS : 60.43
483611-14 09:18:10.884 278-278/? W/SurfaceFlinger: Fail to Open /sys/devices/platform/gpusysfs/fps
483711-14 09:18:10.904 278-278/? D/SurfaceFlinger: FPS : 60.43
483811-14 09:18:10.904 278-278/? W/SurfaceFlinger: Fail to Open /sys/devices/platform/gpusysfs/fps
483911-14 09:18:10.914 868-3238/? D/SSRM:n: SIOP:: AP = 440, CUR = 460
484011-14 09:18:10.914 278-278/? D/SurfaceFlinger: FPS : 60.43
484111-14 09:18:10.914 278-278/? W/SurfaceFlinger: Fail to Open /sys/devices/platform/gpusysfs/fps
484211-14 09:18:10.934 278-278/? D/SurfaceFlinger: FPS : 60.43
484311-14 09:18:10.934 278-278/? W/SurfaceFlinger: Fail to Open /sys/devices/platform/gpusysfs/fps
484411-14 09:18:10.954 278-278/? D/SurfaceFlinger: FPS : 60.43
484511-14 09:18:10.954 278-278/? W/SurfaceFlinger: Fail to Open /sys/devices/platform/gpusysfs/fps
484611-14 09:18:10.964 278-278/? D/SurfaceFlinger: FPS : 60.43
484711-14 09:18:10.964 278-278/? W/SurfaceFlinger: Fail to Open /sys/devices/platform/gpusysfs/fps
484811-14 09:18:10.984 278-278/? D/SurfaceFlinger: FPS : 60.43
484911-14 09:18:10.984 278-278/? W/SurfaceFlinger: Fail to Open /sys/devices/platform/gpusysfs/fps
485011-14 09:18:11.004 278-278/? D/SurfaceFlinger: FPS : 60.43
485111-14 09:18:11.004 278-278/? W/SurfaceFlinger: Fail to Open /sys/devices/platform/gpusysfs/fps
485211-14 09:18:11.014 278-278/? D/SurfaceFlinger: FPS : 60.43
485311-14 09:18:11.014 278-278/? W/SurfaceFlinger: Fail to Open /sys/devices/platform/gpusysfs/fps
485411-14 09:18:11.034 278-278/? D/SurfaceFlinger: FPS : 60.43
485511-14 09:18:11.034 278-278/? W/SurfaceFlinger: Fail to Open /sys/devices/platform/gpusysfs/fps
485611-14 09:18:11.054 278-278/? D/SurfaceFlinger: FPS : 60.43
485711-14 09:18:11.054 278-278/? W/SurfaceFlinger: Fail to Open /sys/devices/platform/gpusysfs/fps
485811-14 09:18:11.064 278-278/? D/SurfaceFlinger: FPS : 60.18
485911-14 09:18:11.064 278-278/? W/SurfaceFlinger: Fail to Open /sys/devices/platform/gpusysfs/fps
486011-14 09:18:11.084 278-278/? D/SurfaceFlinger: FPS : 60.18
486111-14 09:18:11.084 278-278/? W/SurfaceFlinger: Fail to Open /sys/devices/platform/gpusysfs/fps
486211-14 09:18:11.104 278-278/? D/SurfaceFlinger: FPS : 60.18
486311-14 09:18:11.104 278-278/? W/SurfaceFlinger: Fail to Open /sys/devices/platform/gpusysfs/fps
486411-14 09:18:11.114 278-278/? D/SurfaceFlinger: FPS : 60.18
486511-14 09:18:11.114 278-278/? W/SurfaceFlinger: Fail to Open /sys/devices/platform/gpusysfs/fps
486611-14 09:18:11.134 278-278/? D/SurfaceFlinger: FPS : 60.18
486711-14 09:18:11.134 278-278/? W/SurfaceFlinger: Fail to Open /sys/devices/platform/gpusysfs/fps
486811-14 09:18:11.154 278-278/? D/SurfaceFlinger: FPS : 60.18
486911-14 09:18:11.154 278-278/? W/SurfaceFlinger: Fail to Open /sys/devices/platform/gpusysfs/fps
487011-14 09:18:11.164 278-278/? D/SurfaceFlinger: FPS : 60.18
487111-14 09:18:11.164 278-278/? W/SurfaceFlinger: Fail to Open /sys/devices/platform/gpusysfs/fps
487211-14 09:18:11.184 278-278/? D/SurfaceFlinger: FPS : 60.18
487311-14 09:18:11.184 278-278/? W/SurfaceFlinger: Fail to Open /sys/devices/platform/gpusysfs/fps
487411-14 09:18:11.204 278-278/? D/SurfaceFlinger: FPS : 60.18
487511-14 09:18:11.204 278-278/? W/SurfaceFlinger: Fail to Open /sys/devices/platform/gpusysfs/fps
487611-14 09:18:11.214 278-278/? D/SurfaceFlinger: FPS : 60.18
487711-14 09:18:11.214 278-278/? W/SurfaceFlinger: Fail to Open /sys/devices/platform/gpusysfs/fps
487811-14 09:18:11.234 278-278/? D/SurfaceFlinger: FPS : 60.18
487911-14 09:18:11.234 278-278/? W/SurfaceFlinger: Fail to Open /sys/devices/platform/gpusysfs/fps
488011-14 09:18:11.254 278-278/? D/SurfaceFlinger: FPS : 60.18
488111-14 09:18:11.254 278-278/? W/SurfaceFlinger: Fail to Open /sys/devices/platform/gpusysfs/fps
488211-14 09:18:11.264 278-278/? D/SurfaceFlinger: FPS : 60.18
488311-14 09:18:11.264 278-278/? W/SurfaceFlinger: Fail to Open /sys/devices/platform/gpusysfs/fps
488411-14 09:18:11.284 278-278/? D/SurfaceFlinger: FPS : 60.18
488511-14 09:18:11.284 278-278/? W/SurfaceFlinger: Fail to Open /sys/devices/platform/gpusysfs/fps
488611-14 09:18:11.305 278-278/? D/SurfaceFlinger: FPS : 60.18
488711-14 09:18:11.305 278-278/? W/SurfaceFlinger: Fail to Open /sys/devices/platform/gpusysfs/fps
488811-14 09:18:11.315 278-278/? D/SurfaceFlinger: FPS : 60.18
488911-14 09:18:11.315 278-278/? W/SurfaceFlinger: Fail to Open /sys/devices/platform/gpusysfs/fps
489011-14 09:18:11.335 278-278/? D/SurfaceFlinger: FPS : 60.15
489111-14 09:18:11.335 278-278/? W/SurfaceFlinger: Fail to Open /sys/devices/platform/gpusysfs/fps
489211-14 09:18:11.345 1263-1263/? D/StatusBar.NetworkController: refreshViews connected={ wifi } level=2 combinedSignalIconId=0x7f020517/com.android.systemui:drawable/stat_sys_wifi_signal_4 mobileLabel=Emergency calls only wifiLabel="Badger"xxxxXXXXxxxxXXXX emergencyOnly=true combinedLabel="Badger"xxxxXXXXxxxxXXXX mAirplaneMode=false mDataActivity=0 mPhoneSignalIconId=0x7f020466/com.android.systemui:drawable/stat_sys_signal_2_auto_rotate mQSPhoneSignalIconId=0x7f02012a/com.android.systemui:drawable/ic_qs_signal_2 mDataDirectionIconId=0x0/(null) mDataSignalIconId=0x7f020466/com.android.systemui:drawable/stat_sys_signal_2_auto_rotate mDataTypeIconId=0x0/(null) mQSDataTypeIconId=0x0/(null) mNoSimIconId=0x0/(null) mWifiIconId=0x7f020517/com.android.systemui:drawable/stat_sys_wifi_signal_4 mQSWifiIconId=0x7f020143/com.android.systemui:drawable/ic_qs_wifi_4 mWifiActivityIconId=0x7f0204e8/com.android.systemui:drawable/stat_sys_signal_inout mBluetoothTetherIconId=0x10808cc/android:drawable/stat_sys_tether_bluetooth
489311-14 09:18:11.345 1263-1263/? D/STATUSBAR-WifiQuickSettingButton: onWifiSignalChanged enabled=true enabledDesc:"Badger"
489411-14 09:18:11.345 1263-1263/? D/StatusBar.NetworkController: refreshSignalCluster - setNWBoosterIndicators(false)
489511-14 09:18:11.345 1263-1263/? D/StatusBar.NetworkController: applyOpen
489611-14 09:18:11.345 1263-1263/? D/StatusBar.NetworkController: refreshSignalCluster - setNWBoosterIndicators(false)
489711-14 09:18:11.345 1263-1263/? D/StatusBar.NetworkController: applyOpen
489811-14 09:18:11.345 1263-1263/? D/StatusBar.NetworkController: refreshSignalCluster - setNWBoosterIndicators(false)
489911-14 09:18:11.345 1263-1263/? D/StatusBar.NetworkController: applyOpen
490011-14 09:18:11.345 1263-1263/? D/StatusBar.NetworkController: refreshSignalCluster - setNWBoosterIndicators(false)
490111-14 09:18:11.345 1263-1263/? D/StatusBar.NetworkController: applyOpen
490211-14 09:18:11.355 278-278/? D/SurfaceFlinger: FPS : 60.15
490311-14 09:18:11.355 278-278/? W/SurfaceFlinger: Fail to Open /sys/devices/platform/gpusysfs/fps
490411-14 09:18:11.365 278-278/? D/SurfaceFlinger: FPS : 60.15
490511-14 09:18:11.365 278-278/? W/SurfaceFlinger: Fail to Open /sys/devices/platform/gpusysfs/fps
490611-14 09:18:11.385 278-278/? D/SurfaceFlinger: FPS : 60.15
490711-14 09:18:11.385 278-278/? W/SurfaceFlinger: Fail to Open /sys/devices/platform/gpusysfs/fps
490811-14 09:18:11.405 278-278/? D/SurfaceFlinger: FPS : 60.15
490911-14 09:18:11.405 278-278/? W/SurfaceFlinger: Fail to Open /sys/devices/platform/gpusysfs/fps
491011-14 09:18:11.415 278-278/? D/SurfaceFlinger: FPS : 60.15
491111-14 09:18:11.415 278-278/? W/SurfaceFlinger: Fail to Open /sys/devices/platform/gpusysfs/fps
491211-14 09:18:11.435 278-278/? D/SurfaceFlinger: FPS : 60.15
491311-14 09:18:11.435 278-278/? W/SurfaceFlinger: Fail to Open /sys/devices/platform/gpusysfs/fps
491411-14 09:18:11.455 278-278/? D/SurfaceFlinger: FPS : 60.15
491511-14 09:18:11.455 278-278/? W/SurfaceFlinger: Fail to Open /sys/devices/platform/gpusysfs/fps
491611-14 09:18:11.465 278-278/? D/SurfaceFlinger: FPS : 60.15
491711-14 09:18:11.465 278-278/? W/SurfaceFlinger: Fail to Open /sys/devices/platform/gpusysfs/fps
491811-14 09:18:11.485 278-278/? D/SurfaceFlinger: FPS : 60.15
491911-14 09:18:11.485 278-278/? W/SurfaceFlinger: Fail to Open /sys/devices/platform/gpusysfs/fps
492011-14 09:18:11.505 278-278/? D/SurfaceFlinger: FPS : 60.15
492111-14 09:18:11.505 278-278/? W/SurfaceFlinger: Fail to Open /sys/devices/platform/gpusysfs/fps
492211-14 09:18:11.515 278-278/? D/SurfaceFlinger: FPS : 60.15
492311-14 09:18:11.515 278-278/? W/SurfaceFlinger: Fail to Open /sys/devices/platform/gpusysfs/fps
492411-14 09:18:11.535 278-278/? D/SurfaceFlinger: FPS : 60.15
492511-14 09:18:11.535 278-278/? W/SurfaceFlinger: Fail to Open /sys/devices/platform/gpusysfs/fps
492611-14 09:18:11.555 278-278/? D/SurfaceFlinger: FPS : 60.15
492711-14 09:18:11.555 278-278/? W/SurfaceFlinger: Fail to Open /sys/devices/platform/gpusysfs/fps
492811-14 09:18:11.565 278-278/? D/SurfaceFlinger: FPS : 60.15
492911-14 09:18:11.565 278-278/? W/SurfaceFlinger: Fail to Open /sys/devices/platform/gpusysfs/fps
493011-14 09:18:11.585 278-278/? D/SurfaceFlinger: FPS : 60.15
493111-14 09:18:11.585 278-278/? W/SurfaceFlinger: Fail to Open /sys/devices/platform/gpusysfs/fps
493211-14 09:18:11.605 25131-25131/? E/SMD: smd Interface open failed errno is 2 -1
493311-14 09:18:11.615 278-278/? D/SurfaceFlinger: FPS : 60.22
493411-14 09:18:11.615 278-278/? W/SurfaceFlinger: Fail to Open /sys/devices/platform/gpusysfs/fps
493511-14 09:18:11.615 278-278/? D/SurfaceFlinger: FPS : 60.22
493611-14 09:18:11.615 278-278/? W/SurfaceFlinger: Fail to Open /sys/devices/platform/gpusysfs/fps
493711-14 09:18:11.665 278-278/? D/SurfaceFlinger: FPS : 60.22
493811-14 09:18:11.665 278-278/? W/SurfaceFlinger: Fail to Open /sys/devices/platform/gpusysfs/fps
493911-14 09:18:11.705 278-278/? D/SurfaceFlinger: FPS : 60.22
494011-14 09:18:11.705 278-278/? W/SurfaceFlinger: Fail to Open /sys/devices/platform/gpusysfs/fps
494111-14 09:18:11.895 278-278/? D/SurfaceFlinger: FPS : 13.37
494211-14 09:18:11.895 278-278/? W/SurfaceFlinger: Fail to Open /sys/devices/platform/gpusysfs/fps
494311-14 09:18:11.935 278-278/? D/SurfaceFlinger: FPS : 13.37
494411-14 09:18:11.935 278-278/? W/SurfaceFlinger: Fail to Open /sys/devices/platform/gpusysfs/fps
494511-14 09:18:11.945 278-278/? D/SurfaceFlinger: FPS : 13.37
494611-14 09:18:11.945 278-278/? W/SurfaceFlinger: Fail to Open /sys/devices/platform/gpusysfs/fps
494711-14 09:18:11.995 278-278/? D/SurfaceFlinger: FPS : 13.37
494811-14 09:18:11.995 278-278/? W/SurfaceFlinger: Fail to Open /sys/devices/platform/gpusysfs/fps
494911-14 09:18:12.045 278-278/? D/SurfaceFlinger: FPS : 13.37
495011-14 09:18:12.045 278-278/? W/SurfaceFlinger: Fail to Open /sys/devices/platform/gpusysfs/fps
495111-14 09:18:12.065 278-278/? D/SurfaceFlinger: FPS : 13.37
495211-14 09:18:12.065 278-278/? W/SurfaceFlinger: Fail to Open /sys/devices/platform/gpusysfs/fps
495311-14 09:18:12.095 278-278/? D/SurfaceFlinger: FPS : 13.37
495411-14 09:18:12.095 278-278/? W/SurfaceFlinger: Fail to Open /sys/devices/platform/gpusysfs/fps
495511-14 09:18:12.135 278-278/? D/SurfaceFlinger: FPS : 13.37
495611-14 09:18:12.135 278-278/? W/SurfaceFlinger: Fail to Open /sys/devices/platform/gpusysfs/fps
495711-14 09:18:12.145 278-278/? D/SurfaceFlinger: FPS : 13.37
495811-14 09:18:12.145 278-278/? W/SurfaceFlinger: Fail to Open /sys/devices/platform/gpusysfs/fps
495911-14 09:18:12.195 278-278/? D/SurfaceFlinger: FPS : 30.08
496011-14 09:18:12.195 278-278/? W/SurfaceFlinger: Fail to Open /sys/devices/platform/gpusysfs/fps
496111-14 09:18:12.235 278-278/? D/SurfaceFlinger: FPS : 30.08
496211-14 09:18:12.235 278-278/? W/SurfaceFlinger: Fail to Open /sys/devices/platform/gpusysfs/fps
496311-14 09:18:12.265 278-278/? D/SurfaceFlinger: FPS : 30.08
496411-14 09:18:12.265 278-278/? W/SurfaceFlinger: Fail to Open /sys/devices/platform/gpusysfs/fps
496511-14 09:18:12.295 278-278/? D/SurfaceFlinger: FPS : 30.08
496611-14 09:18:12.295 278-278/? W/SurfaceFlinger: Fail to Open /sys/devices/platform/gpusysfs/fps
496711-14 09:18:12.336 278-278/? D/SurfaceFlinger: FPS : 30.08
496811-14 09:18:12.336 278-278/? W/SurfaceFlinger: Fail to Open /sys/devices/platform/gpusysfs/fps
496911-14 09:18:12.386 278-278/? D/SurfaceFlinger: FPS : 30.08
497011-14 09:18:12.386 278-278/? W/SurfaceFlinger: Fail to Open /sys/devices/platform/gpusysfs/fps
497111-14 09:18:12.396 278-278/? D/SurfaceFlinger: FPS : 30.08
497211-14 09:18:12.396 278-278/? W/SurfaceFlinger: Fail to Open /sys/devices/platform/gpusysfs/fps
497311-14 09:18:12.436 278-278/? D/SurfaceFlinger: FPS : 30.08
497411-14 09:18:12.436 278-278/? W/SurfaceFlinger: Fail to Open /sys/devices/platform/gpusysfs/fps
497511-14 09:18:12.446 278-278/? D/SurfaceFlinger: FPS : 30.08
497611-14 09:18:12.446 278-278/? W/SurfaceFlinger: Fail to Open /sys/devices/platform/gpusysfs/fps
497711-14 09:18:12.516 278-278/? D/SurfaceFlinger: FPS : 28.50
497811-14 09:18:12.516 278-278/? W/SurfaceFlinger: Fail to Open /sys/devices/platform/gpusysfs/fps
497911-14 09:18:12.536 278-278/? D/SurfaceFlinger: FPS : 28.50
498011-14 09:18:12.536 278-278/? W/SurfaceFlinger: Fail to Open /sys/devices/platform/gpusysfs/fps
498111-14 09:18:12.566 278-278/? D/SurfaceFlinger: FPS : 28.50
498211-14 09:18:12.566 278-278/? W/SurfaceFlinger: Fail to Open /sys/devices/platform/gpusysfs/fps
498311-14 09:18:12.596 278-278/? D/SurfaceFlinger: FPS : 28.50
498411-14 09:18:12.596 278-278/? W/SurfaceFlinger: Fail to Open /sys/devices/platform/gpusysfs/fps
498511-14 09:18:12.606 25131-25131/? E/SMD: smd Interface open failed errno is 2 -1
498611-14 09:18:12.636 278-278/? D/SurfaceFlinger: FPS : 28.50
498711-14 09:18:12.636 278-278/? W/SurfaceFlinger: Fail to Open /sys/devices/platform/gpusysfs/fps
498811-14 09:18:12.666 278-278/? D/SurfaceFlinger: FPS : 28.50
498911-14 09:18:12.666 278-278/? W/SurfaceFlinger: Fail to Open /sys/devices/platform/gpusysfs/fps
499011-14 09:18:12.696 278-278/? D/SurfaceFlinger: FPS : 28.50
499111-14 09:18:12.696 278-278/? W/SurfaceFlinger: Fail to Open /sys/devices/platform/gpusysfs/fps
499211-14 09:18:12.726 304-22404/? E/OMX-VDEC-1080P: Rxd i/p EOS, Notify Driver that EOS has been reached
499311-14 09:18:12.726 304-22404/? E/OMX-VDEC-1080P: Output EOS has been reached
499411-14 09:18:12.726 304-22404/? E/OMX-VDEC-1080P: Rxd OMX_COMPONENT_GENERATE_EOS_DONE
499511-14 09:18:12.736 278-278/? D/SurfaceFlinger: FPS : 28.50
499611-14 09:18:12.736 278-278/? W/SurfaceFlinger: Fail to Open /sys/devices/platform/gpusysfs/fps
499711-14 09:18:12.776 278-278/? D/SurfaceFlinger: FPS : 30.09
499811-14 09:18:12.786 278-278/? W/SurfaceFlinger: Fail to Open /sys/devices/platform/gpusysfs/fps
499911-14 09:18:12.816 278-278/? D/SurfaceFlinger: FPS : 30.09
500011-14 09:18:12.816 278-278/? W/SurfaceFlinger: Fail to Open /sys/devices/platform/gpusysfs/fps
500111-14 09:18:12.846 278-278/? D/SurfaceFlinger: FPS : 30.09
500211-14 09:18:12.846 278-278/? W/SurfaceFlinger: Fail to Open /sys/devices/platform/gpusysfs/fps
500311-14 09:18:12.886 304-304/? E/OMX-VDEC-1080P: send_command: Recieved a Command from Client
500411-14 09:18:12.886 304-22404/? E/OMX-VDEC-1080P: send_command_proxy(): cmd = 1, Current State 3, Expected State -1
500511-14 09:18:12.886 304-22404/? E/OMX-VDEC-1080P: send_command_proxy(): OMX_CommandFlush issued with param1: -1
500611-14 09:18:12.886 304-304/? E/OMX-VDEC-1080P: send_command: Command Processed
500711-14 09:18:12.886 15042-22403/? I/ACodec: [OMX.qcom.video.decoder.avc] Now Flushing
500811-14 09:18:12.886 304-22404/? E/OMX-VDEC-1080P: Driver flush i/p Port complete
500911-14 09:18:12.886 304-22404/? E/OMX-VDEC-1080P: Initiate Input Flush
501011-14 09:18:12.886 304-22404/? E/OMX-VDEC-1080P: OMX flush i/p Port complete PenBuf(0)
501111-14 09:18:12.886 304-22404/? E/OMX-VDEC-1080P: Driver flush o/p Port complete
501211-14 09:18:12.886 304-22404/? E/OMX-VDEC-1080P: Initiate Output Flush
501311-14 09:18:12.886 304-22404/? E/OMX-VDEC-1080P: OMX flush o/p Port complete PenBuf(0)
501411-14 09:18:12.886 15042-22403/? I/ACodec: [OMX.qcom.video.decoder.avc] Now Executing
501511-14 09:18:12.896 278-278/? D/SurfaceFlinger: FPS : 30.09
501611-14 09:18:12.896 278-278/? W/SurfaceFlinger: Fail to Open /sys/devices/platform/gpusysfs/fps
501711-14 09:18:12.906 304-22404/? E/OMX-VDEC-1080P: Sync frame received
501811-14 09:18:12.936 25239-25239/? E/Diag_Lib:  Diag_LSM_Init: Failed to open handle to diag driver, error = 2
501911-14 09:18:13.016 278-278/? D/SurfaceFlinger: FPS : 30.09
502011-14 09:18:13.016 278-278/? W/SurfaceFlinger: Fail to Open /sys/devices/platform/gpusysfs/fps
502111-14 09:18:13.066 278-278/? D/SurfaceFlinger: FPS : 17.70
502211-14 09:18:13.066 278-278/? W/SurfaceFlinger: Fail to Open /sys/devices/platform/gpusysfs/fps
502311-14 09:18:13.126 278-278/? D/SurfaceFlinger: FPS : 17.70
502411-14 09:18:13.126 278-278/? W/SurfaceFlinger: Fail to Open /sys/devices/platform/gpusysfs/fps
502511-14 09:18:13.146 278-278/? D/SurfaceFlinger: FPS : 17.70
502611-14 09:18:13.146 278-278/? W/SurfaceFlinger: Fail to Open /sys/devices/platform/gpusysfs/fps
502711-14 09:18:13.176 278-278/? D/SurfaceFlinger: FPS : 17.70
502811-14 09:18:13.176 278-278/? W/SurfaceFlinger: Fail to Open /sys/devices/platform/gpusysfs/fps
502911-14 09:18:13.216 278-278/? D/SurfaceFlinger: FPS : 17.70
503011-14 09:18:13.216 278-278/? W/SurfaceFlinger: Fail to Open /sys/devices/platform/gpusysfs/fps
503111-14 09:18:13.226 868-1766/? D/BatteryService: !@BatteryListener : batteryPropertiesChanged!
503211-14 09:18:13.226 868-1766/? D/BatteryService: level:67, scale:100, status:2, health:2, present:true, voltage: 3951, temperature: 328, technology: Li-ion, AC powered:false, USB powered:true, Wireless powered:false, icon:17303687, invalid charger:0
503311-14 09:18:13.226 868-1766/? D/BatteryService: online:4, current avg:460, charge type:1, power sharing:false, high voltage charger:false, capacity:280000, current_now:460
503411-14 09:18:13.226 868-868/? D/BatteryService: Sending ACTION_BATTERY_CHANGED.
503511-14 09:18:13.236 868-868/? I/MotionRecognitionService: Plugged
503611-14 09:18:13.236 868-868/? I/MotionRecognitionService: setPowerConnected  = true
503711-14 09:18:13.236 1263-1263/? D/KeyguardUpdateMonitor: received broadcast android.intent.action.BATTERY_CHANGED
503811-14 09:18:13.236 1263-1263/? D/STATUSBAR-PhoneStatusBar:  mBrightnessEnablebySettings = true mBrightnessEnablebyBattery = true mBrightnessEnablebyDisableFlag = true mPmsBrightnessEnablebySettings = true
503911-14 09:18:13.236 1263-1263/? D/BatteryMeterView: ACTION_BATTERY_CHANGED : level:67 status:2 health:2
504011-14 09:18:13.236 1263-1263/? D/BatteryMeterView: ACTION_BATTERY_CHANGED : level:67 status:2 health:2
504111-14 09:18:13.236 1263-1263/? D/BatteryMeterView: ACTION_BATTERY_CHANGED : level:67 status:2 health:2
504211-14 09:18:13.236 1263-1263/? D/KeyguardUpdateMonitor: handleBatteryUpdate
504311-14 09:18:13.266 278-278/? D/SurfaceFlinger: FPS : 17.70
504411-14 09:18:13.266 278-278/? W/SurfaceFlinger: Fail to Open /sys/devices/platform/gpusysfs/fps
504511-14 09:18:13.276 278-278/? D/SurfaceFlinger: FPS : 17.70
504611-14 09:18:13.276 278-278/? W/SurfaceFlinger: Fail to Open /sys/devices/platform/gpusysfs/fps
504711-14 09:18:13.326 278-278/? D/SurfaceFlinger: FPS : 26.32
504811-14 09:18:13.326 278-278/? W/SurfaceFlinger: Fail to Open /sys/devices/platform/gpusysfs/fps
504911-14 09:18:13.346 1263-1263/? D/StatusBar.NetworkController: refreshViews connected={ wifi } level=2 combinedSignalIconId=0x7f020517/com.android.systemui:drawable/stat_sys_wifi_signal_4 mobileLabel=Emergency calls only wifiLabel="Badger"xxxxXXXXxxxxXXXX emergencyOnly=true combinedLabel="Badger"xxxxXXXXxxxxXXXX mAirplaneMode=false mDataActivity=0 mPhoneSignalIconId=0x7f020466/com.android.systemui:drawable/stat_sys_signal_2_auto_rotate mQSPhoneSignalIconId=0x7f02012a/com.android.systemui:drawable/ic_qs_signal_2 mDataDirectionIconId=0x0/(null) mDataSignalIconId=0x7f020466/com.android.systemui:drawable/stat_sys_signal_2_auto_rotate mDataTypeIconId=0x0/(null) mQSDataTypeIconId=0x0/(null) mNoSimIconId=0x0/(null) mWifiIconId=0x7f020517/com.android.systemui:drawable/stat_sys_wifi_signal_4 mQSWifiIconId=0x7f020143/com.android.systemui:drawable/ic_qs_wifi_4 mWifiActivityIconId=0x7f0204e6/com.android.systemui:drawable/stat_sys_signal_in mBluetoothTetherIconId=0x10808cc/android:drawable/stat_sys_tether_bluetooth
505011-14 09:18:13.346 1263-1263/? D/STATUSBAR-WifiQuickSettingButton: onWifiSignalChanged enabled=true enabledDesc:"Badger"
505111-14 09:18:13.346 278-278/? D/SurfaceFlinger: FPS : 26.32
505211-14 09:18:13.346 278-278/? W/SurfaceFlinger: Fail to Open /sys/devices/platform/gpusysfs/fps
505311-14 09:18:13.346 1263-1263/? D/StatusBar.NetworkController: refreshSignalCluster - setNWBoosterIndicators(false)
505411-14 09:18:13.346 1263-1263/? D/StatusBar.NetworkController: applyOpen
505511-14 09:18:13.346 1263-1263/? D/StatusBar.NetworkController: refreshSignalCluster - setNWBoosterIndicators(false)
505611-14 09:18:13.346 1263-1263/? D/StatusBar.NetworkController: applyOpen
505711-14 09:18:13.357 1263-1263/? D/StatusBar.NetworkController: refreshSignalCluster - setNWBoosterIndicators(false)
505811-14 09:18:13.357 1263-1263/? D/StatusBar.NetworkController: applyOpen
505911-14 09:18:13.357 1263-1263/? D/StatusBar.NetworkController: refreshSignalCluster - setNWBoosterIndicators(false)
506011-14 09:18:13.357 1263-1263/? D/StatusBar.NetworkController: applyOpen
506111-14 09:18:13.377 278-278/? D/SurfaceFlinger: FPS : 26.32
506211-14 09:18:13.377 278-278/? W/SurfaceFlinger: Fail to Open /sys/devices/platform/gpusysfs/fps
506311-14 09:18:13.397 278-278/? D/SurfaceFlinger: FPS : 26.32
506411-14 09:18:13.397 278-278/? W/SurfaceFlinger: Fail to Open /sys/devices/platform/gpusysfs/fps
506511-14 09:18:13.467 278-278/? D/SurfaceFlinger: FPS : 26.32
506611-14 09:18:13.467 278-278/? W/SurfaceFlinger: Fail to Open /sys/devices/platform/gpusysfs/fps
506711-14 09:18:13.487 278-278/? D/SurfaceFlinger: FPS : 26.32
506811-14 09:18:13.487 278-278/? W/SurfaceFlinger: Fail to Open /sys/devices/platform/gpusysfs/fps
506911-14 09:18:13.537 278-278/? D/SurfaceFlinger: FPS : 26.32
507011-14 09:18:13.537 278-278/? W/SurfaceFlinger: Fail to Open /sys/devices/platform/gpusysfs/fps
507111-14 09:18:13.597 25131-25131/? E/SMD: smd Interface open failed errno is 2 -1
507211-14 09:18:13.637 278-278/? D/SurfaceFlinger: FPS : 22.04
507311-14 09:18:13.637 278-278/? W/SurfaceFlinger: Fail to Open /sys/devices/platform/gpusysfs/fps
507411-14 09:18:13.657 278-278/? D/SurfaceFlinger: FPS : 22.04
507511-14 09:18:13.657 278-278/? W/SurfaceFlinger: Fail to Open /sys/devices/platform/gpusysfs/fps
507611-14 09:18:13.667 278-278/? D/SurfaceFlinger: FPS : 22.04
507711-14 09:18:13.667 278-278/? W/SurfaceFlinger: Fail to Open /sys/devices/platform/gpusysfs/fps
507811-14 09:18:13.687 278-278/? D/SurfaceFlinger: FPS : 22.04
507911-14 09:18:13.687 278-278/? W/SurfaceFlinger: Fail to Open /sys/devices/platform/gpusysfs/fps
508011-14 09:18:13.707 278-278/? D/SurfaceFlinger: FPS : 22.04
508111-14 09:18:13.707 278-278/? W/SurfaceFlinger: Fail to Open /sys/devices/platform/gpusysfs/fps
508211-14 09:18:13.717 278-278/? D/SurfaceFlinger: FPS : 22.04
508311-14 09:18:13.717 278-278/? W/SurfaceFlinger: Fail to Open /sys/devices/platform/gpusysfs/fps
508411-14 09:18:13.737 278-278/? D/SurfaceFlinger: FPS : 22.04
508511-14 09:18:13.737 278-278/? W/SurfaceFlinger: Fail to Open /sys/devices/platform/gpusysfs/fps
508611-14 09:18:13.757 278-278/? D/SurfaceFlinger: FPS : 22.04
508711-14 09:18:13.757 278-278/? W/SurfaceFlinger: Fail to Open /sys/devices/platform/gpusysfs/fps
508811-14 09:18:13.767 278-278/? D/SurfaceFlinger: FPS : 22.04
508911-14 09:18:13.767 278-278/? W/SurfaceFlinger: Fail to Open /sys/devices/platform/gpusysfs/fps
509011-14 09:18:13.787 278-278/? D/SurfaceFlinger: FPS : 22.04
509111-14 09:18:13.787 278-278/? W/SurfaceFlinger: Fail to Open /sys/devices/platform/gpusysfs/fps
509211-14 09:18:13.807 278-278/? D/SurfaceFlinger: FPS : 22.04
509311-14 09:18:13.807 278-278/? W/SurfaceFlinger: Fail to Open /sys/devices/platform/gpusysfs/fps
509411-14 09:18:13.817 278-278/? D/SurfaceFlinger: FPS : 22.04
509511-14 09:18:13.817 278-278/? W/SurfaceFlinger: Fail to Open /sys/devices/platform/gpusysfs/fps
509611-14 09:18:13.857 278-278/? D/SurfaceFlinger: FPS : 22.04
509711-14 09:18:13.857 278-278/? W/SurfaceFlinger: Fail to Open /sys/devices/platform/gpusysfs/fps
509811-14 09:18:13.867 278-278/? D/SurfaceFlinger: FPS : 22.04
509911-14 09:18:13.867 278-278/? W/SurfaceFlinger: Fail to Open /sys/devices/platform/gpusysfs/fps
510011-14 09:18:13.887 278-278/? D/SurfaceFlinger: FPS : 22.04
510111-14 09:18:13.887 278-278/? W/SurfaceFlinger: Fail to Open /sys/devices/platform/gpusysfs/fps
510211-14 09:18:13.907 278-278/? D/SurfaceFlinger: FPS : 56.70
510311-14 09:18:13.907 278-278/? W/SurfaceFlinger: Fail to Open /sys/devices/platform/gpusysfs/fps
510411-14 09:18:13.917 278-278/? D/SurfaceFlinger: FPS : 56.70
510511-14 09:18:13.917 278-278/? W/SurfaceFlinger: Fail to Open /sys/devices/platform/gpusysfs/fps
510611-14 09:18:13.937 278-278/? D/SurfaceFlinger: FPS : 56.70
510711-14 09:18:13.937 278-278/? W/SurfaceFlinger: Fail to Open /sys/devices/platform/gpusysfs/fps
510811-14 09:18:13.957 278-278/? D/SurfaceFlinger: FPS : 56.70
510911-14 09:18:13.957 278-278/? W/SurfaceFlinger: Fail to Open /sys/devices/platform/gpusysfs/fps
511011-14 09:18:13.967 278-278/? D/SurfaceFlinger: FPS : 56.70
511111-14 09:18:13.967 278-278/? W/SurfaceFlinger: Fail to Open /sys/devices/platform/gpusysfs/fps
511211-14 09:18:13.987 278-278/? D/SurfaceFlinger: FPS : 56.70
511311-14 09:18:13.987 278-278/? W/SurfaceFlinger: Fail to Open /sys/devices/platform/gpusysfs/fps
511411-14 09:18:14.007 278-278/? D/SurfaceFlinger: FPS : 56.70
511511-14 09:18:14.007 278-278/? W/SurfaceFlinger: Fail to Open /sys/devices/platform/gpusysfs/fps
511611-14 09:18:14.017 278-278/? D/SurfaceFlinger: FPS : 56.70
511711-14 09:18:14.017 278-278/? W/SurfaceFlinger: Fail to Open /sys/devices/platform/gpusysfs/fps
511811-14 09:18:14.037 278-278/? D/SurfaceFlinger: FPS : 56.70
511911-14 09:18:14.037 278-278/? W/SurfaceFlinger: Fail to Open /sys/devices/platform/gpusysfs/fps
512011-14 09:18:14.057 278-278/? D/SurfaceFlinger: FPS : 56.70
512111-14 09:18:14.057 278-278/? W/SurfaceFlinger: Fail to Open /sys/devices/platform/gpusysfs/fps
512211-14 09:18:14.067 278-278/? D/SurfaceFlinger: FPS : 56.70
512311-14 09:18:14.067 278-278/? W/SurfaceFlinger: Fail to Open /sys/devices/platform/gpusysfs/fps
512411-14 09:18:14.087 278-278/? D/SurfaceFlinger: FPS : 56.70
512511-14 09:18:14.087 278-278/? W/SurfaceFlinger: Fail to Open /sys/devices/platform/gpusysfs/fps
512611-14 09:18:14.097 278-278/? D/SurfaceFlinger: FPS : 56.70
512711-14 09:18:14.107 278-278/? W/SurfaceFlinger: Fail to Open /sys/devices/platform/gpusysfs/fps
512811-14 09:18:14.117 278-278/? D/SurfaceFlinger: FPS : 56.70
512911-14 09:18:14.117 278-278/? W/SurfaceFlinger: Fail to Open /sys/devices/platform/gpusysfs/fps
513011-14 09:18:14.137 278-278/? D/SurfaceFlinger: FPS : 56.70
513111-14 09:18:14.137 278-278/? W/SurfaceFlinger: Fail to Open /sys/devices/platform/gpusysfs/fps
513211-14 09:18:14.157 278-278/? D/SurfaceFlinger: FPS : 56.70
513311-14 09:18:14.157 278-278/? W/SurfaceFlinger: Fail to Open /sys/devices/platform/gpusysfs/fps
513411-14 09:18:14.167 278-278/? D/SurfaceFlinger: FPS : 60.14
513511-14 09:18:14.167 278-278/? W/SurfaceFlinger: Fail to Open /sys/devices/platform/gpusysfs/fps
513611-14 09:18:14.187 278-278/? D/SurfaceFlinger: FPS : 60.14
513711-14 09:18:14.187 278-278/? W/SurfaceFlinger: Fail to Open /sys/devices/platform/gpusysfs/fps
513811-14 09:18:14.197 278-278/? D/SurfaceFlinger: FPS : 60.14
513911-14 09:18:14.197 278-278/? W/SurfaceFlinger: Fail to Open /sys/devices/platform/gpusysfs/fps
514011-14 09:18:14.217 278-278/? D/SurfaceFlinger: FPS : 60.14
514111-14 09:18:14.217 278-278/? W/SurfaceFlinger: Fail to Open /sys/devices/platform/gpusysfs/fps
514211-14 09:18:14.237 278-278/? D/SurfaceFlinger: FPS : 60.14
514311-14 09:18:14.237 278-278/? W/SurfaceFlinger: Fail to Open /sys/devices/platform/gpusysfs/fps
514411-14 09:18:14.247 278-278/? D/SurfaceFlinger: FPS : 60.14
514511-14 09:18:14.247 278-278/? W/SurfaceFlinger: Fail to Open /sys/devices/platform/gpusysfs/fps
514611-14 09:18:14.267 278-278/? D/SurfaceFlinger: FPS : 60.14
514711-14 09:18:14.267 278-278/? W/SurfaceFlinger: Fail to Open /sys/devices/platform/gpusysfs/fps
514811-14 09:18:14.287 278-278/? D/SurfaceFlinger: FPS : 60.14
514911-14 09:18:14.287 278-278/? W/SurfaceFlinger: Fail to Open /sys/devices/platform/gpusysfs/fps
515011-14 09:18:14.297 278-278/? D/SurfaceFlinger: FPS : 60.14
515111-14 09:18:14.297 278-278/? W/SurfaceFlinger: Fail to Open /sys/devices/platform/gpusysfs/fps
515211-14 09:18:14.317 278-278/? D/SurfaceFlinger: FPS : 60.14
515311-14 09:18:14.317 278-278/? W/SurfaceFlinger: Fail to Open /sys/devices/platform/gpusysfs/fps
515411-14 09:18:14.337 278-278/? D/SurfaceFlinger: FPS : 60.14
515511-14 09:18:14.337 278-278/? W/SurfaceFlinger: Fail to Open /sys/devices/platform/gpusysfs/fps
515611-14 09:18:14.347 278-278/? D/SurfaceFlinger: FPS : 60.14
515711-14 09:18:14.347 278-278/? W/SurfaceFlinger: Fail to Open /sys/devices/platform/gpusysfs/fps
515811-14 09:18:14.598 25131-25131/? E/SMD: smd Interface open failed errno is 2 -1
515911-14 09:18:14.648 278-278/? D/SurfaceFlinger: FPS : 24.92
516011-14 09:18:14.648 278-278/? W/SurfaceFlinger: Fail to Open /sys/devices/platform/gpusysfs/fps
516111-14 09:18:14.668 278-278/? D/SurfaceFlinger: FPS : 24.92
516211-14 09:18:14.668 278-278/? W/SurfaceFlinger: Fail to Open /sys/devices/platform/gpusysfs/fps
516311-14 09:18:14.688 278-278/? D/SurfaceFlinger: FPS : 24.92
516411-14 09:18:14.688 278-278/? W/SurfaceFlinger: Fail to Open /sys/devices/platform/gpusysfs/fps
516511-14 09:18:14.698 278-278/? D/SurfaceFlinger: FPS : 24.92
516611-14 09:18:14.698 278-278/? W/SurfaceFlinger: Fail to Open /sys/devices/platform/gpusysfs/fps
516711-14 09:18:14.718 278-278/? D/SurfaceFlinger: FPS : 24.92
516811-14 09:18:14.718 278-278/? W/SurfaceFlinger: Fail to Open /sys/devices/platform/gpusysfs/fps
516911-14 09:18:14.738 278-278/? D/SurfaceFlinger: FPS : 24.92
517011-14 09:18:14.738 278-278/? W/SurfaceFlinger: Fail to Open /sys/devices/platform/gpusysfs/fps
517111-14 09:18:14.748 278-278/? D/SurfaceFlinger: FPS : 24.92
517211-14 09:18:14.748 278-278/? W/SurfaceFlinger: Fail to Open /sys/devices/platform/gpusysfs/fps
517311-14 09:18:14.768 278-278/? D/SurfaceFlinger: FPS : 24.92
517411-14 09:18:14.768 278-278/? W/SurfaceFlinger: Fail to Open /sys/devices/platform/gpusysfs/fps
517511-14 09:18:14.788 278-278/? D/SurfaceFlinger: FPS : 24.92
517611-14 09:18:14.788 278-278/? W/SurfaceFlinger: Fail to Open /sys/devices/platform/gpusysfs/fps
517711-14 09:18:14.788 1263-1263/? D/StatusBar.NetworkController: onSignalStrengthsChanged signalStrength=SignalStrength: 9 99 -120 -160 -120 -1 -1 99 2147483647 2147483647 2147483647 -1 2147483647 0x2 gsm|lte level=2
517811-14 09:18:14.788 1263-1263/? D/StatusBar.NetworkController: updateTelephonySignalStrength: hasService=true ss=SignalStrength: 9 99 -120 -160 -120 -1 -1 99 2147483647 2147483647 2147483647 -1 2147483647 0x2 gsm|lte
517911-14 09:18:14.788 1263-1263/? D/StatusBar.NetworkController: updateTelephonySignalStrength: iconLevel=2
518011-14 09:18:14.788 1263-1263/? D/StatusBar.NetworkController: updateTelephonySignalStrength, No signal level. mPhoneSignalIconId = com.android.systemui:drawable/stat_sys_signal_2_auto_rotate mDataSignalIconId = com.android.systemui:drawable/stat_sys_signal_2_auto_rotate mQSPhoneSignalIconId = com.android.systemui:drawable/ic_qs_signal_2 mContentDescriptionPhoneSignal = Phone two bars.
518111-14 09:18:14.788 1263-1263/? D/StatusBar.NetworkController: refreshViews connected={ wifi } level=2 combinedSignalIconId=0x7f020517/com.android.systemui:drawable/stat_sys_wifi_signal_4 mobileLabel=Emergency calls only wifiLabel="Badger"xxxxXXXXxxxxXXXX emergencyOnly=true combinedLabel="Badger"xxxxXXXXxxxxXXXX mAirplaneMode=false mDataActivity=0 mPhoneSignalIconId=0x7f020466/com.android.systemui:drawable/stat_sys_signal_2_auto_rotate mQSPhoneSignalIconId=0x7f02012a/com.android.systemui:drawable/ic_qs_signal_2 mDataDirectionIconId=0x0/(null) mDataSignalIconId=0x7f020466/com.android.systemui:drawable/stat_sys_signal_2_auto_rotate mDataTypeIconId=0x0/(null) mQSDataTypeIconId=0x0/(null) mNoSimIconId=0x0/(null) mWifiIconId=0x7f020517/com.android.systemui:drawable/stat_sys_wifi_signal_4 mQSWifiIconId=0x7f020143/com.android.systemui:drawable/ic_qs_wifi_4 mWifiActivityIconId=0x7f0204e6/com.android.systemui:drawable/stat_sys_signal_in mBluetoothTetherIconId=0x10808cc/android:drawable/stat_sys_tether_bluetooth
518211-14 09:18:14.788 1263-1263/? D/STATUSBAR-WifiQuickSettingButton: onWifiSignalChanged enabled=true enabledDesc:"Badger"
518311-14 09:18:14.798 278-278/? D/SurfaceFlinger: FPS : 24.92
518411-14 09:18:14.798 278-278/? W/SurfaceFlinger: Fail to Open /sys/devices/platform/gpusysfs/fps
518511-14 09:18:14.818 278-278/? D/SurfaceFlinger: FPS : 24.92
518611-14 09:18:14.818 278-278/? W/SurfaceFlinger: Fail to Open /sys/devices/platform/gpusysfs/fps
518711-14 09:18:14.838 278-278/? D/SurfaceFlinger: FPS : 24.92
518811-14 09:18:14.838 278-278/? W/SurfaceFlinger: Fail to Open /sys/devices/platform/gpusysfs/fps
518911-14 09:18:14.848 278-278/? D/SurfaceFlinger: FPS : 24.92
519011-14 09:18:14.848 278-278/? W/SurfaceFlinger: Fail to Open /sys/devices/platform/gpusysfs/fps
519111-14 09:18:14.868 278-278/? D/SurfaceFlinger: FPS : 24.92
519211-14 09:18:14.868 278-278/? W/SurfaceFlinger: Fail to Open /sys/devices/platform/gpusysfs/fps
519311-14 09:18:14.888 278-278/? D/SurfaceFlinger: FPS : 24.92
519411-14 09:18:14.888 278-278/? W/SurfaceFlinger: Fail to Open /sys/devices/platform/gpusysfs/fps
519511-14 09:18:14.898 278-278/? D/SurfaceFlinger: FPS : 24.92
519611-14 09:18:14.898 278-278/? W/SurfaceFlinger: Fail to Open /sys/devices/platform/gpusysfs/fps
519711-14 09:18:15.599 25131-25131/? E/SMD: smd Interface open failed errno is 2 -1
519811-14 09:18:16.069 278-278/? D/SurfaceFlinger: FPS : 11.32
519911-14 09:18:16.069 278-278/? W/SurfaceFlinger: Fail to Open /sys/devices/platform/gpusysfs/fps
520011-14 09:18:16.229 278-278/? D/SurfaceFlinger: FPS : 11.32
520111-14 09:18:16.229 278-278/? W/SurfaceFlinger: Fail to Open /sys/devices/platform/gpusysfs/fps
520211-14 09:18:16.249 278-278/? D/SurfaceFlinger: FPS : 11.32
520311-14 09:18:16.249 278-278/? W/SurfaceFlinger: Fail to Open /sys/devices/platform/gpusysfs/fps
520411-14 09:18:16.269 278-278/? D/SurfaceFlinger: FPS : 11.32
520511-14 09:18:16.269 278-278/? W/SurfaceFlinger: Fail to Open /sys/devices/platform/gpusysfs/fps
520611-14 09:18:16.279 278-278/? D/SurfaceFlinger: FPS : 11.32
520711-14 09:18:16.279 278-278/? W/SurfaceFlinger: Fail to Open /sys/devices/platform/gpusysfs/fps
520811-14 09:18:16.299 278-278/? D/SurfaceFlinger: FPS : 11.32
520911-14 09:18:16.299 278-278/? W/SurfaceFlinger: Fail to Open /sys/devices/platform/gpusysfs/fps
521011-14 09:18:16.319 278-278/? D/SurfaceFlinger: FPS : 11.32
521111-14 09:18:16.319 278-278/? W/SurfaceFlinger: Fail to Open /sys/devices/platform/gpusysfs/fps
521211-14 09:18:16.329 278-278/? D/SurfaceFlinger: FPS : 26.34
521311-14 09:18:16.329 278-278/? W/SurfaceFlinger: Fail to Open /sys/devices/platform/gpusysfs/fps
521411-14 09:18:16.349 278-278/? D/SurfaceFlinger: FPS : 26.34
521511-14 09:18:16.349 278-278/? W/SurfaceFlinger: Fail to Open /sys/devices/platform/gpusysfs/fps
521611-14 09:18:16.369 278-278/? D/SurfaceFlinger: FPS : 26.34
521711-14 09:18:16.369 278-278/? W/SurfaceFlinger: Fail to Open /sys/devices/platform/gpusysfs/fps
521811-14 09:18:16.419 278-278/? D/SurfaceFlinger: FPS : 26.34
521911-14 09:18:16.419 278-278/? W/SurfaceFlinger: Fail to Open /sys/devices/platform/gpusysfs/fps
522011-14 09:18:16.440 278-278/? D/SurfaceFlinger: FPS : 26.34
522111-14 09:18:16.440 278-278/? W/SurfaceFlinger: Fail to Open /sys/devices/platform/gpusysfs/fps
522211-14 09:18:16.450 278-278/? D/SurfaceFlinger: FPS : 26.34
522311-14 09:18:16.450 278-278/? W/SurfaceFlinger: Fail to Open /sys/devices/platform/gpusysfs/fps
522411-14 09:18:16.470 278-278/? D/SurfaceFlinger: FPS : 26.34
522511-14 09:18:16.470 278-278/? W/SurfaceFlinger: Fail to Open /sys/devices/platform/gpusysfs/fps
522611-14 09:18:16.480 278-278/? D/SurfaceFlinger: FPS : 26.34
522711-14 09:18:16.480 278-278/? W/SurfaceFlinger: Fail to Open /sys/devices/platform/gpusysfs/fps
522811-14 09:18:16.500 278-278/? D/SurfaceFlinger: FPS : 26.34
522911-14 09:18:16.500 278-278/? W/SurfaceFlinger: Fail to Open /sys/devices/platform/gpusysfs/fps
523011-14 09:18:16.520 278-278/? D/SurfaceFlinger: FPS : 26.34
523111-14 09:18:16.520 278-278/? W/SurfaceFlinger: Fail to Open /sys/devices/platform/gpusysfs/fps
523211-14 09:18:16.530 278-278/? D/SurfaceFlinger: FPS : 26.34
523311-14 09:18:16.530 278-278/? W/SurfaceFlinger: Fail to Open /sys/devices/platform/gpusysfs/fps
523411-14 09:18:16.550 278-278/? D/SurfaceFlinger: FPS : 26.34
523511-14 09:18:16.550 278-278/? W/SurfaceFlinger: Fail to Open /sys/devices/platform/gpusysfs/fps
523611-14 09:18:16.570 278-278/? D/SurfaceFlinger: FPS : 26.34
523711-14 09:18:16.570 278-278/? W/SurfaceFlinger: Fail to Open /sys/devices/platform/gpusysfs/fps
523811-14 09:18:16.580 278-278/? D/SurfaceFlinger: FPS : 26.34
523911-14 09:18:16.580 278-278/? W/SurfaceFlinger: Fail to Open /sys/devices/platform/gpusysfs/fps
524011-14 09:18:16.600 278-278/? D/SurfaceFlinger: FPS : 52.46
524111-14 09:18:16.600 278-278/? W/SurfaceFlinger: Fail to Open /sys/devices/platform/gpusysfs/fps
524211-14 09:18:16.600 25131-25131/? E/SMD: smd Interface open failed errno is 2 -1
524311-14 09:18:16.620 278-278/? D/SurfaceFlinger: FPS : 52.46
524411-14 09:18:16.620 278-278/? W/SurfaceFlinger: Fail to Open /sys/devices/platform/gpusysfs/fps
524511-14 09:18:16.630 278-278/? D/SurfaceFlinger: FPS : 52.46
524611-14 09:18:16.630 278-278/? W/SurfaceFlinger: Fail to Open /sys/devices/platform/gpusysfs/fps
524711-14 09:18:16.650 278-278/? D/SurfaceFlinger: FPS : 52.46
524811-14 09:18:16.650 278-278/? W/SurfaceFlinger: Fail to Open /sys/devices/platform/gpusysfs/fps
524911-14 09:18:16.660 278-278/? D/SurfaceFlinger: FPS : 52.46
525011-14 09:18:16.670 278-278/? W/SurfaceFlinger: Fail to Open /sys/devices/platform/gpusysfs/fps
525111-14 09:18:16.680 278-278/? D/SurfaceFlinger: FPS : 52.46
525211-14 09:18:16.680 278-278/? W/SurfaceFlinger: Fail to Open /sys/devices/platform/gpusysfs/fps
525311-14 09:18:16.730 278-278/? D/SurfaceFlinger: FPS : 52.46
525411-14 09:18:16.730 278-278/? W/SurfaceFlinger: Fail to Open /sys/devices/platform/gpusysfs/fps
525511-14 09:18:16.750 278-278/? D/SurfaceFlinger: FPS : 52.46
525611-14 09:18:16.750 278-278/? W/SurfaceFlinger: Fail to Open /sys/devices/platform/gpusysfs/fps
525711-14 09:18:16.760 278-278/? D/SurfaceFlinger: FPS : 52.46
525811-14 09:18:16.760 278-278/? W/SurfaceFlinger: Fail to Open /sys/devices/platform/gpusysfs/fps
525911-14 09:18:16.780 278-278/? D/SurfaceFlinger: FPS : 52.46
526011-14 09:18:16.780 278-278/? W/SurfaceFlinger: Fail to Open /sys/devices/platform/gpusysfs/fps
526111-14 09:18:16.800 278-278/? D/SurfaceFlinger: FPS : 52.46
526211-14 09:18:16.800 278-278/? W/SurfaceFlinger: Fail to Open /sys/devices/platform/gpusysfs/fps
526311-14 09:18:16.810 278-278/? D/SurfaceFlinger: FPS : 52.46
526411-14 09:18:16.820 278-278/? W/SurfaceFlinger: Fail to Open /sys/devices/platform/gpusysfs/fps
526511-14 09:18:16.830 278-278/? D/SurfaceFlinger: FPS : 52.46
526611-14 09:18:16.830 278-278/? W/SurfaceFlinger: Fail to Open /sys/devices/platform/gpusysfs/fps
526711-14 09:18:16.850 278-278/? D/SurfaceFlinger: FPS : 52.46
526811-14 09:18:16.850 278-278/? W/SurfaceFlinger: Fail to Open /sys/devices/platform/gpusysfs/fps
526911-14 09:18:16.860 278-278/? D/SurfaceFlinger: FPS : 52.81
527011-14 09:18:16.860 278-278/? W/SurfaceFlinger: Fail to Open /sys/devices/platform/gpusysfs/fps
527111-14 09:18:16.880 278-278/? D/SurfaceFlinger: FPS : 52.81
527211-14 09:18:16.880 278-278/? W/SurfaceFlinger: Fail to Open /sys/devices/platform/gpusysfs/fps
527311-14 09:18:16.900 278-278/? D/SurfaceFlinger: FPS : 52.81
527411-14 09:18:16.900 278-278/? W/SurfaceFlinger: Fail to Open /sys/devices/platform/gpusysfs/fps
527511-14 09:18:16.910 278-278/? D/SurfaceFlinger: FPS : 52.81
527611-14 09:18:16.920 278-278/? W/SurfaceFlinger: Fail to Open /sys/devices/platform/gpusysfs/fps
527711-14 09:18:16.930 278-278/? D/SurfaceFlinger: FPS : 52.81
527811-14 09:18:16.930 278-278/? W/SurfaceFlinger: Fail to Open /sys/devices/platform/gpusysfs/fps
527911-14 09:18:16.950 278-278/? D/SurfaceFlinger: FPS : 52.81
528011-14 09:18:16.950 278-278/? W/SurfaceFlinger: Fail to Open /sys/devices/platform/gpusysfs/fps
528111-14 09:18:16.960 278-278/? D/SurfaceFlinger: FPS : 52.81
528211-14 09:18:16.960 278-278/? W/SurfaceFlinger: Fail to Open /sys/devices/platform/gpusysfs/fps
528311-14 09:18:16.980 278-278/? D/SurfaceFlinger: FPS : 52.81
528411-14 09:18:16.980 278-278/? W/SurfaceFlinger: Fail to Open /sys/devices/platform/gpusysfs/fps
528511-14 09:18:17.060 278-278/? D/SurfaceFlinger: FPS : 52.81
528611-14 09:18:17.060 278-278/? W/SurfaceFlinger: Fail to Open /sys/devices/platform/gpusysfs/fps
528711-14 09:18:17.080 278-278/? D/SurfaceFlinger: FPS : 52.81
528811-14 09:18:17.080 278-278/? W/SurfaceFlinger: Fail to Open /sys/devices/platform/gpusysfs/fps
528911-14 09:18:17.100 278-278/? D/SurfaceFlinger: FPS : 52.81
529011-14 09:18:17.100 278-278/? W/SurfaceFlinger: Fail to Open /sys/devices/platform/gpusysfs/fps
529111-14 09:18:17.110 278-278/? D/SurfaceFlinger: FPS : 52.81
529211-14 09:18:17.110 278-278/? W/SurfaceFlinger: Fail to Open /sys/devices/platform/gpusysfs/fps
529311-14 09:18:17.130 278-278/? D/SurfaceFlinger: FPS : 45.14
529411-14 09:18:17.130 278-278/? W/SurfaceFlinger: Fail to Open /sys/devices/platform/gpusysfs/fps
529511-14 09:18:17.150 278-278/? D/SurfaceFlinger: FPS : 45.14
529611-14 09:18:17.150 278-278/? W/SurfaceFlinger: Fail to Open /sys/devices/platform/gpusysfs/fps
529711-14 09:18:17.160 278-278/? D/SurfaceFlinger: FPS : 45.14
529811-14 09:18:17.160 278-278/? W/SurfaceFlinger: Fail to Open /sys/devices/platform/gpusysfs/fps
529911-14 09:18:17.180 278-278/? D/SurfaceFlinger: FPS : 45.14
530011-14 09:18:17.180 278-278/? W/SurfaceFlinger: Fail to Open /sys/devices/platform/gpusysfs/fps
530111-14 09:18:17.200 278-278/? D/SurfaceFlinger: FPS : 45.14
530211-14 09:18:17.200 278-278/? W/SurfaceFlinger: Fail to Open /sys/devices/platform/gpusysfs/fps
530311-14 09:18:17.210 278-278/? D/SurfaceFlinger: FPS : 45.14
530411-14 09:18:17.210 278-278/? W/SurfaceFlinger: Fail to Open /sys/devices/platform/gpusysfs/fps
530511-14 09:18:17.230 278-278/? D/SurfaceFlinger: FPS : 45.14
530611-14 09:18:17.230 278-278/? W/SurfaceFlinger: Fail to Open /sys/devices/platform/gpusysfs/fps
530711-14 09:18:17.250 278-278/? D/SurfaceFlinger: FPS : 45.14
530811-14 09:18:17.250 278-278/? W/SurfaceFlinger: Fail to Open /sys/devices/platform/gpusysfs/fps
530911-14 09:18:17.260 278-278/? D/SurfaceFlinger: FPS : 45.14
531011-14 09:18:17.260 278-278/? W/SurfaceFlinger: Fail to Open /sys/devices/platform/gpusysfs/fps
531111-14 09:18:17.280 278-278/? D/SurfaceFlinger: FPS : 45.14
531211-14 09:18:17.280 278-278/? W/SurfaceFlinger: Fail to Open /sys/devices/platform/gpusysfs/fps
531311-14 09:18:17.300 278-278/? D/SurfaceFlinger: FPS : 45.14
531411-14 09:18:17.300 278-278/? W/SurfaceFlinger: Fail to Open /sys/devices/platform/gpusysfs/fps
531511-14 09:18:17.310 278-278/? D/SurfaceFlinger: FPS : 45.14
531611-14 09:18:17.310 278-278/? W/SurfaceFlinger: Fail to Open /sys/devices/platform/gpusysfs/fps
531711-14 09:18:17.330 278-278/? D/SurfaceFlinger: FPS : 45.14
531811-14 09:18:17.330 278-278/? W/SurfaceFlinger: Fail to Open /sys/devices/platform/gpusysfs/fps
531911-14 09:18:17.350 278-278/? D/SurfaceFlinger: FPS : 45.14
532011-14 09:18:17.350 278-278/? W/SurfaceFlinger: Fail to Open /sys/devices/platform/gpusysfs/fps
532111-14 09:18:17.360 278-278/? D/SurfaceFlinger: FPS : 45.14
532211-14 09:18:17.360 278-278/? W/SurfaceFlinger: Fail to Open /sys/devices/platform/gpusysfs/fps
532311-14 09:18:17.380 278-278/? D/SurfaceFlinger: FPS : 45.14
532411-14 09:18:17.380 278-278/? W/SurfaceFlinger: Fail to Open /sys/devices/platform/gpusysfs/fps
532511-14 09:18:17.400 278-278/? D/SurfaceFlinger: FPS : 60.15
532611-14 09:18:17.400 278-278/? W/SurfaceFlinger: Fail to Open /sys/devices/platform/gpusysfs/fps
532711-14 09:18:17.410 278-278/? D/SurfaceFlinger: FPS : 60.15
532811-14 09:18:17.410 278-278/? W/SurfaceFlinger: Fail to Open /sys/devices/platform/gpusysfs/fps
532911-14 09:18:17.430 278-278/? D/SurfaceFlinger: FPS : 60.15
533011-14 09:18:17.430 278-278/? W/SurfaceFlinger: Fail to Open /sys/devices/platform/gpusysfs/fps
533111-14 09:18:17.450 278-278/? D/SurfaceFlinger: FPS : 60.15
533211-14 09:18:17.450 278-278/? W/SurfaceFlinger: Fail to Open /sys/devices/platform/gpusysfs/fps
533311-14 09:18:17.461 278-278/? D/SurfaceFlinger: FPS : 60.15
533411-14 09:18:17.461 278-278/? W/SurfaceFlinger: Fail to Open /sys/devices/platform/gpusysfs/fps
533511-14 09:18:17.481 278-278/? D/SurfaceFlinger: FPS : 60.15
533611-14 09:18:17.481 278-278/? W/SurfaceFlinger: Fail to Open /sys/devices/platform/gpusysfs/fps
533711-14 09:18:17.501 278-278/? D/SurfaceFlinger: FPS : 60.15
533811-14 09:18:17.501 278-278/? W/SurfaceFlinger: Fail to Open /sys/devices/platform/gpusysfs/fps
533911-14 09:18:17.511 278-278/? D/SurfaceFlinger: FPS : 60.15
534011-14 09:18:17.511 278-278/? W/SurfaceFlinger: Fail to Open /sys/devices/platform/gpusysfs/fps
534111-14 09:18:17.531 278-278/? D/SurfaceFlinger: FPS : 60.15
534211-14 09:18:17.531 278-278/? W/SurfaceFlinger: Fail to Open /sys/devices/platform/gpusysfs/fps
534311-14 09:18:17.551 278-278/? D/SurfaceFlinger: FPS : 60.15
534411-14 09:18:17.551 278-278/? W/SurfaceFlinger: Fail to Open /sys/devices/platform/gpusysfs/fps
534511-14 09:18:17.561 278-278/? D/SurfaceFlinger: FPS : 60.15
534611-14 09:18:17.561 278-278/? W/SurfaceFlinger: Fail to Open /sys/devices/platform/gpusysfs/fps
534711-14 09:18:17.581 278-278/? D/SurfaceFlinger: FPS : 60.15
534811-14 09:18:17.581 278-278/? W/SurfaceFlinger: Fail to Open /sys/devices/platform/gpusysfs/fps
534911-14 09:18:17.601 278-278/? D/SurfaceFlinger: FPS : 60.15
535011-14 09:18:17.601 278-278/? W/SurfaceFlinger: Fail to Open /sys/devices/platform/gpusysfs/fps
535111-14 09:18:17.601 25131-25131/? E/SMD: smd Interface open failed errno is 2 -1
535211-14 09:18:17.611 278-278/? D/SurfaceFlinger: FPS : 60.15
535311-14 09:18:17.611 278-278/? W/SurfaceFlinger: Fail to Open /sys/devices/platform/gpusysfs/fps
535411-14 09:18:17.631 278-278/? D/SurfaceFlinger: FPS : 60.15
535511-14 09:18:17.631 278-278/? W/SurfaceFlinger: Fail to Open /sys/devices/platform/gpusysfs/fps
535611-14 09:18:17.651 278-278/? D/SurfaceFlinger: FPS : 60.15
535711-14 09:18:17.651 278-278/? W/SurfaceFlinger: Fail to Open /sys/devices/platform/gpusysfs/fps
535811-14 09:18:17.661 278-278/? D/SurfaceFlinger: FPS : 60.17
535911-14 09:18:17.661 278-278/? W/SurfaceFlinger: Fail to Open /sys/devices/platform/gpusysfs/fps
536011-14 09:18:17.681 278-278/? D/SurfaceFlinger: FPS : 60.17
536111-14 09:18:17.681 278-278/? W/SurfaceFlinger: Fail to Open /sys/devices/platform/gpusysfs/fps
536211-14 09:18:17.701 278-278/? D/SurfaceFlinger: FPS : 60.17
536311-14 09:18:17.701 278-278/? W/SurfaceFlinger: Fail to Open /sys/devices/platform/gpusysfs/fps
536411-14 09:18:17.711 278-278/? D/SurfaceFlinger: FPS : 60.17
536511-14 09:18:17.711 278-278/? W/SurfaceFlinger: Fail to Open /sys/devices/platform/gpusysfs/fps
536611-14 09:18:17.731 278-278/? D/SurfaceFlinger: FPS : 60.17
536711-14 09:18:17.731 278-278/? W/SurfaceFlinger: Fail to Open /sys/devices/platform/gpusysfs/fps
536811-14 09:18:17.751 278-278/? D/SurfaceFlinger: FPS : 60.17
536911-14 09:18:17.751 278-278/? W/SurfaceFlinger: Fail to Open /sys/devices/platform/gpusysfs/fps
537011-14 09:18:17.761 278-278/? D/SurfaceFlinger: FPS : 60.17
537111-14 09:18:17.761 278-278/? W/SurfaceFlinger: Fail to Open /sys/devices/platform/gpusysfs/fps
537211-14 09:18:17.781 278-278/? D/SurfaceFlinger: FPS : 60.17
537311-14 09:18:17.781 278-278/? W/SurfaceFlinger: Fail to Open /sys/devices/platform/gpusysfs/fps
537411-14 09:18:17.801 278-278/? D/SurfaceFlinger: FPS : 60.17
537511-14 09:18:17.801 278-278/? W/SurfaceFlinger: Fail to Open /sys/devices/platform/gpusysfs/fps
537611-14 09:18:17.811 278-278/? D/SurfaceFlinger: FPS : 60.17
537711-14 09:18:17.811 278-278/? W/SurfaceFlinger: Fail to Open /sys/devices/platform/gpusysfs/fps
537811-14 09:18:17.831 278-278/? D/SurfaceFlinger: FPS : 60.17
537911-14 09:18:17.831 278-278/? W/SurfaceFlinger: Fail to Open /sys/devices/platform/gpusysfs/fps
538011-14 09:18:17.851 278-278/? D/SurfaceFlinger: FPS : 60.17
538111-14 09:18:17.851 278-278/? W/SurfaceFlinger: Fail to Open /sys/devices/platform/gpusysfs/fps
538211-14 09:18:17.861 278-278/? D/SurfaceFlinger: FPS : 60.17
538311-14 09:18:17.861 278-278/? W/SurfaceFlinger: Fail to Open /sys/devices/platform/gpusysfs/fps
538411-14 09:18:17.881 278-278/? D/SurfaceFlinger: FPS : 60.17
538511-14 09:18:17.881 278-278/? W/SurfaceFlinger: Fail to Open /sys/devices/platform/gpusysfs/fps
538611-14 09:18:17.891 278-278/? D/SurfaceFlinger: FPS : 60.17
538711-14 09:18:17.891 278-278/? W/SurfaceFlinger: Fail to Open /sys/devices/platform/gpusysfs/fps
538811-14 09:18:17.911 278-278/? D/SurfaceFlinger: FPS : 60.17
538911-14 09:18:17.911 278-278/? W/SurfaceFlinger: Fail to Open /sys/devices/platform/gpusysfs/fps
539011-14 09:18:17.931 278-278/? D/SurfaceFlinger: FPS : 60.17
539111-14 09:18:17.931 278-278/? W/SurfaceFlinger: Fail to Open /sys/devices/platform/gpusysfs/fps
539211-14 09:18:17.941 25256-25256/? E/Diag_Lib:  Diag_LSM_Init: Failed to open handle to diag driver, error = 2
539311-14 09:18:17.941 278-278/? D/SurfaceFlinger: FPS : 60.17
539411-14 09:18:17.951 278-278/? W/SurfaceFlinger: Fail to Open /sys/devices/platform/gpusysfs/fps
539511-14 09:18:17.961 278-278/? D/SurfaceFlinger: FPS : 60.17
539611-14 09:18:17.961 278-278/? W/SurfaceFlinger: Fail to Open /sys/devices/platform/gpusysfs/fps
539711-14 09:18:17.981 278-278/? D/SurfaceFlinger: FPS : 60.17
539811-14 09:18:17.981 278-278/? W/SurfaceFlinger: Fail to Open /sys/devices/platform/gpusysfs/fps
539911-14 09:18:17.991 278-278/? D/SurfaceFlinger: FPS : 60.17
540011-14 09:18:17.991 278-278/? W/SurfaceFlinger: Fail to Open /sys/devices/platform/gpusysfs/fps
540111-14 09:18:18.011 278-278/? D/SurfaceFlinger: FPS : 60.17
540211-14 09:18:18.011 278-278/? W/SurfaceFlinger: Fail to Open /sys/devices/platform/gpusysfs/fps
540311-14 09:18:18.031 15042-15524/? D/GeckoIdleService: Get idle time: time since reset 180010 msec
540411-14 09:18:18.031 15042-15524/? D/GeckoIdleService: Idle timer callback: current idle time 180010 msec
540511-14 09:18:18.031 15042-15524/? D/GeckoIdleService: next timeout 4294967114989 msec from now
540611-14 09:18:18.031 15042-15524/? D/GeckoIdleService: SetTimerExpiryIfBefore: next timeout 4294967114989 msec from now
540711-14 09:18:18.031 15042-15524/? D/GeckoIdleService: reset timer expiry to 4294967114998 msec from now
540811-14 09:18:18.031 15042-15524/? D/GeckoIdleService: Idle timer callback: tell observer 0x8b5ffa00 user is idle
540911-14 09:18:18.031 15042-15524/? D/GeckoIdleService: Notifying idle-daily observers
541011-14 09:18:18.051 278-278/? D/SurfaceFlinger: FPS : 60.17
541111-14 09:18:18.051 278-278/? W/SurfaceFlinger: Fail to Open /sys/devices/platform/gpusysfs/fps
541211-14 09:18:18.061 278-278/? D/SurfaceFlinger: FPS : 60.17
541311-14 09:18:18.061 278-278/? W/SurfaceFlinger: Fail to Open /sys/devices/platform/gpusysfs/fps
541411-14 09:18:18.081 278-278/? D/SurfaceFlinger: FPS : 60.17
541511-14 09:18:18.081 278-278/? W/SurfaceFlinger: Fail to Open /sys/devices/platform/gpusysfs/fps
541611-14 09:18:18.081 1263-1263/? D/StatusBar.NetworkController: onSignalStrengthsChanged signalStrength=SignalStrength: 10 99 -120 -160 -120 -1 -1 99 2147483647 2147483647 2147483647 -1 2147483647 0x3 gsm|lte level=3
541711-14 09:18:18.081 1263-1263/? D/StatusBar.NetworkController: updateTelephonySignalStrength: hasService=true ss=SignalStrength: 10 99 -120 -160 -120 -1 -1 99 2147483647 2147483647 2147483647 -1 2147483647 0x3 gsm|lte
541811-14 09:18:18.081 1263-1263/? D/StatusBar.NetworkController: updateTelephonySignalStrength: iconLevel=3
541911-14 09:18:18.081 1263-1263/? D/StatusBar.NetworkController: updateTelephonySignalStrength, No signal level. mPhoneSignalIconId = com.android.systemui:drawable/stat_sys_signal_3_auto_rotate mDataSignalIconId = com.android.systemui:drawable/stat_sys_signal_3_auto_rotate mQSPhoneSignalIconId = com.android.systemui:drawable/ic_qs_signal_3 mContentDescriptionPhoneSignal = Phone three bars.
542011-14 09:18:18.081 1263-1263/? D/StatusBar.NetworkController: refreshViews connected={ wifi } level=3 combinedSignalIconId=0x7f020517/com.android.systemui:drawable/stat_sys_wifi_signal_4 mobileLabel=Emergency calls only wifiLabel="Badger"xxxxXXXXxxxxXXXX emergencyOnly=true combinedLabel="Badger"xxxxXXXXxxxxXXXX mAirplaneMode=false mDataActivity=0 mPhoneSignalIconId=0x7f02048e/com.android.systemui:drawable/stat_sys_signal_3_auto_rotate mQSPhoneSignalIconId=0x7f02012b/com.android.systemui:drawable/ic_qs_signal_3 mDataDirectionIconId=0x0/(null) mDataSignalIconId=0x7f02048e/com.android.systemui:drawable/stat_sys_signal_3_auto_rotate mDataTypeIconId=0x0/(null) mQSDataTypeIconId=0x0/(null) mNoSimIconId=0x0/(null) mWifiIconId=0x7f020517/com.android.systemui:drawable/stat_sys_wifi_signal_4 mQSWifiIconId=0x7f020143/com.android.systemui:drawable/ic_qs_wifi_4 mWifiActivityIconId=0x7f0204e6/com.android.systemui:drawable/stat_sys_signal_in mBluetoothTetherIconId=0x10808cc/android:drawable/stat_sys_tether_bluetooth
542111-14 09:18:18.081 1263-1263/? D/STATUSBAR-WifiQuickSettingButton: onWifiSignalChanged enabled=true enabledDesc:"Badger"
542211-14 09:18:18.081 1263-1263/? D/StatusBar.NetworkController: refreshSignalCluster - setNWBoosterIndicators(false)
542311-14 09:18:18.081 1263-1263/? D/StatusBar.NetworkController: applyOpen
542411-14 09:18:18.091 1263-1263/? D/StatusBar.NetworkController: refreshSignalCluster - setNWBoosterIndicators(false)
542511-14 09:18:18.091 1263-1263/? D/StatusBar.NetworkController: applyOpen
542611-14 09:18:18.091 1263-1263/? D/StatusBar.NetworkController: refreshSignalCluster - setNWBoosterIndicators(false)
542711-14 09:18:18.091 1263-1263/? D/StatusBar.NetworkController: applyOpen
542811-14 09:18:18.091 1263-1263/? D/StatusBar.NetworkController: refreshSignalCluster - setNWBoosterIndicators(false)
542911-14 09:18:18.091 1263-1263/? D/StatusBar.NetworkController: applyOpen
543011-14 09:18:18.111 278-278/? D/SurfaceFlinger: FPS : 60.17
543111-14 09:18:18.111 278-278/? W/SurfaceFlinger: Fail to Open /sys/devices/platform/gpusysfs/fps
543211-14 09:18:18.121 15042-15524/? D/GeckoIdleService: Remove observer 0x8b5ffa00 (180 seconds), 0 remain idle
543311-14 09:18:18.131 278-278/? D/SurfaceFlinger: FPS : 60.17
543411-14 09:18:18.131 278-278/? W/SurfaceFlinger: Fail to Open /sys/devices/platform/gpusysfs/fps
543511-14 09:18:18.131 15042-15524/? D/GeckoIdleService: Storing last idle time as 1479111498
543611-14 09:18:18.141 278-278/? D/SurfaceFlinger: FPS : 60.17
543711-14 09:18:18.141 278-278/? W/SurfaceFlinger: Fail to Open /sys/devices/platform/gpusysfs/fps
543811-14 09:18:18.161 278-278/? D/SurfaceFlinger: FPS : 60.17
543911-14 09:18:18.161 278-278/? W/SurfaceFlinger: Fail to Open /sys/devices/platform/gpusysfs/fps
544011-14 09:18:18.181 278-278/? D/SurfaceFlinger: FPS : 60.17
544111-14 09:18:18.181 278-278/? W/SurfaceFlinger: Fail to Open /sys/devices/platform/gpusysfs/fps
544211-14 09:18:18.191 278-278/? D/SurfaceFlinger: FPS : 52.57
544311-14 09:18:18.191 278-278/? W/SurfaceFlinger: Fail to Open /sys/devices/platform/gpusysfs/fps
544411-14 09:18:18.211 278-278/? D/SurfaceFlinger: FPS : 52.57
544511-14 09:18:18.211 278-278/? W/SurfaceFlinger: Fail to Open /sys/devices/platform/gpusysfs/fps
544611-14 09:18:18.231 278-278/? D/SurfaceFlinger: FPS : 52.57
544711-14 09:18:18.231 278-278/? W/SurfaceFlinger: Fail to Open /sys/devices/platform/gpusysfs/fps
544811-14 09:18:18.241 278-278/? D/SurfaceFlinger: FPS : 52.57
544911-14 09:18:18.241 278-278/? W/SurfaceFlinger: Fail to Open /sys/devices/platform/gpusysfs/fps
545011-14 09:18:18.261 278-278/? D/SurfaceFlinger: FPS : 52.57
545111-14 09:18:18.261 278-278/? W/SurfaceFlinger: Fail to Open /sys/devices/platform/gpusysfs/fps
545211-14 09:18:18.281 278-278/? D/SurfaceFlinger: FPS : 52.57
545311-14 09:18:18.281 278-278/? W/SurfaceFlinger: Fail to Open /sys/devices/platform/gpusysfs/fps
545411-14 09:18:18.291 278-278/? D/SurfaceFlinger: FPS : 52.57
545511-14 09:18:18.291 278-278/? W/SurfaceFlinger: Fail to Open /sys/devices/platform/gpusysfs/fps
545611-14 09:18:18.311 278-278/? D/SurfaceFlinger: FPS : 52.57
545711-14 09:18:18.311 278-278/? W/SurfaceFlinger: Fail to Open /sys/devices/platform/gpusysfs/fps
545811-14 09:18:18.331 278-278/? D/SurfaceFlinger: FPS : 52.57
545911-14 09:18:18.331 278-278/? W/SurfaceFlinger: Fail to Open /sys/devices/platform/gpusysfs/fps
546011-14 09:18:18.341 278-278/? D/SurfaceFlinger: FPS : 52.57
546111-14 09:18:18.341 278-278/? W/SurfaceFlinger: Fail to Open /sys/devices/platform/gpusysfs/fps
546211-14 09:18:18.361 278-278/? D/SurfaceFlinger: FPS : 52.57
546311-14 09:18:18.361 278-278/? W/SurfaceFlinger: Fail to Open /sys/devices/platform/gpusysfs/fps
546411-14 09:18:18.381 278-278/? D/SurfaceFlinger: FPS : 52.57
546511-14 09:18:18.381 278-278/? W/SurfaceFlinger: Fail to Open /sys/devices/platform/gpusysfs/fps
546611-14 09:18:18.391 278-278/? D/SurfaceFlinger: FPS : 52.57
546711-14 09:18:18.391 278-278/? W/SurfaceFlinger: Fail to Open /sys/devices/platform/gpusysfs/fps
546811-14 09:18:18.411 278-278/? D/SurfaceFlinger: FPS : 52.57
546911-14 09:18:18.411 278-278/? W/SurfaceFlinger: Fail to Open /sys/devices/platform/gpusysfs/fps
547011-14 09:18:18.431 278-278/? D/SurfaceFlinger: FPS : 52.57
547111-14 09:18:18.431 278-278/? W/SurfaceFlinger: Fail to Open /sys/devices/platform/gpusysfs/fps
547211-14 09:18:18.441 278-278/? D/SurfaceFlinger: FPS : 52.57
547311-14 09:18:18.441 278-278/? W/SurfaceFlinger: Fail to Open /sys/devices/platform/gpusysfs/fps
547411-14 09:18:18.461 278-278/? D/SurfaceFlinger: FPS : 60.21
547511-14 09:18:18.461 278-278/? W/SurfaceFlinger: Fail to Open /sys/devices/platform/gpusysfs/fps
547611-14 09:18:18.482 278-278/? D/SurfaceFlinger: FPS : 60.21
547711-14 09:18:18.482 278-278/? W/SurfaceFlinger: Fail to Open /sys/devices/platform/gpusysfs/fps
547811-14 09:18:18.492 278-278/? D/SurfaceFlinger: FPS : 60.21
547911-14 09:18:18.492 278-278/? W/SurfaceFlinger: Fail to Open /sys/devices/platform/gpusysfs/fps
548011-14 09:18:18.512 278-278/? D/SurfaceFlinger: FPS : 60.21
548111-14 09:18:18.512 278-278/? W/SurfaceFlinger: Fail to Open /sys/devices/platform/gpusysfs/fps
548211-14 09:18:18.542 278-278/? D/SurfaceFlinger: FPS : 60.21
548311-14 09:18:18.542 278-278/? W/SurfaceFlinger: Fail to Open /sys/devices/platform/gpusysfs/fps
548411-14 09:18:18.562 278-278/? D/SurfaceFlinger: FPS : 60.21
548511-14 09:18:18.562 278-278/? W/SurfaceFlinger: Fail to Open /sys/devices/platform/gpusysfs/fps
548611-14 09:18:18.582 278-278/? D/SurfaceFlinger: FPS : 60.21
548711-14 09:18:18.582 278-278/? W/SurfaceFlinger: Fail to Open /sys/devices/platform/gpusysfs/fps
548811-14 09:18:18.592 278-278/? D/SurfaceFlinger: FPS : 60.21
548911-14 09:18:18.592 278-278/? W/SurfaceFlinger: Fail to Open /sys/devices/platform/gpusysfs/fps
549011-14 09:18:18.602 25131-25131/? E/SMD: smd Interface open failed errno is 2 -1
549111-14 09:18:18.612 278-278/? D/SurfaceFlinger: FPS : 60.21
549211-14 09:18:18.612 278-278/? W/SurfaceFlinger: Fail to Open /sys/devices/platform/gpusysfs/fps
549311-14 09:18:18.632 278-278/? D/SurfaceFlinger: FPS : 60.21
549411-14 09:18:18.632 278-278/? W/SurfaceFlinger: Fail to Open /sys/devices/platform/gpusysfs/fps
549511-14 09:18:18.642 278-278/? D/SurfaceFlinger: FPS : 60.21
549611-14 09:18:18.642 278-278/? W/SurfaceFlinger: Fail to Open /sys/devices/platform/gpusysfs/fps
549711-14 09:18:18.662 278-278/? D/SurfaceFlinger: FPS : 60.21
549811-14 09:18:18.662 278-278/? W/SurfaceFlinger: Fail to Open /sys/devices/platform/gpusysfs/fps
549911-14 09:18:18.682 278-278/? D/SurfaceFlinger: FPS : 60.21
550011-14 09:18:18.682 278-278/? W/SurfaceFlinger: Fail to Open /sys/devices/platform/gpusysfs/fps
550111-14 09:18:18.692 278-278/? D/SurfaceFlinger: FPS : 60.21
550211-14 09:18:18.692 278-278/? W/SurfaceFlinger: Fail to Open /sys/devices/platform/gpusysfs/fps
550311-14 09:18:18.732 278-278/? D/SurfaceFlinger: FPS : 52.64
550411-14 09:18:18.732 278-278/? W/SurfaceFlinger: Fail to Open /sys/devices/platform/gpusysfs/fps
550511-14 09:18:18.742 278-278/? D/SurfaceFlinger: FPS : 52.64
550611-14 09:18:18.742 278-278/? W/SurfaceFlinger: Fail to Open /sys/devices/platform/gpusysfs/fps
550711-14 09:18:18.762 278-278/? D/SurfaceFlinger: FPS : 52.64
550811-14 09:18:18.762 278-278/? W/SurfaceFlinger: Fail to Open /sys/devices/platform/gpusysfs/fps
550911-14 09:18:18.782 278-278/? D/SurfaceFlinger: FPS : 52.64
551011-14 09:18:18.782 278-278/? W/SurfaceFlinger: Fail to Open /sys/devices/platform/gpusysfs/fps
551111-14 09:18:18.792 278-278/? D/SurfaceFlinger: FPS : 52.64
551211-14 09:18:18.792 278-278/? W/SurfaceFlinger: Fail to Open /sys/devices/platform/gpusysfs/fps
551311-14 09:18:18.812 278-278/? D/SurfaceFlinger: FPS : 52.64
551411-14 09:18:18.812 278-278/? W/SurfaceFlinger: Fail to Open /sys/devices/platform/gpusysfs/fps
551511-14 09:18:18.832 278-278/? D/SurfaceFlinger: FPS : 52.64
551611-14 09:18:18.832 278-278/? W/SurfaceFlinger: Fail to Open /sys/devices/platform/gpusysfs/fps
551711-14 09:18:18.842 278-278/? D/SurfaceFlinger: FPS : 52.64
551811-14 09:18:18.842 278-278/? W/SurfaceFlinger: Fail to Open /sys/devices/platform/gpusysfs/fps
551911-14 09:18:18.862 278-278/? D/SurfaceFlinger: FPS : 52.64
552011-14 09:18:18.862 278-278/? W/SurfaceFlinger: Fail to Open /sys/devices/platform/gpusysfs/fps
552111-14 09:18:18.892 278-278/? D/SurfaceFlinger: FPS : 52.64
552211-14 09:18:18.892 278-278/? W/SurfaceFlinger: Fail to Open /sys/devices/platform/gpusysfs/fps
552311-14 09:18:18.912 278-278/? D/SurfaceFlinger: FPS : 52.64
552411-14 09:18:18.912 278-278/? W/SurfaceFlinger: Fail to Open /sys/devices/platform/gpusysfs/fps
552511-14 09:18:18.932 278-278/? D/SurfaceFlinger: FPS : 52.64
552611-14 09:18:18.932 278-278/? W/SurfaceFlinger: Fail to Open /sys/devices/platform/gpusysfs/fps
552711-14 09:18:18.942 278-278/? D/SurfaceFlinger: FPS : 52.64
552811-14 09:18:18.942 278-278/? W/SurfaceFlinger: Fail to Open /sys/devices/platform/gpusysfs/fps
552911-14 09:18:18.962 278-278/? D/SurfaceFlinger: FPS : 52.64
553011-14 09:18:18.962 278-278/? W/SurfaceFlinger: Fail to Open /sys/devices/platform/gpusysfs/fps
553111-14 09:18:18.982 278-278/? D/SurfaceFlinger: FPS : 52.64
553211-14 09:18:18.982 278-278/? W/SurfaceFlinger: Fail to Open /sys/devices/platform/gpusysfs/fps
553311-14 09:18:18.992 278-278/? D/SurfaceFlinger: FPS : 56.41
553411-14 09:18:18.992 278-278/? W/SurfaceFlinger: Fail to Open /sys/devices/platform/gpusysfs/fps
553511-14 09:18:19.012 278-278/? D/SurfaceFlinger: FPS : 56.41
553611-14 09:18:19.012 278-278/? W/SurfaceFlinger: Fail to Open /sys/devices/platform/gpusysfs/fps
553711-14 09:18:19.032 278-278/? D/SurfaceFlinger: FPS : 56.41
553811-14 09:18:19.032 278-278/? W/SurfaceFlinger: Fail to Open /sys/devices/platform/gpusysfs/fps
553911-14 09:18:19.042 278-278/? D/SurfaceFlinger: FPS : 56.41
554011-14 09:18:19.042 278-278/? W/SurfaceFlinger: Fail to Open /sys/devices/platform/gpusysfs/fps
554111-14 09:18:19.062 278-278/? D/SurfaceFlinger: FPS : 56.41
554211-14 09:18:19.062 278-278/? W/SurfaceFlinger: Fail to Open /sys/devices/platform/gpusysfs/fps
554311-14 09:18:19.082 278-278/? D/SurfaceFlinger: FPS : 56.41
554411-14 09:18:19.082 278-278/? W/SurfaceFlinger: Fail to Open /sys/devices/platform/gpusysfs/fps
554511-14 09:18:19.092 278-278/? D/SurfaceFlinger: FPS : 56.41
554611-14 09:18:19.092 278-278/? W/SurfaceFlinger: Fail to Open /sys/devices/platform/gpusysfs/fps
554711-14 09:18:19.112 278-278/? D/SurfaceFlinger: FPS : 56.41
554811-14 09:18:19.112 278-278/? W/SurfaceFlinger: Fail to Open /sys/devices/platform/gpusysfs/fps
554911-14 09:18:19.132 278-278/? D/SurfaceFlinger: FPS : 56.41
555011-14 09:18:19.132 278-278/? W/SurfaceFlinger: Fail to Open /sys/devices/platform/gpusysfs/fps
555111-14 09:18:19.142 278-278/? D/SurfaceFlinger: FPS : 56.41
555211-14 09:18:19.142 278-278/? W/SurfaceFlinger: Fail to Open /sys/devices/platform/gpusysfs/fps
555311-14 09:18:19.162 278-278/? D/SurfaceFlinger: FPS : 56.41
555411-14 09:18:19.162 278-278/? W/SurfaceFlinger: Fail to Open /sys/devices/platform/gpusysfs/fps
555511-14 09:18:19.172 278-278/? D/SurfaceFlinger: FPS : 56.41
555611-14 09:18:19.172 278-278/? W/SurfaceFlinger: Fail to Open /sys/devices/platform/gpusysfs/fps
555711-14 09:18:19.192 278-278/? D/SurfaceFlinger: FPS : 56.41
555811-14 09:18:19.192 278-278/? W/SurfaceFlinger: Fail to Open /sys/devices/platform/gpusysfs/fps
555911-14 09:18:19.212 278-278/? D/SurfaceFlinger: FPS : 56.41
556011-14 09:18:19.212 278-278/? W/SurfaceFlinger: Fail to Open /sys/devices/platform/gpusysfs/fps
556111-14 09:18:19.222 278-278/? D/SurfaceFlinger: FPS : 56.41
556211-14 09:18:19.222 278-278/? W/SurfaceFlinger: Fail to Open /sys/devices/platform/gpusysfs/fps
556311-14 09:18:19.242 278-278/? D/SurfaceFlinger: FPS : 56.41
556411-14 09:18:19.242 278-278/? W/SurfaceFlinger: Fail to Open /sys/devices/platform/gpusysfs/fps
556511-14 09:18:19.262 278-278/? D/SurfaceFlinger: FPS : 60.19
556611-14 09:18:19.262 278-278/? W/SurfaceFlinger: Fail to Open /sys/devices/platform/gpusysfs/fps
556711-14 09:18:19.272 278-278/? D/SurfaceFlinger: FPS : 60.19
556811-14 09:18:19.272 278-278/? W/SurfaceFlinger: Fail to Open /sys/devices/platform/gpusysfs/fps
556911-14 09:18:19.292 278-278/? D/SurfaceFlinger: FPS : 60.19
557011-14 09:18:19.292 278-278/? W/SurfaceFlinger: Fail to Open /sys/devices/platform/gpusysfs/fps
557111-14 09:18:19.312 278-278/? D/SurfaceFlinger: FPS : 60.19
557211-14 09:18:19.312 278-278/? W/SurfaceFlinger: Fail to Open /sys/devices/platform/gpusysfs/fps
557311-14 09:18:19.322 278-278/? D/SurfaceFlinger: FPS : 60.19
557411-14 09:18:19.332 278-278/? W/SurfaceFlinger: Fail to Open /sys/devices/platform/gpusysfs/fps
557511-14 09:18:19.342 278-278/? D/SurfaceFlinger: FPS : 60.19
557611-14 09:18:19.342 278-278/? W/SurfaceFlinger: Fail to Open /sys/devices/platform/gpusysfs/fps
557711-14 09:18:19.362 278-278/? D/SurfaceFlinger: FPS : 60.19
557811-14 09:18:19.362 278-278/? W/SurfaceFlinger: Fail to Open /sys/devices/platform/gpusysfs/fps
557911-14 09:18:19.372 278-278/? D/SurfaceFlinger: FPS : 60.19
558011-14 09:18:19.372 278-278/? W/SurfaceFlinger: Fail to Open /sys/devices/platform/gpusysfs/fps
558111-14 09:18:19.392 278-278/? D/SurfaceFlinger: FPS : 60.19
558211-14 09:18:19.392 278-278/? W/SurfaceFlinger: Fail to Open /sys/devices/platform/gpusysfs/fps
558311-14 09:18:19.412 278-278/? D/SurfaceFlinger: FPS : 60.19
558411-14 09:18:19.412 278-278/? W/SurfaceFlinger: Fail to Open /sys/devices/platform/gpusysfs/fps
558511-14 09:18:19.422 278-278/? D/SurfaceFlinger: FPS : 60.19
558611-14 09:18:19.422 278-278/? W/SurfaceFlinger: Fail to Open /sys/devices/platform/gpusysfs/fps
558711-14 09:18:19.442 278-278/? D/SurfaceFlinger: FPS : 60.19
558811-14 09:18:19.442 278-278/? W/SurfaceFlinger: Fail to Open /sys/devices/platform/gpusysfs/fps
558911-14 09:18:19.462 278-278/? D/SurfaceFlinger: FPS : 60.19
559011-14 09:18:19.462 278-278/? W/SurfaceFlinger: Fail to Open /sys/devices/platform/gpusysfs/fps
559111-14 09:18:19.472 278-278/? D/SurfaceFlinger: FPS : 60.19
559211-14 09:18:19.472 278-278/? W/SurfaceFlinger: Fail to Open /sys/devices/platform/gpusysfs/fps
559311-14 09:18:19.492 278-278/? D/SurfaceFlinger: FPS : 60.19
559411-14 09:18:19.492 278-278/? W/SurfaceFlinger: Fail to Open /sys/devices/platform/gpusysfs/fps
559511-14 09:18:19.513 278-278/? D/SurfaceFlinger: FPS : 60.19
559611-14 09:18:19.513 278-278/? W/SurfaceFlinger: Fail to Open /sys/devices/platform/gpusysfs/fps
559711-14 09:18:19.523 278-278/? D/SurfaceFlinger: FPS : 60.14
559811-14 09:18:19.523 278-278/? W/SurfaceFlinger: Fail to Open /sys/devices/platform/gpusysfs/fps
559911-14 09:18:19.543 278-278/? D/SurfaceFlinger: FPS : 60.14
560011-14 09:18:19.543 278-278/? W/SurfaceFlinger: Fail to Open /sys/devices/platform/gpusysfs/fps
560111-14 09:18:19.563 278-278/? D/SurfaceFlinger: FPS : 60.14
560211-14 09:18:19.563 278-278/? W/SurfaceFlinger: Fail to Open /sys/devices/platform/gpusysfs/fps
560311-14 09:18:19.573 278-278/? D/SurfaceFlinger: FPS : 60.14
560411-14 09:18:19.573 278-278/? W/SurfaceFlinger: Fail to Open /sys/devices/platform/gpusysfs/fps
560511-14 09:18:19.593 278-278/? D/SurfaceFlinger: FPS : 60.14
560611-14 09:18:19.593 278-278/? W/SurfaceFlinger: Fail to Open /sys/devices/platform/gpusysfs/fps
560711-14 09:18:19.603 25131-25131/? E/SMD: smd Interface open failed errno is 2 -1
560811-14 09:18:19.613 278-278/? D/SurfaceFlinger: FPS : 60.14
560911-14 09:18:19.613 278-278/? W/SurfaceFlinger: Fail to Open /sys/devices/platform/gpusysfs/fps
561011-14 09:18:19.623 278-278/? D/SurfaceFlinger: FPS : 60.14
561111-14 09:18:19.623 278-278/? W/SurfaceFlinger: Fail to Open /sys/devices/platform/gpusysfs/fps
561211-14 09:18:19.643 278-278/? D/SurfaceFlinger: FPS : 60.14
561311-14 09:18:19.643 278-278/? W/SurfaceFlinger: Fail to Open /sys/devices/platform/gpusysfs/fps
561411-14 09:18:19.663 278-278/? D/SurfaceFlinger: FPS : 60.14
561511-14 09:18:19.663 278-278/? W/SurfaceFlinger: Fail to Open /sys/devices/platform/gpusysfs/fps
561611-14 09:18:19.673 278-278/? D/SurfaceFlinger: FPS : 60.14
561711-14 09:18:19.673 278-278/? W/SurfaceFlinger: Fail to Open /sys/devices/platform/gpusysfs/fps
561811-14 09:18:19.693 278-278/? D/SurfaceFlinger: FPS : 60.14
561911-14 09:18:19.693 278-278/? W/SurfaceFlinger: Fail to Open /sys/devices/platform/gpusysfs/fps
562011-14 09:18:19.713 278-278/? D/SurfaceFlinger: FPS : 60.14
562111-14 09:18:19.713 278-278/? W/SurfaceFlinger: Fail to Open /sys/devices/platform/gpusysfs/fps
562211-14 09:18:19.723 278-278/? D/SurfaceFlinger: FPS : 60.14
562311-14 09:18:19.723 278-278/? W/SurfaceFlinger: Fail to Open /sys/devices/platform/gpusysfs/fps
562411-14 09:18:19.743 278-278/? D/SurfaceFlinger: FPS : 60.14
562511-14 09:18:19.743 278-278/? W/SurfaceFlinger: Fail to Open /sys/devices/platform/gpusysfs/fps
562611-14 09:18:19.763 278-278/? D/SurfaceFlinger: FPS : 60.14
562711-14 09:18:19.763 278-278/? W/SurfaceFlinger: Fail to Open /sys/devices/platform/gpusysfs/fps
562811-14 09:18:19.773 278-278/? D/SurfaceFlinger: FPS : 60.14
562911-14 09:18:19.773 278-278/? W/SurfaceFlinger: Fail to Open /sys/devices/platform/gpusysfs/fps
563011-14 09:18:19.793 278-278/? D/SurfaceFlinger: FPS : 60.20
563111-14 09:18:19.793 278-278/? W/SurfaceFlinger: Fail to Open /sys/devices/platform/gpusysfs/fps
563211-14 09:18:19.813 278-278/? D/SurfaceFlinger: FPS : 60.20
563311-14 09:18:19.813 278-278/? W/SurfaceFlinger: Fail to Open /sys/devices/platform/gpusysfs/fps
563411-14 09:18:19.823 278-278/? D/SurfaceFlinger: FPS : 60.20
563511-14 09:18:19.823 278-278/? W/SurfaceFlinger: Fail to Open /sys/devices/platform/gpusysfs/fps
563611-14 09:18:19.843 278-278/? D/SurfaceFlinger: FPS : 60.20
563711-14 09:18:19.843 278-278/? W/SurfaceFlinger: Fail to Open /sys/devices/platform/gpusysfs/fps
563811-14 09:18:19.863 278-278/? D/SurfaceFlinger: FPS : 60.20
563911-14 09:18:19.863 278-278/? W/SurfaceFlinger: Fail to Open /sys/devices/platform/gpusysfs/fps
564011-14 09:18:19.873 278-278/? D/SurfaceFlinger: FPS : 60.20
564111-14 09:18:19.873 278-278/? W/SurfaceFlinger: Fail to Open /sys/devices/platform/gpusysfs/fps
564211-14 09:18:19.893 278-278/? D/SurfaceFlinger: FPS : 60.20
564311-14 09:18:19.893 278-278/? W/SurfaceFlinger: Fail to Open /sys/devices/platform/gpusysfs/fps
564411-14 09:18:19.913 278-278/? D/SurfaceFlinger: FPS : 60.20
564511-14 09:18:19.913 278-278/? W/SurfaceFlinger: Fail to Open /sys/devices/platform/gpusysfs/fps
564611-14 09:18:19.923 278-278/? D/SurfaceFlinger: FPS : 60.20
564711-14 09:18:19.923 278-278/? W/SurfaceFlinger: Fail to Open /sys/devices/platform/gpusysfs/fps
564811-14 09:18:19.943 278-278/? D/SurfaceFlinger: FPS : 60.20
564911-14 09:18:19.943 278-278/? W/SurfaceFlinger: Fail to Open /sys/devices/platform/gpusysfs/fps
565011-14 09:18:19.963 278-278/? D/SurfaceFlinger: FPS : 60.20
565111-14 09:18:19.963 278-278/? W/SurfaceFlinger: Fail to Open /sys/devices/platform/gpusysfs/fps
565211-14 09:18:19.973 278-278/? D/SurfaceFlinger: FPS : 60.20
565311-14 09:18:19.973 278-278/? W/SurfaceFlinger: Fail to Open /sys/devices/platform/gpusysfs/fps
565411-14 09:18:19.993 278-278/? D/SurfaceFlinger: FPS : 60.20
565511-14 09:18:19.993 278-278/? W/SurfaceFlinger: Fail to Open /sys/devices/platform/gpusysfs/fps
565611-14 09:18:20.013 278-278/? D/SurfaceFlinger: FPS : 60.20
565711-14 09:18:20.013 278-278/? W/SurfaceFlinger: Fail to Open /sys/devices/platform/gpusysfs/fps
565811-14 09:18:20.023 278-278/? D/SurfaceFlinger: FPS : 60.20
565911-14 09:18:20.023 278-278/? W/SurfaceFlinger: Fail to Open /sys/devices/platform/gpusysfs/fps
566011-14 09:18:20.043 278-278/? D/SurfaceFlinger: FPS : 60.20
566111-14 09:18:20.043 278-278/? W/SurfaceFlinger: Fail to Open /sys/devices/platform/gpusysfs/fps
566211-14 09:18:20.063 278-278/? D/SurfaceFlinger: FPS : 59.90
566311-14 09:18:20.063 278-278/? W/SurfaceFlinger: Fail to Open /sys/devices/platform/gpusysfs/fps
566411-14 09:18:20.073 278-278/? D/SurfaceFlinger: FPS : 59.90
566511-14 09:18:20.073 278-278/? W/SurfaceFlinger: Fail to Open /sys/devices/platform/gpusysfs/fps
566611-14 09:18:20.093 278-278/? D/SurfaceFlinger: FPS : 59.90
566711-14 09:18:20.093 278-278/? W/SurfaceFlinger: Fail to Open /sys/devices/platform/gpusysfs/fps
566811-14 09:18:20.113 278-278/? D/SurfaceFlinger: FPS : 59.90
566911-14 09:18:20.113 278-278/? W/SurfaceFlinger: Fail to Open /sys/devices/platform/gpusysfs/fps
567011-14 09:18:20.123 278-278/? D/SurfaceFlinger: FPS : 59.90
567111-14 09:18:20.123 278-278/? W/SurfaceFlinger: Fail to Open /sys/devices/platform/gpusysfs/fps
567211-14 09:18:20.143 278-278/? D/SurfaceFlinger: FPS : 59.90
567311-14 09:18:20.143 278-278/? W/SurfaceFlinger: Fail to Open /sys/devices/platform/gpusysfs/fps
567411-14 09:18:20.163 278-278/? D/SurfaceFlinger: FPS : 59.90
567511-14 09:18:20.163 278-278/? W/SurfaceFlinger: Fail to Open /sys/devices/platform/gpusysfs/fps
567611-14 09:18:20.173 278-278/? D/SurfaceFlinger: FPS : 59.90
567711-14 09:18:20.173 278-278/? W/SurfaceFlinger: Fail to Open /sys/devices/platform/gpusysfs/fps
567811-14 09:18:20.193 278-278/? D/SurfaceFlinger: FPS : 59.90
567911-14 09:18:20.193 278-278/? W/SurfaceFlinger: Fail to Open /sys/devices/platform/gpusysfs/fps
568011-14 09:18:20.213 278-278/? D/SurfaceFlinger: FPS : 59.90
568111-14 09:18:20.213 278-278/? W/SurfaceFlinger: Fail to Open /sys/devices/platform/gpusysfs/fps
568211-14 09:18:20.223 278-278/? D/SurfaceFlinger: FPS : 59.90
568311-14 09:18:20.223 278-278/? W/SurfaceFlinger: Fail to Open /sys/devices/platform/gpusysfs/fps
568411-14 09:18:20.243 278-278/? D/SurfaceFlinger: FPS : 59.90
568511-14 09:18:20.243 278-278/? W/SurfaceFlinger: Fail to Open /sys/devices/platform/gpusysfs/fps
568611-14 09:18:20.263 278-278/? D/SurfaceFlinger: FPS : 59.90
568711-14 09:18:20.263 278-278/? W/SurfaceFlinger: Fail to Open /sys/devices/platform/gpusysfs/fps
568811-14 09:18:20.283 278-278/? D/SurfaceFlinger: FPS : 59.90
568911-14 09:18:20.283 278-278/? W/SurfaceFlinger: Fail to Open /sys/devices/platform/gpusysfs/fps
569011-14 09:18:20.293 278-278/? D/SurfaceFlinger: FPS : 59.90
569111-14 09:18:20.293 278-278/? W/SurfaceFlinger: Fail to Open /sys/devices/platform/gpusysfs/fps
569211-14 09:18:20.313 278-278/? D/SurfaceFlinger: FPS : 59.90
569311-14 09:18:20.313 278-278/? W/SurfaceFlinger: Fail to Open /sys/devices/platform/gpusysfs/fps
569411-14 09:18:20.343 278-278/? D/SurfaceFlinger: FPS : 56.85
569511-14 09:18:20.343 278-278/? W/SurfaceFlinger: Fail to Open /sys/devices/platform/gpusysfs/fps
569611-14 09:18:20.353 1263-1263/? D/StatusBar.NetworkController: refreshViews connected={ wifi } level=3 combinedSignalIconId=0x7f020517/com.android.systemui:drawable/stat_sys_wifi_signal_4 mobileLabel=Emergency calls only wifiLabel="Badger"xxxxXXXXxxxxXXXX emergencyOnly=true combinedLabel="Badger"xxxxXXXXxxxxXXXX mAirplaneMode=false mDataActivity=0 mPhoneSignalIconId=0x7f02048e/com.android.systemui:drawable/stat_sys_signal_3_auto_rotate mQSPhoneSignalIconId=0x7f02012b/com.android.systemui:drawable/ic_qs_signal_3 mDataDirectionIconId=0x0/(null) mDataSignalIconId=0x7f02048e/com.android.systemui:drawable/stat_sys_signal_3_auto_rotate mDataTypeIconId=0x0/(null) mQSDataTypeIconId=0x0/(null) mNoSimIconId=0x0/(null) mWifiIconId=0x7f020517/com.android.systemui:drawable/stat_sys_wifi_signal_4 mQSWifiIconId=0x7f020143/com.android.systemui:drawable/ic_qs_wifi_4 mWifiActivityIconId=0x7f0204e8/com.android.systemui:drawable/stat_sys_signal_inout mBluetoothTetherIconId=0x10808cc/android:drawable/stat_sys_tether_bluetooth
569711-14 09:18:20.353 1263-1263/? D/STATUSBAR-WifiQuickSettingButton: onWifiSignalChanged enabled=true enabledDesc:"Badger"
569811-14 09:18:20.353 1263-1263/? D/StatusBar.NetworkController: refreshSignalCluster - setNWBoosterIndicators(false)
569911-14 09:18:20.353 1263-1263/? D/StatusBar.NetworkController: applyOpen
570011-14 09:18:20.363 278-278/? D/SurfaceFlinger: FPS : 56.85
570111-14 09:18:20.363 278-278/? W/SurfaceFlinger: Fail to Open /sys/devices/platform/gpusysfs/fps
570211-14 09:18:20.363 1263-1263/? D/StatusBar.NetworkController: refreshSignalCluster - setNWBoosterIndicators(false)
570311-14 09:18:20.363 1263-1263/? D/StatusBar.NetworkController: applyOpen
570411-14 09:18:20.363 1263-1263/? D/StatusBar.NetworkController: refreshSignalCluster - setNWBoosterIndicators(false)
570511-14 09:18:20.363 1263-1263/? D/StatusBar.NetworkController: applyOpen
570611-14 09:18:20.363 1263-1263/? D/StatusBar.NetworkController: refreshSignalCluster - setNWBoosterIndicators(false)
570711-14 09:18:20.363 1263-1263/? D/StatusBar.NetworkController: applyOpen
570811-14 09:18:20.373 278-278/? D/SurfaceFlinger: FPS : 56.85
570911-14 09:18:20.373 278-278/? W/SurfaceFlinger: Fail to Open /sys/devices/platform/gpusysfs/fps
571011-14 09:18:20.393 278-278/? D/SurfaceFlinger: FPS : 56.85
571111-14 09:18:20.393 278-278/? W/SurfaceFlinger: Fail to Open /sys/devices/platform/gpusysfs/fps
571211-14 09:18:20.413 278-278/? D/SurfaceFlinger: FPS : 56.85
571311-14 09:18:20.413 278-278/? W/SurfaceFlinger: Fail to Open /sys/devices/platform/gpusysfs/fps
571411-14 09:18:20.423 278-278/? D/SurfaceFlinger: FPS : 56.85
571511-14 09:18:20.423 278-278/? W/SurfaceFlinger: Fail to Open /sys/devices/platform/gpusysfs/fps
571611-14 09:18:20.443 278-278/? D/SurfaceFlinger: FPS : 56.85
571711-14 09:18:20.443 278-278/? W/SurfaceFlinger: Fail to Open /sys/devices/platform/gpusysfs/fps
571811-14 09:18:20.453 278-278/? D/SurfaceFlinger: FPS : 56.85
571911-14 09:18:20.463 278-278/? W/SurfaceFlinger: Fail to Open /sys/devices/platform/gpusysfs/fps
572011-14 09:18:20.473 278-278/? D/SurfaceFlinger: FPS : 56.85
572111-14 09:18:20.473 278-278/? W/SurfaceFlinger: Fail to Open /sys/devices/platform/gpusysfs/fps
572211-14 09:18:20.493 278-278/? D/SurfaceFlinger: FPS : 56.85
572311-14 09:18:20.493 278-278/? W/SurfaceFlinger: Fail to Open /sys/devices/platform/gpusysfs/fps
572411-14 09:18:20.503 278-278/? D/SurfaceFlinger: FPS : 56.85
572511-14 09:18:20.503 278-278/? W/SurfaceFlinger: Fail to Open /sys/devices/platform/gpusysfs/fps
572611-14 09:18:20.523 278-278/? D/SurfaceFlinger: FPS : 56.85
572711-14 09:18:20.523 278-278/? W/SurfaceFlinger: Fail to Open /sys/devices/platform/gpusysfs/fps
572811-14 09:18:20.544 278-278/? D/SurfaceFlinger: FPS : 56.85
572911-14 09:18:20.544 278-278/? W/SurfaceFlinger: Fail to Open /sys/devices/platform/gpusysfs/fps
573011-14 09:18:20.554 278-278/? D/SurfaceFlinger: FPS : 56.85
573111-14 09:18:20.554 278-278/? W/SurfaceFlinger: Fail to Open /sys/devices/platform/gpusysfs/fps
573211-14 09:18:20.574 278-278/? D/SurfaceFlinger: FPS : 56.85
573311-14 09:18:20.574 278-278/? W/SurfaceFlinger: Fail to Open /sys/devices/platform/gpusysfs/fps
573411-14 09:18:20.594 278-278/? D/SurfaceFlinger: FPS : 56.85
573511-14 09:18:20.594 278-278/? W/SurfaceFlinger: Fail to Open /sys/devices/platform/gpusysfs/fps
573611-14 09:18:20.604 25131-25131/? E/SMD: smd Interface open failed errno is 2 -1
573711-14 09:18:20.604 278-278/? D/SurfaceFlinger: FPS : 60.10
573811-14 09:18:20.604 278-278/? W/SurfaceFlinger: Fail to Open /sys/devices/platform/gpusysfs/fps
573911-14 09:18:20.624 278-278/? D/SurfaceFlinger: FPS : 60.10
574011-14 09:18:20.624 278-278/? W/SurfaceFlinger: Fail to Open /sys/devices/platform/gpusysfs/fps
574111-14 09:18:20.644 278-278/? D/SurfaceFlinger: FPS : 60.10
574211-14 09:18:20.644 278-278/? W/SurfaceFlinger: Fail to Open /sys/devices/platform/gpusysfs/fps
574311-14 09:18:20.654 278-278/? D/SurfaceFlinger: FPS : 60.10
574411-14 09:18:20.654 278-278/? W/SurfaceFlinger: Fail to Open /sys/devices/platform/gpusysfs/fps
574511-14 09:18:20.674 278-278/? D/SurfaceFlinger: FPS : 60.10
574611-14 09:18:20.674 278-278/? W/SurfaceFlinger: Fail to Open /sys/devices/platform/gpusysfs/fps
574711-14 09:18:20.694 278-278/? D/SurfaceFlinger: FPS : 60.10
574811-14 09:18:20.694 278-278/? W/SurfaceFlinger: Fail to Open /sys/devices/platform/gpusysfs/fps
574911-14 09:18:20.704 278-278/? D/SurfaceFlinger: FPS : 60.10
575011-14 09:18:20.704 278-278/? W/SurfaceFlinger: Fail to Open /sys/devices/platform/gpusysfs/fps
575111-14 09:18:20.724 278-278/? D/SurfaceFlinger: FPS : 60.10
575211-14 09:18:20.724 278-278/? W/SurfaceFlinger: Fail to Open /sys/devices/platform/gpusysfs/fps
575311-14 09:18:20.744 278-278/? D/SurfaceFlinger: FPS : 60.10
575411-14 09:18:20.744 278-278/? W/SurfaceFlinger: Fail to Open /sys/devices/platform/gpusysfs/fps
575511-14 09:18:20.754 278-278/? D/SurfaceFlinger: FPS : 60.10
575611-14 09:18:20.754 278-278/? W/SurfaceFlinger: Fail to Open /sys/devices/platform/gpusysfs/fps
575711-14 09:18:20.774 278-278/? D/SurfaceFlinger: FPS : 60.10
575811-14 09:18:20.774 278-278/? W/SurfaceFlinger: Fail to Open /sys/devices/platform/gpusysfs/fps
575911-14 09:18:20.794 278-278/? D/SurfaceFlinger: FPS : 60.10
576011-14 09:18:20.794 278-278/? W/SurfaceFlinger: Fail to Open /sys/devices/platform/gpusysfs/fps
576111-14 09:18:20.804 278-278/? D/SurfaceFlinger: FPS : 60.10
576211-14 09:18:20.804 278-278/? W/SurfaceFlinger: Fail to Open /sys/devices/platform/gpusysfs/fps
576311-14 09:18:20.824 278-278/? D/SurfaceFlinger: FPS : 60.10
576411-14 09:18:20.824 278-278/? W/SurfaceFlinger: Fail to Open /sys/devices/platform/gpusysfs/fps
576511-14 09:18:20.844 278-278/? D/SurfaceFlinger: FPS : 60.10
576611-14 09:18:20.844 278-278/? W/SurfaceFlinger: Fail to Open /sys/devices/platform/gpusysfs/fps
576711-14 09:18:20.854 278-278/? D/SurfaceFlinger: FPS : 60.10
576811-14 09:18:20.854 278-278/? W/SurfaceFlinger: Fail to Open /sys/devices/platform/gpusysfs/fps
576911-14 09:18:20.874 278-278/? D/SurfaceFlinger: FPS : 60.23
577011-14 09:18:20.874 278-278/? W/SurfaceFlinger: Fail to Open /sys/devices/platform/gpusysfs/fps
577111-14 09:18:20.894 278-278/? D/SurfaceFlinger: FPS : 60.23
577211-14 09:18:20.894 278-278/? W/SurfaceFlinger: Fail to Open /sys/devices/platform/gpusysfs/fps
577311-14 09:18:20.904 278-278/? D/SurfaceFlinger: FPS : 60.23
577411-14 09:18:20.904 278-278/? W/SurfaceFlinger: Fail to Open /sys/devices/platform/gpusysfs/fps
577511-14 09:18:20.924 278-278/? D/SurfaceFlinger: FPS : 60.23
577611-14 09:18:20.924 278-278/? W/SurfaceFlinger: Fail to Open /sys/devices/platform/gpusysfs/fps
577711-14 09:18:20.934 868-3238/? D/SSRM:n: SIOP:: AP = 440, CUR = 460
577811-14 09:18:20.944 278-278/? D/SurfaceFlinger: FPS : 60.23
577911-14 09:18:20.944 278-278/? W/SurfaceFlinger: Fail to Open /sys/devices/platform/gpusysfs/fps
578011-14 09:18:20.964 278-278/? D/SurfaceFlinger: FPS : 60.23
578111-14 09:18:20.964 278-278/? W/SurfaceFlinger: Fail to Open /sys/devices/platform/gpusysfs/fps
578211-14 09:18:20.974 278-278/? D/SurfaceFlinger: FPS : 60.23
578311-14 09:18:20.974 278-278/? W/SurfaceFlinger: Fail to Open /sys/devices/platform/gpusysfs/fps
578411-14 09:18:20.994 278-278/? D/SurfaceFlinger: FPS : 60.23
578511-14 09:18:20.994 278-278/? W/SurfaceFlinger: Fail to Open /sys/devices/platform/gpusysfs/fps
578611-14 09:18:21.004 278-278/? D/SurfaceFlinger: FPS : 60.23
578711-14 09:18:21.004 278-278/? W/SurfaceFlinger: Fail to Open /sys/devices/platform/gpusysfs/fps
578811-14 09:18:21.024 278-278/? D/SurfaceFlinger: FPS : 60.23
578911-14 09:18:21.024 278-278/? W/SurfaceFlinger: Fail to Open /sys/devices/platform/gpusysfs/fps
579011-14 09:18:21.044 278-278/? D/SurfaceFlinger: FPS : 60.23
579111-14 09:18:21.044 278-278/? W/SurfaceFlinger: Fail to Open /sys/devices/platform/gpusysfs/fps
579211-14 09:18:21.054 278-278/? D/SurfaceFlinger: FPS : 60.23
579311-14 09:18:21.054 278-278/? W/SurfaceFlinger: Fail to Open /sys/devices/platform/gpusysfs/fps
579411-14 09:18:21.074 278-278/? D/SurfaceFlinger: FPS : 60.23
579511-14 09:18:21.074 278-278/? W/SurfaceFlinger: Fail to Open /sys/devices/platform/gpusysfs/fps
579611-14 09:18:21.094 278-278/? D/SurfaceFlinger: FPS : 60.23
579711-14 09:18:21.094 278-278/? W/SurfaceFlinger: Fail to Open /sys/devices/platform/gpusysfs/fps
579811-14 09:18:21.104 278-278/? D/SurfaceFlinger: FPS : 60.23
579911-14 09:18:21.104 278-278/? W/SurfaceFlinger: Fail to Open /sys/devices/platform/gpusysfs/fps
580011-14 09:18:21.124 278-278/? D/SurfaceFlinger: FPS : 60.23
580111-14 09:18:21.124 278-278/? W/SurfaceFlinger: Fail to Open /sys/devices/platform/gpusysfs/fps
580211-14 09:18:21.144 278-278/? D/SurfaceFlinger: FPS : 60.15
580311-14 09:18:21.144 278-278/? W/SurfaceFlinger: Fail to Open /sys/devices/platform/gpusysfs/fps
580411-14 09:18:21.154 278-278/? D/SurfaceFlinger: FPS : 60.15
580511-14 09:18:21.154 278-278/? W/SurfaceFlinger: Fail to Open /sys/devices/platform/gpusysfs/fps
580611-14 09:18:21.174 278-278/? D/SurfaceFlinger: FPS : 60.15
580711-14 09:18:21.174 278-278/? W/SurfaceFlinger: Fail to Open /sys/devices/platform/gpusysfs/fps
580811-14 09:18:21.194 278-278/? D/SurfaceFlinger: FPS : 60.15
580911-14 09:18:21.194 278-278/? W/SurfaceFlinger: Fail to Open /sys/devices/platform/gpusysfs/fps
581011-14 09:18:21.204 278-278/? D/SurfaceFlinger: FPS : 60.15
581111-14 09:18:21.204 278-278/? W/SurfaceFlinger: Fail to Open /sys/devices/platform/gpusysfs/fps
581211-14 09:18:21.224 278-278/? D/SurfaceFlinger: FPS : 60.15
581311-14 09:18:21.224 278-278/? W/SurfaceFlinger: Fail to Open /sys/devices/platform/gpusysfs/fps
581411-14 09:18:21.244 278-278/? D/SurfaceFlinger: FPS : 60.15
581511-14 09:18:21.244 278-278/? W/SurfaceFlinger: Fail to Open /sys/devices/platform/gpusysfs/fps
581611-14 09:18:21.254 278-278/? D/SurfaceFlinger: FPS : 60.15
581711-14 09:18:21.254 278-278/? W/SurfaceFlinger: Fail to Open /sys/devices/platform/gpusysfs/fps
581811-14 09:18:21.274 278-278/? D/SurfaceFlinger: FPS : 60.15
581911-14 09:18:21.274 278-278/? W/SurfaceFlinger: Fail to Open /sys/devices/platform/gpusysfs/fps
582011-14 09:18:21.294 278-278/? D/SurfaceFlinger: FPS : 60.15
582111-14 09:18:21.294 278-278/? W/SurfaceFlinger: Fail to Open /sys/devices/platform/gpusysfs/fps
582211-14 09:18:21.304 278-278/? D/SurfaceFlinger: FPS : 60.15
582311-14 09:18:21.304 278-278/? W/SurfaceFlinger: Fail to Open /sys/devices/platform/gpusysfs/fps
582411-14 09:18:21.324 278-278/? D/SurfaceFlinger: FPS : 60.15
582511-14 09:18:21.324 278-278/? W/SurfaceFlinger: Fail to Open /sys/devices/platform/gpusysfs/fps
582611-14 09:18:21.344 278-278/? D/SurfaceFlinger: FPS : 60.15
582711-14 09:18:21.344 278-278/? W/SurfaceFlinger: Fail to Open /sys/devices/platform/gpusysfs/fps
582811-14 09:18:21.354 278-278/? D/SurfaceFlinger: FPS : 60.15
582911-14 09:18:21.354 278-278/? W/SurfaceFlinger: Fail to Open /sys/devices/platform/gpusysfs/fps
583011-14 09:18:21.374 278-278/? D/SurfaceFlinger: FPS : 60.15
583111-14 09:18:21.374 278-278/? W/SurfaceFlinger: Fail to Open /sys/devices/platform/gpusysfs/fps
583211-14 09:18:21.394 278-278/? D/SurfaceFlinger: FPS : 60.15
583311-14 09:18:21.394 278-278/? W/SurfaceFlinger: Fail to Open /sys/devices/platform/gpusysfs/fps
583411-14 09:18:21.404 278-278/? D/SurfaceFlinger: FPS : 60.15
583511-14 09:18:21.404 278-278/? W/SurfaceFlinger: Fail to Open /sys/devices/platform/gpusysfs/fps
583611-14 09:18:21.424 278-278/? D/SurfaceFlinger: FPS : 60.15
583711-14 09:18:21.424 278-278/? W/SurfaceFlinger: Fail to Open /sys/devices/platform/gpusysfs/fps
583811-14 09:18:21.444 278-278/? D/SurfaceFlinger: FPS : 60.15
583911-14 09:18:21.444 278-278/? W/SurfaceFlinger: Fail to Open /sys/devices/platform/gpusysfs/fps
584011-14 09:18:21.454 278-278/? D/SurfaceFlinger: FPS : 60.15
584111-14 09:18:21.454 278-278/? W/SurfaceFlinger: Fail to Open /sys/devices/platform/gpusysfs/fps
584211-14 09:18:21.474 278-278/? D/SurfaceFlinger: FPS : 60.15
584311-14 09:18:21.474 278-278/? W/SurfaceFlinger: Fail to Open /sys/devices/platform/gpusysfs/fps
584411-14 09:18:21.494 278-278/? D/SurfaceFlinger: FPS : 60.15
584511-14 09:18:21.494 278-278/? W/SurfaceFlinger: Fail to Open /sys/devices/platform/gpusysfs/fps
584611-14 09:18:21.504 278-278/? D/SurfaceFlinger: FPS : 60.15
584711-14 09:18:21.504 278-278/? W/SurfaceFlinger: Fail to Open /sys/devices/platform/gpusysfs/fps
584811-14 09:18:21.524 278-278/? D/SurfaceFlinger: FPS : 60.15
584911-14 09:18:21.524 278-278/? W/SurfaceFlinger: Fail to Open /sys/devices/platform/gpusysfs/fps
585011-14 09:18:21.534 278-278/? D/SurfaceFlinger: FPS : 60.15
585111-14 09:18:21.544 278-278/? W/SurfaceFlinger: Fail to Open /sys/devices/platform/gpusysfs/fps
585211-14 09:18:21.555 278-278/? D/SurfaceFlinger: FPS : 60.15
585311-14 09:18:21.555 278-278/? W/SurfaceFlinger: Fail to Open /sys/devices/platform/gpusysfs/fps
585411-14 09:18:21.575 278-278/? D/SurfaceFlinger: FPS : 60.15
585511-14 09:18:21.575 278-278/? W/SurfaceFlinger: Fail to Open /sys/devices/platform/gpusysfs/fps
585611-14 09:18:21.605 278-278/? D/SurfaceFlinger: FPS : 60.15
585711-14 09:18:21.605 278-278/? W/SurfaceFlinger: Fail to Open /sys/devices/platform/gpusysfs/fps
585811-14 09:18:21.605 25131-25131/? E/SMD: smd Interface open failed errno is 2 -1
585911-14 09:18:21.625 278-278/? D/SurfaceFlinger: FPS : 60.15
586011-14 09:18:21.625 278-278/? W/SurfaceFlinger: Fail to Open /sys/devices/platform/gpusysfs/fps
586111-14 09:18:21.645 278-278/? D/SurfaceFlinger: FPS : 60.15
586211-14 09:18:21.645 278-278/? W/SurfaceFlinger: Fail to Open /sys/devices/platform/gpusysfs/fps
586311-14 09:18:21.675 278-278/? D/SurfaceFlinger: FPS : 52.66
586411-14 09:18:21.675 278-278/? W/SurfaceFlinger: Fail to Open /sys/devices/platform/gpusysfs/fps
586511-14 09:18:21.685 278-278/? D/SurfaceFlinger: FPS : 52.66
586611-14 09:18:21.695 278-278/? W/SurfaceFlinger: Fail to Open /sys/devices/platform/gpusysfs/fps
586711-14 09:18:21.705 278-278/? D/SurfaceFlinger: FPS : 52.66
586811-14 09:18:21.705 278-278/? W/SurfaceFlinger: Fail to Open /sys/devices/platform/gpusysfs/fps
586911-14 09:18:21.725 278-278/? D/SurfaceFlinger: FPS : 52.66
587011-14 09:18:21.725 278-278/? W/SurfaceFlinger: Fail to Open /sys/devices/platform/gpusysfs/fps
587111-14 09:18:21.735 278-278/? D/SurfaceFlinger: FPS : 52.66
587211-14 09:18:21.745 278-278/? W/SurfaceFlinger: Fail to Open /sys/devices/platform/gpusysfs/fps
587311-14 09:18:21.775 278-278/? D/SurfaceFlinger: FPS : 52.66
587411-14 09:18:21.775 278-278/? W/SurfaceFlinger: Fail to Open /sys/devices/platform/gpusysfs/fps
587511-14 09:18:21.785 278-278/? D/SurfaceFlinger: FPS : 52.66
587611-14 09:18:21.785 278-278/? W/SurfaceFlinger: Fail to Open /sys/devices/platform/gpusysfs/fps
587711-14 09:18:21.805 278-278/? D/SurfaceFlinger: FPS : 52.66
587811-14 09:18:21.805 278-278/? W/SurfaceFlinger: Fail to Open /sys/devices/platform/gpusysfs/fps
587911-14 09:18:21.825 278-278/? D/SurfaceFlinger: FPS : 52.66
588011-14 09:18:21.825 278-278/? W/SurfaceFlinger: Fail to Open /sys/devices/platform/gpusysfs/fps
588111-14 09:18:21.835 278-278/? D/SurfaceFlinger: FPS : 52.66
588211-14 09:18:21.845 278-278/? W/SurfaceFlinger: Fail to Open /sys/devices/platform/gpusysfs/fps
588311-14 09:18:21.855 278-278/? D/SurfaceFlinger: FPS : 52.66
588411-14 09:18:21.855 278-278/? W/SurfaceFlinger: Fail to Open /sys/devices/platform/gpusysfs/fps
588511-14 09:18:21.875 278-278/? D/SurfaceFlinger: FPS : 52.66
588611-14 09:18:21.875 278-278/? W/SurfaceFlinger: Fail to Open /sys/devices/platform/gpusysfs/fps
588711-14 09:18:21.885 278-278/? D/SurfaceFlinger: FPS : 52.66
588811-14 09:18:21.885 278-278/? W/SurfaceFlinger: Fail to Open /sys/devices/platform/gpusysfs/fps
588911-14 09:18:21.905 278-278/? D/SurfaceFlinger: FPS : 52.66
589011-14 09:18:21.905 278-278/? W/SurfaceFlinger: Fail to Open /sys/devices/platform/gpusysfs/fps
589111-14 09:18:21.935 278-278/? D/SurfaceFlinger: FPS : 52.63
589211-14 09:18:21.935 278-278/? W/SurfaceFlinger: Fail to Open /sys/devices/platform/gpusysfs/fps
589311-14 09:18:21.955 278-278/? D/SurfaceFlinger: FPS : 52.63
589411-14 09:18:21.955 278-278/? W/SurfaceFlinger: Fail to Open /sys/devices/platform/gpusysfs/fps
589511-14 09:18:21.975 278-278/? D/SurfaceFlinger: FPS : 52.63
589611-14 09:18:21.975 278-278/? W/SurfaceFlinger: Fail to Open /sys/devices/platform/gpusysfs/fps
589711-14 09:18:21.985 278-278/? D/SurfaceFlinger: FPS : 52.63
589811-14 09:18:21.995 278-278/? W/SurfaceFlinger: Fail to Open /sys/devices/platform/gpusysfs/fps
589911-14 09:18:22.005 278-278/? D/SurfaceFlinger: FPS : 52.63
590011-14 09:18:22.005 278-278/? W/SurfaceFlinger: Fail to Open /sys/devices/platform/gpusysfs/fps
590111-14 09:18:22.025 278-278/? D/SurfaceFlinger: FPS : 52.63
590211-14 09:18:22.025 278-278/? W/SurfaceFlinger: Fail to Open /sys/devices/platform/gpusysfs/fps
590311-14 09:18:22.035 278-278/? D/SurfaceFlinger: FPS : 52.63
590411-14 09:18:22.035 278-278/? W/SurfaceFlinger: Fail to Open /sys/devices/platform/gpusysfs/fps
590511-14 09:18:22.055 278-278/? D/SurfaceFlinger: FPS : 52.63
590611-14 09:18:22.055 278-278/? W/SurfaceFlinger: Fail to Open /sys/devices/platform/gpusysfs/fps
590711-14 09:18:22.075 278-278/? D/SurfaceFlinger: FPS : 52.63
590811-14 09:18:22.075 278-278/? W/SurfaceFlinger: Fail to Open /sys/devices/platform/gpusysfs/fps
590911-14 09:18:22.085 278-278/? D/SurfaceFlinger: FPS : 52.63
591011-14 09:18:22.085 278-278/? W/SurfaceFlinger: Fail to Open /sys/devices/platform/gpusysfs/fps
591111-14 09:18:22.105 278-278/? D/SurfaceFlinger: FPS : 52.63
591211-14 09:18:22.105 278-278/? W/SurfaceFlinger: Fail to Open /sys/devices/platform/gpusysfs/fps
591311-14 09:18:22.125 278-278/? D/SurfaceFlinger: FPS : 52.63
591411-14 09:18:22.125 278-278/? W/SurfaceFlinger: Fail to Open /sys/devices/platform/gpusysfs/fps
591511-14 09:18:22.135 278-278/? D/SurfaceFlinger: FPS : 52.63
591611-14 09:18:22.135 278-278/? W/SurfaceFlinger: Fail to Open /sys/devices/platform/gpusysfs/fps
591711-14 09:18:22.155 278-278/? D/SurfaceFlinger: FPS : 52.63
591811-14 09:18:22.155 278-278/? W/SurfaceFlinger: Fail to Open /sys/devices/platform/gpusysfs/fps
591911-14 09:18:22.175 278-278/? D/SurfaceFlinger: FPS : 52.63
592011-14 09:18:22.175 278-278/? W/SurfaceFlinger: Fail to Open /sys/devices/platform/gpusysfs/fps
592111-14 09:18:22.185 278-278/? D/SurfaceFlinger: FPS : 52.63
592211-14 09:18:22.185 278-278/? W/SurfaceFlinger: Fail to Open /sys/devices/platform/gpusysfs/fps
592311-14 09:18:22.205 278-278/? D/SurfaceFlinger: FPS : 60.06
592411-14 09:18:22.205 278-278/? W/SurfaceFlinger: Fail to Open /sys/devices/platform/gpusysfs/fps
592511-14 09:18:22.225 278-278/? D/SurfaceFlinger: FPS : 60.06
592611-14 09:18:22.225 278-278/? W/SurfaceFlinger: Fail to Open /sys/devices/platform/gpusysfs/fps
592711-14 09:18:22.235 278-278/? D/SurfaceFlinger: FPS : 60.06
592811-14 09:18:22.235 278-278/? W/SurfaceFlinger: Fail to Open /sys/devices/platform/gpusysfs/fps
592911-14 09:18:22.255 278-278/? D/SurfaceFlinger: FPS : 60.06
593011-14 09:18:22.255 278-278/? W/SurfaceFlinger: Fail to Open /sys/devices/platform/gpusysfs/fps
593111-14 09:18:22.275 278-278/? D/SurfaceFlinger: FPS : 60.06
593211-14 09:18:22.275 278-278/? W/SurfaceFlinger: Fail to Open /sys/devices/platform/gpusysfs/fps
593311-14 09:18:22.285 278-278/? D/SurfaceFlinger: FPS : 60.06
593411-14 09:18:22.285 278-278/? W/SurfaceFlinger: Fail to Open /sys/devices/platform/gpusysfs/fps
593511-14 09:18:22.305 278-278/? D/SurfaceFlinger: FPS : 60.06
593611-14 09:18:22.305 278-278/? W/SurfaceFlinger: Fail to Open /sys/devices/platform/gpusysfs/fps
593711-14 09:18:22.325 278-278/? D/SurfaceFlinger: FPS : 60.06
593811-14 09:18:22.325 278-278/? W/SurfaceFlinger: Fail to Open /sys/devices/platform/gpusysfs/fps
593911-14 09:18:22.335 278-278/? D/SurfaceFlinger: FPS : 60.06
594011-14 09:18:22.335 278-278/? W/SurfaceFlinger: Fail to Open /sys/devices/platform/gpusysfs/fps
594111-14 09:18:22.355 278-278/? D/SurfaceFlinger: FPS : 60.06
594211-14 09:18:22.355 278-278/? W/SurfaceFlinger: Fail to Open /sys/devices/platform/gpusysfs/fps
594311-14 09:18:22.375 278-278/? D/SurfaceFlinger: FPS : 60.06
594411-14 09:18:22.375 278-278/? W/SurfaceFlinger: Fail to Open /sys/devices/platform/gpusysfs/fps
594511-14 09:18:22.385 278-278/? D/SurfaceFlinger: FPS : 60.06
594611-14 09:18:22.385 278-278/? W/SurfaceFlinger: Fail to Open /sys/devices/platform/gpusysfs/fps
594711-14 09:18:22.405 278-278/? D/SurfaceFlinger: FPS : 60.06
594811-14 09:18:22.405 278-278/? W/SurfaceFlinger: Fail to Open /sys/devices/platform/gpusysfs/fps
594911-14 09:18:22.425 278-278/? D/SurfaceFlinger: FPS : 60.06
595011-14 09:18:22.425 278-278/? W/SurfaceFlinger: Fail to Open /sys/devices/platform/gpusysfs/fps
595111-14 09:18:22.445 278-278/? D/SurfaceFlinger: FPS : 60.06
595211-14 09:18:22.445 278-278/? W/SurfaceFlinger: Fail to Open /sys/devices/platform/gpusysfs/fps
595311-14 09:18:22.455 278-278/? D/SurfaceFlinger: FPS : 60.06
595411-14 09:18:22.455 278-278/? W/SurfaceFlinger: Fail to Open /sys/devices/platform/gpusysfs/fps
595511-14 09:18:22.475 278-278/? D/SurfaceFlinger: FPS : 60.23
595611-14 09:18:22.475 278-278/? W/SurfaceFlinger: Fail to Open /sys/devices/platform/gpusysfs/fps
595711-14 09:18:22.505 278-278/? D/SurfaceFlinger: FPS : 60.23
595811-14 09:18:22.505 278-278/? W/SurfaceFlinger: Fail to Open /sys/devices/platform/gpusysfs/fps
595911-14 09:18:22.525 278-278/? D/SurfaceFlinger: FPS : 60.23
596011-14 09:18:22.525 278-278/? W/SurfaceFlinger: Fail to Open /sys/devices/platform/gpusysfs/fps
596111-14 09:18:22.535 278-278/? D/SurfaceFlinger: FPS : 60.23
596211-14 09:18:22.535 278-278/? W/SurfaceFlinger: Fail to Open /sys/devices/platform/gpusysfs/fps
596311-14 09:18:22.555 278-278/? D/SurfaceFlinger: FPS : 60.23
596411-14 09:18:22.555 278-278/? W/SurfaceFlinger: Fail to Open /sys/devices/platform/gpusysfs/fps
596511-14 09:18:22.575 278-278/? D/SurfaceFlinger: FPS : 60.23
596611-14 09:18:22.575 278-278/? W/SurfaceFlinger: Fail to Open /sys/devices/platform/gpusysfs/fps
596711-14 09:18:22.586 278-278/? D/SurfaceFlinger: FPS : 60.23
596811-14 09:18:22.586 278-278/? W/SurfaceFlinger: Fail to Open /sys/devices/platform/gpusysfs/fps
596911-14 09:18:22.606 278-278/? D/SurfaceFlinger: FPS : 60.23
597011-14 09:18:22.606 278-278/? W/SurfaceFlinger: Fail to Open /sys/devices/platform/gpusysfs/fps
597111-14 09:18:22.606 25131-25131/? E/SMD: smd Interface open failed errno is 2 -1
597211-14 09:18:22.626 278-278/? D/SurfaceFlinger: FPS : 60.23
597311-14 09:18:22.626 278-278/? W/SurfaceFlinger: Fail to Open /sys/devices/platform/gpusysfs/fps
597411-14 09:18:22.636 278-278/? D/SurfaceFlinger: FPS : 60.23
597511-14 09:18:22.636 278-278/? W/SurfaceFlinger: Fail to Open /sys/devices/platform/gpusysfs/fps
597611-14 09:18:22.656 278-278/? D/SurfaceFlinger: FPS : 60.23
597711-14 09:18:22.656 278-278/? W/SurfaceFlinger: Fail to Open /sys/devices/platform/gpusysfs/fps
597811-14 09:18:22.676 278-278/? D/SurfaceFlinger: FPS : 60.23
597911-14 09:18:22.676 278-278/? W/SurfaceFlinger: Fail to Open /sys/devices/platform/gpusysfs/fps
598011-14 09:18:22.686 278-278/? D/SurfaceFlinger: FPS : 60.23
598111-14 09:18:22.686 278-278/? W/SurfaceFlinger: Fail to Open /sys/devices/platform/gpusysfs/fps
598211-14 09:18:22.706 278-278/? D/SurfaceFlinger: FPS : 60.23
598311-14 09:18:22.706 278-278/? W/SurfaceFlinger: Fail to Open /sys/devices/platform/gpusysfs/fps
598411-14 09:18:22.726 278-278/? D/SurfaceFlinger: FPS : 60.23
598511-14 09:18:22.726 278-278/? W/SurfaceFlinger: Fail to Open /sys/devices/platform/gpusysfs/fps
598611-14 09:18:22.736 278-278/? D/SurfaceFlinger: FPS : 56.48
598711-14 09:18:22.736 278-278/? W/SurfaceFlinger: Fail to Open /sys/devices/platform/gpusysfs/fps
598811-14 09:18:22.756 278-278/? D/SurfaceFlinger: FPS : 56.48
598911-14 09:18:22.756 278-278/? W/SurfaceFlinger: Fail to Open /sys/devices/platform/gpusysfs/fps
599011-14 09:18:22.776 278-278/? D/SurfaceFlinger: FPS : 56.48
599111-14 09:18:22.776 278-278/? W/SurfaceFlinger: Fail to Open /sys/devices/platform/gpusysfs/fps
599211-14 09:18:22.786 278-278/? D/SurfaceFlinger: FPS : 56.48
599311-14 09:18:22.786 278-278/? W/SurfaceFlinger: Fail to Open /sys/devices/platform/gpusysfs/fps
599411-14 09:18:22.806 278-278/? D/SurfaceFlinger: FPS : 56.48
599511-14 09:18:22.806 278-278/? W/SurfaceFlinger: Fail to Open /sys/devices/platform/gpusysfs/fps
599611-14 09:18:22.816 278-278/? D/SurfaceFlinger: FPS : 56.48
599711-14 09:18:22.826 278-278/? W/SurfaceFlinger: Fail to Open /sys/devices/platform/gpusysfs/fps
599811-14 09:18:22.836 278-278/? D/SurfaceFlinger: FPS : 56.48
599911-14 09:18:22.836 278-278/? W/SurfaceFlinger: Fail to Open /sys/devices/platform/gpusysfs/fps
600011-14 09:18:22.856 278-278/? D/SurfaceFlinger: FPS : 56.48
600111-14 09:18:22.856 278-278/? W/SurfaceFlinger: Fail to Open /sys/devices/platform/gpusysfs/fps
600211-14 09:18:22.866 278-278/? D/SurfaceFlinger: FPS : 56.48
600311-14 09:18:22.866 278-278/? W/SurfaceFlinger: Fail to Open /sys/devices/platform/gpusysfs/fps
600411-14 09:18:22.886 278-278/? D/SurfaceFlinger: FPS : 56.48
600511-14 09:18:22.886 278-278/? W/SurfaceFlinger: Fail to Open /sys/devices/platform/gpusysfs/fps
600611-14 09:18:22.906 278-278/? D/SurfaceFlinger: FPS : 56.48
600711-14 09:18:22.906 278-278/? W/SurfaceFlinger: Fail to Open /sys/devices/platform/gpusysfs/fps
600811-14 09:18:22.916 278-278/? D/SurfaceFlinger: FPS : 56.48
600911-14 09:18:22.916 278-278/? W/SurfaceFlinger: Fail to Open /sys/devices/platform/gpusysfs/fps
601011-14 09:18:22.936 278-278/? D/SurfaceFlinger: FPS : 56.48
601111-14 09:18:22.936 278-278/? W/SurfaceFlinger: Fail to Open /sys/devices/platform/gpusysfs/fps
601211-14 09:18:22.946 25291-25291/? E/Diag_Lib:  Diag_LSM_Init: Failed to open handle to diag driver, error = 2
601311-14 09:18:22.956 278-278/? D/SurfaceFlinger: FPS : 56.48
601411-14 09:18:22.956 278-278/? W/SurfaceFlinger: Fail to Open /sys/devices/platform/gpusysfs/fps
601511-14 09:18:22.956 304-22404/? E/OMX-VDEC-1080P: Rxd i/p EOS, Notify Driver that EOS has been reached
601611-14 09:18:22.956 304-22404/? E/OMX-VDEC-1080P: Output EOS has been reached
601711-14 09:18:22.956 304-22404/? E/OMX-VDEC-1080P: Rxd OMX_COMPONENT_GENERATE_EOS_DONE
601811-14 09:18:22.966 278-278/? D/SurfaceFlinger: FPS : 56.48
601911-14 09:18:22.966 278-278/? W/SurfaceFlinger: Fail to Open /sys/devices/platform/gpusysfs/fps
602011-14 09:18:22.986 278-278/? D/SurfaceFlinger: FPS : 56.48
602111-14 09:18:22.986 278-278/? W/SurfaceFlinger: Fail to Open /sys/devices/platform/gpusysfs/fps
602211-14 09:18:23.006 278-278/? D/SurfaceFlinger: FPS : 60.14
602311-14 09:18:23.006 278-278/? W/SurfaceFlinger: Fail to Open /sys/devices/platform/gpusysfs/fps
602411-14 09:18:23.016 278-278/? D/SurfaceFlinger: FPS : 60.14
602511-14 09:18:23.016 278-278/? W/SurfaceFlinger: Fail to Open /sys/devices/platform/gpusysfs/fps
602611-14 09:18:23.036 278-278/? D/SurfaceFlinger: FPS : 60.14
602711-14 09:18:23.036 278-278/? W/SurfaceFlinger: Fail to Open /sys/devices/platform/gpusysfs/fps
602811-14 09:18:23.056 278-278/? D/SurfaceFlinger: FPS : 60.14
602911-14 09:18:23.056 278-278/? W/SurfaceFlinger: Fail to Open /sys/devices/platform/gpusysfs/fps
603011-14 09:18:23.066 278-278/? D/SurfaceFlinger: FPS : 60.14
603111-14 09:18:23.066 278-278/? W/SurfaceFlinger: Fail to Open /sys/devices/platform/gpusysfs/fps
603211-14 09:18:23.086 278-278/? D/SurfaceFlinger: FPS : 60.14
603311-14 09:18:23.086 278-278/? W/SurfaceFlinger: Fail to Open /sys/devices/platform/gpusysfs/fps
603411-14 09:18:23.106 278-278/? D/SurfaceFlinger: FPS : 60.14
603511-14 09:18:23.106 278-278/? W/SurfaceFlinger: Fail to Open /sys/devices/platform/gpusysfs/fps
603611-14 09:18:23.116 304-1854/? E/OMX-VDEC-1080P: send_command: Recieved a Command from Client
603711-14 09:18:23.116 304-22404/? E/OMX-VDEC-1080P: send_command_proxy(): cmd = 1, Current State 3, Expected State -1
603811-14 09:18:23.116 304-22404/? E/OMX-VDEC-1080P: send_command_proxy(): OMX_CommandFlush issued with param1: -1
603911-14 09:18:23.116 304-1854/? E/OMX-VDEC-1080P: send_command: Command Processed
604011-14 09:18:23.116 15042-22403/? I/ACodec: [OMX.qcom.video.decoder.avc] Now Flushing
604111-14 09:18:23.116 304-22404/? E/OMX-VDEC-1080P: Driver flush i/p Port complete
604211-14 09:18:23.116 304-22404/? E/OMX-VDEC-1080P: Initiate Input Flush
604311-14 09:18:23.116 304-22404/? E/OMX-VDEC-1080P: OMX flush i/p Port complete PenBuf(0)
604411-14 09:18:23.116 304-22404/? E/OMX-VDEC-1080P: Driver flush o/p Port complete
604511-14 09:18:23.116 304-22404/? E/OMX-VDEC-1080P: Initiate Output Flush
604611-14 09:18:23.116 304-22404/? E/OMX-VDEC-1080P: Buffer queue size 6 pending buf cnt 6
604711-14 09:18:23.116 304-22404/? E/OMX-VDEC-1080P: ID(c) P1(b1d5ba30) P2(40000000)
604811-14 09:18:23.116 304-22404/? E/OMX-VDEC-1080P: Buffer queue size 5 pending buf cnt 5
604911-14 09:18:23.116 304-22404/? E/OMX-VDEC-1080P: ID(c) P1(b1d5ba80) P2(40000000)
605011-14 09:18:23.116 304-22404/? E/OMX-VDEC-1080P: Buffer queue size 4 pending buf cnt 4
605111-14 09:18:23.116 304-22404/? E/OMX-VDEC-1080P: ID(c) P1(b1d5bad0) P2(40000000)
605211-14 09:18:23.116 304-22404/? E/OMX-VDEC-1080P: Buffer queue size 3 pending buf cnt 3
605311-14 09:18:23.116 304-22404/? E/OMX-VDEC-1080P: ID(c) P1(b1d5b940) P2(40000000)
605411-14 09:18:23.116 304-22404/? E/OMX-VDEC-1080P: Buffer queue size 2 pending buf cnt 2
605511-14 09:18:23.116 304-22404/? E/OMX-VDEC-1080P: ID(c) P1(b1d5b990) P2(40000000)
605611-14 09:18:23.116 304-22404/? E/OMX-VDEC-1080P: Buffer queue size 1 pending buf cnt 1
605711-14 09:18:23.116 304-22404/? E/OMX-VDEC-1080P: ID(c) P1(b1d5b9e0) P2(40000000)
605811-14 09:18:23.116 304-22404/? E/OMX-VDEC-1080P: OMX flush o/p Port complete PenBuf(0)
605911-14 09:18:23.126 15042-22403/? I/ACodec: [OMX.qcom.video.decoder.avc] Now Executing
606011-14 09:18:23.126 278-278/? D/SurfaceFlinger: FPS : 60.14
606111-14 09:18:23.126 278-278/? W/SurfaceFlinger: Fail to Open /sys/devices/platform/gpusysfs/fps
606211-14 09:18:23.136 278-278/? D/SurfaceFlinger: FPS : 60.14
606311-14 09:18:23.136 278-278/? W/SurfaceFlinger: Fail to Open /sys/devices/platform/gpusysfs/fps
606411-14 09:18:23.146 304-22404/? E/OMX-VDEC-1080P: Sync frame received
606511-14 09:18:23.156 278-278/? D/SurfaceFlinger: FPS : 60.14
606611-14 09:18:23.156 278-278/? W/SurfaceFlinger: Fail to Open /sys/devices/platform/gpusysfs/fps
606711-14 09:18:23.166 278-278/? D/SurfaceFlinger: FPS : 60.14
606811-14 09:18:23.166 278-278/? W/SurfaceFlinger: Fail to Open /sys/devices/platform/gpusysfs/fps
606911-14 09:18:23.186 278-278/? D/SurfaceFlinger: FPS : 60.14
607011-14 09:18:23.186 278-278/? W/SurfaceFlinger: Fail to Open /sys/devices/platform/gpusysfs/fps
607111-14 09:18:23.206 278-278/? D/SurfaceFlinger: FPS : 60.14
607211-14 09:18:23.206 278-278/? W/SurfaceFlinger: Fail to Open /sys/devices/platform/gpusysfs/fps
607311-14 09:18:23.216 278-278/? D/SurfaceFlinger: FPS : 60.14
607411-14 09:18:23.216 278-278/? W/SurfaceFlinger: Fail to Open /sys/devices/platform/gpusysfs/fps
607511-14 09:18:23.236 278-278/? D/SurfaceFlinger: FPS : 60.14
607611-14 09:18:23.236 278-278/? W/SurfaceFlinger: Fail to Open /sys/devices/platform/gpusysfs/fps
607711-14 09:18:23.256 278-278/? D/SurfaceFlinger: FPS : 60.14
607811-14 09:18:23.256 278-278/? W/SurfaceFlinger: Fail to Open /sys/devices/platform/gpusysfs/fps
607911-14 09:18:23.256 868-1533/? D/BatteryService: !@BatteryListener : batteryPropertiesChanged!
608011-14 09:18:23.256 868-1533/? D/BatteryService: level:67, scale:100, status:2, health:2, present:true, voltage: 3928, temperature: 328, technology: Li-ion, AC powered:false, USB powered:true, Wireless powered:false, icon:17303687, invalid charger:0
608111-14 09:18:23.256 868-1533/? D/BatteryService: online:4, current avg:460, charge type:1, power sharing:false, high voltage charger:false, capacity:280000, current_now:460
608211-14 09:18:23.256 868-868/? D/BatteryService: Sending ACTION_BATTERY_CHANGED.
608311-14 09:18:23.266 868-868/? I/MotionRecognitionService: Plugged
608411-14 09:18:23.266 868-868/? I/MotionRecognitionService: setPowerConnected  = true
608511-14 09:18:23.266 1263-1263/? D/KeyguardUpdateMonitor: received broadcast android.intent.action.BATTERY_CHANGED
608611-14 09:18:23.266 1263-1263/? D/KeyguardUpdateMonitor: handleBatteryUpdate
608711-14 09:18:23.266 1263-1263/? D/STATUSBAR-PhoneStatusBar:  mBrightnessEnablebySettings = true mBrightnessEnablebyBattery = true mBrightnessEnablebyDisableFlag = true mPmsBrightnessEnablebySettings = true
608811-14 09:18:23.266 1263-1263/? D/BatteryMeterView: ACTION_BATTERY_CHANGED : level:67 status:2 health:2
608911-14 09:18:23.266 278-278/? D/SurfaceFlinger: FPS : 60.17
609011-14 09:18:23.266 278-278/? W/SurfaceFlinger: Fail to Open /sys/devices/platform/gpusysfs/fps
609111-14 09:18:23.276 1263-1263/? D/BatteryMeterView: ACTION_BATTERY_CHANGED : level:67 status:2 health:2
609211-14 09:18:23.276 1263-1263/? D/BatteryMeterView: ACTION_BATTERY_CHANGED : level:67 status:2 health:2
609311-14 09:18:23.286 278-278/? D/SurfaceFlinger: FPS : 60.17
609411-14 09:18:23.286 278-278/? W/SurfaceFlinger: Fail to Open /sys/devices/platform/gpusysfs/fps
609511-14 09:18:23.306 278-278/? D/SurfaceFlinger: FPS : 60.17
609611-14 09:18:23.306 278-278/? W/SurfaceFlinger: Fail to Open /sys/devices/platform/gpusysfs/fps
609711-14 09:18:23.316 278-278/? D/SurfaceFlinger: FPS : 60.17
609811-14 09:18:23.316 278-278/? W/SurfaceFlinger: Fail to Open /sys/devices/platform/gpusysfs/fps
609911-14 09:18:23.336 278-278/? D/SurfaceFlinger: FPS : 60.17
610011-14 09:18:23.336 278-278/? W/SurfaceFlinger: Fail to Open /sys/devices/platform/gpusysfs/fps
610111-14 09:18:23.356 278-278/? D/SurfaceFlinger: FPS : 60.17
610211-14 09:18:23.356 278-278/? W/SurfaceFlinger: Fail to Open /sys/devices/platform/gpusysfs/fps
610311-14 09:18:23.366 1263-1263/? D/StatusBar.NetworkController: refreshViews connected={ wifi } level=3 combinedSignalIconId=0x7f020517/com.android.systemui:drawable/stat_sys_wifi_signal_4 mobileLabel=Emergency calls only wifiLabel="Badger"xxxxXXXXxxxxXXXX emergencyOnly=true combinedLabel="Badger"xxxxXXXXxxxxXXXX mAirplaneMode=false mDataActivity=0 mPhoneSignalIconId=0x7f02048e/com.android.systemui:drawable/stat_sys_signal_3_auto_rotate mQSPhoneSignalIconId=0x7f02012b/com.android.systemui:drawable/ic_qs_signal_3 mDataDirectionIconId=0x0/(null) mDataSignalIconId=0x7f02048e/com.android.systemui:drawable/stat_sys_signal_3_auto_rotate mDataTypeIconId=0x0/(null) mQSDataTypeIconId=0x0/(null) mNoSimIconId=0x0/(null) mWifiIconId=0x7f020517/com.android.systemui:drawable/stat_sys_wifi_signal_4 mQSWifiIconId=0x7f020143/com.android.systemui:drawable/ic_qs_wifi_4 mWifiActivityIconId=0x7f0204e6/com.android.systemui:drawable/stat_sys_signal_in mBluetoothTetherIconId=0x10808cc/android:drawable/stat_sys_tether_bluetooth
610411-14 09:18:23.366 1263-1263/? D/STATUSBAR-WifiQuickSettingButton: onWifiSignalChanged enabled=true enabledDesc:"Badger"
610511-14 09:18:23.366 1263-1263/? D/StatusBar.NetworkController: refreshSignalCluster - setNWBoosterIndicators(false)
610611-14 09:18:23.366 1263-1263/? D/StatusBar.NetworkController: applyOpen
610711-14 09:18:23.366 1263-1263/? D/StatusBar.NetworkController: refreshSignalCluster - setNWBoosterIndicators(false)
610811-14 09:18:23.366 1263-1263/? D/StatusBar.NetworkController: applyOpen
610911-14 09:18:23.366 278-278/? D/SurfaceFlinger: FPS : 60.17
611011-14 09:18:23.366 278-278/? W/SurfaceFlinger: Fail to Open /sys/devices/platform/gpusysfs/fps
611111-14 09:18:23.366 1263-1263/? D/StatusBar.NetworkController: refreshSignalCluster - setNWBoosterIndicators(false)
611211-14 09:18:23.366 1263-1263/? D/StatusBar.NetworkController: applyOpen
611311-14 09:18:23.376 1263-1263/? D/StatusBar.NetworkController: refreshSignalCluster - setNWBoosterIndicators(false)
611411-14 09:18:23.376 1263-1263/? D/StatusBar.NetworkController: applyOpen
611511-14 09:18:23.386 278-278/? D/SurfaceFlinger: FPS : 60.17
611611-14 09:18:23.386 278-278/? W/SurfaceFlinger: Fail to Open /sys/devices/platform/gpusysfs/fps
611711-14 09:18:23.406 278-278/? D/SurfaceFlinger: FPS : 60.17
611811-14 09:18:23.406 278-278/? W/SurfaceFlinger: Fail to Open /sys/devices/platform/gpusysfs/fps
611911-14 09:18:23.416 278-278/? D/SurfaceFlinger: FPS : 60.17
612011-14 09:18:23.416 278-278/? W/SurfaceFlinger: Fail to Open /sys/devices/platform/gpusysfs/fps
612111-14 09:18:23.436 278-278/? D/SurfaceFlinger: FPS : 60.17
612211-14 09:18:23.436 278-278/? W/SurfaceFlinger: Fail to Open /sys/devices/platform/gpusysfs/fps
612311-14 09:18:23.456 278-278/? D/SurfaceFlinger: FPS : 60.17
612411-14 09:18:23.456 278-278/? W/SurfaceFlinger: Fail to Open /sys/devices/platform/gpusysfs/fps
612511-14 09:18:23.466 278-278/? D/SurfaceFlinger: FPS : 60.17
612611-14 09:18:23.466 278-278/? W/SurfaceFlinger: Fail to Open /sys/devices/platform/gpusysfs/fps
612711-14 09:18:23.486 278-278/? D/SurfaceFlinger: FPS : 60.17
612811-14 09:18:23.486 278-278/? W/SurfaceFlinger: Fail to Open /sys/devices/platform/gpusysfs/fps
612911-14 09:18:23.506 278-278/? D/SurfaceFlinger: FPS : 60.17
613011-14 09:18:23.506 278-278/? W/SurfaceFlinger: Fail to Open /sys/devices/platform/gpusysfs/fps
613111-14 09:18:23.516 278-278/? D/SurfaceFlinger: FPS : 60.17
613211-14 09:18:23.516 278-278/? W/SurfaceFlinger: Fail to Open /sys/devices/platform/gpusysfs/fps
613311-14 09:18:23.536 278-278/? D/SurfaceFlinger: FPS : 60.18
613411-14 09:18:23.536 278-278/? W/SurfaceFlinger: Fail to Open /sys/devices/platform/gpusysfs/fps
613511-14 09:18:23.556 278-278/? D/SurfaceFlinger: FPS : 60.18
613611-14 09:18:23.556 278-278/? W/SurfaceFlinger: Fail to Open /sys/devices/platform/gpusysfs/fps
613711-14 09:18:23.566 278-278/? D/SurfaceFlinger: FPS : 60.18
613811-14 09:18:23.566 278-278/? W/SurfaceFlinger: Fail to Open /sys/devices/platform/gpusysfs/fps
613911-14 09:18:23.586 278-278/? D/SurfaceFlinger: FPS : 60.18
614011-14 09:18:23.586 278-278/? W/SurfaceFlinger: Fail to Open /sys/devices/platform/gpusysfs/fps
614111-14 09:18:23.607 278-278/? D/SurfaceFlinger: FPS : 60.18
614211-14 09:18:23.607 278-278/? W/SurfaceFlinger: Fail to Open /sys/devices/platform/gpusysfs/fps
614311-14 09:18:23.607 25131-25131/? E/SMD: smd Interface open failed errno is 2 -1
614411-14 09:18:23.617 278-278/? D/SurfaceFlinger: FPS : 60.18
614511-14 09:18:23.617 278-278/? W/SurfaceFlinger: Fail to Open /sys/devices/platform/gpusysfs/fps
614611-14 09:18:23.637 278-278/? D/SurfaceFlinger: FPS : 60.18
614711-14 09:18:23.637 278-278/? W/SurfaceFlinger: Fail to Open /sys/devices/platform/gpusysfs/fps
614811-14 09:18:23.657 278-278/? D/SurfaceFlinger: FPS : 60.18
614911-14 09:18:23.657 278-278/? W/SurfaceFlinger: Fail to Open /sys/devices/platform/gpusysfs/fps
615011-14 09:18:23.667 278-278/? D/SurfaceFlinger: FPS : 60.18
615111-14 09:18:23.667 278-278/? W/SurfaceFlinger: Fail to Open /sys/devices/platform/gpusysfs/fps
615211-14 09:18:23.687 278-278/? D/SurfaceFlinger: FPS : 60.18
615311-14 09:18:23.687 278-278/? W/SurfaceFlinger: Fail to Open /sys/devices/platform/gpusysfs/fps
615411-14 09:18:23.697 278-278/? D/SurfaceFlinger: FPS : 60.18
615511-14 09:18:23.697 278-278/? W/SurfaceFlinger: Fail to Open /sys/devices/platform/gpusysfs/fps
615611-14 09:18:23.707 278-278/? D/SurfaceFlinger: FPS : 60.18
615711-14 09:18:23.707 278-278/? W/SurfaceFlinger: Fail to Open /sys/devices/platform/gpusysfs/fps
615811-14 09:18:23.727 278-278/? D/SurfaceFlinger: FPS : 60.18
615911-14 09:18:23.727 278-278/? W/SurfaceFlinger: Fail to Open /sys/devices/platform/gpusysfs/fps
616011-14 09:18:23.747 278-278/? D/SurfaceFlinger: FPS : 60.18
616111-14 09:18:23.747 278-278/? W/SurfaceFlinger: Fail to Open /sys/devices/platform/gpusysfs/fps
616211-14 09:18:23.757 278-278/? D/SurfaceFlinger: FPS : 60.18
616311-14 09:18:23.757 278-278/? W/SurfaceFlinger: Fail to Open /sys/devices/platform/gpusysfs/fps
616411-14 09:18:23.777 278-278/? D/SurfaceFlinger: FPS : 60.18
616511-14 09:18:23.777 278-278/? W/SurfaceFlinger: Fail to Open /sys/devices/platform/gpusysfs/fps
616611-14 09:18:23.797 278-278/? D/SurfaceFlinger: FPS : 60.11
616711-14 09:18:23.797 278-278/? W/SurfaceFlinger: Fail to Open /sys/devices/platform/gpusysfs/fps
616811-14 09:18:23.807 278-278/? D/SurfaceFlinger: FPS : 60.11
616911-14 09:18:23.807 278-278/? W/SurfaceFlinger: Fail to Open /sys/devices/platform/gpusysfs/fps
617011-14 09:18:23.827 278-278/? D/SurfaceFlinger: FPS : 60.11
617111-14 09:18:23.827 278-278/? W/SurfaceFlinger: Fail to Open /sys/devices/platform/gpusysfs/fps
617211-14 09:18:23.847 278-278/? D/SurfaceFlinger: FPS : 60.11
617311-14 09:18:23.847 278-278/? W/SurfaceFlinger: Fail to Open /sys/devices/platform/gpusysfs/fps
617411-14 09:18:23.857 278-278/? D/SurfaceFlinger: FPS : 60.11
617511-14 09:18:23.857 278-278/? W/SurfaceFlinger: Fail to Open /sys/devices/platform/gpusysfs/fps
617611-14 09:18:23.877 278-278/? D/SurfaceFlinger: FPS : 60.11
617711-14 09:18:23.877 278-278/? W/SurfaceFlinger: Fail to Open /sys/devices/platform/gpusysfs/fps
617811-14 09:18:23.897 278-278/? D/SurfaceFlinger: FPS : 60.11
617911-14 09:18:23.897 278-278/? W/SurfaceFlinger: Fail to Open /sys/devices/platform/gpusysfs/fps
618011-14 09:18:23.907 278-278/? D/SurfaceFlinger: FPS : 60.11
618111-14 09:18:23.907 278-278/? W/SurfaceFlinger: Fail to Open /sys/devices/platform/gpusysfs/fps
618211-14 09:18:23.927 278-278/? D/SurfaceFlinger: FPS : 60.11
618311-14 09:18:23.927 278-278/? W/SurfaceFlinger: Fail to Open /sys/devices/platform/gpusysfs/fps
618411-14 09:18:23.947 278-278/? D/SurfaceFlinger: FPS : 60.11
618511-14 09:18:23.947 278-278/? W/SurfaceFlinger: Fail to Open /sys/devices/platform/gpusysfs/fps
618611-14 09:18:23.957 278-278/? D/SurfaceFlinger: FPS : 60.11
618711-14 09:18:23.957 278-278/? W/SurfaceFlinger: Fail to Open /sys/devices/platform/gpusysfs/fps
618811-14 09:18:23.977 278-278/? D/SurfaceFlinger: FPS : 60.11
618911-14 09:18:23.977 278-278/? W/SurfaceFlinger: Fail to Open /sys/devices/platform/gpusysfs/fps
619011-14 09:18:23.997 278-278/? D/SurfaceFlinger: FPS : 60.11
619111-14 09:18:23.997 278-278/? W/SurfaceFlinger: Fail to Open /sys/devices/platform/gpusysfs/fps
619211-14 09:18:24.007 278-278/? D/SurfaceFlinger: FPS : 60.11
619311-14 09:18:24.007 278-278/? W/SurfaceFlinger: Fail to Open /sys/devices/platform/gpusysfs/fps
619411-14 09:18:24.027 278-278/? D/SurfaceFlinger: FPS : 60.11
619511-14 09:18:24.027 278-278/? W/SurfaceFlinger: Fail to Open /sys/devices/platform/gpusysfs/fps
619611-14 09:18:24.037 278-278/? D/SurfaceFlinger: FPS : 60.11
619711-14 09:18:24.047 278-278/? W/SurfaceFlinger: Fail to Open /sys/devices/platform/gpusysfs/fps
619811-14 09:18:24.057 278-278/? D/SurfaceFlinger: FPS : 60.18
619911-14 09:18:24.057 278-278/? W/SurfaceFlinger: Fail to Open /sys/devices/platform/gpusysfs/fps
620011-14 09:18:24.077 278-278/? D/SurfaceFlinger: FPS : 60.18
620111-14 09:18:24.077 278-278/? W/SurfaceFlinger: Fail to Open /sys/devices/platform/gpusysfs/fps
620211-14 09:18:24.097 278-278/? D/SurfaceFlinger: FPS : 60.18
620311-14 09:18:24.097 278-278/? W/SurfaceFlinger: Fail to Open /sys/devices/platform/gpusysfs/fps
620411-14 09:18:24.107 278-278/? D/SurfaceFlinger: FPS : 60.18
620511-14 09:18:24.107 278-278/? W/SurfaceFlinger: Fail to Open /sys/devices/platform/gpusysfs/fps
620611-14 09:18:24.127 278-278/? D/SurfaceFlinger: FPS : 60.18
620711-14 09:18:24.127 278-278/? W/SurfaceFlinger: Fail to Open /sys/devices/platform/gpusysfs/fps
620811-14 09:18:24.137 278-278/? D/SurfaceFlinger: FPS : 60.18
620911-14 09:18:24.147 278-278/? W/SurfaceFlinger: Fail to Open /sys/devices/platform/gpusysfs/fps
621011-14 09:18:24.157 278-278/? D/SurfaceFlinger: FPS : 60.18
621111-14 09:18:24.157 278-278/? W/SurfaceFlinger: Fail to Open /sys/devices/platform/gpusysfs/fps
621211-14 09:18:24.177 278-278/? D/SurfaceFlinger: FPS : 60.18
621311-14 09:18:24.177 278-278/? W/SurfaceFlinger: Fail to Open /sys/devices/platform/gpusysfs/fps
621411-14 09:18:24.187 278-278/? D/SurfaceFlinger: FPS : 60.18
621511-14 09:18:24.187 278-278/? W/SurfaceFlinger: Fail to Open /sys/devices/platform/gpusysfs/fps
621611-14 09:18:24.207 278-278/? D/SurfaceFlinger: FPS : 60.18
621711-14 09:18:24.207 278-278/? W/SurfaceFlinger: Fail to Open /sys/devices/platform/gpusysfs/fps
621811-14 09:18:24.227 278-278/? D/SurfaceFlinger: FPS : 60.18
621911-14 09:18:24.227 278-278/? W/SurfaceFlinger: Fail to Open /sys/devices/platform/gpusysfs/fps
622011-14 09:18:24.237 278-278/? D/SurfaceFlinger: FPS : 60.18
622111-14 09:18:24.237 278-278/? W/SurfaceFlinger: Fail to Open /sys/devices/platform/gpusysfs/fps
622211-14 09:18:24.257 278-278/? D/SurfaceFlinger: FPS : 60.18
622311-14 09:18:24.257 278-278/? W/SurfaceFlinger: Fail to Open /sys/devices/platform/gpusysfs/fps
622411-14 09:18:24.277 278-278/? D/SurfaceFlinger: FPS : 60.18
622511-14 09:18:24.277 278-278/? W/SurfaceFlinger: Fail to Open /sys/devices/platform/gpusysfs/fps
622611-14 09:18:24.287 278-278/? D/SurfaceFlinger: FPS : 60.18
622711-14 09:18:24.287 278-278/? W/SurfaceFlinger: Fail to Open /sys/devices/platform/gpusysfs/fps
622811-14 09:18:24.357 1263-1263/? D/StatusBar.NetworkController: refreshViews connected={ wifi } level=3 combinedSignalIconId=0x7f020517/com.android.systemui:drawable/stat_sys_wifi_signal_4 mobileLabel=Emergency calls only wifiLabel="Badger"xxxxXXXXxxxxXXXX emergencyOnly=true combinedLabel="Badger"xxxxXXXXxxxxXXXX mAirplaneMode=false mDataActivity=0 mPhoneSignalIconId=0x7f02048e/com.android.systemui:drawable/stat_sys_signal_3_auto_rotate mQSPhoneSignalIconId=0x7f02012b/com.android.systemui:drawable/ic_qs_signal_3 mDataDirectionIconId=0x0/(null) mDataSignalIconId=0x7f02048e/com.android.systemui:drawable/stat_sys_signal_3_auto_rotate mDataTypeIconId=0x0/(null) mQSDataTypeIconId=0x0/(null) mNoSimIconId=0x0/(null) mWifiIconId=0x7f020517/com.android.systemui:drawable/stat_sys_wifi_signal_4 mQSWifiIconId=0x7f020143/com.android.systemui:drawable/ic_qs_wifi_4 mWifiActivityIconId=0x7f0204e8/com.android.systemui:drawable/stat_sys_signal_inout mBluetoothTetherIconId=0x10808cc/android:drawable/stat_sys_tether_bluetooth
622911-14 09:18:24.357 1263-1263/? D/STATUSBAR-WifiQuickSettingButton: onWifiSignalChanged enabled=true enabledDesc:"Badger"
623011-14 09:18:24.357 1263-1263/? D/StatusBar.NetworkController: refreshSignalCluster - setNWBoosterIndicators(false)
623111-14 09:18:24.357 1263-1263/? D/StatusBar.NetworkController: applyOpen
623211-14 09:18:24.357 1263-1263/? D/StatusBar.NetworkController: refreshSignalCluster - setNWBoosterIndicators(false)
623311-14 09:18:24.367 1263-1263/? D/StatusBar.NetworkController: applyOpen
623411-14 09:18:24.367 1263-1263/? D/StatusBar.NetworkController: refreshSignalCluster - setNWBoosterIndicators(false)
623511-14 09:18:24.367 1263-1263/? D/StatusBar.NetworkController: applyOpen
623611-14 09:18:24.367 1263-1263/? D/StatusBar.NetworkController: refreshSignalCluster - setNWBoosterIndicators(false)
623711-14 09:18:24.367 1263-1263/? D/StatusBar.NetworkController: applyOpen
623811-14 09:18:24.387 278-278/? D/SurfaceFlinger: FPS : 45.11
623911-14 09:18:24.387 278-278/? W/SurfaceFlinger: Fail to Open /sys/devices/platform/gpusysfs/fps
624011-14 09:18:24.407 278-278/? D/SurfaceFlinger: FPS : 45.11
624111-14 09:18:24.407 278-278/? W/SurfaceFlinger: Fail to Open /sys/devices/platform/gpusysfs/fps
624211-14 09:18:24.597 25131-25131/? E/SMD: smd Interface open failed errno is 2 -1
624311-14 09:18:24.728 278-278/? D/SurfaceFlinger: FPS : 6.02
624411-14 09:18:24.728 278-278/? W/SurfaceFlinger: Fail to Open /sys/devices/platform/gpusysfs/fps
624511-14 09:18:24.738 278-278/? D/SurfaceFlinger: FPS : 6.02
624611-14 09:18:24.738 278-278/? W/SurfaceFlinger: Fail to Open /sys/devices/platform/gpusysfs/fps
624711-14 09:18:24.748 868-1163/? D/InputReader: Input event: value=0
624811-14 09:18:24.748 868-1163/? I/InputReader: Touch event's action is 0x1 (deviceType=0) [pCnt=1, s=] when=1432717649000
624911-14 09:18:24.748 868-1162/? I/InputDispatcher: Delivering touch to (15042): action: 0x1, toolType: 1
625011-14 09:18:24.758 868-3238/? D/CustomFrequencyManagerService: releaseDVFSLockLocked : Getting Lock type frm List : DVFS_MIN_LIMIT  frequency : 1566000  uid : 1000  pid : 868  tag : LIST_SCROLL_BOOSTER@35
625111-14 09:18:24.758 278-278/? D/SurfaceFlinger: FPS : 6.02
625211-14 09:18:24.758 278-278/? W/SurfaceFlinger: Fail to Open /sys/devices/platform/gpusysfs/fps
625311-14 09:18:24.778 278-278/? D/SurfaceFlinger: FPS : 6.02
625411-14 09:18:24.778 278-278/? W/SurfaceFlinger: Fail to Open /sys/devices/platform/gpusysfs/fps
625511-14 09:18:25.088 278-278/? D/SurfaceFlinger: FPS : 10.91
625611-14 09:18:25.088 278-278/? W/SurfaceFlinger: Fail to Open /sys/devices/platform/gpusysfs/fps
625711-14 09:18:25.108 278-278/? D/SurfaceFlinger: FPS : 10.91
625811-14 09:18:25.108 278-278/? W/SurfaceFlinger: Fail to Open /sys/devices/platform/gpusysfs/fps
625911-14 09:18:25.128 278-278/? D/SurfaceFlinger: FPS : 10.91
626011-14 09:18:25.128 278-278/? W/SurfaceFlinger: Fail to Open /sys/devices/platform/gpusysfs/fps
626111-14 09:18:25.138 278-278/? D/SurfaceFlinger: FPS : 10.91
626211-14 09:18:25.138 278-278/? W/SurfaceFlinger: Fail to Open /sys/devices/platform/gpusysfs/fps
626311-14 09:18:25.158 278-278/? D/SurfaceFlinger: FPS : 10.91
626411-14 09:18:25.158 278-278/? W/SurfaceFlinger: Fail to Open /sys/devices/platform/gpusysfs/fps
626511-14 09:18:25.178 278-278/? D/SurfaceFlinger: FPS : 10.91
626611-14 09:18:25.178 278-278/? W/SurfaceFlinger: Fail to Open /sys/devices/platform/gpusysfs/fps
626711-14 09:18:25.188 278-278/? D/SurfaceFlinger: FPS : 10.91
626811-14 09:18:25.188 278-278/? W/SurfaceFlinger: Fail to Open /sys/devices/platform/gpusysfs/fps
626911-14 09:18:25.208 278-278/? D/SurfaceFlinger: FPS : 10.91
627011-14 09:18:25.208 278-278/? W/SurfaceFlinger: Fail to Open /sys/devices/platform/gpusysfs/fps
627111-14 09:18:25.228 278-278/? D/SurfaceFlinger: FPS : 10.91
627211-14 09:18:25.228 278-278/? W/SurfaceFlinger: Fail to Open /sys/devices/platform/gpusysfs/fps
627311-14 09:18:25.238 278-278/? D/SurfaceFlinger: FPS : 10.91
627411-14 09:18:25.238 278-278/? W/SurfaceFlinger: Fail to Open /sys/devices/platform/gpusysfs/fps
627511-14 09:18:25.258 278-278/? D/SurfaceFlinger: FPS : 10.91
627611-14 09:18:25.258 278-278/? W/SurfaceFlinger: Fail to Open /sys/devices/platform/gpusysfs/fps
627711-14 09:18:25.278 278-278/? D/SurfaceFlinger: FPS : 10.91
627811-14 09:18:25.278 278-278/? W/SurfaceFlinger: Fail to Open /sys/devices/platform/gpusysfs/fps
627911-14 09:18:25.288 278-278/? D/SurfaceFlinger: FPS : 10.91
628011-14 09:18:25.288 278-278/? W/SurfaceFlinger: Fail to Open /sys/devices/platform/gpusysfs/fps
628111-14 09:18:25.308 278-278/? D/SurfaceFlinger: FPS : 10.91
628211-14 09:18:25.308 278-278/? W/SurfaceFlinger: Fail to Open /sys/devices/platform/gpusysfs/fps
628311-14 09:18:25.328 278-278/? D/SurfaceFlinger: FPS : 10.91
628411-14 09:18:25.328 278-278/? W/SurfaceFlinger: Fail to Open /sys/devices/platform/gpusysfs/fps
628511-14 09:18:25.338 278-278/? D/SurfaceFlinger: FPS : 10.91
628611-14 09:18:25.338 278-278/? W/SurfaceFlinger: Fail to Open /sys/devices/platform/gpusysfs/fps
628711-14 09:18:25.358 278-278/? D/SurfaceFlinger: FPS : 60.33
628811-14 09:18:25.358 278-278/? W/SurfaceFlinger: Fail to Open /sys/devices/platform/gpusysfs/fps
628911-14 09:18:25.388 868-1765/? D/ActivityManager: startService callerProcessName:com.google.android.gms, calleePkgName: com.google.android.gms
629011-14 09:18:25.598 25131-25131/? E/SMD: smd Interface open failed errno is 2 -1
629111-14 09:18:25.799 868-1397/? E/Watchdog: !@Sync 47
629211-14 09:18:26.599 25131-25131/? E/SMD: smd Interface open failed errno is 2 -1
629311-14 09:18:27.250 278-278/? D/SurfaceFlinger: FPS : 0.53
629411-14 09:18:27.260 278-278/? W/SurfaceFlinger: Fail to Open /sys/devices/platform/gpusysfs/fps
629511-14 09:18:27.370 1263-1263/? D/StatusBar.NetworkController: refreshViews connected={ wifi } level=3 combinedSignalIconId=0x7f020517/com.android.systemui:drawable/stat_sys_wifi_signal_4 mobileLabel=Emergency calls only wifiLabel="Badger"xxxxXXXXxxxxXXXX emergencyOnly=true combinedLabel="Badger"xxxxXXXXxxxxXXXX mAirplaneMode=false mDataActivity=0 mPhoneSignalIconId=0x7f02048e/com.android.systemui:drawable/stat_sys_signal_3_auto_rotate mQSPhoneSignalIconId=0x7f02012b/com.android.systemui:drawable/ic_qs_signal_3 mDataDirectionIconId=0x0/(null) mDataSignalIconId=0x7f02048e/com.android.systemui:drawable/stat_sys_signal_3_auto_rotate mDataTypeIconId=0x0/(null) mQSDataTypeIconId=0x0/(null) mNoSimIconId=0x0/(null) mWifiIconId=0x7f020517/com.android.systemui:drawable/stat_sys_wifi_signal_4 mQSWifiIconId=0x7f020143/com.android.systemui:drawable/ic_qs_wifi_4 mWifiActivityIconId=0x7f0204e6/com.android.systemui:drawable/stat_sys_signal_in mBluetoothTetherIconId=0x10808cc/android:drawable/stat_sys_tether_bluetooth
629611-14 09:18:27.380 1263-1263/? D/STATUSBAR-WifiQuickSettingButton: onWifiSignalChanged enabled=true enabledDesc:"Badger"
629711-14 09:18:27.380 1263-1263/? D/StatusBar.NetworkController: refreshSignalCluster - setNWBoosterIndicators(false)
629811-14 09:18:27.380 1263-1263/? D/StatusBar.NetworkController: applyOpen
629911-14 09:18:27.390 1263-1263/? D/StatusBar.NetworkController: refreshSignalCluster - setNWBoosterIndicators(false)
630011-14 09:18:27.390 1263-1263/? D/StatusBar.NetworkController: applyOpen
630111-14 09:18:27.400 1263-1263/? D/StatusBar.NetworkController: refreshSignalCluster - setNWBoosterIndicators(false)
630211-14 09:18:27.400 1263-1263/? D/StatusBar.NetworkController: applyOpen
630311-14 09:18:27.410 1263-1263/? D/StatusBar.NetworkController: refreshSignalCluster - setNWBoosterIndicators(false)
630411-14 09:18:27.410 1263-1263/? D/StatusBar.NetworkController: applyOpen
630511-14 09:18:27.440 278-278/? D/SurfaceFlinger: FPS : 0.53
630611-14 09:18:27.440 278-278/? W/SurfaceFlinger: Fail to Open /sys/devices/platform/gpusysfs/fps
630711-14 09:18:27.600 25131-25131/? E/SMD: smd Interface open failed errno is 2 -1
630811-14 09:18:27.981 25319-25319/? E/Diag_Lib:  Diag_LSM_Init: Failed to open handle to diag driver, error = 2
630911-14 09:18:28.011 1263-1263/? D/StatusBar.NetworkController: onSignalStrengthsChanged signalStrength=SignalStrength: 9 99 -120 -160 -120 -1 -1 99 2147483647 2147483647 2147483647 -1 2147483647 0x2 gsm|lte level=2
631011-14 09:18:28.011 1263-1263/? D/StatusBar.NetworkController: updateTelephonySignalStrength: hasService=true ss=SignalStrength: 9 99 -120 -160 -120 -1 -1 99 2147483647 2147483647 2147483647 -1 2147483647 0x2 gsm|lte
631111-14 09:18:28.011 1263-1263/? D/StatusBar.NetworkController: updateTelephonySignalStrength: iconLevel=2
631211-14 09:18:28.011 1263-1263/? D/StatusBar.NetworkController: updateTelephonySignalStrength, No signal level. mPhoneSignalIconId = com.android.systemui:drawable/stat_sys_signal_2_auto_rotate mDataSignalIconId = com.android.systemui:drawable/stat_sys_signal_2_auto_rotate mQSPhoneSignalIconId = com.android.systemui:drawable/ic_qs_signal_2 mContentDescriptionPhoneSignal = Phone two bars.
631311-14 09:18:28.011 1263-1263/? D/StatusBar.NetworkController: refreshViews connected={ wifi } level=2 combinedSignalIconId=0x7f020517/com.android.systemui:drawable/stat_sys_wifi_signal_4 mobileLabel=Emergency calls only wifiLabel="Badger"xxxxXXXXxxxxXXXX emergencyOnly=true combinedLabel="Badger"xxxxXXXXxxxxXXXX mAirplaneMode=false mDataActivity=0 mPhoneSignalIconId=0x7f020466/com.android.systemui:drawable/stat_sys_signal_2_auto_rotate mQSPhoneSignalIconId=0x7f02012a/com.android.systemui:drawable/ic_qs_signal_2 mDataDirectionIconId=0x0/(null) mDataSignalIconId=0x7f020466/com.android.systemui:drawable/stat_sys_signal_2_auto_rotate mDataTypeIconId=0x0/(null) mQSDataTypeIconId=0x0/(null) mNoSimIconId=0x0/(null) mWifiIconId=0x7f020517/com.android.systemui:drawable/stat_sys_wifi_signal_4 mQSWifiIconId=0x7f020143/com.android.systemui:drawable/ic_qs_wifi_4 mWifiActivityIconId=0x7f0204e6/com.android.systemui:drawable/stat_sys_signal_in mBluetoothTetherIconId=0x10808cc/android:drawable/stat_sys_tether_bluetooth
631411-14 09:18:28.011 1263-1263/? D/STATUSBAR-WifiQuickSettingButton: onWifiSignalChanged enabled=true enabledDesc:"Badger"
631511-14 09:18:28.011 1263-1263/? D/StatusBar.NetworkController: refreshSignalCluster - setNWBoosterIndicators(false)
631611-14 09:18:28.011 1263-1263/? D/StatusBar.NetworkController: applyOpen
631711-14 09:18:28.021 1263-1263/? D/StatusBar.NetworkController: refreshSignalCluster - setNWBoosterIndicators(false)
631811-14 09:18:28.021 1263-1263/? D/StatusBar.NetworkController: applyOpen
631911-14 09:18:28.021 1263-1263/? D/StatusBar.NetworkController: refreshSignalCluster - setNWBoosterIndicators(false)
632011-14 09:18:28.021 1263-1263/? D/StatusBar.NetworkController: applyOpen
632111-14 09:18:28.021 1263-1263/? D/StatusBar.NetworkController: refreshSignalCluster - setNWBoosterIndicators(false)
632211-14 09:18:28.021 1263-1263/? D/StatusBar.NetworkController: applyOpen
632311-14 09:18:28.051 278-278/? D/SurfaceFlinger: FPS : 2.51
632411-14 09:18:28.051 278-278/? W/SurfaceFlinger: Fail to Open /sys/devices/platform/gpusysfs/fps
632511-14 09:18:28.601 25131-25131/? E/SMD: smd Interface open failed errno is 2 -1
632611-14 09:18:29.452 278-278/? D/SurfaceFlinger: FPS : 0.71
632711-14 09:18:29.452 278-278/? W/SurfaceFlinger: Fail to Open /sys/devices/platform/gpusysfs/fps
632811-14 09:18:29.602 25131-25131/? E/SMD: smd Interface open failed errno is 2 -1
632911-14 09:18:29.672 868-1163/? D/InputReader: Input event: value=1
633011-14 09:18:29.672 868-1163/? I/InputReader: Touch event's action is 0x0 (deviceType=0) [pCnt=1, s=0.312 ] when=1437632200000
633111-14 09:18:29.672 868-1162/? I/InputDispatcher: Delivering touch to (1263): action: 0x4, toolType: 1
633211-14 09:18:29.672 868-1162/? I/InputDispatcher: Delivering touch to (15042): action: 0x0, toolType: 1
633311-14 09:18:29.672 15042-15042/? D/ViewRootImpl: ViewPostImeInputStage ACTION_DOWN
633411-14 09:18:29.702 868-3238/? D/CustomFrequencyManagerService: acquireDVFSLockLocked : type : DVFS_MIN_LIMIT  frequency : 1566000  uid : 1000  pid : 868  pkgName : LIST_SCROLL_BOOSTER@35
633511-14 09:18:29.722 278-278/? D/SurfaceFlinger: FPS : 3.80
633611-14 09:18:29.722 278-278/? W/SurfaceFlinger: Fail to Open /sys/devices/platform/gpusysfs/fps
633711-14 09:18:29.732 868-1163/? D/InputReader: Input event: value=0
633811-14 09:18:29.732 868-1163/? I/InputReader: Touch event's action is 0x1 (deviceType=0) [pCnt=1, s=] when=1437691343000
633911-14 09:18:29.732 868-1162/? I/InputDispatcher: Delivering touch to (15042): action: 0x1, toolType: 1
634011-14 09:18:29.732 278-278/? D/SurfaceFlinger: FPS : 3.80
634111-14 09:18:29.732 278-278/? W/SurfaceFlinger: Fail to Open /sys/devices/platform/gpusysfs/fps
634211-14 09:18:29.732 868-3238/? D/CustomFrequencyManagerService: releaseDVFSLockLocked : Getting Lock type frm List : DVFS_MIN_LIMIT  frequency : 1566000  uid : 1000  pid : 868  tag : LIST_SCROLL_BOOSTER@35
634311-14 09:18:29.752 278-278/? D/SurfaceFlinger: FPS : 3.80
634411-14 09:18:29.752 278-278/? W/SurfaceFlinger: Fail to Open /sys/devices/platform/gpusysfs/fps
634511-14 09:18:29.763 278-278/? D/SurfaceFlinger: FPS : 3.80
634611-14 09:18:29.763 278-278/? W/SurfaceFlinger: Fail to Open /sys/devices/platform/gpusysfs/fps
634711-14 09:18:29.783 278-278/? D/SurfaceFlinger: FPS : 3.80
634811-14 09:18:29.783 278-278/? W/SurfaceFlinger: Fail to Open /sys/devices/platform/gpusysfs/fps
634911-14 09:18:29.803 278-278/? D/SurfaceFlinger: FPS : 3.80
635011-14 09:18:29.803 278-278/? W/SurfaceFlinger: Fail to Open /sys/devices/platform/gpusysfs/fps
635111-14 09:18:29.813 278-278/? D/SurfaceFlinger: FPS : 3.80
635211-14 09:18:29.813 278-278/? W/SurfaceFlinger: Fail to Open /sys/devices/platform/gpusysfs/fps
635311-14 09:18:29.833 278-278/? D/SurfaceFlinger: FPS : 3.80
635411-14 09:18:29.833 278-278/? W/SurfaceFlinger: Fail to Open /sys/devices/platform/gpusysfs/fps
635511-14 09:18:29.853 278-278/? D/SurfaceFlinger: FPS : 3.80
635611-14 09:18:29.853 278-278/? W/SurfaceFlinger: Fail to Open /sys/devices/platform/gpusysfs/fps
635711-14 09:18:29.863 278-278/? D/SurfaceFlinger: FPS : 3.80
635811-14 09:18:29.863 278-278/? W/SurfaceFlinger: Fail to Open /sys/devices/platform/gpusysfs/fps
635911-14 09:18:29.883 278-278/? D/SurfaceFlinger: FPS : 3.80
636011-14 09:18:29.883 278-278/? W/SurfaceFlinger: Fail to Open /sys/devices/platform/gpusysfs/fps
636111-14 09:18:29.903 278-278/? D/SurfaceFlinger: FPS : 3.80
636211-14 09:18:29.903 278-278/? W/SurfaceFlinger: Fail to Open /sys/devices/platform/gpusysfs/fps
636311-14 09:18:29.913 278-278/? D/SurfaceFlinger: FPS : 3.80
636411-14 09:18:29.923 278-278/? W/SurfaceFlinger: Fail to Open /sys/devices/platform/gpusysfs/fps
636511-14 09:18:29.933 278-278/? D/SurfaceFlinger: FPS : 3.80
636611-14 09:18:29.933 278-278/? W/SurfaceFlinger: Fail to Open /sys/devices/platform/gpusysfs/fps
636711-14 09:18:29.953 278-278/? D/SurfaceFlinger: FPS : 3.80
636811-14 09:18:29.953 278-278/? W/SurfaceFlinger: Fail to Open /sys/devices/platform/gpusysfs/fps
636911-14 09:18:29.963 278-278/? D/SurfaceFlinger: FPS : 3.80
637011-14 09:18:29.963 278-278/? W/SurfaceFlinger: Fail to Open /sys/devices/platform/gpusysfs/fps
637111-14 09:18:29.983 278-278/? D/SurfaceFlinger: FPS : 60.68
637211-14 09:18:29.983 278-278/? W/SurfaceFlinger: Fail to Open /sys/devices/platform/gpusysfs/fps
637311-14 09:18:30.003 278-278/? D/SurfaceFlinger: FPS : 60.68
637411-14 09:18:30.003 278-278/? W/SurfaceFlinger: Fail to Open /sys/devices/platform/gpusysfs/fps
637511-14 09:18:30.013 278-278/? D/SurfaceFlinger: FPS : 60.68
637611-14 09:18:30.013 278-278/? W/SurfaceFlinger: Fail to Open /sys/devices/platform/gpusysfs/fps
637711-14 09:18:30.033 278-278/? D/SurfaceFlinger: FPS : 60.68
637811-14 09:18:30.033 278-278/? W/SurfaceFlinger: Fail to Open /sys/devices/platform/gpusysfs/fps
637911-14 09:18:30.053 278-278/? D/SurfaceFlinger: FPS : 60.68
638011-14 09:18:30.053 278-278/? W/SurfaceFlinger: Fail to Open /sys/devices/platform/gpusysfs/fps
638111-14 09:18:30.063 278-278/? D/SurfaceFlinger: FPS : 60.68
638211-14 09:18:30.063 278-278/? W/SurfaceFlinger: Fail to Open /sys/devices/platform/gpusysfs/fps
638311-14 09:18:30.083 278-278/? D/SurfaceFlinger: FPS : 60.68
638411-14 09:18:30.083 278-278/? W/SurfaceFlinger: Fail to Open /sys/devices/platform/gpusysfs/fps
638511-14 09:18:30.103 278-278/? D/SurfaceFlinger: FPS : 60.68
638611-14 09:18:30.103 278-278/? W/SurfaceFlinger: Fail to Open /sys/devices/platform/gpusysfs/fps
638711-14 09:18:30.123 278-278/? D/SurfaceFlinger: FPS : 60.68
638811-14 09:18:30.123 278-278/? W/SurfaceFlinger: Fail to Open /sys/devices/platform/gpusysfs/fps
638911-14 09:18:30.133 278-278/? D/SurfaceFlinger: FPS : 60.68
639011-14 09:18:30.133 278-278/? W/SurfaceFlinger: Fail to Open /sys/devices/platform/gpusysfs/fps
639111-14 09:18:30.153 278-278/? D/SurfaceFlinger: FPS : 60.68
639211-14 09:18:30.153 278-278/? W/SurfaceFlinger: Fail to Open /sys/devices/platform/gpusysfs/fps
639311-14 09:18:30.163 278-278/? D/SurfaceFlinger: FPS : 60.68
639411-14 09:18:30.163 278-278/? W/SurfaceFlinger: Fail to Open /sys/devices/platform/gpusysfs/fps
639511-14 09:18:30.183 278-278/? D/SurfaceFlinger: FPS : 60.68
639611-14 09:18:30.183 278-278/? W/SurfaceFlinger: Fail to Open /sys/devices/platform/gpusysfs/fps
639711-14 09:18:30.203 278-278/? D/SurfaceFlinger: FPS : 60.68
639811-14 09:18:30.203 278-278/? W/SurfaceFlinger: Fail to Open /sys/devices/platform/gpusysfs/fps
639911-14 09:18:30.213 278-278/? D/SurfaceFlinger: FPS : 60.68
640011-14 09:18:30.213 278-278/? W/SurfaceFlinger: Fail to Open /sys/devices/platform/gpusysfs/fps
640111-14 09:18:30.233 278-278/? D/SurfaceFlinger: FPS : 60.68
640211-14 09:18:30.233 278-278/? W/SurfaceFlinger: Fail to Open /sys/devices/platform/gpusysfs/fps
640311-14 09:18:30.253 278-278/? D/SurfaceFlinger: FPS : 60.06
640411-14 09:18:30.253 278-278/? W/SurfaceFlinger: Fail to Open /sys/devices/platform/gpusysfs/fps
640511-14 09:18:30.263 278-278/? D/SurfaceFlinger: FPS : 60.06
640611-14 09:18:30.263 278-278/? W/SurfaceFlinger: Fail to Open /sys/devices/platform/gpusysfs/fps
640711-14 09:18:30.283 278-278/? D/SurfaceFlinger: FPS : 60.06
640811-14 09:18:30.283 278-278/? W/SurfaceFlinger: Fail to Open /sys/devices/platform/gpusysfs/fps
640911-14 09:18:30.303 278-278/? D/SurfaceFlinger: FPS : 60.06
641011-14 09:18:30.303 278-278/? W/SurfaceFlinger: Fail to Open /sys/devices/platform/gpusysfs/fps
641111-14 09:18:30.313 278-278/? D/SurfaceFlinger: FPS : 60.06
641211-14 09:18:30.313 278-278/? W/SurfaceFlinger: Fail to Open /sys/devices/platform/gpusysfs/fps
641311-14 09:18:30.333 278-278/? D/SurfaceFlinger: FPS : 60.06
641411-14 09:18:30.333 278-278/? W/SurfaceFlinger: Fail to Open /sys/devices/platform/gpusysfs/fps
641511-14 09:18:30.343 278-278/? D/SurfaceFlinger: FPS : 60.06
641611-14 09:18:30.353 278-278/? W/SurfaceFlinger: Fail to Open /sys/devices/platform/gpusysfs/fps
641711-14 09:18:30.483 278-278/? D/SurfaceFlinger: FPS : 60.06
641811-14 09:18:30.483 278-278/? W/SurfaceFlinger: Fail to Open /sys/devices/platform/gpusysfs/fps
641911-14 09:18:30.493 278-278/? D/SurfaceFlinger: FPS : 60.06
642011-14 09:18:30.503 278-278/? W/SurfaceFlinger: Fail to Open /sys/devices/platform/gpusysfs/fps
642111-14 09:18:30.513 278-278/? D/SurfaceFlinger: FPS : 33.75
642211-14 09:18:30.513 278-278/? W/SurfaceFlinger: Fail to Open /sys/devices/platform/gpusysfs/fps
642311-14 09:18:30.533 278-278/? D/SurfaceFlinger: FPS : 33.75
642411-14 09:18:30.533 278-278/? W/SurfaceFlinger: Fail to Open /sys/devices/platform/gpusysfs/fps
642511-14 09:18:30.553 278-278/? D/SurfaceFlinger: FPS : 33.75
642611-14 09:18:30.553 278-278/? W/SurfaceFlinger: Fail to Open /sys/devices/platform/gpusysfs/fps
642711-14 09:18:30.583 278-278/? D/SurfaceFlinger: FPS : 33.75
642811-14 09:18:30.583 278-278/? W/SurfaceFlinger: Fail to Open /sys/devices/platform/gpusysfs/fps
642911-14 09:18:30.603 278-278/? D/SurfaceFlinger: FPS : 33.75
643011-14 09:18:30.603 278-278/? W/SurfaceFlinger: Fail to Open /sys/devices/platform/gpusysfs/fps
643111-14 09:18:30.603 25131-25131/? E/SMD: smd Interface open failed errno is 2 -1
643211-14 09:18:30.613 278-278/? D/SurfaceFlinger: FPS : 33.75
643311-14 09:18:30.613 278-278/? W/SurfaceFlinger: Fail to Open /sys/devices/platform/gpusysfs/fps
643411-14 09:18:30.633 278-278/? D/SurfaceFlinger: FPS : 33.75
643511-14 09:18:30.633 278-278/? W/SurfaceFlinger: Fail to Open /sys/devices/platform/gpusysfs/fps
643611-14 09:18:30.653 278-278/? D/SurfaceFlinger: FPS : 33.75
643711-14 09:18:30.653 278-278/? W/SurfaceFlinger: Fail to Open /sys/devices/platform/gpusysfs/fps
643811-14 09:18:30.663 278-278/? D/SurfaceFlinger: FPS : 33.75
643911-14 09:18:30.663 278-278/? W/SurfaceFlinger: Fail to Open /sys/devices/platform/gpusysfs/fps
644011-14 09:18:30.683 278-278/? D/SurfaceFlinger: FPS : 33.75
644111-14 09:18:30.683 278-278/? W/SurfaceFlinger: Fail to Open /sys/devices/platform/gpusysfs/fps
644211-14 09:18:30.693 278-278/? D/SurfaceFlinger: FPS : 33.75
644311-14 09:18:30.693 278-278/? W/SurfaceFlinger: Fail to Open /sys/devices/platform/gpusysfs/fps
644411-14 09:18:30.713 278-278/? D/SurfaceFlinger: FPS : 33.75
644511-14 09:18:30.713 278-278/? W/SurfaceFlinger: Fail to Open /sys/devices/platform/gpusysfs/fps
644611-14 09:18:30.733 278-278/? D/SurfaceFlinger: FPS : 33.75
644711-14 09:18:30.733 278-278/? W/SurfaceFlinger: Fail to Open /sys/devices/platform/gpusysfs/fps
644811-14 09:18:30.743 278-278/? D/SurfaceFlinger: FPS : 33.75
644911-14 09:18:30.743 278-278/? W/SurfaceFlinger: Fail to Open /sys/devices/platform/gpusysfs/fps
645011-14 09:18:30.763 278-278/? D/SurfaceFlinger: FPS : 33.75
645111-14 09:18:30.763 278-278/? W/SurfaceFlinger: Fail to Open /sys/devices/platform/gpusysfs/fps
6452<